﻿<?xml version="1.0" encoding="UTF-8" standalone="no" ?>
<gpx xmlns="http://www.topografix.com/GPX/1/1" creator="CompeGPS" version="1.1" xmlns:xsi="http://www.w3.org/2001/XMLSchema-instance" xsi:schemaLocation="http://www.topografix.com/GPX/1/1 http://www.topografix.com/GPX/1/1/gpx.xsd http://www.garmin.com/xmlschemas/GpxExtensions/v3 http://www.garmin.com/xmlschemas/GpxExtensionsv3.xsd http://www.garmin.com/xmlschemas/TrackPointExtension/v1 http://www.garmin.com/xmlschemas/TrackPointExtensionv1.xsd" xmlns:gpxtpx="http://www.garmin.com/xmlschemas/TrackPointExtension/v1">
  <metadata>
    <link href="http://www.compegps.com">
      <text>CompeGPS TEAM, SL</text>
    </link>
    <time>2013-08-18T11:12:45Z</time>
    <bounds maxlat="35.264354" maxlon="-2.562440" minlat="32.667781" minlon="-4.738693"/>
  </metadata>
  <trk>
    <name>MELILLA-MIDELT</name>
    <trkseg>
      <trkpt lat="35.264339" lon="-2.934132">
        <ele>27.1</ele>
        <time>2008-03-16T09:16:29Z</time>
      </trkpt>
      <trkpt lat="35.264354" lon="-2.934758">
        <ele>27.5</ele>
        <time>2008-03-16T09:17:22Z</time>
      </trkpt>
      <trkpt lat="35.264058" lon="-2.935344">
        <ele>27.5</ele>
        <time>2008-03-16T09:17:27Z</time>
      </trkpt>
      <trkpt lat="35.263785" lon="-2.935895">
        <ele>27.5</ele>
        <time>2008-03-16T09:17:31Z</time>
      </trkpt>
      <trkpt lat="35.263502" lon="-2.936470">
        <ele>27.5</ele>
        <time>2008-03-16T09:17:35Z</time>
      </trkpt>
      <trkpt lat="35.263187" lon="-2.937053">
        <ele>29.9</ele>
        <time>2008-03-16T09:17:39Z</time>
      </trkpt>
      <trkpt lat="35.262807" lon="-2.937598">
        <ele>32.3</ele>
        <time>2008-03-16T09:17:43Z</time>
      </trkpt>
      <trkpt lat="35.262373" lon="-2.938098">
        <ele>35.7</ele>
        <time>2008-03-16T09:17:47Z</time>
      </trkpt>
      <trkpt lat="35.261998" lon="-2.938431">
        <ele>38.1</ele>
        <time>2008-03-16T09:17:50Z</time>
      </trkpt>
      <trkpt lat="35.261588" lon="-2.938719">
        <ele>40.0</ele>
        <time>2008-03-16T09:17:53Z</time>
      </trkpt>
      <trkpt lat="35.261148" lon="-2.938978">
        <ele>41.0</ele>
        <time>2008-03-16T09:17:56Z</time>
      </trkpt>
      <trkpt lat="35.260252" lon="-2.939445">
        <ele>42.0</ele>
        <time>2008-03-16T09:18:02Z</time>
      </trkpt>
      <trkpt lat="35.259801" lon="-2.939657">
        <ele>42.0</ele>
        <time>2008-03-16T09:18:05Z</time>
      </trkpt>
      <trkpt lat="35.258526" lon="-2.939185">
        <ele>42.9</ele>
        <time>2008-03-16T09:18:11Z</time>
      </trkpt>
      <trkpt lat="35.257538" lon="-2.939019">
        <ele>43.4</ele>
        <time>2008-03-16T09:18:17Z</time>
      </trkpt>
      <trkpt lat="35.257019" lon="-2.938987">
        <ele>43.4</ele>
        <time>2008-03-16T09:18:20Z</time>
      </trkpt>
      <trkpt lat="35.256523" lon="-2.939087">
        <ele>42.9</ele>
        <time>2008-03-16T09:18:23Z</time>
      </trkpt>
      <trkpt lat="35.256040" lon="-2.939242">
        <ele>42.4</ele>
        <time>2008-03-16T09:18:26Z</time>
      </trkpt>
      <trkpt lat="35.255579" lon="-2.939470">
        <ele>41.5</ele>
        <time>2008-03-16T09:18:29Z</time>
      </trkpt>
      <trkpt lat="35.255121" lon="-2.939712">
        <ele>41.5</ele>
        <time>2008-03-16T09:18:32Z</time>
      </trkpt>
      <trkpt lat="35.254664" lon="-2.939966">
        <ele>41.5</ele>
        <time>2008-03-16T09:18:35Z</time>
      </trkpt>
      <trkpt lat="35.254198" lon="-2.940221">
        <ele>41.5</ele>
        <time>2008-03-16T09:18:38Z</time>
      </trkpt>
      <trkpt lat="35.253714" lon="-2.940465">
        <ele>42.0</ele>
        <time>2008-03-16T09:18:41Z</time>
      </trkpt>
      <trkpt lat="35.253218" lon="-2.940660">
        <ele>42.4</ele>
        <time>2008-03-16T09:18:44Z</time>
      </trkpt>
      <trkpt lat="35.252698" lon="-2.940763">
        <ele>41.5</ele>
        <time>2008-03-16T09:18:47Z</time>
      </trkpt>
      <trkpt lat="35.252188" lon="-2.940823">
        <ele>39.6</ele>
        <time>2008-03-16T09:18:50Z</time>
      </trkpt>
      <trkpt lat="35.251661" lon="-2.940779">
        <ele>38.1</ele>
        <time>2008-03-16T09:18:53Z</time>
      </trkpt>
      <trkpt lat="35.251155" lon="-2.940665">
        <ele>35.7</ele>
        <time>2008-03-16T09:18:56Z</time>
      </trkpt>
      <trkpt lat="35.250669" lon="-2.940486">
        <ele>33.3</ele>
        <time>2008-03-16T09:18:59Z</time>
      </trkpt>
      <trkpt lat="35.250212" lon="-2.940245">
        <ele>30.4</ele>
        <time>2008-03-16T09:19:02Z</time>
      </trkpt>
      <trkpt lat="35.249821" lon="-2.939985">
        <ele>28.0</ele>
        <time>2008-03-16T09:19:05Z</time>
      </trkpt>
      <trkpt lat="35.249346" lon="-2.939536">
        <ele>25.6</ele>
        <time>2008-03-16T09:19:09Z</time>
      </trkpt>
      <trkpt lat="35.248930" lon="-2.939139">
        <ele>24.2</ele>
        <time>2008-03-16T09:19:12Z</time>
      </trkpt>
      <trkpt lat="35.248490" lon="-2.938735">
        <ele>23.2</ele>
        <time>2008-03-16T09:19:15Z</time>
      </trkpt>
      <trkpt lat="35.248049" lon="-2.938325">
        <ele>23.2</ele>
        <time>2008-03-16T09:19:18Z</time>
      </trkpt>
      <trkpt lat="35.247603" lon="-2.937917">
        <ele>23.2</ele>
        <time>2008-03-16T09:19:21Z</time>
      </trkpt>
      <trkpt lat="35.247147" lon="-2.937507">
        <ele>23.2</ele>
        <time>2008-03-16T09:19:24Z</time>
      </trkpt>
      <trkpt lat="35.246693" lon="-2.937089">
        <ele>23.7</ele>
        <time>2008-03-16T09:19:27Z</time>
      </trkpt>
      <trkpt lat="35.246245" lon="-2.936672">
        <ele>23.7</ele>
        <time>2008-03-16T09:19:30Z</time>
      </trkpt>
      <trkpt lat="35.245802" lon="-2.936255">
        <ele>23.7</ele>
        <time>2008-03-16T09:19:33Z</time>
      </trkpt>
      <trkpt lat="35.245353" lon="-2.935841">
        <ele>23.2</ele>
        <time>2008-03-16T09:19:36Z</time>
      </trkpt>
      <trkpt lat="35.244891" lon="-2.935431">
        <ele>22.2</ele>
        <time>2008-03-16T09:19:39Z</time>
      </trkpt>
      <trkpt lat="35.244390" lon="-2.935065">
        <ele>21.8</ele>
        <time>2008-03-16T09:19:42Z</time>
      </trkpt>
      <trkpt lat="35.243846" lon="-2.934776">
        <ele>21.3</ele>
        <time>2008-03-16T09:19:45Z</time>
      </trkpt>
      <trkpt lat="35.243302" lon="-2.934573">
        <ele>20.8</ele>
        <time>2008-03-16T09:19:48Z</time>
      </trkpt>
      <trkpt lat="35.242795" lon="-2.934413">
        <ele>19.8</ele>
        <time>2008-03-16T09:19:51Z</time>
      </trkpt>
      <trkpt lat="35.242330" lon="-2.934264">
        <ele>19.4</ele>
        <time>2008-03-16T09:19:54Z</time>
      </trkpt>
      <trkpt lat="35.241771" lon="-2.934095">
        <ele>18.4</ele>
        <time>2008-03-16T09:19:58Z</time>
      </trkpt>
      <trkpt lat="35.241353" lon="-2.933967">
        <ele>17.9</ele>
        <time>2008-03-16T09:20:02Z</time>
      </trkpt>
      <trkpt lat="35.240929" lon="-2.933838">
        <ele>17.4</ele>
        <time>2008-03-16T09:20:11Z</time>
      </trkpt>
      <trkpt lat="35.240421" lon="-2.933676">
        <ele>16.0</ele>
        <time>2008-03-16T09:20:21Z</time>
      </trkpt>
      <trkpt lat="35.239920" lon="-2.933525">
        <ele>15.5</ele>
        <time>2008-03-16T09:20:26Z</time>
      </trkpt>
      <trkpt lat="35.239400" lon="-2.933367">
        <ele>15.0</ele>
        <time>2008-03-16T09:20:30Z</time>
      </trkpt>
      <trkpt lat="35.238952" lon="-2.933227">
        <ele>14.6</ele>
        <time>2008-03-16T09:20:33Z</time>
      </trkpt>
      <trkpt lat="35.238490" lon="-2.933082">
        <ele>14.6</ele>
        <time>2008-03-16T09:20:36Z</time>
      </trkpt>
      <trkpt lat="35.237999" lon="-2.932923">
        <ele>14.6</ele>
        <time>2008-03-16T09:20:39Z</time>
      </trkpt>
      <trkpt lat="35.237491" lon="-2.932760">
        <ele>15.0</ele>
        <time>2008-03-16T09:20:42Z</time>
      </trkpt>
      <trkpt lat="35.236984" lon="-2.932598">
        <ele>15.5</ele>
        <time>2008-03-16T09:20:45Z</time>
      </trkpt>
      <trkpt lat="35.236472" lon="-2.932441">
        <ele>16.5</ele>
        <time>2008-03-16T09:20:48Z</time>
      </trkpt>
      <trkpt lat="35.235955" lon="-2.932281">
        <ele>17.0</ele>
        <time>2008-03-16T09:20:51Z</time>
      </trkpt>
      <trkpt lat="35.235442" lon="-2.932122">
        <ele>17.9</ele>
        <time>2008-03-16T09:20:54Z</time>
      </trkpt>
      <trkpt lat="35.234939" lon="-2.931924">
        <ele>18.9</ele>
        <time>2008-03-16T09:20:57Z</time>
      </trkpt>
      <trkpt lat="35.234456" lon="-2.931656">
        <ele>19.8</ele>
        <time>2008-03-16T09:21:00Z</time>
      </trkpt>
      <trkpt lat="35.234001" lon="-2.931320">
        <ele>19.8</ele>
        <time>2008-03-16T09:21:03Z</time>
      </trkpt>
      <trkpt lat="35.233572" lon="-2.930935">
        <ele>19.8</ele>
        <time>2008-03-16T09:21:06Z</time>
      </trkpt>
      <trkpt lat="35.233151" lon="-2.930547">
        <ele>19.4</ele>
        <time>2008-03-16T09:21:09Z</time>
      </trkpt>
      <trkpt lat="35.232725" lon="-2.930159">
        <ele>19.4</ele>
        <time>2008-03-16T09:21:12Z</time>
      </trkpt>
      <trkpt lat="35.232298" lon="-2.929764">
        <ele>18.9</ele>
        <time>2008-03-16T09:21:15Z</time>
      </trkpt>
      <trkpt lat="35.231870" lon="-2.929376">
        <ele>18.9</ele>
        <time>2008-03-16T09:21:18Z</time>
      </trkpt>
      <trkpt lat="35.231448" lon="-2.928994">
        <ele>18.9</ele>
        <time>2008-03-16T09:21:21Z</time>
      </trkpt>
      <trkpt lat="35.231032" lon="-2.928614">
        <ele>18.9</ele>
        <time>2008-03-16T09:21:24Z</time>
      </trkpt>
      <trkpt lat="35.230620" lon="-2.928240">
        <ele>18.4</ele>
        <time>2008-03-16T09:21:27Z</time>
      </trkpt>
      <trkpt lat="35.230210" lon="-2.927882">
        <ele>18.4</ele>
        <time>2008-03-16T09:21:30Z</time>
      </trkpt>
      <trkpt lat="35.229796" lon="-2.927558">
        <ele>17.9</ele>
        <time>2008-03-16T09:21:33Z</time>
      </trkpt>
      <trkpt lat="35.229389" lon="-2.927254">
        <ele>18.4</ele>
        <time>2008-03-16T09:21:36Z</time>
      </trkpt>
      <trkpt lat="35.228966" lon="-2.926981">
        <ele>18.4</ele>
        <time>2008-03-16T09:21:39Z</time>
      </trkpt>
      <trkpt lat="35.228529" lon="-2.926733">
        <ele>18.4</ele>
        <time>2008-03-16T09:21:42Z</time>
      </trkpt>
      <trkpt lat="35.228076" lon="-2.926516">
        <ele>18.4</ele>
        <time>2008-03-16T09:21:45Z</time>
      </trkpt>
      <trkpt lat="35.227603" lon="-2.926320">
        <ele>17.4</ele>
        <time>2008-03-16T09:21:48Z</time>
      </trkpt>
      <trkpt lat="35.227114" lon="-2.926107">
        <ele>17.4</ele>
        <time>2008-03-16T09:21:51Z</time>
      </trkpt>
      <trkpt lat="35.226597" lon="-2.925886">
        <ele>17.4</ele>
        <time>2008-03-16T09:21:54Z</time>
      </trkpt>
      <trkpt lat="35.226061" lon="-2.925659">
        <ele>17.4</ele>
        <time>2008-03-16T09:21:57Z</time>
      </trkpt>
      <trkpt lat="35.225513" lon="-2.925426">
        <ele>17.4</ele>
        <time>2008-03-16T09:22:00Z</time>
      </trkpt>
      <trkpt lat="35.224966" lon="-2.925169">
        <ele>17.4</ele>
        <time>2008-03-16T09:22:03Z</time>
      </trkpt>
      <trkpt lat="35.224440" lon="-2.924850">
        <ele>17.0</ele>
        <time>2008-03-16T09:22:06Z</time>
      </trkpt>
      <trkpt lat="35.223969" lon="-2.924462">
        <ele>17.4</ele>
        <time>2008-03-16T09:22:09Z</time>
      </trkpt>
      <trkpt lat="35.223551" lon="-2.924029">
        <ele>18.9</ele>
        <time>2008-03-16T09:22:12Z</time>
      </trkpt>
      <trkpt lat="35.223182" lon="-2.923562">
        <ele>18.9</ele>
        <time>2008-03-16T09:22:15Z</time>
      </trkpt>
      <trkpt lat="35.222833" lon="-2.923063">
        <ele>19.4</ele>
        <time>2008-03-16T09:22:18Z</time>
      </trkpt>
      <trkpt lat="35.222476" lon="-2.922558">
        <ele>20.8</ele>
        <time>2008-03-16T09:22:21Z</time>
      </trkpt>
      <trkpt lat="35.222087" lon="-2.922088">
        <ele>22.2</ele>
        <time>2008-03-16T09:22:24Z</time>
      </trkpt>
      <trkpt lat="35.221648" lon="-2.921669">
        <ele>23.7</ele>
        <time>2008-03-16T09:22:27Z</time>
      </trkpt>
      <trkpt lat="35.221172" lon="-2.921295">
        <ele>24.2</ele>
        <time>2008-03-16T09:22:30Z</time>
      </trkpt>
      <trkpt lat="35.220654" lon="-2.920979">
        <ele>24.2</ele>
        <time>2008-03-16T09:22:33Z</time>
      </trkpt>
      <trkpt lat="35.220104" lon="-2.920702">
        <ele>24.2</ele>
        <time>2008-03-16T09:22:36Z</time>
      </trkpt>
      <trkpt lat="35.219536" lon="-2.920450">
        <ele>21.8</ele>
        <time>2008-03-16T09:22:39Z</time>
      </trkpt>
      <trkpt lat="35.218962" lon="-2.920177">
        <ele>20.3</ele>
        <time>2008-03-16T09:22:42Z</time>
      </trkpt>
      <trkpt lat="35.218397" lon="-2.919871">
        <ele>19.8</ele>
        <time>2008-03-16T09:22:45Z</time>
      </trkpt>
      <trkpt lat="35.217862" lon="-2.919500">
        <ele>20.3</ele>
        <time>2008-03-16T09:22:48Z</time>
      </trkpt>
      <trkpt lat="35.217363" lon="-2.919063">
        <ele>21.8</ele>
        <time>2008-03-16T09:22:51Z</time>
      </trkpt>
      <trkpt lat="35.216895" lon="-2.918579">
        <ele>22.7</ele>
        <time>2008-03-16T09:22:54Z</time>
      </trkpt>
      <trkpt lat="35.216430" lon="-2.918080">
        <ele>24.2</ele>
        <time>2008-03-16T09:22:57Z</time>
      </trkpt>
      <trkpt lat="35.215958" lon="-2.917580">
        <ele>25.6</ele>
        <time>2008-03-16T09:23:00Z</time>
      </trkpt>
      <trkpt lat="35.215491" lon="-2.917070">
        <ele>28.0</ele>
        <time>2008-03-16T09:23:03Z</time>
      </trkpt>
      <trkpt lat="35.215021" lon="-2.916564">
        <ele>29.5</ele>
        <time>2008-03-16T09:23:06Z</time>
      </trkpt>
      <trkpt lat="35.214547" lon="-2.916061">
        <ele>31.4</ele>
        <time>2008-03-16T09:23:09Z</time>
      </trkpt>
      <trkpt lat="35.214047" lon="-2.915591">
        <ele>32.8</ele>
        <time>2008-03-16T09:23:12Z</time>
      </trkpt>
      <trkpt lat="35.213496" lon="-2.915221">
        <ele>34.3</ele>
        <time>2008-03-16T09:23:15Z</time>
      </trkpt>
      <trkpt lat="35.212903" lon="-2.914945">
        <ele>35.2</ele>
        <time>2008-03-16T09:23:18Z</time>
      </trkpt>
      <trkpt lat="35.212283" lon="-2.914764">
        <ele>35.2</ele>
        <time>2008-03-16T09:23:21Z</time>
      </trkpt>
      <trkpt lat="35.211648" lon="-2.914690">
        <ele>35.2</ele>
        <time>2008-03-16T09:23:24Z</time>
      </trkpt>
      <trkpt lat="35.211025" lon="-2.914662">
        <ele>34.7</ele>
        <time>2008-03-16T09:23:27Z</time>
      </trkpt>
      <trkpt lat="35.210433" lon="-2.914649">
        <ele>34.3</ele>
        <time>2008-03-16T09:23:30Z</time>
      </trkpt>
      <trkpt lat="35.209850" lon="-2.914682">
        <ele>33.8</ele>
        <time>2008-03-16T09:23:33Z</time>
      </trkpt>
      <trkpt lat="35.209264" lon="-2.914813">
        <ele>33.3</ele>
        <time>2008-03-16T09:23:36Z</time>
      </trkpt>
      <trkpt lat="35.208697" lon="-2.915035">
        <ele>32.8</ele>
        <time>2008-03-16T09:23:39Z</time>
      </trkpt>
      <trkpt lat="35.208178" lon="-2.915339">
        <ele>32.3</ele>
        <time>2008-03-16T09:23:42Z</time>
      </trkpt>
      <trkpt lat="35.207708" lon="-2.915717">
        <ele>30.9</ele>
        <time>2008-03-16T09:23:45Z</time>
      </trkpt>
      <trkpt lat="35.207252" lon="-2.916145">
        <ele>30.4</ele>
        <time>2008-03-16T09:23:48Z</time>
      </trkpt>
      <trkpt lat="35.206798" lon="-2.916589">
        <ele>29.0</ele>
        <time>2008-03-16T09:23:51Z</time>
      </trkpt>
      <trkpt lat="35.206329" lon="-2.917043">
        <ele>27.1</ele>
        <time>2008-03-16T09:23:54Z</time>
      </trkpt>
      <trkpt lat="35.205847" lon="-2.917507">
        <ele>25.1</ele>
        <time>2008-03-16T09:23:57Z</time>
      </trkpt>
      <trkpt lat="35.205356" lon="-2.917980">
        <ele>22.7</ele>
        <time>2008-03-16T09:24:00Z</time>
      </trkpt>
      <trkpt lat="35.204863" lon="-2.918465">
        <ele>20.3</ele>
        <time>2008-03-16T09:24:03Z</time>
      </trkpt>
      <trkpt lat="35.204374" lon="-2.918937">
        <ele>17.9</ele>
        <time>2008-03-16T09:24:06Z</time>
      </trkpt>
      <trkpt lat="35.203897" lon="-2.919397">
        <ele>16.5</ele>
        <time>2008-03-16T09:24:09Z</time>
      </trkpt>
      <trkpt lat="35.203432" lon="-2.919853">
        <ele>17.0</ele>
        <time>2008-03-16T09:24:12Z</time>
      </trkpt>
      <trkpt lat="35.202972" lon="-2.920296">
        <ele>18.9</ele>
        <time>2008-03-16T09:24:15Z</time>
      </trkpt>
      <trkpt lat="35.202523" lon="-2.920742">
        <ele>21.3</ele>
        <time>2008-03-16T09:24:18Z</time>
      </trkpt>
      <trkpt lat="35.202098" lon="-2.921214">
        <ele>24.2</ele>
        <time>2008-03-16T09:24:21Z</time>
      </trkpt>
      <trkpt lat="35.201703" lon="-2.921721">
        <ele>26.1</ele>
        <time>2008-03-16T09:24:24Z</time>
      </trkpt>
      <trkpt lat="35.201343" lon="-2.922241">
        <ele>27.1</ele>
        <time>2008-03-16T09:24:27Z</time>
      </trkpt>
      <trkpt lat="35.201002" lon="-2.922792">
        <ele>27.1</ele>
        <time>2008-03-16T09:24:30Z</time>
      </trkpt>
      <trkpt lat="35.200675" lon="-2.923369">
        <ele>26.1</ele>
        <time>2008-03-16T09:24:33Z</time>
      </trkpt>
      <trkpt lat="35.200340" lon="-2.923922">
        <ele>25.1</ele>
        <time>2008-03-16T09:24:36Z</time>
      </trkpt>
      <trkpt lat="35.199901" lon="-2.924650">
        <ele>24.2</ele>
        <time>2008-03-16T09:24:40Z</time>
      </trkpt>
      <trkpt lat="35.199586" lon="-2.925174">
        <ele>23.2</ele>
        <time>2008-03-16T09:24:43Z</time>
      </trkpt>
      <trkpt lat="35.199281" lon="-2.925676">
        <ele>22.7</ele>
        <time>2008-03-16T09:24:46Z</time>
      </trkpt>
      <trkpt lat="35.198965" lon="-2.926220">
        <ele>21.3</ele>
        <time>2008-03-16T09:24:49Z</time>
      </trkpt>
      <trkpt lat="35.198642" lon="-2.926767">
        <ele>20.8</ele>
        <time>2008-03-16T09:24:52Z</time>
      </trkpt>
      <trkpt lat="35.198326" lon="-2.927299">
        <ele>19.8</ele>
        <time>2008-03-16T09:24:55Z</time>
      </trkpt>
      <trkpt lat="35.198013" lon="-2.927828">
        <ele>18.4</ele>
        <time>2008-03-16T09:24:58Z</time>
      </trkpt>
      <trkpt lat="35.197694" lon="-2.928359">
        <ele>17.4</ele>
        <time>2008-03-16T09:25:01Z</time>
      </trkpt>
      <trkpt lat="35.197386" lon="-2.928889">
        <ele>16.5</ele>
        <time>2008-03-16T09:25:04Z</time>
      </trkpt>
      <trkpt lat="35.197080" lon="-2.929412">
        <ele>16.0</ele>
        <time>2008-03-16T09:25:07Z</time>
      </trkpt>
      <trkpt lat="35.196776" lon="-2.929924">
        <ele>16.0</ele>
        <time>2008-03-16T09:25:10Z</time>
      </trkpt>
      <trkpt lat="35.196459" lon="-2.930402">
        <ele>16.5</ele>
        <time>2008-03-16T09:25:13Z</time>
      </trkpt>
      <trkpt lat="35.196129" lon="-2.930764">
        <ele>17.0</ele>
        <time>2008-03-16T09:25:16Z</time>
      </trkpt>
      <trkpt lat="35.195791" lon="-2.931012">
        <ele>18.9</ele>
        <time>2008-03-16T09:25:30Z</time>
      </trkpt>
      <trkpt lat="35.195332" lon="-2.931224">
        <ele>19.4</ele>
        <time>2008-03-16T09:25:37Z</time>
      </trkpt>
      <trkpt lat="35.194851" lon="-2.931270">
        <ele>19.4</ele>
        <time>2008-03-16T09:25:43Z</time>
      </trkpt>
      <trkpt lat="35.194388" lon="-2.931283">
        <ele>19.4</ele>
        <time>2008-03-16T09:25:49Z</time>
      </trkpt>
      <trkpt lat="35.193877" lon="-2.931257">
        <ele>19.4</ele>
        <time>2008-03-16T09:25:54Z</time>
      </trkpt>
      <trkpt lat="35.193331" lon="-2.931226">
        <ele>19.4</ele>
        <time>2008-03-16T09:25:58Z</time>
      </trkpt>
      <trkpt lat="35.192863" lon="-2.931203">
        <ele>19.4</ele>
        <time>2008-03-16T09:26:01Z</time>
      </trkpt>
      <trkpt lat="35.192284" lon="-2.931187">
        <ele>19.4</ele>
        <time>2008-03-16T09:26:05Z</time>
      </trkpt>
      <trkpt lat="35.191774" lon="-2.931177">
        <ele>19.4</ele>
        <time>2008-03-16T09:26:08Z</time>
      </trkpt>
      <trkpt lat="35.191209" lon="-2.931159">
        <ele>20.3</ele>
        <time>2008-03-16T09:26:11Z</time>
      </trkpt>
      <trkpt lat="35.190648" lon="-2.931106">
        <ele>22.2</ele>
        <time>2008-03-16T09:26:14Z</time>
      </trkpt>
      <trkpt lat="35.190125" lon="-2.930983">
        <ele>23.7</ele>
        <time>2008-03-16T09:26:17Z</time>
      </trkpt>
      <trkpt lat="35.189711" lon="-2.930809">
        <ele>25.1</ele>
        <time>2008-03-16T09:26:20Z</time>
      </trkpt>
      <trkpt lat="35.189301" lon="-2.930567">
        <ele>27.1</ele>
        <time>2008-03-16T09:26:25Z</time>
      </trkpt>
      <trkpt lat="35.188862" lon="-2.930196">
        <ele>29.0</ele>
        <time>2008-03-16T09:26:33Z</time>
      </trkpt>
      <trkpt lat="35.188409" lon="-2.929736">
        <ele>31.4</ele>
        <time>2008-03-16T09:26:38Z</time>
      </trkpt>
      <trkpt lat="35.188029" lon="-2.929338">
        <ele>32.8</ele>
        <time>2008-03-16T09:26:42Z</time>
      </trkpt>
      <trkpt lat="35.187592" lon="-2.929007">
        <ele>32.3</ele>
        <time>2008-03-16T09:26:46Z</time>
      </trkpt>
      <trkpt lat="35.187129" lon="-2.928730">
        <ele>30.9</ele>
        <time>2008-03-16T09:26:51Z</time>
      </trkpt>
      <trkpt lat="35.186641" lon="-2.928466">
        <ele>29.9</ele>
        <time>2008-03-16T09:26:56Z</time>
      </trkpt>
      <trkpt lat="35.186164" lon="-2.928255">
        <ele>29.9</ele>
        <time>2008-03-16T09:27:00Z</time>
      </trkpt>
      <trkpt lat="35.185623" lon="-2.928119">
        <ele>29.9</ele>
        <time>2008-03-16T09:27:04Z</time>
      </trkpt>
      <trkpt lat="35.185048" lon="-2.928108">
        <ele>29.5</ele>
        <time>2008-03-16T09:27:08Z</time>
      </trkpt>
      <trkpt lat="35.184447" lon="-2.928189">
        <ele>27.1</ele>
        <time>2008-03-16T09:27:12Z</time>
      </trkpt>
      <trkpt lat="35.183979" lon="-2.928258">
        <ele>25.1</ele>
        <time>2008-03-16T09:27:15Z</time>
      </trkpt>
      <trkpt lat="35.183514" lon="-2.928317">
        <ele>24.2</ele>
        <time>2008-03-16T09:27:18Z</time>
      </trkpt>
      <trkpt lat="35.183057" lon="-2.928384">
        <ele>23.7</ele>
        <time>2008-03-16T09:27:21Z</time>
      </trkpt>
      <trkpt lat="35.182485" lon="-2.928427">
        <ele>23.2</ele>
        <time>2008-03-16T09:27:25Z</time>
      </trkpt>
      <trkpt lat="35.181970" lon="-2.928400">
        <ele>22.7</ele>
        <time>2008-03-16T09:27:29Z</time>
      </trkpt>
      <trkpt lat="35.181507" lon="-2.928371">
        <ele>22.7</ele>
        <time>2008-03-16T09:27:33Z</time>
      </trkpt>
      <trkpt lat="35.180998" lon="-2.928368">
        <ele>22.7</ele>
        <time>2008-03-16T09:27:38Z</time>
      </trkpt>
      <trkpt lat="35.180455" lon="-2.928407">
        <ele>22.7</ele>
        <time>2008-03-16T09:27:43Z</time>
      </trkpt>
      <trkpt lat="35.179990" lon="-2.928474">
        <ele>22.7</ele>
        <time>2008-03-16T09:27:47Z</time>
      </trkpt>
      <trkpt lat="35.179479" lon="-2.928675">
        <ele>22.7</ele>
        <time>2008-03-16T09:27:52Z</time>
      </trkpt>
      <trkpt lat="35.179116" lon="-2.929030">
        <ele>21.8</ele>
        <time>2008-03-16T09:27:57Z</time>
      </trkpt>
      <trkpt lat="35.178750" lon="-2.929512">
        <ele>21.8</ele>
        <time>2008-03-16T09:28:03Z</time>
      </trkpt>
      <trkpt lat="35.178416" lon="-2.929960">
        <ele>21.8</ele>
        <time>2008-03-16T09:28:08Z</time>
      </trkpt>
      <trkpt lat="35.178028" lon="-2.930400">
        <ele>21.8</ele>
        <time>2008-03-16T09:28:13Z</time>
      </trkpt>
      <trkpt lat="35.177596" lon="-2.930793">
        <ele>22.2</ele>
        <time>2008-03-16T09:28:18Z</time>
      </trkpt>
      <trkpt lat="35.177140" lon="-2.931157">
        <ele>22.2</ele>
        <time>2008-03-16T09:28:23Z</time>
      </trkpt>
      <trkpt lat="35.176721" lon="-2.931599">
        <ele>23.2</ele>
        <time>2008-03-16T09:28:28Z</time>
      </trkpt>
      <trkpt lat="35.176310" lon="-2.932052">
        <ele>25.1</ele>
        <time>2008-03-16T09:28:33Z</time>
      </trkpt>
      <trkpt lat="35.175967" lon="-2.932426">
        <ele>26.6</ele>
        <time>2008-03-16T09:28:37Z</time>
      </trkpt>
      <trkpt lat="35.175624" lon="-2.932802">
        <ele>27.5</ele>
        <time>2008-03-16T09:28:41Z</time>
      </trkpt>
      <trkpt lat="35.175296" lon="-2.933197">
        <ele>28.0</ele>
        <time>2008-03-16T09:28:45Z</time>
      </trkpt>
      <trkpt lat="35.175001" lon="-2.933627">
        <ele>28.5</ele>
        <time>2008-03-16T09:28:49Z</time>
      </trkpt>
      <trkpt lat="35.174718" lon="-2.934058">
        <ele>29.5</ele>
        <time>2008-03-16T09:28:53Z</time>
      </trkpt>
      <trkpt lat="35.174422" lon="-2.934514">
        <ele>29.9</ele>
        <time>2008-03-16T09:28:58Z</time>
      </trkpt>
      <trkpt lat="35.174121" lon="-2.934740">
        <ele>29.9</ele>
        <time>2008-03-16T09:29:09Z</time>
      </trkpt>
      <trkpt lat="35.173809" lon="-2.934233">
        <ele>29.9</ele>
        <time>2008-03-16T09:29:28Z</time>
      </trkpt>
      <trkpt lat="35.173344" lon="-2.934019">
        <ele>30.4</ele>
        <time>2008-03-16T09:29:34Z</time>
      </trkpt>
      <trkpt lat="35.172772" lon="-2.933866">
        <ele>30.9</ele>
        <time>2008-03-16T09:29:39Z</time>
      </trkpt>
      <trkpt lat="35.172269" lon="-2.933741">
        <ele>30.4</ele>
        <time>2008-03-16T09:29:43Z</time>
      </trkpt>
      <trkpt lat="35.171755" lon="-2.933614">
        <ele>30.4</ele>
        <time>2008-03-16T09:29:47Z</time>
      </trkpt>
      <trkpt lat="35.171239" lon="-2.933486">
        <ele>30.4</ele>
        <time>2008-03-16T09:29:51Z</time>
      </trkpt>
      <trkpt lat="35.170765" lon="-2.933373">
        <ele>29.9</ele>
        <time>2008-03-16T09:29:55Z</time>
      </trkpt>
      <trkpt lat="35.170230" lon="-2.933214">
        <ele>29.9</ele>
        <time>2008-03-16T09:30:00Z</time>
      </trkpt>
      <trkpt lat="35.169704" lon="-2.933099">
        <ele>30.9</ele>
        <time>2008-03-16T09:30:05Z</time>
      </trkpt>
      <trkpt lat="35.169207" lon="-2.932982">
        <ele>31.9</ele>
        <time>2008-03-16T09:30:09Z</time>
      </trkpt>
      <trkpt lat="35.168677" lon="-2.932842">
        <ele>31.9</ele>
        <time>2008-03-16T09:30:13Z</time>
      </trkpt>
      <trkpt lat="35.168173" lon="-2.932696">
        <ele>31.4</ele>
        <time>2008-03-16T09:30:17Z</time>
      </trkpt>
      <trkpt lat="35.167652" lon="-2.932566">
        <ele>31.4</ele>
        <time>2008-03-16T09:30:21Z</time>
      </trkpt>
      <trkpt lat="35.167117" lon="-2.932426">
        <ele>31.4</ele>
        <time>2008-03-16T09:30:25Z</time>
      </trkpt>
      <trkpt lat="35.166574" lon="-2.932287">
        <ele>30.4</ele>
        <time>2008-03-16T09:30:29Z</time>
      </trkpt>
      <trkpt lat="35.166013" lon="-2.932159">
        <ele>29.9</ele>
        <time>2008-03-16T09:30:33Z</time>
      </trkpt>
      <trkpt lat="35.165466" lon="-2.932032">
        <ele>29.0</ele>
        <time>2008-03-16T09:30:37Z</time>
      </trkpt>
      <trkpt lat="35.164935" lon="-2.931912">
        <ele>29.0</ele>
        <time>2008-03-16T09:30:41Z</time>
      </trkpt>
      <trkpt lat="35.164401" lon="-2.931785">
        <ele>30.9</ele>
        <time>2008-03-16T09:30:45Z</time>
      </trkpt>
      <trkpt lat="35.163938" lon="-2.931666">
        <ele>30.9</ele>
        <time>2008-03-16T09:30:49Z</time>
      </trkpt>
      <trkpt lat="35.163416" lon="-2.931517">
        <ele>29.9</ele>
        <time>2008-03-16T09:30:54Z</time>
      </trkpt>
      <trkpt lat="35.162929" lon="-2.931395">
        <ele>30.4</ele>
        <time>2008-03-16T09:30:58Z</time>
      </trkpt>
      <trkpt lat="35.162409" lon="-2.931266">
        <ele>29.0</ele>
        <time>2008-03-16T09:31:02Z</time>
      </trkpt>
      <trkpt lat="35.161878" lon="-2.931128">
        <ele>28.5</ele>
        <time>2008-03-16T09:31:06Z</time>
      </trkpt>
      <trkpt lat="35.161374" lon="-2.931006">
        <ele>28.5</ele>
        <time>2008-03-16T09:31:10Z</time>
      </trkpt>
      <trkpt lat="35.160875" lon="-2.930879">
        <ele>27.5</ele>
        <time>2008-03-16T09:31:14Z</time>
      </trkpt>
      <trkpt lat="35.160349" lon="-2.930737">
        <ele>26.6</ele>
        <time>2008-03-16T09:31:18Z</time>
      </trkpt>
      <trkpt lat="35.159801" lon="-2.930593">
        <ele>26.1</ele>
        <time>2008-03-16T09:31:22Z</time>
      </trkpt>
      <trkpt lat="35.159276" lon="-2.930455">
        <ele>25.6</ele>
        <time>2008-03-16T09:31:26Z</time>
      </trkpt>
      <trkpt lat="35.158766" lon="-2.930331">
        <ele>25.6</ele>
        <time>2008-03-16T09:31:30Z</time>
      </trkpt>
      <trkpt lat="35.158298" lon="-2.930214">
        <ele>25.6</ele>
        <time>2008-03-16T09:31:34Z</time>
      </trkpt>
      <trkpt lat="35.157843" lon="-2.930099">
        <ele>25.1</ele>
        <time>2008-03-16T09:31:38Z</time>
      </trkpt>
      <trkpt lat="35.157405" lon="-2.929980">
        <ele>24.7</ele>
        <time>2008-03-16T09:31:42Z</time>
      </trkpt>
      <trkpt lat="35.156884" lon="-2.929839">
        <ele>24.2</ele>
        <time>2008-03-16T09:31:47Z</time>
      </trkpt>
      <trkpt lat="35.156392" lon="-2.929701">
        <ele>23.2</ele>
        <time>2008-03-16T09:31:52Z</time>
      </trkpt>
      <trkpt lat="35.155880" lon="-2.929566">
        <ele>22.7</ele>
        <time>2008-03-16T09:31:57Z</time>
      </trkpt>
      <trkpt lat="35.155414" lon="-2.929434">
        <ele>24.7</ele>
        <time>2008-03-16T09:32:01Z</time>
      </trkpt>
      <trkpt lat="35.154928" lon="-2.929292">
        <ele>26.6</ele>
        <time>2008-03-16T09:32:05Z</time>
      </trkpt>
      <trkpt lat="35.154445" lon="-2.929185">
        <ele>27.1</ele>
        <time>2008-03-16T09:32:10Z</time>
      </trkpt>
      <trkpt lat="35.154003" lon="-2.929020">
        <ele>29.0</ele>
        <time>2008-03-16T09:32:47Z</time>
      </trkpt>
      <trkpt lat="35.153550" lon="-2.928881">
        <ele>28.0</ele>
        <time>2008-03-16T09:32:52Z</time>
      </trkpt>
      <trkpt lat="35.153031" lon="-2.928756">
        <ele>27.1</ele>
        <time>2008-03-16T09:32:57Z</time>
      </trkpt>
      <trkpt lat="35.152598" lon="-2.928673">
        <ele>26.1</ele>
        <time>2008-03-16T09:33:02Z</time>
      </trkpt>
      <trkpt lat="35.152134" lon="-2.928786">
        <ele>27.1</ele>
        <time>2008-03-16T09:33:12Z</time>
      </trkpt>
      <trkpt lat="35.151790" lon="-2.928482">
        <ele>26.1</ele>
        <time>2008-03-16T09:33:20Z</time>
      </trkpt>
      <trkpt lat="35.151342" lon="-2.928302">
        <ele>25.6</ele>
        <time>2008-03-16T09:33:27Z</time>
      </trkpt>
      <trkpt lat="35.150848" lon="-2.928190">
        <ele>24.7</ele>
        <time>2008-03-16T09:33:32Z</time>
      </trkpt>
      <trkpt lat="35.150384" lon="-2.928075">
        <ele>23.7</ele>
        <time>2008-03-16T09:33:36Z</time>
      </trkpt>
      <trkpt lat="35.149905" lon="-2.927962">
        <ele>23.2</ele>
        <time>2008-03-16T09:33:40Z</time>
      </trkpt>
      <trkpt lat="35.149454" lon="-2.927851">
        <ele>22.7</ele>
        <time>2008-03-16T09:33:44Z</time>
      </trkpt>
      <trkpt lat="35.149006" lon="-2.927747">
        <ele>22.2</ele>
        <time>2008-03-16T09:33:48Z</time>
      </trkpt>
      <trkpt lat="35.148568" lon="-2.927635">
        <ele>21.3</ele>
        <time>2008-03-16T09:33:53Z</time>
      </trkpt>
      <trkpt lat="35.148067" lon="-2.927520">
        <ele>21.3</ele>
        <time>2008-03-16T09:34:01Z</time>
      </trkpt>
      <trkpt lat="35.147533" lon="-2.927401">
        <ele>21.3</ele>
        <time>2008-03-16T09:34:06Z</time>
      </trkpt>
      <trkpt lat="35.147065" lon="-2.927294">
        <ele>20.8</ele>
        <time>2008-03-16T09:34:10Z</time>
      </trkpt>
      <trkpt lat="35.146557" lon="-2.927142">
        <ele>20.3</ele>
        <time>2008-03-16T09:34:14Z</time>
      </trkpt>
      <trkpt lat="35.145999" lon="-2.927011">
        <ele>19.8</ele>
        <time>2008-03-16T09:34:18Z</time>
      </trkpt>
      <trkpt lat="35.145435" lon="-2.926866">
        <ele>18.9</ele>
        <time>2008-03-16T09:34:22Z</time>
      </trkpt>
      <trkpt lat="35.144872" lon="-2.926720">
        <ele>18.9</ele>
        <time>2008-03-16T09:34:26Z</time>
      </trkpt>
      <trkpt lat="35.144308" lon="-2.926579">
        <ele>18.9</ele>
        <time>2008-03-16T09:34:30Z</time>
      </trkpt>
      <trkpt lat="35.143751" lon="-2.926448">
        <ele>18.9</ele>
        <time>2008-03-16T09:34:34Z</time>
      </trkpt>
      <trkpt lat="35.143205" lon="-2.926329">
        <ele>18.4</ele>
        <time>2008-03-16T09:34:38Z</time>
      </trkpt>
      <trkpt lat="35.142676" lon="-2.926205">
        <ele>18.4</ele>
        <time>2008-03-16T09:34:42Z</time>
      </trkpt>
      <trkpt lat="35.142156" lon="-2.926071">
        <ele>17.9</ele>
        <time>2008-03-16T09:34:46Z</time>
      </trkpt>
      <trkpt lat="35.141631" lon="-2.925935">
        <ele>17.9</ele>
        <time>2008-03-16T09:34:50Z</time>
      </trkpt>
      <trkpt lat="35.141072" lon="-2.925802">
        <ele>17.9</ele>
        <time>2008-03-16T09:34:54Z</time>
      </trkpt>
      <trkpt lat="35.140623" lon="-2.925694">
        <ele>17.9</ele>
        <time>2008-03-16T09:34:57Z</time>
      </trkpt>
      <trkpt lat="35.140163" lon="-2.925573">
        <ele>17.9</ele>
        <time>2008-03-16T09:35:00Z</time>
      </trkpt>
      <trkpt lat="35.139703" lon="-2.925450">
        <ele>17.9</ele>
        <time>2008-03-16T09:35:03Z</time>
      </trkpt>
      <trkpt lat="35.139240" lon="-2.925330">
        <ele>17.9</ele>
        <time>2008-03-16T09:35:06Z</time>
      </trkpt>
      <trkpt lat="35.138789" lon="-2.925219">
        <ele>17.4</ele>
        <time>2008-03-16T09:35:09Z</time>
      </trkpt>
      <trkpt lat="35.138196" lon="-2.925068">
        <ele>17.9</ele>
        <time>2008-03-16T09:35:13Z</time>
      </trkpt>
      <trkpt lat="35.137729" lon="-2.924936">
        <ele>18.4</ele>
        <time>2008-03-16T09:35:16Z</time>
      </trkpt>
      <trkpt lat="35.137233" lon="-2.924771">
        <ele>18.9</ele>
        <time>2008-03-16T09:35:19Z</time>
      </trkpt>
      <trkpt lat="35.136709" lon="-2.924589">
        <ele>18.9</ele>
        <time>2008-03-16T09:35:22Z</time>
      </trkpt>
      <trkpt lat="35.136174" lon="-2.924370">
        <ele>18.9</ele>
        <time>2008-03-16T09:35:25Z</time>
      </trkpt>
      <trkpt lat="35.135651" lon="-2.924130">
        <ele>19.4</ele>
        <time>2008-03-16T09:35:28Z</time>
      </trkpt>
      <trkpt lat="35.135160" lon="-2.923873">
        <ele>19.8</ele>
        <time>2008-03-16T09:35:31Z</time>
      </trkpt>
      <trkpt lat="35.134684" lon="-2.923588">
        <ele>20.3</ele>
        <time>2008-03-16T09:35:34Z</time>
      </trkpt>
      <trkpt lat="35.134207" lon="-2.923296">
        <ele>20.3</ele>
        <time>2008-03-16T09:35:37Z</time>
      </trkpt>
      <trkpt lat="35.133729" lon="-2.923014">
        <ele>20.3</ele>
        <time>2008-03-16T09:35:40Z</time>
      </trkpt>
      <trkpt lat="35.133253" lon="-2.922765">
        <ele>20.3</ele>
        <time>2008-03-16T09:35:43Z</time>
      </trkpt>
      <trkpt lat="35.132776" lon="-2.922567">
        <ele>20.8</ele>
        <time>2008-03-16T09:35:46Z</time>
      </trkpt>
      <trkpt lat="35.132291" lon="-2.922417">
        <ele>21.3</ele>
        <time>2008-03-16T09:35:49Z</time>
      </trkpt>
      <trkpt lat="35.131800" lon="-2.922333">
        <ele>21.8</ele>
        <time>2008-03-16T09:35:52Z</time>
      </trkpt>
      <trkpt lat="35.131309" lon="-2.922300">
        <ele>22.2</ele>
        <time>2008-03-16T09:35:55Z</time>
      </trkpt>
      <trkpt lat="35.130823" lon="-2.922302">
        <ele>22.2</ele>
        <time>2008-03-16T09:35:58Z</time>
      </trkpt>
      <trkpt lat="35.130343" lon="-2.922337">
        <ele>22.7</ele>
        <time>2008-03-16T09:36:01Z</time>
      </trkpt>
      <trkpt lat="35.129878" lon="-2.922422">
        <ele>22.7</ele>
        <time>2008-03-16T09:36:04Z</time>
      </trkpt>
      <trkpt lat="35.129315" lon="-2.922560">
        <ele>23.2</ele>
        <time>2008-03-16T09:36:08Z</time>
      </trkpt>
      <trkpt lat="35.128786" lon="-2.922703">
        <ele>23.7</ele>
        <time>2008-03-16T09:36:12Z</time>
      </trkpt>
      <trkpt lat="35.128284" lon="-2.922841">
        <ele>24.2</ele>
        <time>2008-03-16T09:36:16Z</time>
      </trkpt>
      <trkpt lat="35.127789" lon="-2.922981">
        <ele>24.7</ele>
        <time>2008-03-16T09:36:20Z</time>
      </trkpt>
      <trkpt lat="35.127341" lon="-2.923117">
        <ele>25.1</ele>
        <time>2008-03-16T09:36:24Z</time>
      </trkpt>
      <trkpt lat="35.126936" lon="-2.923270">
        <ele>25.1</ele>
        <time>2008-03-16T09:36:29Z</time>
      </trkpt>
      <trkpt lat="35.126481" lon="-2.923493">
        <ele>25.1</ele>
        <time>2008-03-16T09:36:39Z</time>
      </trkpt>
      <trkpt lat="35.125993" lon="-2.923554">
        <ele>25.6</ele>
        <time>2008-03-16T09:36:44Z</time>
      </trkpt>
      <trkpt lat="35.125521" lon="-2.923691">
        <ele>26.1</ele>
        <time>2008-03-16T09:36:48Z</time>
      </trkpt>
      <trkpt lat="35.124951" lon="-2.923860">
        <ele>27.1</ele>
        <time>2008-03-16T09:36:52Z</time>
      </trkpt>
      <trkpt lat="35.124482" lon="-2.923995">
        <ele>27.5</ele>
        <time>2008-03-16T09:36:55Z</time>
      </trkpt>
      <trkpt lat="35.123992" lon="-2.924138">
        <ele>27.5</ele>
        <time>2008-03-16T09:36:58Z</time>
      </trkpt>
      <trkpt lat="35.123496" lon="-2.924285">
        <ele>28.0</ele>
        <time>2008-03-16T09:37:01Z</time>
      </trkpt>
      <trkpt lat="35.122981" lon="-2.924435">
        <ele>28.5</ele>
        <time>2008-03-16T09:37:04Z</time>
      </trkpt>
      <trkpt lat="35.122449" lon="-2.924588">
        <ele>29.0</ele>
        <time>2008-03-16T09:37:07Z</time>
      </trkpt>
      <trkpt lat="35.121902" lon="-2.924726">
        <ele>29.5</ele>
        <time>2008-03-16T09:37:10Z</time>
      </trkpt>
      <trkpt lat="35.121348" lon="-2.924893">
        <ele>30.4</ele>
        <time>2008-03-16T09:37:13Z</time>
      </trkpt>
      <trkpt lat="35.120784" lon="-2.925077">
        <ele>30.4</ele>
        <time>2008-03-16T09:37:16Z</time>
      </trkpt>
      <trkpt lat="35.120212" lon="-2.925248">
        <ele>30.9</ele>
        <time>2008-03-16T09:37:19Z</time>
      </trkpt>
      <trkpt lat="35.119643" lon="-2.925417">
        <ele>31.9</ele>
        <time>2008-03-16T09:37:22Z</time>
      </trkpt>
      <trkpt lat="35.119080" lon="-2.925587">
        <ele>32.8</ele>
        <time>2008-03-16T09:37:25Z</time>
      </trkpt>
      <trkpt lat="35.118515" lon="-2.925751">
        <ele>33.8</ele>
        <time>2008-03-16T09:37:28Z</time>
      </trkpt>
      <trkpt lat="35.117944" lon="-2.925918">
        <ele>35.2</ele>
        <time>2008-03-16T09:37:31Z</time>
      </trkpt>
      <trkpt lat="35.117374" lon="-2.926089">
        <ele>36.7</ele>
        <time>2008-03-16T09:37:34Z</time>
      </trkpt>
      <trkpt lat="35.116804" lon="-2.926262">
        <ele>37.6</ele>
        <time>2008-03-16T09:37:37Z</time>
      </trkpt>
      <trkpt lat="35.116231" lon="-2.926433">
        <ele>38.6</ele>
        <time>2008-03-16T09:37:40Z</time>
      </trkpt>
      <trkpt lat="35.115650" lon="-2.926605">
        <ele>39.1</ele>
        <time>2008-03-16T09:37:43Z</time>
      </trkpt>
      <trkpt lat="35.115064" lon="-2.926779">
        <ele>39.6</ele>
        <time>2008-03-16T09:37:46Z</time>
      </trkpt>
      <trkpt lat="35.114478" lon="-2.926954">
        <ele>41.0</ele>
        <time>2008-03-16T09:37:49Z</time>
      </trkpt>
      <trkpt lat="35.113890" lon="-2.927127">
        <ele>42.4</ele>
        <time>2008-03-16T09:37:52Z</time>
      </trkpt>
      <trkpt lat="35.113301" lon="-2.927299">
        <ele>44.4</ele>
        <time>2008-03-16T09:37:55Z</time>
      </trkpt>
      <trkpt lat="35.112708" lon="-2.927471">
        <ele>45.3</ele>
        <time>2008-03-16T09:37:58Z</time>
      </trkpt>
      <trkpt lat="35.112120" lon="-2.927642">
        <ele>45.8</ele>
        <time>2008-03-16T09:38:01Z</time>
      </trkpt>
      <trkpt lat="35.111538" lon="-2.927813">
        <ele>45.3</ele>
        <time>2008-03-16T09:38:04Z</time>
      </trkpt>
      <trkpt lat="35.110958" lon="-2.927982">
        <ele>45.8</ele>
        <time>2008-03-16T09:38:07Z</time>
      </trkpt>
      <trkpt lat="35.110388" lon="-2.928153">
        <ele>46.8</ele>
        <time>2008-03-16T09:38:10Z</time>
      </trkpt>
      <trkpt lat="35.109821" lon="-2.928327">
        <ele>47.2</ele>
        <time>2008-03-16T09:38:13Z</time>
      </trkpt>
      <trkpt lat="35.109251" lon="-2.928495">
        <ele>48.2</ele>
        <time>2008-03-16T09:38:16Z</time>
      </trkpt>
      <trkpt lat="35.108675" lon="-2.928661">
        <ele>49.2</ele>
        <time>2008-03-16T09:38:19Z</time>
      </trkpt>
      <trkpt lat="35.108099" lon="-2.928829">
        <ele>50.6</ele>
        <time>2008-03-16T09:38:22Z</time>
      </trkpt>
      <trkpt lat="35.107519" lon="-2.929000">
        <ele>51.1</ele>
        <time>2008-03-16T09:38:25Z</time>
      </trkpt>
      <trkpt lat="35.106952" lon="-2.929167">
        <ele>51.6</ele>
        <time>2008-03-16T09:38:28Z</time>
      </trkpt>
      <trkpt lat="35.106396" lon="-2.929332">
        <ele>52.0</ele>
        <time>2008-03-16T09:38:31Z</time>
      </trkpt>
      <trkpt lat="35.105834" lon="-2.929497">
        <ele>53.0</ele>
        <time>2008-03-16T09:38:34Z</time>
      </trkpt>
      <trkpt lat="35.105262" lon="-2.929669">
        <ele>53.5</ele>
        <time>2008-03-16T09:38:37Z</time>
      </trkpt>
      <trkpt lat="35.104676" lon="-2.929843">
        <ele>53.5</ele>
        <time>2008-03-16T09:38:40Z</time>
      </trkpt>
      <trkpt lat="35.104079" lon="-2.930018">
        <ele>54.9</ele>
        <time>2008-03-16T09:38:43Z</time>
      </trkpt>
      <trkpt lat="35.103475" lon="-2.930195">
        <ele>55.9</ele>
        <time>2008-03-16T09:38:46Z</time>
      </trkpt>
      <trkpt lat="35.102867" lon="-2.930375">
        <ele>56.4</ele>
        <time>2008-03-16T09:38:49Z</time>
      </trkpt>
      <trkpt lat="35.102259" lon="-2.930552">
        <ele>56.9</ele>
        <time>2008-03-16T09:38:52Z</time>
      </trkpt>
      <trkpt lat="35.101652" lon="-2.930728">
        <ele>56.9</ele>
        <time>2008-03-16T09:38:55Z</time>
      </trkpt>
      <trkpt lat="35.101049" lon="-2.930906">
        <ele>57.8</ele>
        <time>2008-03-16T09:38:58Z</time>
      </trkpt>
      <trkpt lat="35.100444" lon="-2.931083">
        <ele>58.8</ele>
        <time>2008-03-16T09:39:01Z</time>
      </trkpt>
      <trkpt lat="35.099833" lon="-2.931264">
        <ele>59.7</ele>
        <time>2008-03-16T09:39:04Z</time>
      </trkpt>
      <trkpt lat="35.099221" lon="-2.931446">
        <ele>60.2</ele>
        <time>2008-03-16T09:39:07Z</time>
      </trkpt>
      <trkpt lat="35.098612" lon="-2.931619">
        <ele>62.1</ele>
        <time>2008-03-16T09:39:10Z</time>
      </trkpt>
      <trkpt lat="35.098015" lon="-2.931799">
        <ele>63.1</ele>
        <time>2008-03-16T09:39:13Z</time>
      </trkpt>
      <trkpt lat="35.097421" lon="-2.931975">
        <ele>63.6</ele>
        <time>2008-03-16T09:39:16Z</time>
      </trkpt>
      <trkpt lat="35.096825" lon="-2.932146">
        <ele>63.6</ele>
        <time>2008-03-16T09:39:19Z</time>
      </trkpt>
      <trkpt lat="35.096226" lon="-2.932320">
        <ele>63.6</ele>
        <time>2008-03-16T09:39:22Z</time>
      </trkpt>
      <trkpt lat="35.095636" lon="-2.932500">
        <ele>63.6</ele>
        <time>2008-03-16T09:39:25Z</time>
      </trkpt>
      <trkpt lat="35.095061" lon="-2.932672">
        <ele>62.6</ele>
        <time>2008-03-16T09:39:28Z</time>
      </trkpt>
      <trkpt lat="35.094523" lon="-2.932828">
        <ele>63.1</ele>
        <time>2008-03-16T09:39:31Z</time>
      </trkpt>
      <trkpt lat="35.094000" lon="-2.932978">
        <ele>62.6</ele>
        <time>2008-03-16T09:39:34Z</time>
      </trkpt>
      <trkpt lat="35.093464" lon="-2.933132">
        <ele>62.1</ele>
        <time>2008-03-16T09:39:37Z</time>
      </trkpt>
      <trkpt lat="35.092916" lon="-2.933293">
        <ele>63.6</ele>
        <time>2008-03-16T09:39:40Z</time>
      </trkpt>
      <trkpt lat="35.092351" lon="-2.933460">
        <ele>63.1</ele>
        <time>2008-03-16T09:39:43Z</time>
      </trkpt>
      <trkpt lat="35.091780" lon="-2.933628">
        <ele>63.1</ele>
        <time>2008-03-16T09:39:46Z</time>
      </trkpt>
      <trkpt lat="35.091205" lon="-2.933795">
        <ele>63.6</ele>
        <time>2008-03-16T09:39:49Z</time>
      </trkpt>
      <trkpt lat="35.090624" lon="-2.933972">
        <ele>63.6</ele>
        <time>2008-03-16T09:39:52Z</time>
      </trkpt>
      <trkpt lat="35.090048" lon="-2.934148">
        <ele>64.5</ele>
        <time>2008-03-16T09:39:55Z</time>
      </trkpt>
      <trkpt lat="35.089490" lon="-2.934314">
        <ele>64.5</ele>
        <time>2008-03-16T09:39:58Z</time>
      </trkpt>
      <trkpt lat="35.088958" lon="-2.934467">
        <ele>64.1</ele>
        <time>2008-03-16T09:40:01Z</time>
      </trkpt>
      <trkpt lat="35.088443" lon="-2.934610">
        <ele>63.6</ele>
        <time>2008-03-16T09:40:04Z</time>
      </trkpt>
      <trkpt lat="35.087929" lon="-2.934741">
        <ele>63.1</ele>
        <time>2008-03-16T09:40:07Z</time>
      </trkpt>
      <trkpt lat="35.087427" lon="-2.934864">
        <ele>63.1</ele>
        <time>2008-03-16T09:40:10Z</time>
      </trkpt>
      <trkpt lat="35.086919" lon="-2.934989">
        <ele>63.6</ele>
        <time>2008-03-16T09:40:13Z</time>
      </trkpt>
      <trkpt lat="35.086383" lon="-2.935094">
        <ele>64.1</ele>
        <time>2008-03-16T09:40:16Z</time>
      </trkpt>
      <trkpt lat="35.085819" lon="-2.935142">
        <ele>64.5</ele>
        <time>2008-03-16T09:40:19Z</time>
      </trkpt>
      <trkpt lat="35.085271" lon="-2.935105">
        <ele>64.5</ele>
        <time>2008-03-16T09:40:22Z</time>
      </trkpt>
      <trkpt lat="35.084708" lon="-2.934995">
        <ele>65.0</ele>
        <time>2008-03-16T09:40:25Z</time>
      </trkpt>
      <trkpt lat="35.084126" lon="-2.934856">
        <ele>65.5</ele>
        <time>2008-03-16T09:40:28Z</time>
      </trkpt>
      <trkpt lat="35.083552" lon="-2.934640">
        <ele>66.0</ele>
        <time>2008-03-16T09:40:31Z</time>
      </trkpt>
      <trkpt lat="35.082999" lon="-2.934345">
        <ele>66.0</ele>
        <time>2008-03-16T09:40:34Z</time>
      </trkpt>
      <trkpt lat="35.082470" lon="-2.933990">
        <ele>66.0</ele>
        <time>2008-03-16T09:40:37Z</time>
      </trkpt>
      <trkpt lat="35.081958" lon="-2.933603">
        <ele>66.0</ele>
        <time>2008-03-16T09:40:40Z</time>
      </trkpt>
      <trkpt lat="35.081437" lon="-2.933214">
        <ele>66.0</ele>
        <time>2008-03-16T09:40:43Z</time>
      </trkpt>
      <trkpt lat="35.080905" lon="-2.932828">
        <ele>66.0</ele>
        <time>2008-03-16T09:40:46Z</time>
      </trkpt>
      <trkpt lat="35.080374" lon="-2.932446">
        <ele>65.5</ele>
        <time>2008-03-16T09:40:49Z</time>
      </trkpt>
      <trkpt lat="35.079854" lon="-2.932058">
        <ele>66.0</ele>
        <time>2008-03-16T09:40:52Z</time>
      </trkpt>
      <trkpt lat="35.079331" lon="-2.931668">
        <ele>66.0</ele>
        <time>2008-03-16T09:40:55Z</time>
      </trkpt>
      <trkpt lat="35.078802" lon="-2.931269">
        <ele>66.0</ele>
        <time>2008-03-16T09:40:58Z</time>
      </trkpt>
      <trkpt lat="35.078264" lon="-2.930865">
        <ele>66.0</ele>
        <time>2008-03-16T09:41:01Z</time>
      </trkpt>
      <trkpt lat="35.077721" lon="-2.930471">
        <ele>66.5</ele>
        <time>2008-03-16T09:41:04Z</time>
      </trkpt>
      <trkpt lat="35.077165" lon="-2.930112">
        <ele>66.9</ele>
        <time>2008-03-16T09:41:07Z</time>
      </trkpt>
      <trkpt lat="35.076598" lon="-2.929811">
        <ele>67.4</ele>
        <time>2008-03-16T09:41:10Z</time>
      </trkpt>
      <trkpt lat="35.076018" lon="-2.929586">
        <ele>66.9</ele>
        <time>2008-03-16T09:41:13Z</time>
      </trkpt>
      <trkpt lat="35.075426" lon="-2.929412">
        <ele>66.5</ele>
        <time>2008-03-16T09:41:16Z</time>
      </trkpt>
      <trkpt lat="35.074826" lon="-2.929244">
        <ele>66.5</ele>
        <time>2008-03-16T09:41:19Z</time>
      </trkpt>
      <trkpt lat="35.074217" lon="-2.929098">
        <ele>66.9</ele>
        <time>2008-03-16T09:41:22Z</time>
      </trkpt>
      <trkpt lat="35.073598" lon="-2.929002">
        <ele>67.9</ele>
        <time>2008-03-16T09:41:25Z</time>
      </trkpt>
      <trkpt lat="35.072970" lon="-2.928990">
        <ele>69.8</ele>
        <time>2008-03-16T09:41:28Z</time>
      </trkpt>
      <trkpt lat="35.072329" lon="-2.929038">
        <ele>71.8</ele>
        <time>2008-03-16T09:41:31Z</time>
      </trkpt>
      <trkpt lat="35.071701" lon="-2.929122">
        <ele>73.7</ele>
        <time>2008-03-16T09:41:34Z</time>
      </trkpt>
      <trkpt lat="35.071092" lon="-2.929228">
        <ele>76.1</ele>
        <time>2008-03-16T09:41:37Z</time>
      </trkpt>
      <trkpt lat="35.070488" lon="-2.929358">
        <ele>78.5</ele>
        <time>2008-03-16T09:41:40Z</time>
      </trkpt>
      <trkpt lat="35.069878" lon="-2.929496">
        <ele>79.9</ele>
        <time>2008-03-16T09:41:43Z</time>
      </trkpt>
      <trkpt lat="35.069275" lon="-2.929624">
        <ele>81.8</ele>
        <time>2008-03-16T09:41:46Z</time>
      </trkpt>
      <trkpt lat="35.068702" lon="-2.929744">
        <ele>83.8</ele>
        <time>2008-03-16T09:41:49Z</time>
      </trkpt>
      <trkpt lat="35.068174" lon="-2.929850">
        <ele>85.7</ele>
        <time>2008-03-16T09:41:52Z</time>
      </trkpt>
      <trkpt lat="35.067727" lon="-2.929939">
        <ele>87.1</ele>
        <time>2008-03-16T09:41:55Z</time>
      </trkpt>
      <trkpt lat="35.067303" lon="-2.930075">
        <ele>88.1</ele>
        <time>2008-03-16T09:42:03Z</time>
      </trkpt>
      <trkpt lat="35.066790" lon="-2.930177">
        <ele>88.6</ele>
        <time>2008-03-16T09:42:11Z</time>
      </trkpt>
      <trkpt lat="35.066285" lon="-2.930276">
        <ele>90.5</ele>
        <time>2008-03-16T09:42:16Z</time>
      </trkpt>
      <trkpt lat="35.065799" lon="-2.930401">
        <ele>91.9</ele>
        <time>2008-03-16T09:42:20Z</time>
      </trkpt>
      <trkpt lat="35.065226" lon="-2.930550">
        <ele>93.9</ele>
        <time>2008-03-16T09:42:24Z</time>
      </trkpt>
      <trkpt lat="35.064795" lon="-2.930714">
        <ele>94.8</ele>
        <time>2008-03-16T09:42:27Z</time>
      </trkpt>
      <trkpt lat="35.064242" lon="-2.930988">
        <ele>95.3</ele>
        <time>2008-03-16T09:42:31Z</time>
      </trkpt>
      <trkpt lat="35.063714" lon="-2.931343">
        <ele>95.8</ele>
        <time>2008-03-16T09:42:35Z</time>
      </trkpt>
      <trkpt lat="35.063344" lon="-2.931683">
        <ele>96.3</ele>
        <time>2008-03-16T09:42:38Z</time>
      </trkpt>
      <trkpt lat="35.062957" lon="-2.932081">
        <ele>96.7</ele>
        <time>2008-03-16T09:42:41Z</time>
      </trkpt>
      <trkpt lat="35.062570" lon="-2.932530">
        <ele>97.2</ele>
        <time>2008-03-16T09:42:44Z</time>
      </trkpt>
      <trkpt lat="35.062209" lon="-2.933026">
        <ele>97.7</ele>
        <time>2008-03-16T09:42:47Z</time>
      </trkpt>
      <trkpt lat="35.061877" lon="-2.933568">
        <ele>97.7</ele>
        <time>2008-03-16T09:42:50Z</time>
      </trkpt>
      <trkpt lat="35.061581" lon="-2.934156">
        <ele>98.2</ele>
        <time>2008-03-16T09:42:53Z</time>
      </trkpt>
      <trkpt lat="35.061323" lon="-2.934783">
        <ele>98.7</ele>
        <time>2008-03-16T09:42:56Z</time>
      </trkpt>
      <trkpt lat="35.061082" lon="-2.935431">
        <ele>99.2</ele>
        <time>2008-03-16T09:42:59Z</time>
      </trkpt>
      <trkpt lat="35.060841" lon="-2.936085">
        <ele>100.6</ele>
        <time>2008-03-16T09:43:02Z</time>
      </trkpt>
      <trkpt lat="35.060600" lon="-2.936745">
        <ele>101.1</ele>
        <time>2008-03-16T09:43:05Z</time>
      </trkpt>
      <trkpt lat="35.060355" lon="-2.937409">
        <ele>102.0</ele>
        <time>2008-03-16T09:43:08Z</time>
      </trkpt>
      <trkpt lat="35.060108" lon="-2.938078">
        <ele>102.0</ele>
        <time>2008-03-16T09:43:11Z</time>
      </trkpt>
      <trkpt lat="35.059862" lon="-2.938745">
        <ele>101.6</ele>
        <time>2008-03-16T09:43:14Z</time>
      </trkpt>
      <trkpt lat="35.059614" lon="-2.939409">
        <ele>101.1</ele>
        <time>2008-03-16T09:43:17Z</time>
      </trkpt>
      <trkpt lat="35.059371" lon="-2.940075">
        <ele>100.1</ele>
        <time>2008-03-16T09:43:20Z</time>
      </trkpt>
      <trkpt lat="35.059125" lon="-2.940736">
        <ele>99.6</ele>
        <time>2008-03-16T09:43:23Z</time>
      </trkpt>
      <trkpt lat="35.058878" lon="-2.941393">
        <ele>99.2</ele>
        <time>2008-03-16T09:43:26Z</time>
      </trkpt>
      <trkpt lat="35.058643" lon="-2.942036">
        <ele>99.2</ele>
        <time>2008-03-16T09:43:29Z</time>
      </trkpt>
      <trkpt lat="35.058419" lon="-2.942663">
        <ele>99.6</ele>
        <time>2008-03-16T09:43:32Z</time>
      </trkpt>
      <trkpt lat="35.058210" lon="-2.943246">
        <ele>100.6</ele>
        <time>2008-03-16T09:43:35Z</time>
      </trkpt>
      <trkpt lat="35.058039" lon="-2.943757">
        <ele>101.6</ele>
        <time>2008-03-16T09:43:38Z</time>
      </trkpt>
      <trkpt lat="35.057913" lon="-2.944272">
        <ele>102.0</ele>
        <time>2008-03-16T09:43:42Z</time>
      </trkpt>
      <trkpt lat="35.057620" lon="-2.944876">
        <ele>103.0</ele>
        <time>2008-03-16T09:43:47Z</time>
      </trkpt>
      <trkpt lat="35.057384" lon="-2.945495">
        <ele>104.4</ele>
        <time>2008-03-16T09:43:51Z</time>
      </trkpt>
      <trkpt lat="35.057159" lon="-2.945999">
        <ele>105.9</ele>
        <time>2008-03-16T09:43:54Z</time>
      </trkpt>
      <trkpt lat="35.056898" lon="-2.946526">
        <ele>106.4</ele>
        <time>2008-03-16T09:43:57Z</time>
      </trkpt>
      <trkpt lat="35.056605" lon="-2.947056">
        <ele>107.3</ele>
        <time>2008-03-16T09:44:00Z</time>
      </trkpt>
      <trkpt lat="35.056273" lon="-2.947569">
        <ele>107.8</ele>
        <time>2008-03-16T09:44:03Z</time>
      </trkpt>
      <trkpt lat="35.055910" lon="-2.948065">
        <ele>108.3</ele>
        <time>2008-03-16T09:44:06Z</time>
      </trkpt>
      <trkpt lat="35.055529" lon="-2.948553">
        <ele>108.8</ele>
        <time>2008-03-16T09:44:09Z</time>
      </trkpt>
      <trkpt lat="35.055133" lon="-2.949023">
        <ele>108.8</ele>
        <time>2008-03-16T09:44:12Z</time>
      </trkpt>
      <trkpt lat="35.054726" lon="-2.949475">
        <ele>108.8</ele>
        <time>2008-03-16T09:44:15Z</time>
      </trkpt>
      <trkpt lat="35.054318" lon="-2.949924">
        <ele>109.7</ele>
        <time>2008-03-16T09:44:18Z</time>
      </trkpt>
      <trkpt lat="35.053916" lon="-2.950361">
        <ele>110.2</ele>
        <time>2008-03-16T09:44:21Z</time>
      </trkpt>
      <trkpt lat="35.053523" lon="-2.950796">
        <ele>110.7</ele>
        <time>2008-03-16T09:44:24Z</time>
      </trkpt>
      <trkpt lat="35.053153" lon="-2.951214">
        <ele>111.2</ele>
        <time>2008-03-16T09:44:27Z</time>
      </trkpt>
      <trkpt lat="35.052812" lon="-2.951614">
        <ele>111.7</ele>
        <time>2008-03-16T09:44:30Z</time>
      </trkpt>
      <trkpt lat="35.052488" lon="-2.952018">
        <ele>112.6</ele>
        <time>2008-03-16T09:44:33Z</time>
      </trkpt>
      <trkpt lat="35.052170" lon="-2.952424">
        <ele>113.6</ele>
        <time>2008-03-16T09:44:36Z</time>
      </trkpt>
      <trkpt lat="35.051853" lon="-2.952837">
        <ele>114.1</ele>
        <time>2008-03-16T09:44:39Z</time>
      </trkpt>
      <trkpt lat="35.051537" lon="-2.953256">
        <ele>114.1</ele>
        <time>2008-03-16T09:44:42Z</time>
      </trkpt>
      <trkpt lat="35.051214" lon="-2.953674">
        <ele>114.5</ele>
        <time>2008-03-16T09:44:45Z</time>
      </trkpt>
      <trkpt lat="35.050889" lon="-2.954084">
        <ele>115.0</ele>
        <time>2008-03-16T09:44:48Z</time>
      </trkpt>
      <trkpt lat="35.050566" lon="-2.954496">
        <ele>115.5</ele>
        <time>2008-03-16T09:44:51Z</time>
      </trkpt>
      <trkpt lat="35.050242" lon="-2.954921">
        <ele>116.0</ele>
        <time>2008-03-16T09:44:54Z</time>
      </trkpt>
      <trkpt lat="35.049908" lon="-2.955345">
        <ele>116.5</ele>
        <time>2008-03-16T09:44:57Z</time>
      </trkpt>
      <trkpt lat="35.049586" lon="-2.955770">
        <ele>116.0</ele>
        <time>2008-03-16T09:45:00Z</time>
      </trkpt>
      <trkpt lat="35.049270" lon="-2.956188">
        <ele>116.5</ele>
        <time>2008-03-16T09:45:03Z</time>
      </trkpt>
      <trkpt lat="35.048941" lon="-2.956606">
        <ele>116.9</ele>
        <time>2008-03-16T09:45:06Z</time>
      </trkpt>
      <trkpt lat="35.048617" lon="-2.957030">
        <ele>117.4</ele>
        <time>2008-03-16T09:45:09Z</time>
      </trkpt>
      <trkpt lat="35.048301" lon="-2.957458">
        <ele>117.4</ele>
        <time>2008-03-16T09:45:12Z</time>
      </trkpt>
      <trkpt lat="35.047981" lon="-2.957881">
        <ele>117.9</ele>
        <time>2008-03-16T09:45:15Z</time>
      </trkpt>
      <trkpt lat="35.047669" lon="-2.958281">
        <ele>118.4</ele>
        <time>2008-03-16T09:45:18Z</time>
      </trkpt>
      <trkpt lat="35.047262" lon="-2.958809">
        <ele>119.3</ele>
        <time>2008-03-16T09:45:22Z</time>
      </trkpt>
      <trkpt lat="35.046954" lon="-2.959212">
        <ele>120.3</ele>
        <time>2008-03-16T09:45:25Z</time>
      </trkpt>
      <trkpt lat="35.046558" lon="-2.959690">
        <ele>121.3</ele>
        <time>2008-03-16T09:45:29Z</time>
      </trkpt>
      <trkpt lat="35.046213" lon="-2.960159">
        <ele>122.2</ele>
        <time>2008-03-16T09:45:33Z</time>
      </trkpt>
      <trkpt lat="35.045984" lon="-2.960594">
        <ele>122.2</ele>
        <time>2008-03-16T09:45:38Z</time>
      </trkpt>
      <trkpt lat="35.045680" lon="-2.960985">
        <ele>122.2</ele>
        <time>2008-03-16T09:45:46Z</time>
      </trkpt>
      <trkpt lat="35.045306" lon="-2.960573">
        <ele>122.7</ele>
        <time>2008-03-16T09:45:54Z</time>
      </trkpt>
      <trkpt lat="35.044835" lon="-2.960283">
        <ele>123.2</ele>
        <time>2008-03-16T09:45:59Z</time>
      </trkpt>
      <trkpt lat="35.044343" lon="-2.960011">
        <ele>123.7</ele>
        <time>2008-03-16T09:46:03Z</time>
      </trkpt>
      <trkpt lat="35.043797" lon="-2.959713">
        <ele>123.7</ele>
        <time>2008-03-16T09:46:07Z</time>
      </trkpt>
      <trkpt lat="35.043333" lon="-2.959461">
        <ele>124.1</ele>
        <time>2008-03-16T09:46:10Z</time>
      </trkpt>
      <trkpt lat="35.042830" lon="-2.959189">
        <ele>124.6</ele>
        <time>2008-03-16T09:46:13Z</time>
      </trkpt>
      <trkpt lat="35.042294" lon="-2.958905">
        <ele>125.1</ele>
        <time>2008-03-16T09:46:16Z</time>
      </trkpt>
      <trkpt lat="35.041743" lon="-2.958610">
        <ele>126.1</ele>
        <time>2008-03-16T09:46:19Z</time>
      </trkpt>
      <trkpt lat="35.041182" lon="-2.958311">
        <ele>126.6</ele>
        <time>2008-03-16T09:46:22Z</time>
      </trkpt>
      <trkpt lat="35.040627" lon="-2.958014">
        <ele>127.5</ele>
        <time>2008-03-16T09:46:25Z</time>
      </trkpt>
      <trkpt lat="35.040058" lon="-2.957709">
        <ele>128.5</ele>
        <time>2008-03-16T09:46:28Z</time>
      </trkpt>
      <trkpt lat="35.039493" lon="-2.957405">
        <ele>129.4</ele>
        <time>2008-03-16T09:46:31Z</time>
      </trkpt>
      <trkpt lat="35.038935" lon="-2.957103">
        <ele>130.4</ele>
        <time>2008-03-16T09:46:34Z</time>
      </trkpt>
      <trkpt lat="35.038374" lon="-2.956792">
        <ele>130.9</ele>
        <time>2008-03-16T09:46:37Z</time>
      </trkpt>
      <trkpt lat="35.037807" lon="-2.956493">
        <ele>131.4</ele>
        <time>2008-03-16T09:46:40Z</time>
      </trkpt>
      <trkpt lat="35.037243" lon="-2.956205">
        <ele>131.8</ele>
        <time>2008-03-16T09:46:43Z</time>
      </trkpt>
      <trkpt lat="35.036674" lon="-2.955912">
        <ele>132.8</ele>
        <time>2008-03-16T09:46:46Z</time>
      </trkpt>
      <trkpt lat="35.036102" lon="-2.955608">
        <ele>133.3</ele>
        <time>2008-03-16T09:46:49Z</time>
      </trkpt>
      <trkpt lat="35.035523" lon="-2.955291">
        <ele>134.2</ele>
        <time>2008-03-16T09:46:52Z</time>
      </trkpt>
      <trkpt lat="35.034940" lon="-2.954972">
        <ele>135.2</ele>
        <time>2008-03-16T09:46:55Z</time>
      </trkpt>
      <trkpt lat="35.034349" lon="-2.954648">
        <ele>135.7</ele>
        <time>2008-03-16T09:46:58Z</time>
      </trkpt>
      <trkpt lat="35.033747" lon="-2.954320">
        <ele>136.2</ele>
        <time>2008-03-16T09:47:01Z</time>
      </trkpt>
      <trkpt lat="35.033135" lon="-2.953988">
        <ele>136.6</ele>
        <time>2008-03-16T09:47:04Z</time>
      </trkpt>
      <trkpt lat="35.032519" lon="-2.953654">
        <ele>137.1</ele>
        <time>2008-03-16T09:47:07Z</time>
      </trkpt>
      <trkpt lat="35.031905" lon="-2.953321">
        <ele>138.1</ele>
        <time>2008-03-16T09:47:10Z</time>
      </trkpt>
      <trkpt lat="35.031291" lon="-2.952997">
        <ele>138.6</ele>
        <time>2008-03-16T09:47:13Z</time>
      </trkpt>
      <trkpt lat="35.030676" lon="-2.952666">
        <ele>138.6</ele>
        <time>2008-03-16T09:47:16Z</time>
      </trkpt>
      <trkpt lat="35.030262" lon="-2.952442">
        <ele>139.0</ele>
        <time>2008-03-16T09:47:18Z</time>
      </trkpt>
      <trkpt lat="35.029848" lon="-2.952221">
        <ele>139.5</ele>
        <time>2008-03-16T09:47:20Z</time>
      </trkpt>
      <trkpt lat="35.029431" lon="-2.951996">
        <ele>140.0</ele>
        <time>2008-03-16T09:47:22Z</time>
      </trkpt>
      <trkpt lat="35.029015" lon="-2.951772">
        <ele>140.5</ele>
        <time>2008-03-16T09:47:24Z</time>
      </trkpt>
      <trkpt lat="35.028598" lon="-2.951550">
        <ele>141.5</ele>
        <time>2008-03-16T09:47:26Z</time>
      </trkpt>
      <trkpt lat="35.028184" lon="-2.951328">
        <ele>141.9</ele>
        <time>2008-03-16T09:47:28Z</time>
      </trkpt>
      <trkpt lat="35.027772" lon="-2.951104">
        <ele>142.9</ele>
        <time>2008-03-16T09:47:30Z</time>
      </trkpt>
      <trkpt lat="35.027161" lon="-2.950768">
        <ele>143.9</ele>
        <time>2008-03-16T09:47:33Z</time>
      </trkpt>
      <trkpt lat="35.026565" lon="-2.950448">
        <ele>144.8</ele>
        <time>2008-03-16T09:47:36Z</time>
      </trkpt>
      <trkpt lat="35.025976" lon="-2.950147">
        <ele>145.8</ele>
        <time>2008-03-16T09:47:39Z</time>
      </trkpt>
      <trkpt lat="35.025370" lon="-2.949900">
        <ele>145.8</ele>
        <time>2008-03-16T09:47:42Z</time>
      </trkpt>
      <trkpt lat="35.024952" lon="-2.949760">
        <ele>145.8</ele>
        <time>2008-03-16T09:47:44Z</time>
      </trkpt>
      <trkpt lat="35.024310" lon="-2.949570">
        <ele>146.3</ele>
        <time>2008-03-16T09:47:47Z</time>
      </trkpt>
      <trkpt lat="35.023662" lon="-2.949368">
        <ele>146.3</ele>
        <time>2008-03-16T09:47:50Z</time>
      </trkpt>
      <trkpt lat="35.023020" lon="-2.949119">
        <ele>146.7</ele>
        <time>2008-03-16T09:47:53Z</time>
      </trkpt>
      <trkpt lat="35.022593" lon="-2.948935">
        <ele>146.7</ele>
        <time>2008-03-16T09:47:55Z</time>
      </trkpt>
      <trkpt lat="35.022167" lon="-2.948741">
        <ele>147.2</ele>
        <time>2008-03-16T09:47:57Z</time>
      </trkpt>
      <trkpt lat="35.021739" lon="-2.948542">
        <ele>147.2</ele>
        <time>2008-03-16T09:47:59Z</time>
      </trkpt>
      <trkpt lat="35.021309" lon="-2.948343">
        <ele>147.7</ele>
        <time>2008-03-16T09:48:01Z</time>
      </trkpt>
      <trkpt lat="35.020878" lon="-2.948148">
        <ele>148.2</ele>
        <time>2008-03-16T09:48:03Z</time>
      </trkpt>
      <trkpt lat="35.020445" lon="-2.947957">
        <ele>148.7</ele>
        <time>2008-03-16T09:48:05Z</time>
      </trkpt>
      <trkpt lat="35.020015" lon="-2.947767">
        <ele>149.1</ele>
        <time>2008-03-16T09:48:07Z</time>
      </trkpt>
      <trkpt lat="35.019582" lon="-2.947578">
        <ele>149.1</ele>
        <time>2008-03-16T09:48:09Z</time>
      </trkpt>
      <trkpt lat="35.019148" lon="-2.947389">
        <ele>149.6</ele>
        <time>2008-03-16T09:48:11Z</time>
      </trkpt>
      <trkpt lat="35.018715" lon="-2.947202">
        <ele>150.1</ele>
        <time>2008-03-16T09:48:13Z</time>
      </trkpt>
      <trkpt lat="35.018282" lon="-2.947011">
        <ele>150.1</ele>
        <time>2008-03-16T09:48:15Z</time>
      </trkpt>
      <trkpt lat="35.017848" lon="-2.946818">
        <ele>150.6</ele>
        <time>2008-03-16T09:48:17Z</time>
      </trkpt>
      <trkpt lat="35.017412" lon="-2.946627">
        <ele>151.1</ele>
        <time>2008-03-16T09:48:19Z</time>
      </trkpt>
      <trkpt lat="35.016976" lon="-2.946435">
        <ele>151.5</ele>
        <time>2008-03-16T09:48:21Z</time>
      </trkpt>
      <trkpt lat="35.016540" lon="-2.946241">
        <ele>152.0</ele>
        <time>2008-03-16T09:48:23Z</time>
      </trkpt>
      <trkpt lat="35.016106" lon="-2.946048">
        <ele>152.0</ele>
        <time>2008-03-16T09:48:25Z</time>
      </trkpt>
      <trkpt lat="35.015673" lon="-2.945853">
        <ele>152.5</ele>
        <time>2008-03-16T09:48:27Z</time>
      </trkpt>
      <trkpt lat="35.015241" lon="-2.945655">
        <ele>153.0</ele>
        <time>2008-03-16T09:48:29Z</time>
      </trkpt>
      <trkpt lat="35.014810" lon="-2.945457">
        <ele>153.5</ele>
        <time>2008-03-16T09:48:31Z</time>
      </trkpt>
      <trkpt lat="35.014378" lon="-2.945260">
        <ele>153.5</ele>
        <time>2008-03-16T09:48:33Z</time>
      </trkpt>
      <trkpt lat="35.013944" lon="-2.945067">
        <ele>153.9</ele>
        <time>2008-03-16T09:48:35Z</time>
      </trkpt>
      <trkpt lat="35.013509" lon="-2.944877">
        <ele>154.4</ele>
        <time>2008-03-16T09:48:37Z</time>
      </trkpt>
      <trkpt lat="35.013077" lon="-2.944681">
        <ele>154.9</ele>
        <time>2008-03-16T09:48:39Z</time>
      </trkpt>
      <trkpt lat="35.012651" lon="-2.944476">
        <ele>155.9</ele>
        <time>2008-03-16T09:48:41Z</time>
      </trkpt>
      <trkpt lat="35.012054" lon="-2.944071">
        <ele>156.8</ele>
        <time>2008-03-16T09:48:44Z</time>
      </trkpt>
      <trkpt lat="35.011510" lon="-2.943581">
        <ele>157.8</ele>
        <time>2008-03-16T09:48:47Z</time>
      </trkpt>
      <trkpt lat="35.010976" lon="-2.943086">
        <ele>159.2</ele>
        <time>2008-03-16T09:48:50Z</time>
      </trkpt>
      <trkpt lat="35.010410" lon="-2.942642">
        <ele>160.2</ele>
        <time>2008-03-16T09:48:53Z</time>
      </trkpt>
      <trkpt lat="35.010015" lon="-2.942367">
        <ele>160.2</ele>
        <time>2008-03-16T09:48:55Z</time>
      </trkpt>
      <trkpt lat="35.009614" lon="-2.942108">
        <ele>160.7</ele>
        <time>2008-03-16T09:48:57Z</time>
      </trkpt>
      <trkpt lat="35.009207" lon="-2.941860">
        <ele>161.2</ele>
        <time>2008-03-16T09:48:59Z</time>
      </trkpt>
      <trkpt lat="35.008797" lon="-2.941617">
        <ele>161.2</ele>
        <time>2008-03-16T09:49:01Z</time>
      </trkpt>
      <trkpt lat="35.008386" lon="-2.941374">
        <ele>161.6</ele>
        <time>2008-03-16T09:49:03Z</time>
      </trkpt>
      <trkpt lat="35.007973" lon="-2.941130">
        <ele>162.1</ele>
        <time>2008-03-16T09:49:05Z</time>
      </trkpt>
      <trkpt lat="35.007558" lon="-2.940883">
        <ele>162.1</ele>
        <time>2008-03-16T09:49:07Z</time>
      </trkpt>
      <trkpt lat="35.007143" lon="-2.940634">
        <ele>162.6</ele>
        <time>2008-03-16T09:49:09Z</time>
      </trkpt>
      <trkpt lat="35.006732" lon="-2.940377">
        <ele>163.1</ele>
        <time>2008-03-16T09:49:11Z</time>
      </trkpt>
      <trkpt lat="35.006334" lon="-2.940098">
        <ele>163.1</ele>
        <time>2008-03-16T09:49:13Z</time>
      </trkpt>
      <trkpt lat="35.005955" lon="-2.939781">
        <ele>163.6</ele>
        <time>2008-03-16T09:49:15Z</time>
      </trkpt>
      <trkpt lat="35.005422" lon="-2.939248">
        <ele>164.0</ele>
        <time>2008-03-16T09:49:18Z</time>
      </trkpt>
      <trkpt lat="35.005100" lon="-2.938850">
        <ele>164.0</ele>
        <time>2008-03-16T09:49:20Z</time>
      </trkpt>
      <trkpt lat="35.004805" lon="-2.938421">
        <ele>164.0</ele>
        <time>2008-03-16T09:49:22Z</time>
      </trkpt>
      <trkpt lat="35.004527" lon="-2.937969">
        <ele>164.0</ele>
        <time>2008-03-16T09:49:24Z</time>
      </trkpt>
      <trkpt lat="35.004259" lon="-2.937506">
        <ele>164.0</ele>
        <time>2008-03-16T09:49:26Z</time>
      </trkpt>
      <trkpt lat="35.003990" lon="-2.937037">
        <ele>164.0</ele>
        <time>2008-03-16T09:49:28Z</time>
      </trkpt>
      <trkpt lat="35.003719" lon="-2.936562">
        <ele>164.5</ele>
        <time>2008-03-16T09:49:30Z</time>
      </trkpt>
      <trkpt lat="35.003450" lon="-2.936078">
        <ele>164.5</ele>
        <time>2008-03-16T09:49:32Z</time>
      </trkpt>
      <trkpt lat="35.003180" lon="-2.935595">
        <ele>164.5</ele>
        <time>2008-03-16T09:49:34Z</time>
      </trkpt>
      <trkpt lat="35.002908" lon="-2.935115">
        <ele>164.5</ele>
        <time>2008-03-16T09:49:36Z</time>
      </trkpt>
      <trkpt lat="35.002636" lon="-2.934639">
        <ele>164.5</ele>
        <time>2008-03-16T09:49:38Z</time>
      </trkpt>
      <trkpt lat="35.002367" lon="-2.934162">
        <ele>165.0</ele>
        <time>2008-03-16T09:49:40Z</time>
      </trkpt>
      <trkpt lat="35.002096" lon="-2.933685">
        <ele>165.0</ele>
        <time>2008-03-16T09:49:42Z</time>
      </trkpt>
      <trkpt lat="35.001821" lon="-2.933209">
        <ele>165.5</ele>
        <time>2008-03-16T09:49:44Z</time>
      </trkpt>
      <trkpt lat="35.001545" lon="-2.932733">
        <ele>166.0</ele>
        <time>2008-03-16T09:49:46Z</time>
      </trkpt>
      <trkpt lat="35.001269" lon="-2.932254">
        <ele>166.0</ele>
        <time>2008-03-16T09:49:48Z</time>
      </trkpt>
      <trkpt lat="35.000995" lon="-2.931775">
        <ele>166.4</ele>
        <time>2008-03-16T09:49:50Z</time>
      </trkpt>
      <trkpt lat="35.000721" lon="-2.931294">
        <ele>166.9</ele>
        <time>2008-03-16T09:49:52Z</time>
      </trkpt>
      <trkpt lat="35.000446" lon="-2.930812">
        <ele>166.9</ele>
        <time>2008-03-16T09:49:54Z</time>
      </trkpt>
      <trkpt lat="35.000171" lon="-2.930329">
        <ele>167.4</ele>
        <time>2008-03-16T09:49:56Z</time>
      </trkpt>
      <trkpt lat="34.999897" lon="-2.929846">
        <ele>167.9</ele>
        <time>2008-03-16T09:49:58Z</time>
      </trkpt>
      <trkpt lat="34.999627" lon="-2.929369">
        <ele>168.8</ele>
        <time>2008-03-16T09:50:00Z</time>
      </trkpt>
      <trkpt lat="34.999357" lon="-2.928903">
        <ele>169.8</ele>
        <time>2008-03-16T09:50:02Z</time>
      </trkpt>
      <trkpt lat="34.999069" lon="-2.928466">
        <ele>170.8</ele>
        <time>2008-03-16T09:50:04Z</time>
      </trkpt>
      <trkpt lat="34.998751" lon="-2.928066">
        <ele>171.7</ele>
        <time>2008-03-16T09:50:06Z</time>
      </trkpt>
      <trkpt lat="34.998397" lon="-2.927712">
        <ele>172.2</ele>
        <time>2008-03-16T09:50:08Z</time>
      </trkpt>
      <trkpt lat="34.998018" lon="-2.927395">
        <ele>173.2</ele>
        <time>2008-03-16T09:50:10Z</time>
      </trkpt>
      <trkpt lat="34.997616" lon="-2.927122">
        <ele>173.7</ele>
        <time>2008-03-16T09:50:12Z</time>
      </trkpt>
      <trkpt lat="34.997194" lon="-2.926907">
        <ele>175.1</ele>
        <time>2008-03-16T09:50:14Z</time>
      </trkpt>
      <trkpt lat="34.996754" lon="-2.926753">
        <ele>176.1</ele>
        <time>2008-03-16T09:50:16Z</time>
      </trkpt>
      <trkpt lat="34.996300" lon="-2.926636">
        <ele>176.5</ele>
        <time>2008-03-16T09:50:18Z</time>
      </trkpt>
      <trkpt lat="34.995834" lon="-2.926536">
        <ele>177.5</ele>
        <time>2008-03-16T09:50:20Z</time>
      </trkpt>
      <trkpt lat="34.995363" lon="-2.926446">
        <ele>178.0</ele>
        <time>2008-03-16T09:50:22Z</time>
      </trkpt>
      <trkpt lat="34.994889" lon="-2.926355">
        <ele>178.5</ele>
        <time>2008-03-16T09:50:24Z</time>
      </trkpt>
      <trkpt lat="34.994416" lon="-2.926262">
        <ele>178.9</ele>
        <time>2008-03-16T09:50:26Z</time>
      </trkpt>
      <trkpt lat="34.993948" lon="-2.926165">
        <ele>179.9</ele>
        <time>2008-03-16T09:50:28Z</time>
      </trkpt>
      <trkpt lat="34.993493" lon="-2.926050">
        <ele>181.3</ele>
        <time>2008-03-16T09:50:30Z</time>
      </trkpt>
      <trkpt lat="34.993050" lon="-2.925898">
        <ele>182.3</ele>
        <time>2008-03-16T09:50:32Z</time>
      </trkpt>
      <trkpt lat="34.992617" lon="-2.925711">
        <ele>183.3</ele>
        <time>2008-03-16T09:50:34Z</time>
      </trkpt>
      <trkpt lat="34.992190" lon="-2.925498">
        <ele>184.2</ele>
        <time>2008-03-16T09:50:36Z</time>
      </trkpt>
      <trkpt lat="34.991768" lon="-2.925260">
        <ele>184.7</ele>
        <time>2008-03-16T09:50:38Z</time>
      </trkpt>
      <trkpt lat="34.991356" lon="-2.924990">
        <ele>184.7</ele>
        <time>2008-03-16T09:50:40Z</time>
      </trkpt>
      <trkpt lat="34.990955" lon="-2.924697">
        <ele>185.2</ele>
        <time>2008-03-16T09:50:42Z</time>
      </trkpt>
      <trkpt lat="34.990564" lon="-2.924385">
        <ele>185.7</ele>
        <time>2008-03-16T09:50:44Z</time>
      </trkpt>
      <trkpt lat="34.990183" lon="-2.924058">
        <ele>186.2</ele>
        <time>2008-03-16T09:50:46Z</time>
      </trkpt>
      <trkpt lat="34.989815" lon="-2.923715">
        <ele>186.2</ele>
        <time>2008-03-16T09:50:48Z</time>
      </trkpt>
      <trkpt lat="34.989450" lon="-2.923369">
        <ele>186.2</ele>
        <time>2008-03-16T09:50:50Z</time>
      </trkpt>
      <trkpt lat="34.989083" lon="-2.923021">
        <ele>186.2</ele>
        <time>2008-03-16T09:50:52Z</time>
      </trkpt>
      <trkpt lat="34.988714" lon="-2.922670">
        <ele>186.2</ele>
        <time>2008-03-16T09:50:54Z</time>
      </trkpt>
      <trkpt lat="34.988341" lon="-2.922318">
        <ele>185.7</ele>
        <time>2008-03-16T09:50:56Z</time>
      </trkpt>
      <trkpt lat="34.987964" lon="-2.921966">
        <ele>185.2</ele>
        <time>2008-03-16T09:50:58Z</time>
      </trkpt>
      <trkpt lat="34.987584" lon="-2.921609">
        <ele>184.7</ele>
        <time>2008-03-16T09:51:00Z</time>
      </trkpt>
      <trkpt lat="34.987202" lon="-2.921246">
        <ele>183.7</ele>
        <time>2008-03-16T09:51:02Z</time>
      </trkpt>
      <trkpt lat="34.986818" lon="-2.920881">
        <ele>182.8</ele>
        <time>2008-03-16T09:51:04Z</time>
      </trkpt>
      <trkpt lat="34.986434" lon="-2.920517">
        <ele>181.8</ele>
        <time>2008-03-16T09:51:06Z</time>
      </trkpt>
      <trkpt lat="34.986051" lon="-2.920150">
        <ele>181.3</ele>
        <time>2008-03-16T09:51:08Z</time>
      </trkpt>
      <trkpt lat="34.985670" lon="-2.919782">
        <ele>181.3</ele>
        <time>2008-03-16T09:51:10Z</time>
      </trkpt>
      <trkpt lat="34.985288" lon="-2.919419">
        <ele>181.3</ele>
        <time>2008-03-16T09:51:12Z</time>
      </trkpt>
      <trkpt lat="34.984911" lon="-2.919057">
        <ele>182.3</ele>
        <time>2008-03-16T09:51:14Z</time>
      </trkpt>
      <trkpt lat="34.984535" lon="-2.918696">
        <ele>183.3</ele>
        <time>2008-03-16T09:51:16Z</time>
      </trkpt>
      <trkpt lat="34.983969" lon="-2.918159">
        <ele>185.2</ele>
        <time>2008-03-16T09:51:19Z</time>
      </trkpt>
      <trkpt lat="34.983590" lon="-2.917802">
        <ele>186.2</ele>
        <time>2008-03-16T09:51:21Z</time>
      </trkpt>
      <trkpt lat="34.983207" lon="-2.917444">
        <ele>187.6</ele>
        <time>2008-03-16T09:51:23Z</time>
      </trkpt>
      <trkpt lat="34.982812" lon="-2.917106">
        <ele>188.6</ele>
        <time>2008-03-16T09:51:25Z</time>
      </trkpt>
      <trkpt lat="34.982403" lon="-2.916792">
        <ele>189.5</ele>
        <time>2008-03-16T09:51:27Z</time>
      </trkpt>
      <trkpt lat="34.981983" lon="-2.916503">
        <ele>190.0</ele>
        <time>2008-03-16T09:51:29Z</time>
      </trkpt>
      <trkpt lat="34.981550" lon="-2.916249">
        <ele>191.0</ele>
        <time>2008-03-16T09:51:31Z</time>
      </trkpt>
      <trkpt lat="34.981103" lon="-2.916015">
        <ele>191.4</ele>
        <time>2008-03-16T09:51:33Z</time>
      </trkpt>
      <trkpt lat="34.980650" lon="-2.915800">
        <ele>191.4</ele>
        <time>2008-03-16T09:51:35Z</time>
      </trkpt>
      <trkpt lat="34.980193" lon="-2.915602">
        <ele>191.9</ele>
        <time>2008-03-16T09:51:37Z</time>
      </trkpt>
      <trkpt lat="34.979733" lon="-2.915411">
        <ele>191.9</ele>
        <time>2008-03-16T09:51:39Z</time>
      </trkpt>
      <trkpt lat="34.979274" lon="-2.915222">
        <ele>192.4</ele>
        <time>2008-03-16T09:51:41Z</time>
      </trkpt>
      <trkpt lat="34.978819" lon="-2.915033">
        <ele>192.9</ele>
        <time>2008-03-16T09:51:43Z</time>
      </trkpt>
      <trkpt lat="34.978366" lon="-2.914844">
        <ele>192.9</ele>
        <time>2008-03-16T09:51:45Z</time>
      </trkpt>
      <trkpt lat="34.977914" lon="-2.914653">
        <ele>192.9</ele>
        <time>2008-03-16T09:51:47Z</time>
      </trkpt>
      <trkpt lat="34.977462" lon="-2.914460">
        <ele>193.4</ele>
        <time>2008-03-16T09:51:49Z</time>
      </trkpt>
      <trkpt lat="34.977010" lon="-2.914266">
        <ele>193.4</ele>
        <time>2008-03-16T09:51:51Z</time>
      </trkpt>
      <trkpt lat="34.976557" lon="-2.914073">
        <ele>193.8</ele>
        <time>2008-03-16T09:51:53Z</time>
      </trkpt>
      <trkpt lat="34.976102" lon="-2.913877">
        <ele>194.3</ele>
        <time>2008-03-16T09:51:55Z</time>
      </trkpt>
      <trkpt lat="34.975645" lon="-2.913683">
        <ele>194.3</ele>
        <time>2008-03-16T09:51:57Z</time>
      </trkpt>
      <trkpt lat="34.975186" lon="-2.913490">
        <ele>194.3</ele>
        <time>2008-03-16T09:51:59Z</time>
      </trkpt>
      <trkpt lat="34.974728" lon="-2.913299">
        <ele>194.8</ele>
        <time>2008-03-16T09:52:01Z</time>
      </trkpt>
      <trkpt lat="34.974277" lon="-2.913110">
        <ele>194.8</ele>
        <time>2008-03-16T09:52:03Z</time>
      </trkpt>
      <trkpt lat="34.973828" lon="-2.912921">
        <ele>195.3</ele>
        <time>2008-03-16T09:52:05Z</time>
      </trkpt>
      <trkpt lat="34.973382" lon="-2.912727">
        <ele>195.8</ele>
        <time>2008-03-16T09:52:07Z</time>
      </trkpt>
      <trkpt lat="34.972944" lon="-2.912518">
        <ele>196.2</ele>
        <time>2008-03-16T09:52:09Z</time>
      </trkpt>
      <trkpt lat="34.972519" lon="-2.912283">
        <ele>197.2</ele>
        <time>2008-03-16T09:52:11Z</time>
      </trkpt>
      <trkpt lat="34.972106" lon="-2.912021">
        <ele>198.2</ele>
        <time>2008-03-16T09:52:13Z</time>
      </trkpt>
      <trkpt lat="34.971702" lon="-2.911732">
        <ele>198.6</ele>
        <time>2008-03-16T09:52:15Z</time>
      </trkpt>
      <trkpt lat="34.971306" lon="-2.911421">
        <ele>199.1</ele>
        <time>2008-03-16T09:52:17Z</time>
      </trkpt>
      <trkpt lat="34.970913" lon="-2.911096">
        <ele>199.6</ele>
        <time>2008-03-16T09:52:19Z</time>
      </trkpt>
      <trkpt lat="34.970522" lon="-2.910769">
        <ele>200.1</ele>
        <time>2008-03-16T09:52:21Z</time>
      </trkpt>
      <trkpt lat="34.970134" lon="-2.910440">
        <ele>201.1</ele>
        <time>2008-03-16T09:52:23Z</time>
      </trkpt>
      <trkpt lat="34.969747" lon="-2.910115">
        <ele>201.5</ele>
        <time>2008-03-16T09:52:25Z</time>
      </trkpt>
      <trkpt lat="34.969362" lon="-2.909789">
        <ele>202.0</ele>
        <time>2008-03-16T09:52:27Z</time>
      </trkpt>
      <trkpt lat="34.968985" lon="-2.909450">
        <ele>203.0</ele>
        <time>2008-03-16T09:52:29Z</time>
      </trkpt>
      <trkpt lat="34.968627" lon="-2.909080">
        <ele>203.5</ele>
        <time>2008-03-16T09:52:31Z</time>
      </trkpt>
      <trkpt lat="34.968286" lon="-2.908681">
        <ele>203.5</ele>
        <time>2008-03-16T09:52:33Z</time>
      </trkpt>
      <trkpt lat="34.967947" lon="-2.908278">
        <ele>203.9</ele>
        <time>2008-03-16T09:52:35Z</time>
      </trkpt>
      <trkpt lat="34.967608" lon="-2.907875">
        <ele>204.4</ele>
        <time>2008-03-16T09:52:37Z</time>
      </trkpt>
      <trkpt lat="34.967270" lon="-2.907475">
        <ele>204.9</ele>
        <time>2008-03-16T09:52:39Z</time>
      </trkpt>
      <trkpt lat="34.966935" lon="-2.907073">
        <ele>205.4</ele>
        <time>2008-03-16T09:52:41Z</time>
      </trkpt>
      <trkpt lat="34.966601" lon="-2.906672">
        <ele>205.9</ele>
        <time>2008-03-16T09:52:43Z</time>
      </trkpt>
      <trkpt lat="34.966266" lon="-2.906273">
        <ele>206.3</ele>
        <time>2008-03-16T09:52:45Z</time>
      </trkpt>
      <trkpt lat="34.965933" lon="-2.905876">
        <ele>207.3</ele>
        <time>2008-03-16T09:52:47Z</time>
      </trkpt>
      <trkpt lat="34.965433" lon="-2.905286">
        <ele>208.3</ele>
        <time>2008-03-16T09:52:50Z</time>
      </trkpt>
      <trkpt lat="34.965097" lon="-2.904891">
        <ele>208.7</ele>
        <time>2008-03-16T09:52:52Z</time>
      </trkpt>
      <trkpt lat="34.964760" lon="-2.904492">
        <ele>209.7</ele>
        <time>2008-03-16T09:52:54Z</time>
      </trkpt>
      <trkpt lat="34.964422" lon="-2.904090">
        <ele>210.7</ele>
        <time>2008-03-16T09:52:56Z</time>
      </trkpt>
      <trkpt lat="34.964084" lon="-2.903686">
        <ele>211.1</ele>
        <time>2008-03-16T09:52:58Z</time>
      </trkpt>
      <trkpt lat="34.963749" lon="-2.903286">
        <ele>212.1</ele>
        <time>2008-03-16T09:53:00Z</time>
      </trkpt>
      <trkpt lat="34.963412" lon="-2.902889">
        <ele>213.1</ele>
        <time>2008-03-16T09:53:02Z</time>
      </trkpt>
      <trkpt lat="34.963074" lon="-2.902495">
        <ele>214.0</ele>
        <time>2008-03-16T09:53:04Z</time>
      </trkpt>
      <trkpt lat="34.962739" lon="-2.902098">
        <ele>214.5</ele>
        <time>2008-03-16T09:53:06Z</time>
      </trkpt>
      <trkpt lat="34.962403" lon="-2.901703">
        <ele>215.5</ele>
        <time>2008-03-16T09:53:08Z</time>
      </trkpt>
      <trkpt lat="34.962065" lon="-2.901309">
        <ele>216.0</ele>
        <time>2008-03-16T09:53:10Z</time>
      </trkpt>
      <trkpt lat="34.961729" lon="-2.900913">
        <ele>216.4</ele>
        <time>2008-03-16T09:53:12Z</time>
      </trkpt>
      <trkpt lat="34.961394" lon="-2.900516">
        <ele>216.9</ele>
        <time>2008-03-16T09:53:14Z</time>
      </trkpt>
      <trkpt lat="34.961068" lon="-2.900118">
        <ele>217.9</ele>
        <time>2008-03-16T09:53:16Z</time>
      </trkpt>
      <trkpt lat="34.960754" lon="-2.899711">
        <ele>218.4</ele>
        <time>2008-03-16T09:53:18Z</time>
      </trkpt>
      <trkpt lat="34.960447" lon="-2.899293">
        <ele>218.4</ele>
        <time>2008-03-16T09:53:20Z</time>
      </trkpt>
      <trkpt lat="34.960142" lon="-2.898868">
        <ele>218.4</ele>
        <time>2008-03-16T09:53:22Z</time>
      </trkpt>
      <trkpt lat="34.959831" lon="-2.898441">
        <ele>218.4</ele>
        <time>2008-03-16T09:53:24Z</time>
      </trkpt>
      <trkpt lat="34.959517" lon="-2.898012">
        <ele>218.4</ele>
        <time>2008-03-16T09:53:26Z</time>
      </trkpt>
      <trkpt lat="34.959198" lon="-2.897584">
        <ele>218.4</ele>
        <time>2008-03-16T09:53:28Z</time>
      </trkpt>
      <trkpt lat="34.958874" lon="-2.897158">
        <ele>218.4</ele>
        <time>2008-03-16T09:53:30Z</time>
      </trkpt>
      <trkpt lat="34.958537" lon="-2.896742">
        <ele>218.4</ele>
        <time>2008-03-16T09:53:32Z</time>
      </trkpt>
      <trkpt lat="34.958189" lon="-2.896341">
        <ele>218.8</ele>
        <time>2008-03-16T09:53:34Z</time>
      </trkpt>
      <trkpt lat="34.957836" lon="-2.895947">
        <ele>219.3</ele>
        <time>2008-03-16T09:53:36Z</time>
      </trkpt>
      <trkpt lat="34.957483" lon="-2.895554">
        <ele>219.8</ele>
        <time>2008-03-16T09:53:38Z</time>
      </trkpt>
      <trkpt lat="34.957132" lon="-2.895163">
        <ele>220.3</ele>
        <time>2008-03-16T09:53:40Z</time>
      </trkpt>
      <trkpt lat="34.956783" lon="-2.894774">
        <ele>220.3</ele>
        <time>2008-03-16T09:53:42Z</time>
      </trkpt>
      <trkpt lat="34.956435" lon="-2.894387">
        <ele>220.8</ele>
        <time>2008-03-16T09:53:44Z</time>
      </trkpt>
      <trkpt lat="34.956086" lon="-2.894007">
        <ele>221.7</ele>
        <time>2008-03-16T09:53:46Z</time>
      </trkpt>
      <trkpt lat="34.955738" lon="-2.893632">
        <ele>222.2</ele>
        <time>2008-03-16T09:53:48Z</time>
      </trkpt>
      <trkpt lat="34.955397" lon="-2.893250">
        <ele>222.7</ele>
        <time>2008-03-16T09:53:50Z</time>
      </trkpt>
      <trkpt lat="34.955055" lon="-2.892871">
        <ele>223.6</ele>
        <time>2008-03-16T09:53:52Z</time>
      </trkpt>
      <trkpt lat="34.954710" lon="-2.892493">
        <ele>224.1</ele>
        <time>2008-03-16T09:53:54Z</time>
      </trkpt>
      <trkpt lat="34.954367" lon="-2.892111">
        <ele>225.1</ele>
        <time>2008-03-16T09:53:56Z</time>
      </trkpt>
      <trkpt lat="34.954024" lon="-2.891728">
        <ele>226.0</ele>
        <time>2008-03-16T09:53:58Z</time>
      </trkpt>
      <trkpt lat="34.953677" lon="-2.891342">
        <ele>226.5</ele>
        <time>2008-03-16T09:54:00Z</time>
      </trkpt>
      <trkpt lat="34.953331" lon="-2.890956">
        <ele>228.0</ele>
        <time>2008-03-16T09:54:02Z</time>
      </trkpt>
      <trkpt lat="34.952977" lon="-2.890582">
        <ele>228.9</ele>
        <time>2008-03-16T09:54:04Z</time>
      </trkpt>
      <trkpt lat="34.952605" lon="-2.890234">
        <ele>229.9</ele>
        <time>2008-03-16T09:54:06Z</time>
      </trkpt>
      <trkpt lat="34.952214" lon="-2.889914">
        <ele>231.3</ele>
        <time>2008-03-16T09:54:08Z</time>
      </trkpt>
      <trkpt lat="34.951811" lon="-2.889610">
        <ele>232.8</ele>
        <time>2008-03-16T09:54:10Z</time>
      </trkpt>
      <trkpt lat="34.951406" lon="-2.889312">
        <ele>233.7</ele>
        <time>2008-03-16T09:54:12Z</time>
      </trkpt>
      <trkpt lat="34.951000" lon="-2.889017">
        <ele>235.2</ele>
        <time>2008-03-16T09:54:14Z</time>
      </trkpt>
      <trkpt lat="34.950596" lon="-2.888722">
        <ele>237.1</ele>
        <time>2008-03-16T09:54:16Z</time>
      </trkpt>
      <trkpt lat="34.950190" lon="-2.888429">
        <ele>238.5</ele>
        <time>2008-03-16T09:54:18Z</time>
      </trkpt>
      <trkpt lat="34.949785" lon="-2.888134">
        <ele>240.0</ele>
        <time>2008-03-16T09:54:20Z</time>
      </trkpt>
      <trkpt lat="34.949381" lon="-2.887837">
        <ele>241.4</ele>
        <time>2008-03-16T09:54:22Z</time>
      </trkpt>
      <trkpt lat="34.948974" lon="-2.887544">
        <ele>242.9</ele>
        <time>2008-03-16T09:54:24Z</time>
      </trkpt>
      <trkpt lat="34.948566" lon="-2.887251">
        <ele>244.8</ele>
        <time>2008-03-16T09:54:26Z</time>
      </trkpt>
      <trkpt lat="34.948158" lon="-2.886957">
        <ele>246.2</ele>
        <time>2008-03-16T09:54:28Z</time>
      </trkpt>
      <trkpt lat="34.947748" lon="-2.886664">
        <ele>247.7</ele>
        <time>2008-03-16T09:54:30Z</time>
      </trkpt>
      <trkpt lat="34.947338" lon="-2.886370">
        <ele>249.1</ele>
        <time>2008-03-16T09:54:32Z</time>
      </trkpt>
      <trkpt lat="34.946927" lon="-2.886077">
        <ele>251.0</ele>
        <time>2008-03-16T09:54:34Z</time>
      </trkpt>
      <trkpt lat="34.946513" lon="-2.885783">
        <ele>253.0</ele>
        <time>2008-03-16T09:54:36Z</time>
      </trkpt>
      <trkpt lat="34.946094" lon="-2.885500">
        <ele>254.4</ele>
        <time>2008-03-16T09:54:38Z</time>
      </trkpt>
      <trkpt lat="34.945663" lon="-2.885247">
        <ele>256.3</ele>
        <time>2008-03-16T09:54:40Z</time>
      </trkpt>
      <trkpt lat="34.945224" lon="-2.885018">
        <ele>258.3</ele>
        <time>2008-03-16T09:54:42Z</time>
      </trkpt>
      <trkpt lat="34.944786" lon="-2.884795">
        <ele>260.2</ele>
        <time>2008-03-16T09:54:44Z</time>
      </trkpt>
      <trkpt lat="34.944351" lon="-2.884574">
        <ele>261.6</ele>
        <time>2008-03-16T09:54:46Z</time>
      </trkpt>
      <trkpt lat="34.943912" lon="-2.884352">
        <ele>263.1</ele>
        <time>2008-03-16T09:54:48Z</time>
      </trkpt>
      <trkpt lat="34.943473" lon="-2.884129">
        <ele>264.5</ele>
        <time>2008-03-16T09:54:50Z</time>
      </trkpt>
      <trkpt lat="34.943030" lon="-2.883901">
        <ele>265.9</ele>
        <time>2008-03-16T09:54:52Z</time>
      </trkpt>
      <trkpt lat="34.942586" lon="-2.883674">
        <ele>267.9</ele>
        <time>2008-03-16T09:54:54Z</time>
      </trkpt>
      <trkpt lat="34.942139" lon="-2.883446">
        <ele>269.3</ele>
        <time>2008-03-16T09:54:56Z</time>
      </trkpt>
      <trkpt lat="34.941692" lon="-2.883218">
        <ele>271.2</ele>
        <time>2008-03-16T09:54:58Z</time>
      </trkpt>
      <trkpt lat="34.941248" lon="-2.882990">
        <ele>273.2</ele>
        <time>2008-03-16T09:55:00Z</time>
      </trkpt>
      <trkpt lat="34.940804" lon="-2.882764">
        <ele>275.6</ele>
        <time>2008-03-16T09:55:02Z</time>
      </trkpt>
      <trkpt lat="34.940356" lon="-2.882538">
        <ele>278.4</ele>
        <time>2008-03-16T09:55:04Z</time>
      </trkpt>
      <trkpt lat="34.939906" lon="-2.882309">
        <ele>281.3</ele>
        <time>2008-03-16T09:55:06Z</time>
      </trkpt>
      <trkpt lat="34.939453" lon="-2.882076">
        <ele>283.7</ele>
        <time>2008-03-16T09:55:08Z</time>
      </trkpt>
      <trkpt lat="34.938999" lon="-2.881842">
        <ele>286.6</ele>
        <time>2008-03-16T09:55:10Z</time>
      </trkpt>
      <trkpt lat="34.938541" lon="-2.881613">
        <ele>289.5</ele>
        <time>2008-03-16T09:55:12Z</time>
      </trkpt>
      <trkpt lat="34.938084" lon="-2.881385">
        <ele>292.9</ele>
        <time>2008-03-16T09:55:14Z</time>
      </trkpt>
      <trkpt lat="34.937630" lon="-2.881154">
        <ele>296.2</ele>
        <time>2008-03-16T09:55:16Z</time>
      </trkpt>
      <trkpt lat="34.937177" lon="-2.880923">
        <ele>299.1</ele>
        <time>2008-03-16T09:55:18Z</time>
      </trkpt>
      <trkpt lat="34.936727" lon="-2.880691">
        <ele>301.5</ele>
        <time>2008-03-16T09:55:20Z</time>
      </trkpt>
      <trkpt lat="34.936288" lon="-2.880460">
        <ele>303.9</ele>
        <time>2008-03-16T09:55:22Z</time>
      </trkpt>
      <trkpt lat="34.935859" lon="-2.880233">
        <ele>304.9</ele>
        <time>2008-03-16T09:55:24Z</time>
      </trkpt>
      <trkpt lat="34.935437" lon="-2.880003">
        <ele>305.8</ele>
        <time>2008-03-16T09:55:26Z</time>
      </trkpt>
      <trkpt lat="34.935018" lon="-2.879774">
        <ele>306.8</ele>
        <time>2008-03-16T09:55:28Z</time>
      </trkpt>
      <trkpt lat="34.934601" lon="-2.879553">
        <ele>307.3</ele>
        <time>2008-03-16T09:55:30Z</time>
      </trkpt>
      <trkpt lat="34.934180" lon="-2.879354">
        <ele>306.3</ele>
        <time>2008-03-16T09:55:32Z</time>
      </trkpt>
      <trkpt lat="34.933746" lon="-2.879178">
        <ele>304.4</ele>
        <time>2008-03-16T09:55:34Z</time>
      </trkpt>
      <trkpt lat="34.933303" lon="-2.879009">
        <ele>302.0</ele>
        <time>2008-03-16T09:55:36Z</time>
      </trkpt>
      <trkpt lat="34.932854" lon="-2.878840">
        <ele>300.1</ele>
        <time>2008-03-16T09:55:38Z</time>
      </trkpt>
      <trkpt lat="34.932401" lon="-2.878665">
        <ele>298.1</ele>
        <time>2008-03-16T09:55:40Z</time>
      </trkpt>
      <trkpt lat="34.931945" lon="-2.878485">
        <ele>296.2</ele>
        <time>2008-03-16T09:55:42Z</time>
      </trkpt>
      <trkpt lat="34.931485" lon="-2.878291">
        <ele>294.3</ele>
        <time>2008-03-16T09:55:44Z</time>
      </trkpt>
      <trkpt lat="34.931025" lon="-2.878084">
        <ele>291.9</ele>
        <time>2008-03-16T09:55:46Z</time>
      </trkpt>
      <trkpt lat="34.930567" lon="-2.877859">
        <ele>289.5</ele>
        <time>2008-03-16T09:55:48Z</time>
      </trkpt>
      <trkpt lat="34.930108" lon="-2.877632">
        <ele>287.1</ele>
        <time>2008-03-16T09:55:50Z</time>
      </trkpt>
      <trkpt lat="34.929653" lon="-2.877418">
        <ele>285.2</ele>
        <time>2008-03-16T09:55:52Z</time>
      </trkpt>
      <trkpt lat="34.929202" lon="-2.877219">
        <ele>282.8</ele>
        <time>2008-03-16T09:55:54Z</time>
      </trkpt>
      <trkpt lat="34.928752" lon="-2.877036">
        <ele>280.8</ele>
        <time>2008-03-16T09:55:56Z</time>
      </trkpt>
      <trkpt lat="34.928297" lon="-2.876877">
        <ele>278.4</ele>
        <time>2008-03-16T09:55:58Z</time>
      </trkpt>
      <trkpt lat="34.927832" lon="-2.876761">
        <ele>276.0</ele>
        <time>2008-03-16T09:56:00Z</time>
      </trkpt>
      <trkpt lat="34.927363" lon="-2.876683">
        <ele>274.6</ele>
        <time>2008-03-16T09:56:02Z</time>
      </trkpt>
      <trkpt lat="34.926904" lon="-2.876629">
        <ele>273.2</ele>
        <time>2008-03-16T09:56:04Z</time>
      </trkpt>
      <trkpt lat="34.926273" lon="-2.876568">
        <ele>271.7</ele>
        <time>2008-03-16T09:56:07Z</time>
      </trkpt>
      <trkpt lat="34.925725" lon="-2.876502">
        <ele>269.8</ele>
        <time>2008-03-16T09:56:10Z</time>
      </trkpt>
      <trkpt lat="34.925155" lon="-2.876441">
        <ele>268.3</ele>
        <time>2008-03-16T09:56:13Z</time>
      </trkpt>
      <trkpt lat="34.924546" lon="-2.876398">
        <ele>265.9</ele>
        <time>2008-03-16T09:56:16Z</time>
      </trkpt>
      <trkpt lat="34.923901" lon="-2.876367">
        <ele>264.0</ele>
        <time>2008-03-16T09:56:19Z</time>
      </trkpt>
      <trkpt lat="34.923228" lon="-2.876308">
        <ele>261.6</ele>
        <time>2008-03-16T09:56:22Z</time>
      </trkpt>
      <trkpt lat="34.922769" lon="-2.876251">
        <ele>260.2</ele>
        <time>2008-03-16T09:56:24Z</time>
      </trkpt>
      <trkpt lat="34.922308" lon="-2.876163">
        <ele>258.7</ele>
        <time>2008-03-16T09:56:26Z</time>
      </trkpt>
      <trkpt lat="34.921846" lon="-2.876052">
        <ele>257.3</ele>
        <time>2008-03-16T09:56:28Z</time>
      </trkpt>
      <trkpt lat="34.921384" lon="-2.875920">
        <ele>255.8</ele>
        <time>2008-03-16T09:56:30Z</time>
      </trkpt>
      <trkpt lat="34.920929" lon="-2.875741">
        <ele>253.9</ele>
        <time>2008-03-16T09:56:32Z</time>
      </trkpt>
      <trkpt lat="34.920481" lon="-2.875529">
        <ele>252.5</ele>
        <time>2008-03-16T09:56:34Z</time>
      </trkpt>
      <trkpt lat="34.920032" lon="-2.875311">
        <ele>251.0</ele>
        <time>2008-03-16T09:56:36Z</time>
      </trkpt>
      <trkpt lat="34.919583" lon="-2.875092">
        <ele>249.6</ele>
        <time>2008-03-16T09:56:38Z</time>
      </trkpt>
      <trkpt lat="34.919133" lon="-2.874874">
        <ele>248.2</ele>
        <time>2008-03-16T09:56:40Z</time>
      </trkpt>
      <trkpt lat="34.918687" lon="-2.874665">
        <ele>247.2</ele>
        <time>2008-03-16T09:56:42Z</time>
      </trkpt>
      <trkpt lat="34.918248" lon="-2.874463">
        <ele>246.7</ele>
        <time>2008-03-16T09:56:44Z</time>
      </trkpt>
      <trkpt lat="34.917808" lon="-2.874288">
        <ele>245.8</ele>
        <time>2008-03-16T09:56:46Z</time>
      </trkpt>
      <trkpt lat="34.917361" lon="-2.874174">
        <ele>245.3</ele>
        <time>2008-03-16T09:56:48Z</time>
      </trkpt>
      <trkpt lat="34.916904" lon="-2.874108">
        <ele>244.3</ele>
        <time>2008-03-16T09:56:50Z</time>
      </trkpt>
      <trkpt lat="34.916443" lon="-2.874051">
        <ele>243.8</ele>
        <time>2008-03-16T09:56:52Z</time>
      </trkpt>
      <trkpt lat="34.915974" lon="-2.873999">
        <ele>242.9</ele>
        <time>2008-03-16T09:56:54Z</time>
      </trkpt>
      <trkpt lat="34.915499" lon="-2.873940">
        <ele>241.9</ele>
        <time>2008-03-16T09:56:56Z</time>
      </trkpt>
      <trkpt lat="34.905553" lon="-2.870839">
        <ele>246.2</ele>
        <time>2008-03-16T09:57:38Z</time>
      </trkpt>
      <trkpt lat="34.904907" lon="-2.870562">
        <ele>235.7</ele>
        <time>2008-03-16T09:57:41Z</time>
      </trkpt>
      <trkpt lat="34.904029" lon="-2.870262">
        <ele>232.3</ele>
        <time>2008-03-16T09:57:45Z</time>
      </trkpt>
      <trkpt lat="34.903590" lon="-2.870151">
        <ele>231.3</ele>
        <time>2008-03-16T09:57:47Z</time>
      </trkpt>
      <trkpt lat="34.903149" lon="-2.870036">
        <ele>229.9</ele>
        <time>2008-03-16T09:57:49Z</time>
      </trkpt>
      <trkpt lat="34.902470" lon="-2.869851">
        <ele>228.5</ele>
        <time>2008-03-16T09:57:52Z</time>
      </trkpt>
      <trkpt lat="34.902009" lon="-2.869726">
        <ele>228.0</ele>
        <time>2008-03-16T09:57:54Z</time>
      </trkpt>
      <trkpt lat="34.901543" lon="-2.869602">
        <ele>227.0</ele>
        <time>2008-03-16T09:57:56Z</time>
      </trkpt>
      <trkpt lat="34.901077" lon="-2.869476">
        <ele>227.0</ele>
        <time>2008-03-16T09:57:58Z</time>
      </trkpt>
      <trkpt lat="34.900618" lon="-2.869346">
        <ele>226.0</ele>
        <time>2008-03-16T09:58:00Z</time>
      </trkpt>
      <trkpt lat="34.900158" lon="-2.869217">
        <ele>225.1</ele>
        <time>2008-03-16T09:58:02Z</time>
      </trkpt>
      <trkpt lat="34.899694" lon="-2.869090">
        <ele>223.6</ele>
        <time>2008-03-16T09:58:04Z</time>
      </trkpt>
      <trkpt lat="34.899229" lon="-2.868953">
        <ele>222.2</ele>
        <time>2008-03-16T09:58:06Z</time>
      </trkpt>
      <trkpt lat="34.898767" lon="-2.868811">
        <ele>220.8</ele>
        <time>2008-03-16T09:58:08Z</time>
      </trkpt>
      <trkpt lat="34.898303" lon="-2.868677">
        <ele>220.3</ele>
        <time>2008-03-16T09:58:10Z</time>
      </trkpt>
      <trkpt lat="34.897847" lon="-2.868535">
        <ele>219.3</ele>
        <time>2008-03-16T09:58:12Z</time>
      </trkpt>
      <trkpt lat="34.897409" lon="-2.868354">
        <ele>218.4</ele>
        <time>2008-03-16T09:58:14Z</time>
      </trkpt>
      <trkpt lat="34.896976" lon="-2.868146">
        <ele>217.4</ele>
        <time>2008-03-16T09:58:16Z</time>
      </trkpt>
      <trkpt lat="34.896545" lon="-2.867924">
        <ele>216.4</ele>
        <time>2008-03-16T09:58:18Z</time>
      </trkpt>
      <trkpt lat="34.896117" lon="-2.867702">
        <ele>216.4</ele>
        <time>2008-03-16T09:58:20Z</time>
      </trkpt>
      <trkpt lat="34.895694" lon="-2.867487">
        <ele>216.0</ele>
        <time>2008-03-16T09:58:22Z</time>
      </trkpt>
      <trkpt lat="34.895277" lon="-2.867273">
        <ele>215.0</ele>
        <time>2008-03-16T09:58:24Z</time>
      </trkpt>
      <trkpt lat="34.894665" lon="-2.866957">
        <ele>214.5</ele>
        <time>2008-03-16T09:58:27Z</time>
      </trkpt>
      <trkpt lat="34.894061" lon="-2.866642">
        <ele>213.6</ele>
        <time>2008-03-16T09:58:30Z</time>
      </trkpt>
      <trkpt lat="34.893457" lon="-2.866401">
        <ele>215.0</ele>
        <time>2008-03-16T09:58:33Z</time>
      </trkpt>
      <trkpt lat="34.892817" lon="-2.866376">
        <ele>217.4</ele>
        <time>2008-03-16T09:58:36Z</time>
      </trkpt>
      <trkpt lat="34.892189" lon="-2.866514">
        <ele>220.3</ele>
        <time>2008-03-16T09:58:39Z</time>
      </trkpt>
      <trkpt lat="34.891589" lon="-2.866756">
        <ele>223.6</ele>
        <time>2008-03-16T09:58:42Z</time>
      </trkpt>
      <trkpt lat="34.891019" lon="-2.866961">
        <ele>226.5</ele>
        <time>2008-03-16T09:58:45Z</time>
      </trkpt>
      <trkpt lat="34.890445" lon="-2.867030">
        <ele>229.4</ele>
        <time>2008-03-16T09:58:48Z</time>
      </trkpt>
      <trkpt lat="34.889865" lon="-2.866985">
        <ele>232.3</ele>
        <time>2008-03-16T09:58:51Z</time>
      </trkpt>
      <trkpt lat="34.889284" lon="-2.866946">
        <ele>235.2</ele>
        <time>2008-03-16T09:58:54Z</time>
      </trkpt>
      <trkpt lat="34.888719" lon="-2.867016">
        <ele>237.1</ele>
        <time>2008-03-16T09:58:57Z</time>
      </trkpt>
      <trkpt lat="34.888158" lon="-2.867239">
        <ele>238.1</ele>
        <time>2008-03-16T09:59:00Z</time>
      </trkpt>
      <trkpt lat="34.887587" lon="-2.867546">
        <ele>239.0</ele>
        <time>2008-03-16T09:59:03Z</time>
      </trkpt>
      <trkpt lat="34.887003" lon="-2.867888">
        <ele>240.9</ele>
        <time>2008-03-16T09:59:06Z</time>
      </trkpt>
      <trkpt lat="34.886410" lon="-2.868245">
        <ele>242.9</ele>
        <time>2008-03-16T09:59:09Z</time>
      </trkpt>
      <trkpt lat="34.886012" lon="-2.868493">
        <ele>243.8</ele>
        <time>2008-03-16T09:59:11Z</time>
      </trkpt>
      <trkpt lat="34.885408" lon="-2.868864">
        <ele>245.8</ele>
        <time>2008-03-16T09:59:14Z</time>
      </trkpt>
      <trkpt lat="34.885006" lon="-2.869112">
        <ele>246.7</ele>
        <time>2008-03-16T09:59:16Z</time>
      </trkpt>
      <trkpt lat="34.884407" lon="-2.869467">
        <ele>248.2</ele>
        <time>2008-03-16T09:59:19Z</time>
      </trkpt>
      <trkpt lat="34.884010" lon="-2.869665">
        <ele>249.6</ele>
        <time>2008-03-16T09:59:21Z</time>
      </trkpt>
      <trkpt lat="34.883394" lon="-2.869830">
        <ele>250.6</ele>
        <time>2008-03-16T09:59:24Z</time>
      </trkpt>
      <trkpt lat="34.882763" lon="-2.869848">
        <ele>252.5</ele>
        <time>2008-03-16T09:59:27Z</time>
      </trkpt>
      <trkpt lat="34.882146" lon="-2.869701">
        <ele>255.4</ele>
        <time>2008-03-16T09:59:30Z</time>
      </trkpt>
      <trkpt lat="34.881552" lon="-2.869451">
        <ele>258.7</ele>
        <time>2008-03-16T09:59:33Z</time>
      </trkpt>
      <trkpt lat="34.880961" lon="-2.869169">
        <ele>262.1</ele>
        <time>2008-03-16T09:59:36Z</time>
      </trkpt>
      <trkpt lat="34.880363" lon="-2.868888">
        <ele>265.0</ele>
        <time>2008-03-16T09:59:39Z</time>
      </trkpt>
      <trkpt lat="34.879733" lon="-2.868709">
        <ele>267.9</ele>
        <time>2008-03-16T09:59:42Z</time>
      </trkpt>
      <trkpt lat="34.879082" lon="-2.868629">
        <ele>270.7</ele>
        <time>2008-03-16T09:59:45Z</time>
      </trkpt>
      <trkpt lat="34.878420" lon="-2.868564">
        <ele>272.2</ele>
        <time>2008-03-16T09:59:48Z</time>
      </trkpt>
      <trkpt lat="34.877743" lon="-2.868539">
        <ele>273.2</ele>
        <time>2008-03-16T09:59:51Z</time>
      </trkpt>
      <trkpt lat="34.877288" lon="-2.868562">
        <ele>273.2</ele>
        <time>2008-03-16T09:59:53Z</time>
      </trkpt>
      <trkpt lat="34.876834" lon="-2.868626">
        <ele>272.2</ele>
        <time>2008-03-16T09:59:55Z</time>
      </trkpt>
      <trkpt lat="34.876377" lon="-2.868724">
        <ele>270.7</ele>
        <time>2008-03-16T09:59:57Z</time>
      </trkpt>
      <trkpt lat="34.875921" lon="-2.868853">
        <ele>269.8</ele>
        <time>2008-03-16T09:59:59Z</time>
      </trkpt>
      <trkpt lat="34.875467" lon="-2.869014">
        <ele>269.3</ele>
        <time>2008-03-16T10:00:01Z</time>
      </trkpt>
      <trkpt lat="34.875026" lon="-2.869197">
        <ele>269.8</ele>
        <time>2008-03-16T10:00:03Z</time>
      </trkpt>
      <trkpt lat="34.874588" lon="-2.869382">
        <ele>270.7</ele>
        <time>2008-03-16T10:00:05Z</time>
      </trkpt>
      <trkpt lat="34.874145" lon="-2.869563">
        <ele>271.7</ele>
        <time>2008-03-16T10:00:07Z</time>
      </trkpt>
      <trkpt lat="34.873707" lon="-2.869748">
        <ele>272.2</ele>
        <time>2008-03-16T10:00:09Z</time>
      </trkpt>
      <trkpt lat="34.873264" lon="-2.869933">
        <ele>273.2</ele>
        <time>2008-03-16T10:00:11Z</time>
      </trkpt>
      <trkpt lat="34.872814" lon="-2.870117">
        <ele>274.1</ele>
        <time>2008-03-16T10:00:13Z</time>
      </trkpt>
      <trkpt lat="34.872361" lon="-2.870303">
        <ele>275.1</ele>
        <time>2008-03-16T10:00:15Z</time>
      </trkpt>
      <trkpt lat="34.871907" lon="-2.870491">
        <ele>276.0</ele>
        <time>2008-03-16T10:00:17Z</time>
      </trkpt>
      <trkpt lat="34.871452" lon="-2.870677">
        <ele>276.0</ele>
        <time>2008-03-16T10:00:19Z</time>
      </trkpt>
      <trkpt lat="34.870994" lon="-2.870868">
        <ele>277.5</ele>
        <time>2008-03-16T10:00:21Z</time>
      </trkpt>
      <trkpt lat="34.870542" lon="-2.871060">
        <ele>278.4</ele>
        <time>2008-03-16T10:00:23Z</time>
      </trkpt>
      <trkpt lat="34.870096" lon="-2.871253">
        <ele>279.9</ele>
        <time>2008-03-16T10:00:25Z</time>
      </trkpt>
      <trkpt lat="34.869662" lon="-2.871460">
        <ele>280.8</ele>
        <time>2008-03-16T10:00:27Z</time>
      </trkpt>
      <trkpt lat="34.869246" lon="-2.871698">
        <ele>282.3</ele>
        <time>2008-03-16T10:00:29Z</time>
      </trkpt>
      <trkpt lat="34.868845" lon="-2.871962">
        <ele>283.7</ele>
        <time>2008-03-16T10:00:31Z</time>
      </trkpt>
      <trkpt lat="34.868448" lon="-2.872235">
        <ele>283.7</ele>
        <time>2008-03-16T10:00:33Z</time>
      </trkpt>
      <trkpt lat="34.868049" lon="-2.872510">
        <ele>284.7</ele>
        <time>2008-03-16T10:00:35Z</time>
      </trkpt>
      <trkpt lat="34.867651" lon="-2.872781">
        <ele>285.6</ele>
        <time>2008-03-16T10:00:37Z</time>
      </trkpt>
      <trkpt lat="34.867258" lon="-2.873053">
        <ele>286.6</ele>
        <time>2008-03-16T10:00:39Z</time>
      </trkpt>
      <trkpt lat="34.866683" lon="-2.873481">
        <ele>287.6</ele>
        <time>2008-03-16T10:00:42Z</time>
      </trkpt>
      <trkpt lat="34.866206" lon="-2.874020">
        <ele>287.1</ele>
        <time>2008-03-16T10:00:45Z</time>
      </trkpt>
      <trkpt lat="34.865852" lon="-2.874687">
        <ele>286.6</ele>
        <time>2008-03-16T10:00:48Z</time>
      </trkpt>
      <trkpt lat="34.865591" lon="-2.875420">
        <ele>288.1</ele>
        <time>2008-03-16T10:00:51Z</time>
      </trkpt>
      <trkpt lat="34.865355" lon="-2.876169">
        <ele>289.0</ele>
        <time>2008-03-16T10:00:54Z</time>
      </trkpt>
      <trkpt lat="34.865105" lon="-2.876919">
        <ele>289.5</ele>
        <time>2008-03-16T10:00:57Z</time>
      </trkpt>
      <trkpt lat="34.864854" lon="-2.877673">
        <ele>289.5</ele>
        <time>2008-03-16T10:01:00Z</time>
      </trkpt>
      <trkpt lat="34.864676" lon="-2.878163">
        <ele>289.0</ele>
        <time>2008-03-16T10:01:02Z</time>
      </trkpt>
      <trkpt lat="34.864322" lon="-2.878842">
        <ele>288.5</ele>
        <time>2008-03-16T10:01:05Z</time>
      </trkpt>
      <trkpt lat="34.863856" lon="-2.879411">
        <ele>287.1</ele>
        <time>2008-03-16T10:01:08Z</time>
      </trkpt>
      <trkpt lat="34.863327" lon="-2.879888">
        <ele>284.7</ele>
        <time>2008-03-16T10:01:11Z</time>
      </trkpt>
      <trkpt lat="34.862758" lon="-2.880278">
        <ele>280.8</ele>
        <time>2008-03-16T10:01:14Z</time>
      </trkpt>
      <trkpt lat="34.862161" lon="-2.880544">
        <ele>277.5</ele>
        <time>2008-03-16T10:01:17Z</time>
      </trkpt>
      <trkpt lat="34.861609" lon="-2.880659">
        <ele>275.1</ele>
        <time>2008-03-16T10:01:20Z</time>
      </trkpt>
      <trkpt lat="34.861113" lon="-2.880656">
        <ele>274.6</ele>
        <time>2008-03-16T10:01:23Z</time>
      </trkpt>
      <trkpt lat="34.860620" lon="-2.880586">
        <ele>275.1</ele>
        <time>2008-03-16T10:01:26Z</time>
      </trkpt>
      <trkpt lat="34.860112" lon="-2.880435">
        <ele>277.5</ele>
        <time>2008-03-16T10:01:29Z</time>
      </trkpt>
      <trkpt lat="34.859621" lon="-2.880209">
        <ele>280.4</ele>
        <time>2008-03-16T10:01:32Z</time>
      </trkpt>
      <trkpt lat="34.859162" lon="-2.879987">
        <ele>283.7</ele>
        <time>2008-03-16T10:01:35Z</time>
      </trkpt>
      <trkpt lat="34.858720" lon="-2.879778">
        <ele>287.1</ele>
        <time>2008-03-16T10:01:38Z</time>
      </trkpt>
      <trkpt lat="34.858292" lon="-2.879582">
        <ele>290.5</ele>
        <time>2008-03-16T10:01:41Z</time>
      </trkpt>
      <trkpt lat="34.857737" lon="-2.879325">
        <ele>294.3</ele>
        <time>2008-03-16T10:01:45Z</time>
      </trkpt>
      <trkpt lat="34.857191" lon="-2.879151">
        <ele>296.2</ele>
        <time>2008-03-16T10:01:49Z</time>
      </trkpt>
      <trkpt lat="34.856616" lon="-2.879097">
        <ele>297.7</ele>
        <time>2008-03-16T10:01:53Z</time>
      </trkpt>
      <trkpt lat="34.856011" lon="-2.879074">
        <ele>299.1</ele>
        <time>2008-03-16T10:01:57Z</time>
      </trkpt>
      <trkpt lat="34.855546" lon="-2.879060">
        <ele>300.1</ele>
        <time>2008-03-16T10:02:00Z</time>
      </trkpt>
      <trkpt lat="34.855076" lon="-2.879057">
        <ele>301.0</ele>
        <time>2008-03-16T10:02:03Z</time>
      </trkpt>
      <trkpt lat="34.854603" lon="-2.879125">
        <ele>301.5</ele>
        <time>2008-03-16T10:02:06Z</time>
      </trkpt>
      <trkpt lat="34.854063" lon="-2.879265">
        <ele>301.5</ele>
        <time>2008-03-16T10:02:09Z</time>
      </trkpt>
      <trkpt lat="34.853459" lon="-2.879470">
        <ele>302.0</ele>
        <time>2008-03-16T10:02:12Z</time>
      </trkpt>
      <trkpt lat="34.852826" lon="-2.879707">
        <ele>303.0</ele>
        <time>2008-03-16T10:02:15Z</time>
      </trkpt>
      <trkpt lat="34.852183" lon="-2.879917">
        <ele>303.9</ele>
        <time>2008-03-16T10:02:18Z</time>
      </trkpt>
      <trkpt lat="34.851543" lon="-2.880123">
        <ele>305.8</ele>
        <time>2008-03-16T10:02:21Z</time>
      </trkpt>
      <trkpt lat="34.850897" lon="-2.880275">
        <ele>307.3</ele>
        <time>2008-03-16T10:02:24Z</time>
      </trkpt>
      <trkpt lat="34.850247" lon="-2.880304">
        <ele>309.2</ele>
        <time>2008-03-16T10:02:27Z</time>
      </trkpt>
      <trkpt lat="34.849608" lon="-2.880298">
        <ele>312.1</ele>
        <time>2008-03-16T10:02:30Z</time>
      </trkpt>
      <trkpt lat="34.848963" lon="-2.880258">
        <ele>315.0</ele>
        <time>2008-03-16T10:02:33Z</time>
      </trkpt>
      <trkpt lat="34.848327" lon="-2.880149">
        <ele>319.3</ele>
        <time>2008-03-16T10:02:36Z</time>
      </trkpt>
      <trkpt lat="34.847719" lon="-2.879945">
        <ele>324.6</ele>
        <time>2008-03-16T10:02:39Z</time>
      </trkpt>
      <trkpt lat="34.847153" lon="-2.879630">
        <ele>329.4</ele>
        <time>2008-03-16T10:02:42Z</time>
      </trkpt>
      <trkpt lat="34.846614" lon="-2.879270">
        <ele>334.2</ele>
        <time>2008-03-16T10:02:45Z</time>
      </trkpt>
      <trkpt lat="34.846077" lon="-2.878924">
        <ele>338.5</ele>
        <time>2008-03-16T10:02:48Z</time>
      </trkpt>
      <trkpt lat="34.845530" lon="-2.878680">
        <ele>342.4</ele>
        <time>2008-03-16T10:02:51Z</time>
      </trkpt>
      <trkpt lat="34.844989" lon="-2.878516">
        <ele>345.7</ele>
        <time>2008-03-16T10:02:54Z</time>
      </trkpt>
      <trkpt lat="34.844463" lon="-2.878383">
        <ele>348.6</ele>
        <time>2008-03-16T10:02:57Z</time>
      </trkpt>
      <trkpt lat="34.843947" lon="-2.878253">
        <ele>351.0</ele>
        <time>2008-03-16T10:03:00Z</time>
      </trkpt>
      <trkpt lat="34.843453" lon="-2.878122">
        <ele>353.9</ele>
        <time>2008-03-16T10:03:03Z</time>
      </trkpt>
      <trkpt lat="34.842989" lon="-2.878006">
        <ele>355.8</ele>
        <time>2008-03-16T10:03:06Z</time>
      </trkpt>
      <trkpt lat="34.842448" lon="-2.877875">
        <ele>358.2</ele>
        <time>2008-03-16T10:03:10Z</time>
      </trkpt>
      <trkpt lat="34.842003" lon="-2.877789">
        <ele>359.7</ele>
        <time>2008-03-16T10:03:15Z</time>
      </trkpt>
      <trkpt lat="34.841594" lon="-2.877642">
        <ele>356.3</ele>
        <time>2008-03-16T10:13:42Z</time>
      </trkpt>
      <trkpt lat="34.841053" lon="-2.877531">
        <ele>357.7</ele>
        <time>2008-03-16T10:13:49Z</time>
      </trkpt>
      <trkpt lat="34.840517" lon="-2.877439">
        <ele>361.1</ele>
        <time>2008-03-16T10:13:54Z</time>
      </trkpt>
      <trkpt lat="34.839958" lon="-2.877377">
        <ele>363.5</ele>
        <time>2008-03-16T10:13:59Z</time>
      </trkpt>
      <trkpt lat="34.839511" lon="-2.877340">
        <ele>364.0</ele>
        <time>2008-03-16T10:14:03Z</time>
      </trkpt>
      <trkpt lat="34.839072" lon="-2.877304">
        <ele>364.5</ele>
        <time>2008-03-16T10:14:08Z</time>
      </trkpt>
      <trkpt lat="34.838571" lon="-2.877276">
        <ele>365.4</ele>
        <time>2008-03-16T10:14:15Z</time>
      </trkpt>
      <trkpt lat="34.838049" lon="-2.877305">
        <ele>365.0</ele>
        <time>2008-03-16T10:14:20Z</time>
      </trkpt>
      <trkpt lat="34.837577" lon="-2.877372">
        <ele>365.0</ele>
        <time>2008-03-16T10:14:24Z</time>
      </trkpt>
      <trkpt lat="34.837051" lon="-2.877510">
        <ele>365.0</ele>
        <time>2008-03-16T10:14:28Z</time>
      </trkpt>
      <trkpt lat="34.836500" lon="-2.877736">
        <ele>364.0</ele>
        <time>2008-03-16T10:14:32Z</time>
      </trkpt>
      <trkpt lat="34.835930" lon="-2.877987">
        <ele>363.5</ele>
        <time>2008-03-16T10:14:36Z</time>
      </trkpt>
      <trkpt lat="34.835498" lon="-2.878201">
        <ele>363.0</ele>
        <time>2008-03-16T10:14:39Z</time>
      </trkpt>
      <trkpt lat="34.835077" lon="-2.878485">
        <ele>362.1</ele>
        <time>2008-03-16T10:14:42Z</time>
      </trkpt>
      <trkpt lat="34.834675" lon="-2.878831">
        <ele>363.0</ele>
        <time>2008-03-16T10:14:45Z</time>
      </trkpt>
      <trkpt lat="34.834204" lon="-2.879255">
        <ele>365.4</ele>
        <time>2008-03-16T10:14:49Z</time>
      </trkpt>
      <trkpt lat="34.833803" lon="-2.879595">
        <ele>366.4</ele>
        <time>2008-03-16T10:14:53Z</time>
      </trkpt>
      <trkpt lat="34.833421" lon="-2.879881">
        <ele>367.4</ele>
        <time>2008-03-16T10:14:59Z</time>
      </trkpt>
      <trkpt lat="34.833025" lon="-2.879501">
        <ele>370.7</ele>
        <time>2008-03-16T10:15:06Z</time>
      </trkpt>
      <trkpt lat="34.832677" lon="-2.879118">
        <ele>374.6</ele>
        <time>2008-03-16T10:15:10Z</time>
      </trkpt>
      <trkpt lat="34.832258" lon="-2.878745">
        <ele>377.9</ele>
        <time>2008-03-16T10:15:14Z</time>
      </trkpt>
      <trkpt lat="34.831789" lon="-2.878361">
        <ele>380.8</ele>
        <time>2008-03-16T10:15:18Z</time>
      </trkpt>
      <trkpt lat="34.831278" lon="-2.878051">
        <ele>382.3</ele>
        <time>2008-03-16T10:15:22Z</time>
      </trkpt>
      <trkpt lat="34.830687" lon="-2.877876">
        <ele>380.8</ele>
        <time>2008-03-16T10:15:26Z</time>
      </trkpt>
      <trkpt lat="34.830207" lon="-2.877752">
        <ele>378.4</ele>
        <time>2008-03-16T10:15:29Z</time>
      </trkpt>
      <trkpt lat="34.829707" lon="-2.877648">
        <ele>376.0</ele>
        <time>2008-03-16T10:15:32Z</time>
      </trkpt>
      <trkpt lat="34.829193" lon="-2.877707">
        <ele>374.1</ele>
        <time>2008-03-16T10:15:35Z</time>
      </trkpt>
      <trkpt lat="34.828676" lon="-2.877950">
        <ele>371.2</ele>
        <time>2008-03-16T10:15:38Z</time>
      </trkpt>
      <trkpt lat="34.828128" lon="-2.878215">
        <ele>369.3</ele>
        <time>2008-03-16T10:15:41Z</time>
      </trkpt>
      <trkpt lat="34.827651" lon="-2.878445">
        <ele>367.4</ele>
        <time>2008-03-16T10:15:44Z</time>
      </trkpt>
      <trkpt lat="34.827223" lon="-2.878649">
        <ele>366.4</ele>
        <time>2008-03-16T10:15:48Z</time>
      </trkpt>
      <trkpt lat="34.826740" lon="-2.878878">
        <ele>363.0</ele>
        <time>2008-03-16T10:15:53Z</time>
      </trkpt>
      <trkpt lat="34.826267" lon="-2.879103">
        <ele>359.7</ele>
        <time>2008-03-16T10:15:58Z</time>
      </trkpt>
      <trkpt lat="34.825769" lon="-2.879349">
        <ele>357.3</ele>
        <time>2008-03-16T10:16:03Z</time>
      </trkpt>
      <trkpt lat="34.825298" lon="-2.879581">
        <ele>356.3</ele>
        <time>2008-03-16T10:16:07Z</time>
      </trkpt>
      <trkpt lat="34.824781" lon="-2.879828">
        <ele>357.7</ele>
        <time>2008-03-16T10:16:11Z</time>
      </trkpt>
      <trkpt lat="34.824234" lon="-2.880093">
        <ele>359.2</ele>
        <time>2008-03-16T10:16:15Z</time>
      </trkpt>
      <trkpt lat="34.823799" lon="-2.880298">
        <ele>359.2</ele>
        <time>2008-03-16T10:16:18Z</time>
      </trkpt>
      <trkpt lat="34.823320" lon="-2.880527">
        <ele>359.2</ele>
        <time>2008-03-16T10:16:21Z</time>
      </trkpt>
      <trkpt lat="34.822815" lon="-2.880766">
        <ele>359.2</ele>
        <time>2008-03-16T10:16:24Z</time>
      </trkpt>
      <trkpt lat="34.822319" lon="-2.881002">
        <ele>359.2</ele>
        <time>2008-03-16T10:16:27Z</time>
      </trkpt>
      <trkpt lat="34.821862" lon="-2.881210">
        <ele>359.7</ele>
        <time>2008-03-16T10:16:30Z</time>
      </trkpt>
      <trkpt lat="34.821390" lon="-2.881344">
        <ele>359.7</ele>
        <time>2008-03-16T10:16:33Z</time>
      </trkpt>
      <trkpt lat="34.820892" lon="-2.881345">
        <ele>359.2</ele>
        <time>2008-03-16T10:16:36Z</time>
      </trkpt>
      <trkpt lat="34.820396" lon="-2.881211">
        <ele>358.7</ele>
        <time>2008-03-16T10:16:39Z</time>
      </trkpt>
      <trkpt lat="34.819915" lon="-2.881065">
        <ele>358.7</ele>
        <time>2008-03-16T10:16:42Z</time>
      </trkpt>
      <trkpt lat="34.819447" lon="-2.880917">
        <ele>359.2</ele>
        <time>2008-03-16T10:16:45Z</time>
      </trkpt>
      <trkpt lat="34.818969" lon="-2.880770">
        <ele>358.2</ele>
        <time>2008-03-16T10:16:48Z</time>
      </trkpt>
      <trkpt lat="34.818496" lon="-2.880622">
        <ele>356.8</ele>
        <time>2008-03-16T10:16:51Z</time>
      </trkpt>
      <trkpt lat="34.818058" lon="-2.880485">
        <ele>354.4</ele>
        <time>2008-03-16T10:16:54Z</time>
      </trkpt>
      <trkpt lat="34.817606" lon="-2.880117">
        <ele>351.0</ele>
        <time>2008-03-16T10:16:58Z</time>
      </trkpt>
      <trkpt lat="34.817235" lon="-2.879545">
        <ele>346.7</ele>
        <time>2008-03-16T10:17:02Z</time>
      </trkpt>
      <trkpt lat="34.816947" lon="-2.879100">
        <ele>343.8</ele>
        <time>2008-03-16T10:17:05Z</time>
      </trkpt>
      <trkpt lat="34.816645" lon="-2.878647">
        <ele>343.3</ele>
        <time>2008-03-16T10:17:08Z</time>
      </trkpt>
      <trkpt lat="34.816340" lon="-2.878221">
        <ele>345.3</ele>
        <time>2008-03-16T10:17:11Z</time>
      </trkpt>
      <trkpt lat="34.815836" lon="-2.877901">
        <ele>347.7</ele>
        <time>2008-03-16T10:17:15Z</time>
      </trkpt>
      <trkpt lat="34.815227" lon="-2.877746">
        <ele>347.2</ele>
        <time>2008-03-16T10:17:19Z</time>
      </trkpt>
      <trkpt lat="34.814743" lon="-2.877623">
        <ele>347.7</ele>
        <time>2008-03-16T10:17:22Z</time>
      </trkpt>
      <trkpt lat="34.814283" lon="-2.877531">
        <ele>348.6</ele>
        <time>2008-03-16T10:17:25Z</time>
      </trkpt>
      <trkpt lat="34.813714" lon="-2.877727">
        <ele>351.5</ele>
        <time>2008-03-16T10:17:29Z</time>
      </trkpt>
      <trkpt lat="34.813338" lon="-2.878037">
        <ele>352.9</ele>
        <time>2008-03-16T10:17:32Z</time>
      </trkpt>
      <trkpt lat="34.812801" lon="-2.878314">
        <ele>351.0</ele>
        <time>2008-03-16T10:17:36Z</time>
      </trkpt>
      <trkpt lat="34.812322" lon="-2.878337">
        <ele>347.7</ele>
        <time>2008-03-16T10:17:39Z</time>
      </trkpt>
      <trkpt lat="34.811811" lon="-2.878333">
        <ele>343.8</ele>
        <time>2008-03-16T10:17:42Z</time>
      </trkpt>
      <trkpt lat="34.811285" lon="-2.878333">
        <ele>340.0</ele>
        <time>2008-03-16T10:17:45Z</time>
      </trkpt>
      <trkpt lat="34.810739" lon="-2.878335">
        <ele>335.6</ele>
        <time>2008-03-16T10:17:48Z</time>
      </trkpt>
      <trkpt lat="34.810194" lon="-2.878341">
        <ele>332.3</ele>
        <time>2008-03-16T10:17:51Z</time>
      </trkpt>
      <trkpt lat="34.809684" lon="-2.878336">
        <ele>329.4</ele>
        <time>2008-03-16T10:17:54Z</time>
      </trkpt>
      <trkpt lat="34.809189" lon="-2.878157">
        <ele>326.5</ele>
        <time>2008-03-16T10:17:57Z</time>
      </trkpt>
      <trkpt lat="34.808683" lon="-2.877891">
        <ele>323.6</ele>
        <time>2008-03-16T10:18:00Z</time>
      </trkpt>
      <trkpt lat="34.808162" lon="-2.877622">
        <ele>320.7</ele>
        <time>2008-03-16T10:18:03Z</time>
      </trkpt>
      <trkpt lat="34.807630" lon="-2.877340">
        <ele>319.3</ele>
        <time>2008-03-16T10:18:06Z</time>
      </trkpt>
      <trkpt lat="34.807078" lon="-2.877049">
        <ele>318.3</ele>
        <time>2008-03-16T10:18:09Z</time>
      </trkpt>
      <trkpt lat="34.806538" lon="-2.876764">
        <ele>316.9</ele>
        <time>2008-03-16T10:18:12Z</time>
      </trkpt>
      <trkpt lat="34.806009" lon="-2.876485">
        <ele>315.4</ele>
        <time>2008-03-16T10:18:15Z</time>
      </trkpt>
      <trkpt lat="34.805482" lon="-2.876210">
        <ele>314.5</ele>
        <time>2008-03-16T10:18:18Z</time>
      </trkpt>
      <trkpt lat="34.804953" lon="-2.875929">
        <ele>312.6</ele>
        <time>2008-03-16T10:18:21Z</time>
      </trkpt>
      <trkpt lat="34.804425" lon="-2.875654">
        <ele>311.6</ele>
        <time>2008-03-16T10:18:24Z</time>
      </trkpt>
      <trkpt lat="34.803911" lon="-2.875375">
        <ele>310.6</ele>
        <time>2008-03-16T10:18:27Z</time>
      </trkpt>
      <trkpt lat="34.803423" lon="-2.875016">
        <ele>309.7</ele>
        <time>2008-03-16T10:18:30Z</time>
      </trkpt>
      <trkpt lat="34.802963" lon="-2.874578">
        <ele>308.7</ele>
        <time>2008-03-16T10:18:33Z</time>
      </trkpt>
      <trkpt lat="34.802499" lon="-2.874127">
        <ele>308.2</ele>
        <time>2008-03-16T10:18:36Z</time>
      </trkpt>
      <trkpt lat="34.802027" lon="-2.873670">
        <ele>306.8</ele>
        <time>2008-03-16T10:18:39Z</time>
      </trkpt>
      <trkpt lat="34.801564" lon="-2.873237">
        <ele>304.9</ele>
        <time>2008-03-16T10:18:42Z</time>
      </trkpt>
      <trkpt lat="34.801095" lon="-2.872793">
        <ele>301.5</ele>
        <time>2008-03-16T10:18:45Z</time>
      </trkpt>
      <trkpt lat="34.800614" lon="-2.872332">
        <ele>298.6</ele>
        <time>2008-03-16T10:18:48Z</time>
      </trkpt>
      <trkpt lat="34.800135" lon="-2.871874">
        <ele>297.2</ele>
        <time>2008-03-16T10:18:51Z</time>
      </trkpt>
      <trkpt lat="34.799665" lon="-2.871415">
        <ele>296.2</ele>
        <time>2008-03-16T10:18:54Z</time>
      </trkpt>
      <trkpt lat="34.799200" lon="-2.870955">
        <ele>295.7</ele>
        <time>2008-03-16T10:18:57Z</time>
      </trkpt>
      <trkpt lat="34.798726" lon="-2.870498">
        <ele>294.8</ele>
        <time>2008-03-16T10:19:00Z</time>
      </trkpt>
      <trkpt lat="34.798248" lon="-2.870036">
        <ele>293.3</ele>
        <time>2008-03-16T10:19:03Z</time>
      </trkpt>
      <trkpt lat="34.797766" lon="-2.869574">
        <ele>292.4</ele>
        <time>2008-03-16T10:19:06Z</time>
      </trkpt>
      <trkpt lat="34.797286" lon="-2.869115">
        <ele>291.9</ele>
        <time>2008-03-16T10:19:09Z</time>
      </trkpt>
      <trkpt lat="34.796794" lon="-2.868641">
        <ele>290.5</ele>
        <time>2008-03-16T10:19:12Z</time>
      </trkpt>
      <trkpt lat="34.796290" lon="-2.868147">
        <ele>290.0</ele>
        <time>2008-03-16T10:19:15Z</time>
      </trkpt>
      <trkpt lat="34.795778" lon="-2.867658">
        <ele>290.5</ele>
        <time>2008-03-16T10:19:18Z</time>
      </trkpt>
      <trkpt lat="34.795271" lon="-2.867179">
        <ele>290.9</ele>
        <time>2008-03-16T10:19:21Z</time>
      </trkpt>
      <trkpt lat="34.794751" lon="-2.866716">
        <ele>291.4</ele>
        <time>2008-03-16T10:19:24Z</time>
      </trkpt>
      <trkpt lat="34.794221" lon="-2.866267">
        <ele>290.9</ele>
        <time>2008-03-16T10:19:27Z</time>
      </trkpt>
      <trkpt lat="34.793683" lon="-2.865805">
        <ele>289.0</ele>
        <time>2008-03-16T10:19:30Z</time>
      </trkpt>
      <trkpt lat="34.793135" lon="-2.865337">
        <ele>287.6</ele>
        <time>2008-03-16T10:19:33Z</time>
      </trkpt>
      <trkpt lat="34.792586" lon="-2.864868">
        <ele>286.1</ele>
        <time>2008-03-16T10:19:36Z</time>
      </trkpt>
      <trkpt lat="34.792046" lon="-2.864410">
        <ele>284.2</ele>
        <time>2008-03-16T10:19:39Z</time>
      </trkpt>
      <trkpt lat="34.791510" lon="-2.863951">
        <ele>282.8</ele>
        <time>2008-03-16T10:19:42Z</time>
      </trkpt>
      <trkpt lat="34.790970" lon="-2.863489">
        <ele>281.3</ele>
        <time>2008-03-16T10:19:45Z</time>
      </trkpt>
      <trkpt lat="34.790424" lon="-2.863022">
        <ele>279.4</ele>
        <time>2008-03-16T10:19:48Z</time>
      </trkpt>
      <trkpt lat="34.789876" lon="-2.862552">
        <ele>277.5</ele>
        <time>2008-03-16T10:19:51Z</time>
      </trkpt>
      <trkpt lat="34.789325" lon="-2.862085">
        <ele>277.0</ele>
        <time>2008-03-16T10:19:54Z</time>
      </trkpt>
      <trkpt lat="34.788781" lon="-2.861622">
        <ele>276.5</ele>
        <time>2008-03-16T10:19:57Z</time>
      </trkpt>
      <trkpt lat="34.788244" lon="-2.861174">
        <ele>275.6</ele>
        <time>2008-03-16T10:20:00Z</time>
      </trkpt>
      <trkpt lat="34.787710" lon="-2.860717">
        <ele>275.1</ele>
        <time>2008-03-16T10:20:03Z</time>
      </trkpt>
      <trkpt lat="34.787176" lon="-2.860255">
        <ele>274.1</ele>
        <time>2008-03-16T10:20:06Z</time>
      </trkpt>
      <trkpt lat="34.786638" lon="-2.859800">
        <ele>273.6</ele>
        <time>2008-03-16T10:20:09Z</time>
      </trkpt>
      <trkpt lat="34.786110" lon="-2.859330">
        <ele>273.2</ele>
        <time>2008-03-16T10:20:12Z</time>
      </trkpt>
      <trkpt lat="34.785571" lon="-2.858879">
        <ele>273.2</ele>
        <time>2008-03-16T10:20:15Z</time>
      </trkpt>
      <trkpt lat="34.785028" lon="-2.858418">
        <ele>273.6</ele>
        <time>2008-03-16T10:20:18Z</time>
      </trkpt>
      <trkpt lat="34.784485" lon="-2.857961">
        <ele>275.1</ele>
        <time>2008-03-16T10:20:21Z</time>
      </trkpt>
      <trkpt lat="34.783947" lon="-2.857506">
        <ele>276.0</ele>
        <time>2008-03-16T10:20:24Z</time>
      </trkpt>
      <trkpt lat="34.783402" lon="-2.857039">
        <ele>276.5</ele>
        <time>2008-03-16T10:20:27Z</time>
      </trkpt>
      <trkpt lat="34.782850" lon="-2.856568">
        <ele>275.1</ele>
        <time>2008-03-16T10:20:30Z</time>
      </trkpt>
      <trkpt lat="34.782480" lon="-2.856255">
        <ele>274.6</ele>
        <time>2008-03-16T10:20:32Z</time>
      </trkpt>
      <trkpt lat="34.781936" lon="-2.855794">
        <ele>272.7</ele>
        <time>2008-03-16T10:20:35Z</time>
      </trkpt>
      <trkpt lat="34.781399" lon="-2.855342">
        <ele>271.2</ele>
        <time>2008-03-16T10:20:38Z</time>
      </trkpt>
      <trkpt lat="34.780861" lon="-2.854895">
        <ele>269.8</ele>
        <time>2008-03-16T10:20:41Z</time>
      </trkpt>
      <trkpt lat="34.780313" lon="-2.854432">
        <ele>267.9</ele>
        <time>2008-03-16T10:20:44Z</time>
      </trkpt>
      <trkpt lat="34.779763" lon="-2.853963">
        <ele>267.4</ele>
        <time>2008-03-16T10:20:47Z</time>
      </trkpt>
      <trkpt lat="34.779223" lon="-2.853501">
        <ele>267.4</ele>
        <time>2008-03-16T10:20:50Z</time>
      </trkpt>
      <trkpt lat="34.778698" lon="-2.853041">
        <ele>267.9</ele>
        <time>2008-03-16T10:20:53Z</time>
      </trkpt>
      <trkpt lat="34.778177" lon="-2.852588">
        <ele>268.3</ele>
        <time>2008-03-16T10:20:56Z</time>
      </trkpt>
      <trkpt lat="34.777664" lon="-2.852152">
        <ele>269.8</ele>
        <time>2008-03-16T10:20:59Z</time>
      </trkpt>
      <trkpt lat="34.777190" lon="-2.851749">
        <ele>270.7</ele>
        <time>2008-03-16T10:21:02Z</time>
      </trkpt>
      <trkpt lat="34.776800" lon="-2.851305">
        <ele>272.2</ele>
        <time>2008-03-16T10:21:05Z</time>
      </trkpt>
      <trkpt lat="34.776587" lon="-2.850706">
        <ele>272.7</ele>
        <time>2008-03-16T10:21:08Z</time>
      </trkpt>
      <trkpt lat="34.776433" lon="-2.850083">
        <ele>272.2</ele>
        <time>2008-03-16T10:21:11Z</time>
      </trkpt>
      <trkpt lat="34.776263" lon="-2.849453">
        <ele>271.7</ele>
        <time>2008-03-16T10:21:14Z</time>
      </trkpt>
      <trkpt lat="34.776071" lon="-2.848825">
        <ele>271.2</ele>
        <time>2008-03-16T10:21:17Z</time>
      </trkpt>
      <trkpt lat="34.775881" lon="-2.848200">
        <ele>270.7</ele>
        <time>2008-03-16T10:21:20Z</time>
      </trkpt>
      <trkpt lat="34.775690" lon="-2.847578">
        <ele>270.7</ele>
        <time>2008-03-16T10:21:23Z</time>
      </trkpt>
      <trkpt lat="34.775492" lon="-2.846946">
        <ele>270.7</ele>
        <time>2008-03-16T10:21:26Z</time>
      </trkpt>
      <trkpt lat="34.775286" lon="-2.846302">
        <ele>271.7</ele>
        <time>2008-03-16T10:21:29Z</time>
      </trkpt>
      <trkpt lat="34.775085" lon="-2.845649">
        <ele>273.2</ele>
        <time>2008-03-16T10:21:32Z</time>
      </trkpt>
      <trkpt lat="34.774887" lon="-2.845002">
        <ele>274.1</ele>
        <time>2008-03-16T10:21:35Z</time>
      </trkpt>
      <trkpt lat="34.774700" lon="-2.844389">
        <ele>275.1</ele>
        <time>2008-03-16T10:21:38Z</time>
      </trkpt>
      <trkpt lat="34.774518" lon="-2.843823">
        <ele>276.5</ele>
        <time>2008-03-16T10:21:41Z</time>
      </trkpt>
      <trkpt lat="34.774198" lon="-2.843322">
        <ele>278.0</ele>
        <time>2008-03-16T10:21:44Z</time>
      </trkpt>
      <trkpt lat="34.773823" lon="-2.842823">
        <ele>279.4</ele>
        <time>2008-03-16T10:21:47Z</time>
      </trkpt>
      <trkpt lat="34.773443" lon="-2.842307">
        <ele>279.9</ele>
        <time>2008-03-16T10:21:50Z</time>
      </trkpt>
      <trkpt lat="34.773059" lon="-2.841798">
        <ele>280.8</ele>
        <time>2008-03-16T10:21:53Z</time>
      </trkpt>
      <trkpt lat="34.772725" lon="-2.841266">
        <ele>282.3</ele>
        <time>2008-03-16T10:21:56Z</time>
      </trkpt>
      <trkpt lat="34.772561" lon="-2.840621">
        <ele>283.2</ele>
        <time>2008-03-16T10:21:59Z</time>
      </trkpt>
      <trkpt lat="34.772471" lon="-2.839927">
        <ele>285.2</ele>
        <time>2008-03-16T10:22:02Z</time>
      </trkpt>
      <trkpt lat="34.772378" lon="-2.839224">
        <ele>287.6</ele>
        <time>2008-03-16T10:22:05Z</time>
      </trkpt>
      <trkpt lat="34.772285" lon="-2.838542">
        <ele>289.0</ele>
        <time>2008-03-16T10:22:08Z</time>
      </trkpt>
      <trkpt lat="34.772196" lon="-2.837878">
        <ele>290.9</ele>
        <time>2008-03-16T10:22:11Z</time>
      </trkpt>
      <trkpt lat="34.772097" lon="-2.837292">
        <ele>292.9</ele>
        <time>2008-03-16T10:22:14Z</time>
      </trkpt>
      <trkpt lat="34.771847" lon="-2.836808">
        <ele>293.8</ele>
        <time>2008-03-16T10:22:17Z</time>
      </trkpt>
      <trkpt lat="34.771430" lon="-2.836459">
        <ele>296.2</ele>
        <time>2008-03-16T10:22:20Z</time>
      </trkpt>
      <trkpt lat="34.770943" lon="-2.836180">
        <ele>298.6</ele>
        <time>2008-03-16T10:22:23Z</time>
      </trkpt>
      <trkpt lat="34.770472" lon="-2.835920">
        <ele>300.5</ele>
        <time>2008-03-16T10:22:26Z</time>
      </trkpt>
      <trkpt lat="34.770034" lon="-2.835738">
        <ele>301.5</ele>
        <time>2008-03-16T10:22:29Z</time>
      </trkpt>
      <trkpt lat="34.769566" lon="-2.835808">
        <ele>301.5</ele>
        <time>2008-03-16T10:22:32Z</time>
      </trkpt>
      <trkpt lat="34.769046" lon="-2.835989">
        <ele>299.6</ele>
        <time>2008-03-16T10:22:35Z</time>
      </trkpt>
      <trkpt lat="34.768480" lon="-2.836206">
        <ele>296.2</ele>
        <time>2008-03-16T10:22:38Z</time>
      </trkpt>
      <trkpt lat="34.767897" lon="-2.836434">
        <ele>291.9</ele>
        <time>2008-03-16T10:22:41Z</time>
      </trkpt>
      <trkpt lat="34.767307" lon="-2.836659">
        <ele>287.1</ele>
        <time>2008-03-16T10:22:44Z</time>
      </trkpt>
      <trkpt lat="34.766717" lon="-2.836890">
        <ele>283.2</ele>
        <time>2008-03-16T10:22:47Z</time>
      </trkpt>
      <trkpt lat="34.766159" lon="-2.837109">
        <ele>281.3</ele>
        <time>2008-03-16T10:22:50Z</time>
      </trkpt>
      <trkpt lat="34.765677" lon="-2.837297">
        <ele>280.4</ele>
        <time>2008-03-16T10:22:53Z</time>
      </trkpt>
      <trkpt lat="34.765094" lon="-2.837345">
        <ele>276.5</ele>
        <time>2008-03-16T10:22:57Z</time>
      </trkpt>
      <trkpt lat="34.764611" lon="-2.837136">
        <ele>273.6</ele>
        <time>2008-03-16T10:23:00Z</time>
      </trkpt>
      <trkpt lat="34.764097" lon="-2.836905">
        <ele>271.7</ele>
        <time>2008-03-16T10:23:03Z</time>
      </trkpt>
      <trkpt lat="34.763590" lon="-2.836687">
        <ele>269.3</ele>
        <time>2008-03-16T10:23:06Z</time>
      </trkpt>
      <trkpt lat="34.763142" lon="-2.836423">
        <ele>267.4</ele>
        <time>2008-03-16T10:23:09Z</time>
      </trkpt>
      <trkpt lat="34.762782" lon="-2.835982">
        <ele>265.9</ele>
        <time>2008-03-16T10:23:12Z</time>
      </trkpt>
      <trkpt lat="34.762430" lon="-2.835488">
        <ele>263.1</ele>
        <time>2008-03-16T10:23:15Z</time>
      </trkpt>
      <trkpt lat="34.762052" lon="-2.834969">
        <ele>259.7</ele>
        <time>2008-03-16T10:23:18Z</time>
      </trkpt>
      <trkpt lat="34.761656" lon="-2.834428">
        <ele>256.3</ele>
        <time>2008-03-16T10:23:21Z</time>
      </trkpt>
      <trkpt lat="34.761258" lon="-2.833891">
        <ele>254.4</ele>
        <time>2008-03-16T10:23:24Z</time>
      </trkpt>
      <trkpt lat="34.760858" lon="-2.833365">
        <ele>253.4</ele>
        <time>2008-03-16T10:23:27Z</time>
      </trkpt>
      <trkpt lat="34.760451" lon="-2.832833">
        <ele>253.0</ele>
        <time>2008-03-16T10:23:30Z</time>
      </trkpt>
      <trkpt lat="34.760044" lon="-2.832285">
        <ele>252.0</ele>
        <time>2008-03-16T10:23:33Z</time>
      </trkpt>
      <trkpt lat="34.759633" lon="-2.831725">
        <ele>250.6</ele>
        <time>2008-03-16T10:23:36Z</time>
      </trkpt>
      <trkpt lat="34.759219" lon="-2.831176">
        <ele>250.6</ele>
        <time>2008-03-16T10:23:39Z</time>
      </trkpt>
      <trkpt lat="34.758808" lon="-2.830655">
        <ele>251.5</ele>
        <time>2008-03-16T10:23:42Z</time>
      </trkpt>
      <trkpt lat="34.758421" lon="-2.830144">
        <ele>251.5</ele>
        <time>2008-03-16T10:23:45Z</time>
      </trkpt>
      <trkpt lat="34.758068" lon="-2.829636">
        <ele>250.6</ele>
        <time>2008-03-16T10:23:48Z</time>
      </trkpt>
      <trkpt lat="34.757746" lon="-2.829125">
        <ele>247.7</ele>
        <time>2008-03-16T10:23:51Z</time>
      </trkpt>
      <trkpt lat="34.757428" lon="-2.828594">
        <ele>244.3</ele>
        <time>2008-03-16T10:23:54Z</time>
      </trkpt>
      <trkpt lat="34.757097" lon="-2.828049">
        <ele>240.9</ele>
        <time>2008-03-16T10:23:57Z</time>
      </trkpt>
      <trkpt lat="34.756759" lon="-2.827493">
        <ele>238.5</ele>
        <time>2008-03-16T10:24:00Z</time>
      </trkpt>
      <trkpt lat="34.756417" lon="-2.826929">
        <ele>238.1</ele>
        <time>2008-03-16T10:24:03Z</time>
      </trkpt>
      <trkpt lat="34.756063" lon="-2.826357">
        <ele>236.6</ele>
        <time>2008-03-16T10:24:06Z</time>
      </trkpt>
      <trkpt lat="34.755699" lon="-2.825773">
        <ele>234.7</ele>
        <time>2008-03-16T10:24:09Z</time>
      </trkpt>
      <trkpt lat="34.755327" lon="-2.825168">
        <ele>231.8</ele>
        <time>2008-03-16T10:24:12Z</time>
      </trkpt>
      <trkpt lat="34.754945" lon="-2.824549">
        <ele>230.4</ele>
        <time>2008-03-16T10:24:15Z</time>
      </trkpt>
      <trkpt lat="34.754564" lon="-2.823933">
        <ele>229.4</ele>
        <time>2008-03-16T10:24:18Z</time>
      </trkpt>
      <trkpt lat="34.754188" lon="-2.823322">
        <ele>228.0</ele>
        <time>2008-03-16T10:24:21Z</time>
      </trkpt>
      <trkpt lat="34.753821" lon="-2.822722">
        <ele>226.5</ele>
        <time>2008-03-16T10:24:24Z</time>
      </trkpt>
      <trkpt lat="34.753453" lon="-2.822118">
        <ele>224.6</ele>
        <time>2008-03-16T10:24:27Z</time>
      </trkpt>
      <trkpt lat="34.753076" lon="-2.821507">
        <ele>223.2</ele>
        <time>2008-03-16T10:24:30Z</time>
      </trkpt>
      <trkpt lat="34.752704" lon="-2.820888">
        <ele>222.2</ele>
        <time>2008-03-16T10:24:33Z</time>
      </trkpt>
      <trkpt lat="34.752326" lon="-2.820275">
        <ele>221.7</ele>
        <time>2008-03-16T10:24:36Z</time>
      </trkpt>
      <trkpt lat="34.751951" lon="-2.819655">
        <ele>220.8</ele>
        <time>2008-03-16T10:24:39Z</time>
      </trkpt>
      <trkpt lat="34.751582" lon="-2.819057">
        <ele>220.8</ele>
        <time>2008-03-16T10:24:42Z</time>
      </trkpt>
      <trkpt lat="34.751228" lon="-2.818483">
        <ele>221.2</ele>
        <time>2008-03-16T10:24:45Z</time>
      </trkpt>
      <trkpt lat="34.750878" lon="-2.817908">
        <ele>221.2</ele>
        <time>2008-03-16T10:24:48Z</time>
      </trkpt>
      <trkpt lat="34.750526" lon="-2.817333">
        <ele>223.6</ele>
        <time>2008-03-16T10:24:51Z</time>
      </trkpt>
      <trkpt lat="34.750176" lon="-2.816772">
        <ele>226.5</ele>
        <time>2008-03-16T10:24:54Z</time>
      </trkpt>
      <trkpt lat="34.749829" lon="-2.816209">
        <ele>228.0</ele>
        <time>2008-03-16T10:24:57Z</time>
      </trkpt>
      <trkpt lat="34.749476" lon="-2.815626">
        <ele>228.5</ele>
        <time>2008-03-16T10:25:00Z</time>
      </trkpt>
      <trkpt lat="34.749120" lon="-2.815060">
        <ele>229.9</ele>
        <time>2008-03-16T10:25:03Z</time>
      </trkpt>
      <trkpt lat="34.748723" lon="-2.814570">
        <ele>231.8</ele>
        <time>2008-03-16T10:25:06Z</time>
      </trkpt>
      <trkpt lat="34.748253" lon="-2.814192">
        <ele>234.2</ele>
        <time>2008-03-16T10:25:09Z</time>
      </trkpt>
      <trkpt lat="34.747766" lon="-2.813826">
        <ele>236.1</ele>
        <time>2008-03-16T10:25:12Z</time>
      </trkpt>
      <trkpt lat="34.747262" lon="-2.813455">
        <ele>237.6</ele>
        <time>2008-03-16T10:25:15Z</time>
      </trkpt>
      <trkpt lat="34.746756" lon="-2.813095">
        <ele>240.9</ele>
        <time>2008-03-16T10:25:18Z</time>
      </trkpt>
      <trkpt lat="34.746287" lon="-2.812682">
        <ele>245.8</ele>
        <time>2008-03-16T10:25:21Z</time>
      </trkpt>
      <trkpt lat="34.745895" lon="-2.812187">
        <ele>250.6</ele>
        <time>2008-03-16T10:25:24Z</time>
      </trkpt>
      <trkpt lat="34.745564" lon="-2.811729">
        <ele>254.9</ele>
        <time>2008-03-16T10:25:27Z</time>
      </trkpt>
      <trkpt lat="34.745185" lon="-2.811376">
        <ele>258.3</ele>
        <time>2008-03-16T10:25:30Z</time>
      </trkpt>
      <trkpt lat="34.744762" lon="-2.811214">
        <ele>259.7</ele>
        <time>2008-03-16T10:25:33Z</time>
      </trkpt>
      <trkpt lat="34.744155" lon="-2.811235">
        <ele>257.8</ele>
        <time>2008-03-16T10:25:37Z</time>
      </trkpt>
      <trkpt lat="34.743677" lon="-2.811240">
        <ele>254.4</ele>
        <time>2008-03-16T10:25:40Z</time>
      </trkpt>
      <trkpt lat="34.743197" lon="-2.811079">
        <ele>252.5</ele>
        <time>2008-03-16T10:25:43Z</time>
      </trkpt>
      <trkpt lat="34.742742" lon="-2.810807">
        <ele>252.0</ele>
        <time>2008-03-16T10:25:46Z</time>
      </trkpt>
      <trkpt lat="34.742307" lon="-2.810548">
        <ele>250.6</ele>
        <time>2008-03-16T10:25:49Z</time>
      </trkpt>
      <trkpt lat="34.741793" lon="-2.810303">
        <ele>249.1</ele>
        <time>2008-03-16T10:25:53Z</time>
      </trkpt>
      <trkpt lat="34.741348" lon="-2.810347">
        <ele>246.2</ele>
        <time>2008-03-16T10:25:57Z</time>
      </trkpt>
      <trkpt lat="34.741086" lon="-2.810903">
        <ele>241.9</ele>
        <time>2008-03-16T10:26:02Z</time>
      </trkpt>
      <trkpt lat="34.740900" lon="-2.811425">
        <ele>238.5</ele>
        <time>2008-03-16T10:26:06Z</time>
      </trkpt>
      <trkpt lat="34.740490" lon="-2.811640">
        <ele>237.6</ele>
        <time>2008-03-16T10:26:10Z</time>
      </trkpt>
      <trkpt lat="34.739934" lon="-2.811638">
        <ele>236.6</ele>
        <time>2008-03-16T10:26:15Z</time>
      </trkpt>
      <trkpt lat="34.739430" lon="-2.811801">
        <ele>232.8</ele>
        <time>2008-03-16T10:26:20Z</time>
      </trkpt>
      <trkpt lat="34.739124" lon="-2.811445">
        <ele>229.9</ele>
        <time>2008-03-16T10:26:25Z</time>
      </trkpt>
      <trkpt lat="34.739505" lon="-2.811022">
        <ele>227.5</ele>
        <time>2008-03-16T10:26:30Z</time>
      </trkpt>
      <trkpt lat="34.739963" lon="-2.810897">
        <ele>225.1</ele>
        <time>2008-03-16T10:26:34Z</time>
      </trkpt>
      <trkpt lat="34.740457" lon="-2.810927">
        <ele>222.7</ele>
        <time>2008-03-16T10:26:39Z</time>
      </trkpt>
      <trkpt lat="34.740429" lon="-2.810292">
        <ele>220.3</ele>
        <time>2008-03-16T10:26:45Z</time>
      </trkpt>
      <trkpt lat="34.740089" lon="-2.809901">
        <ele>219.3</ele>
        <time>2008-03-16T10:26:49Z</time>
      </trkpt>
      <trkpt lat="34.739617" lon="-2.809838">
        <ele>216.4</ele>
        <time>2008-03-16T10:26:53Z</time>
      </trkpt>
      <trkpt lat="34.739115" lon="-2.810042">
        <ele>211.6</ele>
        <time>2008-03-16T10:26:57Z</time>
      </trkpt>
      <trkpt lat="34.738593" lon="-2.810257">
        <ele>207.3</ele>
        <time>2008-03-16T10:27:01Z</time>
      </trkpt>
      <trkpt lat="34.738033" lon="-2.810340">
        <ele>202.5</ele>
        <time>2008-03-16T10:27:05Z</time>
      </trkpt>
      <trkpt lat="34.737469" lon="-2.810408">
        <ele>199.1</ele>
        <time>2008-03-16T10:27:09Z</time>
      </trkpt>
      <trkpt lat="34.736959" lon="-2.810353">
        <ele>196.7</ele>
        <time>2008-03-16T10:27:13Z</time>
      </trkpt>
      <trkpt lat="34.736478" lon="-2.809999">
        <ele>193.4</ele>
        <time>2008-03-16T10:27:18Z</time>
      </trkpt>
      <trkpt lat="34.736164" lon="-2.809592">
        <ele>191.0</ele>
        <time>2008-03-16T10:27:22Z</time>
      </trkpt>
      <trkpt lat="34.735764" lon="-2.809326">
        <ele>188.6</ele>
        <time>2008-03-16T10:27:26Z</time>
      </trkpt>
      <trkpt lat="34.735305" lon="-2.809091">
        <ele>185.7</ele>
        <time>2008-03-16T10:27:31Z</time>
      </trkpt>
      <trkpt lat="34.735280" lon="-2.808566">
        <ele>183.7</ele>
        <time>2008-03-16T10:27:36Z</time>
      </trkpt>
      <trkpt lat="34.735562" lon="-2.808054">
        <ele>181.8</ele>
        <time>2008-03-16T10:27:41Z</time>
      </trkpt>
      <trkpt lat="34.735655" lon="-2.807502">
        <ele>180.4</ele>
        <time>2008-03-16T10:27:46Z</time>
      </trkpt>
      <trkpt lat="34.735694" lon="-2.806971">
        <ele>178.0</ele>
        <time>2008-03-16T10:27:51Z</time>
      </trkpt>
      <trkpt lat="34.736091" lon="-2.806704">
        <ele>177.5</ele>
        <time>2008-03-16T10:27:56Z</time>
      </trkpt>
      <trkpt lat="34.736580" lon="-2.806875">
        <ele>177.5</ele>
        <time>2008-03-16T10:28:01Z</time>
      </trkpt>
      <trkpt lat="34.737474" lon="-2.806846">
        <ele>178.0</ele>
        <time>2008-03-16T10:28:12Z</time>
      </trkpt>
      <trkpt lat="34.737216" lon="-2.806464">
        <ele>177.0</ele>
        <time>2008-03-16T10:28:19Z</time>
      </trkpt>
      <trkpt lat="34.736952" lon="-2.805965">
        <ele>176.5</ele>
        <time>2008-03-16T10:28:26Z</time>
      </trkpt>
      <trkpt lat="34.736823" lon="-2.805417">
        <ele>177.0</ele>
        <time>2008-03-16T10:28:37Z</time>
      </trkpt>
      <trkpt lat="34.736534" lon="-2.804943">
        <ele>174.6</ele>
        <time>2008-03-16T10:28:49Z</time>
      </trkpt>
      <trkpt lat="34.736309" lon="-2.804433">
        <ele>174.6</ele>
        <time>2008-03-16T10:28:56Z</time>
      </trkpt>
      <trkpt lat="34.736127" lon="-2.803895">
        <ele>173.7</ele>
        <time>2008-03-16T10:29:05Z</time>
      </trkpt>
      <trkpt lat="34.735945" lon="-2.803397">
        <ele>172.2</ele>
        <time>2008-03-16T10:29:18Z</time>
      </trkpt>
      <trkpt lat="34.735522" lon="-2.803054">
        <ele>176.1</ele>
        <time>2008-03-16T10:29:30Z</time>
      </trkpt>
      <trkpt lat="34.735249" lon="-2.802626">
        <ele>181.8</ele>
        <time>2008-03-16T10:29:36Z</time>
      </trkpt>
      <trkpt lat="34.735012" lon="-2.802156">
        <ele>187.1</ele>
        <time>2008-03-16T10:29:44Z</time>
      </trkpt>
      <trkpt lat="34.734543" lon="-2.802118">
        <ele>192.9</ele>
        <time>2008-03-16T10:29:54Z</time>
      </trkpt>
      <trkpt lat="34.734048" lon="-2.802089">
        <ele>194.8</ele>
        <time>2008-03-16T10:30:02Z</time>
      </trkpt>
      <trkpt lat="34.733674" lon="-2.801700">
        <ele>199.6</ele>
        <time>2008-03-16T10:30:09Z</time>
      </trkpt>
      <trkpt lat="34.733504" lon="-2.801147">
        <ele>204.4</ele>
        <time>2008-03-16T10:30:15Z</time>
      </trkpt>
      <trkpt lat="34.733479" lon="-2.800527">
        <ele>210.2</ele>
        <time>2008-03-16T10:30:21Z</time>
      </trkpt>
      <trkpt lat="34.733343" lon="-2.800007">
        <ele>214.5</ele>
        <time>2008-03-16T10:30:27Z</time>
      </trkpt>
      <trkpt lat="34.733100" lon="-2.799520">
        <ele>216.4</ele>
        <time>2008-03-16T10:30:36Z</time>
      </trkpt>
      <trkpt lat="34.732696" lon="-2.799228">
        <ele>218.4</ele>
        <time>2008-03-16T10:30:45Z</time>
      </trkpt>
      <trkpt lat="34.732185" lon="-2.799091">
        <ele>220.8</ele>
        <time>2008-03-16T10:30:52Z</time>
      </trkpt>
      <trkpt lat="34.731695" lon="-2.798839">
        <ele>222.2</ele>
        <time>2008-03-16T10:30:58Z</time>
      </trkpt>
      <trkpt lat="34.731248" lon="-2.798573">
        <ele>221.2</ele>
        <time>2008-03-16T10:31:04Z</time>
      </trkpt>
      <trkpt lat="34.730788" lon="-2.798290">
        <ele>221.2</ele>
        <time>2008-03-16T10:31:10Z</time>
      </trkpt>
      <trkpt lat="34.730382" lon="-2.798045">
        <ele>222.2</ele>
        <time>2008-03-16T10:31:16Z</time>
      </trkpt>
      <trkpt lat="34.729947" lon="-2.797634">
        <ele>223.6</ele>
        <time>2008-03-16T10:31:22Z</time>
      </trkpt>
      <trkpt lat="34.729655" lon="-2.797158">
        <ele>225.6</ele>
        <time>2008-03-16T10:31:27Z</time>
      </trkpt>
      <trkpt lat="34.729486" lon="-2.796603">
        <ele>226.0</ele>
        <time>2008-03-16T10:31:32Z</time>
      </trkpt>
      <trkpt lat="34.729446" lon="-2.796037">
        <ele>227.0</ele>
        <time>2008-03-16T10:31:37Z</time>
      </trkpt>
      <trkpt lat="34.729465" lon="-2.795438">
        <ele>228.9</ele>
        <time>2008-03-16T10:31:44Z</time>
      </trkpt>
      <trkpt lat="34.729418" lon="-2.794835">
        <ele>229.4</ele>
        <time>2008-03-16T10:31:50Z</time>
      </trkpt>
      <trkpt lat="34.729133" lon="-2.794362">
        <ele>229.4</ele>
        <time>2008-03-16T10:31:55Z</time>
      </trkpt>
      <trkpt lat="34.728660" lon="-2.794140">
        <ele>228.9</ele>
        <time>2008-03-16T10:32:00Z</time>
      </trkpt>
      <trkpt lat="34.728105" lon="-2.794150">
        <ele>226.0</ele>
        <time>2008-03-16T10:32:05Z</time>
      </trkpt>
      <trkpt lat="34.727614" lon="-2.794168">
        <ele>223.6</ele>
        <time>2008-03-16T10:32:09Z</time>
      </trkpt>
      <trkpt lat="34.727108" lon="-2.794197">
        <ele>220.3</ele>
        <time>2008-03-16T10:32:13Z</time>
      </trkpt>
      <trkpt lat="34.726599" lon="-2.794353">
        <ele>216.9</ele>
        <time>2008-03-16T10:32:17Z</time>
      </trkpt>
      <trkpt lat="34.726098" lon="-2.794668">
        <ele>213.1</ele>
        <time>2008-03-16T10:32:21Z</time>
      </trkpt>
      <trkpt lat="34.725685" lon="-2.794913">
        <ele>210.2</ele>
        <time>2008-03-16T10:32:24Z</time>
      </trkpt>
      <trkpt lat="34.725227" lon="-2.795101">
        <ele>206.8</ele>
        <time>2008-03-16T10:32:27Z</time>
      </trkpt>
      <trkpt lat="34.724745" lon="-2.795246">
        <ele>205.4</ele>
        <time>2008-03-16T10:32:30Z</time>
      </trkpt>
      <trkpt lat="34.724278" lon="-2.795392">
        <ele>206.8</ele>
        <time>2008-03-16T10:32:33Z</time>
      </trkpt>
      <trkpt lat="34.723828" lon="-2.795533">
        <ele>209.2</ele>
        <time>2008-03-16T10:32:36Z</time>
      </trkpt>
      <trkpt lat="34.723374" lon="-2.795673">
        <ele>212.6</ele>
        <time>2008-03-16T10:32:39Z</time>
      </trkpt>
      <trkpt lat="34.722914" lon="-2.795751">
        <ele>215.0</ele>
        <time>2008-03-16T10:32:42Z</time>
      </trkpt>
      <trkpt lat="34.722446" lon="-2.795683">
        <ele>217.4</ele>
        <time>2008-03-16T10:32:45Z</time>
      </trkpt>
      <trkpt lat="34.722014" lon="-2.795457">
        <ele>220.3</ele>
        <time>2008-03-16T10:32:48Z</time>
      </trkpt>
      <trkpt lat="34.721618" lon="-2.795136">
        <ele>223.2</ele>
        <time>2008-03-16T10:32:51Z</time>
      </trkpt>
      <trkpt lat="34.721238" lon="-2.794797">
        <ele>226.5</ele>
        <time>2008-03-16T10:32:54Z</time>
      </trkpt>
      <trkpt lat="34.720848" lon="-2.794475">
        <ele>228.5</ele>
        <time>2008-03-16T10:32:57Z</time>
      </trkpt>
      <trkpt lat="34.720428" lon="-2.794188">
        <ele>228.5</ele>
        <time>2008-03-16T10:33:00Z</time>
      </trkpt>
      <trkpt lat="34.719971" lon="-2.793917">
        <ele>228.0</ele>
        <time>2008-03-16T10:33:03Z</time>
      </trkpt>
      <trkpt lat="34.719496" lon="-2.793622">
        <ele>228.5</ele>
        <time>2008-03-16T10:33:06Z</time>
      </trkpt>
      <trkpt lat="34.719033" lon="-2.793290">
        <ele>231.3</ele>
        <time>2008-03-16T10:33:09Z</time>
      </trkpt>
      <trkpt lat="34.718583" lon="-2.792937">
        <ele>233.7</ele>
        <time>2008-03-16T10:33:12Z</time>
      </trkpt>
      <trkpt lat="34.718123" lon="-2.792579">
        <ele>235.2</ele>
        <time>2008-03-16T10:33:15Z</time>
      </trkpt>
      <trkpt lat="34.717652" lon="-2.792201">
        <ele>237.1</ele>
        <time>2008-03-16T10:33:18Z</time>
      </trkpt>
      <trkpt lat="34.717205" lon="-2.791752">
        <ele>238.1</ele>
        <time>2008-03-16T10:33:21Z</time>
      </trkpt>
      <trkpt lat="34.716829" lon="-2.791199">
        <ele>239.0</ele>
        <time>2008-03-16T10:33:24Z</time>
      </trkpt>
      <trkpt lat="34.716502" lon="-2.790596">
        <ele>240.5</ele>
        <time>2008-03-16T10:33:27Z</time>
      </trkpt>
      <trkpt lat="34.716188" lon="-2.789994">
        <ele>242.4</ele>
        <time>2008-03-16T10:33:30Z</time>
      </trkpt>
      <trkpt lat="34.715881" lon="-2.789407">
        <ele>245.3</ele>
        <time>2008-03-16T10:33:33Z</time>
      </trkpt>
      <trkpt lat="34.715579" lon="-2.788832">
        <ele>248.2</ele>
        <time>2008-03-16T10:33:36Z</time>
      </trkpt>
      <trkpt lat="34.715279" lon="-2.788251">
        <ele>248.6</ele>
        <time>2008-03-16T10:33:39Z</time>
      </trkpt>
      <trkpt lat="34.714970" lon="-2.787658">
        <ele>247.2</ele>
        <time>2008-03-16T10:33:42Z</time>
      </trkpt>
      <trkpt lat="34.714655" lon="-2.787054">
        <ele>245.3</ele>
        <time>2008-03-16T10:33:45Z</time>
      </trkpt>
      <trkpt lat="34.714345" lon="-2.786449">
        <ele>245.3</ele>
        <time>2008-03-16T10:33:48Z</time>
      </trkpt>
      <trkpt lat="34.714043" lon="-2.785835">
        <ele>245.8</ele>
        <time>2008-03-16T10:33:51Z</time>
      </trkpt>
      <trkpt lat="34.713785" lon="-2.785188">
        <ele>247.7</ele>
        <time>2008-03-16T10:33:54Z</time>
      </trkpt>
      <trkpt lat="34.713551" lon="-2.784521">
        <ele>248.6</ele>
        <time>2008-03-16T10:33:57Z</time>
      </trkpt>
      <trkpt lat="34.713317" lon="-2.783852">
        <ele>251.0</ele>
        <time>2008-03-16T10:34:00Z</time>
      </trkpt>
      <trkpt lat="34.713087" lon="-2.783198">
        <ele>254.4</ele>
        <time>2008-03-16T10:34:03Z</time>
      </trkpt>
      <trkpt lat="34.712859" lon="-2.782563">
        <ele>257.8</ele>
        <time>2008-03-16T10:34:06Z</time>
      </trkpt>
      <trkpt lat="34.712619" lon="-2.781951">
        <ele>260.7</ele>
        <time>2008-03-16T10:34:09Z</time>
      </trkpt>
      <trkpt lat="34.712289" lon="-2.781411">
        <ele>263.1</ele>
        <time>2008-03-16T10:34:12Z</time>
      </trkpt>
      <trkpt lat="34.711861" lon="-2.780973">
        <ele>264.5</ele>
        <time>2008-03-16T10:34:15Z</time>
      </trkpt>
      <trkpt lat="34.711373" lon="-2.780628">
        <ele>265.9</ele>
        <time>2008-03-16T10:34:18Z</time>
      </trkpt>
      <trkpt lat="34.710843" lon="-2.780349">
        <ele>266.9</ele>
        <time>2008-03-16T10:34:21Z</time>
      </trkpt>
      <trkpt lat="34.710318" lon="-2.780078">
        <ele>267.9</ele>
        <time>2008-03-16T10:34:24Z</time>
      </trkpt>
      <trkpt lat="34.709797" lon="-2.779806">
        <ele>267.9</ele>
        <time>2008-03-16T10:34:27Z</time>
      </trkpt>
      <trkpt lat="34.709279" lon="-2.779534">
        <ele>269.3</ele>
        <time>2008-03-16T10:34:30Z</time>
      </trkpt>
      <trkpt lat="34.708759" lon="-2.779274">
        <ele>269.8</ele>
        <time>2008-03-16T10:34:33Z</time>
      </trkpt>
      <trkpt lat="34.708221" lon="-2.779067">
        <ele>271.7</ele>
        <time>2008-03-16T10:34:36Z</time>
      </trkpt>
      <trkpt lat="34.707666" lon="-2.778929">
        <ele>273.2</ele>
        <time>2008-03-16T10:34:39Z</time>
      </trkpt>
      <trkpt lat="34.707100" lon="-2.778814">
        <ele>274.1</ele>
        <time>2008-03-16T10:34:42Z</time>
      </trkpt>
      <trkpt lat="34.706540" lon="-2.778698">
        <ele>276.0</ele>
        <time>2008-03-16T10:34:45Z</time>
      </trkpt>
      <trkpt lat="34.705994" lon="-2.778594">
        <ele>278.9</ele>
        <time>2008-03-16T10:34:48Z</time>
      </trkpt>
      <trkpt lat="34.705456" lon="-2.778524">
        <ele>282.3</ele>
        <time>2008-03-16T10:34:51Z</time>
      </trkpt>
      <trkpt lat="34.704923" lon="-2.778442">
        <ele>283.2</ele>
        <time>2008-03-16T10:34:54Z</time>
      </trkpt>
      <trkpt lat="34.704419" lon="-2.778205">
        <ele>284.2</ele>
        <time>2008-03-16T10:34:57Z</time>
      </trkpt>
      <trkpt lat="34.703954" lon="-2.777874">
        <ele>285.6</ele>
        <time>2008-03-16T10:35:00Z</time>
      </trkpt>
      <trkpt lat="34.703491" lon="-2.777540">
        <ele>286.1</ele>
        <time>2008-03-16T10:35:03Z</time>
      </trkpt>
      <trkpt lat="34.703037" lon="-2.777172">
        <ele>287.1</ele>
        <time>2008-03-16T10:35:06Z</time>
      </trkpt>
      <trkpt lat="34.702630" lon="-2.776737">
        <ele>289.5</ele>
        <time>2008-03-16T10:35:09Z</time>
      </trkpt>
      <trkpt lat="34.702246" lon="-2.776294">
        <ele>292.4</ele>
        <time>2008-03-16T10:35:12Z</time>
      </trkpt>
      <trkpt lat="34.701820" lon="-2.775923">
        <ele>295.7</ele>
        <time>2008-03-16T10:35:15Z</time>
      </trkpt>
      <trkpt lat="34.701347" lon="-2.775668">
        <ele>299.1</ele>
        <time>2008-03-16T10:35:18Z</time>
      </trkpt>
      <trkpt lat="34.700837" lon="-2.775506">
        <ele>301.0</ele>
        <time>2008-03-16T10:35:21Z</time>
      </trkpt>
      <trkpt lat="34.700297" lon="-2.775353">
        <ele>301.5</ele>
        <time>2008-03-16T10:35:24Z</time>
      </trkpt>
      <trkpt lat="34.699734" lon="-2.775199">
        <ele>303.4</ele>
        <time>2008-03-16T10:35:27Z</time>
      </trkpt>
      <trkpt lat="34.699170" lon="-2.775040">
        <ele>306.8</ele>
        <time>2008-03-16T10:35:30Z</time>
      </trkpt>
      <trkpt lat="34.698608" lon="-2.774879">
        <ele>310.6</ele>
        <time>2008-03-16T10:35:33Z</time>
      </trkpt>
      <trkpt lat="34.698047" lon="-2.774711">
        <ele>315.0</ele>
        <time>2008-03-16T10:35:36Z</time>
      </trkpt>
      <trkpt lat="34.697502" lon="-2.774475">
        <ele>319.3</ele>
        <time>2008-03-16T10:35:39Z</time>
      </trkpt>
      <trkpt lat="34.696980" lon="-2.774192">
        <ele>323.6</ele>
        <time>2008-03-16T10:35:42Z</time>
      </trkpt>
      <trkpt lat="34.696449" lon="-2.773922">
        <ele>327.0</ele>
        <time>2008-03-16T10:35:45Z</time>
      </trkpt>
      <trkpt lat="34.695897" lon="-2.773710">
        <ele>330.4</ele>
        <time>2008-03-16T10:35:48Z</time>
      </trkpt>
      <trkpt lat="34.695358" lon="-2.773520">
        <ele>333.7</ele>
        <time>2008-03-16T10:35:51Z</time>
      </trkpt>
      <trkpt lat="34.694832" lon="-2.773338">
        <ele>336.6</ele>
        <time>2008-03-16T10:35:54Z</time>
      </trkpt>
      <trkpt lat="34.694312" lon="-2.773118">
        <ele>337.6</ele>
        <time>2008-03-16T10:35:57Z</time>
      </trkpt>
      <trkpt lat="34.693826" lon="-2.772783">
        <ele>338.5</ele>
        <time>2008-03-16T10:36:00Z</time>
      </trkpt>
      <trkpt lat="34.693421" lon="-2.772325">
        <ele>340.9</ele>
        <time>2008-03-16T10:36:03Z</time>
      </trkpt>
      <trkpt lat="34.693065" lon="-2.771808">
        <ele>342.8</ele>
        <time>2008-03-16T10:36:06Z</time>
      </trkpt>
      <trkpt lat="34.692716" lon="-2.771264">
        <ele>344.8</ele>
        <time>2008-03-16T10:36:09Z</time>
      </trkpt>
      <trkpt lat="34.692352" lon="-2.770697">
        <ele>346.2</ele>
        <time>2008-03-16T10:36:12Z</time>
      </trkpt>
      <trkpt lat="34.691980" lon="-2.770117">
        <ele>347.7</ele>
        <time>2008-03-16T10:36:15Z</time>
      </trkpt>
      <trkpt lat="34.691614" lon="-2.769551">
        <ele>348.6</ele>
        <time>2008-03-16T10:36:18Z</time>
      </trkpt>
      <trkpt lat="34.691263" lon="-2.768977">
        <ele>348.6</ele>
        <time>2008-03-16T10:36:21Z</time>
      </trkpt>
      <trkpt lat="34.690912" lon="-2.768379">
        <ele>346.7</ele>
        <time>2008-03-16T10:36:24Z</time>
      </trkpt>
      <trkpt lat="34.690557" lon="-2.767778">
        <ele>344.8</ele>
        <time>2008-03-16T10:36:27Z</time>
      </trkpt>
      <trkpt lat="34.690196" lon="-2.767167">
        <ele>343.3</ele>
        <time>2008-03-16T10:36:30Z</time>
      </trkpt>
      <trkpt lat="34.689825" lon="-2.766539">
        <ele>340.0</ele>
        <time>2008-03-16T10:36:33Z</time>
      </trkpt>
      <trkpt lat="34.689446" lon="-2.765893">
        <ele>336.6</ele>
        <time>2008-03-16T10:36:36Z</time>
      </trkpt>
      <trkpt lat="34.689061" lon="-2.765228">
        <ele>333.2</ele>
        <time>2008-03-16T10:36:39Z</time>
      </trkpt>
      <trkpt lat="34.688675" lon="-2.764565">
        <ele>330.4</ele>
        <time>2008-03-16T10:36:42Z</time>
      </trkpt>
      <trkpt lat="34.688283" lon="-2.763904">
        <ele>328.4</ele>
        <time>2008-03-16T10:36:45Z</time>
      </trkpt>
      <trkpt lat="34.687896" lon="-2.763256">
        <ele>327.9</ele>
        <time>2008-03-16T10:36:48Z</time>
      </trkpt>
      <trkpt lat="34.687523" lon="-2.762625">
        <ele>327.9</ele>
        <time>2008-03-16T10:36:51Z</time>
      </trkpt>
      <trkpt lat="34.687167" lon="-2.762004">
        <ele>327.5</ele>
        <time>2008-03-16T10:36:54Z</time>
      </trkpt>
      <trkpt lat="34.686827" lon="-2.761375">
        <ele>324.6</ele>
        <time>2008-03-16T10:36:57Z</time>
      </trkpt>
      <trkpt lat="34.686489" lon="-2.760727">
        <ele>320.7</ele>
        <time>2008-03-16T10:37:00Z</time>
      </trkpt>
      <trkpt lat="34.686150" lon="-2.760084">
        <ele>320.7</ele>
        <time>2008-03-16T10:37:03Z</time>
      </trkpt>
      <trkpt lat="34.685843" lon="-2.759439">
        <ele>324.1</ele>
        <time>2008-03-16T10:37:06Z</time>
      </trkpt>
      <trkpt lat="34.685633" lon="-2.758759">
        <ele>327.0</ele>
        <time>2008-03-16T10:37:09Z</time>
      </trkpt>
      <trkpt lat="34.685532" lon="-2.758063">
        <ele>330.4</ele>
        <time>2008-03-16T10:37:12Z</time>
      </trkpt>
      <trkpt lat="34.685440" lon="-2.757397">
        <ele>332.3</ele>
        <time>2008-03-16T10:37:15Z</time>
      </trkpt>
      <trkpt lat="34.685259" lon="-2.756793">
        <ele>332.3</ele>
        <time>2008-03-16T10:37:18Z</time>
      </trkpt>
      <trkpt lat="34.684966" lon="-2.756253">
        <ele>331.8</ele>
        <time>2008-03-16T10:37:21Z</time>
      </trkpt>
      <trkpt lat="34.684576" lon="-2.755805">
        <ele>332.3</ele>
        <time>2008-03-16T10:37:24Z</time>
      </trkpt>
      <trkpt lat="34.684125" lon="-2.755433">
        <ele>332.8</ele>
        <time>2008-03-16T10:37:27Z</time>
      </trkpt>
      <trkpt lat="34.683646" lon="-2.755085">
        <ele>333.2</ele>
        <time>2008-03-16T10:37:30Z</time>
      </trkpt>
      <trkpt lat="34.683167" lon="-2.754733">
        <ele>336.1</ele>
        <time>2008-03-16T10:37:33Z</time>
      </trkpt>
      <trkpt lat="34.682704" lon="-2.754378">
        <ele>339.5</ele>
        <time>2008-03-16T10:37:36Z</time>
      </trkpt>
      <trkpt lat="34.682253" lon="-2.754038">
        <ele>343.8</ele>
        <time>2008-03-16T10:37:39Z</time>
      </trkpt>
      <trkpt lat="34.681810" lon="-2.753708">
        <ele>346.7</ele>
        <time>2008-03-16T10:37:42Z</time>
      </trkpt>
      <trkpt lat="34.681372" lon="-2.753380">
        <ele>347.7</ele>
        <time>2008-03-16T10:37:45Z</time>
      </trkpt>
      <trkpt lat="34.680943" lon="-2.753078">
        <ele>349.6</ele>
        <time>2008-03-16T10:37:48Z</time>
      </trkpt>
      <trkpt lat="34.680499" lon="-2.752820">
        <ele>351.5</ele>
        <time>2008-03-16T10:37:51Z</time>
      </trkpt>
      <trkpt lat="34.680034" lon="-2.752669">
        <ele>353.4</ele>
        <time>2008-03-16T10:37:54Z</time>
      </trkpt>
      <trkpt lat="34.679560" lon="-2.752566">
        <ele>355.3</ele>
        <time>2008-03-16T10:37:57Z</time>
      </trkpt>
      <trkpt lat="34.679113" lon="-2.752390">
        <ele>357.3</ele>
        <time>2008-03-16T10:38:00Z</time>
      </trkpt>
      <trkpt lat="34.678725" lon="-2.752222">
        <ele>358.7</ele>
        <time>2008-03-16T10:38:05Z</time>
      </trkpt>
      <trkpt lat="34.676019" lon="-2.750233">
        <ele>384.7</ele>
        <time>2008-03-16T10:46:27Z</time>
      </trkpt>
      <trkpt lat="34.675505" lon="-2.749979">
        <ele>364.5</ele>
        <time>2008-03-16T10:46:32Z</time>
      </trkpt>
      <trkpt lat="34.675070" lon="-2.749718">
        <ele>371.7</ele>
        <time>2008-03-16T10:46:36Z</time>
      </trkpt>
      <trkpt lat="34.674602" lon="-2.749441">
        <ele>372.2</ele>
        <time>2008-03-16T10:46:40Z</time>
      </trkpt>
      <trkpt lat="34.674126" lon="-2.749093">
        <ele>371.7</ele>
        <time>2008-03-16T10:46:44Z</time>
      </trkpt>
      <trkpt lat="34.673693" lon="-2.748700">
        <ele>369.8</ele>
        <time>2008-03-16T10:46:48Z</time>
      </trkpt>
      <trkpt lat="34.673307" lon="-2.748207">
        <ele>365.9</ele>
        <time>2008-03-16T10:46:52Z</time>
      </trkpt>
      <trkpt lat="34.672931" lon="-2.747632">
        <ele>362.6</ele>
        <time>2008-03-16T10:46:56Z</time>
      </trkpt>
      <trkpt lat="34.672651" lon="-2.747190">
        <ele>359.2</ele>
        <time>2008-03-16T10:46:59Z</time>
      </trkpt>
      <trkpt lat="34.672368" lon="-2.746745">
        <ele>356.8</ele>
        <time>2008-03-16T10:47:02Z</time>
      </trkpt>
      <trkpt lat="34.672073" lon="-2.746323">
        <ele>354.4</ele>
        <time>2008-03-16T10:47:05Z</time>
      </trkpt>
      <trkpt lat="34.671731" lon="-2.745964">
        <ele>352.0</ele>
        <time>2008-03-16T10:47:08Z</time>
      </trkpt>
      <trkpt lat="34.671206" lon="-2.745619">
        <ele>349.6</ele>
        <time>2008-03-16T10:47:12Z</time>
      </trkpt>
      <trkpt lat="34.670638" lon="-2.745416">
        <ele>346.7</ele>
        <time>2008-03-16T10:47:16Z</time>
      </trkpt>
      <trkpt lat="34.670069" lon="-2.745257">
        <ele>344.3</ele>
        <time>2008-03-16T10:47:20Z</time>
      </trkpt>
      <trkpt lat="34.669517" lon="-2.745194">
        <ele>342.8</ele>
        <time>2008-03-16T10:47:24Z</time>
      </trkpt>
      <trkpt lat="34.668995" lon="-2.745400">
        <ele>341.4</ele>
        <time>2008-03-16T10:47:28Z</time>
      </trkpt>
      <trkpt lat="34.668514" lon="-2.745823">
        <ele>338.5</ele>
        <time>2008-03-16T10:47:32Z</time>
      </trkpt>
      <trkpt lat="34.668051" lon="-2.746285">
        <ele>336.6</ele>
        <time>2008-03-16T10:47:36Z</time>
      </trkpt>
      <trkpt lat="34.667680" lon="-2.746620">
        <ele>335.6</ele>
        <time>2008-03-16T10:47:39Z</time>
      </trkpt>
      <trkpt lat="34.667259" lon="-2.746875">
        <ele>335.6</ele>
        <time>2008-03-16T10:47:42Z</time>
      </trkpt>
      <trkpt lat="34.666808" lon="-2.747025">
        <ele>335.6</ele>
        <time>2008-03-16T10:47:45Z</time>
      </trkpt>
      <trkpt lat="34.666348" lon="-2.747052">
        <ele>337.1</ele>
        <time>2008-03-16T10:47:48Z</time>
      </trkpt>
      <trkpt lat="34.665894" lon="-2.746989">
        <ele>338.0</ele>
        <time>2008-03-16T10:47:51Z</time>
      </trkpt>
      <trkpt lat="34.665445" lon="-2.746899">
        <ele>339.5</ele>
        <time>2008-03-16T10:47:54Z</time>
      </trkpt>
      <trkpt lat="34.664988" lon="-2.746812">
        <ele>340.4</ele>
        <time>2008-03-16T10:47:57Z</time>
      </trkpt>
      <trkpt lat="34.664519" lon="-2.746716">
        <ele>340.4</ele>
        <time>2008-03-16T10:48:00Z</time>
      </trkpt>
      <trkpt lat="34.664040" lon="-2.746617">
        <ele>339.5</ele>
        <time>2008-03-16T10:48:03Z</time>
      </trkpt>
      <trkpt lat="34.663563" lon="-2.746523">
        <ele>338.5</ele>
        <time>2008-03-16T10:48:06Z</time>
      </trkpt>
      <trkpt lat="34.663070" lon="-2.746433">
        <ele>337.6</ele>
        <time>2008-03-16T10:48:09Z</time>
      </trkpt>
      <trkpt lat="34.662562" lon="-2.746333">
        <ele>337.6</ele>
        <time>2008-03-16T10:48:12Z</time>
      </trkpt>
      <trkpt lat="34.662040" lon="-2.746230">
        <ele>337.6</ele>
        <time>2008-03-16T10:48:15Z</time>
      </trkpt>
      <trkpt lat="34.661515" lon="-2.746125">
        <ele>337.6</ele>
        <time>2008-03-16T10:48:18Z</time>
      </trkpt>
      <trkpt lat="34.660981" lon="-2.746023">
        <ele>338.5</ele>
        <time>2008-03-16T10:48:21Z</time>
      </trkpt>
      <trkpt lat="34.660447" lon="-2.745918">
        <ele>340.0</ele>
        <time>2008-03-16T10:48:24Z</time>
      </trkpt>
      <trkpt lat="34.659914" lon="-2.745810">
        <ele>341.9</ele>
        <time>2008-03-16T10:48:27Z</time>
      </trkpt>
      <trkpt lat="34.659384" lon="-2.745703">
        <ele>344.3</ele>
        <time>2008-03-16T10:48:30Z</time>
      </trkpt>
      <trkpt lat="34.658855" lon="-2.745601">
        <ele>346.7</ele>
        <time>2008-03-16T10:48:33Z</time>
      </trkpt>
      <trkpt lat="34.658326" lon="-2.745500">
        <ele>348.6</ele>
        <time>2008-03-16T10:48:36Z</time>
      </trkpt>
      <trkpt lat="34.657808" lon="-2.745437">
        <ele>349.6</ele>
        <time>2008-03-16T10:48:39Z</time>
      </trkpt>
      <trkpt lat="34.657294" lon="-2.745478">
        <ele>350.1</ele>
        <time>2008-03-16T10:48:42Z</time>
      </trkpt>
      <trkpt lat="34.656794" lon="-2.745634">
        <ele>349.6</ele>
        <time>2008-03-16T10:48:45Z</time>
      </trkpt>
      <trkpt lat="34.656314" lon="-2.745805">
        <ele>348.6</ele>
        <time>2008-03-16T10:48:48Z</time>
      </trkpt>
      <trkpt lat="34.655800" lon="-2.745896">
        <ele>347.2</ele>
        <time>2008-03-16T10:48:51Z</time>
      </trkpt>
      <trkpt lat="34.655254" lon="-2.745937">
        <ele>343.8</ele>
        <time>2008-03-16T10:48:54Z</time>
      </trkpt>
      <trkpt lat="34.654695" lon="-2.745955">
        <ele>340.4</ele>
        <time>2008-03-16T10:48:57Z</time>
      </trkpt>
      <trkpt lat="34.654137" lon="-2.745964">
        <ele>337.6</ele>
        <time>2008-03-16T10:49:00Z</time>
      </trkpt>
      <trkpt lat="34.653573" lon="-2.745922">
        <ele>334.7</ele>
        <time>2008-03-16T10:49:03Z</time>
      </trkpt>
      <trkpt lat="34.653010" lon="-2.745807">
        <ele>332.3</ele>
        <time>2008-03-16T10:49:06Z</time>
      </trkpt>
      <trkpt lat="34.652444" lon="-2.745615">
        <ele>330.4</ele>
        <time>2008-03-16T10:49:09Z</time>
      </trkpt>
      <trkpt lat="34.651898" lon="-2.745373">
        <ele>328.9</ele>
        <time>2008-03-16T10:49:12Z</time>
      </trkpt>
      <trkpt lat="34.651358" lon="-2.745117">
        <ele>328.9</ele>
        <time>2008-03-16T10:49:15Z</time>
      </trkpt>
      <trkpt lat="34.650812" lon="-2.744860">
        <ele>328.9</ele>
        <time>2008-03-16T10:49:18Z</time>
      </trkpt>
      <trkpt lat="34.650268" lon="-2.744595">
        <ele>330.4</ele>
        <time>2008-03-16T10:49:21Z</time>
      </trkpt>
      <trkpt lat="34.649724" lon="-2.744330">
        <ele>332.3</ele>
        <time>2008-03-16T10:49:24Z</time>
      </trkpt>
      <trkpt lat="34.649180" lon="-2.744067">
        <ele>333.7</ele>
        <time>2008-03-16T10:49:27Z</time>
      </trkpt>
      <trkpt lat="34.648627" lon="-2.743800">
        <ele>334.2</ele>
        <time>2008-03-16T10:49:30Z</time>
      </trkpt>
      <trkpt lat="34.648075" lon="-2.743532">
        <ele>334.7</ele>
        <time>2008-03-16T10:49:33Z</time>
      </trkpt>
      <trkpt lat="34.647548" lon="-2.743272">
        <ele>333.7</ele>
        <time>2008-03-16T10:49:36Z</time>
      </trkpt>
      <trkpt lat="34.647022" lon="-2.743015">
        <ele>334.7</ele>
        <time>2008-03-16T10:49:39Z</time>
      </trkpt>
      <trkpt lat="34.646486" lon="-2.742758">
        <ele>337.1</ele>
        <time>2008-03-16T10:49:42Z</time>
      </trkpt>
      <trkpt lat="34.645935" lon="-2.742492">
        <ele>340.0</ele>
        <time>2008-03-16T10:49:45Z</time>
      </trkpt>
      <trkpt lat="34.645385" lon="-2.742227">
        <ele>342.4</ele>
        <time>2008-03-16T10:49:48Z</time>
      </trkpt>
      <trkpt lat="34.644831" lon="-2.741957">
        <ele>344.3</ele>
        <time>2008-03-16T10:49:51Z</time>
      </trkpt>
      <trkpt lat="34.644271" lon="-2.741684">
        <ele>345.7</ele>
        <time>2008-03-16T10:49:54Z</time>
      </trkpt>
      <trkpt lat="34.643703" lon="-2.741409">
        <ele>347.7</ele>
        <time>2008-03-16T10:49:57Z</time>
      </trkpt>
      <trkpt lat="34.643134" lon="-2.741132">
        <ele>349.6</ele>
        <time>2008-03-16T10:50:00Z</time>
      </trkpt>
      <trkpt lat="34.642564" lon="-2.740873">
        <ele>351.5</ele>
        <time>2008-03-16T10:50:03Z</time>
      </trkpt>
      <trkpt lat="34.641979" lon="-2.740659">
        <ele>353.4</ele>
        <time>2008-03-16T10:50:06Z</time>
      </trkpt>
      <trkpt lat="34.641383" lon="-2.740485">
        <ele>356.3</ele>
        <time>2008-03-16T10:50:09Z</time>
      </trkpt>
      <trkpt lat="34.640783" lon="-2.740334">
        <ele>359.7</ele>
        <time>2008-03-16T10:50:12Z</time>
      </trkpt>
      <trkpt lat="34.640202" lon="-2.740186">
        <ele>362.1</ele>
        <time>2008-03-16T10:50:15Z</time>
      </trkpt>
      <trkpt lat="34.639652" lon="-2.740038">
        <ele>365.9</ele>
        <time>2008-03-16T10:50:18Z</time>
      </trkpt>
      <trkpt lat="34.639102" lon="-2.739975">
        <ele>368.8</ele>
        <time>2008-03-16T10:50:21Z</time>
      </trkpt>
      <trkpt lat="34.638552" lon="-2.740060">
        <ele>371.2</ele>
        <time>2008-03-16T10:50:24Z</time>
      </trkpt>
      <trkpt lat="34.638025" lon="-2.740269">
        <ele>374.1</ele>
        <time>2008-03-16T10:50:27Z</time>
      </trkpt>
      <trkpt lat="34.637551" lon="-2.740599">
        <ele>375.1</ele>
        <time>2008-03-16T10:50:30Z</time>
      </trkpt>
      <trkpt lat="34.637098" lon="-2.740956">
        <ele>375.5</ele>
        <time>2008-03-16T10:50:33Z</time>
      </trkpt>
      <trkpt lat="34.636629" lon="-2.741277">
        <ele>375.5</ele>
        <time>2008-03-16T10:50:36Z</time>
      </trkpt>
      <trkpt lat="34.636139" lon="-2.741508">
        <ele>375.1</ele>
        <time>2008-03-16T10:50:39Z</time>
      </trkpt>
      <trkpt lat="34.635652" lon="-2.741602">
        <ele>374.1</ele>
        <time>2008-03-16T10:50:42Z</time>
      </trkpt>
      <trkpt lat="34.635151" lon="-2.741584">
        <ele>372.6</ele>
        <time>2008-03-16T10:50:45Z</time>
      </trkpt>
      <trkpt lat="34.634650" lon="-2.741492">
        <ele>371.7</ele>
        <time>2008-03-16T10:50:48Z</time>
      </trkpt>
      <trkpt lat="34.634192" lon="-2.741390">
        <ele>370.2</ele>
        <time>2008-03-16T10:50:51Z</time>
      </trkpt>
      <trkpt lat="34.633740" lon="-2.741305">
        <ele>368.3</ele>
        <time>2008-03-16T10:50:54Z</time>
      </trkpt>
      <trkpt lat="34.633248" lon="-2.741209">
        <ele>365.9</ele>
        <time>2008-03-16T10:50:57Z</time>
      </trkpt>
      <trkpt lat="34.632718" lon="-2.741101">
        <ele>364.5</ele>
        <time>2008-03-16T10:51:00Z</time>
      </trkpt>
      <trkpt lat="34.632140" lon="-2.740989">
        <ele>362.6</ele>
        <time>2008-03-16T10:51:03Z</time>
      </trkpt>
      <trkpt lat="34.631526" lon="-2.740869">
        <ele>361.1</ele>
        <time>2008-03-16T10:51:06Z</time>
      </trkpt>
      <trkpt lat="34.630897" lon="-2.740731">
        <ele>359.7</ele>
        <time>2008-03-16T10:51:09Z</time>
      </trkpt>
      <trkpt lat="34.630254" lon="-2.740596">
        <ele>357.7</ele>
        <time>2008-03-16T10:51:12Z</time>
      </trkpt>
      <trkpt lat="34.629600" lon="-2.740466">
        <ele>356.8</ele>
        <time>2008-03-16T10:51:15Z</time>
      </trkpt>
      <trkpt lat="34.628939" lon="-2.740332">
        <ele>357.3</ele>
        <time>2008-03-16T10:51:18Z</time>
      </trkpt>
      <trkpt lat="34.628488" lon="-2.740244">
        <ele>356.8</ele>
        <time>2008-03-16T10:51:20Z</time>
      </trkpt>
      <trkpt lat="34.628036" lon="-2.740157">
        <ele>356.8</ele>
        <time>2008-03-16T10:51:22Z</time>
      </trkpt>
      <trkpt lat="34.627581" lon="-2.740067">
        <ele>356.8</ele>
        <time>2008-03-16T10:51:24Z</time>
      </trkpt>
      <trkpt lat="34.627129" lon="-2.739972">
        <ele>356.3</ele>
        <time>2008-03-16T10:51:26Z</time>
      </trkpt>
      <trkpt lat="34.626682" lon="-2.739881">
        <ele>356.3</ele>
        <time>2008-03-16T10:51:28Z</time>
      </trkpt>
      <trkpt lat="34.626017" lon="-2.739747">
        <ele>355.8</ele>
        <time>2008-03-16T10:51:31Z</time>
      </trkpt>
      <trkpt lat="34.625572" lon="-2.739652">
        <ele>355.8</ele>
        <time>2008-03-16T10:51:33Z</time>
      </trkpt>
      <trkpt lat="34.625124" lon="-2.739557">
        <ele>355.3</ele>
        <time>2008-03-16T10:51:35Z</time>
      </trkpt>
      <trkpt lat="34.624670" lon="-2.739466">
        <ele>354.9</ele>
        <time>2008-03-16T10:51:37Z</time>
      </trkpt>
      <trkpt lat="34.624213" lon="-2.739371">
        <ele>354.4</ele>
        <time>2008-03-16T10:51:39Z</time>
      </trkpt>
      <trkpt lat="34.623753" lon="-2.739280">
        <ele>353.9</ele>
        <time>2008-03-16T10:51:41Z</time>
      </trkpt>
      <trkpt lat="34.623289" lon="-2.739190">
        <ele>353.4</ele>
        <time>2008-03-16T10:51:43Z</time>
      </trkpt>
      <trkpt lat="34.622823" lon="-2.739099">
        <ele>353.9</ele>
        <time>2008-03-16T10:51:45Z</time>
      </trkpt>
      <trkpt lat="34.622356" lon="-2.739006">
        <ele>354.9</ele>
        <time>2008-03-16T10:51:47Z</time>
      </trkpt>
      <trkpt lat="34.621889" lon="-2.738913">
        <ele>354.9</ele>
        <time>2008-03-16T10:51:49Z</time>
      </trkpt>
      <trkpt lat="34.621420" lon="-2.738822">
        <ele>354.9</ele>
        <time>2008-03-16T10:51:51Z</time>
      </trkpt>
      <trkpt lat="34.620947" lon="-2.738729">
        <ele>354.4</ele>
        <time>2008-03-16T10:51:53Z</time>
      </trkpt>
      <trkpt lat="34.620476" lon="-2.738630">
        <ele>353.9</ele>
        <time>2008-03-16T10:51:55Z</time>
      </trkpt>
      <trkpt lat="34.620007" lon="-2.738532">
        <ele>353.9</ele>
        <time>2008-03-16T10:51:57Z</time>
      </trkpt>
      <trkpt lat="34.619540" lon="-2.738435">
        <ele>354.4</ele>
        <time>2008-03-16T10:51:59Z</time>
      </trkpt>
      <trkpt lat="34.619074" lon="-2.738339">
        <ele>354.4</ele>
        <time>2008-03-16T10:52:01Z</time>
      </trkpt>
      <trkpt lat="34.618607" lon="-2.738244">
        <ele>354.4</ele>
        <time>2008-03-16T10:52:03Z</time>
      </trkpt>
      <trkpt lat="34.618137" lon="-2.738151">
        <ele>354.9</ele>
        <time>2008-03-16T10:52:05Z</time>
      </trkpt>
      <trkpt lat="34.617667" lon="-2.738059">
        <ele>355.8</ele>
        <time>2008-03-16T10:52:07Z</time>
      </trkpt>
      <trkpt lat="34.617200" lon="-2.737964">
        <ele>356.8</ele>
        <time>2008-03-16T10:52:09Z</time>
      </trkpt>
      <trkpt lat="34.616736" lon="-2.737870">
        <ele>358.2</ele>
        <time>2008-03-16T10:52:11Z</time>
      </trkpt>
      <trkpt lat="34.616276" lon="-2.737776">
        <ele>359.2</ele>
        <time>2008-03-16T10:52:13Z</time>
      </trkpt>
      <trkpt lat="34.615817" lon="-2.737682">
        <ele>360.2</ele>
        <time>2008-03-16T10:52:15Z</time>
      </trkpt>
      <trkpt lat="34.615358" lon="-2.737588">
        <ele>360.6</ele>
        <time>2008-03-16T10:52:17Z</time>
      </trkpt>
      <trkpt lat="34.614895" lon="-2.737494">
        <ele>361.1</ele>
        <time>2008-03-16T10:52:19Z</time>
      </trkpt>
      <trkpt lat="34.614428" lon="-2.737400">
        <ele>361.1</ele>
        <time>2008-03-16T10:52:21Z</time>
      </trkpt>
      <trkpt lat="34.613960" lon="-2.737306">
        <ele>360.6</ele>
        <time>2008-03-16T10:52:23Z</time>
      </trkpt>
      <trkpt lat="34.613494" lon="-2.737211">
        <ele>360.6</ele>
        <time>2008-03-16T10:52:25Z</time>
      </trkpt>
      <trkpt lat="34.613030" lon="-2.737117">
        <ele>360.2</ele>
        <time>2008-03-16T10:52:27Z</time>
      </trkpt>
      <trkpt lat="34.612574" lon="-2.737023">
        <ele>360.2</ele>
        <time>2008-03-16T10:52:29Z</time>
      </trkpt>
      <trkpt lat="34.611922" lon="-2.736894">
        <ele>360.2</ele>
        <time>2008-03-16T10:52:32Z</time>
      </trkpt>
      <trkpt lat="34.611307" lon="-2.736784">
        <ele>360.2</ele>
        <time>2008-03-16T10:52:35Z</time>
      </trkpt>
      <trkpt lat="34.610718" lon="-2.736805">
        <ele>358.2</ele>
        <time>2008-03-16T10:52:38Z</time>
      </trkpt>
      <trkpt lat="34.610167" lon="-2.737001">
        <ele>355.8</ele>
        <time>2008-03-16T10:52:41Z</time>
      </trkpt>
      <trkpt lat="34.609674" lon="-2.737377">
        <ele>352.9</ele>
        <time>2008-03-16T10:52:44Z</time>
      </trkpt>
      <trkpt lat="34.609274" lon="-2.737856">
        <ele>352.5</ele>
        <time>2008-03-16T10:52:47Z</time>
      </trkpt>
      <trkpt lat="34.608975" lon="-2.738258">
        <ele>352.9</ele>
        <time>2008-03-16T10:52:50Z</time>
      </trkpt>
      <trkpt lat="34.608618" lon="-2.738689">
        <ele>355.3</ele>
        <time>2008-03-16T10:52:54Z</time>
      </trkpt>
      <trkpt lat="34.608144" lon="-2.739115">
        <ele>358.2</ele>
        <time>2008-03-16T10:52:58Z</time>
      </trkpt>
      <trkpt lat="34.607720" lon="-2.739397">
        <ele>359.7</ele>
        <time>2008-03-16T10:53:01Z</time>
      </trkpt>
      <trkpt lat="34.607261" lon="-2.739611">
        <ele>360.2</ele>
        <time>2008-03-16T10:53:04Z</time>
      </trkpt>
      <trkpt lat="34.606785" lon="-2.739743">
        <ele>360.2</ele>
        <time>2008-03-16T10:53:07Z</time>
      </trkpt>
      <trkpt lat="34.606272" lon="-2.739829">
        <ele>359.2</ele>
        <time>2008-03-16T10:53:10Z</time>
      </trkpt>
      <trkpt lat="34.605736" lon="-2.739917">
        <ele>358.2</ele>
        <time>2008-03-16T10:53:13Z</time>
      </trkpt>
      <trkpt lat="34.605172" lon="-2.740002">
        <ele>358.2</ele>
        <time>2008-03-16T10:53:16Z</time>
      </trkpt>
      <trkpt lat="34.604583" lon="-2.740090">
        <ele>358.7</ele>
        <time>2008-03-16T10:53:19Z</time>
      </trkpt>
      <trkpt lat="34.603982" lon="-2.740166">
        <ele>359.2</ele>
        <time>2008-03-16T10:53:22Z</time>
      </trkpt>
      <trkpt lat="34.603376" lon="-2.740203">
        <ele>360.2</ele>
        <time>2008-03-16T10:53:25Z</time>
      </trkpt>
      <trkpt lat="34.602756" lon="-2.740164">
        <ele>361.1</ele>
        <time>2008-03-16T10:53:28Z</time>
      </trkpt>
      <trkpt lat="34.602132" lon="-2.740042">
        <ele>362.1</ele>
        <time>2008-03-16T10:53:31Z</time>
      </trkpt>
      <trkpt lat="34.601510" lon="-2.739862">
        <ele>362.6</ele>
        <time>2008-03-16T10:53:34Z</time>
      </trkpt>
      <trkpt lat="34.600894" lon="-2.739640">
        <ele>363.5</ele>
        <time>2008-03-16T10:53:37Z</time>
      </trkpt>
      <trkpt lat="34.600283" lon="-2.739413">
        <ele>364.5</ele>
        <time>2008-03-16T10:53:40Z</time>
      </trkpt>
      <trkpt lat="34.599676" lon="-2.739185">
        <ele>365.4</ele>
        <time>2008-03-16T10:53:43Z</time>
      </trkpt>
      <trkpt lat="34.599070" lon="-2.738958">
        <ele>365.9</ele>
        <time>2008-03-16T10:53:46Z</time>
      </trkpt>
      <trkpt lat="34.598462" lon="-2.738727">
        <ele>366.4</ele>
        <time>2008-03-16T10:53:49Z</time>
      </trkpt>
      <trkpt lat="34.597847" lon="-2.738492">
        <ele>366.9</ele>
        <time>2008-03-16T10:53:52Z</time>
      </trkpt>
      <trkpt lat="34.597232" lon="-2.738257">
        <ele>367.8</ele>
        <time>2008-03-16T10:53:55Z</time>
      </trkpt>
      <trkpt lat="34.596626" lon="-2.738030">
        <ele>368.3</ele>
        <time>2008-03-16T10:53:58Z</time>
      </trkpt>
      <trkpt lat="34.596024" lon="-2.737797">
        <ele>368.8</ele>
        <time>2008-03-16T10:54:01Z</time>
      </trkpt>
      <trkpt lat="34.595416" lon="-2.737572">
        <ele>369.3</ele>
        <time>2008-03-16T10:54:04Z</time>
      </trkpt>
      <trkpt lat="34.594803" lon="-2.737339">
        <ele>370.7</ele>
        <time>2008-03-16T10:54:07Z</time>
      </trkpt>
      <trkpt lat="34.594187" lon="-2.737108">
        <ele>372.2</ele>
        <time>2008-03-16T10:54:10Z</time>
      </trkpt>
      <trkpt lat="34.593569" lon="-2.736872">
        <ele>373.6</ele>
        <time>2008-03-16T10:54:13Z</time>
      </trkpt>
      <trkpt lat="34.592949" lon="-2.736639">
        <ele>375.1</ele>
        <time>2008-03-16T10:54:16Z</time>
      </trkpt>
      <trkpt lat="34.592333" lon="-2.736411">
        <ele>376.5</ele>
        <time>2008-03-16T10:54:19Z</time>
      </trkpt>
      <trkpt lat="34.591730" lon="-2.736185">
        <ele>377.5</ele>
        <time>2008-03-16T10:54:22Z</time>
      </trkpt>
      <trkpt lat="34.591155" lon="-2.735964">
        <ele>378.4</ele>
        <time>2008-03-16T10:54:25Z</time>
      </trkpt>
      <trkpt lat="34.590617" lon="-2.735749">
        <ele>379.4</ele>
        <time>2008-03-16T10:54:28Z</time>
      </trkpt>
      <trkpt lat="34.590092" lon="-2.735549">
        <ele>379.4</ele>
        <time>2008-03-16T10:54:31Z</time>
      </trkpt>
      <trkpt lat="34.589569" lon="-2.735356">
        <ele>379.9</ele>
        <time>2008-03-16T10:54:34Z</time>
      </trkpt>
      <trkpt lat="34.589028" lon="-2.735173">
        <ele>380.3</ele>
        <time>2008-03-16T10:54:37Z</time>
      </trkpt>
      <trkpt lat="34.588461" lon="-2.734978">
        <ele>380.8</ele>
        <time>2008-03-16T10:54:40Z</time>
      </trkpt>
      <trkpt lat="34.587874" lon="-2.734764">
        <ele>381.3</ele>
        <time>2008-03-16T10:54:43Z</time>
      </trkpt>
      <trkpt lat="34.587269" lon="-2.734539">
        <ele>382.3</ele>
        <time>2008-03-16T10:54:46Z</time>
      </trkpt>
      <trkpt lat="34.586658" lon="-2.734304">
        <ele>383.7</ele>
        <time>2008-03-16T10:54:49Z</time>
      </trkpt>
      <trkpt lat="34.586044" lon="-2.734073">
        <ele>384.7</ele>
        <time>2008-03-16T10:54:52Z</time>
      </trkpt>
      <trkpt lat="34.585424" lon="-2.733840">
        <ele>385.6</ele>
        <time>2008-03-16T10:54:55Z</time>
      </trkpt>
      <trkpt lat="34.584803" lon="-2.733608">
        <ele>386.6</ele>
        <time>2008-03-16T10:54:58Z</time>
      </trkpt>
      <trkpt lat="34.584178" lon="-2.733370">
        <ele>387.5</ele>
        <time>2008-03-16T10:55:01Z</time>
      </trkpt>
      <trkpt lat="34.583547" lon="-2.733128">
        <ele>388.5</ele>
        <time>2008-03-16T10:55:04Z</time>
      </trkpt>
      <trkpt lat="34.582910" lon="-2.732888">
        <ele>389.5</ele>
        <time>2008-03-16T10:55:07Z</time>
      </trkpt>
      <trkpt lat="34.582265" lon="-2.732646">
        <ele>390.9</ele>
        <time>2008-03-16T10:55:10Z</time>
      </trkpt>
      <trkpt lat="34.581832" lon="-2.732485">
        <ele>391.9</ele>
        <time>2008-03-16T10:55:12Z</time>
      </trkpt>
      <trkpt lat="34.581400" lon="-2.732326">
        <ele>392.4</ele>
        <time>2008-03-16T10:55:14Z</time>
      </trkpt>
      <trkpt lat="34.580967" lon="-2.732167">
        <ele>392.8</ele>
        <time>2008-03-16T10:55:16Z</time>
      </trkpt>
      <trkpt lat="34.580534" lon="-2.732005">
        <ele>393.3</ele>
        <time>2008-03-16T10:55:18Z</time>
      </trkpt>
      <trkpt lat="34.579897" lon="-2.731766">
        <ele>394.3</ele>
        <time>2008-03-16T10:55:21Z</time>
      </trkpt>
      <trkpt lat="34.579273" lon="-2.731533">
        <ele>394.8</ele>
        <time>2008-03-16T10:55:24Z</time>
      </trkpt>
      <trkpt lat="34.578648" lon="-2.731303">
        <ele>395.7</ele>
        <time>2008-03-16T10:55:27Z</time>
      </trkpt>
      <trkpt lat="34.578029" lon="-2.731072">
        <ele>396.7</ele>
        <time>2008-03-16T10:55:30Z</time>
      </trkpt>
      <trkpt lat="34.577425" lon="-2.730847">
        <ele>397.6</ele>
        <time>2008-03-16T10:55:33Z</time>
      </trkpt>
      <trkpt lat="34.576839" lon="-2.730627">
        <ele>398.6</ele>
        <time>2008-03-16T10:55:36Z</time>
      </trkpt>
      <trkpt lat="34.576290" lon="-2.730412">
        <ele>400.0</ele>
        <time>2008-03-16T10:55:39Z</time>
      </trkpt>
      <trkpt lat="34.575784" lon="-2.730222">
        <ele>401.0</ele>
        <time>2008-03-16T10:55:42Z</time>
      </trkpt>
      <trkpt lat="34.575306" lon="-2.730038">
        <ele>402.0</ele>
        <time>2008-03-16T10:55:45Z</time>
      </trkpt>
      <trkpt lat="34.574863" lon="-2.729872">
        <ele>402.9</ele>
        <time>2008-03-16T10:55:48Z</time>
      </trkpt>
      <trkpt lat="34.574299" lon="-2.729707">
        <ele>403.9</ele>
        <time>2008-03-16T10:55:52Z</time>
      </trkpt>
      <trkpt lat="34.573791" lon="-2.729753">
        <ele>404.4</ele>
        <time>2008-03-16T10:55:56Z</time>
      </trkpt>
      <trkpt lat="34.573424" lon="-2.730052">
        <ele>404.4</ele>
        <time>2008-03-16T10:56:00Z</time>
      </trkpt>
      <trkpt lat="34.573290" lon="-2.730610">
        <ele>404.4</ele>
        <time>2008-03-16T10:56:04Z</time>
      </trkpt>
      <trkpt lat="34.573243" lon="-2.731270">
        <ele>403.4</ele>
        <time>2008-03-16T10:56:08Z</time>
      </trkpt>
      <trkpt lat="34.573204" lon="-2.731868">
        <ele>402.9</ele>
        <time>2008-03-16T10:56:11Z</time>
      </trkpt>
      <trkpt lat="34.573157" lon="-2.732539">
        <ele>402.9</ele>
        <time>2008-03-16T10:56:14Z</time>
      </trkpt>
      <trkpt lat="34.573103" lon="-2.733246">
        <ele>403.9</ele>
        <time>2008-03-16T10:56:17Z</time>
      </trkpt>
      <trkpt lat="34.572984" lon="-2.733977">
        <ele>403.4</ele>
        <time>2008-03-16T10:56:20Z</time>
      </trkpt>
      <trkpt lat="34.572756" lon="-2.734681">
        <ele>403.4</ele>
        <time>2008-03-16T10:56:23Z</time>
      </trkpt>
      <trkpt lat="34.572436" lon="-2.735333">
        <ele>402.9</ele>
        <time>2008-03-16T10:56:26Z</time>
      </trkpt>
      <trkpt lat="34.572060" lon="-2.735933">
        <ele>402.9</ele>
        <time>2008-03-16T10:56:29Z</time>
      </trkpt>
      <trkpt lat="34.571614" lon="-2.736428">
        <ele>402.9</ele>
        <time>2008-03-16T10:56:32Z</time>
      </trkpt>
      <trkpt lat="34.571088" lon="-2.736792">
        <ele>402.4</ele>
        <time>2008-03-16T10:56:35Z</time>
      </trkpt>
      <trkpt lat="34.570542" lon="-2.737125">
        <ele>402.9</ele>
        <time>2008-03-16T10:56:38Z</time>
      </trkpt>
      <trkpt lat="34.569985" lon="-2.737460">
        <ele>402.4</ele>
        <time>2008-03-16T10:56:41Z</time>
      </trkpt>
      <trkpt lat="34.569419" lon="-2.737801">
        <ele>401.5</ele>
        <time>2008-03-16T10:56:44Z</time>
      </trkpt>
      <trkpt lat="34.568870" lon="-2.738185">
        <ele>401.0</ele>
        <time>2008-03-16T10:56:47Z</time>
      </trkpt>
      <trkpt lat="34.568357" lon="-2.738657">
        <ele>400.5</ele>
        <time>2008-03-16T10:56:50Z</time>
      </trkpt>
      <trkpt lat="34.567870" lon="-2.739189">
        <ele>400.5</ele>
        <time>2008-03-16T10:56:53Z</time>
      </trkpt>
      <trkpt lat="34.567372" lon="-2.739732">
        <ele>401.0</ele>
        <time>2008-03-16T10:56:56Z</time>
      </trkpt>
      <trkpt lat="34.566877" lon="-2.740279">
        <ele>401.5</ele>
        <time>2008-03-16T10:56:59Z</time>
      </trkpt>
      <trkpt lat="34.566375" lon="-2.740830">
        <ele>402.0</ele>
        <time>2008-03-16T10:57:02Z</time>
      </trkpt>
      <trkpt lat="34.566036" lon="-2.741199">
        <ele>401.5</ele>
        <time>2008-03-16T10:57:04Z</time>
      </trkpt>
      <trkpt lat="34.565697" lon="-2.741569">
        <ele>402.0</ele>
        <time>2008-03-16T10:57:06Z</time>
      </trkpt>
      <trkpt lat="34.565363" lon="-2.741934">
        <ele>401.5</ele>
        <time>2008-03-16T10:57:08Z</time>
      </trkpt>
      <trkpt lat="34.564880" lon="-2.742464">
        <ele>402.0</ele>
        <time>2008-03-16T10:57:11Z</time>
      </trkpt>
      <trkpt lat="34.564411" lon="-2.742977">
        <ele>402.9</ele>
        <time>2008-03-16T10:57:14Z</time>
      </trkpt>
      <trkpt lat="34.563955" lon="-2.743482">
        <ele>403.4</ele>
        <time>2008-03-16T10:57:17Z</time>
      </trkpt>
      <trkpt lat="34.563494" lon="-2.743994">
        <ele>402.9</ele>
        <time>2008-03-16T10:57:20Z</time>
      </trkpt>
      <trkpt lat="34.563023" lon="-2.744514">
        <ele>402.9</ele>
        <time>2008-03-16T10:57:23Z</time>
      </trkpt>
      <trkpt lat="34.562543" lon="-2.745039">
        <ele>402.4</ele>
        <time>2008-03-16T10:57:26Z</time>
      </trkpt>
      <trkpt lat="34.562127" lon="-2.745494">
        <ele>402.9</ele>
        <time>2008-03-16T10:57:29Z</time>
      </trkpt>
      <trkpt lat="34.561758" lon="-2.745870">
        <ele>402.9</ele>
        <time>2008-03-16T10:57:33Z</time>
      </trkpt>
      <trkpt lat="34.561309" lon="-2.745586">
        <ele>403.9</ele>
        <time>2008-03-16T10:57:39Z</time>
      </trkpt>
      <trkpt lat="34.560915" lon="-2.745223">
        <ele>405.3</ele>
        <time>2008-03-16T10:57:43Z</time>
      </trkpt>
      <trkpt lat="34.560484" lon="-2.744842">
        <ele>406.3</ele>
        <time>2008-03-16T10:57:47Z</time>
      </trkpt>
      <trkpt lat="34.559981" lon="-2.744464">
        <ele>406.3</ele>
        <time>2008-03-16T10:57:51Z</time>
      </trkpt>
      <trkpt lat="34.559541" lon="-2.744209">
        <ele>406.8</ele>
        <time>2008-03-16T10:57:54Z</time>
      </trkpt>
      <trkpt lat="34.559067" lon="-2.743972">
        <ele>406.8</ele>
        <time>2008-03-16T10:57:57Z</time>
      </trkpt>
      <trkpt lat="34.558569" lon="-2.743741">
        <ele>407.3</ele>
        <time>2008-03-16T10:58:00Z</time>
      </trkpt>
      <trkpt lat="34.558064" lon="-2.743502">
        <ele>407.7</ele>
        <time>2008-03-16T10:58:03Z</time>
      </trkpt>
      <trkpt lat="34.557552" lon="-2.743255">
        <ele>408.2</ele>
        <time>2008-03-16T10:58:06Z</time>
      </trkpt>
      <trkpt lat="34.557030" lon="-2.743005">
        <ele>408.7</ele>
        <time>2008-03-16T10:58:09Z</time>
      </trkpt>
      <trkpt lat="34.556506" lon="-2.742733">
        <ele>409.2</ele>
        <time>2008-03-16T10:58:12Z</time>
      </trkpt>
      <trkpt lat="34.555983" lon="-2.742426">
        <ele>410.1</ele>
        <time>2008-03-16T10:58:15Z</time>
      </trkpt>
      <trkpt lat="34.555452" lon="-2.742093">
        <ele>410.6</ele>
        <time>2008-03-16T10:58:18Z</time>
      </trkpt>
      <trkpt lat="34.554918" lon="-2.741754">
        <ele>411.6</ele>
        <time>2008-03-16T10:58:21Z</time>
      </trkpt>
      <trkpt lat="34.554390" lon="-2.741414">
        <ele>412.1</ele>
        <time>2008-03-16T10:58:24Z</time>
      </trkpt>
      <trkpt lat="34.553859" lon="-2.741082">
        <ele>413.0</ele>
        <time>2008-03-16T10:58:27Z</time>
      </trkpt>
      <trkpt lat="34.553327" lon="-2.740758">
        <ele>414.0</ele>
        <time>2008-03-16T10:58:30Z</time>
      </trkpt>
      <trkpt lat="34.552805" lon="-2.740429">
        <ele>414.9</ele>
        <time>2008-03-16T10:58:33Z</time>
      </trkpt>
      <trkpt lat="34.552296" lon="-2.740059">
        <ele>415.9</ele>
        <time>2008-03-16T10:58:36Z</time>
      </trkpt>
      <trkpt lat="34.551797" lon="-2.739650">
        <ele>416.4</ele>
        <time>2008-03-16T10:58:39Z</time>
      </trkpt>
      <trkpt lat="34.551314" lon="-2.739215">
        <ele>417.8</ele>
        <time>2008-03-16T10:58:42Z</time>
      </trkpt>
      <trkpt lat="34.550848" lon="-2.738757">
        <ele>418.8</ele>
        <time>2008-03-16T10:58:45Z</time>
      </trkpt>
      <trkpt lat="34.550430" lon="-2.738248">
        <ele>419.8</ele>
        <time>2008-03-16T10:58:48Z</time>
      </trkpt>
      <trkpt lat="34.550073" lon="-2.737673">
        <ele>420.2</ele>
        <time>2008-03-16T10:58:51Z</time>
      </trkpt>
      <trkpt lat="34.549782" lon="-2.737037">
        <ele>420.7</ele>
        <time>2008-03-16T10:58:54Z</time>
      </trkpt>
      <trkpt lat="34.549555" lon="-2.736359">
        <ele>420.7</ele>
        <time>2008-03-16T10:58:57Z</time>
      </trkpt>
      <trkpt lat="34.549389" lon="-2.735659">
        <ele>420.2</ele>
        <time>2008-03-16T10:59:00Z</time>
      </trkpt>
      <trkpt lat="34.549239" lon="-2.734963">
        <ele>422.6</ele>
        <time>2008-03-16T10:59:03Z</time>
      </trkpt>
      <trkpt lat="34.549086" lon="-2.734281">
        <ele>424.6</ele>
        <time>2008-03-16T10:59:06Z</time>
      </trkpt>
      <trkpt lat="34.548920" lon="-2.733604">
        <ele>427.0</ele>
        <time>2008-03-16T10:59:09Z</time>
      </trkpt>
      <trkpt lat="34.548723" lon="-2.732940">
        <ele>428.9</ele>
        <time>2008-03-16T10:59:12Z</time>
      </trkpt>
      <trkpt lat="34.548484" lon="-2.732283">
        <ele>429.8</ele>
        <time>2008-03-16T10:59:15Z</time>
      </trkpt>
      <trkpt lat="34.548207" lon="-2.731632">
        <ele>430.8</ele>
        <time>2008-03-16T10:59:18Z</time>
      </trkpt>
      <trkpt lat="34.547913" lon="-2.730983">
        <ele>431.3</ele>
        <time>2008-03-16T10:59:21Z</time>
      </trkpt>
      <trkpt lat="34.547619" lon="-2.730325">
        <ele>431.8</ele>
        <time>2008-03-16T10:59:24Z</time>
      </trkpt>
      <trkpt lat="34.547319" lon="-2.729667">
        <ele>433.2</ele>
        <time>2008-03-16T10:59:27Z</time>
      </trkpt>
      <trkpt lat="34.547022" lon="-2.729001">
        <ele>434.2</ele>
        <time>2008-03-16T10:59:30Z</time>
      </trkpt>
      <trkpt lat="34.546721" lon="-2.728332">
        <ele>435.1</ele>
        <time>2008-03-16T10:59:33Z</time>
      </trkpt>
      <trkpt lat="34.546416" lon="-2.727677">
        <ele>436.1</ele>
        <time>2008-03-16T10:59:36Z</time>
      </trkpt>
      <trkpt lat="34.546077" lon="-2.727062">
        <ele>436.6</ele>
        <time>2008-03-16T10:59:39Z</time>
      </trkpt>
      <trkpt lat="34.545675" lon="-2.726505">
        <ele>437.1</ele>
        <time>2008-03-16T10:59:42Z</time>
      </trkpt>
      <trkpt lat="34.545252" lon="-2.725964">
        <ele>437.5</ele>
        <time>2008-03-16T10:59:45Z</time>
      </trkpt>
      <trkpt lat="34.544823" lon="-2.725427">
        <ele>438.5</ele>
        <time>2008-03-16T10:59:48Z</time>
      </trkpt>
      <trkpt lat="34.544396" lon="-2.724886">
        <ele>439.0</ele>
        <time>2008-03-16T10:59:51Z</time>
      </trkpt>
      <trkpt lat="34.543977" lon="-2.724347">
        <ele>439.9</ele>
        <time>2008-03-16T10:59:54Z</time>
      </trkpt>
      <trkpt lat="34.543560" lon="-2.723821">
        <ele>440.4</ele>
        <time>2008-03-16T10:59:57Z</time>
      </trkpt>
      <trkpt lat="34.543144" lon="-2.723303">
        <ele>440.9</ele>
        <time>2008-03-16T11:00:00Z</time>
      </trkpt>
      <trkpt lat="34.542719" lon="-2.722805">
        <ele>441.4</ele>
        <time>2008-03-16T11:00:03Z</time>
      </trkpt>
      <trkpt lat="34.542231" lon="-2.722407">
        <ele>442.3</ele>
        <time>2008-03-16T11:00:06Z</time>
      </trkpt>
      <trkpt lat="34.541690" lon="-2.722128">
        <ele>442.8</ele>
        <time>2008-03-16T11:00:09Z</time>
      </trkpt>
      <trkpt lat="34.541172" lon="-2.721868">
        <ele>443.8</ele>
        <time>2008-03-16T11:00:12Z</time>
      </trkpt>
      <trkpt lat="34.540684" lon="-2.721633">
        <ele>445.2</ele>
        <time>2008-03-16T11:00:15Z</time>
      </trkpt>
      <trkpt lat="34.540223" lon="-2.721446">
        <ele>446.7</ele>
        <time>2008-03-16T11:00:18Z</time>
      </trkpt>
      <trkpt lat="34.539741" lon="-2.721461">
        <ele>448.1</ele>
        <time>2008-03-16T11:00:21Z</time>
      </trkpt>
      <trkpt lat="34.539240" lon="-2.721575">
        <ele>448.6</ele>
        <time>2008-03-16T11:00:24Z</time>
      </trkpt>
      <trkpt lat="34.538736" lon="-2.721695">
        <ele>449.1</ele>
        <time>2008-03-16T11:00:27Z</time>
      </trkpt>
      <trkpt lat="34.538211" lon="-2.721823">
        <ele>450.0</ele>
        <time>2008-03-16T11:00:30Z</time>
      </trkpt>
      <trkpt lat="34.537677" lon="-2.721913">
        <ele>451.0</ele>
        <time>2008-03-16T11:00:33Z</time>
      </trkpt>
      <trkpt lat="34.537132" lon="-2.721910">
        <ele>452.0</ele>
        <time>2008-03-16T11:00:36Z</time>
      </trkpt>
      <trkpt lat="34.536592" lon="-2.721808">
        <ele>453.9</ele>
        <time>2008-03-16T11:00:39Z</time>
      </trkpt>
      <trkpt lat="34.536085" lon="-2.721648">
        <ele>455.8</ele>
        <time>2008-03-16T11:00:42Z</time>
      </trkpt>
      <trkpt lat="34.535664" lon="-2.721512">
        <ele>458.2</ele>
        <time>2008-03-16T11:00:45Z</time>
      </trkpt>
      <trkpt lat="34.535174" lon="-2.721377">
        <ele>460.6</ele>
        <time>2008-03-16T11:00:50Z</time>
      </trkpt>
      <trkpt lat="34.534629" lon="-2.721529">
        <ele>461.1</ele>
        <time>2008-03-16T11:00:55Z</time>
      </trkpt>
      <trkpt lat="34.534154" lon="-2.721785">
        <ele>461.1</ele>
        <time>2008-03-16T11:00:59Z</time>
      </trkpt>
      <trkpt lat="34.533691" lon="-2.722025">
        <ele>461.6</ele>
        <time>2008-03-16T11:01:03Z</time>
      </trkpt>
      <trkpt lat="34.533124" lon="-2.722196">
        <ele>461.1</ele>
        <time>2008-03-16T11:01:07Z</time>
      </trkpt>
      <trkpt lat="34.532649" lon="-2.722146">
        <ele>460.6</ele>
        <time>2008-03-16T11:01:10Z</time>
      </trkpt>
      <trkpt lat="34.532161" lon="-2.722006">
        <ele>460.6</ele>
        <time>2008-03-16T11:01:13Z</time>
      </trkpt>
      <trkpt lat="34.531668" lon="-2.721865">
        <ele>461.6</ele>
        <time>2008-03-16T11:01:16Z</time>
      </trkpt>
      <trkpt lat="34.531172" lon="-2.721757">
        <ele>463.0</ele>
        <time>2008-03-16T11:01:19Z</time>
      </trkpt>
      <trkpt lat="34.530656" lon="-2.721791">
        <ele>464.5</ele>
        <time>2008-03-16T11:01:22Z</time>
      </trkpt>
      <trkpt lat="34.530133" lon="-2.721922">
        <ele>465.9</ele>
        <time>2008-03-16T11:01:25Z</time>
      </trkpt>
      <trkpt lat="34.529602" lon="-2.722035">
        <ele>467.3</ele>
        <time>2008-03-16T11:01:28Z</time>
      </trkpt>
      <trkpt lat="34.529057" lon="-2.722082">
        <ele>468.8</ele>
        <time>2008-03-16T11:01:31Z</time>
      </trkpt>
      <trkpt lat="34.528504" lon="-2.722094">
        <ele>470.2</ele>
        <time>2008-03-16T11:01:34Z</time>
      </trkpt>
      <trkpt lat="34.527943" lon="-2.722032">
        <ele>471.7</ele>
        <time>2008-03-16T11:01:37Z</time>
      </trkpt>
      <trkpt lat="34.527380" lon="-2.721913">
        <ele>472.1</ele>
        <time>2008-03-16T11:01:40Z</time>
      </trkpt>
      <trkpt lat="34.526823" lon="-2.721723">
        <ele>473.6</ele>
        <time>2008-03-16T11:01:43Z</time>
      </trkpt>
      <trkpt lat="34.526284" lon="-2.721448">
        <ele>474.5</ele>
        <time>2008-03-16T11:01:46Z</time>
      </trkpt>
      <trkpt lat="34.525804" lon="-2.721042">
        <ele>475.5</ele>
        <time>2008-03-16T11:01:49Z</time>
      </trkpt>
      <trkpt lat="34.525361" lon="-2.720577">
        <ele>477.0</ele>
        <time>2008-03-16T11:01:52Z</time>
      </trkpt>
      <trkpt lat="34.524915" lon="-2.720105">
        <ele>479.8</ele>
        <time>2008-03-16T11:01:55Z</time>
      </trkpt>
      <trkpt lat="34.524480" lon="-2.719648">
        <ele>483.7</ele>
        <time>2008-03-16T11:01:58Z</time>
      </trkpt>
      <trkpt lat="34.524093" lon="-2.719208">
        <ele>489.0</ele>
        <time>2008-03-16T11:02:01Z</time>
      </trkpt>
      <trkpt lat="34.523810" lon="-2.718667">
        <ele>493.3</ele>
        <time>2008-03-16T11:02:04Z</time>
      </trkpt>
      <trkpt lat="34.523549" lon="-2.718101">
        <ele>497.1</ele>
        <time>2008-03-16T11:02:07Z</time>
      </trkpt>
      <trkpt lat="34.523286" lon="-2.717610">
        <ele>499.1</ele>
        <time>2008-03-16T11:02:10Z</time>
      </trkpt>
      <trkpt lat="34.522928" lon="-2.717226">
        <ele>499.5</ele>
        <time>2008-03-16T11:02:13Z</time>
      </trkpt>
      <trkpt lat="34.522555" lon="-2.716804">
        <ele>497.6</ele>
        <time>2008-03-16T11:02:16Z</time>
      </trkpt>
      <trkpt lat="34.522220" lon="-2.716303">
        <ele>497.6</ele>
        <time>2008-03-16T11:02:19Z</time>
      </trkpt>
      <trkpt lat="34.521934" lon="-2.715812">
        <ele>498.6</ele>
        <time>2008-03-16T11:02:22Z</time>
      </trkpt>
      <trkpt lat="34.521532" lon="-2.715463">
        <ele>500.5</ele>
        <time>2008-03-16T11:02:25Z</time>
      </trkpt>
      <trkpt lat="34.521032" lon="-2.715311">
        <ele>502.4</ele>
        <time>2008-03-16T11:02:28Z</time>
      </trkpt>
      <trkpt lat="34.520499" lon="-2.715253">
        <ele>504.3</ele>
        <time>2008-03-16T11:02:31Z</time>
      </trkpt>
      <trkpt lat="34.519984" lon="-2.715198">
        <ele>507.2</ele>
        <time>2008-03-16T11:02:34Z</time>
      </trkpt>
      <trkpt lat="34.519494" lon="-2.715164">
        <ele>507.7</ele>
        <time>2008-03-16T11:02:37Z</time>
      </trkpt>
      <trkpt lat="34.519052" lon="-2.715103">
        <ele>508.2</ele>
        <time>2008-03-16T11:02:40Z</time>
      </trkpt>
      <trkpt lat="34.518463" lon="-2.714937">
        <ele>505.3</ele>
        <time>2008-03-16T11:02:44Z</time>
      </trkpt>
      <trkpt lat="34.518021" lon="-2.714734">
        <ele>505.3</ele>
        <time>2008-03-16T11:02:47Z</time>
      </trkpt>
      <trkpt lat="34.517635" lon="-2.714425">
        <ele>506.3</ele>
        <time>2008-03-16T11:02:50Z</time>
      </trkpt>
      <trkpt lat="34.517373" lon="-2.713965">
        <ele>508.7</ele>
        <time>2008-03-16T11:02:53Z</time>
      </trkpt>
      <trkpt lat="34.517188" lon="-2.713411">
        <ele>511.6</ele>
        <time>2008-03-16T11:02:56Z</time>
      </trkpt>
      <trkpt lat="34.516994" lon="-2.712834">
        <ele>514.9</ele>
        <time>2008-03-16T11:02:59Z</time>
      </trkpt>
      <trkpt lat="34.516795" lon="-2.712242">
        <ele>518.8</ele>
        <time>2008-03-16T11:03:02Z</time>
      </trkpt>
      <trkpt lat="34.516587" lon="-2.711642">
        <ele>522.6</ele>
        <time>2008-03-16T11:03:05Z</time>
      </trkpt>
      <trkpt lat="34.516368" lon="-2.711041">
        <ele>527.4</ele>
        <time>2008-03-16T11:03:08Z</time>
      </trkpt>
      <trkpt lat="34.516170" lon="-2.710438">
        <ele>533.7</ele>
        <time>2008-03-16T11:03:11Z</time>
      </trkpt>
      <trkpt lat="34.516071" lon="-2.709838">
        <ele>540.9</ele>
        <time>2008-03-16T11:03:14Z</time>
      </trkpt>
      <trkpt lat="34.516030" lon="-2.709254">
        <ele>546.6</ele>
        <time>2008-03-16T11:03:17Z</time>
      </trkpt>
      <trkpt lat="34.515923" lon="-2.708698">
        <ele>551.0</ele>
        <time>2008-03-16T11:03:20Z</time>
      </trkpt>
      <trkpt lat="34.515707" lon="-2.708194">
        <ele>552.9</ele>
        <time>2008-03-16T11:03:23Z</time>
      </trkpt>
      <trkpt lat="34.515442" lon="-2.707719">
        <ele>552.9</ele>
        <time>2008-03-16T11:03:26Z</time>
      </trkpt>
      <trkpt lat="34.515145" lon="-2.707307">
        <ele>553.4</ele>
        <time>2008-03-16T11:03:29Z</time>
      </trkpt>
      <trkpt lat="34.514678" lon="-2.706939">
        <ele>560.1</ele>
        <time>2008-03-16T11:03:33Z</time>
      </trkpt>
      <trkpt lat="34.514213" lon="-2.706649">
        <ele>564.9</ele>
        <time>2008-03-16T11:03:37Z</time>
      </trkpt>
      <trkpt lat="34.513911" lon="-2.706117">
        <ele>568.8</ele>
        <time>2008-03-16T11:03:41Z</time>
      </trkpt>
      <trkpt lat="34.513683" lon="-2.705488">
        <ele>574.0</ele>
        <time>2008-03-16T11:03:45Z</time>
      </trkpt>
      <trkpt lat="34.513367" lon="-2.704883">
        <ele>576.9</ele>
        <time>2008-03-16T11:03:49Z</time>
      </trkpt>
      <trkpt lat="34.513079" lon="-2.704420">
        <ele>577.9</ele>
        <time>2008-03-16T11:03:52Z</time>
      </trkpt>
      <trkpt lat="34.512775" lon="-2.703951">
        <ele>580.8</ele>
        <time>2008-03-16T11:03:55Z</time>
      </trkpt>
      <trkpt lat="34.512454" lon="-2.703495">
        <ele>583.7</ele>
        <time>2008-03-16T11:03:58Z</time>
      </trkpt>
      <trkpt lat="34.512133" lon="-2.703056">
        <ele>587.5</ele>
        <time>2008-03-16T11:04:01Z</time>
      </trkpt>
      <trkpt lat="34.511794" lon="-2.702666">
        <ele>592.3</ele>
        <time>2008-03-16T11:04:04Z</time>
      </trkpt>
      <trkpt lat="34.511407" lon="-2.702344">
        <ele>595.2</ele>
        <time>2008-03-16T11:04:07Z</time>
      </trkpt>
      <trkpt lat="34.510996" lon="-2.702082">
        <ele>597.1</ele>
        <time>2008-03-16T11:04:10Z</time>
      </trkpt>
      <trkpt lat="34.510568" lon="-2.701836">
        <ele>598.1</ele>
        <time>2008-03-16T11:04:13Z</time>
      </trkpt>
      <trkpt lat="34.510128" lon="-2.701589">
        <ele>598.6</ele>
        <time>2008-03-16T11:04:16Z</time>
      </trkpt>
      <trkpt lat="34.509675" lon="-2.701315">
        <ele>598.6</ele>
        <time>2008-03-16T11:04:19Z</time>
      </trkpt>
      <trkpt lat="34.509204" lon="-2.701007">
        <ele>599.0</ele>
        <time>2008-03-16T11:04:22Z</time>
      </trkpt>
      <trkpt lat="34.508732" lon="-2.700648">
        <ele>599.5</ele>
        <time>2008-03-16T11:04:25Z</time>
      </trkpt>
      <trkpt lat="34.508285" lon="-2.700214">
        <ele>599.5</ele>
        <time>2008-03-16T11:04:28Z</time>
      </trkpt>
      <trkpt lat="34.507861" lon="-2.699728">
        <ele>600.0</ele>
        <time>2008-03-16T11:04:31Z</time>
      </trkpt>
      <trkpt lat="34.507437" lon="-2.699222">
        <ele>600.5</ele>
        <time>2008-03-16T11:04:34Z</time>
      </trkpt>
      <trkpt lat="34.507014" lon="-2.698702">
        <ele>601.4</ele>
        <time>2008-03-16T11:04:37Z</time>
      </trkpt>
      <trkpt lat="34.506598" lon="-2.698162">
        <ele>601.9</ele>
        <time>2008-03-16T11:04:40Z</time>
      </trkpt>
      <trkpt lat="34.506184" lon="-2.697604">
        <ele>602.9</ele>
        <time>2008-03-16T11:04:43Z</time>
      </trkpt>
      <trkpt lat="34.505761" lon="-2.697038">
        <ele>603.8</ele>
        <time>2008-03-16T11:04:46Z</time>
      </trkpt>
      <trkpt lat="34.505330" lon="-2.696466">
        <ele>604.8</ele>
        <time>2008-03-16T11:04:49Z</time>
      </trkpt>
      <trkpt lat="34.504893" lon="-2.695888">
        <ele>606.2</ele>
        <time>2008-03-16T11:04:52Z</time>
      </trkpt>
      <trkpt lat="34.504464" lon="-2.695307">
        <ele>607.2</ele>
        <time>2008-03-16T11:04:55Z</time>
      </trkpt>
      <trkpt lat="34.504046" lon="-2.694717">
        <ele>608.7</ele>
        <time>2008-03-16T11:04:58Z</time>
      </trkpt>
      <trkpt lat="34.503638" lon="-2.694115">
        <ele>609.6</ele>
        <time>2008-03-16T11:05:01Z</time>
      </trkpt>
      <trkpt lat="34.503244" lon="-2.693525">
        <ele>611.5</ele>
        <time>2008-03-16T11:05:04Z</time>
      </trkpt>
      <trkpt lat="34.502860" lon="-2.692930">
        <ele>613.0</ele>
        <time>2008-03-16T11:05:07Z</time>
      </trkpt>
      <trkpt lat="34.502476" lon="-2.692336">
        <ele>614.4</ele>
        <time>2008-03-16T11:05:10Z</time>
      </trkpt>
      <trkpt lat="34.502087" lon="-2.691749">
        <ele>615.9</ele>
        <time>2008-03-16T11:05:13Z</time>
      </trkpt>
      <trkpt lat="34.501714" lon="-2.691154">
        <ele>616.8</ele>
        <time>2008-03-16T11:05:16Z</time>
      </trkpt>
      <trkpt lat="34.501344" lon="-2.690558">
        <ele>618.3</ele>
        <time>2008-03-16T11:05:19Z</time>
      </trkpt>
      <trkpt lat="34.500992" lon="-2.689943">
        <ele>619.7</ele>
        <time>2008-03-16T11:05:22Z</time>
      </trkpt>
      <trkpt lat="34.500647" lon="-2.689310">
        <ele>621.1</ele>
        <time>2008-03-16T11:05:25Z</time>
      </trkpt>
      <trkpt lat="34.500297" lon="-2.688664">
        <ele>622.6</ele>
        <time>2008-03-16T11:05:28Z</time>
      </trkpt>
      <trkpt lat="34.499916" lon="-2.688040">
        <ele>624.0</ele>
        <time>2008-03-16T11:05:31Z</time>
      </trkpt>
      <trkpt lat="34.499528" lon="-2.687425">
        <ele>625.5</ele>
        <time>2008-03-16T11:05:34Z</time>
      </trkpt>
      <trkpt lat="34.499135" lon="-2.686822">
        <ele>626.9</ele>
        <time>2008-03-16T11:05:37Z</time>
      </trkpt>
      <trkpt lat="34.498729" lon="-2.686231">
        <ele>628.8</ele>
        <time>2008-03-16T11:05:40Z</time>
      </trkpt>
      <trkpt lat="34.498298" lon="-2.685657">
        <ele>631.2</ele>
        <time>2008-03-16T11:05:43Z</time>
      </trkpt>
      <trkpt lat="34.497853" lon="-2.685089">
        <ele>632.7</ele>
        <time>2008-03-16T11:05:46Z</time>
      </trkpt>
      <trkpt lat="34.497400" lon="-2.684522">
        <ele>634.1</ele>
        <time>2008-03-16T11:05:49Z</time>
      </trkpt>
      <trkpt lat="34.496941" lon="-2.683953">
        <ele>635.6</ele>
        <time>2008-03-16T11:05:52Z</time>
      </trkpt>
      <trkpt lat="34.496482" lon="-2.683402">
        <ele>636.5</ele>
        <time>2008-03-16T11:05:55Z</time>
      </trkpt>
      <trkpt lat="34.496021" lon="-2.682908">
        <ele>637.0</ele>
        <time>2008-03-16T11:05:58Z</time>
      </trkpt>
      <trkpt lat="34.495514" lon="-2.682487">
        <ele>637.0</ele>
        <time>2008-03-16T11:06:01Z</time>
      </trkpt>
      <trkpt lat="34.494970" lon="-2.682140">
        <ele>637.0</ele>
        <time>2008-03-16T11:06:04Z</time>
      </trkpt>
      <trkpt lat="34.494435" lon="-2.681821">
        <ele>637.0</ele>
        <time>2008-03-16T11:06:07Z</time>
      </trkpt>
      <trkpt lat="34.493909" lon="-2.681531">
        <ele>637.0</ele>
        <time>2008-03-16T11:06:10Z</time>
      </trkpt>
      <trkpt lat="34.493361" lon="-2.681298">
        <ele>634.6</ele>
        <time>2008-03-16T11:06:13Z</time>
      </trkpt>
      <trkpt lat="34.492789" lon="-2.681164">
        <ele>632.7</ele>
        <time>2008-03-16T11:06:16Z</time>
      </trkpt>
      <trkpt lat="34.492307" lon="-2.681262">
        <ele>637.0</ele>
        <time>2008-03-16T11:06:19Z</time>
      </trkpt>
      <trkpt lat="34.491980" lon="-2.681858">
        <ele>637.5</ele>
        <time>2008-03-16T11:06:23Z</time>
      </trkpt>
      <trkpt lat="34.491794" lon="-2.682432">
        <ele>636.5</ele>
        <time>2008-03-16T11:06:26Z</time>
      </trkpt>
      <trkpt lat="34.491594" lon="-2.683059">
        <ele>635.1</ele>
        <time>2008-03-16T11:06:29Z</time>
      </trkpt>
      <trkpt lat="34.491391" lon="-2.683710">
        <ele>633.6</ele>
        <time>2008-03-16T11:06:32Z</time>
      </trkpt>
      <trkpt lat="34.491185" lon="-2.684374">
        <ele>632.2</ele>
        <time>2008-03-16T11:06:35Z</time>
      </trkpt>
      <trkpt lat="34.490977" lon="-2.685041">
        <ele>630.8</ele>
        <time>2008-03-16T11:06:38Z</time>
      </trkpt>
      <trkpt lat="34.490730" lon="-2.685675">
        <ele>628.4</ele>
        <time>2008-03-16T11:06:41Z</time>
      </trkpt>
      <trkpt lat="34.490416" lon="-2.686297">
        <ele>623.1</ele>
        <time>2008-03-16T11:06:44Z</time>
      </trkpt>
      <trkpt lat="34.490057" lon="-2.686915">
        <ele>620.2</ele>
        <time>2008-03-16T11:06:47Z</time>
      </trkpt>
      <trkpt lat="34.489666" lon="-2.687501">
        <ele>617.3</ele>
        <time>2008-03-16T11:06:50Z</time>
      </trkpt>
      <trkpt lat="34.489270" lon="-2.688079">
        <ele>613.9</ele>
        <time>2008-03-16T11:06:53Z</time>
      </trkpt>
      <trkpt lat="34.488891" lon="-2.688624">
        <ele>611.1</ele>
        <time>2008-03-16T11:06:56Z</time>
      </trkpt>
      <trkpt lat="34.488556" lon="-2.689084">
        <ele>607.2</ele>
        <time>2008-03-16T11:06:59Z</time>
      </trkpt>
      <trkpt lat="34.488073" lon="-2.689324">
        <ele>602.9</ele>
        <time>2008-03-16T11:07:02Z</time>
      </trkpt>
      <trkpt lat="34.487496" lon="-2.689331">
        <ele>604.8</ele>
        <time>2008-03-16T11:07:05Z</time>
      </trkpt>
      <trkpt lat="34.486931" lon="-2.689312">
        <ele>609.1</ele>
        <time>2008-03-16T11:07:08Z</time>
      </trkpt>
      <trkpt lat="34.486384" lon="-2.689288">
        <ele>613.5</ele>
        <time>2008-03-16T11:07:11Z</time>
      </trkpt>
      <trkpt lat="34.485835" lon="-2.689272">
        <ele>615.9</ele>
        <time>2008-03-16T11:07:14Z</time>
      </trkpt>
      <trkpt lat="34.485342" lon="-2.689306">
        <ele>616.3</ele>
        <time>2008-03-16T11:07:17Z</time>
      </trkpt>
      <trkpt lat="34.484909" lon="-2.689503">
        <ele>615.4</ele>
        <time>2008-03-16T11:07:20Z</time>
      </trkpt>
      <trkpt lat="34.484518" lon="-2.689860">
        <ele>613.0</ele>
        <time>2008-03-16T11:07:23Z</time>
      </trkpt>
      <trkpt lat="34.484152" lon="-2.690284">
        <ele>612.0</ele>
        <time>2008-03-16T11:07:26Z</time>
      </trkpt>
      <trkpt lat="34.483814" lon="-2.690718">
        <ele>612.0</ele>
        <time>2008-03-16T11:07:29Z</time>
      </trkpt>
      <trkpt lat="34.483571" lon="-2.691180">
        <ele>612.0</ele>
        <time>2008-03-16T11:07:32Z</time>
      </trkpt>
      <trkpt lat="34.483380" lon="-2.691822">
        <ele>610.1</ele>
        <time>2008-03-16T11:07:36Z</time>
      </trkpt>
      <trkpt lat="34.483195" lon="-2.692466">
        <ele>606.2</ele>
        <time>2008-03-16T11:07:40Z</time>
      </trkpt>
      <trkpt lat="34.483012" lon="-2.693049">
        <ele>603.8</ele>
        <time>2008-03-16T11:07:44Z</time>
      </trkpt>
      <trkpt lat="34.482872" lon="-2.693593">
        <ele>600.0</ele>
        <time>2008-03-16T11:07:48Z</time>
      </trkpt>
      <trkpt lat="34.482775" lon="-2.694157">
        <ele>596.6</ele>
        <time>2008-03-16T11:07:52Z</time>
      </trkpt>
      <trkpt lat="34.482683" lon="-2.694721">
        <ele>593.8</ele>
        <time>2008-03-16T11:07:56Z</time>
      </trkpt>
      <trkpt lat="34.482450" lon="-2.695105">
        <ele>591.8</ele>
        <time>2008-03-16T11:08:01Z</time>
      </trkpt>
      <trkpt lat="34.482055" lon="-2.694728">
        <ele>592.8</ele>
        <time>2008-03-16T11:08:07Z</time>
      </trkpt>
      <trkpt lat="34.481725" lon="-2.694268">
        <ele>593.8</ele>
        <time>2008-03-16T11:08:12Z</time>
      </trkpt>
      <trkpt lat="34.481465" lon="-2.693763">
        <ele>594.7</ele>
        <time>2008-03-16T11:08:16Z</time>
      </trkpt>
      <trkpt lat="34.481238" lon="-2.693154">
        <ele>595.7</ele>
        <time>2008-03-16T11:08:20Z</time>
      </trkpt>
      <trkpt lat="34.481013" lon="-2.692552">
        <ele>596.2</ele>
        <time>2008-03-16T11:08:24Z</time>
      </trkpt>
      <trkpt lat="34.480630" lon="-2.692222">
        <ele>596.6</ele>
        <time>2008-03-16T11:08:28Z</time>
      </trkpt>
      <trkpt lat="34.480150" lon="-2.692357">
        <ele>598.1</ele>
        <time>2008-03-16T11:08:32Z</time>
      </trkpt>
      <trkpt lat="34.479683" lon="-2.692260">
        <ele>597.6</ele>
        <time>2008-03-16T11:08:36Z</time>
      </trkpt>
      <trkpt lat="34.479392" lon="-2.691826">
        <ele>595.7</ele>
        <time>2008-03-16T11:08:40Z</time>
      </trkpt>
      <trkpt lat="34.479240" lon="-2.691276">
        <ele>591.3</ele>
        <time>2008-03-16T11:08:45Z</time>
      </trkpt>
      <trkpt lat="34.478855" lon="-2.690990">
        <ele>588.0</ele>
        <time>2008-03-16T11:08:52Z</time>
      </trkpt>
      <trkpt lat="34.478359" lon="-2.690897">
        <ele>591.8</ele>
        <time>2008-03-16T11:09:00Z</time>
      </trkpt>
      <trkpt lat="34.477876" lon="-2.690632">
        <ele>598.6</ele>
        <time>2008-03-16T11:09:05Z</time>
      </trkpt>
      <trkpt lat="34.477416" lon="-2.690408">
        <ele>603.4</ele>
        <time>2008-03-16T11:09:09Z</time>
      </trkpt>
      <trkpt lat="34.476903" lon="-2.690219">
        <ele>607.2</ele>
        <time>2008-03-16T11:09:13Z</time>
      </trkpt>
      <trkpt lat="34.476355" lon="-2.690074">
        <ele>608.2</ele>
        <time>2008-03-16T11:09:17Z</time>
      </trkpt>
      <trkpt lat="34.475777" lon="-2.689891">
        <ele>607.2</ele>
        <time>2008-03-16T11:09:21Z</time>
      </trkpt>
      <trkpt lat="34.475327" lon="-2.689680">
        <ele>605.8</ele>
        <time>2008-03-16T11:09:24Z</time>
      </trkpt>
      <trkpt lat="34.474848" lon="-2.689437">
        <ele>604.8</ele>
        <time>2008-03-16T11:09:27Z</time>
      </trkpt>
      <trkpt lat="34.474338" lon="-2.689179">
        <ele>604.3</ele>
        <time>2008-03-16T11:09:30Z</time>
      </trkpt>
      <trkpt lat="34.473804" lon="-2.688922">
        <ele>606.2</ele>
        <time>2008-03-16T11:09:33Z</time>
      </trkpt>
      <trkpt lat="34.473258" lon="-2.688676">
        <ele>609.1</ele>
        <time>2008-03-16T11:09:36Z</time>
      </trkpt>
      <trkpt lat="34.472705" lon="-2.688444">
        <ele>611.5</ele>
        <time>2008-03-16T11:09:39Z</time>
      </trkpt>
      <trkpt lat="34.472167" lon="-2.688221">
        <ele>613.9</ele>
        <time>2008-03-16T11:09:42Z</time>
      </trkpt>
      <trkpt lat="34.471630" lon="-2.687999">
        <ele>614.4</ele>
        <time>2008-03-16T11:09:45Z</time>
      </trkpt>
      <trkpt lat="34.471088" lon="-2.687773">
        <ele>614.4</ele>
        <time>2008-03-16T11:09:48Z</time>
      </trkpt>
      <trkpt lat="34.470544" lon="-2.687561">
        <ele>614.4</ele>
        <time>2008-03-16T11:09:51Z</time>
      </trkpt>
      <trkpt lat="34.469997" lon="-2.687351">
        <ele>613.9</ele>
        <time>2008-03-16T11:09:54Z</time>
      </trkpt>
      <trkpt lat="34.469457" lon="-2.687094">
        <ele>613.5</ele>
        <time>2008-03-16T11:09:57Z</time>
      </trkpt>
      <trkpt lat="34.468924" lon="-2.686770">
        <ele>612.5</ele>
        <time>2008-03-16T11:10:00Z</time>
      </trkpt>
      <trkpt lat="34.468394" lon="-2.686386">
        <ele>611.5</ele>
        <time>2008-03-16T11:10:03Z</time>
      </trkpt>
      <trkpt lat="34.467858" lon="-2.685999">
        <ele>614.9</ele>
        <time>2008-03-16T11:10:06Z</time>
      </trkpt>
      <trkpt lat="34.467334" lon="-2.685611">
        <ele>619.2</ele>
        <time>2008-03-16T11:10:09Z</time>
      </trkpt>
      <trkpt lat="34.466815" lon="-2.685227">
        <ele>623.1</ele>
        <time>2008-03-16T11:10:12Z</time>
      </trkpt>
      <trkpt lat="34.466309" lon="-2.684853">
        <ele>626.0</ele>
        <time>2008-03-16T11:10:15Z</time>
      </trkpt>
      <trkpt lat="34.465891" lon="-2.684531">
        <ele>628.4</ele>
        <time>2008-03-16T11:10:18Z</time>
      </trkpt>
      <trkpt lat="34.465453" lon="-2.684255">
        <ele>628.8</ele>
        <time>2008-03-16T11:10:21Z</time>
      </trkpt>
      <trkpt lat="34.464956" lon="-2.684025">
        <ele>629.3</ele>
        <time>2008-03-16T11:10:24Z</time>
      </trkpt>
      <trkpt lat="34.464427" lon="-2.683799">
        <ele>629.8</ele>
        <time>2008-03-16T11:10:27Z</time>
      </trkpt>
      <trkpt lat="34.463878" lon="-2.683557">
        <ele>629.8</ele>
        <time>2008-03-16T11:10:30Z</time>
      </trkpt>
      <trkpt lat="34.463312" lon="-2.683302">
        <ele>629.3</ele>
        <time>2008-03-16T11:10:33Z</time>
      </trkpt>
      <trkpt lat="34.462735" lon="-2.683047">
        <ele>631.2</ele>
        <time>2008-03-16T11:10:36Z</time>
      </trkpt>
      <trkpt lat="34.462154" lon="-2.682795">
        <ele>633.6</ele>
        <time>2008-03-16T11:10:39Z</time>
      </trkpt>
      <trkpt lat="34.461570" lon="-2.682537">
        <ele>636.0</ele>
        <time>2008-03-16T11:10:42Z</time>
      </trkpt>
      <trkpt lat="34.460985" lon="-2.682280">
        <ele>638.0</ele>
        <time>2008-03-16T11:10:45Z</time>
      </trkpt>
      <trkpt lat="34.460389" lon="-2.682019">
        <ele>639.4</ele>
        <time>2008-03-16T11:10:48Z</time>
      </trkpt>
      <trkpt lat="34.459793" lon="-2.681765">
        <ele>640.4</ele>
        <time>2008-03-16T11:10:51Z</time>
      </trkpt>
      <trkpt lat="34.459204" lon="-2.681505">
        <ele>642.3</ele>
        <time>2008-03-16T11:10:54Z</time>
      </trkpt>
      <trkpt lat="34.458615" lon="-2.681256">
        <ele>644.7</ele>
        <time>2008-03-16T11:10:57Z</time>
      </trkpt>
      <trkpt lat="34.458015" lon="-2.681025">
        <ele>645.7</ele>
        <time>2008-03-16T11:11:00Z</time>
      </trkpt>
      <trkpt lat="34.457406" lon="-2.680802">
        <ele>647.6</ele>
        <time>2008-03-16T11:11:03Z</time>
      </trkpt>
      <trkpt lat="34.456801" lon="-2.680576">
        <ele>649.5</ele>
        <time>2008-03-16T11:11:06Z</time>
      </trkpt>
      <trkpt lat="34.456208" lon="-2.680361">
        <ele>651.4</ele>
        <time>2008-03-16T11:11:09Z</time>
      </trkpt>
      <trkpt lat="34.455622" lon="-2.680148">
        <ele>652.4</ele>
        <time>2008-03-16T11:11:12Z</time>
      </trkpt>
      <trkpt lat="34.455042" lon="-2.679929">
        <ele>653.4</ele>
        <time>2008-03-16T11:11:15Z</time>
      </trkpt>
      <trkpt lat="34.454500" lon="-2.679628">
        <ele>654.8</ele>
        <time>2008-03-16T11:11:18Z</time>
      </trkpt>
      <trkpt lat="34.453986" lon="-2.679253">
        <ele>656.2</ele>
        <time>2008-03-16T11:11:21Z</time>
      </trkpt>
      <trkpt lat="34.453489" lon="-2.678843">
        <ele>659.6</ele>
        <time>2008-03-16T11:11:24Z</time>
      </trkpt>
      <trkpt lat="34.452999" lon="-2.678449">
        <ele>665.4</ele>
        <time>2008-03-16T11:11:27Z</time>
      </trkpt>
      <trkpt lat="34.452510" lon="-2.678069">
        <ele>668.7</ele>
        <time>2008-03-16T11:11:30Z</time>
      </trkpt>
      <trkpt lat="34.452020" lon="-2.677733">
        <ele>671.1</ele>
        <time>2008-03-16T11:11:33Z</time>
      </trkpt>
      <trkpt lat="34.451494" lon="-2.677524">
        <ele>674.5</ele>
        <time>2008-03-16T11:11:36Z</time>
      </trkpt>
      <trkpt lat="34.450959" lon="-2.677377">
        <ele>676.4</ele>
        <time>2008-03-16T11:11:39Z</time>
      </trkpt>
      <trkpt lat="34.450405" lon="-2.677243">
        <ele>676.9</ele>
        <time>2008-03-16T11:11:42Z</time>
      </trkpt>
      <trkpt lat="34.449828" lon="-2.677100">
        <ele>677.4</ele>
        <time>2008-03-16T11:11:45Z</time>
      </trkpt>
      <trkpt lat="34.449242" lon="-2.676941">
        <ele>677.4</ele>
        <time>2008-03-16T11:11:48Z</time>
      </trkpt>
      <trkpt lat="34.448667" lon="-2.676738">
        <ele>678.8</ele>
        <time>2008-03-16T11:11:51Z</time>
      </trkpt>
      <trkpt lat="34.448148" lon="-2.676403">
        <ele>681.2</ele>
        <time>2008-03-16T11:11:54Z</time>
      </trkpt>
      <trkpt lat="34.447679" lon="-2.675985">
        <ele>684.1</ele>
        <time>2008-03-16T11:11:57Z</time>
      </trkpt>
      <trkpt lat="34.447209" lon="-2.675558">
        <ele>684.6</ele>
        <time>2008-03-16T11:12:00Z</time>
      </trkpt>
      <trkpt lat="34.446678" lon="-2.675234">
        <ele>686.0</ele>
        <time>2008-03-16T11:12:03Z</time>
      </trkpt>
      <trkpt lat="34.446104" lon="-2.675025">
        <ele>688.4</ele>
        <time>2008-03-16T11:12:06Z</time>
      </trkpt>
      <trkpt lat="34.445518" lon="-2.674858">
        <ele>690.8</ele>
        <time>2008-03-16T11:12:09Z</time>
      </trkpt>
      <trkpt lat="34.444924" lon="-2.674703">
        <ele>692.8</ele>
        <time>2008-03-16T11:12:12Z</time>
      </trkpt>
      <trkpt lat="34.444322" lon="-2.674547">
        <ele>694.2</ele>
        <time>2008-03-16T11:12:15Z</time>
      </trkpt>
      <trkpt lat="34.443720" lon="-2.674386">
        <ele>695.2</ele>
        <time>2008-03-16T11:12:18Z</time>
      </trkpt>
      <trkpt lat="34.443110" lon="-2.674206">
        <ele>694.7</ele>
        <time>2008-03-16T11:12:21Z</time>
      </trkpt>
      <trkpt lat="34.442508" lon="-2.673989">
        <ele>694.7</ele>
        <time>2008-03-16T11:12:24Z</time>
      </trkpt>
      <trkpt lat="34.441917" lon="-2.673723">
        <ele>696.1</ele>
        <time>2008-03-16T11:12:27Z</time>
      </trkpt>
      <trkpt lat="34.441344" lon="-2.673435">
        <ele>698.1</ele>
        <time>2008-03-16T11:12:30Z</time>
      </trkpt>
      <trkpt lat="34.440765" lon="-2.673132">
        <ele>700.0</ele>
        <time>2008-03-16T11:12:33Z</time>
      </trkpt>
      <trkpt lat="34.440171" lon="-2.672816">
        <ele>702.4</ele>
        <time>2008-03-16T11:12:36Z</time>
      </trkpt>
      <trkpt lat="34.439575" lon="-2.672487">
        <ele>705.3</ele>
        <time>2008-03-16T11:12:39Z</time>
      </trkpt>
      <trkpt lat="34.438997" lon="-2.672109">
        <ele>707.2</ele>
        <time>2008-03-16T11:12:42Z</time>
      </trkpt>
      <trkpt lat="34.438474" lon="-2.671624">
        <ele>709.1</ele>
        <time>2008-03-16T11:12:45Z</time>
      </trkpt>
      <trkpt lat="34.437995" lon="-2.671072">
        <ele>713.0</ele>
        <time>2008-03-16T11:12:48Z</time>
      </trkpt>
      <trkpt lat="34.437528" lon="-2.670525">
        <ele>717.8</ele>
        <time>2008-03-16T11:12:51Z</time>
      </trkpt>
      <trkpt lat="34.437084" lon="-2.669985">
        <ele>720.6</ele>
        <time>2008-03-16T11:12:54Z</time>
      </trkpt>
      <trkpt lat="34.436620" lon="-2.669500">
        <ele>723.0</ele>
        <time>2008-03-16T11:12:57Z</time>
      </trkpt>
      <trkpt lat="34.436105" lon="-2.669130">
        <ele>725.5</ele>
        <time>2008-03-16T11:13:00Z</time>
      </trkpt>
      <trkpt lat="34.435557" lon="-2.668849">
        <ele>727.4</ele>
        <time>2008-03-16T11:13:03Z</time>
      </trkpt>
      <trkpt lat="34.435007" lon="-2.668651">
        <ele>728.8</ele>
        <time>2008-03-16T11:13:06Z</time>
      </trkpt>
      <trkpt lat="34.434447" lon="-2.668608">
        <ele>729.3</ele>
        <time>2008-03-16T11:13:09Z</time>
      </trkpt>
      <trkpt lat="34.433880" lon="-2.668721">
        <ele>731.2</ele>
        <time>2008-03-16T11:13:12Z</time>
      </trkpt>
      <trkpt lat="34.433310" lon="-2.668843">
        <ele>732.7</ele>
        <time>2008-03-16T11:13:15Z</time>
      </trkpt>
      <trkpt lat="34.432741" lon="-2.668962">
        <ele>732.7</ele>
        <time>2008-03-16T11:13:18Z</time>
      </trkpt>
      <trkpt lat="34.432164" lon="-2.669035">
        <ele>732.7</ele>
        <time>2008-03-16T11:13:21Z</time>
      </trkpt>
      <trkpt lat="34.431569" lon="-2.669010">
        <ele>732.7</ele>
        <time>2008-03-16T11:13:24Z</time>
      </trkpt>
      <trkpt lat="34.430963" lon="-2.668963">
        <ele>732.7</ele>
        <time>2008-03-16T11:13:27Z</time>
      </trkpt>
      <trkpt lat="34.430357" lon="-2.668900">
        <ele>733.6</ele>
        <time>2008-03-16T11:13:30Z</time>
      </trkpt>
      <trkpt lat="34.429754" lon="-2.668773">
        <ele>734.1</ele>
        <time>2008-03-16T11:13:33Z</time>
      </trkpt>
      <trkpt lat="34.429170" lon="-2.668540">
        <ele>734.6</ele>
        <time>2008-03-16T11:13:36Z</time>
      </trkpt>
      <trkpt lat="34.428591" lon="-2.668243">
        <ele>735.5</ele>
        <time>2008-03-16T11:13:39Z</time>
      </trkpt>
      <trkpt lat="34.428001" lon="-2.667935">
        <ele>737.9</ele>
        <time>2008-03-16T11:13:42Z</time>
      </trkpt>
      <trkpt lat="34.427400" lon="-2.667631">
        <ele>740.4</ele>
        <time>2008-03-16T11:13:45Z</time>
      </trkpt>
      <trkpt lat="34.426801" lon="-2.667333">
        <ele>743.7</ele>
        <time>2008-03-16T11:13:48Z</time>
      </trkpt>
      <trkpt lat="34.426202" lon="-2.667109">
        <ele>745.6</ele>
        <time>2008-03-16T11:13:51Z</time>
      </trkpt>
      <trkpt lat="34.425591" lon="-2.666973">
        <ele>746.1</ele>
        <time>2008-03-16T11:13:54Z</time>
      </trkpt>
      <trkpt lat="34.425013" lon="-2.666764">
        <ele>747.1</ele>
        <time>2008-03-16T11:13:57Z</time>
      </trkpt>
      <trkpt lat="34.424450" lon="-2.666514">
        <ele>748.0</ele>
        <time>2008-03-16T11:14:00Z</time>
      </trkpt>
      <trkpt lat="34.423912" lon="-2.666228">
        <ele>749.0</ele>
        <time>2008-03-16T11:14:03Z</time>
      </trkpt>
      <trkpt lat="34.423400" lon="-2.665886">
        <ele>750.0</ele>
        <time>2008-03-16T11:14:06Z</time>
      </trkpt>
      <trkpt lat="34.422888" lon="-2.665529">
        <ele>750.9</ele>
        <time>2008-03-16T11:14:09Z</time>
      </trkpt>
      <trkpt lat="34.422360" lon="-2.665183">
        <ele>751.4</ele>
        <time>2008-03-16T11:14:12Z</time>
      </trkpt>
      <trkpt lat="34.421817" lon="-2.664851">
        <ele>751.9</ele>
        <time>2008-03-16T11:14:15Z</time>
      </trkpt>
      <trkpt lat="34.421263" lon="-2.664539">
        <ele>751.4</ele>
        <time>2008-03-16T11:14:18Z</time>
      </trkpt>
      <trkpt lat="34.420684" lon="-2.664246">
        <ele>750.0</ele>
        <time>2008-03-16T11:14:21Z</time>
      </trkpt>
      <trkpt lat="34.420076" lon="-2.663986">
        <ele>748.0</ele>
        <time>2008-03-16T11:14:24Z</time>
      </trkpt>
      <trkpt lat="34.419464" lon="-2.663729">
        <ele>745.6</ele>
        <time>2008-03-16T11:14:27Z</time>
      </trkpt>
      <trkpt lat="34.418835" lon="-2.663464">
        <ele>743.2</ele>
        <time>2008-03-16T11:14:30Z</time>
      </trkpt>
      <trkpt lat="34.418196" lon="-2.663197">
        <ele>740.8</ele>
        <time>2008-03-16T11:14:33Z</time>
      </trkpt>
      <trkpt lat="34.417765" lon="-2.663036">
        <ele>740.8</ele>
        <time>2008-03-16T11:14:35Z</time>
      </trkpt>
      <trkpt lat="34.417114" lon="-2.662813">
        <ele>740.8</ele>
        <time>2008-03-16T11:14:38Z</time>
      </trkpt>
      <trkpt lat="34.416473" lon="-2.662595">
        <ele>742.3</ele>
        <time>2008-03-16T11:14:41Z</time>
      </trkpt>
      <trkpt lat="34.415833" lon="-2.662383">
        <ele>744.2</ele>
        <time>2008-03-16T11:14:44Z</time>
      </trkpt>
      <trkpt lat="34.415180" lon="-2.662168">
        <ele>745.6</ele>
        <time>2008-03-16T11:14:47Z</time>
      </trkpt>
      <trkpt lat="34.414737" lon="-2.662018">
        <ele>746.1</ele>
        <time>2008-03-16T11:14:49Z</time>
      </trkpt>
      <trkpt lat="34.414292" lon="-2.661866">
        <ele>747.6</ele>
        <time>2008-03-16T11:14:51Z</time>
      </trkpt>
      <trkpt lat="34.413844" lon="-2.661721">
        <ele>749.0</ele>
        <time>2008-03-16T11:14:53Z</time>
      </trkpt>
      <trkpt lat="34.413395" lon="-2.661571">
        <ele>750.4</ele>
        <time>2008-03-16T11:14:55Z</time>
      </trkpt>
      <trkpt lat="34.412958" lon="-2.661387">
        <ele>751.9</ele>
        <time>2008-03-16T11:14:57Z</time>
      </trkpt>
      <trkpt lat="34.412542" lon="-2.661158">
        <ele>754.3</ele>
        <time>2008-03-16T11:14:59Z</time>
      </trkpt>
      <trkpt lat="34.412131" lon="-2.660921">
        <ele>756.2</ele>
        <time>2008-03-16T11:15:01Z</time>
      </trkpt>
      <trkpt lat="34.411726" lon="-2.660677">
        <ele>759.1</ele>
        <time>2008-03-16T11:15:03Z</time>
      </trkpt>
      <trkpt lat="34.411149" lon="-2.660267">
        <ele>763.4</ele>
        <time>2008-03-16T11:15:06Z</time>
      </trkpt>
      <trkpt lat="34.410602" lon="-2.659804">
        <ele>767.8</ele>
        <time>2008-03-16T11:15:09Z</time>
      </trkpt>
      <trkpt lat="34.410063" lon="-2.659337">
        <ele>772.1</ele>
        <time>2008-03-16T11:15:12Z</time>
      </trkpt>
      <trkpt lat="34.409505" lon="-2.658916">
        <ele>775.9</ele>
        <time>2008-03-16T11:15:15Z</time>
      </trkpt>
      <trkpt lat="34.408924" lon="-2.658557">
        <ele>780.2</ele>
        <time>2008-03-16T11:15:18Z</time>
      </trkpt>
      <trkpt lat="34.408366" lon="-2.658222">
        <ele>785.1</ele>
        <time>2008-03-16T11:15:21Z</time>
      </trkpt>
      <trkpt lat="34.407899" lon="-2.657768">
        <ele>788.9</ele>
        <time>2008-03-16T11:15:24Z</time>
      </trkpt>
      <trkpt lat="34.407460" lon="-2.657277">
        <ele>791.8</ele>
        <time>2008-03-16T11:15:27Z</time>
      </trkpt>
      <trkpt lat="34.406997" lon="-2.656810">
        <ele>795.6</ele>
        <time>2008-03-16T11:15:30Z</time>
      </trkpt>
      <trkpt lat="34.406495" lon="-2.656400">
        <ele>800.0</ele>
        <time>2008-03-16T11:15:33Z</time>
      </trkpt>
      <trkpt lat="34.405957" lon="-2.656058">
        <ele>803.3</ele>
        <time>2008-03-16T11:15:36Z</time>
      </trkpt>
      <trkpt lat="34.405388" lon="-2.655773">
        <ele>806.2</ele>
        <time>2008-03-16T11:15:39Z</time>
      </trkpt>
      <trkpt lat="34.404790" lon="-2.655553">
        <ele>809.6</ele>
        <time>2008-03-16T11:15:42Z</time>
      </trkpt>
      <trkpt lat="34.404184" lon="-2.655360">
        <ele>812.0</ele>
        <time>2008-03-16T11:15:45Z</time>
      </trkpt>
      <trkpt lat="34.403583" lon="-2.655161">
        <ele>814.4</ele>
        <time>2008-03-16T11:15:48Z</time>
      </trkpt>
      <trkpt lat="34.402984" lon="-2.654953">
        <ele>817.7</ele>
        <time>2008-03-16T11:15:51Z</time>
      </trkpt>
      <trkpt lat="34.402384" lon="-2.654781">
        <ele>820.1</ele>
        <time>2008-03-16T11:15:54Z</time>
      </trkpt>
      <trkpt lat="34.401775" lon="-2.654659">
        <ele>822.1</ele>
        <time>2008-03-16T11:15:57Z</time>
      </trkpt>
      <trkpt lat="34.401172" lon="-2.654516">
        <ele>823.5</ele>
        <time>2008-03-16T11:16:00Z</time>
      </trkpt>
      <trkpt lat="34.400582" lon="-2.654334">
        <ele>824.0</ele>
        <time>2008-03-16T11:16:03Z</time>
      </trkpt>
      <trkpt lat="34.400022" lon="-2.654166">
        <ele>824.0</ele>
        <time>2008-03-16T11:16:06Z</time>
      </trkpt>
      <trkpt lat="34.399550" lon="-2.654051">
        <ele>824.5</ele>
        <time>2008-03-16T11:16:09Z</time>
      </trkpt>
      <trkpt lat="34.399002" lon="-2.653944">
        <ele>826.9</ele>
        <time>2008-03-16T11:16:13Z</time>
      </trkpt>
      <trkpt lat="34.398481" lon="-2.653795">
        <ele>829.3</ele>
        <time>2008-03-16T11:16:17Z</time>
      </trkpt>
      <trkpt lat="34.397939" lon="-2.653527">
        <ele>832.2</ele>
        <time>2008-03-16T11:16:21Z</time>
      </trkpt>
      <trkpt lat="34.397516" lon="-2.653300">
        <ele>834.6</ele>
        <time>2008-03-16T11:16:24Z</time>
      </trkpt>
      <trkpt lat="34.396969" lon="-2.653013">
        <ele>837.4</ele>
        <time>2008-03-16T11:16:28Z</time>
      </trkpt>
      <trkpt lat="34.396503" lon="-2.652799">
        <ele>840.3</ele>
        <time>2008-03-16T11:16:32Z</time>
      </trkpt>
      <trkpt lat="34.396046" lon="-2.652616">
        <ele>842.3</ele>
        <time>2008-03-16T11:16:37Z</time>
      </trkpt>
      <trkpt lat="34.395598" lon="-2.652448">
        <ele>843.7</ele>
        <time>2008-03-16T11:16:42Z</time>
      </trkpt>
      <trkpt lat="34.395146" lon="-2.652279">
        <ele>845.6</ele>
        <time>2008-03-16T11:16:47Z</time>
      </trkpt>
      <trkpt lat="34.394667" lon="-2.652077">
        <ele>847.1</ele>
        <time>2008-03-16T11:16:52Z</time>
      </trkpt>
      <trkpt lat="34.394173" lon="-2.651873">
        <ele>848.0</ele>
        <time>2008-03-16T11:16:57Z</time>
      </trkpt>
      <trkpt lat="34.393700" lon="-2.651616">
        <ele>849.0</ele>
        <time>2008-03-16T11:17:02Z</time>
      </trkpt>
      <trkpt lat="34.393222" lon="-2.651270">
        <ele>850.9</ele>
        <time>2008-03-16T11:17:07Z</time>
      </trkpt>
      <trkpt lat="34.392814" lon="-2.650965">
        <ele>852.3</ele>
        <time>2008-03-16T11:17:11Z</time>
      </trkpt>
      <trkpt lat="34.392382" lon="-2.650664">
        <ele>853.3</ele>
        <time>2008-03-16T11:17:15Z</time>
      </trkpt>
      <trkpt lat="34.391912" lon="-2.650340">
        <ele>854.3</ele>
        <time>2008-03-16T11:17:19Z</time>
      </trkpt>
      <trkpt lat="34.391419" lon="-2.649986">
        <ele>854.3</ele>
        <time>2008-03-16T11:17:23Z</time>
      </trkpt>
      <trkpt lat="34.390909" lon="-2.649606">
        <ele>855.7</ele>
        <time>2008-03-16T11:17:27Z</time>
      </trkpt>
      <trkpt lat="34.390514" lon="-2.649305">
        <ele>857.2</ele>
        <time>2008-03-16T11:17:30Z</time>
      </trkpt>
      <trkpt lat="34.387576" lon="-2.646689">
        <ele>897.5</ele>
        <time>2008-03-16T11:17:56Z</time>
      </trkpt>
      <trkpt lat="34.387089" lon="-2.646394">
        <ele>868.2</ele>
        <time>2008-03-16T11:18:00Z</time>
      </trkpt>
      <trkpt lat="34.386577" lon="-2.646185">
        <ele>867.7</ele>
        <time>2008-03-16T11:18:04Z</time>
      </trkpt>
      <trkpt lat="34.386064" lon="-2.645993">
        <ele>867.2</ele>
        <time>2008-03-16T11:18:08Z</time>
      </trkpt>
      <trkpt lat="34.385571" lon="-2.645677">
        <ele>866.8</ele>
        <time>2008-03-16T11:18:12Z</time>
      </trkpt>
      <trkpt lat="34.385069" lon="-2.645303">
        <ele>867.2</ele>
        <time>2008-03-16T11:18:16Z</time>
      </trkpt>
      <trkpt lat="34.384517" lon="-2.645024">
        <ele>868.2</ele>
        <time>2008-03-16T11:18:20Z</time>
      </trkpt>
      <trkpt lat="34.384101" lon="-2.644793">
        <ele>869.2</ele>
        <time>2008-03-16T11:18:23Z</time>
      </trkpt>
      <trkpt lat="34.383684" lon="-2.644537">
        <ele>871.6</ele>
        <time>2008-03-16T11:18:26Z</time>
      </trkpt>
      <trkpt lat="34.383274" lon="-2.644287">
        <ele>872.5</ele>
        <time>2008-03-16T11:18:29Z</time>
      </trkpt>
      <trkpt lat="34.382857" lon="-2.644071">
        <ele>874.0</ele>
        <time>2008-03-16T11:18:32Z</time>
      </trkpt>
      <trkpt lat="34.382408" lon="-2.643910">
        <ele>875.4</ele>
        <time>2008-03-16T11:18:35Z</time>
      </trkpt>
      <trkpt lat="34.381961" lon="-2.643768">
        <ele>876.9</ele>
        <time>2008-03-16T11:18:38Z</time>
      </trkpt>
      <trkpt lat="34.381520" lon="-2.643612">
        <ele>878.3</ele>
        <time>2008-03-16T11:18:41Z</time>
      </trkpt>
      <trkpt lat="34.381094" lon="-2.643396">
        <ele>879.7</ele>
        <time>2008-03-16T11:18:44Z</time>
      </trkpt>
      <trkpt lat="34.380679" lon="-2.643143">
        <ele>881.7</ele>
        <time>2008-03-16T11:18:47Z</time>
      </trkpt>
      <trkpt lat="34.380272" lon="-2.642882">
        <ele>884.1</ele>
        <time>2008-03-16T11:18:50Z</time>
      </trkpt>
      <trkpt lat="34.379870" lon="-2.642626">
        <ele>886.5</ele>
        <time>2008-03-16T11:18:53Z</time>
      </trkpt>
      <trkpt lat="34.379463" lon="-2.642380">
        <ele>887.9</ele>
        <time>2008-03-16T11:18:56Z</time>
      </trkpt>
      <trkpt lat="34.378950" lon="-2.642045">
        <ele>888.9</ele>
        <time>2008-03-16T11:19:00Z</time>
      </trkpt>
      <trkpt lat="34.378461" lon="-2.641727">
        <ele>889.4</ele>
        <time>2008-03-16T11:19:04Z</time>
      </trkpt>
      <trkpt lat="34.377949" lon="-2.641549">
        <ele>890.3</ele>
        <time>2008-03-16T11:19:08Z</time>
      </trkpt>
      <trkpt lat="34.377413" lon="-2.641482">
        <ele>894.6</ele>
        <time>2008-03-16T11:19:12Z</time>
      </trkpt>
      <trkpt lat="34.376913" lon="-2.641408">
        <ele>897.5</ele>
        <time>2008-03-16T11:19:16Z</time>
      </trkpt>
      <trkpt lat="34.376461" lon="-2.641417">
        <ele>898.5</ele>
        <time>2008-03-16T11:19:21Z</time>
      </trkpt>
      <trkpt lat="34.375909" lon="-2.641442">
        <ele>898.5</ele>
        <time>2008-03-16T11:19:27Z</time>
      </trkpt>
      <trkpt lat="34.375414" lon="-2.641479">
        <ele>897.5</ele>
        <time>2008-03-16T11:19:32Z</time>
      </trkpt>
      <trkpt lat="34.374935" lon="-2.641474">
        <ele>894.6</ele>
        <time>2008-03-16T11:19:36Z</time>
      </trkpt>
      <trkpt lat="34.374400" lon="-2.641510">
        <ele>890.8</ele>
        <time>2008-03-16T11:19:40Z</time>
      </trkpt>
      <trkpt lat="34.373815" lon="-2.641664">
        <ele>888.4</ele>
        <time>2008-03-16T11:19:44Z</time>
      </trkpt>
      <trkpt lat="34.373350" lon="-2.641800">
        <ele>889.8</ele>
        <time>2008-03-16T11:19:47Z</time>
      </trkpt>
      <trkpt lat="34.372713" lon="-2.641953">
        <ele>895.1</ele>
        <time>2008-03-16T11:19:51Z</time>
      </trkpt>
      <trkpt lat="34.372228" lon="-2.642011">
        <ele>899.5</ele>
        <time>2008-03-16T11:19:54Z</time>
      </trkpt>
      <trkpt lat="34.371906" lon="-2.642018">
        <ele>901.9</ele>
        <time>2008-03-16T11:19:56Z</time>
      </trkpt>
      <trkpt lat="34.371100" lon="-2.641942">
        <ele>906.2</ele>
        <time>2008-03-16T11:20:01Z</time>
      </trkpt>
      <trkpt lat="34.370603" lon="-2.641878">
        <ele>908.1</ele>
        <time>2008-03-16T11:20:04Z</time>
      </trkpt>
      <trkpt lat="34.370118" lon="-2.641792">
        <ele>910.5</ele>
        <time>2008-03-16T11:20:07Z</time>
      </trkpt>
      <trkpt lat="34.369653" lon="-2.641684">
        <ele>912.4</ele>
        <time>2008-03-16T11:20:10Z</time>
      </trkpt>
      <trkpt lat="34.369182" lon="-2.641596">
        <ele>914.4</ele>
        <time>2008-03-16T11:20:13Z</time>
      </trkpt>
      <trkpt lat="34.368716" lon="-2.641551">
        <ele>915.8</ele>
        <time>2008-03-16T11:20:16Z</time>
      </trkpt>
      <trkpt lat="34.368276" lon="-2.641467">
        <ele>917.2</ele>
        <time>2008-03-16T11:20:19Z</time>
      </trkpt>
      <trkpt lat="34.367871" lon="-2.641223">
        <ele>919.2</ele>
        <time>2008-03-16T11:20:22Z</time>
      </trkpt>
      <trkpt lat="34.367491" lon="-2.640895">
        <ele>921.1</ele>
        <time>2008-03-16T11:20:25Z</time>
      </trkpt>
      <trkpt lat="34.367104" lon="-2.640556">
        <ele>923.5</ele>
        <time>2008-03-16T11:20:28Z</time>
      </trkpt>
      <trkpt lat="34.366720" lon="-2.640232">
        <ele>926.8</ele>
        <time>2008-03-16T11:20:31Z</time>
      </trkpt>
      <trkpt lat="34.366256" lon="-2.639842">
        <ele>930.2</ele>
        <time>2008-03-16T11:20:35Z</time>
      </trkpt>
      <trkpt lat="34.365742" lon="-2.639437">
        <ele>933.1</ele>
        <time>2008-03-16T11:20:39Z</time>
      </trkpt>
      <trkpt lat="34.365293" lon="-2.639119">
        <ele>934.1</ele>
        <time>2008-03-16T11:20:42Z</time>
      </trkpt>
      <trkpt lat="34.364804" lon="-2.638784">
        <ele>936.0</ele>
        <time>2008-03-16T11:20:45Z</time>
      </trkpt>
      <trkpt lat="34.364292" lon="-2.638432">
        <ele>937.9</ele>
        <time>2008-03-16T11:20:48Z</time>
      </trkpt>
      <trkpt lat="34.363771" lon="-2.638075">
        <ele>939.3</ele>
        <time>2008-03-16T11:20:51Z</time>
      </trkpt>
      <trkpt lat="34.363243" lon="-2.637714">
        <ele>941.7</ele>
        <time>2008-03-16T11:20:54Z</time>
      </trkpt>
      <trkpt lat="34.362714" lon="-2.637353">
        <ele>944.6</ele>
        <time>2008-03-16T11:20:57Z</time>
      </trkpt>
      <trkpt lat="34.362187" lon="-2.636992">
        <ele>947.5</ele>
        <time>2008-03-16T11:21:00Z</time>
      </trkpt>
      <trkpt lat="34.361662" lon="-2.636622">
        <ele>950.4</ele>
        <time>2008-03-16T11:21:03Z</time>
      </trkpt>
      <trkpt lat="34.361145" lon="-2.636248">
        <ele>951.8</ele>
        <time>2008-03-16T11:21:06Z</time>
      </trkpt>
      <trkpt lat="34.360641" lon="-2.635837">
        <ele>952.8</ele>
        <time>2008-03-16T11:21:09Z</time>
      </trkpt>
      <trkpt lat="34.360173" lon="-2.635368">
        <ele>955.2</ele>
        <time>2008-03-16T11:21:12Z</time>
      </trkpt>
      <trkpt lat="34.359724" lon="-2.634883">
        <ele>957.1</ele>
        <time>2008-03-16T11:21:15Z</time>
      </trkpt>
      <trkpt lat="34.359277" lon="-2.634398">
        <ele>959.1</ele>
        <time>2008-03-16T11:21:18Z</time>
      </trkpt>
      <trkpt lat="34.358827" lon="-2.633914">
        <ele>961.9</ele>
        <time>2008-03-16T11:21:21Z</time>
      </trkpt>
      <trkpt lat="34.358377" lon="-2.633435">
        <ele>965.3</ele>
        <time>2008-03-16T11:21:24Z</time>
      </trkpt>
      <trkpt lat="34.357926" lon="-2.632957">
        <ele>967.7</ele>
        <time>2008-03-16T11:21:27Z</time>
      </trkpt>
      <trkpt lat="34.357481" lon="-2.632474">
        <ele>970.1</ele>
        <time>2008-03-16T11:21:30Z</time>
      </trkpt>
      <trkpt lat="34.357026" lon="-2.632016">
        <ele>972.5</ele>
        <time>2008-03-16T11:21:33Z</time>
      </trkpt>
      <trkpt lat="34.356566" lon="-2.631597">
        <ele>974.4</ele>
        <time>2008-03-16T11:21:36Z</time>
      </trkpt>
      <trkpt lat="34.356113" lon="-2.631198">
        <ele>976.8</ele>
        <time>2008-03-16T11:21:39Z</time>
      </trkpt>
      <trkpt lat="34.355699" lon="-2.630831">
        <ele>979.7</ele>
        <time>2008-03-16T11:21:42Z</time>
      </trkpt>
      <trkpt lat="34.355274" lon="-2.630459">
        <ele>982.6</ele>
        <time>2008-03-16T11:21:45Z</time>
      </trkpt>
      <trkpt lat="34.354838" lon="-2.630067">
        <ele>985.0</ele>
        <time>2008-03-16T11:21:48Z</time>
      </trkpt>
      <trkpt lat="34.354405" lon="-2.629649">
        <ele>988.4</ele>
        <time>2008-03-16T11:21:51Z</time>
      </trkpt>
      <trkpt lat="34.353970" lon="-2.629217">
        <ele>990.8</ele>
        <time>2008-03-16T11:21:54Z</time>
      </trkpt>
      <trkpt lat="34.353532" lon="-2.628778">
        <ele>993.7</ele>
        <time>2008-03-16T11:21:57Z</time>
      </trkpt>
      <trkpt lat="34.353088" lon="-2.628334">
        <ele>996.1</ele>
        <time>2008-03-16T11:22:00Z</time>
      </trkpt>
      <trkpt lat="34.352645" lon="-2.627898">
        <ele>998.5</ele>
        <time>2008-03-16T11:22:03Z</time>
      </trkpt>
      <trkpt lat="34.352217" lon="-2.627444">
        <ele>1000.9</ele>
        <time>2008-03-16T11:22:06Z</time>
      </trkpt>
      <trkpt lat="34.351768" lon="-2.627004">
        <ele>1003.8</ele>
        <time>2008-03-16T11:22:09Z</time>
      </trkpt>
      <trkpt lat="34.351318" lon="-2.626558">
        <ele>1006.2</ele>
        <time>2008-03-16T11:22:12Z</time>
      </trkpt>
      <trkpt lat="34.350882" lon="-2.626096">
        <ele>1008.6</ele>
        <time>2008-03-16T11:22:15Z</time>
      </trkpt>
      <trkpt lat="34.350509" lon="-2.625551">
        <ele>1010.5</ele>
        <time>2008-03-16T11:22:18Z</time>
      </trkpt>
      <trkpt lat="34.350203" lon="-2.624942">
        <ele>1012.9</ele>
        <time>2008-03-16T11:22:21Z</time>
      </trkpt>
      <trkpt lat="34.349912" lon="-2.624332">
        <ele>1015.3</ele>
        <time>2008-03-16T11:22:24Z</time>
      </trkpt>
      <trkpt lat="34.349621" lon="-2.623728">
        <ele>1017.2</ele>
        <time>2008-03-16T11:22:27Z</time>
      </trkpt>
      <trkpt lat="34.349326" lon="-2.623116">
        <ele>1019.6</ele>
        <time>2008-03-16T11:22:30Z</time>
      </trkpt>
      <trkpt lat="34.349039" lon="-2.622486">
        <ele>1021.5</ele>
        <time>2008-03-16T11:22:33Z</time>
      </trkpt>
      <trkpt lat="34.348738" lon="-2.621858">
        <ele>1023.9</ele>
        <time>2008-03-16T11:22:36Z</time>
      </trkpt>
      <trkpt lat="34.348437" lon="-2.621228">
        <ele>1026.8</ele>
        <time>2008-03-16T11:22:39Z</time>
      </trkpt>
      <trkpt lat="34.348136" lon="-2.620597">
        <ele>1029.7</ele>
        <time>2008-03-16T11:22:42Z</time>
      </trkpt>
      <trkpt lat="34.347835" lon="-2.619964">
        <ele>1032.6</ele>
        <time>2008-03-16T11:22:45Z</time>
      </trkpt>
      <trkpt lat="34.347529" lon="-2.619327">
        <ele>1035.0</ele>
        <time>2008-03-16T11:22:48Z</time>
      </trkpt>
      <trkpt lat="34.347221" lon="-2.618686">
        <ele>1037.4</ele>
        <time>2008-03-16T11:22:51Z</time>
      </trkpt>
      <trkpt lat="34.346921" lon="-2.618060">
        <ele>1040.8</ele>
        <time>2008-03-16T11:22:54Z</time>
      </trkpt>
      <trkpt lat="34.346635" lon="-2.617455">
        <ele>1043.2</ele>
        <time>2008-03-16T11:22:57Z</time>
      </trkpt>
      <trkpt lat="34.346390" lon="-2.616889">
        <ele>1046.1</ele>
        <time>2008-03-16T11:23:00Z</time>
      </trkpt>
      <trkpt lat="34.346242" lon="-2.616335">
        <ele>1050.4</ele>
        <time>2008-03-16T11:23:03Z</time>
      </trkpt>
      <trkpt lat="34.346220" lon="-2.615778">
        <ele>1052.8</ele>
        <time>2008-03-16T11:23:06Z</time>
      </trkpt>
      <trkpt lat="34.346237" lon="-2.615218">
        <ele>1054.7</ele>
        <time>2008-03-16T11:23:09Z</time>
      </trkpt>
      <trkpt lat="34.346227" lon="-2.614654">
        <ele>1057.1</ele>
        <time>2008-03-16T11:23:12Z</time>
      </trkpt>
      <trkpt lat="34.346159" lon="-2.614086">
        <ele>1060.0</ele>
        <time>2008-03-16T11:23:15Z</time>
      </trkpt>
      <trkpt lat="34.345965" lon="-2.613557">
        <ele>1062.4</ele>
        <time>2008-03-16T11:23:18Z</time>
      </trkpt>
      <trkpt lat="34.345653" lon="-2.613108">
        <ele>1064.8</ele>
        <time>2008-03-16T11:23:21Z</time>
      </trkpt>
      <trkpt lat="34.345249" lon="-2.612767">
        <ele>1067.2</ele>
        <time>2008-03-16T11:23:24Z</time>
      </trkpt>
      <trkpt lat="34.344816" lon="-2.612452">
        <ele>1069.6</ele>
        <time>2008-03-16T11:23:27Z</time>
      </trkpt>
      <trkpt lat="34.344397" lon="-2.612092">
        <ele>1072.5</ele>
        <time>2008-03-16T11:23:30Z</time>
      </trkpt>
      <trkpt lat="34.344055" lon="-2.611618">
        <ele>1074.9</ele>
        <time>2008-03-16T11:23:33Z</time>
      </trkpt>
      <trkpt lat="34.343849" lon="-2.611023">
        <ele>1078.3</ele>
        <time>2008-03-16T11:23:36Z</time>
      </trkpt>
      <trkpt lat="34.343740" lon="-2.610386">
        <ele>1082.1</ele>
        <time>2008-03-16T11:23:39Z</time>
      </trkpt>
      <trkpt lat="34.343623" lon="-2.609782">
        <ele>1085.0</ele>
        <time>2008-03-16T11:23:42Z</time>
      </trkpt>
      <trkpt lat="34.343402" lon="-2.609231">
        <ele>1087.4</ele>
        <time>2008-03-16T11:23:45Z</time>
      </trkpt>
      <trkpt lat="34.343055" lon="-2.608767">
        <ele>1089.3</ele>
        <time>2008-03-16T11:23:48Z</time>
      </trkpt>
      <trkpt lat="34.342645" lon="-2.608355">
        <ele>1091.2</ele>
        <time>2008-03-16T11:23:51Z</time>
      </trkpt>
      <trkpt lat="34.342222" lon="-2.607935">
        <ele>1094.1</ele>
        <time>2008-03-16T11:23:54Z</time>
      </trkpt>
      <trkpt lat="34.341789" lon="-2.607517">
        <ele>1097.5</ele>
        <time>2008-03-16T11:23:57Z</time>
      </trkpt>
      <trkpt lat="34.341338" lon="-2.607130">
        <ele>1100.4</ele>
        <time>2008-03-16T11:24:00Z</time>
      </trkpt>
      <trkpt lat="34.340868" lon="-2.606780">
        <ele>1104.2</ele>
        <time>2008-03-16T11:24:03Z</time>
      </trkpt>
      <trkpt lat="34.340386" lon="-2.606429">
        <ele>1107.6</ele>
        <time>2008-03-16T11:24:06Z</time>
      </trkpt>
      <trkpt lat="34.339900" lon="-2.606071">
        <ele>1110.9</ele>
        <time>2008-03-16T11:24:09Z</time>
      </trkpt>
      <trkpt lat="34.339413" lon="-2.605712">
        <ele>1114.8</ele>
        <time>2008-03-16T11:24:12Z</time>
      </trkpt>
      <trkpt lat="34.338919" lon="-2.605361">
        <ele>1118.2</ele>
        <time>2008-03-16T11:24:15Z</time>
      </trkpt>
      <trkpt lat="34.338416" lon="-2.604999">
        <ele>1121.5</ele>
        <time>2008-03-16T11:24:18Z</time>
      </trkpt>
      <trkpt lat="34.337904" lon="-2.604634">
        <ele>1124.4</ele>
        <time>2008-03-16T11:24:21Z</time>
      </trkpt>
      <trkpt lat="34.337412" lon="-2.604285">
        <ele>1130.2</ele>
        <time>2008-03-16T11:24:24Z</time>
      </trkpt>
      <trkpt lat="34.337025" lon="-2.603951">
        <ele>1134.5</ele>
        <time>2008-03-16T11:24:27Z</time>
      </trkpt>
      <trkpt lat="34.336826" lon="-2.603351">
        <ele>1138.8</ele>
        <time>2008-03-16T11:24:31Z</time>
      </trkpt>
      <trkpt lat="34.336742" lon="-2.602629">
        <ele>1142.7</ele>
        <time>2008-03-16T11:24:35Z</time>
      </trkpt>
      <trkpt lat="34.336662" lon="-2.601998">
        <ele>1145.5</ele>
        <time>2008-03-16T11:24:39Z</time>
      </trkpt>
      <trkpt lat="34.336571" lon="-2.601364">
        <ele>1147.0</ele>
        <time>2008-03-16T11:24:44Z</time>
      </trkpt>
      <trkpt lat="34.336324" lon="-2.600749">
        <ele>1151.3</ele>
        <time>2008-03-16T11:24:49Z</time>
      </trkpt>
      <trkpt lat="34.335951" lon="-2.600355">
        <ele>1155.6</ele>
        <time>2008-03-16T11:24:53Z</time>
      </trkpt>
      <trkpt lat="34.335512" lon="-2.600009">
        <ele>1159.5</ele>
        <time>2008-03-16T11:24:57Z</time>
      </trkpt>
      <trkpt lat="34.335052" lon="-2.599641">
        <ele>1164.8</ele>
        <time>2008-03-16T11:25:01Z</time>
      </trkpt>
      <trkpt lat="34.334592" lon="-2.599316">
        <ele>1171.0</ele>
        <time>2008-03-16T11:25:05Z</time>
      </trkpt>
      <trkpt lat="34.334087" lon="-2.599350">
        <ele>1175.3</ele>
        <time>2008-03-16T11:25:09Z</time>
      </trkpt>
      <trkpt lat="34.333530" lon="-2.599490">
        <ele>1179.7</ele>
        <time>2008-03-16T11:25:13Z</time>
      </trkpt>
      <trkpt lat="34.332972" lon="-2.599549">
        <ele>1183.5</ele>
        <time>2008-03-16T11:25:17Z</time>
      </trkpt>
      <trkpt lat="34.332472" lon="-2.599637">
        <ele>1186.4</ele>
        <time>2008-03-16T11:25:21Z</time>
      </trkpt>
      <trkpt lat="34.332072" lon="-2.599965">
        <ele>1190.2</ele>
        <time>2008-03-16T11:25:25Z</time>
      </trkpt>
      <trkpt lat="34.331625" lon="-2.599861">
        <ele>1195.1</ele>
        <time>2008-03-16T11:25:29Z</time>
      </trkpt>
      <trkpt lat="34.331290" lon="-2.599515">
        <ele>1197.5</ele>
        <time>2008-03-16T11:25:33Z</time>
      </trkpt>
      <trkpt lat="34.330883" lon="-2.599725">
        <ele>1200.8</ele>
        <time>2008-03-16T11:25:38Z</time>
      </trkpt>
      <trkpt lat="34.330438" lon="-2.600080">
        <ele>1204.2</ele>
        <time>2008-03-16T11:25:43Z</time>
      </trkpt>
      <trkpt lat="34.329967" lon="-2.600025">
        <ele>1205.6</ele>
        <time>2008-03-16T11:25:47Z</time>
      </trkpt>
      <trkpt lat="34.329537" lon="-2.599762">
        <ele>1211.4</ele>
        <time>2008-03-16T11:25:53Z</time>
      </trkpt>
      <trkpt lat="34.329092" lon="-2.599524">
        <ele>1217.2</ele>
        <time>2008-03-16T11:25:59Z</time>
      </trkpt>
      <trkpt lat="34.328597" lon="-2.599705">
        <ele>1222.0</ele>
        <time>2008-03-16T11:26:04Z</time>
      </trkpt>
      <trkpt lat="34.328279" lon="-2.600254">
        <ele>1224.4</ele>
        <time>2008-03-16T11:26:09Z</time>
      </trkpt>
      <trkpt lat="34.327841" lon="-2.600452">
        <ele>1227.7</ele>
        <time>2008-03-16T11:26:13Z</time>
      </trkpt>
      <trkpt lat="34.327339" lon="-2.600411">
        <ele>1231.6</ele>
        <time>2008-03-16T11:26:17Z</time>
      </trkpt>
      <trkpt lat="34.326847" lon="-2.600394">
        <ele>1235.0</ele>
        <time>2008-03-16T11:26:21Z</time>
      </trkpt>
      <trkpt lat="34.326471" lon="-2.600753">
        <ele>1239.8</ele>
        <time>2008-03-16T11:26:25Z</time>
      </trkpt>
      <trkpt lat="34.326191" lon="-2.601253">
        <ele>1245.0</ele>
        <time>2008-03-16T11:26:29Z</time>
      </trkpt>
      <trkpt lat="34.325904" lon="-2.601706">
        <ele>1251.8</ele>
        <time>2008-03-16T11:26:33Z</time>
      </trkpt>
      <trkpt lat="34.325433" lon="-2.601537">
        <ele>1257.5</ele>
        <time>2008-03-16T11:26:38Z</time>
      </trkpt>
      <trkpt lat="34.325004" lon="-2.601357">
        <ele>1261.9</ele>
        <time>2008-03-16T11:26:42Z</time>
      </trkpt>
      <trkpt lat="34.324535" lon="-2.601515">
        <ele>1265.7</ele>
        <time>2008-03-16T11:26:46Z</time>
      </trkpt>
      <trkpt lat="34.324045" lon="-2.601800">
        <ele>1270.5</ele>
        <time>2008-03-16T11:26:50Z</time>
      </trkpt>
      <trkpt lat="34.323610" lon="-2.602249">
        <ele>1275.8</ele>
        <time>2008-03-16T11:26:54Z</time>
      </trkpt>
      <trkpt lat="34.323386" lon="-2.602805">
        <ele>1281.6</ele>
        <time>2008-03-16T11:26:58Z</time>
      </trkpt>
      <trkpt lat="34.323269" lon="-2.603399">
        <ele>1284.5</ele>
        <time>2008-03-16T11:27:03Z</time>
      </trkpt>
      <trkpt lat="34.322772" lon="-2.603690">
        <ele>1289.3</ele>
        <time>2008-03-16T11:27:08Z</time>
      </trkpt>
      <trkpt lat="34.322378" lon="-2.604015">
        <ele>1293.6</ele>
        <time>2008-03-16T11:27:12Z</time>
      </trkpt>
      <trkpt lat="34.322157" lon="-2.604427">
        <ele>1297.4</ele>
        <time>2008-03-16T11:27:20Z</time>
      </trkpt>
      <trkpt lat="34.321866" lon="-2.604894">
        <ele>1301.3</ele>
        <time>2008-03-16T11:29:34Z</time>
      </trkpt>
      <trkpt lat="34.321448" lon="-2.605243">
        <ele>1306.6</ele>
        <time>2008-03-16T11:29:42Z</time>
      </trkpt>
      <trkpt lat="34.320982" lon="-2.605587">
        <ele>1311.9</ele>
        <time>2008-03-16T11:29:48Z</time>
      </trkpt>
      <trkpt lat="34.320730" lon="-2.606037">
        <ele>1315.7</ele>
        <time>2008-03-16T11:29:53Z</time>
      </trkpt>
      <trkpt lat="34.320706" lon="-2.606576">
        <ele>1318.6</ele>
        <time>2008-03-16T11:29:58Z</time>
      </trkpt>
      <trkpt lat="34.320256" lon="-2.606771">
        <ele>1323.9</ele>
        <time>2008-03-16T11:30:04Z</time>
      </trkpt>
      <trkpt lat="34.319786" lon="-2.606923">
        <ele>1328.7</ele>
        <time>2008-03-16T11:30:09Z</time>
      </trkpt>
      <trkpt lat="34.319553" lon="-2.607356">
        <ele>1333.0</ele>
        <time>2008-03-16T11:30:14Z</time>
      </trkpt>
      <trkpt lat="34.319496" lon="-2.607901">
        <ele>1336.4</ele>
        <time>2008-03-16T11:30:19Z</time>
      </trkpt>
      <trkpt lat="34.319268" lon="-2.608421">
        <ele>1340.2</ele>
        <time>2008-03-16T11:30:24Z</time>
      </trkpt>
      <trkpt lat="34.318815" lon="-2.608460">
        <ele>1344.5</ele>
        <time>2008-03-16T11:30:29Z</time>
      </trkpt>
      <trkpt lat="34.318291" lon="-2.608255">
        <ele>1349.8</ele>
        <time>2008-03-16T11:30:34Z</time>
      </trkpt>
      <trkpt lat="34.317753" lon="-2.608088">
        <ele>1354.2</ele>
        <time>2008-03-16T11:30:39Z</time>
      </trkpt>
      <trkpt lat="34.317351" lon="-2.608340">
        <ele>1357.5</ele>
        <time>2008-03-16T11:30:43Z</time>
      </trkpt>
      <trkpt lat="34.316934" lon="-2.608559">
        <ele>1361.4</ele>
        <time>2008-03-16T11:30:47Z</time>
      </trkpt>
      <trkpt lat="34.316488" lon="-2.608582">
        <ele>1365.2</ele>
        <time>2008-03-16T11:30:51Z</time>
      </trkpt>
      <trkpt lat="34.316081" lon="-2.608988">
        <ele>1369.1</ele>
        <time>2008-03-16T11:30:56Z</time>
      </trkpt>
      <trkpt lat="34.315907" lon="-2.609560">
        <ele>1371.9</ele>
        <time>2008-03-16T11:31:00Z</time>
      </trkpt>
      <trkpt lat="34.315732" lon="-2.610053">
        <ele>1375.3</ele>
        <time>2008-03-16T11:31:04Z</time>
      </trkpt>
      <trkpt lat="34.315285" lon="-2.610175">
        <ele>1376.3</ele>
        <time>2008-03-16T11:31:10Z</time>
      </trkpt>
      <trkpt lat="34.314811" lon="-2.609935">
        <ele>1375.8</ele>
        <time>2008-03-16T11:31:16Z</time>
      </trkpt>
      <trkpt lat="34.314328" lon="-2.609918">
        <ele>1374.8</ele>
        <time>2008-03-16T11:31:21Z</time>
      </trkpt>
      <trkpt lat="34.313924" lon="-2.610209">
        <ele>1373.4</ele>
        <time>2008-03-16T11:31:25Z</time>
      </trkpt>
      <trkpt lat="34.313579" lon="-2.610585">
        <ele>1370.5</ele>
        <time>2008-03-16T11:31:29Z</time>
      </trkpt>
      <trkpt lat="34.313046" lon="-2.610686">
        <ele>1367.6</ele>
        <time>2008-03-16T11:31:34Z</time>
      </trkpt>
      <trkpt lat="34.312557" lon="-2.610720">
        <ele>1365.2</ele>
        <time>2008-03-16T11:31:38Z</time>
      </trkpt>
      <trkpt lat="34.312049" lon="-2.610947">
        <ele>1362.3</ele>
        <time>2008-03-16T11:31:42Z</time>
      </trkpt>
      <trkpt lat="34.311521" lon="-2.611214">
        <ele>1359.9</ele>
        <time>2008-03-16T11:31:46Z</time>
      </trkpt>
      <trkpt lat="34.311003" lon="-2.611452">
        <ele>1356.1</ele>
        <time>2008-03-16T11:31:50Z</time>
      </trkpt>
      <trkpt lat="34.310546" lon="-2.611562">
        <ele>1354.2</ele>
        <time>2008-03-16T11:31:54Z</time>
      </trkpt>
      <trkpt lat="34.310035" lon="-2.611315">
        <ele>1350.3</ele>
        <time>2008-03-16T11:31:59Z</time>
      </trkpt>
      <trkpt lat="34.309561" lon="-2.611061">
        <ele>1347.4</ele>
        <time>2008-03-16T11:32:03Z</time>
      </trkpt>
      <trkpt lat="34.308455" lon="-2.610721">
        <ele>1345.5</ele>
        <time>2008-03-16T11:32:11Z</time>
      </trkpt>
      <trkpt lat="34.307859" lon="-2.610670">
        <ele>1342.6</ele>
        <time>2008-03-16T11:32:15Z</time>
      </trkpt>
      <trkpt lat="34.307274" lon="-2.610510">
        <ele>1341.7</ele>
        <time>2008-03-16T11:32:19Z</time>
      </trkpt>
      <trkpt lat="34.306851" lon="-2.610329">
        <ele>1337.8</ele>
        <time>2008-03-16T11:32:22Z</time>
      </trkpt>
      <trkpt lat="34.306291" lon="-2.610017">
        <ele>1337.3</ele>
        <time>2008-03-16T11:32:26Z</time>
      </trkpt>
      <trkpt lat="34.305869" lon="-2.609781">
        <ele>1336.4</ele>
        <time>2008-03-16T11:32:29Z</time>
      </trkpt>
      <trkpt lat="34.305342" lon="-2.609589">
        <ele>1335.4</ele>
        <time>2008-03-16T11:32:33Z</time>
      </trkpt>
      <trkpt lat="34.304828" lon="-2.609612">
        <ele>1334.4</ele>
        <time>2008-03-16T11:32:37Z</time>
      </trkpt>
      <trkpt lat="34.304314" lon="-2.609344">
        <ele>1333.5</ele>
        <time>2008-03-16T11:32:41Z</time>
      </trkpt>
      <trkpt lat="34.303768" lon="-2.609047">
        <ele>1331.6</ele>
        <time>2008-03-16T11:32:45Z</time>
      </trkpt>
      <trkpt lat="34.303341" lon="-2.608849">
        <ele>1330.6</ele>
        <time>2008-03-16T11:32:48Z</time>
      </trkpt>
      <trkpt lat="34.302900" lon="-2.608633">
        <ele>1328.7</ele>
        <time>2008-03-16T11:32:51Z</time>
      </trkpt>
      <trkpt lat="34.302445" lon="-2.608363">
        <ele>1326.8</ele>
        <time>2008-03-16T11:32:54Z</time>
      </trkpt>
      <trkpt lat="34.301995" lon="-2.608038">
        <ele>1325.3</ele>
        <time>2008-03-16T11:32:57Z</time>
      </trkpt>
      <trkpt lat="34.301588" lon="-2.607706">
        <ele>1319.5</ele>
        <time>2008-03-16T11:33:00Z</time>
      </trkpt>
      <trkpt lat="34.301167" lon="-2.607424">
        <ele>1314.7</ele>
        <time>2008-03-16T11:33:03Z</time>
      </trkpt>
      <trkpt lat="34.300696" lon="-2.607259">
        <ele>1311.4</ele>
        <time>2008-03-16T11:33:06Z</time>
      </trkpt>
      <trkpt lat="34.300189" lon="-2.607238">
        <ele>1309.0</ele>
        <time>2008-03-16T11:33:09Z</time>
      </trkpt>
      <trkpt lat="34.299683" lon="-2.607267">
        <ele>1307.0</ele>
        <time>2008-03-16T11:33:12Z</time>
      </trkpt>
      <trkpt lat="34.299191" lon="-2.607371">
        <ele>1303.7</ele>
        <time>2008-03-16T11:33:15Z</time>
      </trkpt>
      <trkpt lat="34.298698" lon="-2.607452">
        <ele>1300.8</ele>
        <time>2008-03-16T11:33:18Z</time>
      </trkpt>
      <trkpt lat="34.298206" lon="-2.607444">
        <ele>1298.4</ele>
        <time>2008-03-16T11:33:21Z</time>
      </trkpt>
      <trkpt lat="34.297733" lon="-2.607566">
        <ele>1295.5</ele>
        <time>2008-03-16T11:33:24Z</time>
      </trkpt>
      <trkpt lat="34.297275" lon="-2.607732">
        <ele>1292.6</ele>
        <time>2008-03-16T11:33:27Z</time>
      </trkpt>
      <trkpt lat="34.296807" lon="-2.607739">
        <ele>1290.7</ele>
        <time>2008-03-16T11:33:30Z</time>
      </trkpt>
      <trkpt lat="34.296358" lon="-2.607600">
        <ele>1288.3</ele>
        <time>2008-03-16T11:33:33Z</time>
      </trkpt>
      <trkpt lat="34.295896" lon="-2.607407">
        <ele>1287.3</ele>
        <time>2008-03-16T11:33:36Z</time>
      </trkpt>
      <trkpt lat="34.295396" lon="-2.607178">
        <ele>1283.5</ele>
        <time>2008-03-16T11:33:40Z</time>
      </trkpt>
      <trkpt lat="34.294956" lon="-2.607001">
        <ele>1280.1</ele>
        <time>2008-03-16T11:33:45Z</time>
      </trkpt>
      <trkpt lat="34.294496" lon="-2.606822">
        <ele>1277.7</ele>
        <time>2008-03-16T11:33:50Z</time>
      </trkpt>
      <trkpt lat="34.293980" lon="-2.606731">
        <ele>1275.3</ele>
        <time>2008-03-16T11:33:55Z</time>
      </trkpt>
      <trkpt lat="34.293411" lon="-2.606714">
        <ele>1272.9</ele>
        <time>2008-03-16T11:34:00Z</time>
      </trkpt>
      <trkpt lat="34.292906" lon="-2.606586">
        <ele>1269.1</ele>
        <time>2008-03-16T11:34:05Z</time>
      </trkpt>
      <trkpt lat="34.292517" lon="-2.606204">
        <ele>1264.8</ele>
        <time>2008-03-16T11:34:11Z</time>
      </trkpt>
      <trkpt lat="34.292552" lon="-2.605604">
        <ele>1262.3</ele>
        <time>2008-03-16T11:34:20Z</time>
      </trkpt>
      <trkpt lat="34.292581" lon="-2.604972">
        <ele>1259.0</ele>
        <time>2008-03-16T11:34:28Z</time>
      </trkpt>
      <trkpt lat="34.292700" lon="-2.604418">
        <ele>1258.0</ele>
        <time>2008-03-16T11:34:33Z</time>
      </trkpt>
      <trkpt lat="34.292811" lon="-2.603804">
        <ele>1255.6</ele>
        <time>2008-03-16T11:34:38Z</time>
      </trkpt>
      <trkpt lat="34.292803" lon="-2.603148">
        <ele>1252.7</ele>
        <time>2008-03-16T11:34:43Z</time>
      </trkpt>
      <trkpt lat="34.292631" lon="-2.602624">
        <ele>1248.4</ele>
        <time>2008-03-16T11:34:47Z</time>
      </trkpt>
      <trkpt lat="34.292335" lon="-2.602136">
        <ele>1242.6</ele>
        <time>2008-03-16T11:34:51Z</time>
      </trkpt>
      <trkpt lat="34.291963" lon="-2.601763">
        <ele>1239.8</ele>
        <time>2008-03-16T11:34:55Z</time>
      </trkpt>
      <trkpt lat="34.291490" lon="-2.601632">
        <ele>1237.8</ele>
        <time>2008-03-16T11:34:59Z</time>
      </trkpt>
      <trkpt lat="34.290992" lon="-2.601674">
        <ele>1235.4</ele>
        <time>2008-03-16T11:35:03Z</time>
      </trkpt>
      <trkpt lat="34.290517" lon="-2.601608">
        <ele>1231.6</ele>
        <time>2008-03-16T11:35:07Z</time>
      </trkpt>
      <trkpt lat="34.290069" lon="-2.601375">
        <ele>1227.7</ele>
        <time>2008-03-16T11:35:11Z</time>
      </trkpt>
      <trkpt lat="34.289673" lon="-2.601071">
        <ele>1225.3</ele>
        <time>2008-03-16T11:35:15Z</time>
      </trkpt>
      <trkpt lat="34.289379" lon="-2.600624">
        <ele>1222.0</ele>
        <time>2008-03-16T11:35:19Z</time>
      </trkpt>
      <trkpt lat="34.289255" lon="-2.600100">
        <ele>1221.0</ele>
        <time>2008-03-16T11:35:23Z</time>
      </trkpt>
      <trkpt lat="34.289174" lon="-2.599526">
        <ele>1219.6</ele>
        <time>2008-03-16T11:35:28Z</time>
      </trkpt>
      <trkpt lat="34.289086" lon="-2.598945">
        <ele>1219.1</ele>
        <time>2008-03-16T11:35:32Z</time>
      </trkpt>
      <trkpt lat="34.288995" lon="-2.598280">
        <ele>1218.6</ele>
        <time>2008-03-16T11:35:36Z</time>
      </trkpt>
      <trkpt lat="34.288913" lon="-2.597659">
        <ele>1218.6</ele>
        <time>2008-03-16T11:35:40Z</time>
      </trkpt>
      <trkpt lat="34.288986" lon="-2.597131">
        <ele>1217.6</ele>
        <time>2008-03-16T11:35:44Z</time>
      </trkpt>
      <trkpt lat="34.288864" lon="-2.596602">
        <ele>1214.8</ele>
        <time>2008-03-16T11:35:49Z</time>
      </trkpt>
      <trkpt lat="34.288624" lon="-2.596110">
        <ele>1210.0</ele>
        <time>2008-03-16T11:35:53Z</time>
      </trkpt>
      <trkpt lat="34.288599" lon="-2.595512">
        <ele>1208.5</ele>
        <time>2008-03-16T11:35:57Z</time>
      </trkpt>
      <trkpt lat="34.288859" lon="-2.594980">
        <ele>1209.5</ele>
        <time>2008-03-16T11:36:01Z</time>
      </trkpt>
      <trkpt lat="34.289190" lon="-2.594449">
        <ele>1212.4</ele>
        <time>2008-03-16T11:36:05Z</time>
      </trkpt>
      <trkpt lat="34.289511" lon="-2.593945">
        <ele>1214.3</ele>
        <time>2008-03-16T11:36:09Z</time>
      </trkpt>
      <trkpt lat="34.289592" lon="-2.593424">
        <ele>1216.2</ele>
        <time>2008-03-16T11:36:13Z</time>
      </trkpt>
      <trkpt lat="34.289387" lon="-2.592908">
        <ele>1216.7</ele>
        <time>2008-03-16T11:36:17Z</time>
      </trkpt>
      <trkpt lat="34.289118" lon="-2.592453">
        <ele>1216.7</ele>
        <time>2008-03-16T11:36:21Z</time>
      </trkpt>
      <trkpt lat="34.288815" lon="-2.592009">
        <ele>1217.2</ele>
        <time>2008-03-16T11:36:25Z</time>
      </trkpt>
      <trkpt lat="34.288486" lon="-2.591518">
        <ele>1220.5</ele>
        <time>2008-03-16T11:36:29Z</time>
      </trkpt>
      <trkpt lat="34.288120" lon="-2.590992">
        <ele>1222.5</ele>
        <time>2008-03-16T11:36:33Z</time>
      </trkpt>
      <trkpt lat="34.287742" lon="-2.590446">
        <ele>1223.9</ele>
        <time>2008-03-16T11:36:37Z</time>
      </trkpt>
      <trkpt lat="34.287499" lon="-2.589802">
        <ele>1229.7</ele>
        <time>2008-03-16T11:36:41Z</time>
      </trkpt>
      <trkpt lat="34.287266" lon="-2.589162">
        <ele>1233.5</ele>
        <time>2008-03-16T11:36:45Z</time>
      </trkpt>
      <trkpt lat="34.286906" lon="-2.588583">
        <ele>1236.4</ele>
        <time>2008-03-16T11:36:49Z</time>
      </trkpt>
      <trkpt lat="34.286657" lon="-2.588109">
        <ele>1237.8</ele>
        <time>2008-03-16T11:36:52Z</time>
      </trkpt>
      <trkpt lat="34.286516" lon="-2.587576">
        <ele>1243.6</ele>
        <time>2008-03-16T11:36:55Z</time>
      </trkpt>
      <trkpt lat="34.286495" lon="-2.586985">
        <ele>1249.4</ele>
        <time>2008-03-16T11:36:58Z</time>
      </trkpt>
      <trkpt lat="34.286502" lon="-2.586362">
        <ele>1254.7</ele>
        <time>2008-03-16T11:37:01Z</time>
      </trkpt>
      <trkpt lat="34.286553" lon="-2.585767">
        <ele>1259.5</ele>
        <time>2008-03-16T11:37:04Z</time>
      </trkpt>
      <trkpt lat="34.286670" lon="-2.585200">
        <ele>1262.3</ele>
        <time>2008-03-16T11:37:07Z</time>
      </trkpt>
      <trkpt lat="34.286815" lon="-2.584620">
        <ele>1264.8</ele>
        <time>2008-03-16T11:37:10Z</time>
      </trkpt>
      <trkpt lat="34.287016" lon="-2.584079">
        <ele>1266.2</ele>
        <time>2008-03-16T11:37:13Z</time>
      </trkpt>
      <trkpt lat="34.287275" lon="-2.583542">
        <ele>1268.1</ele>
        <time>2008-03-16T11:37:16Z</time>
      </trkpt>
      <trkpt lat="34.287537" lon="-2.582994">
        <ele>1271.0</ele>
        <time>2008-03-16T11:37:19Z</time>
      </trkpt>
      <trkpt lat="34.287819" lon="-2.582439">
        <ele>1276.3</ele>
        <time>2008-03-16T11:37:22Z</time>
      </trkpt>
      <trkpt lat="34.288109" lon="-2.581885">
        <ele>1281.1</ele>
        <time>2008-03-16T11:37:25Z</time>
      </trkpt>
      <trkpt lat="34.288379" lon="-2.581340">
        <ele>1284.5</ele>
        <time>2008-03-16T11:37:28Z</time>
      </trkpt>
      <trkpt lat="34.288678" lon="-2.580798">
        <ele>1287.8</ele>
        <time>2008-03-16T11:37:31Z</time>
      </trkpt>
      <trkpt lat="34.288991" lon="-2.580259">
        <ele>1295.0</ele>
        <time>2008-03-16T11:37:34Z</time>
      </trkpt>
      <trkpt lat="34.289299" lon="-2.579725">
        <ele>1301.3</ele>
        <time>2008-03-16T11:37:37Z</time>
      </trkpt>
      <trkpt lat="34.289592" lon="-2.579205">
        <ele>1305.1</ele>
        <time>2008-03-16T11:37:40Z</time>
      </trkpt>
      <trkpt lat="34.289778" lon="-2.578683">
        <ele>1308.0</ele>
        <time>2008-03-16T11:37:43Z</time>
      </trkpt>
      <trkpt lat="34.289868" lon="-2.578137">
        <ele>1313.3</ele>
        <time>2008-03-16T11:37:46Z</time>
      </trkpt>
      <trkpt lat="34.289908" lon="-2.577560">
        <ele>1320.5</ele>
        <time>2008-03-16T11:37:49Z</time>
      </trkpt>
      <trkpt lat="34.289934" lon="-2.576992">
        <ele>1327.2</ele>
        <time>2008-03-16T11:37:52Z</time>
      </trkpt>
      <trkpt lat="34.290062" lon="-2.576457">
        <ele>1332.0</ele>
        <time>2008-03-16T11:37:55Z</time>
      </trkpt>
      <trkpt lat="34.290428" lon="-2.576067">
        <ele>1337.3</ele>
        <time>2008-03-16T11:37:59Z</time>
      </trkpt>
      <trkpt lat="34.290867" lon="-2.575922">
        <ele>1345.0</ele>
        <time>2008-03-16T11:38:03Z</time>
      </trkpt>
      <trkpt lat="34.291077" lon="-2.575392">
        <ele>1354.2</ele>
        <time>2008-03-16T11:38:08Z</time>
      </trkpt>
      <trkpt lat="34.290964" lon="-2.574848">
        <ele>1360.4</ele>
        <time>2008-03-16T11:38:12Z</time>
      </trkpt>
      <trkpt lat="34.290814" lon="-2.574313">
        <ele>1365.2</ele>
        <time>2008-03-16T11:38:16Z</time>
      </trkpt>
      <trkpt lat="34.290833" lon="-2.573765">
        <ele>1366.2</ele>
        <time>2008-03-16T11:38:20Z</time>
      </trkpt>
      <trkpt lat="34.291065" lon="-2.573203">
        <ele>1367.6</ele>
        <time>2008-03-16T11:38:25Z</time>
      </trkpt>
      <trkpt lat="34.291431" lon="-2.572746">
        <ele>1366.2</ele>
        <time>2008-03-16T11:38:30Z</time>
      </trkpt>
      <trkpt lat="34.291588" lon="-2.572126">
        <ele>1363.3</ele>
        <time>2008-03-16T11:38:35Z</time>
      </trkpt>
      <trkpt lat="34.291796" lon="-2.571562">
        <ele>1358.5</ele>
        <time>2008-03-16T11:38:40Z</time>
      </trkpt>
      <trkpt lat="34.292244" lon="-2.571473">
        <ele>1354.2</ele>
        <time>2008-03-16T11:38:44Z</time>
      </trkpt>
      <trkpt lat="34.292784" lon="-2.571552">
        <ele>1347.9</ele>
        <time>2008-03-16T11:38:48Z</time>
      </trkpt>
      <trkpt lat="34.293248" lon="-2.571712">
        <ele>1345.0</ele>
        <time>2008-03-16T11:38:53Z</time>
      </trkpt>
      <trkpt lat="34.293218" lon="-2.572278">
        <ele>1343.1</ele>
        <time>2008-03-16T11:38:58Z</time>
      </trkpt>
      <trkpt lat="34.293277" lon="-2.572742">
        <ele>1341.7</ele>
        <time>2008-03-16T11:39:04Z</time>
      </trkpt>
      <trkpt lat="34.293598" lon="-2.572288">
        <ele>1338.3</ele>
        <time>2008-03-16T11:39:10Z</time>
      </trkpt>
      <trkpt lat="34.293883" lon="-2.571839">
        <ele>1336.4</ele>
        <time>2008-03-16T11:39:14Z</time>
      </trkpt>
      <trkpt lat="34.294176" lon="-2.571356">
        <ele>1334.0</ele>
        <time>2008-03-16T11:39:18Z</time>
      </trkpt>
      <trkpt lat="34.294294" lon="-2.570777">
        <ele>1332.0</ele>
        <time>2008-03-16T11:39:22Z</time>
      </trkpt>
      <trkpt lat="34.294001" lon="-2.570207">
        <ele>1330.1</ele>
        <time>2008-03-16T11:39:26Z</time>
      </trkpt>
      <trkpt lat="34.293633" lon="-2.569642">
        <ele>1325.3</ele>
        <time>2008-03-16T11:39:30Z</time>
      </trkpt>
      <trkpt lat="34.293274" lon="-2.569074">
        <ele>1320.0</ele>
        <time>2008-03-16T11:39:34Z</time>
      </trkpt>
      <trkpt lat="34.292933" lon="-2.568546">
        <ele>1313.8</ele>
        <time>2008-03-16T11:39:38Z</time>
      </trkpt>
      <trkpt lat="34.292578" lon="-2.568081">
        <ele>1312.3</ele>
        <time>2008-03-16T11:39:42Z</time>
      </trkpt>
      <trkpt lat="34.292109" lon="-2.567714">
        <ele>1309.5</ele>
        <time>2008-03-16T11:39:46Z</time>
      </trkpt>
      <trkpt lat="34.291593" lon="-2.567474">
        <ele>1307.5</ele>
        <time>2008-03-16T11:39:50Z</time>
      </trkpt>
      <trkpt lat="34.291069" lon="-2.567276">
        <ele>1303.2</ele>
        <time>2008-03-16T11:39:54Z</time>
      </trkpt>
      <trkpt lat="34.290589" lon="-2.567138">
        <ele>1300.8</ele>
        <time>2008-03-16T11:39:58Z</time>
      </trkpt>
      <trkpt lat="34.290108" lon="-2.567004">
        <ele>1299.4</ele>
        <time>2008-03-16T11:40:03Z</time>
      </trkpt>
      <trkpt lat="34.289661" lon="-2.566775">
        <ele>1297.9</ele>
        <time>2008-03-16T11:40:08Z</time>
      </trkpt>
      <trkpt lat="34.289328" lon="-2.566344">
        <ele>1294.6</ele>
        <time>2008-03-16T11:40:12Z</time>
      </trkpt>
      <trkpt lat="34.288889" lon="-2.565886">
        <ele>1291.7</ele>
        <time>2008-03-16T11:40:16Z</time>
      </trkpt>
      <trkpt lat="34.288491" lon="-2.565584">
        <ele>1289.7</ele>
        <time>2008-03-16T11:40:19Z</time>
      </trkpt>
      <trkpt lat="34.288075" lon="-2.565300">
        <ele>1287.3</ele>
        <time>2008-03-16T11:40:22Z</time>
      </trkpt>
      <trkpt lat="34.287652" lon="-2.565033">
        <ele>1284.9</ele>
        <time>2008-03-16T11:40:25Z</time>
      </trkpt>
      <trkpt lat="34.287223" lon="-2.564775">
        <ele>1281.6</ele>
        <time>2008-03-16T11:40:28Z</time>
      </trkpt>
      <trkpt lat="34.286790" lon="-2.564523">
        <ele>1279.2</ele>
        <time>2008-03-16T11:40:31Z</time>
      </trkpt>
      <trkpt lat="34.286329" lon="-2.564378">
        <ele>1277.7</ele>
        <time>2008-03-16T11:40:34Z</time>
      </trkpt>
      <trkpt lat="34.285859" lon="-2.564437">
        <ele>1275.8</ele>
        <time>2008-03-16T11:40:37Z</time>
      </trkpt>
      <trkpt lat="34.285403" lon="-2.564566">
        <ele>1272.9</ele>
        <time>2008-03-16T11:40:40Z</time>
      </trkpt>
      <trkpt lat="34.284859" lon="-2.564891">
        <ele>1270.5</ele>
        <time>2008-03-16T11:40:44Z</time>
      </trkpt>
      <trkpt lat="34.284356" lon="-2.565293">
        <ele>1268.1</ele>
        <time>2008-03-16T11:40:48Z</time>
      </trkpt>
      <trkpt lat="34.283985" lon="-2.565626">
        <ele>1262.3</ele>
        <time>2008-03-16T11:40:51Z</time>
      </trkpt>
      <trkpt lat="34.283592" lon="-2.565994">
        <ele>1257.1</ele>
        <time>2008-03-16T11:40:54Z</time>
      </trkpt>
      <trkpt lat="34.283215" lon="-2.566331">
        <ele>1252.7</ele>
        <time>2008-03-16T11:40:57Z</time>
      </trkpt>
      <trkpt lat="34.282867" lon="-2.566796">
        <ele>1249.4</ele>
        <time>2008-03-16T11:41:01Z</time>
      </trkpt>
      <trkpt lat="34.282706" lon="-2.567359">
        <ele>1246.5</ele>
        <time>2008-03-16T11:41:05Z</time>
      </trkpt>
      <trkpt lat="34.282468" lon="-2.567910">
        <ele>1245.5</ele>
        <time>2008-03-16T11:41:09Z</time>
      </trkpt>
      <trkpt lat="34.282034" lon="-2.568287">
        <ele>1242.2</ele>
        <time>2008-03-16T11:41:13Z</time>
      </trkpt>
      <trkpt lat="34.281599" lon="-2.568721">
        <ele>1235.9</ele>
        <time>2008-03-16T11:41:17Z</time>
      </trkpt>
      <trkpt lat="34.281245" lon="-2.569253">
        <ele>1233.0</ele>
        <time>2008-03-16T11:41:21Z</time>
      </trkpt>
      <trkpt lat="34.280772" lon="-2.569588">
        <ele>1230.1</ele>
        <time>2008-03-16T11:41:25Z</time>
      </trkpt>
      <trkpt lat="34.280282" lon="-2.569761">
        <ele>1228.7</ele>
        <time>2008-03-16T11:41:29Z</time>
      </trkpt>
      <trkpt lat="34.280160" lon="-2.570208">
        <ele>1226.8</ele>
        <time>2008-03-16T11:41:35Z</time>
      </trkpt>
      <trkpt lat="34.280429" lon="-2.570733">
        <ele>1223.4</ele>
        <time>2008-03-16T11:41:42Z</time>
      </trkpt>
      <trkpt lat="34.280177" lon="-2.571235">
        <ele>1217.6</ele>
        <time>2008-03-16T11:41:48Z</time>
      </trkpt>
      <trkpt lat="34.279879" lon="-2.571673">
        <ele>1213.3</ele>
        <time>2008-03-16T11:41:54Z</time>
      </trkpt>
      <trkpt lat="34.279671" lon="-2.571674">
        <ele>1207.1</ele>
        <time>2008-03-16T11:42:03Z</time>
      </trkpt>
      <trkpt lat="34.279619" lon="-2.571434">
        <ele>1203.7</ele>
        <time>2008-03-16T11:42:12Z</time>
      </trkpt>
      <trkpt lat="34.279305" lon="-2.571945">
        <ele>1195.1</ele>
        <time>2008-03-16T11:42:18Z</time>
      </trkpt>
      <trkpt lat="34.279009" lon="-2.572419">
        <ele>1187.8</ele>
        <time>2008-03-16T11:42:23Z</time>
      </trkpt>
      <trkpt lat="34.278720" lon="-2.572809">
        <ele>1182.1</ele>
        <time>2008-03-16T11:42:29Z</time>
      </trkpt>
      <trkpt lat="34.278478" lon="-2.572526">
        <ele>1175.3</ele>
        <time>2008-03-16T11:42:46Z</time>
      </trkpt>
      <trkpt lat="34.278245" lon="-2.573083">
        <ele>1170.1</ele>
        <time>2008-03-16T11:42:52Z</time>
      </trkpt>
      <trkpt lat="34.278010" lon="-2.573615">
        <ele>1161.9</ele>
        <time>2008-03-16T11:42:58Z</time>
      </trkpt>
      <trkpt lat="34.277502" lon="-2.573471">
        <ele>1156.6</ele>
        <time>2008-03-16T11:43:05Z</time>
      </trkpt>
      <trkpt lat="34.277037" lon="-2.573516">
        <ele>1153.2</ele>
        <time>2008-03-16T11:43:10Z</time>
      </trkpt>
      <trkpt lat="34.276546" lon="-2.573895">
        <ele>1151.8</ele>
        <time>2008-03-16T11:43:15Z</time>
      </trkpt>
      <trkpt lat="34.276102" lon="-2.574202">
        <ele>1151.3</ele>
        <time>2008-03-16T11:43:19Z</time>
      </trkpt>
      <trkpt lat="34.275604" lon="-2.574464">
        <ele>1150.8</ele>
        <time>2008-03-16T11:43:23Z</time>
      </trkpt>
      <trkpt lat="34.275077" lon="-2.574678">
        <ele>1150.8</ele>
        <time>2008-03-16T11:43:27Z</time>
      </trkpt>
      <trkpt lat="34.274620" lon="-2.574900">
        <ele>1150.8</ele>
        <time>2008-03-16T11:43:31Z</time>
      </trkpt>
      <trkpt lat="34.274219" lon="-2.575109">
        <ele>1146.0</ele>
        <time>2008-03-16T11:43:36Z</time>
      </trkpt>
      <trkpt lat="34.273656" lon="-2.574928">
        <ele>1141.7</ele>
        <time>2008-03-16T11:43:41Z</time>
      </trkpt>
      <trkpt lat="34.273089" lon="-2.574874">
        <ele>1136.9</ele>
        <time>2008-03-16T11:43:45Z</time>
      </trkpt>
      <trkpt lat="34.272560" lon="-2.574920">
        <ele>1135.5</ele>
        <time>2008-03-16T11:43:49Z</time>
      </trkpt>
      <trkpt lat="34.272097" lon="-2.574941">
        <ele>1132.1</ele>
        <time>2008-03-16T11:43:53Z</time>
      </trkpt>
      <trkpt lat="34.271576" lon="-2.574652">
        <ele>1129.2</ele>
        <time>2008-03-16T11:43:58Z</time>
      </trkpt>
      <trkpt lat="34.271219" lon="-2.574348">
        <ele>1071.0</ele>
        <time>2008-03-16T11:44:02Z</time>
      </trkpt>
      <trkpt lat="34.270817" lon="-2.574015">
        <ele>1063.8</ele>
        <time>2008-03-16T11:44:08Z</time>
      </trkpt>
      <trkpt lat="34.270309" lon="-2.573868">
        <ele>1061.9</ele>
        <time>2008-03-16T11:44:14Z</time>
      </trkpt>
      <trkpt lat="34.269870" lon="-2.573844">
        <ele>1061.9</ele>
        <time>2008-03-16T11:44:20Z</time>
      </trkpt>
      <trkpt lat="34.269416" lon="-2.573850">
        <ele>1060.5</ele>
        <time>2008-03-16T11:44:26Z</time>
      </trkpt>
      <trkpt lat="34.268919" lon="-2.573705">
        <ele>1061.0</ele>
        <time>2008-03-16T11:44:32Z</time>
      </trkpt>
      <trkpt lat="34.268420" lon="-2.573388">
        <ele>1057.1</ele>
        <time>2008-03-16T11:44:37Z</time>
      </trkpt>
      <trkpt lat="34.267971" lon="-2.573100">
        <ele>1052.8</ele>
        <time>2008-03-16T11:44:41Z</time>
      </trkpt>
      <trkpt lat="34.267467" lon="-2.572776">
        <ele>1049.9</ele>
        <time>2008-03-16T11:44:45Z</time>
      </trkpt>
      <trkpt lat="34.266970" lon="-2.572408">
        <ele>1044.6</ele>
        <time>2008-03-16T11:44:49Z</time>
      </trkpt>
      <trkpt lat="34.266563" lon="-2.571982">
        <ele>1040.3</ele>
        <time>2008-03-16T11:44:53Z</time>
      </trkpt>
      <trkpt lat="34.266256" lon="-2.571382">
        <ele>1039.3</ele>
        <time>2008-03-16T11:44:57Z</time>
      </trkpt>
      <trkpt lat="34.265985" lon="-2.570934">
        <ele>1036.0</ele>
        <time>2008-03-16T11:45:00Z</time>
      </trkpt>
      <trkpt lat="34.265679" lon="-2.570535">
        <ele>1033.6</ele>
        <time>2008-03-16T11:45:03Z</time>
      </trkpt>
      <trkpt lat="34.265304" lon="-2.570088">
        <ele>1030.7</ele>
        <time>2008-03-16T11:45:07Z</time>
      </trkpt>
      <trkpt lat="34.265157" lon="-2.569504">
        <ele>1027.3</ele>
        <time>2008-03-16T11:45:12Z</time>
      </trkpt>
      <trkpt lat="34.265296" lon="-2.568978">
        <ele>1023.9</ele>
        <time>2008-03-16T11:45:16Z</time>
      </trkpt>
      <trkpt lat="34.265428" lon="-2.568398">
        <ele>1019.1</ele>
        <time>2008-03-16T11:45:20Z</time>
      </trkpt>
      <trkpt lat="34.265302" lon="-2.567828">
        <ele>1014.3</ele>
        <time>2008-03-16T11:45:25Z</time>
      </trkpt>
      <trkpt lat="34.265008" lon="-2.567376">
        <ele>1010.5</ele>
        <time>2008-03-16T11:45:29Z</time>
      </trkpt>
      <trkpt lat="34.264671" lon="-2.566946">
        <ele>1006.6</ele>
        <time>2008-03-16T11:45:33Z</time>
      </trkpt>
      <trkpt lat="34.264207" lon="-2.566684">
        <ele>1004.7</ele>
        <time>2008-03-16T11:45:37Z</time>
      </trkpt>
      <trkpt lat="34.263727" lon="-2.566400">
        <ele>1003.3</ele>
        <time>2008-03-16T11:45:41Z</time>
      </trkpt>
      <trkpt lat="34.263310" lon="-2.566012">
        <ele>1002.3</ele>
        <time>2008-03-16T11:45:45Z</time>
      </trkpt>
      <trkpt lat="34.262822" lon="-2.565916">
        <ele>997.0</ele>
        <time>2008-03-16T11:45:50Z</time>
      </trkpt>
      <trkpt lat="34.262324" lon="-2.566087">
        <ele>994.6</ele>
        <time>2008-03-16T11:45:55Z</time>
      </trkpt>
      <trkpt lat="34.261801" lon="-2.566001">
        <ele>991.3</ele>
        <time>2008-03-16T11:46:00Z</time>
      </trkpt>
      <trkpt lat="34.261338" lon="-2.565824">
        <ele>989.3</ele>
        <time>2008-03-16T11:46:04Z</time>
      </trkpt>
      <trkpt lat="34.260844" lon="-2.565673">
        <ele>988.4</ele>
        <time>2008-03-16T11:46:08Z</time>
      </trkpt>
      <trkpt lat="34.260345" lon="-2.565364">
        <ele>986.9</ele>
        <time>2008-03-16T11:46:12Z</time>
      </trkpt>
      <trkpt lat="34.259869" lon="-2.564969">
        <ele>984.0</ele>
        <time>2008-03-16T11:46:16Z</time>
      </trkpt>
      <trkpt lat="34.259393" lon="-2.564567">
        <ele>982.1</ele>
        <time>2008-03-16T11:46:20Z</time>
      </trkpt>
      <trkpt lat="34.258933" lon="-2.564153">
        <ele>981.2</ele>
        <time>2008-03-16T11:46:24Z</time>
      </trkpt>
      <trkpt lat="34.258530" lon="-2.563644">
        <ele>980.7</ele>
        <time>2008-03-16T11:46:28Z</time>
      </trkpt>
      <trkpt lat="34.258089" lon="-2.563271">
        <ele>976.4</ele>
        <time>2008-03-16T11:46:32Z</time>
      </trkpt>
      <trkpt lat="34.257549" lon="-2.563140">
        <ele>972.0</ele>
        <time>2008-03-16T11:46:36Z</time>
      </trkpt>
      <trkpt lat="34.256972" lon="-2.563173">
        <ele>967.2</ele>
        <time>2008-03-16T11:46:40Z</time>
      </trkpt>
      <trkpt lat="34.256396" lon="-2.563330">
        <ele>963.4</ele>
        <time>2008-03-16T11:46:44Z</time>
      </trkpt>
      <trkpt lat="34.255830" lon="-2.563367">
        <ele>961.0</ele>
        <time>2008-03-16T11:46:48Z</time>
      </trkpt>
      <trkpt lat="34.255342" lon="-2.563111">
        <ele>959.5</ele>
        <time>2008-03-16T11:46:52Z</time>
      </trkpt>
      <trkpt lat="34.254847" lon="-2.562902">
        <ele>957.1</ele>
        <time>2008-03-16T11:46:56Z</time>
      </trkpt>
      <trkpt lat="34.254300" lon="-2.562766">
        <ele>954.7</ele>
        <time>2008-03-16T11:47:00Z</time>
      </trkpt>
      <trkpt lat="34.253701" lon="-2.562623">
        <ele>952.3</ele>
        <time>2008-03-16T11:47:04Z</time>
      </trkpt>
      <trkpt lat="34.253225" lon="-2.562515">
        <ele>950.9</ele>
        <time>2008-03-16T11:47:07Z</time>
      </trkpt>
      <trkpt lat="34.252753" lon="-2.562440">
        <ele>950.4</ele>
        <time>2008-03-16T11:47:10Z</time>
      </trkpt>
      <trkpt lat="34.252205" lon="-2.562541">
        <ele>951.8</ele>
        <time>2008-03-16T11:47:14Z</time>
      </trkpt>
      <trkpt lat="34.251785" lon="-2.562887">
        <ele>949.4</ele>
        <time>2008-03-16T11:47:18Z</time>
      </trkpt>
      <trkpt lat="34.251431" lon="-2.563380">
        <ele>945.1</ele>
        <time>2008-03-16T11:47:22Z</time>
      </trkpt>
      <trkpt lat="34.251081" lon="-2.563995">
        <ele>939.8</ele>
        <time>2008-03-16T11:47:26Z</time>
      </trkpt>
      <trkpt lat="34.250805" lon="-2.564498">
        <ele>936.9</ele>
        <time>2008-03-16T11:47:29Z</time>
      </trkpt>
      <trkpt lat="34.250487" lon="-2.564953">
        <ele>934.5</ele>
        <time>2008-03-16T11:47:32Z</time>
      </trkpt>
      <trkpt lat="34.250139" lon="-2.565297">
        <ele>933.1</ele>
        <time>2008-03-16T11:47:35Z</time>
      </trkpt>
      <trkpt lat="34.249746" lon="-2.565839">
        <ele>933.1</ele>
        <time>2008-03-16T11:47:39Z</time>
      </trkpt>
      <trkpt lat="34.249407" lon="-2.566207">
        <ele>932.6</ele>
        <time>2008-03-16T11:47:42Z</time>
      </trkpt>
      <trkpt lat="34.248894" lon="-2.566536">
        <ele>933.6</ele>
        <time>2008-03-16T11:47:46Z</time>
      </trkpt>
      <trkpt lat="34.248416" lon="-2.566838">
        <ele>934.5</ele>
        <time>2008-03-16T11:47:50Z</time>
      </trkpt>
      <trkpt lat="34.248137" lon="-2.567377">
        <ele>936.0</ele>
        <time>2008-03-16T11:47:54Z</time>
      </trkpt>
      <trkpt lat="34.248087" lon="-2.567990">
        <ele>938.4</ele>
        <time>2008-03-16T11:47:58Z</time>
      </trkpt>
      <trkpt lat="34.247908" lon="-2.568532">
        <ele>940.3</ele>
        <time>2008-03-16T11:48:02Z</time>
      </trkpt>
      <trkpt lat="34.247574" lon="-2.568983">
        <ele>940.3</ele>
        <time>2008-03-16T11:48:06Z</time>
      </trkpt>
      <trkpt lat="34.247192" lon="-2.569310">
        <ele>938.4</ele>
        <time>2008-03-16T11:48:10Z</time>
      </trkpt>
      <trkpt lat="34.247055" lon="-2.569836">
        <ele>933.6</ele>
        <time>2008-03-16T11:48:16Z</time>
      </trkpt>
      <trkpt lat="34.247509" lon="-2.570195">
        <ele>928.8</ele>
        <time>2008-03-16T11:48:21Z</time>
      </trkpt>
      <trkpt lat="34.247996" lon="-2.570223">
        <ele>926.8</ele>
        <time>2008-03-16T11:48:25Z</time>
      </trkpt>
      <trkpt lat="34.248258" lon="-2.570627">
        <ele>922.0</ele>
        <time>2008-03-16T11:48:30Z</time>
      </trkpt>
      <trkpt lat="34.247987" lon="-2.571163">
        <ele>920.1</ele>
        <time>2008-03-16T11:48:35Z</time>
      </trkpt>
      <trkpt lat="34.247505" lon="-2.571365">
        <ele>922.0</ele>
        <time>2008-03-16T11:48:39Z</time>
      </trkpt>
      <trkpt lat="34.246964" lon="-2.571453">
        <ele>926.4</ele>
        <time>2008-03-16T11:48:43Z</time>
      </trkpt>
      <trkpt lat="34.246416" lon="-2.571456">
        <ele>931.2</ele>
        <time>2008-03-16T11:48:47Z</time>
      </trkpt>
      <trkpt lat="34.245898" lon="-2.571397">
        <ele>935.0</ele>
        <time>2008-03-16T11:48:51Z</time>
      </trkpt>
      <trkpt lat="34.245433" lon="-2.571148">
        <ele>936.9</ele>
        <time>2008-03-16T11:48:55Z</time>
      </trkpt>
      <trkpt lat="34.244955" lon="-2.571002">
        <ele>938.4</ele>
        <time>2008-03-16T11:48:59Z</time>
      </trkpt>
      <trkpt lat="34.244493" lon="-2.571070">
        <ele>937.9</ele>
        <time>2008-03-16T11:49:03Z</time>
      </trkpt>
      <trkpt lat="34.244077" lon="-2.571423">
        <ele>936.5</ele>
        <time>2008-03-16T11:49:07Z</time>
      </trkpt>
      <trkpt lat="34.243686" lon="-2.571925">
        <ele>937.9</ele>
        <time>2008-03-16T11:49:11Z</time>
      </trkpt>
      <trkpt lat="34.243366" lon="-2.572442">
        <ele>939.3</ele>
        <time>2008-03-16T11:49:15Z</time>
      </trkpt>
      <trkpt lat="34.242948" lon="-2.572813">
        <ele>936.9</ele>
        <time>2008-03-16T11:49:19Z</time>
      </trkpt>
      <trkpt lat="34.242465" lon="-2.573162">
        <ele>933.1</ele>
        <time>2008-03-16T11:49:23Z</time>
      </trkpt>
      <trkpt lat="34.241998" lon="-2.573558">
        <ele>931.2</ele>
        <time>2008-03-16T11:49:27Z</time>
      </trkpt>
      <trkpt lat="34.241604" lon="-2.574090">
        <ele>928.8</ele>
        <time>2008-03-16T11:49:31Z</time>
      </trkpt>
      <trkpt lat="34.241361" lon="-2.574549">
        <ele>928.8</ele>
        <time>2008-03-16T11:49:34Z</time>
      </trkpt>
      <trkpt lat="34.241222" lon="-2.575255">
        <ele>927.8</ele>
        <time>2008-03-16T11:49:38Z</time>
      </trkpt>
      <trkpt lat="34.241180" lon="-2.575828">
        <ele>927.3</ele>
        <time>2008-03-16T11:49:41Z</time>
      </trkpt>
      <trkpt lat="34.241142" lon="-2.576409">
        <ele>926.4</ele>
        <time>2008-03-16T11:49:44Z</time>
      </trkpt>
      <trkpt lat="34.241080" lon="-2.576971">
        <ele>925.4</ele>
        <time>2008-03-16T11:49:47Z</time>
      </trkpt>
      <trkpt lat="34.240972" lon="-2.577517">
        <ele>924.0</ele>
        <time>2008-03-16T11:49:50Z</time>
      </trkpt>
      <trkpt lat="34.240833" lon="-2.578038">
        <ele>923.5</ele>
        <time>2008-03-16T11:49:53Z</time>
      </trkpt>
      <trkpt lat="34.240684" lon="-2.578711">
        <ele>923.0</ele>
        <time>2008-03-16T11:49:57Z</time>
      </trkpt>
      <trkpt lat="34.240740" lon="-2.579384">
        <ele>924.0</ele>
        <time>2008-03-16T11:50:01Z</time>
      </trkpt>
      <trkpt lat="34.240922" lon="-2.580034">
        <ele>924.9</ele>
        <time>2008-03-16T11:50:05Z</time>
      </trkpt>
      <trkpt lat="34.241139" lon="-2.580670">
        <ele>925.4</ele>
        <time>2008-03-16T11:50:09Z</time>
      </trkpt>
      <trkpt lat="34.241325" lon="-2.581237">
        <ele>926.8</ele>
        <time>2008-03-16T11:50:13Z</time>
      </trkpt>
      <trkpt lat="34.241067" lon="-2.581781">
        <ele>926.8</ele>
        <time>2008-03-16T11:50:18Z</time>
      </trkpt>
      <trkpt lat="34.240620" lon="-2.581922">
        <ele>925.4</ele>
        <time>2008-03-16T11:50:22Z</time>
      </trkpt>
      <trkpt lat="34.240104" lon="-2.581828">
        <ele>924.0</ele>
        <time>2008-03-16T11:50:26Z</time>
      </trkpt>
      <trkpt lat="34.239562" lon="-2.581722">
        <ele>922.5</ele>
        <time>2008-03-16T11:50:30Z</time>
      </trkpt>
      <trkpt lat="34.238975" lon="-2.581649">
        <ele>919.2</ele>
        <time>2008-03-16T11:50:34Z</time>
      </trkpt>
      <trkpt lat="34.238508" lon="-2.581612">
        <ele>914.8</ele>
        <time>2008-03-16T11:50:37Z</time>
      </trkpt>
      <trkpt lat="34.238012" lon="-2.581567">
        <ele>910.5</ele>
        <time>2008-03-16T11:50:40Z</time>
      </trkpt>
      <trkpt lat="34.237498" lon="-2.581507">
        <ele>906.2</ele>
        <time>2008-03-16T11:50:43Z</time>
      </trkpt>
      <trkpt lat="34.236978" lon="-2.581415">
        <ele>902.8</ele>
        <time>2008-03-16T11:50:46Z</time>
      </trkpt>
      <trkpt lat="34.236479" lon="-2.581282">
        <ele>900.4</ele>
        <time>2008-03-16T11:50:49Z</time>
      </trkpt>
      <trkpt lat="34.235921" lon="-2.581240">
        <ele>897.5</ele>
        <time>2008-03-16T11:50:53Z</time>
      </trkpt>
      <trkpt lat="34.235384" lon="-2.581408">
        <ele>894.2</ele>
        <time>2008-03-16T11:50:57Z</time>
      </trkpt>
      <trkpt lat="34.234852" lon="-2.581687">
        <ele>892.7</ele>
        <time>2008-03-16T11:51:01Z</time>
      </trkpt>
      <trkpt lat="34.234353" lon="-2.582017">
        <ele>888.9</ele>
        <time>2008-03-16T11:51:05Z</time>
      </trkpt>
      <trkpt lat="34.233945" lon="-2.582395">
        <ele>884.6</ele>
        <time>2008-03-16T11:51:09Z</time>
      </trkpt>
      <trkpt lat="34.233601" lon="-2.582862">
        <ele>880.2</ele>
        <time>2008-03-16T11:51:14Z</time>
      </trkpt>
      <trkpt lat="34.233049" lon="-2.582885">
        <ele>875.9</ele>
        <time>2008-03-16T11:51:19Z</time>
      </trkpt>
      <trkpt lat="34.232547" lon="-2.582878">
        <ele>872.5</ele>
        <time>2008-03-16T11:51:23Z</time>
      </trkpt>
      <trkpt lat="34.232007" lon="-2.582951">
        <ele>866.8</ele>
        <time>2008-03-16T11:51:27Z</time>
      </trkpt>
      <trkpt lat="34.231567" lon="-2.582895">
        <ele>861.5</ele>
        <time>2008-03-16T11:51:31Z</time>
      </trkpt>
      <trkpt lat="34.231080" lon="-2.582937">
        <ele>855.7</ele>
        <time>2008-03-16T11:51:36Z</time>
      </trkpt>
      <trkpt lat="34.230685" lon="-2.583279">
        <ele>849.5</ele>
        <time>2008-03-16T11:51:41Z</time>
      </trkpt>
      <trkpt lat="34.230462" lon="-2.583760">
        <ele>845.6</ele>
        <time>2008-03-16T11:51:46Z</time>
      </trkpt>
      <trkpt lat="34.230015" lon="-2.584117">
        <ele>839.8</ele>
        <time>2008-03-16T11:51:51Z</time>
      </trkpt>
      <trkpt lat="34.229628" lon="-2.584436">
        <ele>835.5</ele>
        <time>2008-03-16T11:51:55Z</time>
      </trkpt>
      <trkpt lat="34.229243" lon="-2.584740">
        <ele>830.7</ele>
        <time>2008-03-16T11:51:59Z</time>
      </trkpt>
      <trkpt lat="34.228800" lon="-2.585008">
        <ele>824.9</ele>
        <time>2008-03-16T11:52:03Z</time>
      </trkpt>
      <trkpt lat="34.228320" lon="-2.585309">
        <ele>820.6</ele>
        <time>2008-03-16T11:52:07Z</time>
      </trkpt>
      <trkpt lat="34.227820" lon="-2.585712">
        <ele>815.3</ele>
        <time>2008-03-16T11:52:11Z</time>
      </trkpt>
      <trkpt lat="34.227307" lon="-2.586005">
        <ele>810.0</ele>
        <time>2008-03-16T11:52:15Z</time>
      </trkpt>
      <trkpt lat="34.226745" lon="-2.586221">
        <ele>803.3</ele>
        <time>2008-03-16T11:52:19Z</time>
      </trkpt>
      <trkpt lat="34.226236" lon="-2.586389">
        <ele>796.6</ele>
        <time>2008-03-16T11:52:23Z</time>
      </trkpt>
      <trkpt lat="34.225696" lon="-2.586306">
        <ele>788.9</ele>
        <time>2008-03-16T11:52:28Z</time>
      </trkpt>
      <trkpt lat="34.225173" lon="-2.586449">
        <ele>782.2</ele>
        <time>2008-03-16T11:52:33Z</time>
      </trkpt>
      <trkpt lat="34.224707" lon="-2.586828">
        <ele>776.4</ele>
        <time>2008-03-16T11:52:37Z</time>
      </trkpt>
      <trkpt lat="34.224280" lon="-2.587214">
        <ele>772.6</ele>
        <time>2008-03-16T11:52:41Z</time>
      </trkpt>
      <trkpt lat="34.224223" lon="-2.587716">
        <ele>773.0</ele>
        <time>2008-03-16T11:52:46Z</time>
      </trkpt>
      <trkpt lat="34.224414" lon="-2.588240">
        <ele>774.5</ele>
        <time>2008-03-16T11:52:56Z</time>
      </trkpt>
      <trkpt lat="34.224712" lon="-2.588745">
        <ele>776.9</ele>
        <time>2008-03-16T11:53:04Z</time>
      </trkpt>
      <trkpt lat="34.225110" lon="-2.589072">
        <ele>779.3</ele>
        <time>2008-03-16T11:53:10Z</time>
      </trkpt>
      <trkpt lat="34.225489" lon="-2.589371">
        <ele>781.7</ele>
        <time>2008-03-16T11:53:15Z</time>
      </trkpt>
      <trkpt lat="34.225904" lon="-2.589732">
        <ele>784.1</ele>
        <time>2008-03-16T11:53:20Z</time>
      </trkpt>
      <trkpt lat="34.226318" lon="-2.590081">
        <ele>786.0</ele>
        <time>2008-03-16T11:53:24Z</time>
      </trkpt>
      <trkpt lat="34.226777" lon="-2.590472">
        <ele>786.0</ele>
        <time>2008-03-16T11:53:28Z</time>
      </trkpt>
      <trkpt lat="34.227281" lon="-2.590884">
        <ele>785.5</ele>
        <time>2008-03-16T11:53:32Z</time>
      </trkpt>
      <trkpt lat="34.227677" lon="-2.591210">
        <ele>788.9</ele>
        <time>2008-03-16T11:53:35Z</time>
      </trkpt>
      <trkpt lat="34.228070" lon="-2.591527">
        <ele>793.7</ele>
        <time>2008-03-16T11:53:38Z</time>
      </trkpt>
      <trkpt lat="34.228449" lon="-2.591858">
        <ele>798.5</ele>
        <time>2008-03-16T11:53:41Z</time>
      </trkpt>
      <trkpt lat="34.228856" lon="-2.592319">
        <ele>803.8</ele>
        <time>2008-03-16T11:53:45Z</time>
      </trkpt>
      <trkpt lat="34.228879" lon="-2.592959">
        <ele>806.2</ele>
        <time>2008-03-16T11:53:50Z</time>
      </trkpt>
      <trkpt lat="34.229024" lon="-2.593511">
        <ele>808.1</ele>
        <time>2008-03-16T11:53:55Z</time>
      </trkpt>
      <trkpt lat="34.229439" lon="-2.593762">
        <ele>810.5</ele>
        <time>2008-03-16T11:53:59Z</time>
      </trkpt>
      <trkpt lat="34.229921" lon="-2.593999">
        <ele>816.8</ele>
        <time>2008-03-16T11:54:03Z</time>
      </trkpt>
      <trkpt lat="34.230364" lon="-2.594344">
        <ele>824.0</ele>
        <time>2008-03-16T11:54:07Z</time>
      </trkpt>
      <trkpt lat="34.230627" lon="-2.594798">
        <ele>829.3</ele>
        <time>2008-03-16T11:54:11Z</time>
      </trkpt>
      <trkpt lat="34.230456" lon="-2.595433">
        <ele>833.6</ele>
        <time>2008-03-16T11:54:16Z</time>
      </trkpt>
      <trkpt lat="34.230259" lon="-2.596022">
        <ele>838.4</ele>
        <time>2008-03-16T11:54:20Z</time>
      </trkpt>
      <trkpt lat="34.230138" lon="-2.596651">
        <ele>842.3</ele>
        <time>2008-03-16T11:54:24Z</time>
      </trkpt>
      <trkpt lat="34.230133" lon="-2.597279">
        <ele>844.2</ele>
        <time>2008-03-16T11:54:28Z</time>
      </trkpt>
      <trkpt lat="34.230316" lon="-2.597886">
        <ele>845.6</ele>
        <time>2008-03-16T11:54:32Z</time>
      </trkpt>
      <trkpt lat="34.230587" lon="-2.598469">
        <ele>848.0</ele>
        <time>2008-03-16T11:54:36Z</time>
      </trkpt>
      <trkpt lat="34.230807" lon="-2.599103">
        <ele>852.8</ele>
        <time>2008-03-16T11:54:40Z</time>
      </trkpt>
      <trkpt lat="34.230966" lon="-2.599780">
        <ele>858.6</ele>
        <time>2008-03-16T11:54:44Z</time>
      </trkpt>
      <trkpt lat="34.231166" lon="-2.600476">
        <ele>860.5</ele>
        <time>2008-03-16T11:54:48Z</time>
      </trkpt>
      <trkpt lat="34.231356" lon="-2.601023">
        <ele>863.4</ele>
        <time>2008-03-16T11:54:51Z</time>
      </trkpt>
      <trkpt lat="34.231534" lon="-2.601547">
        <ele>868.2</ele>
        <time>2008-03-16T11:54:54Z</time>
      </trkpt>
      <trkpt lat="34.231572" lon="-2.602234">
        <ele>872.5</ele>
        <time>2008-03-16T11:54:58Z</time>
      </trkpt>
      <trkpt lat="34.231452" lon="-2.602896">
        <ele>874.5</ele>
        <time>2008-03-16T11:55:02Z</time>
      </trkpt>
      <trkpt lat="34.231160" lon="-2.603413">
        <ele>873.5</ele>
        <time>2008-03-16T11:55:06Z</time>
      </trkpt>
      <trkpt lat="34.230834" lon="-2.603899">
        <ele>871.6</ele>
        <time>2008-03-16T11:55:10Z</time>
      </trkpt>
      <trkpt lat="34.230612" lon="-2.604510">
        <ele>870.1</ele>
        <time>2008-03-16T11:55:14Z</time>
      </trkpt>
      <trkpt lat="34.230424" lon="-2.605173">
        <ele>869.6</ele>
        <time>2008-03-16T11:55:18Z</time>
      </trkpt>
      <trkpt lat="34.230213" lon="-2.605809">
        <ele>868.7</ele>
        <time>2008-03-16T11:55:22Z</time>
      </trkpt>
      <trkpt lat="34.229970" lon="-2.606392">
        <ele>865.8</ele>
        <time>2008-03-16T11:55:26Z</time>
      </trkpt>
      <trkpt lat="34.229590" lon="-2.606751">
        <ele>862.0</ele>
        <time>2008-03-16T11:55:30Z</time>
      </trkpt>
      <trkpt lat="34.229184" lon="-2.607021">
        <ele>859.1</ele>
        <time>2008-03-16T11:55:35Z</time>
      </trkpt>
      <trkpt lat="34.229285" lon="-2.607689">
        <ele>859.1</ele>
        <time>2008-03-16T11:55:41Z</time>
      </trkpt>
      <trkpt lat="34.229407" lon="-2.608265">
        <ele>859.1</ele>
        <time>2008-03-16T11:55:45Z</time>
      </trkpt>
      <trkpt lat="34.229350" lon="-2.608792">
        <ele>859.1</ele>
        <time>2008-03-16T11:55:49Z</time>
      </trkpt>
      <trkpt lat="34.228946" lon="-2.608959">
        <ele>861.5</ele>
        <time>2008-03-16T11:55:54Z</time>
      </trkpt>
      <trkpt lat="34.228481" lon="-2.608793">
        <ele>863.9</ele>
        <time>2008-03-16T11:55:59Z</time>
      </trkpt>
      <trkpt lat="34.228060" lon="-2.609094">
        <ele>863.9</ele>
        <time>2008-03-16T11:56:04Z</time>
      </trkpt>
      <trkpt lat="34.227890" lon="-2.609660">
        <ele>863.4</ele>
        <time>2008-03-16T11:56:08Z</time>
      </trkpt>
      <trkpt lat="34.227692" lon="-2.610314">
        <ele>863.4</ele>
        <time>2008-03-16T11:56:12Z</time>
      </trkpt>
      <trkpt lat="34.227501" lon="-2.610979">
        <ele>865.8</ele>
        <time>2008-03-16T11:56:16Z</time>
      </trkpt>
      <trkpt lat="34.227333" lon="-2.611586">
        <ele>867.7</ele>
        <time>2008-03-16T11:56:20Z</time>
      </trkpt>
      <trkpt lat="34.227164" lon="-2.612660">
        <ele>866.3</ele>
        <time>2008-03-16T11:56:30Z</time>
      </trkpt>
      <trkpt lat="34.226872" lon="-2.613179">
        <ele>862.9</ele>
        <time>2008-03-16T11:56:36Z</time>
      </trkpt>
      <trkpt lat="34.226722" lon="-2.613829">
        <ele>857.6</ele>
        <time>2008-03-16T11:56:41Z</time>
      </trkpt>
      <trkpt lat="34.226381" lon="-2.614267">
        <ele>852.8</ele>
        <time>2008-03-16T11:56:45Z</time>
      </trkpt>
      <trkpt lat="34.225881" lon="-2.614512">
        <ele>847.1</ele>
        <time>2008-03-16T11:56:49Z</time>
      </trkpt>
      <trkpt lat="34.225412" lon="-2.614705">
        <ele>842.7</ele>
        <time>2008-03-16T11:56:53Z</time>
      </trkpt>
      <trkpt lat="34.225032" lon="-2.615107">
        <ele>837.4</ele>
        <time>2008-03-16T11:56:57Z</time>
      </trkpt>
      <trkpt lat="34.224732" lon="-2.615703">
        <ele>830.2</ele>
        <time>2008-03-16T11:57:01Z</time>
      </trkpt>
      <trkpt lat="34.224503" lon="-2.616182">
        <ele>826.4</ele>
        <time>2008-03-16T11:57:04Z</time>
      </trkpt>
      <trkpt lat="34.224286" lon="-2.616667">
        <ele>823.0</ele>
        <time>2008-03-16T11:57:07Z</time>
      </trkpt>
      <trkpt lat="34.224078" lon="-2.617271">
        <ele>819.2</ele>
        <time>2008-03-16T11:57:11Z</time>
      </trkpt>
      <trkpt lat="34.223672" lon="-2.617575">
        <ele>823.0</ele>
        <time>2008-03-16T11:57:16Z</time>
      </trkpt>
      <trkpt lat="34.223208" lon="-2.617789">
        <ele>825.4</ele>
        <time>2008-03-16T11:57:21Z</time>
      </trkpt>
      <trkpt lat="34.222866" lon="-2.618159">
        <ele>825.4</ele>
        <time>2008-03-16T11:57:25Z</time>
      </trkpt>
      <trkpt lat="34.222488" lon="-2.618496">
        <ele>822.5</ele>
        <time>2008-03-16T11:57:29Z</time>
      </trkpt>
      <trkpt lat="34.222060" lon="-2.618811">
        <ele>815.8</ele>
        <time>2008-03-16T11:57:33Z</time>
      </trkpt>
      <trkpt lat="34.221567" lon="-2.619165">
        <ele>808.1</ele>
        <time>2008-03-16T11:57:37Z</time>
      </trkpt>
      <trkpt lat="34.221166" lon="-2.619465">
        <ele>804.3</ele>
        <time>2008-03-16T11:57:40Z</time>
      </trkpt>
      <trkpt lat="34.220681" lon="-2.619838">
        <ele>800.4</ele>
        <time>2008-03-16T11:57:44Z</time>
      </trkpt>
      <trkpt lat="34.220268" lon="-2.620122">
        <ele>796.6</ele>
        <time>2008-03-16T11:57:48Z</time>
      </trkpt>
      <trkpt lat="34.219766" lon="-2.620175">
        <ele>789.4</ele>
        <time>2008-03-16T11:57:53Z</time>
      </trkpt>
      <trkpt lat="34.219383" lon="-2.619872">
        <ele>784.6</ele>
        <time>2008-03-16T11:57:58Z</time>
      </trkpt>
      <trkpt lat="34.218889" lon="-2.620006">
        <ele>778.8</ele>
        <time>2008-03-16T11:58:04Z</time>
      </trkpt>
      <trkpt lat="34.218550" lon="-2.620405">
        <ele>774.5</ele>
        <time>2008-03-16T11:58:10Z</time>
      </trkpt>
      <trkpt lat="34.218628" lon="-2.620976">
        <ele>774.0</ele>
        <time>2008-03-16T11:58:15Z</time>
      </trkpt>
      <trkpt lat="34.218763" lon="-2.621617">
        <ele>779.3</ele>
        <time>2008-03-16T11:58:20Z</time>
      </trkpt>
      <trkpt lat="34.219098" lon="-2.622144">
        <ele>786.5</ele>
        <time>2008-03-16T11:58:25Z</time>
      </trkpt>
      <trkpt lat="34.219528" lon="-2.622392">
        <ele>792.3</ele>
        <time>2008-03-16T11:58:29Z</time>
      </trkpt>
      <trkpt lat="34.219998" lon="-2.622612">
        <ele>799.5</ele>
        <time>2008-03-16T11:58:33Z</time>
      </trkpt>
      <trkpt lat="34.220478" lon="-2.622835">
        <ele>806.7</ele>
        <time>2008-03-16T11:58:37Z</time>
      </trkpt>
      <trkpt lat="34.220966" lon="-2.623059">
        <ele>813.9</ele>
        <time>2008-03-16T11:58:41Z</time>
      </trkpt>
      <trkpt lat="34.221459" lon="-2.623293">
        <ele>821.6</ele>
        <time>2008-03-16T11:58:45Z</time>
      </trkpt>
      <trkpt lat="34.221919" lon="-2.623564">
        <ele>828.8</ele>
        <time>2008-03-16T11:58:49Z</time>
      </trkpt>
      <trkpt lat="34.222280" lon="-2.623993">
        <ele>833.6</ele>
        <time>2008-03-16T11:58:53Z</time>
      </trkpt>
      <trkpt lat="34.222641" lon="-2.624488">
        <ele>837.4</ele>
        <time>2008-03-16T11:58:57Z</time>
      </trkpt>
      <trkpt lat="34.223017" lon="-2.624972">
        <ele>844.7</ele>
        <time>2008-03-16T11:59:01Z</time>
      </trkpt>
      <trkpt lat="34.223352" lon="-2.625404">
        <ele>851.4</ele>
        <time>2008-03-16T11:59:05Z</time>
      </trkpt>
      <trkpt lat="34.223712" lon="-2.625780">
        <ele>857.2</ele>
        <time>2008-03-16T11:59:09Z</time>
      </trkpt>
      <trkpt lat="34.224143" lon="-2.626110">
        <ele>861.0</ele>
        <time>2008-03-16T11:59:13Z</time>
      </trkpt>
      <trkpt lat="34.224580" lon="-2.626425">
        <ele>864.8</ele>
        <time>2008-03-16T11:59:17Z</time>
      </trkpt>
      <trkpt lat="34.225040" lon="-2.626729">
        <ele>866.3</ele>
        <time>2008-03-16T11:59:21Z</time>
      </trkpt>
      <trkpt lat="34.225549" lon="-2.626977">
        <ele>865.3</ele>
        <time>2008-03-16T11:59:25Z</time>
      </trkpt>
      <trkpt lat="34.226133" lon="-2.627191">
        <ele>867.7</ele>
        <time>2008-03-16T11:59:29Z</time>
      </trkpt>
      <trkpt lat="34.226587" lon="-2.627361">
        <ele>872.5</ele>
        <time>2008-03-16T11:59:32Z</time>
      </trkpt>
      <trkpt lat="34.227033" lon="-2.627533">
        <ele>878.3</ele>
        <time>2008-03-16T11:59:35Z</time>
      </trkpt>
      <trkpt lat="34.227566" lon="-2.627767">
        <ele>884.6</ele>
        <time>2008-03-16T11:59:39Z</time>
      </trkpt>
      <trkpt lat="34.227966" lon="-2.628127">
        <ele>889.4</ele>
        <time>2008-03-16T11:59:43Z</time>
      </trkpt>
      <trkpt lat="34.228222" lon="-2.628577">
        <ele>889.8</ele>
        <time>2008-03-16T11:59:47Z</time>
      </trkpt>
      <trkpt lat="34.228085" lon="-2.629127">
        <ele>890.8</ele>
        <time>2008-03-16T11:59:52Z</time>
      </trkpt>
      <trkpt lat="34.227663" lon="-2.629532">
        <ele>890.8</ele>
        <time>2008-03-16T11:59:57Z</time>
      </trkpt>
      <trkpt lat="34.227446" lon="-2.630113">
        <ele>892.7</ele>
        <time>2008-03-16T12:00:02Z</time>
      </trkpt>
      <trkpt lat="34.227189" lon="-2.630643">
        <ele>895.1</ele>
        <time>2008-03-16T12:00:07Z</time>
      </trkpt>
      <trkpt lat="34.227138" lon="-2.631258">
        <ele>897.0</ele>
        <time>2008-03-16T12:00:12Z</time>
      </trkpt>
      <trkpt lat="34.226794" lon="-2.631726">
        <ele>897.0</ele>
        <time>2008-03-16T12:00:17Z</time>
      </trkpt>
      <trkpt lat="34.226577" lon="-2.632306">
        <ele>895.6</ele>
        <time>2008-03-16T12:00:22Z</time>
      </trkpt>
      <trkpt lat="34.226693" lon="-2.632948">
        <ele>892.7</ele>
        <time>2008-03-16T12:00:27Z</time>
      </trkpt>
      <trkpt lat="34.226783" lon="-2.633495">
        <ele>893.2</ele>
        <time>2008-03-16T12:00:31Z</time>
      </trkpt>
      <trkpt lat="34.226638" lon="-2.634117">
        <ele>895.6</ele>
        <time>2008-03-16T12:00:36Z</time>
      </trkpt>
      <trkpt lat="34.226437" lon="-2.634708">
        <ele>895.1</ele>
        <time>2008-03-16T12:00:41Z</time>
      </trkpt>
      <trkpt lat="34.226406" lon="-2.635340">
        <ele>889.4</ele>
        <time>2008-03-16T12:00:46Z</time>
      </trkpt>
      <trkpt lat="34.226349" lon="-2.635993">
        <ele>884.1</ele>
        <time>2008-03-16T12:00:51Z</time>
      </trkpt>
      <trkpt lat="34.226161" lon="-2.636534">
        <ele>880.2</ele>
        <time>2008-03-16T12:00:55Z</time>
      </trkpt>
      <trkpt lat="34.226164" lon="-2.637158">
        <ele>875.4</ele>
        <time>2008-03-16T12:00:59Z</time>
      </trkpt>
      <trkpt lat="34.226105" lon="-2.637741">
        <ele>871.6</ele>
        <time>2008-03-16T12:01:03Z</time>
      </trkpt>
      <trkpt lat="34.225765" lon="-2.638248">
        <ele>864.4</ele>
        <time>2008-03-16T12:01:07Z</time>
      </trkpt>
      <trkpt lat="34.225413" lon="-2.638605">
        <ele>859.6</ele>
        <time>2008-03-16T12:01:10Z</time>
      </trkpt>
      <trkpt lat="34.224957" lon="-2.639054">
        <ele>859.6</ele>
        <time>2008-03-16T12:01:14Z</time>
      </trkpt>
      <trkpt lat="34.224537" lon="-2.639430">
        <ele>860.5</ele>
        <time>2008-03-16T12:01:18Z</time>
      </trkpt>
      <trkpt lat="34.224127" lon="-2.639784">
        <ele>858.6</ele>
        <time>2008-03-16T12:01:22Z</time>
      </trkpt>
      <trkpt lat="34.223741" lon="-2.640206">
        <ele>853.8</ele>
        <time>2008-03-16T12:01:26Z</time>
      </trkpt>
      <trkpt lat="34.223302" lon="-2.640686">
        <ele>848.0</ele>
        <time>2008-03-16T12:01:30Z</time>
      </trkpt>
      <trkpt lat="34.222766" lon="-2.640960">
        <ele>843.7</ele>
        <time>2008-03-16T12:01:34Z</time>
      </trkpt>
      <trkpt lat="34.222181" lon="-2.641059">
        <ele>839.8</ele>
        <time>2008-03-16T12:01:38Z</time>
      </trkpt>
      <trkpt lat="34.221636" lon="-2.641206">
        <ele>835.5</ele>
        <time>2008-03-16T12:01:42Z</time>
      </trkpt>
      <trkpt lat="34.221119" lon="-2.641187">
        <ele>831.7</ele>
        <time>2008-03-16T12:01:46Z</time>
      </trkpt>
      <trkpt lat="34.220592" lon="-2.641137">
        <ele>828.8</ele>
        <time>2008-03-16T12:01:50Z</time>
      </trkpt>
      <trkpt lat="34.220041" lon="-2.641138">
        <ele>824.9</ele>
        <time>2008-03-16T12:01:54Z</time>
      </trkpt>
      <trkpt lat="34.219468" lon="-2.641140">
        <ele>822.5</ele>
        <time>2008-03-16T12:01:58Z</time>
      </trkpt>
      <trkpt lat="34.218904" lon="-2.641092">
        <ele>819.7</ele>
        <time>2008-03-16T12:02:02Z</time>
      </trkpt>
      <trkpt lat="34.218355" lon="-2.641048">
        <ele>814.4</ele>
        <time>2008-03-16T12:02:06Z</time>
      </trkpt>
      <trkpt lat="34.217871" lon="-2.641042">
        <ele>809.6</ele>
        <time>2008-03-16T12:02:10Z</time>
      </trkpt>
      <trkpt lat="34.217398" lon="-2.641103">
        <ele>804.3</ele>
        <time>2008-03-16T12:02:14Z</time>
      </trkpt>
      <trkpt lat="34.216921" lon="-2.641050">
        <ele>797.1</ele>
        <time>2008-03-16T12:02:18Z</time>
      </trkpt>
      <trkpt lat="34.216387" lon="-2.640823">
        <ele>792.7</ele>
        <time>2008-03-16T12:02:22Z</time>
      </trkpt>
      <trkpt lat="34.215823" lon="-2.640612">
        <ele>791.3</ele>
        <time>2008-03-16T12:02:26Z</time>
      </trkpt>
      <trkpt lat="34.215312" lon="-2.640434">
        <ele>792.3</ele>
        <time>2008-03-16T12:02:30Z</time>
      </trkpt>
      <trkpt lat="34.214884" lon="-2.640457">
        <ele>790.8</ele>
        <time>2008-03-16T12:02:35Z</time>
      </trkpt>
      <trkpt lat="34.214943" lon="-2.641036">
        <ele>787.0</ele>
        <time>2008-03-16T12:02:41Z</time>
      </trkpt>
      <trkpt lat="34.215185" lon="-2.641661">
        <ele>782.2</ele>
        <time>2008-03-16T12:02:46Z</time>
      </trkpt>
      <trkpt lat="34.215402" lon="-2.642216">
        <ele>778.3</ele>
        <time>2008-03-16T12:02:50Z</time>
      </trkpt>
      <trkpt lat="34.215645" lon="-2.642738">
        <ele>776.4</ele>
        <time>2008-03-16T12:02:54Z</time>
      </trkpt>
      <trkpt lat="34.216003" lon="-2.643102">
        <ele>772.6</ele>
        <time>2008-03-16T12:02:58Z</time>
      </trkpt>
      <trkpt lat="34.216438" lon="-2.643386">
        <ele>768.2</ele>
        <time>2008-03-16T12:03:02Z</time>
      </trkpt>
      <trkpt lat="34.216893" lon="-2.643557">
        <ele>764.9</ele>
        <time>2008-03-16T12:03:06Z</time>
      </trkpt>
      <trkpt lat="34.217428" lon="-2.643619">
        <ele>762.5</ele>
        <time>2008-03-16T12:03:11Z</time>
      </trkpt>
      <trkpt lat="34.217787" lon="-2.643986">
        <ele>761.0</ele>
        <time>2008-03-16T12:03:17Z</time>
      </trkpt>
      <trkpt lat="34.217551" lon="-2.644596">
        <ele>754.3</ele>
        <time>2008-03-16T12:03:23Z</time>
      </trkpt>
      <trkpt lat="34.217112" lon="-2.644866">
        <ele>750.4</ele>
        <time>2008-03-16T12:03:27Z</time>
      </trkpt>
      <trkpt lat="34.216636" lon="-2.645084">
        <ele>748.5</ele>
        <time>2008-03-16T12:03:31Z</time>
      </trkpt>
      <trkpt lat="34.216153" lon="-2.645204">
        <ele>750.0</ele>
        <time>2008-03-16T12:03:35Z</time>
      </trkpt>
      <trkpt lat="34.215722" lon="-2.645022">
        <ele>752.4</ele>
        <time>2008-03-16T12:03:39Z</time>
      </trkpt>
      <trkpt lat="34.215302" lon="-2.644622">
        <ele>756.2</ele>
        <time>2008-03-16T12:03:44Z</time>
      </trkpt>
      <trkpt lat="34.214831" lon="-2.644463">
        <ele>755.3</ele>
        <time>2008-03-16T12:03:50Z</time>
      </trkpt>
      <trkpt lat="34.214372" lon="-2.644755">
        <ele>751.4</ele>
        <time>2008-03-16T12:03:55Z</time>
      </trkpt>
      <trkpt lat="34.213912" lon="-2.645100">
        <ele>747.6</ele>
        <time>2008-03-16T12:04:00Z</time>
      </trkpt>
      <trkpt lat="34.213459" lon="-2.645432">
        <ele>745.2</ele>
        <time>2008-03-16T12:04:05Z</time>
      </trkpt>
      <trkpt lat="34.212960" lon="-2.645288">
        <ele>742.3</ele>
        <time>2008-03-16T12:04:10Z</time>
      </trkpt>
      <trkpt lat="34.212509" lon="-2.644932">
        <ele>738.9</ele>
        <time>2008-03-16T12:04:15Z</time>
      </trkpt>
      <trkpt lat="34.212212" lon="-2.644477">
        <ele>735.1</ele>
        <time>2008-03-16T12:04:21Z</time>
      </trkpt>
      <trkpt lat="34.211809" lon="-2.644379">
        <ele>702.4</ele>
        <time>2008-03-16T12:07:40Z</time>
      </trkpt>
      <trkpt lat="34.211376" lon="-2.644246">
        <ele>696.6</ele>
        <time>2008-03-16T12:07:46Z</time>
      </trkpt>
      <trkpt lat="34.210888" lon="-2.644461">
        <ele>692.3</ele>
        <time>2008-03-16T12:07:52Z</time>
      </trkpt>
      <trkpt lat="34.210385" lon="-2.644214">
        <ele>690.8</ele>
        <time>2008-03-16T12:07:58Z</time>
      </trkpt>
      <trkpt lat="34.209898" lon="-2.644068">
        <ele>688.0</ele>
        <time>2008-03-16T12:08:04Z</time>
      </trkpt>
      <trkpt lat="34.209433" lon="-2.644272">
        <ele>679.3</ele>
        <time>2008-03-16T12:08:09Z</time>
      </trkpt>
      <trkpt lat="34.209046" lon="-2.644607">
        <ele>674.0</ele>
        <time>2008-03-16T12:08:15Z</time>
      </trkpt>
      <trkpt lat="34.208873" lon="-2.645213">
        <ele>670.7</ele>
        <time>2008-03-16T12:08:20Z</time>
      </trkpt>
      <trkpt lat="34.208662" lon="-2.645845">
        <ele>669.2</ele>
        <time>2008-03-16T12:08:25Z</time>
      </trkpt>
      <trkpt lat="34.208471" lon="-2.646492">
        <ele>669.2</ele>
        <time>2008-03-16T12:08:30Z</time>
      </trkpt>
      <trkpt lat="34.208261" lon="-2.647089">
        <ele>669.2</ele>
        <time>2008-03-16T12:08:35Z</time>
      </trkpt>
      <trkpt lat="34.207944" lon="-2.647632">
        <ele>669.2</ele>
        <time>2008-03-16T12:08:40Z</time>
      </trkpt>
      <trkpt lat="34.207435" lon="-2.647890">
        <ele>666.3</ele>
        <time>2008-03-16T12:08:44Z</time>
      </trkpt>
      <trkpt lat="34.206895" lon="-2.648078">
        <ele>662.0</ele>
        <time>2008-03-16T12:08:49Z</time>
      </trkpt>
      <trkpt lat="34.206653" lon="-2.648561">
        <ele>657.7</ele>
        <time>2008-03-16T12:08:53Z</time>
      </trkpt>
      <trkpt lat="34.206522" lon="-2.649124">
        <ele>653.8</ele>
        <time>2008-03-16T12:08:57Z</time>
      </trkpt>
      <trkpt lat="34.206365" lon="-2.649703">
        <ele>651.9</ele>
        <time>2008-03-16T12:09:01Z</time>
      </trkpt>
      <trkpt lat="34.206136" lon="-2.650218">
        <ele>649.0</ele>
        <time>2008-03-16T12:09:05Z</time>
      </trkpt>
      <trkpt lat="34.205768" lon="-2.650641">
        <ele>646.1</ele>
        <time>2008-03-16T12:09:09Z</time>
      </trkpt>
      <trkpt lat="34.205375" lon="-2.651015">
        <ele>644.7</ele>
        <time>2008-03-16T12:09:13Z</time>
      </trkpt>
      <trkpt lat="34.204963" lon="-2.651372">
        <ele>646.6</ele>
        <time>2008-03-16T12:09:17Z</time>
      </trkpt>
      <trkpt lat="34.204559" lon="-2.651754">
        <ele>651.9</ele>
        <time>2008-03-16T12:09:21Z</time>
      </trkpt>
      <trkpt lat="34.204198" lon="-2.652167">
        <ele>658.2</ele>
        <time>2008-03-16T12:09:25Z</time>
      </trkpt>
      <trkpt lat="34.203879" lon="-2.652619">
        <ele>662.0</ele>
        <time>2008-03-16T12:09:29Z</time>
      </trkpt>
      <trkpt lat="34.203558" lon="-2.653011">
        <ele>663.9</ele>
        <time>2008-03-16T12:09:33Z</time>
      </trkpt>
      <trkpt lat="34.203138" lon="-2.653236">
        <ele>664.9</ele>
        <time>2008-03-16T12:09:37Z</time>
      </trkpt>
      <trkpt lat="34.202695" lon="-2.653502">
        <ele>666.3</ele>
        <time>2008-03-16T12:09:41Z</time>
      </trkpt>
      <trkpt lat="34.202281" lon="-2.653765">
        <ele>667.3</ele>
        <time>2008-03-16T12:09:45Z</time>
      </trkpt>
      <trkpt lat="34.202053" lon="-2.653384">
        <ele>676.4</ele>
        <time>2008-03-16T12:09:51Z</time>
      </trkpt>
      <trkpt lat="34.202138" lon="-2.652768">
        <ele>682.2</ele>
        <time>2008-03-16T12:09:56Z</time>
      </trkpt>
      <trkpt lat="34.202291" lon="-2.652206">
        <ele>688.9</ele>
        <time>2008-03-16T12:10:00Z</time>
      </trkpt>
      <trkpt lat="34.202620" lon="-2.651825">
        <ele>693.7</ele>
        <time>2008-03-16T12:10:04Z</time>
      </trkpt>
      <trkpt lat="34.202930" lon="-2.651397">
        <ele>699.5</ele>
        <time>2008-03-16T12:10:09Z</time>
      </trkpt>
      <trkpt lat="34.202837" lon="-2.650762">
        <ele>703.3</ele>
        <time>2008-03-16T12:10:14Z</time>
      </trkpt>
      <trkpt lat="34.202930" lon="-2.650211">
        <ele>706.7</ele>
        <time>2008-03-16T12:10:18Z</time>
      </trkpt>
      <trkpt lat="34.202866" lon="-2.649670">
        <ele>710.6</ele>
        <time>2008-03-16T12:10:23Z</time>
      </trkpt>
      <trkpt lat="34.202387" lon="-2.649305">
        <ele>713.4</ele>
        <time>2008-03-16T12:10:28Z</time>
      </trkpt>
      <trkpt lat="34.201910" lon="-2.649022">
        <ele>716.3</ele>
        <time>2008-03-16T12:10:32Z</time>
      </trkpt>
      <trkpt lat="34.201418" lon="-2.648716">
        <ele>720.2</ele>
        <time>2008-03-16T12:10:36Z</time>
      </trkpt>
      <trkpt lat="34.200943" lon="-2.648428">
        <ele>723.0</ele>
        <time>2008-03-16T12:10:40Z</time>
      </trkpt>
      <trkpt lat="34.200514" lon="-2.648158">
        <ele>725.0</ele>
        <time>2008-03-16T12:10:44Z</time>
      </trkpt>
      <trkpt lat="34.200075" lon="-2.647870">
        <ele>724.5</ele>
        <time>2008-03-16T12:10:49Z</time>
      </trkpt>
      <trkpt lat="34.199734" lon="-2.647461">
        <ele>721.6</ele>
        <time>2008-03-16T12:10:53Z</time>
      </trkpt>
      <trkpt lat="34.199359" lon="-2.647073">
        <ele>718.2</ele>
        <time>2008-03-16T12:10:57Z</time>
      </trkpt>
      <trkpt lat="34.199033" lon="-2.646610">
        <ele>714.4</ele>
        <time>2008-03-16T12:11:02Z</time>
      </trkpt>
      <trkpt lat="34.199007" lon="-2.645947">
        <ele>709.6</ele>
        <time>2008-03-16T12:11:07Z</time>
      </trkpt>
      <trkpt lat="34.198735" lon="-2.645442">
        <ele>706.7</ele>
        <time>2008-03-16T12:11:11Z</time>
      </trkpt>
      <trkpt lat="34.198440" lon="-2.644918">
        <ele>703.3</ele>
        <time>2008-03-16T12:11:15Z</time>
      </trkpt>
      <trkpt lat="34.198130" lon="-2.644386">
        <ele>699.0</ele>
        <time>2008-03-16T12:11:19Z</time>
      </trkpt>
      <trkpt lat="34.197776" lon="-2.643905">
        <ele>695.2</ele>
        <time>2008-03-16T12:11:23Z</time>
      </trkpt>
      <trkpt lat="34.197389" lon="-2.643683">
        <ele>692.3</ele>
        <time>2008-03-16T12:11:27Z</time>
      </trkpt>
      <trkpt lat="34.196931" lon="-2.643826">
        <ele>691.3</ele>
        <time>2008-03-16T12:11:31Z</time>
      </trkpt>
      <trkpt lat="34.196531" lon="-2.644251">
        <ele>689.4</ele>
        <time>2008-03-16T12:11:36Z</time>
      </trkpt>
      <trkpt lat="34.196160" lon="-2.644558">
        <ele>687.0</ele>
        <time>2008-03-16T12:11:41Z</time>
      </trkpt>
      <trkpt lat="34.195599" lon="-2.644489">
        <ele>682.2</ele>
        <time>2008-03-16T12:11:46Z</time>
      </trkpt>
      <trkpt lat="34.195033" lon="-2.644337">
        <ele>681.7</ele>
        <time>2008-03-16T12:11:50Z</time>
      </trkpt>
      <trkpt lat="34.194565" lon="-2.644208">
        <ele>684.1</ele>
        <time>2008-03-16T12:11:53Z</time>
      </trkpt>
      <trkpt lat="34.194081" lon="-2.644064">
        <ele>686.5</ele>
        <time>2008-03-16T12:11:56Z</time>
      </trkpt>
      <trkpt lat="34.193595" lon="-2.643923">
        <ele>689.9</ele>
        <time>2008-03-16T12:11:59Z</time>
      </trkpt>
      <trkpt lat="34.193154" lon="-2.643787">
        <ele>692.3</ele>
        <time>2008-03-16T12:12:02Z</time>
      </trkpt>
      <trkpt lat="34.192572" lon="-2.643616">
        <ele>694.7</ele>
        <time>2008-03-16T12:12:06Z</time>
      </trkpt>
      <trkpt lat="34.192112" lon="-2.643482">
        <ele>695.7</ele>
        <time>2008-03-16T12:12:09Z</time>
      </trkpt>
      <trkpt lat="34.191640" lon="-2.643348">
        <ele>697.1</ele>
        <time>2008-03-16T12:12:12Z</time>
      </trkpt>
      <trkpt lat="34.191167" lon="-2.643219">
        <ele>698.5</ele>
        <time>2008-03-16T12:12:15Z</time>
      </trkpt>
      <trkpt lat="34.190690" lon="-2.643091">
        <ele>699.0</ele>
        <time>2008-03-16T12:12:18Z</time>
      </trkpt>
      <trkpt lat="34.190210" lon="-2.642956">
        <ele>699.5</ele>
        <time>2008-03-16T12:12:21Z</time>
      </trkpt>
      <trkpt lat="34.189726" lon="-2.642817">
        <ele>700.5</ele>
        <time>2008-03-16T12:12:24Z</time>
      </trkpt>
      <trkpt lat="34.189243" lon="-2.642676">
        <ele>701.9</ele>
        <time>2008-03-16T12:12:27Z</time>
      </trkpt>
      <trkpt lat="34.188761" lon="-2.642534">
        <ele>703.3</ele>
        <time>2008-03-16T12:12:30Z</time>
      </trkpt>
      <trkpt lat="34.188270" lon="-2.642382">
        <ele>704.8</ele>
        <time>2008-03-16T12:12:33Z</time>
      </trkpt>
      <trkpt lat="34.187781" lon="-2.642236">
        <ele>706.2</ele>
        <time>2008-03-16T12:12:36Z</time>
      </trkpt>
      <trkpt lat="34.187310" lon="-2.642075">
        <ele>706.7</ele>
        <time>2008-03-16T12:12:39Z</time>
      </trkpt>
      <trkpt lat="34.186853" lon="-2.641844">
        <ele>706.2</ele>
        <time>2008-03-16T12:12:42Z</time>
      </trkpt>
      <trkpt lat="34.186405" lon="-2.641512">
        <ele>704.3</ele>
        <time>2008-03-16T12:12:45Z</time>
      </trkpt>
      <trkpt lat="34.185959" lon="-2.641146">
        <ele>703.8</ele>
        <time>2008-03-16T12:12:48Z</time>
      </trkpt>
      <trkpt lat="34.185538" lon="-2.640788">
        <ele>704.3</ele>
        <time>2008-03-16T12:12:51Z</time>
      </trkpt>
      <trkpt lat="34.185129" lon="-2.640381">
        <ele>704.8</ele>
        <time>2008-03-16T12:12:54Z</time>
      </trkpt>
      <trkpt lat="34.184734" lon="-2.639925">
        <ele>705.3</ele>
        <time>2008-03-16T12:12:57Z</time>
      </trkpt>
      <trkpt lat="34.184339" lon="-2.639460">
        <ele>706.2</ele>
        <time>2008-03-16T12:13:00Z</time>
      </trkpt>
      <trkpt lat="34.183951" lon="-2.639004">
        <ele>707.2</ele>
        <time>2008-03-16T12:13:03Z</time>
      </trkpt>
      <trkpt lat="34.183574" lon="-2.638496">
        <ele>709.1</ele>
        <time>2008-03-16T12:13:06Z</time>
      </trkpt>
      <trkpt lat="34.183231" lon="-2.637943">
        <ele>710.1</ele>
        <time>2008-03-16T12:13:09Z</time>
      </trkpt>
      <trkpt lat="34.182921" lon="-2.637337">
        <ele>711.0</ele>
        <time>2008-03-16T12:13:12Z</time>
      </trkpt>
      <trkpt lat="34.182623" lon="-2.636746">
        <ele>711.5</ele>
        <time>2008-03-16T12:13:15Z</time>
      </trkpt>
      <trkpt lat="34.182255" lon="-2.636243">
        <ele>712.0</ele>
        <time>2008-03-16T12:13:18Z</time>
      </trkpt>
      <trkpt lat="34.181805" lon="-2.635847">
        <ele>713.4</ele>
        <time>2008-03-16T12:13:21Z</time>
      </trkpt>
      <trkpt lat="34.181352" lon="-2.635468">
        <ele>714.9</ele>
        <time>2008-03-16T12:13:24Z</time>
      </trkpt>
      <trkpt lat="34.180871" lon="-2.635196">
        <ele>715.8</ele>
        <time>2008-03-16T12:13:27Z</time>
      </trkpt>
      <trkpt lat="34.180350" lon="-2.635006">
        <ele>717.3</ele>
        <time>2008-03-16T12:13:30Z</time>
      </trkpt>
      <trkpt lat="34.179834" lon="-2.634748">
        <ele>717.3</ele>
        <time>2008-03-16T12:13:33Z</time>
      </trkpt>
      <trkpt lat="34.179319" lon="-2.634479">
        <ele>717.8</ele>
        <time>2008-03-16T12:13:36Z</time>
      </trkpt>
      <trkpt lat="34.178818" lon="-2.634204">
        <ele>718.7</ele>
        <time>2008-03-16T12:13:39Z</time>
      </trkpt>
      <trkpt lat="34.178368" lon="-2.633830">
        <ele>720.6</ele>
        <time>2008-03-16T12:13:42Z</time>
      </trkpt>
      <trkpt lat="34.178012" lon="-2.633331">
        <ele>723.5</ele>
        <time>2008-03-16T12:13:45Z</time>
      </trkpt>
      <trkpt lat="34.177713" lon="-2.632772">
        <ele>726.9</ele>
        <time>2008-03-16T12:13:48Z</time>
      </trkpt>
      <trkpt lat="34.177495" lon="-2.632149">
        <ele>729.3</ele>
        <time>2008-03-16T12:13:51Z</time>
      </trkpt>
      <trkpt lat="34.177307" lon="-2.631495">
        <ele>731.7</ele>
        <time>2008-03-16T12:13:54Z</time>
      </trkpt>
      <trkpt lat="34.177116" lon="-2.630836">
        <ele>734.6</ele>
        <time>2008-03-16T12:13:57Z</time>
      </trkpt>
      <trkpt lat="34.176888" lon="-2.630205">
        <ele>736.0</ele>
        <time>2008-03-16T12:14:00Z</time>
      </trkpt>
      <trkpt lat="34.176573" lon="-2.629642">
        <ele>737.0</ele>
        <time>2008-03-16T12:14:03Z</time>
      </trkpt>
      <trkpt lat="34.176173" lon="-2.629159">
        <ele>739.4</ele>
        <time>2008-03-16T12:14:06Z</time>
      </trkpt>
      <trkpt lat="34.175764" lon="-2.628689">
        <ele>740.4</ele>
        <time>2008-03-16T12:14:09Z</time>
      </trkpt>
      <trkpt lat="34.175302" lon="-2.628283">
        <ele>741.8</ele>
        <time>2008-03-16T12:14:12Z</time>
      </trkpt>
      <trkpt lat="34.174806" lon="-2.627937">
        <ele>743.2</ele>
        <time>2008-03-16T12:14:15Z</time>
      </trkpt>
      <trkpt lat="34.174298" lon="-2.627655">
        <ele>745.6</ele>
        <time>2008-03-16T12:14:18Z</time>
      </trkpt>
      <trkpt lat="34.173781" lon="-2.627432">
        <ele>746.6</ele>
        <time>2008-03-16T12:14:21Z</time>
      </trkpt>
      <trkpt lat="34.173285" lon="-2.627297">
        <ele>747.6</ele>
        <time>2008-03-16T12:14:24Z</time>
      </trkpt>
      <trkpt lat="34.172920" lon="-2.626991">
        <ele>748.5</ele>
        <time>2008-03-16T12:14:27Z</time>
      </trkpt>
      <trkpt lat="34.172686" lon="-2.626511">
        <ele>749.5</ele>
        <time>2008-03-16T12:14:30Z</time>
      </trkpt>
      <trkpt lat="34.172455" lon="-2.625955">
        <ele>752.4</ele>
        <time>2008-03-16T12:14:33Z</time>
      </trkpt>
      <trkpt lat="34.172224" lon="-2.625384">
        <ele>755.7</ele>
        <time>2008-03-16T12:14:36Z</time>
      </trkpt>
      <trkpt lat="34.171989" lon="-2.624786">
        <ele>759.6</ele>
        <time>2008-03-16T12:14:39Z</time>
      </trkpt>
      <trkpt lat="34.171749" lon="-2.624195">
        <ele>763.9</ele>
        <time>2008-03-16T12:14:42Z</time>
      </trkpt>
      <trkpt lat="34.171511" lon="-2.623615">
        <ele>767.8</ele>
        <time>2008-03-16T12:14:45Z</time>
      </trkpt>
      <trkpt lat="34.171284" lon="-2.623068">
        <ele>772.1</ele>
        <time>2008-03-16T12:14:48Z</time>
      </trkpt>
      <trkpt lat="34.171014" lon="-2.622646">
        <ele>774.5</ele>
        <time>2008-03-16T12:14:51Z</time>
      </trkpt>
      <trkpt lat="34.170640" lon="-2.622299">
        <ele>775.4</ele>
        <time>2008-03-16T12:14:54Z</time>
      </trkpt>
      <trkpt lat="34.170255" lon="-2.621915">
        <ele>775.9</ele>
        <time>2008-03-16T12:14:57Z</time>
      </trkpt>
      <trkpt lat="34.169856" lon="-2.621483">
        <ele>776.4</ele>
        <time>2008-03-16T12:15:00Z</time>
      </trkpt>
      <trkpt lat="34.169445" lon="-2.621055">
        <ele>779.3</ele>
        <time>2008-03-16T12:15:03Z</time>
      </trkpt>
      <trkpt lat="34.169068" lon="-2.620594">
        <ele>782.7</ele>
        <time>2008-03-16T12:15:06Z</time>
      </trkpt>
      <trkpt lat="34.168745" lon="-2.620103">
        <ele>785.5</ele>
        <time>2008-03-16T12:15:09Z</time>
      </trkpt>
      <trkpt lat="34.168464" lon="-2.619624">
        <ele>788.9</ele>
        <time>2008-03-16T12:15:12Z</time>
      </trkpt>
      <trkpt lat="34.168274" lon="-2.619133">
        <ele>791.8</ele>
        <time>2008-03-16T12:15:15Z</time>
      </trkpt>
      <trkpt lat="34.168114" lon="-2.618530">
        <ele>793.2</ele>
        <time>2008-03-16T12:15:19Z</time>
      </trkpt>
      <trkpt lat="34.167926" lon="-2.617939">
        <ele>790.8</ele>
        <time>2008-03-16T12:15:23Z</time>
      </trkpt>
      <trkpt lat="34.167652" lon="-2.617331">
        <ele>788.4</ele>
        <time>2008-03-16T12:15:27Z</time>
      </trkpt>
      <trkpt lat="34.167430" lon="-2.616844">
        <ele>785.1</ele>
        <time>2008-03-16T12:15:30Z</time>
      </trkpt>
      <trkpt lat="34.167200" lon="-2.616355">
        <ele>782.7</ele>
        <time>2008-03-16T12:15:33Z</time>
      </trkpt>
      <trkpt lat="34.166873" lon="-2.615857">
        <ele>779.8</ele>
        <time>2008-03-16T12:15:37Z</time>
      </trkpt>
      <trkpt lat="34.166390" lon="-2.615725">
        <ele>776.9</ele>
        <time>2008-03-16T12:15:41Z</time>
      </trkpt>
      <trkpt lat="34.165847" lon="-2.615907">
        <ele>775.4</ele>
        <time>2008-03-16T12:15:45Z</time>
      </trkpt>
      <trkpt lat="34.165345" lon="-2.615977">
        <ele>777.4</ele>
        <time>2008-03-16T12:15:49Z</time>
      </trkpt>
      <trkpt lat="34.164872" lon="-2.615687">
        <ele>779.3</ele>
        <time>2008-03-16T12:15:53Z</time>
      </trkpt>
      <trkpt lat="34.164410" lon="-2.615357">
        <ele>779.3</ele>
        <time>2008-03-16T12:15:57Z</time>
      </trkpt>
      <trkpt lat="34.163929" lon="-2.615133">
        <ele>775.4</ele>
        <time>2008-03-16T12:16:01Z</time>
      </trkpt>
      <trkpt lat="34.163389" lon="-2.615005">
        <ele>772.6</ele>
        <time>2008-03-16T12:16:05Z</time>
      </trkpt>
      <trkpt lat="34.162832" lon="-2.614962">
        <ele>775.0</ele>
        <time>2008-03-16T12:16:09Z</time>
      </trkpt>
      <trkpt lat="34.162268" lon="-2.614957">
        <ele>776.9</ele>
        <time>2008-03-16T12:16:13Z</time>
      </trkpt>
      <trkpt lat="34.161731" lon="-2.614876">
        <ele>778.3</ele>
        <time>2008-03-16T12:16:17Z</time>
      </trkpt>
      <trkpt lat="34.161185" lon="-2.614698">
        <ele>778.8</ele>
        <time>2008-03-16T12:16:21Z</time>
      </trkpt>
      <trkpt lat="34.160383" lon="-2.614498">
        <ele>776.9</ele>
        <time>2008-03-16T13:54:04Z</time>
      </trkpt>
      <trkpt lat="34.159920" lon="-2.614455">
        <ele>775.4</ele>
        <time>2008-03-16T13:54:12Z</time>
      </trkpt>
      <trkpt lat="34.159436" lon="-2.614293">
        <ele>775.0</ele>
        <time>2008-03-16T13:54:19Z</time>
      </trkpt>
      <trkpt lat="34.159001" lon="-2.613877">
        <ele>776.4</ele>
        <time>2008-03-16T13:54:25Z</time>
      </trkpt>
      <trkpt lat="34.158608" lon="-2.613595">
        <ele>778.3</ele>
        <time>2008-03-16T13:54:29Z</time>
      </trkpt>
      <trkpt lat="34.158132" lon="-2.613379">
        <ele>782.7</ele>
        <time>2008-03-16T13:54:34Z</time>
      </trkpt>
      <trkpt lat="34.157998" lon="-2.612826">
        <ele>787.5</ele>
        <time>2008-03-16T13:54:39Z</time>
      </trkpt>
      <trkpt lat="34.157823" lon="-2.612352">
        <ele>789.4</ele>
        <time>2008-03-16T13:54:44Z</time>
      </trkpt>
      <trkpt lat="34.157336" lon="-2.612273">
        <ele>789.4</ele>
        <time>2008-03-16T13:54:49Z</time>
      </trkpt>
      <trkpt lat="34.156843" lon="-2.612230">
        <ele>789.9</ele>
        <time>2008-03-16T13:54:53Z</time>
      </trkpt>
      <trkpt lat="34.156307" lon="-2.612181">
        <ele>790.3</ele>
        <time>2008-03-16T13:54:57Z</time>
      </trkpt>
      <trkpt lat="34.155755" lon="-2.612193">
        <ele>790.3</ele>
        <time>2008-03-16T13:55:01Z</time>
      </trkpt>
      <trkpt lat="34.155206" lon="-2.612341">
        <ele>790.3</ele>
        <time>2008-03-16T13:55:05Z</time>
      </trkpt>
      <trkpt lat="34.154638" lon="-2.612390">
        <ele>790.3</ele>
        <time>2008-03-16T13:55:09Z</time>
      </trkpt>
      <trkpt lat="34.154049" lon="-2.612441">
        <ele>791.3</ele>
        <time>2008-03-16T13:55:13Z</time>
      </trkpt>
      <trkpt lat="34.153449" lon="-2.612543">
        <ele>791.8</ele>
        <time>2008-03-16T13:55:17Z</time>
      </trkpt>
      <trkpt lat="34.153018" lon="-2.612677">
        <ele>791.8</ele>
        <time>2008-03-16T13:55:20Z</time>
      </trkpt>
      <trkpt lat="34.152483" lon="-2.612949">
        <ele>792.3</ele>
        <time>2008-03-16T13:55:24Z</time>
      </trkpt>
      <trkpt lat="34.152044" lon="-2.613384">
        <ele>794.2</ele>
        <time>2008-03-16T13:55:28Z</time>
      </trkpt>
      <trkpt lat="34.151698" lon="-2.613903">
        <ele>797.1</ele>
        <time>2008-03-16T13:55:32Z</time>
      </trkpt>
      <trkpt lat="34.151584" lon="-2.614426">
        <ele>799.0</ele>
        <time>2008-03-16T13:55:36Z</time>
      </trkpt>
      <trkpt lat="34.151513" lon="-2.614973">
        <ele>795.6</ele>
        <time>2008-03-16T13:55:42Z</time>
      </trkpt>
      <trkpt lat="34.151049" lon="-2.614987">
        <ele>792.3</ele>
        <time>2008-03-16T13:55:47Z</time>
      </trkpt>
      <trkpt lat="34.150565" lon="-2.614858">
        <ele>788.9</ele>
        <time>2008-03-16T13:55:52Z</time>
      </trkpt>
      <trkpt lat="34.150112" lon="-2.614927">
        <ele>784.6</ele>
        <time>2008-03-16T13:55:58Z</time>
      </trkpt>
      <trkpt lat="34.149647" lon="-2.614963">
        <ele>785.1</ele>
        <time>2008-03-16T13:56:05Z</time>
      </trkpt>
      <trkpt lat="34.149145" lon="-2.614899">
        <ele>785.5</ele>
        <time>2008-03-16T13:56:10Z</time>
      </trkpt>
      <trkpt lat="34.148634" lon="-2.614970">
        <ele>788.9</ele>
        <time>2008-03-16T13:56:14Z</time>
      </trkpt>
      <trkpt lat="34.148030" lon="-2.615040">
        <ele>792.3</ele>
        <time>2008-03-16T13:56:18Z</time>
      </trkpt>
      <trkpt lat="34.147551" lon="-2.615054">
        <ele>794.7</ele>
        <time>2008-03-16T13:56:21Z</time>
      </trkpt>
      <trkpt lat="34.147050" lon="-2.615043">
        <ele>796.6</ele>
        <time>2008-03-16T13:56:24Z</time>
      </trkpt>
      <trkpt lat="34.146532" lon="-2.615028">
        <ele>800.4</ele>
        <time>2008-03-16T13:56:27Z</time>
      </trkpt>
      <trkpt lat="34.146047" lon="-2.615046">
        <ele>803.3</ele>
        <time>2008-03-16T13:56:30Z</time>
      </trkpt>
      <trkpt lat="34.145600" lon="-2.615228">
        <ele>806.2</ele>
        <time>2008-03-16T13:56:33Z</time>
      </trkpt>
      <trkpt lat="34.145157" lon="-2.615481">
        <ele>808.6</ele>
        <time>2008-03-16T13:56:36Z</time>
      </trkpt>
      <trkpt lat="34.144697" lon="-2.615754">
        <ele>811.5</ele>
        <time>2008-03-16T13:56:39Z</time>
      </trkpt>
      <trkpt lat="34.144225" lon="-2.615981">
        <ele>814.9</ele>
        <time>2008-03-16T13:56:42Z</time>
      </trkpt>
      <trkpt lat="34.143742" lon="-2.616165">
        <ele>817.3</ele>
        <time>2008-03-16T13:56:45Z</time>
      </trkpt>
      <trkpt lat="34.143258" lon="-2.616329">
        <ele>819.2</ele>
        <time>2008-03-16T13:56:48Z</time>
      </trkpt>
      <trkpt lat="34.142787" lon="-2.616479">
        <ele>821.1</ele>
        <time>2008-03-16T13:56:51Z</time>
      </trkpt>
      <trkpt lat="34.142359" lon="-2.616685">
        <ele>822.5</ele>
        <time>2008-03-16T13:56:54Z</time>
      </trkpt>
      <trkpt lat="34.141935" lon="-2.617201">
        <ele>824.9</ele>
        <time>2008-03-16T13:56:58Z</time>
      </trkpt>
      <trkpt lat="34.141676" lon="-2.617650">
        <ele>826.9</ele>
        <time>2008-03-16T13:57:01Z</time>
      </trkpt>
      <trkpt lat="34.141422" lon="-2.618263">
        <ele>829.3</ele>
        <time>2008-03-16T13:57:05Z</time>
      </trkpt>
      <trkpt lat="34.141160" lon="-2.618732">
        <ele>831.7</ele>
        <time>2008-03-16T13:57:09Z</time>
      </trkpt>
      <trkpt lat="34.140664" lon="-2.618755">
        <ele>833.6</ele>
        <time>2008-03-16T13:57:14Z</time>
      </trkpt>
      <trkpt lat="34.140329" lon="-2.619151">
        <ele>837.0</ele>
        <time>2008-03-16T13:57:19Z</time>
      </trkpt>
      <trkpt lat="34.140098" lon="-2.619665">
        <ele>839.8</ele>
        <time>2008-03-16T13:57:23Z</time>
      </trkpt>
      <trkpt lat="34.139808" lon="-2.620224">
        <ele>844.2</ele>
        <time>2008-03-16T13:57:27Z</time>
      </trkpt>
      <trkpt lat="34.139500" lon="-2.620747">
        <ele>849.9</ele>
        <time>2008-03-16T13:57:31Z</time>
      </trkpt>
      <trkpt lat="34.139266" lon="-2.621277">
        <ele>855.2</ele>
        <time>2008-03-16T13:57:35Z</time>
      </trkpt>
      <trkpt lat="34.139146" lon="-2.621825">
        <ele>859.6</ele>
        <time>2008-03-16T13:57:39Z</time>
      </trkpt>
      <trkpt lat="34.138940" lon="-2.622337">
        <ele>864.8</ele>
        <time>2008-03-16T13:57:44Z</time>
      </trkpt>
      <trkpt lat="34.138509" lon="-2.622629">
        <ele>868.2</ele>
        <time>2008-03-16T13:57:49Z</time>
      </trkpt>
      <trkpt lat="34.138215" lon="-2.623126">
        <ele>869.6</ele>
        <time>2008-03-16T13:57:54Z</time>
      </trkpt>
      <trkpt lat="34.137942" lon="-2.623583">
        <ele>872.1</ele>
        <time>2008-03-16T13:57:59Z</time>
      </trkpt>
      <trkpt lat="34.137517" lon="-2.623921">
        <ele>871.1</ele>
        <time>2008-03-16T13:58:04Z</time>
      </trkpt>
      <trkpt lat="34.136969" lon="-2.623958">
        <ele>867.7</ele>
        <time>2008-03-16T13:58:09Z</time>
      </trkpt>
      <trkpt lat="34.136516" lon="-2.623943">
        <ele>865.3</ele>
        <time>2008-03-16T13:58:13Z</time>
      </trkpt>
      <trkpt lat="34.136059" lon="-2.624042">
        <ele>860.5</ele>
        <time>2008-03-16T13:58:17Z</time>
      </trkpt>
      <trkpt lat="34.135540" lon="-2.624083">
        <ele>857.2</ele>
        <time>2008-03-16T13:58:22Z</time>
      </trkpt>
      <trkpt lat="34.135291" lon="-2.623600">
        <ele>856.7</ele>
        <time>2008-03-16T13:58:27Z</time>
      </trkpt>
      <trkpt lat="34.135348" lon="-2.623054">
        <ele>859.1</ele>
        <time>2008-03-16T13:58:31Z</time>
      </trkpt>
      <trkpt lat="34.135373" lon="-2.622473">
        <ele>863.4</ele>
        <time>2008-03-16T13:58:36Z</time>
      </trkpt>
      <trkpt lat="34.134995" lon="-2.622762">
        <ele>866.8</ele>
        <time>2008-03-16T13:58:43Z</time>
      </trkpt>
      <trkpt lat="34.134624" lon="-2.623328">
        <ele>869.6</ele>
        <time>2008-03-16T13:58:48Z</time>
      </trkpt>
      <trkpt lat="34.134274" lon="-2.623878">
        <ele>872.1</ele>
        <time>2008-03-16T13:58:52Z</time>
      </trkpt>
      <trkpt lat="34.133964" lon="-2.624288">
        <ele>872.5</ele>
        <time>2008-03-16T13:58:55Z</time>
      </trkpt>
      <trkpt lat="34.133548" lon="-2.624555">
        <ele>874.5</ele>
        <time>2008-03-16T13:58:58Z</time>
      </trkpt>
      <trkpt lat="34.133084" lon="-2.624746">
        <ele>877.3</ele>
        <time>2008-03-16T13:59:01Z</time>
      </trkpt>
      <trkpt lat="34.132602" lon="-2.624920">
        <ele>879.7</ele>
        <time>2008-03-16T13:59:04Z</time>
      </trkpt>
      <trkpt lat="34.132112" lon="-2.625123">
        <ele>882.6</ele>
        <time>2008-03-16T13:59:07Z</time>
      </trkpt>
      <trkpt lat="34.131604" lon="-2.625300">
        <ele>886.0</ele>
        <time>2008-03-16T13:59:10Z</time>
      </trkpt>
      <trkpt lat="34.131069" lon="-2.625352">
        <ele>889.8</ele>
        <time>2008-03-16T13:59:13Z</time>
      </trkpt>
      <trkpt lat="34.130536" lon="-2.625312">
        <ele>894.6</ele>
        <time>2008-03-16T13:59:16Z</time>
      </trkpt>
      <trkpt lat="34.130062" lon="-2.625254">
        <ele>898.0</ele>
        <time>2008-03-16T13:59:19Z</time>
      </trkpt>
      <trkpt lat="34.129661" lon="-2.625413">
        <ele>900.4</ele>
        <time>2008-03-16T13:59:23Z</time>
      </trkpt>
      <trkpt lat="34.129640" lon="-2.626067">
        <ele>904.7</ele>
        <time>2008-03-16T13:59:28Z</time>
      </trkpt>
      <trkpt lat="34.129698" lon="-2.626631">
        <ele>906.2</ele>
        <time>2008-03-16T13:59:32Z</time>
      </trkpt>
      <trkpt lat="34.129393" lon="-2.627011">
        <ele>909.1</ele>
        <time>2008-03-16T13:59:36Z</time>
      </trkpt>
      <trkpt lat="34.128906" lon="-2.627129">
        <ele>913.9</ele>
        <time>2008-03-16T13:59:40Z</time>
      </trkpt>
      <trkpt lat="34.128423" lon="-2.627313">
        <ele>918.7</ele>
        <time>2008-03-16T13:59:44Z</time>
      </trkpt>
      <trkpt lat="34.128142" lon="-2.627790">
        <ele>919.6</ele>
        <time>2008-03-16T13:59:48Z</time>
      </trkpt>
      <trkpt lat="34.127791" lon="-2.628266">
        <ele>921.1</ele>
        <time>2008-03-16T13:59:52Z</time>
      </trkpt>
      <trkpt lat="34.127274" lon="-2.628482">
        <ele>923.0</ele>
        <time>2008-03-16T13:59:56Z</time>
      </trkpt>
      <trkpt lat="34.126710" lon="-2.628655">
        <ele>929.3</ele>
        <time>2008-03-16T14:00:00Z</time>
      </trkpt>
      <trkpt lat="34.126255" lon="-2.629029">
        <ele>936.5</ele>
        <time>2008-03-16T14:00:04Z</time>
      </trkpt>
      <trkpt lat="34.125996" lon="-2.629561">
        <ele>940.3</ele>
        <time>2008-03-16T14:00:08Z</time>
      </trkpt>
      <trkpt lat="34.125784" lon="-2.630088">
        <ele>942.7</ele>
        <time>2008-03-16T14:00:12Z</time>
      </trkpt>
      <trkpt lat="34.125727" lon="-2.630674">
        <ele>944.6</ele>
        <time>2008-03-16T14:00:16Z</time>
      </trkpt>
      <trkpt lat="34.125790" lon="-2.631316">
        <ele>947.0</ele>
        <time>2008-03-16T14:00:20Z</time>
      </trkpt>
      <trkpt lat="34.125549" lon="-2.631952">
        <ele>951.8</ele>
        <time>2008-03-16T14:00:24Z</time>
      </trkpt>
      <trkpt lat="34.125268" lon="-2.632397">
        <ele>956.2</ele>
        <time>2008-03-16T14:00:27Z</time>
      </trkpt>
      <trkpt lat="34.124982" lon="-2.632852">
        <ele>960.5</ele>
        <time>2008-03-16T14:00:30Z</time>
      </trkpt>
      <trkpt lat="34.124635" lon="-2.633367">
        <ele>964.8</ele>
        <time>2008-03-16T14:00:34Z</time>
      </trkpt>
      <trkpt lat="34.124231" lon="-2.633599">
        <ele>963.9</ele>
        <time>2008-03-16T14:00:38Z</time>
      </trkpt>
      <trkpt lat="34.123899" lon="-2.633978">
        <ele>961.5</ele>
        <time>2008-03-16T14:00:43Z</time>
      </trkpt>
      <trkpt lat="34.124004" lon="-2.634549">
        <ele>958.6</ele>
        <time>2008-03-16T14:00:47Z</time>
      </trkpt>
      <trkpt lat="34.123957" lon="-2.635184">
        <ele>955.7</ele>
        <time>2008-03-16T14:00:51Z</time>
      </trkpt>
      <trkpt lat="34.123625" lon="-2.635763">
        <ele>956.6</ele>
        <time>2008-03-16T14:00:55Z</time>
      </trkpt>
      <trkpt lat="34.123118" lon="-2.636072">
        <ele>958.1</ele>
        <time>2008-03-16T14:00:59Z</time>
      </trkpt>
      <trkpt lat="34.122509" lon="-2.636118">
        <ele>961.9</ele>
        <time>2008-03-16T14:01:03Z</time>
      </trkpt>
      <trkpt lat="34.121979" lon="-2.636202">
        <ele>965.3</ele>
        <time>2008-03-16T14:01:07Z</time>
      </trkpt>
      <trkpt lat="34.121687" lon="-2.636713">
        <ele>967.7</ele>
        <time>2008-03-16T14:01:12Z</time>
      </trkpt>
      <trkpt lat="34.121473" lon="-2.637207">
        <ele>970.1</ele>
        <time>2008-03-16T14:01:16Z</time>
      </trkpt>
      <trkpt lat="34.121057" lon="-2.637637">
        <ele>967.7</ele>
        <time>2008-03-16T14:01:21Z</time>
      </trkpt>
      <trkpt lat="34.120542" lon="-2.637831">
        <ele>964.3</ele>
        <time>2008-03-16T14:01:25Z</time>
      </trkpt>
      <trkpt lat="34.120085" lon="-2.637990">
        <ele>962.4</ele>
        <time>2008-03-16T14:01:28Z</time>
      </trkpt>
      <trkpt lat="34.119623" lon="-2.638159">
        <ele>963.4</ele>
        <time>2008-03-16T14:01:31Z</time>
      </trkpt>
      <trkpt lat="34.119074" lon="-2.638359">
        <ele>965.3</ele>
        <time>2008-03-16T14:01:35Z</time>
      </trkpt>
      <trkpt lat="34.118550" lon="-2.638583">
        <ele>965.8</ele>
        <time>2008-03-16T14:01:39Z</time>
      </trkpt>
      <trkpt lat="34.118026" lon="-2.638865">
        <ele>966.3</ele>
        <time>2008-03-16T14:01:43Z</time>
      </trkpt>
      <trkpt lat="34.117496" lon="-2.639132">
        <ele>966.3</ele>
        <time>2008-03-16T14:01:47Z</time>
      </trkpt>
      <trkpt lat="34.116935" lon="-2.639221">
        <ele>965.8</ele>
        <time>2008-03-16T14:01:51Z</time>
      </trkpt>
      <trkpt lat="34.116338" lon="-2.639122">
        <ele>966.3</ele>
        <time>2008-03-16T14:01:55Z</time>
      </trkpt>
      <trkpt lat="34.115874" lon="-2.639052">
        <ele>966.7</ele>
        <time>2008-03-16T14:01:58Z</time>
      </trkpt>
      <trkpt lat="34.115429" lon="-2.639031">
        <ele>967.2</ele>
        <time>2008-03-16T14:02:01Z</time>
      </trkpt>
      <trkpt lat="34.114859" lon="-2.639099">
        <ele>966.3</ele>
        <time>2008-03-16T14:02:05Z</time>
      </trkpt>
      <trkpt lat="34.114304" lon="-2.639328">
        <ele>964.8</ele>
        <time>2008-03-16T14:02:09Z</time>
      </trkpt>
      <trkpt lat="34.113903" lon="-2.639584">
        <ele>966.3</ele>
        <time>2008-03-16T14:02:12Z</time>
      </trkpt>
      <trkpt lat="34.113504" lon="-2.639846">
        <ele>969.6</ele>
        <time>2008-03-16T14:02:15Z</time>
      </trkpt>
      <trkpt lat="34.113025" lon="-2.640184">
        <ele>972.0</ele>
        <time>2008-03-16T14:02:19Z</time>
      </trkpt>
      <trkpt lat="34.112707" lon="-2.640543">
        <ele>974.0</ele>
        <time>2008-03-16T14:02:23Z</time>
      </trkpt>
      <trkpt lat="34.112254" lon="-2.640641">
        <ele>974.9</ele>
        <time>2008-03-16T14:02:29Z</time>
      </trkpt>
      <trkpt lat="34.111778" lon="-2.640618">
        <ele>974.0</ele>
        <time>2008-03-16T14:02:33Z</time>
      </trkpt>
      <trkpt lat="34.111313" lon="-2.640425">
        <ele>973.0</ele>
        <time>2008-03-16T14:02:37Z</time>
      </trkpt>
      <trkpt lat="34.110928" lon="-2.640069">
        <ele>971.1</ele>
        <time>2008-03-16T14:02:41Z</time>
      </trkpt>
      <trkpt lat="34.110480" lon="-2.639775">
        <ele>965.8</ele>
        <time>2008-03-16T14:02:46Z</time>
      </trkpt>
      <trkpt lat="34.110386" lon="-2.639193">
        <ele>963.4</ele>
        <time>2008-03-16T14:02:51Z</time>
      </trkpt>
      <trkpt lat="34.110259" lon="-2.638578">
        <ele>962.9</ele>
        <time>2008-03-16T14:02:56Z</time>
      </trkpt>
      <trkpt lat="34.110003" lon="-2.638082">
        <ele>964.3</ele>
        <time>2008-03-16T14:03:00Z</time>
      </trkpt>
      <trkpt lat="34.109708" lon="-2.637563">
        <ele>966.7</ele>
        <time>2008-03-16T14:03:04Z</time>
      </trkpt>
      <trkpt lat="34.109400" lon="-2.637014">
        <ele>968.7</ele>
        <time>2008-03-16T14:03:08Z</time>
      </trkpt>
      <trkpt lat="34.109123" lon="-2.636434">
        <ele>970.6</ele>
        <time>2008-03-16T14:03:12Z</time>
      </trkpt>
      <trkpt lat="34.108877" lon="-2.635858">
        <ele>971.5</ele>
        <time>2008-03-16T14:03:16Z</time>
      </trkpt>
      <trkpt lat="34.108682" lon="-2.635350">
        <ele>973.0</ele>
        <time>2008-03-16T14:03:20Z</time>
      </trkpt>
      <trkpt lat="34.108789" lon="-2.634785">
        <ele>968.7</ele>
        <time>2008-03-16T14:03:26Z</time>
      </trkpt>
      <trkpt lat="34.109185" lon="-2.634362">
        <ele>969.1</ele>
        <time>2008-03-16T14:03:31Z</time>
      </trkpt>
      <trkpt lat="34.109344" lon="-2.633775">
        <ele>974.4</ele>
        <time>2008-03-16T14:03:36Z</time>
      </trkpt>
      <trkpt lat="34.108946" lon="-2.633430">
        <ele>977.8</ele>
        <time>2008-03-16T14:03:41Z</time>
      </trkpt>
      <trkpt lat="34.108484" lon="-2.633221">
        <ele>979.2</ele>
        <time>2008-03-16T14:03:45Z</time>
      </trkpt>
      <trkpt lat="34.107966" lon="-2.632893">
        <ele>980.7</ele>
        <time>2008-03-16T14:03:49Z</time>
      </trkpt>
      <trkpt lat="34.107549" lon="-2.632605">
        <ele>982.1</ele>
        <time>2008-03-16T14:03:52Z</time>
      </trkpt>
      <trkpt lat="34.107135" lon="-2.632284">
        <ele>984.0</ele>
        <time>2008-03-16T14:03:55Z</time>
      </trkpt>
      <trkpt lat="34.106714" lon="-2.631956">
        <ele>985.5</ele>
        <time>2008-03-16T14:03:58Z</time>
      </trkpt>
      <trkpt lat="34.106263" lon="-2.631698">
        <ele>987.4</ele>
        <time>2008-03-16T14:04:01Z</time>
      </trkpt>
      <trkpt lat="34.105824" lon="-2.631431">
        <ele>989.3</ele>
        <time>2008-03-16T14:04:04Z</time>
      </trkpt>
      <trkpt lat="34.105383" lon="-2.631159">
        <ele>991.3</ele>
        <time>2008-03-16T14:04:07Z</time>
      </trkpt>
      <trkpt lat="34.104903" lon="-2.630935">
        <ele>992.7</ele>
        <time>2008-03-16T14:04:10Z</time>
      </trkpt>
      <trkpt lat="34.104407" lon="-2.630729">
        <ele>994.6</ele>
        <time>2008-03-16T14:04:13Z</time>
      </trkpt>
      <trkpt lat="34.103953" lon="-2.630535">
        <ele>996.5</ele>
        <time>2008-03-16T14:04:16Z</time>
      </trkpt>
      <trkpt lat="34.103397" lon="-2.630580">
        <ele>998.5</ele>
        <time>2008-03-16T14:04:20Z</time>
      </trkpt>
      <trkpt lat="34.102841" lon="-2.630661">
        <ele>1000.9</ele>
        <time>2008-03-16T14:04:24Z</time>
      </trkpt>
      <trkpt lat="34.102349" lon="-2.630341">
        <ele>1003.3</ele>
        <time>2008-03-16T14:04:28Z</time>
      </trkpt>
      <trkpt lat="34.101958" lon="-2.629801">
        <ele>1006.2</ele>
        <time>2008-03-16T14:04:32Z</time>
      </trkpt>
      <trkpt lat="34.101606" lon="-2.629429">
        <ele>1008.6</ele>
        <time>2008-03-16T14:04:35Z</time>
      </trkpt>
      <trkpt lat="34.101289" lon="-2.629016">
        <ele>1010.5</ele>
        <time>2008-03-16T14:04:38Z</time>
      </trkpt>
      <trkpt lat="34.100914" lon="-2.628686">
        <ele>1012.9</ele>
        <time>2008-03-16T14:04:41Z</time>
      </trkpt>
      <trkpt lat="34.100524" lon="-2.628340">
        <ele>1015.3</ele>
        <time>2008-03-16T14:04:44Z</time>
      </trkpt>
      <trkpt lat="34.100153" lon="-2.627942">
        <ele>1018.2</ele>
        <time>2008-03-16T14:04:47Z</time>
      </trkpt>
      <trkpt lat="34.099796" lon="-2.627519">
        <ele>1021.5</ele>
        <time>2008-03-16T14:04:50Z</time>
      </trkpt>
      <trkpt lat="34.099466" lon="-2.627074">
        <ele>1025.4</ele>
        <time>2008-03-16T14:04:53Z</time>
      </trkpt>
      <trkpt lat="34.099282" lon="-2.626549">
        <ele>1029.7</ele>
        <time>2008-03-16T14:04:56Z</time>
      </trkpt>
      <trkpt lat="34.099207" lon="-2.625984">
        <ele>1032.6</ele>
        <time>2008-03-16T14:04:59Z</time>
      </trkpt>
      <trkpt lat="34.099213" lon="-2.625318">
        <ele>1036.4</ele>
        <time>2008-03-16T14:05:03Z</time>
      </trkpt>
      <trkpt lat="34.099442" lon="-2.624815">
        <ele>1039.8</ele>
        <time>2008-03-16T14:05:07Z</time>
      </trkpt>
      <trkpt lat="34.099360" lon="-2.624354">
        <ele>1041.7</ele>
        <time>2008-03-16T14:05:14Z</time>
      </trkpt>
      <trkpt lat="34.098963" lon="-2.623950">
        <ele>1045.1</ele>
        <time>2008-03-16T14:05:22Z</time>
      </trkpt>
      <trkpt lat="34.098620" lon="-2.623484">
        <ele>1047.5</ele>
        <time>2008-03-16T14:05:29Z</time>
      </trkpt>
      <trkpt lat="34.098294" lon="-2.623068">
        <ele>1049.9</ele>
        <time>2008-03-16T14:05:35Z</time>
      </trkpt>
      <trkpt lat="34.097920" lon="-2.622661">
        <ele>1051.8</ele>
        <time>2008-03-16T14:05:41Z</time>
      </trkpt>
      <trkpt lat="34.097526" lon="-2.622301">
        <ele>1055.7</ele>
        <time>2008-03-16T14:05:46Z</time>
      </trkpt>
      <trkpt lat="34.097080" lon="-2.621972">
        <ele>1059.0</ele>
        <time>2008-03-16T14:05:51Z</time>
      </trkpt>
      <trkpt lat="34.096685" lon="-2.621613">
        <ele>1062.4</ele>
        <time>2008-03-16T14:05:56Z</time>
      </trkpt>
      <trkpt lat="34.096295" lon="-2.621301">
        <ele>1066.2</ele>
        <time>2008-03-16T14:06:01Z</time>
      </trkpt>
      <trkpt lat="34.095777" lon="-2.621196">
        <ele>1069.1</ele>
        <time>2008-03-16T14:06:07Z</time>
      </trkpt>
      <trkpt lat="34.095275" lon="-2.621223">
        <ele>1073.9</ele>
        <time>2008-03-16T14:06:13Z</time>
      </trkpt>
      <trkpt lat="34.094795" lon="-2.621084">
        <ele>1076.8</ele>
        <time>2008-03-16T14:06:20Z</time>
      </trkpt>
      <trkpt lat="34.094295" lon="-2.620877">
        <ele>1081.1</ele>
        <time>2008-03-16T14:06:27Z</time>
      </trkpt>
      <trkpt lat="34.093788" lon="-2.620847">
        <ele>1085.5</ele>
        <time>2008-03-16T14:06:33Z</time>
      </trkpt>
      <trkpt lat="34.093332" lon="-2.620991">
        <ele>1092.7</ele>
        <time>2008-03-16T14:06:39Z</time>
      </trkpt>
      <trkpt lat="34.092866" lon="-2.621049">
        <ele>1098.0</ele>
        <time>2008-03-16T14:06:45Z</time>
      </trkpt>
      <trkpt lat="34.092450" lon="-2.620792">
        <ele>1104.2</ele>
        <time>2008-03-16T14:06:51Z</time>
      </trkpt>
      <trkpt lat="34.092266" lon="-2.620282">
        <ele>1110.9</ele>
        <time>2008-03-16T14:06:57Z</time>
      </trkpt>
      <trkpt lat="34.091894" lon="-2.619975">
        <ele>1114.3</ele>
        <time>2008-03-16T14:07:04Z</time>
      </trkpt>
      <trkpt lat="34.091440" lon="-2.619831">
        <ele>1115.7</ele>
        <time>2008-03-16T14:07:13Z</time>
      </trkpt>
      <trkpt lat="34.091059" lon="-2.619466">
        <ele>1118.2</ele>
        <time>2008-03-16T14:07:23Z</time>
      </trkpt>
      <trkpt lat="34.090599" lon="-2.619274">
        <ele>1123.0</ele>
        <time>2008-03-16T14:07:31Z</time>
      </trkpt>
      <trkpt lat="34.090226" lon="-2.619170">
        <ele>1124.9</ele>
        <time>2008-03-16T14:07:40Z</time>
      </trkpt>
      <trkpt lat="34.089762" lon="-2.618960">
        <ele>1128.2</ele>
        <time>2008-03-16T14:07:49Z</time>
      </trkpt>
      <trkpt lat="34.089376" lon="-2.618702">
        <ele>1129.2</ele>
        <time>2008-03-16T14:07:57Z</time>
      </trkpt>
      <trkpt lat="34.088942" lon="-2.618946">
        <ele>1133.1</ele>
        <time>2008-03-16T14:08:06Z</time>
      </trkpt>
      <trkpt lat="34.088477" lon="-2.619119">
        <ele>1136.4</ele>
        <time>2008-03-16T14:08:14Z</time>
      </trkpt>
      <trkpt lat="34.088003" lon="-2.619130">
        <ele>1139.8</ele>
        <time>2008-03-16T14:08:21Z</time>
      </trkpt>
      <trkpt lat="34.087512" lon="-2.619238">
        <ele>1142.2</ele>
        <time>2008-03-16T14:08:29Z</time>
      </trkpt>
      <trkpt lat="34.087050" lon="-2.619240">
        <ele>1144.1</ele>
        <time>2008-03-16T14:08:39Z</time>
      </trkpt>
      <trkpt lat="34.086579" lon="-2.619478">
        <ele>1145.5</ele>
        <time>2008-03-16T14:08:48Z</time>
      </trkpt>
      <trkpt lat="34.086132" lon="-2.619649">
        <ele>1147.0</ele>
        <time>2008-03-16T14:08:57Z</time>
      </trkpt>
      <trkpt lat="34.085727" lon="-2.619849">
        <ele>1148.9</ele>
        <time>2008-03-16T14:09:09Z</time>
      </trkpt>
      <trkpt lat="34.085655" lon="-2.620368">
        <ele>1147.5</ele>
        <time>2008-03-16T14:11:05Z</time>
      </trkpt>
      <trkpt lat="34.085210" lon="-2.620426">
        <ele>1147.5</ele>
        <time>2008-03-16T14:11:22Z</time>
      </trkpt>
      <trkpt lat="34.084821" lon="-2.620564">
        <ele>1148.4</ele>
        <time>2008-03-16T14:11:37Z</time>
      </trkpt>
      <trkpt lat="34.084939" lon="-2.621071">
        <ele>1147.0</ele>
        <time>2008-03-16T14:11:54Z</time>
      </trkpt>
      <trkpt lat="34.084939" lon="-2.621638">
        <ele>1141.2</ele>
        <time>2008-03-16T14:12:12Z</time>
      </trkpt>
      <trkpt lat="34.085127" lon="-2.622128">
        <ele>1137.9</ele>
        <time>2008-03-16T14:12:30Z</time>
      </trkpt>
      <trkpt lat="34.085429" lon="-2.622568">
        <ele>1135.5</ele>
        <time>2008-03-16T14:12:43Z</time>
      </trkpt>
      <trkpt lat="34.085611" lon="-2.623060">
        <ele>1130.6</ele>
        <time>2008-03-16T14:12:55Z</time>
      </trkpt>
      <trkpt lat="34.085701" lon="-2.623602">
        <ele>1125.8</ele>
        <time>2008-03-16T14:13:07Z</time>
      </trkpt>
      <trkpt lat="34.085659" lon="-2.624198">
        <ele>1116.7</ele>
        <time>2008-03-16T14:13:37Z</time>
      </trkpt>
      <trkpt lat="34.085705" lon="-2.624779">
        <ele>1114.8</ele>
        <time>2008-03-16T14:13:44Z</time>
      </trkpt>
      <trkpt lat="34.085702" lon="-2.625343">
        <ele>1112.9</ele>
        <time>2008-03-16T14:13:50Z</time>
      </trkpt>
      <trkpt lat="34.085613" lon="-2.625912">
        <ele>1109.0</ele>
        <time>2008-03-16T14:13:57Z</time>
      </trkpt>
      <trkpt lat="34.085519" lon="-2.626453">
        <ele>1104.2</ele>
        <time>2008-03-16T14:14:06Z</time>
      </trkpt>
      <trkpt lat="34.085449" lon="-2.627050">
        <ele>1107.1</ele>
        <time>2008-03-16T14:14:14Z</time>
      </trkpt>
      <trkpt lat="34.085076" lon="-2.627424">
        <ele>1106.1</ele>
        <time>2008-03-16T14:14:22Z</time>
      </trkpt>
      <trkpt lat="34.084838" lon="-2.627935">
        <ele>1108.1</ele>
        <time>2008-03-16T14:14:30Z</time>
      </trkpt>
      <trkpt lat="34.084514" lon="-2.628371">
        <ele>1106.1</ele>
        <time>2008-03-16T14:14:38Z</time>
      </trkpt>
      <trkpt lat="34.084188" lon="-2.628798">
        <ele>1101.8</ele>
        <time>2008-03-16T14:14:46Z</time>
      </trkpt>
      <trkpt lat="34.084138" lon="-2.629409">
        <ele>1105.2</ele>
        <time>2008-03-16T14:14:54Z</time>
      </trkpt>
      <trkpt lat="34.084072" lon="-2.629942">
        <ele>1100.8</ele>
        <time>2008-03-16T14:15:01Z</time>
      </trkpt>
      <trkpt lat="34.084130" lon="-2.630518">
        <ele>1096.5</ele>
        <time>2008-03-16T14:15:09Z</time>
      </trkpt>
      <trkpt lat="34.084326" lon="-2.631011">
        <ele>1097.5</ele>
        <time>2008-03-16T14:15:16Z</time>
      </trkpt>
      <trkpt lat="34.084644" lon="-2.631433">
        <ele>1100.4</ele>
        <time>2008-03-16T14:15:23Z</time>
      </trkpt>
      <trkpt lat="34.084642" lon="-2.632008">
        <ele>1097.5</ele>
        <time>2008-03-16T14:15:31Z</time>
      </trkpt>
      <trkpt lat="34.084710" lon="-2.632568">
        <ele>1100.8</ele>
        <time>2008-03-16T14:15:38Z</time>
      </trkpt>
      <trkpt lat="34.084884" lon="-2.633090">
        <ele>1102.8</ele>
        <time>2008-03-16T14:15:46Z</time>
      </trkpt>
      <trkpt lat="34.084899" lon="-2.633672">
        <ele>1103.3</ele>
        <time>2008-03-16T14:15:53Z</time>
      </trkpt>
      <trkpt lat="34.084760" lon="-2.634189">
        <ele>1098.9</ele>
        <time>2008-03-16T14:16:00Z</time>
      </trkpt>
      <trkpt lat="34.084497" lon="-2.634692">
        <ele>1095.1</ele>
        <time>2008-03-16T14:16:08Z</time>
      </trkpt>
      <trkpt lat="34.084344" lon="-2.635212">
        <ele>1091.2</ele>
        <time>2008-03-16T14:16:17Z</time>
      </trkpt>
      <trkpt lat="34.083960" lon="-2.635589">
        <ele>1088.8</ele>
        <time>2008-03-16T14:16:25Z</time>
      </trkpt>
      <trkpt lat="34.083601" lon="-2.635961">
        <ele>1090.3</ele>
        <time>2008-03-16T14:16:32Z</time>
      </trkpt>
      <trkpt lat="34.083232" lon="-2.636250">
        <ele>1089.8</ele>
        <time>2008-03-16T14:16:40Z</time>
      </trkpt>
      <trkpt lat="34.082865" lon="-2.636526">
        <ele>1086.4</ele>
        <time>2008-03-16T14:16:49Z</time>
      </trkpt>
      <trkpt lat="34.082479" lon="-2.636811">
        <ele>1083.5</ele>
        <time>2008-03-16T14:17:00Z</time>
      </trkpt>
      <trkpt lat="34.082328" lon="-2.637346">
        <ele>1089.3</ele>
        <time>2008-03-16T14:17:09Z</time>
      </trkpt>
      <trkpt lat="34.082311" lon="-2.637948">
        <ele>1092.2</ele>
        <time>2008-03-16T14:17:17Z</time>
      </trkpt>
      <trkpt lat="34.082344" lon="-2.638563">
        <ele>1094.6</ele>
        <time>2008-03-16T14:17:25Z</time>
      </trkpt>
      <trkpt lat="34.082378" lon="-2.639108">
        <ele>1096.0</ele>
        <time>2008-03-16T14:17:31Z</time>
      </trkpt>
      <trkpt lat="34.082264" lon="-2.639628">
        <ele>1098.9</ele>
        <time>2008-03-16T14:17:38Z</time>
      </trkpt>
      <trkpt lat="34.082107" lon="-2.640147">
        <ele>1103.3</ele>
        <time>2008-03-16T14:17:46Z</time>
      </trkpt>
      <trkpt lat="34.081952" lon="-2.640682">
        <ele>1107.1</ele>
        <time>2008-03-16T14:17:53Z</time>
      </trkpt>
      <trkpt lat="34.081850" lon="-2.641227">
        <ele>1106.6</ele>
        <time>2008-03-16T14:18:00Z</time>
      </trkpt>
      <trkpt lat="34.081786" lon="-2.641765">
        <ele>1103.7</ele>
        <time>2008-03-16T14:18:09Z</time>
      </trkpt>
      <trkpt lat="34.081478" lon="-2.642274">
        <ele>1102.3</ele>
        <time>2008-03-16T14:18:18Z</time>
      </trkpt>
      <trkpt lat="34.081241" lon="-2.642790">
        <ele>1099.9</ele>
        <time>2008-03-16T14:18:24Z</time>
      </trkpt>
      <trkpt lat="34.080979" lon="-2.643259">
        <ele>1098.0</ele>
        <time>2008-03-16T14:18:30Z</time>
      </trkpt>
      <trkpt lat="34.080696" lon="-2.643750">
        <ele>1096.0</ele>
        <time>2008-03-16T14:18:38Z</time>
      </trkpt>
      <trkpt lat="34.080280" lon="-2.644104">
        <ele>1094.1</ele>
        <time>2008-03-16T14:18:45Z</time>
      </trkpt>
      <trkpt lat="34.079818" lon="-2.644290">
        <ele>1092.2</ele>
        <time>2008-03-16T14:18:53Z</time>
      </trkpt>
      <trkpt lat="34.079371" lon="-2.644520">
        <ele>1092.2</ele>
        <time>2008-03-16T14:19:00Z</time>
      </trkpt>
      <trkpt lat="34.078986" lon="-2.644821">
        <ele>1090.8</ele>
        <time>2008-03-16T14:19:08Z</time>
      </trkpt>
      <trkpt lat="34.078628" lon="-2.645224">
        <ele>1089.8</ele>
        <time>2008-03-16T14:19:17Z</time>
      </trkpt>
      <trkpt lat="34.078293" lon="-2.645657">
        <ele>1088.3</ele>
        <time>2008-03-16T14:19:24Z</time>
      </trkpt>
      <trkpt lat="34.078001" lon="-2.646066">
        <ele>1086.9</ele>
        <time>2008-03-16T14:19:30Z</time>
      </trkpt>
      <trkpt lat="34.077795" lon="-2.646607">
        <ele>1084.5</ele>
        <time>2008-03-16T14:19:38Z</time>
      </trkpt>
      <trkpt lat="34.077517" lon="-2.647123">
        <ele>1083.5</ele>
        <time>2008-03-16T14:19:46Z</time>
      </trkpt>
      <trkpt lat="34.077216" lon="-2.647605">
        <ele>1082.1</ele>
        <time>2008-03-16T14:19:53Z</time>
      </trkpt>
      <trkpt lat="34.076949" lon="-2.648051">
        <ele>1081.1</ele>
        <time>2008-03-16T14:19:59Z</time>
      </trkpt>
      <trkpt lat="34.076590" lon="-2.648400">
        <ele>1079.7</ele>
        <time>2008-03-16T14:20:05Z</time>
      </trkpt>
      <trkpt lat="34.076178" lon="-2.648705">
        <ele>1078.3</ele>
        <time>2008-03-16T14:20:12Z</time>
      </trkpt>
      <trkpt lat="34.075863" lon="-2.649117">
        <ele>1076.3</ele>
        <time>2008-03-16T14:20:20Z</time>
      </trkpt>
      <trkpt lat="34.075501" lon="-2.649458">
        <ele>1075.4</ele>
        <time>2008-03-16T14:20:30Z</time>
      </trkpt>
      <trkpt lat="34.075131" lon="-2.649800">
        <ele>1073.4</ele>
        <time>2008-03-16T14:20:46Z</time>
      </trkpt>
      <trkpt lat="34.074733" lon="-2.650018">
        <ele>1074.9</ele>
        <time>2008-03-16T14:20:59Z</time>
      </trkpt>
      <trkpt lat="34.074289" lon="-2.650307">
        <ele>1075.9</ele>
        <time>2008-03-16T14:21:09Z</time>
      </trkpt>
      <trkpt lat="34.073838" lon="-2.650383">
        <ele>1073.9</ele>
        <time>2008-03-16T14:21:16Z</time>
      </trkpt>
      <trkpt lat="34.073351" lon="-2.650436">
        <ele>1074.9</ele>
        <time>2008-03-16T14:21:24Z</time>
      </trkpt>
      <trkpt lat="34.072865" lon="-2.650532">
        <ele>1076.3</ele>
        <time>2008-03-16T14:21:30Z</time>
      </trkpt>
      <trkpt lat="34.072391" lon="-2.650648">
        <ele>1074.9</ele>
        <time>2008-03-16T14:21:36Z</time>
      </trkpt>
      <trkpt lat="34.071961" lon="-2.650803">
        <ele>1074.4</ele>
        <time>2008-03-16T14:21:42Z</time>
      </trkpt>
      <trkpt lat="34.071526" lon="-2.650947">
        <ele>1073.9</ele>
        <time>2008-03-16T14:21:48Z</time>
      </trkpt>
      <trkpt lat="34.071012" lon="-2.651051">
        <ele>1073.4</ele>
        <time>2008-03-16T14:21:55Z</time>
      </trkpt>
      <trkpt lat="34.070527" lon="-2.651029">
        <ele>1070.6</ele>
        <time>2008-03-16T14:22:02Z</time>
      </trkpt>
      <trkpt lat="34.070084" lon="-2.651139">
        <ele>1071.0</ele>
        <time>2008-03-16T14:22:16Z</time>
      </trkpt>
      <trkpt lat="34.069594" lon="-2.651245">
        <ele>1071.5</ele>
        <time>2008-03-16T14:22:28Z</time>
      </trkpt>
      <trkpt lat="34.069106" lon="-2.651227">
        <ele>1074.4</ele>
        <time>2008-03-16T14:22:37Z</time>
      </trkpt>
      <trkpt lat="34.068620" lon="-2.651164">
        <ele>1075.9</ele>
        <time>2008-03-16T14:22:45Z</time>
      </trkpt>
      <trkpt lat="34.068162" lon="-2.651046">
        <ele>1074.4</ele>
        <time>2008-03-16T14:22:52Z</time>
      </trkpt>
      <trkpt lat="34.067638" lon="-2.650975">
        <ele>1071.5</ele>
        <time>2008-03-16T14:22:59Z</time>
      </trkpt>
      <trkpt lat="34.067208" lon="-2.650927">
        <ele>1069.6</ele>
        <time>2008-03-16T14:23:06Z</time>
      </trkpt>
      <trkpt lat="34.066717" lon="-2.650933">
        <ele>1071.5</ele>
        <time>2008-03-16T14:23:14Z</time>
      </trkpt>
      <trkpt lat="34.066257" lon="-2.650901">
        <ele>1071.5</ele>
        <time>2008-03-16T14:23:20Z</time>
      </trkpt>
      <trkpt lat="34.065752" lon="-2.650916">
        <ele>1073.0</ele>
        <time>2008-03-16T14:23:27Z</time>
      </trkpt>
      <trkpt lat="34.065247" lon="-2.650858">
        <ele>1074.4</ele>
        <time>2008-03-16T14:23:34Z</time>
      </trkpt>
      <trkpt lat="34.064776" lon="-2.650762">
        <ele>1072.5</ele>
        <time>2008-03-16T14:23:42Z</time>
      </trkpt>
      <trkpt lat="34.064353" lon="-2.650483">
        <ele>1071.5</ele>
        <time>2008-03-16T14:23:51Z</time>
      </trkpt>
      <trkpt lat="34.063887" lon="-2.650417">
        <ele>1073.0</ele>
        <time>2008-03-16T14:24:01Z</time>
      </trkpt>
      <trkpt lat="34.063386" lon="-2.650382">
        <ele>1073.0</ele>
        <time>2008-03-16T14:24:09Z</time>
      </trkpt>
      <trkpt lat="34.062881" lon="-2.650330">
        <ele>1072.0</ele>
        <time>2008-03-16T14:24:16Z</time>
      </trkpt>
      <trkpt lat="34.062370" lon="-2.650188">
        <ele>1072.0</ele>
        <time>2008-03-16T14:24:23Z</time>
      </trkpt>
      <trkpt lat="34.061924" lon="-2.650100">
        <ele>1073.4</ele>
        <time>2008-03-16T14:24:29Z</time>
      </trkpt>
      <trkpt lat="34.061448" lon="-2.650022">
        <ele>1072.5</ele>
        <time>2008-03-16T14:24:36Z</time>
      </trkpt>
      <trkpt lat="34.061023" lon="-2.649936">
        <ele>1070.6</ele>
        <time>2008-03-16T14:24:45Z</time>
      </trkpt>
      <trkpt lat="34.060550" lon="-2.649961">
        <ele>1072.0</ele>
        <time>2008-03-16T14:24:55Z</time>
      </trkpt>
      <trkpt lat="34.060076" lon="-2.649969">
        <ele>1072.5</ele>
        <time>2008-03-16T14:25:03Z</time>
      </trkpt>
      <trkpt lat="34.059620" lon="-2.649982">
        <ele>1073.4</ele>
        <time>2008-03-16T14:25:10Z</time>
      </trkpt>
      <trkpt lat="34.059182" lon="-2.650205">
        <ele>1071.5</ele>
        <time>2008-03-16T14:25:17Z</time>
      </trkpt>
      <trkpt lat="34.058713" lon="-2.650419">
        <ele>1070.6</ele>
        <time>2008-03-16T14:25:24Z</time>
      </trkpt>
      <trkpt lat="34.058265" lon="-2.650660">
        <ele>1069.1</ele>
        <time>2008-03-16T14:25:31Z</time>
      </trkpt>
      <trkpt lat="34.057776" lon="-2.650624">
        <ele>1068.6</ele>
        <time>2008-03-16T14:25:39Z</time>
      </trkpt>
      <trkpt lat="34.057301" lon="-2.650628">
        <ele>1062.9</ele>
        <time>2008-03-16T14:25:48Z</time>
      </trkpt>
      <trkpt lat="34.057009" lon="-2.651055">
        <ele>1066.7</ele>
        <time>2008-03-16T14:25:59Z</time>
      </trkpt>
      <trkpt lat="34.056555" lon="-2.650992">
        <ele>1069.1</ele>
        <time>2008-03-16T14:26:07Z</time>
      </trkpt>
      <trkpt lat="34.056203" lon="-2.650656">
        <ele>1068.6</ele>
        <time>2008-03-16T14:26:15Z</time>
      </trkpt>
      <trkpt lat="34.055722" lon="-2.650471">
        <ele>1070.1</ele>
        <time>2008-03-16T14:26:23Z</time>
      </trkpt>
      <trkpt lat="34.055267" lon="-2.650489">
        <ele>1069.6</ele>
        <time>2008-03-16T14:26:30Z</time>
      </trkpt>
      <trkpt lat="34.054820" lon="-2.650691">
        <ele>1069.1</ele>
        <time>2008-03-16T14:26:38Z</time>
      </trkpt>
      <trkpt lat="34.054385" lon="-2.650974">
        <ele>1069.1</ele>
        <time>2008-03-16T14:26:46Z</time>
      </trkpt>
      <trkpt lat="34.053928" lon="-2.651011">
        <ele>1065.8</ele>
        <time>2008-03-16T14:26:54Z</time>
      </trkpt>
      <trkpt lat="34.053551" lon="-2.651070">
        <ele>1065.8</ele>
        <time>2008-03-16T14:27:03Z</time>
      </trkpt>
      <trkpt lat="34.053193" lon="-2.651357">
        <ele>1065.8</ele>
        <time>2008-03-16T14:27:13Z</time>
      </trkpt>
      <trkpt lat="34.052869" lon="-2.650917">
        <ele>1068.2</ele>
        <time>2008-03-16T14:27:30Z</time>
      </trkpt>
      <trkpt lat="34.052587" lon="-2.650433">
        <ele>1071.5</ele>
        <time>2008-03-16T14:27:35Z</time>
      </trkpt>
      <trkpt lat="34.052289" lon="-2.649905">
        <ele>1074.9</ele>
        <time>2008-03-16T14:27:40Z</time>
      </trkpt>
      <trkpt lat="34.051963" lon="-2.649339">
        <ele>1077.3</ele>
        <time>2008-03-16T14:27:45Z</time>
      </trkpt>
      <trkpt lat="34.051669" lon="-2.648824">
        <ele>1079.2</ele>
        <time>2008-03-16T14:27:49Z</time>
      </trkpt>
      <trkpt lat="34.051367" lon="-2.648296">
        <ele>1081.1</ele>
        <time>2008-03-16T14:27:53Z</time>
      </trkpt>
      <trkpt lat="34.051056" lon="-2.647758">
        <ele>1083.5</ele>
        <time>2008-03-16T14:27:57Z</time>
      </trkpt>
      <trkpt lat="34.050745" lon="-2.647207">
        <ele>1086.9</ele>
        <time>2008-03-16T14:28:01Z</time>
      </trkpt>
      <trkpt lat="34.049117" lon="-2.644497">
        <ele>1105.7</ele>
        <time>2008-03-16T14:28:20Z</time>
      </trkpt>
      <trkpt lat="34.048573" lon="-2.643654">
        <ele>634.6</ele>
        <time>2008-09-25T07:35:47Z</time>
      </trkpt>
      <trkpt lat="34.048363" lon="-2.644007">
        <ele>633.6</ele>
        <time>2008-09-25T07:36:17Z</time>
      </trkpt>
      <trkpt lat="34.047990" lon="-2.644422">
        <ele>631.7</ele>
        <time>2008-09-25T07:36:24Z</time>
      </trkpt>
      <trkpt lat="34.047833" lon="-2.644976">
        <ele>629.3</ele>
        <time>2008-09-25T07:36:30Z</time>
      </trkpt>
      <trkpt lat="34.047592" lon="-2.645491">
        <ele>626.4</ele>
        <time>2008-09-25T07:36:35Z</time>
      </trkpt>
      <trkpt lat="34.047356" lon="-2.645982">
        <ele>622.1</ele>
        <time>2008-09-25T07:36:41Z</time>
      </trkpt>
      <trkpt lat="34.047676" lon="-2.646381">
        <ele>618.3</ele>
        <time>2008-09-25T07:36:48Z</time>
      </trkpt>
      <trkpt lat="34.048058" lon="-2.646730">
        <ele>617.3</ele>
        <time>2008-09-25T07:36:55Z</time>
      </trkpt>
      <trkpt lat="34.048376" lon="-2.647093">
        <ele>620.7</ele>
        <time>2008-09-25T07:37:01Z</time>
      </trkpt>
      <trkpt lat="34.048207" lon="-2.647651">
        <ele>623.1</ele>
        <time>2008-09-25T07:37:06Z</time>
      </trkpt>
      <trkpt lat="34.047842" lon="-2.648116">
        <ele>624.5</ele>
        <time>2008-09-25T07:37:11Z</time>
      </trkpt>
      <trkpt lat="34.047411" lon="-2.648416">
        <ele>625.5</ele>
        <time>2008-09-25T07:37:15Z</time>
      </trkpt>
      <trkpt lat="34.046981" lon="-2.648780">
        <ele>626.0</ele>
        <time>2008-09-25T07:37:19Z</time>
      </trkpt>
      <trkpt lat="34.046613" lon="-2.649239">
        <ele>627.4</ele>
        <time>2008-09-25T07:37:23Z</time>
      </trkpt>
      <trkpt lat="34.046330" lon="-2.649829">
        <ele>628.8</ele>
        <time>2008-09-25T07:37:27Z</time>
      </trkpt>
      <trkpt lat="34.046074" lon="-2.650445">
        <ele>629.3</ele>
        <time>2008-09-25T07:37:31Z</time>
      </trkpt>
      <trkpt lat="34.045817" lon="-2.651083">
        <ele>633.2</ele>
        <time>2008-09-25T07:37:35Z</time>
      </trkpt>
      <trkpt lat="34.045614" lon="-2.651620">
        <ele>635.1</ele>
        <time>2008-09-25T07:37:38Z</time>
      </trkpt>
      <trkpt lat="34.045424" lon="-2.652290">
        <ele>637.5</ele>
        <time>2008-09-25T07:37:42Z</time>
      </trkpt>
      <trkpt lat="34.045347" lon="-2.652991">
        <ele>640.9</ele>
        <time>2008-09-25T07:37:46Z</time>
      </trkpt>
      <trkpt lat="34.045255" lon="-2.653533">
        <ele>643.3</ele>
        <time>2008-09-25T07:37:49Z</time>
      </trkpt>
      <trkpt lat="34.044971" lon="-2.654106">
        <ele>646.1</ele>
        <time>2008-09-25T07:37:53Z</time>
      </trkpt>
      <trkpt lat="34.044504" lon="-2.654453">
        <ele>648.1</ele>
        <time>2008-09-25T07:37:57Z</time>
      </trkpt>
      <trkpt lat="34.044073" lon="-2.654732">
        <ele>647.1</ele>
        <time>2008-09-25T07:38:01Z</time>
      </trkpt>
      <trkpt lat="34.043678" lon="-2.655092">
        <ele>644.2</ele>
        <time>2008-09-25T07:38:05Z</time>
      </trkpt>
      <trkpt lat="34.043434" lon="-2.655707">
        <ele>642.8</ele>
        <time>2008-09-25T07:38:10Z</time>
      </trkpt>
      <trkpt lat="34.043205" lon="-2.656260">
        <ele>642.3</ele>
        <time>2008-09-25T07:38:14Z</time>
      </trkpt>
      <trkpt lat="34.042955" lon="-2.656840">
        <ele>641.3</ele>
        <time>2008-09-25T07:38:18Z</time>
      </trkpt>
      <trkpt lat="34.042622" lon="-2.657393">
        <ele>640.4</ele>
        <time>2008-09-25T07:38:22Z</time>
      </trkpt>
      <trkpt lat="34.042268" lon="-2.657914">
        <ele>639.4</ele>
        <time>2008-09-25T07:38:26Z</time>
      </trkpt>
      <trkpt lat="34.041983" lon="-2.658377">
        <ele>637.5</ele>
        <time>2008-09-25T07:38:30Z</time>
      </trkpt>
      <trkpt lat="34.041864" lon="-2.659024">
        <ele>636.5</ele>
        <time>2008-09-25T07:38:35Z</time>
      </trkpt>
      <trkpt lat="34.041513" lon="-2.659442">
        <ele>636.5</ele>
        <time>2008-09-25T07:38:40Z</time>
      </trkpt>
      <trkpt lat="34.041063" lon="-2.659720">
        <ele>635.6</ele>
        <time>2008-09-25T07:38:45Z</time>
      </trkpt>
      <trkpt lat="34.040698" lon="-2.660039">
        <ele>635.1</ele>
        <time>2008-09-25T07:38:49Z</time>
      </trkpt>
      <trkpt lat="34.040297" lon="-2.660420">
        <ele>632.7</ele>
        <time>2008-09-25T07:38:54Z</time>
      </trkpt>
      <trkpt lat="34.040157" lon="-2.660944">
        <ele>630.3</ele>
        <time>2008-09-25T07:38:58Z</time>
      </trkpt>
      <trkpt lat="34.040127" lon="-2.661492">
        <ele>628.8</ele>
        <time>2008-09-25T07:39:02Z</time>
      </trkpt>
      <trkpt lat="34.040087" lon="-2.662085">
        <ele>630.8</ele>
        <time>2008-09-25T07:39:06Z</time>
      </trkpt>
      <trkpt lat="34.039797" lon="-2.662517">
        <ele>632.7</ele>
        <time>2008-09-25T07:39:10Z</time>
      </trkpt>
      <trkpt lat="34.039290" lon="-2.662578">
        <ele>635.1</ele>
        <time>2008-09-25T07:39:14Z</time>
      </trkpt>
      <trkpt lat="34.038702" lon="-2.662594">
        <ele>637.5</ele>
        <time>2008-09-25T07:39:18Z</time>
      </trkpt>
      <trkpt lat="34.038246" lon="-2.662680">
        <ele>639.4</ele>
        <time>2008-09-25T07:39:21Z</time>
      </trkpt>
      <trkpt lat="34.037660" lon="-2.662828">
        <ele>640.9</ele>
        <time>2008-09-25T07:39:25Z</time>
      </trkpt>
      <trkpt lat="34.037144" lon="-2.662918">
        <ele>641.3</ele>
        <time>2008-09-25T07:39:29Z</time>
      </trkpt>
      <trkpt lat="34.036747" lon="-2.663290">
        <ele>643.3</ele>
        <time>2008-09-25T07:39:34Z</time>
      </trkpt>
      <trkpt lat="34.036383" lon="-2.663717">
        <ele>644.7</ele>
        <time>2008-09-25T07:39:39Z</time>
      </trkpt>
      <trkpt lat="34.035876" lon="-2.663873">
        <ele>641.8</ele>
        <time>2008-09-25T07:39:44Z</time>
      </trkpt>
      <trkpt lat="34.035373" lon="-2.664040">
        <ele>642.8</ele>
        <time>2008-09-25T07:39:50Z</time>
      </trkpt>
      <trkpt lat="34.034947" lon="-2.664219">
        <ele>644.2</ele>
        <time>2008-09-25T07:39:55Z</time>
      </trkpt>
      <trkpt lat="34.034430" lon="-2.664382">
        <ele>645.2</ele>
        <time>2008-09-25T07:40:00Z</time>
      </trkpt>
      <trkpt lat="34.033950" lon="-2.664699">
        <ele>646.6</ele>
        <time>2008-09-25T07:40:05Z</time>
      </trkpt>
      <trkpt lat="34.033467" lon="-2.664958">
        <ele>645.7</ele>
        <time>2008-09-25T07:40:10Z</time>
      </trkpt>
      <trkpt lat="34.033072" lon="-2.665233">
        <ele>647.1</ele>
        <time>2008-09-25T07:40:14Z</time>
      </trkpt>
      <trkpt lat="34.032669" lon="-2.665529">
        <ele>647.1</ele>
        <time>2008-09-25T07:40:18Z</time>
      </trkpt>
      <trkpt lat="34.032215" lon="-2.665849">
        <ele>644.7</ele>
        <time>2008-09-25T07:40:23Z</time>
      </trkpt>
      <trkpt lat="34.031908" lon="-2.666269">
        <ele>644.2</ele>
        <time>2008-09-25T07:40:27Z</time>
      </trkpt>
      <trkpt lat="34.031509" lon="-2.666744">
        <ele>648.5</ele>
        <time>2008-09-25T07:40:31Z</time>
      </trkpt>
      <trkpt lat="34.031007" lon="-2.667128">
        <ele>652.4</ele>
        <time>2008-09-25T07:40:35Z</time>
      </trkpt>
      <trkpt lat="34.030481" lon="-2.667440">
        <ele>653.4</ele>
        <time>2008-09-25T07:40:39Z</time>
      </trkpt>
      <trkpt lat="34.029999" lon="-2.667716">
        <ele>653.4</ele>
        <time>2008-09-25T07:40:43Z</time>
      </trkpt>
      <trkpt lat="34.029479" lon="-2.667903">
        <ele>651.9</ele>
        <time>2008-09-25T07:40:48Z</time>
      </trkpt>
      <trkpt lat="34.029046" lon="-2.667762">
        <ele>649.5</ele>
        <time>2008-09-25T07:40:53Z</time>
      </trkpt>
      <trkpt lat="34.028556" lon="-2.667606">
        <ele>647.1</ele>
        <time>2008-09-25T07:40:59Z</time>
      </trkpt>
      <trkpt lat="34.028170" lon="-2.667972">
        <ele>645.7</ele>
        <time>2008-09-25T07:41:06Z</time>
      </trkpt>
      <trkpt lat="34.027709" lon="-2.668047">
        <ele>649.0</ele>
        <time>2008-09-25T07:41:13Z</time>
      </trkpt>
      <trkpt lat="34.027191" lon="-2.668099">
        <ele>652.4</ele>
        <time>2008-09-25T07:41:19Z</time>
      </trkpt>
      <trkpt lat="34.027125" lon="-2.668594">
        <ele>656.2</ele>
        <time>2008-09-25T07:41:26Z</time>
      </trkpt>
      <trkpt lat="34.027124" lon="-2.669251">
        <ele>660.1</ele>
        <time>2008-09-25T07:41:32Z</time>
      </trkpt>
      <trkpt lat="34.026794" lon="-2.669648">
        <ele>662.5</ele>
        <time>2008-09-25T07:41:37Z</time>
      </trkpt>
      <trkpt lat="34.026296" lon="-2.669746">
        <ele>665.4</ele>
        <time>2008-09-25T07:41:41Z</time>
      </trkpt>
      <trkpt lat="34.025759" lon="-2.669806">
        <ele>665.9</ele>
        <time>2008-09-25T07:41:45Z</time>
      </trkpt>
      <trkpt lat="34.025251" lon="-2.669999">
        <ele>667.3</ele>
        <time>2008-09-25T07:41:49Z</time>
      </trkpt>
      <trkpt lat="34.024771" lon="-2.670406">
        <ele>669.2</ele>
        <time>2008-09-25T07:41:53Z</time>
      </trkpt>
      <trkpt lat="34.024429" lon="-2.670814">
        <ele>671.1</ele>
        <time>2008-09-25T07:41:56Z</time>
      </trkpt>
      <trkpt lat="34.024084" lon="-2.671252">
        <ele>672.6</ele>
        <time>2008-09-25T07:41:59Z</time>
      </trkpt>
      <trkpt lat="34.023744" lon="-2.671689">
        <ele>674.0</ele>
        <time>2008-09-25T07:42:02Z</time>
      </trkpt>
      <trkpt lat="34.023455" lon="-2.672196">
        <ele>675.9</ele>
        <time>2008-09-25T07:42:05Z</time>
      </trkpt>
      <trkpt lat="34.023153" lon="-2.672747">
        <ele>678.3</ele>
        <time>2008-09-25T07:42:08Z</time>
      </trkpt>
      <trkpt lat="34.022839" lon="-2.673322">
        <ele>680.8</ele>
        <time>2008-09-25T07:42:11Z</time>
      </trkpt>
      <trkpt lat="34.022499" lon="-2.673940">
        <ele>683.6</ele>
        <time>2008-09-25T07:42:14Z</time>
      </trkpt>
      <trkpt lat="34.022155" lon="-2.674556">
        <ele>687.0</ele>
        <time>2008-09-25T07:42:17Z</time>
      </trkpt>
      <trkpt lat="34.021850" lon="-2.675095">
        <ele>688.9</ele>
        <time>2008-09-25T07:42:20Z</time>
      </trkpt>
      <trkpt lat="34.021589" lon="-2.675551">
        <ele>690.4</ele>
        <time>2008-09-25T07:42:23Z</time>
      </trkpt>
      <trkpt lat="34.021282" lon="-2.676106">
        <ele>693.2</ele>
        <time>2008-09-25T07:42:27Z</time>
      </trkpt>
      <trkpt lat="34.020970" lon="-2.676654">
        <ele>696.6</ele>
        <time>2008-09-25T07:42:31Z</time>
      </trkpt>
      <trkpt lat="34.020680" lon="-2.677171">
        <ele>699.0</ele>
        <time>2008-09-25T07:42:35Z</time>
      </trkpt>
      <trkpt lat="34.020389" lon="-2.677698">
        <ele>701.9</ele>
        <time>2008-09-25T07:42:40Z</time>
      </trkpt>
      <trkpt lat="34.020118" lon="-2.678186">
        <ele>704.8</ele>
        <time>2008-09-25T07:42:48Z</time>
      </trkpt>
      <trkpt lat="34.019863" lon="-2.678643">
        <ele>708.1</ele>
        <time>2008-09-25T07:42:56Z</time>
      </trkpt>
      <trkpt lat="34.019602" lon="-2.679107">
        <ele>711.5</ele>
        <time>2008-09-25T07:43:03Z</time>
      </trkpt>
      <trkpt lat="34.019335" lon="-2.679581">
        <ele>714.4</ele>
        <time>2008-09-25T07:43:09Z</time>
      </trkpt>
      <trkpt lat="34.019097" lon="-2.680108">
        <ele>717.3</ele>
        <time>2008-09-25T07:43:15Z</time>
      </trkpt>
      <trkpt lat="34.018950" lon="-2.680667">
        <ele>721.1</ele>
        <time>2008-09-25T07:43:21Z</time>
      </trkpt>
      <trkpt lat="34.018712" lon="-2.681205">
        <ele>724.5</ele>
        <time>2008-09-25T07:43:27Z</time>
      </trkpt>
      <trkpt lat="34.018360" lon="-2.681692">
        <ele>728.8</ele>
        <time>2008-09-25T07:43:33Z</time>
      </trkpt>
      <trkpt lat="34.018065" lon="-2.682216">
        <ele>732.7</ele>
        <time>2008-09-25T07:43:39Z</time>
      </trkpt>
      <trkpt lat="34.017539" lon="-2.682295">
        <ele>736.0</ele>
        <time>2008-09-25T07:43:45Z</time>
      </trkpt>
      <trkpt lat="34.017087" lon="-2.682040">
        <ele>738.4</ele>
        <time>2008-09-25T07:43:50Z</time>
      </trkpt>
      <trkpt lat="34.016658" lon="-2.681814">
        <ele>740.4</ele>
        <time>2008-09-25T07:43:55Z</time>
      </trkpt>
      <trkpt lat="34.016188" lon="-2.681708">
        <ele>743.2</ele>
        <time>2008-09-25T07:44:01Z</time>
      </trkpt>
      <trkpt lat="34.015751" lon="-2.681958">
        <ele>745.6</ele>
        <time>2008-09-25T07:44:07Z</time>
      </trkpt>
      <trkpt lat="34.015233" lon="-2.681940">
        <ele>748.0</ele>
        <time>2008-09-25T07:44:13Z</time>
      </trkpt>
      <trkpt lat="34.014922" lon="-2.682226">
        <ele>750.4</ele>
        <time>2008-09-25T07:44:20Z</time>
      </trkpt>
      <trkpt lat="34.014487" lon="-2.682429">
        <ele>753.3</ele>
        <time>2008-09-25T07:44:27Z</time>
      </trkpt>
      <trkpt lat="34.014273" lon="-2.682963">
        <ele>754.3</ele>
        <time>2008-09-25T07:44:35Z</time>
      </trkpt>
      <trkpt lat="34.013765" lon="-2.682837">
        <ele>757.7</ele>
        <time>2008-09-25T07:44:42Z</time>
      </trkpt>
      <trkpt lat="34.013281" lon="-2.682927">
        <ele>761.5</ele>
        <time>2008-09-25T07:44:48Z</time>
      </trkpt>
      <trkpt lat="34.012895" lon="-2.683313">
        <ele>765.8</ele>
        <time>2008-09-25T07:44:54Z</time>
      </trkpt>
      <trkpt lat="34.012494" lon="-2.683438">
        <ele>768.2</ele>
        <time>2008-09-25T07:45:00Z</time>
      </trkpt>
      <trkpt lat="34.012057" lon="-2.683524">
        <ele>772.1</ele>
        <time>2008-09-25T07:45:06Z</time>
      </trkpt>
      <trkpt lat="34.011748" lon="-2.683937">
        <ele>775.0</ele>
        <time>2008-09-25T07:45:12Z</time>
      </trkpt>
      <trkpt lat="34.011311" lon="-2.683801">
        <ele>777.4</ele>
        <time>2008-09-25T07:45:18Z</time>
      </trkpt>
      <trkpt lat="34.010843" lon="-2.683728">
        <ele>780.7</ele>
        <time>2008-09-25T07:45:25Z</time>
      </trkpt>
      <trkpt lat="34.010768" lon="-2.684277">
        <ele>784.6</ele>
        <time>2008-09-25T07:45:34Z</time>
      </trkpt>
      <trkpt lat="34.010803" lon="-2.684856">
        <ele>788.9</ele>
        <time>2008-09-25T07:45:41Z</time>
      </trkpt>
      <trkpt lat="34.010595" lon="-2.685345">
        <ele>792.7</ele>
        <time>2008-09-25T07:45:47Z</time>
      </trkpt>
      <trkpt lat="34.010361" lon="-2.685810">
        <ele>796.1</ele>
        <time>2008-09-25T07:45:53Z</time>
      </trkpt>
      <trkpt lat="34.009995" lon="-2.686138">
        <ele>798.5</ele>
        <time>2008-09-25T07:46:03Z</time>
      </trkpt>
      <trkpt lat="34.009614" lon="-2.686485">
        <ele>802.8</ele>
        <time>2008-09-25T07:46:13Z</time>
      </trkpt>
      <trkpt lat="34.009236" lon="-2.686634">
        <ele>804.3</ele>
        <time>2008-09-25T07:46:23Z</time>
      </trkpt>
      <trkpt lat="34.009118" lon="-2.686074">
        <ele>806.2</ele>
        <time>2008-09-25T07:46:31Z</time>
      </trkpt>
      <trkpt lat="34.008774" lon="-2.685727">
        <ele>808.6</ele>
        <time>2008-09-25T07:46:40Z</time>
      </trkpt>
      <trkpt lat="34.008315" lon="-2.685674">
        <ele>811.5</ele>
        <time>2008-09-25T07:46:49Z</time>
      </trkpt>
      <trkpt lat="34.007936" lon="-2.685979">
        <ele>813.9</ele>
        <time>2008-09-25T07:46:58Z</time>
      </trkpt>
      <trkpt lat="34.007583" lon="-2.686362">
        <ele>816.8</ele>
        <time>2008-09-25T07:47:08Z</time>
      </trkpt>
      <trkpt lat="34.007167" lon="-2.686744">
        <ele>820.1</ele>
        <time>2008-09-25T07:47:16Z</time>
      </trkpt>
      <trkpt lat="34.006689" lon="-2.686989">
        <ele>824.0</ele>
        <time>2008-09-25T07:47:22Z</time>
      </trkpt>
      <trkpt lat="34.006227" lon="-2.687083">
        <ele>826.9</ele>
        <time>2008-09-25T07:47:27Z</time>
      </trkpt>
      <trkpt lat="34.005763" lon="-2.687416">
        <ele>830.7</ele>
        <time>2008-09-25T07:47:33Z</time>
      </trkpt>
      <trkpt lat="34.005454" lon="-2.687908">
        <ele>834.6</ele>
        <time>2008-09-25T07:47:39Z</time>
      </trkpt>
      <trkpt lat="34.005497" lon="-2.688462">
        <ele>838.4</ele>
        <time>2008-09-25T07:47:45Z</time>
      </trkpt>
      <trkpt lat="34.005934" lon="-2.688559">
        <ele>841.3</ele>
        <time>2008-09-25T07:47:51Z</time>
      </trkpt>
      <trkpt lat="34.006303" lon="-2.688605">
        <ele>844.7</ele>
        <time>2008-09-25T07:47:58Z</time>
      </trkpt>
      <trkpt lat="34.006007" lon="-2.689102">
        <ele>848.5</ele>
        <time>2008-09-25T07:48:04Z</time>
      </trkpt>
      <trkpt lat="34.005661" lon="-2.689558">
        <ele>851.9</ele>
        <time>2008-09-25T07:48:09Z</time>
      </trkpt>
      <trkpt lat="34.005190" lon="-2.689898">
        <ele>856.2</ele>
        <time>2008-09-25T07:48:15Z</time>
      </trkpt>
      <trkpt lat="34.004767" lon="-2.690206">
        <ele>858.1</ele>
        <time>2008-09-25T07:48:20Z</time>
      </trkpt>
      <trkpt lat="34.004261" lon="-2.689920">
        <ele>862.0</ele>
        <time>2008-09-25T07:48:25Z</time>
      </trkpt>
      <trkpt lat="34.003789" lon="-2.689799">
        <ele>864.8</ele>
        <time>2008-09-25T07:48:30Z</time>
      </trkpt>
      <trkpt lat="34.003306" lon="-2.690086">
        <ele>870.1</ele>
        <time>2008-09-25T07:48:36Z</time>
      </trkpt>
      <trkpt lat="34.002760" lon="-2.690007">
        <ele>874.0</ele>
        <time>2008-09-25T07:48:41Z</time>
      </trkpt>
      <trkpt lat="34.002248" lon="-2.689846">
        <ele>878.8</ele>
        <time>2008-09-25T07:48:45Z</time>
      </trkpt>
      <trkpt lat="34.001777" lon="-2.689655">
        <ele>882.1</ele>
        <time>2008-09-25T07:48:49Z</time>
      </trkpt>
      <trkpt lat="34.001276" lon="-2.689682">
        <ele>887.0</ele>
        <time>2008-09-25T07:48:53Z</time>
      </trkpt>
      <trkpt lat="34.000760" lon="-2.689807">
        <ele>889.8</ele>
        <time>2008-09-25T07:48:57Z</time>
      </trkpt>
      <trkpt lat="34.000318" lon="-2.689927">
        <ele>891.8</ele>
        <time>2008-09-25T07:49:05Z</time>
      </trkpt>
      <trkpt lat="33.999867" lon="-2.690044">
        <ele>895.1</ele>
        <time>2008-09-25T07:49:17Z</time>
      </trkpt>
      <trkpt lat="33.999532" lon="-2.689825">
        <ele>897.5</ele>
        <time>2008-09-25T07:49:30Z</time>
      </trkpt>
      <trkpt lat="33.999130" lon="-2.689599">
        <ele>900.9</ele>
        <time>2008-09-25T07:49:42Z</time>
      </trkpt>
      <trkpt lat="33.998655" lon="-2.689675">
        <ele>904.3</ele>
        <time>2008-09-25T07:49:54Z</time>
      </trkpt>
      <trkpt lat="33.998220" lon="-2.689798">
        <ele>908.1</ele>
        <time>2008-09-25T07:50:06Z</time>
      </trkpt>
      <trkpt lat="33.997698" lon="-2.689857">
        <ele>911.0</ele>
        <time>2008-09-25T07:50:18Z</time>
      </trkpt>
      <trkpt lat="33.997236" lon="-2.690013">
        <ele>914.4</ele>
        <time>2008-09-25T07:50:30Z</time>
      </trkpt>
      <trkpt lat="33.996821" lon="-2.690295">
        <ele>918.7</ele>
        <time>2008-09-25T07:50:41Z</time>
      </trkpt>
      <trkpt lat="33.996379" lon="-2.690473">
        <ele>922.0</ele>
        <time>2008-09-25T07:50:53Z</time>
      </trkpt>
      <trkpt lat="33.995930" lon="-2.690587">
        <ele>925.4</ele>
        <time>2008-09-25T07:51:04Z</time>
      </trkpt>
      <trkpt lat="33.995700" lon="-2.691016">
        <ele>929.3</ele>
        <time>2008-09-25T07:51:16Z</time>
      </trkpt>
      <trkpt lat="33.996125" lon="-2.691216">
        <ele>928.8</ele>
        <time>2008-09-25T07:51:23Z</time>
      </trkpt>
      <trkpt lat="33.996641" lon="-2.691371">
        <ele>925.9</ele>
        <time>2008-09-25T07:51:28Z</time>
      </trkpt>
      <trkpt lat="33.996986" lon="-2.691806">
        <ele>925.4</ele>
        <time>2008-09-25T07:51:33Z</time>
      </trkpt>
      <trkpt lat="33.997232" lon="-2.692257">
        <ele>924.0</ele>
        <time>2008-09-25T07:51:37Z</time>
      </trkpt>
      <trkpt lat="33.997523" lon="-2.692715">
        <ele>922.0</ele>
        <time>2008-09-25T07:51:41Z</time>
      </trkpt>
      <trkpt lat="33.997785" lon="-2.693198">
        <ele>920.1</ele>
        <time>2008-09-25T07:51:45Z</time>
      </trkpt>
      <trkpt lat="33.998006" lon="-2.693706">
        <ele>917.7</ele>
        <time>2008-09-25T07:51:49Z</time>
      </trkpt>
      <trkpt lat="33.998307" lon="-2.694174">
        <ele>915.3</ele>
        <time>2008-09-25T07:51:53Z</time>
      </trkpt>
      <trkpt lat="33.998626" lon="-2.694649">
        <ele>912.4</ele>
        <time>2008-09-25T07:51:58Z</time>
      </trkpt>
      <trkpt lat="33.998561" lon="-2.695186">
        <ele>909.5</ele>
        <time>2008-09-25T07:52:05Z</time>
      </trkpt>
      <trkpt lat="33.999042" lon="-2.695060">
        <ele>908.1</ele>
        <time>2008-09-25T07:52:12Z</time>
      </trkpt>
      <trkpt lat="33.999549" lon="-2.695196">
        <ele>907.6</ele>
        <time>2008-09-25T07:52:17Z</time>
      </trkpt>
      <trkpt lat="34.000086" lon="-2.695439">
        <ele>905.2</ele>
        <time>2008-09-25T07:52:22Z</time>
      </trkpt>
      <trkpt lat="34.000627" lon="-2.695563">
        <ele>901.9</ele>
        <time>2008-09-25T07:52:27Z</time>
      </trkpt>
      <trkpt lat="34.001019" lon="-2.695844">
        <ele>900.4</ele>
        <time>2008-09-25T07:52:32Z</time>
      </trkpt>
      <trkpt lat="34.001208" lon="-2.696419">
        <ele>899.5</ele>
        <time>2008-09-25T07:52:37Z</time>
      </trkpt>
      <trkpt lat="34.001419" lon="-2.696936">
        <ele>897.5</ele>
        <time>2008-09-25T07:52:42Z</time>
      </trkpt>
      <trkpt lat="34.001385" lon="-2.697560">
        <ele>896.1</ele>
        <time>2008-09-25T07:52:47Z</time>
      </trkpt>
      <trkpt lat="34.001250" lon="-2.698120">
        <ele>894.6</ele>
        <time>2008-09-25T07:52:51Z</time>
      </trkpt>
      <trkpt lat="34.001068" lon="-2.698703">
        <ele>891.3</ele>
        <time>2008-09-25T07:52:56Z</time>
      </trkpt>
      <trkpt lat="34.000730" lon="-2.699160">
        <ele>887.4</ele>
        <time>2008-09-25T07:53:03Z</time>
      </trkpt>
      <trkpt lat="34.000984" lon="-2.699598">
        <ele>886.0</ele>
        <time>2008-09-25T07:53:09Z</time>
      </trkpt>
      <trkpt lat="34.001141" lon="-2.700250">
        <ele>883.6</ele>
        <time>2008-09-25T07:53:14Z</time>
      </trkpt>
      <trkpt lat="34.001074" lon="-2.700877">
        <ele>882.1</ele>
        <time>2008-09-25T07:53:18Z</time>
      </trkpt>
      <trkpt lat="34.000882" lon="-2.701565">
        <ele>880.7</ele>
        <time>2008-09-25T07:53:22Z</time>
      </trkpt>
      <trkpt lat="34.000769" lon="-2.702095">
        <ele>878.8</ele>
        <time>2008-09-25T07:53:25Z</time>
      </trkpt>
      <trkpt lat="34.000727" lon="-2.702772">
        <ele>875.9</ele>
        <time>2008-09-25T07:53:29Z</time>
      </trkpt>
      <trkpt lat="34.000576" lon="-2.703371">
        <ele>874.0</ele>
        <time>2008-09-25T07:53:33Z</time>
      </trkpt>
      <trkpt lat="34.000304" lon="-2.703871">
        <ele>872.1</ele>
        <time>2008-09-25T07:53:37Z</time>
      </trkpt>
      <trkpt lat="33.999873" lon="-2.704112">
        <ele>870.1</ele>
        <time>2008-09-25T07:53:42Z</time>
      </trkpt>
      <trkpt lat="33.999872" lon="-2.704543">
        <ele>870.1</ele>
        <time>2008-09-25T07:53:50Z</time>
      </trkpt>
      <trkpt lat="34.000227" lon="-2.705002">
        <ele>869.2</ele>
        <time>2008-09-25T07:53:55Z</time>
      </trkpt>
      <trkpt lat="34.000525" lon="-2.705560">
        <ele>866.8</ele>
        <time>2008-09-25T07:54:00Z</time>
      </trkpt>
      <trkpt lat="34.000643" lon="-2.706092">
        <ele>864.8</ele>
        <time>2008-09-25T07:54:04Z</time>
      </trkpt>
      <trkpt lat="34.000739" lon="-2.706674">
        <ele>861.5</ele>
        <time>2008-09-25T07:54:08Z</time>
      </trkpt>
      <trkpt lat="34.000770" lon="-2.707242">
        <ele>859.1</ele>
        <time>2008-09-25T07:54:12Z</time>
      </trkpt>
      <trkpt lat="34.000727" lon="-2.707786">
        <ele>856.2</ele>
        <time>2008-09-25T07:54:16Z</time>
      </trkpt>
      <trkpt lat="34.000522" lon="-2.708377">
        <ele>852.8</ele>
        <time>2008-09-25T07:54:21Z</time>
      </trkpt>
      <trkpt lat="34.000190" lon="-2.708893">
        <ele>850.4</ele>
        <time>2008-09-25T07:54:26Z</time>
      </trkpt>
      <trkpt lat="33.999697" lon="-2.709165">
        <ele>847.5</ele>
        <time>2008-09-25T07:54:31Z</time>
      </trkpt>
      <trkpt lat="33.999222" lon="-2.709230">
        <ele>845.6</ele>
        <time>2008-09-25T07:54:35Z</time>
      </trkpt>
      <trkpt lat="33.998758" lon="-2.709428">
        <ele>844.2</ele>
        <time>2008-09-25T07:54:39Z</time>
      </trkpt>
      <trkpt lat="33.998301" lon="-2.709532">
        <ele>842.7</ele>
        <time>2008-09-25T07:54:43Z</time>
      </trkpt>
      <trkpt lat="33.997909" lon="-2.709886">
        <ele>842.7</ele>
        <time>2008-09-25T07:54:48Z</time>
      </trkpt>
      <trkpt lat="33.997425" lon="-2.710083">
        <ele>840.8</ele>
        <time>2008-09-25T07:54:53Z</time>
      </trkpt>
      <trkpt lat="33.996932" lon="-2.710345">
        <ele>837.0</ele>
        <time>2008-09-25T07:54:58Z</time>
      </trkpt>
      <trkpt lat="33.996490" lon="-2.710324">
        <ele>834.6</ele>
        <time>2008-09-25T07:55:03Z</time>
      </trkpt>
      <trkpt lat="33.995941" lon="-2.710120">
        <ele>831.2</ele>
        <time>2008-09-25T07:55:08Z</time>
      </trkpt>
      <trkpt lat="33.995446" lon="-2.709821">
        <ele>827.8</ele>
        <time>2008-09-25T07:55:13Z</time>
      </trkpt>
      <trkpt lat="33.995080" lon="-2.709505">
        <ele>824.5</ele>
        <time>2008-09-25T07:55:18Z</time>
      </trkpt>
      <trkpt lat="33.994621" lon="-2.709389">
        <ele>821.6</ele>
        <time>2008-09-25T07:55:24Z</time>
      </trkpt>
      <trkpt lat="33.994244" lon="-2.708980">
        <ele>819.7</ele>
        <time>2008-09-25T07:55:29Z</time>
      </trkpt>
      <trkpt lat="33.993795" lon="-2.708777">
        <ele>816.3</ele>
        <time>2008-09-25T07:55:34Z</time>
      </trkpt>
      <trkpt lat="33.993562" lon="-2.709290">
        <ele>817.7</ele>
        <time>2008-09-25T07:55:40Z</time>
      </trkpt>
      <trkpt lat="33.993475" lon="-2.709842">
        <ele>819.7</ele>
        <time>2008-09-25T07:55:44Z</time>
      </trkpt>
      <trkpt lat="33.993155" lon="-2.710351">
        <ele>820.1</ele>
        <time>2008-09-25T07:55:49Z</time>
      </trkpt>
      <trkpt lat="33.993144" lon="-2.710923">
        <ele>821.6</ele>
        <time>2008-09-25T07:55:54Z</time>
      </trkpt>
      <trkpt lat="33.993368" lon="-2.711518">
        <ele>821.1</ele>
        <time>2008-09-25T07:55:59Z</time>
      </trkpt>
      <trkpt lat="33.993374" lon="-2.712097">
        <ele>821.6</ele>
        <time>2008-09-25T07:56:04Z</time>
      </trkpt>
      <trkpt lat="33.992926" lon="-2.712448">
        <ele>822.1</ele>
        <time>2008-09-25T07:56:09Z</time>
      </trkpt>
      <trkpt lat="33.992735" lon="-2.712927">
        <ele>822.1</ele>
        <time>2008-09-25T07:56:14Z</time>
      </trkpt>
      <trkpt lat="33.992411" lon="-2.713336">
        <ele>822.5</ele>
        <time>2008-09-25T07:56:19Z</time>
      </trkpt>
      <trkpt lat="33.991953" lon="-2.713534">
        <ele>823.0</ele>
        <time>2008-09-25T07:56:24Z</time>
      </trkpt>
      <trkpt lat="33.991491" lon="-2.713468">
        <ele>822.1</ele>
        <time>2008-09-25T07:56:30Z</time>
      </trkpt>
      <trkpt lat="33.991418" lon="-2.713966">
        <ele>823.5</ele>
        <time>2008-09-25T07:56:36Z</time>
      </trkpt>
      <trkpt lat="33.991435" lon="-2.714533">
        <ele>824.0</ele>
        <time>2008-09-25T07:56:41Z</time>
      </trkpt>
      <trkpt lat="33.991284" lon="-2.715080">
        <ele>822.5</ele>
        <time>2008-09-25T07:56:46Z</time>
      </trkpt>
      <trkpt lat="33.991070" lon="-2.715592">
        <ele>822.1</ele>
        <time>2008-09-25T07:56:52Z</time>
      </trkpt>
      <trkpt lat="33.990639" lon="-2.715898">
        <ele>821.6</ele>
        <time>2008-09-25T07:56:57Z</time>
      </trkpt>
      <trkpt lat="33.990379" lon="-2.716221">
        <ele>820.6</ele>
        <time>2008-09-25T07:57:05Z</time>
      </trkpt>
      <trkpt lat="33.990120" lon="-2.716719">
        <ele>820.6</ele>
        <time>2008-09-25T07:57:11Z</time>
      </trkpt>
      <trkpt lat="33.989838" lon="-2.717194">
        <ele>820.6</ele>
        <time>2008-09-25T07:57:16Z</time>
      </trkpt>
      <trkpt lat="33.989518" lon="-2.717555">
        <ele>818.7</ele>
        <time>2008-09-25T07:57:21Z</time>
      </trkpt>
      <trkpt lat="33.989436" lon="-2.718025">
        <ele>817.3</ele>
        <time>2008-09-25T07:57:28Z</time>
      </trkpt>
      <trkpt lat="33.989393" lon="-2.718638">
        <ele>817.7</ele>
        <time>2008-09-25T07:57:34Z</time>
      </trkpt>
      <trkpt lat="33.989255" lon="-2.719272">
        <ele>817.7</ele>
        <time>2008-09-25T07:57:39Z</time>
      </trkpt>
      <trkpt lat="33.988874" lon="-2.719709">
        <ele>818.2</ele>
        <time>2008-09-25T07:57:44Z</time>
      </trkpt>
      <trkpt lat="33.988367" lon="-2.719869">
        <ele>817.3</ele>
        <time>2008-09-25T07:57:49Z</time>
      </trkpt>
      <trkpt lat="33.988167" lon="-2.720334">
        <ele>818.2</ele>
        <time>2008-09-25T07:57:55Z</time>
      </trkpt>
      <trkpt lat="33.987944" lon="-2.720900">
        <ele>818.2</ele>
        <time>2008-09-25T07:58:00Z</time>
      </trkpt>
      <trkpt lat="33.987526" lon="-2.721305">
        <ele>818.2</ele>
        <time>2008-09-25T07:58:05Z</time>
      </trkpt>
      <trkpt lat="33.987395" lon="-2.721785">
        <ele>816.8</ele>
        <time>2008-09-25T07:58:11Z</time>
      </trkpt>
      <trkpt lat="33.987651" lon="-2.722243">
        <ele>814.4</ele>
        <time>2008-09-25T07:58:16Z</time>
      </trkpt>
      <trkpt lat="33.987565" lon="-2.722771">
        <ele>810.5</ele>
        <time>2008-09-25T07:58:22Z</time>
      </trkpt>
      <trkpt lat="33.987203" lon="-2.722850">
        <ele>809.1</ele>
        <time>2008-09-25T07:58:30Z</time>
      </trkpt>
      <trkpt lat="33.987376" lon="-2.723440">
        <ele>811.0</ele>
        <time>2008-09-25T07:58:37Z</time>
      </trkpt>
      <trkpt lat="33.987016" lon="-2.723849">
        <ele>811.5</ele>
        <time>2008-09-25T07:58:43Z</time>
      </trkpt>
      <trkpt lat="33.986788" lon="-2.724450">
        <ele>812.0</ele>
        <time>2008-09-25T07:58:48Z</time>
      </trkpt>
      <trkpt lat="33.986516" lon="-2.724951">
        <ele>812.0</ele>
        <time>2008-09-25T07:58:53Z</time>
      </trkpt>
      <trkpt lat="33.986170" lon="-2.725348">
        <ele>812.5</ele>
        <time>2008-09-25T07:58:58Z</time>
      </trkpt>
      <trkpt lat="33.985718" lon="-2.725453">
        <ele>810.5</ele>
        <time>2008-09-25T07:59:05Z</time>
      </trkpt>
      <trkpt lat="33.985327" lon="-2.725417">
        <ele>809.6</ele>
        <time>2008-09-25T07:59:16Z</time>
      </trkpt>
      <trkpt lat="33.985449" lon="-2.726018">
        <ele>811.5</ele>
        <time>2008-09-25T07:59:24Z</time>
      </trkpt>
      <trkpt lat="33.985393" lon="-2.726501">
        <ele>811.0</ele>
        <time>2008-09-25T07:59:32Z</time>
      </trkpt>
      <trkpt lat="33.985350" lon="-2.727095">
        <ele>811.5</ele>
        <time>2008-09-25T07:59:38Z</time>
      </trkpt>
      <trkpt lat="33.985099" lon="-2.727637">
        <ele>811.0</ele>
        <time>2008-09-25T07:59:44Z</time>
      </trkpt>
      <trkpt lat="33.985033" lon="-2.728254">
        <ele>811.5</ele>
        <time>2008-09-25T07:59:50Z</time>
      </trkpt>
      <trkpt lat="33.984682" lon="-2.728713">
        <ele>811.0</ele>
        <time>2008-09-25T07:59:56Z</time>
      </trkpt>
      <trkpt lat="33.984219" lon="-2.728865">
        <ele>808.6</ele>
        <time>2008-09-25T08:00:03Z</time>
      </trkpt>
      <trkpt lat="33.984187" lon="-2.729467">
        <ele>810.5</ele>
        <time>2008-09-25T08:00:10Z</time>
      </trkpt>
      <trkpt lat="33.983878" lon="-2.729899">
        <ele>810.0</ele>
        <time>2008-09-25T08:00:16Z</time>
      </trkpt>
      <trkpt lat="33.983478" lon="-2.730153">
        <ele>807.6</ele>
        <time>2008-09-25T08:00:23Z</time>
      </trkpt>
      <trkpt lat="33.983435" lon="-2.730699">
        <ele>809.6</ele>
        <time>2008-09-25T08:00:30Z</time>
      </trkpt>
      <trkpt lat="33.983163" lon="-2.731137">
        <ele>809.1</ele>
        <time>2008-09-25T08:00:36Z</time>
      </trkpt>
      <trkpt lat="33.983296" lon="-2.731672">
        <ele>809.6</ele>
        <time>2008-09-25T08:00:42Z</time>
      </trkpt>
      <trkpt lat="33.982997" lon="-2.732064">
        <ele>809.1</ele>
        <time>2008-09-25T08:00:48Z</time>
      </trkpt>
      <trkpt lat="33.982528" lon="-2.732111">
        <ele>808.6</ele>
        <time>2008-09-25T08:00:54Z</time>
      </trkpt>
      <trkpt lat="33.982266" lon="-2.732258">
        <ele>809.1</ele>
        <time>2008-09-25T08:01:03Z</time>
      </trkpt>
      <trkpt lat="33.982123" lon="-2.732716">
        <ele>809.6</ele>
        <time>2008-09-25T08:01:10Z</time>
      </trkpt>
      <trkpt lat="33.981674" lon="-2.732557">
        <ele>809.6</ele>
        <time>2008-09-25T08:01:17Z</time>
      </trkpt>
      <trkpt lat="33.981357" lon="-2.732107">
        <ele>809.1</ele>
        <time>2008-09-25T08:01:24Z</time>
      </trkpt>
      <trkpt lat="33.981013" lon="-2.731976">
        <ele>810.0</ele>
        <time>2008-09-25T08:01:31Z</time>
      </trkpt>
      <trkpt lat="33.980700" lon="-2.732363">
        <ele>809.6</ele>
        <time>2008-09-25T08:01:36Z</time>
      </trkpt>
      <trkpt lat="33.980692" lon="-2.732780">
        <ele>809.6</ele>
        <time>2008-09-25T08:01:43Z</time>
      </trkpt>
      <trkpt lat="33.980507" lon="-2.733118">
        <ele>810.0</ele>
        <time>2008-09-25T08:01:50Z</time>
      </trkpt>
      <trkpt lat="33.980279" lon="-2.733507">
        <ele>811.0</ele>
        <time>2008-09-25T08:01:58Z</time>
      </trkpt>
      <trkpt lat="33.980322" lon="-2.734145">
        <ele>811.0</ele>
        <time>2008-09-25T08:02:03Z</time>
      </trkpt>
      <trkpt lat="33.979855" lon="-2.734208">
        <ele>811.0</ele>
        <time>2008-09-25T08:02:10Z</time>
      </trkpt>
      <trkpt lat="33.979687" lon="-2.734548">
        <ele>811.5</ele>
        <time>2008-09-25T08:02:17Z</time>
      </trkpt>
      <trkpt lat="33.979624" lon="-2.735168">
        <ele>812.9</ele>
        <time>2008-09-25T08:02:22Z</time>
      </trkpt>
      <trkpt lat="33.979328" lon="-2.735535">
        <ele>812.9</ele>
        <time>2008-09-25T08:02:27Z</time>
      </trkpt>
      <trkpt lat="33.979199" lon="-2.735973">
        <ele>813.9</ele>
        <time>2008-09-25T08:02:38Z</time>
      </trkpt>
      <trkpt lat="33.978862" lon="-2.736312">
        <ele>815.8</ele>
        <time>2008-09-25T08:02:44Z</time>
      </trkpt>
      <trkpt lat="33.978581" lon="-2.736732">
        <ele>816.3</ele>
        <time>2008-09-25T08:02:50Z</time>
      </trkpt>
      <trkpt lat="33.978421" lon="-2.737361">
        <ele>817.7</ele>
        <time>2008-09-25T08:02:56Z</time>
      </trkpt>
      <trkpt lat="33.978341" lon="-2.737999">
        <ele>818.7</ele>
        <time>2008-09-25T08:03:01Z</time>
      </trkpt>
      <trkpt lat="33.978180" lon="-2.738519">
        <ele>819.2</ele>
        <time>2008-09-25T08:03:05Z</time>
      </trkpt>
      <trkpt lat="33.978059" lon="-2.739071">
        <ele>820.1</ele>
        <time>2008-09-25T08:03:09Z</time>
      </trkpt>
      <trkpt lat="33.977875" lon="-2.739587">
        <ele>820.6</ele>
        <time>2008-09-25T08:03:13Z</time>
      </trkpt>
      <trkpt lat="33.977502" lon="-2.739912">
        <ele>819.7</ele>
        <time>2008-09-25T08:03:18Z</time>
      </trkpt>
      <trkpt lat="33.977512" lon="-2.740542">
        <ele>821.6</ele>
        <time>2008-09-25T08:03:25Z</time>
      </trkpt>
      <trkpt lat="33.977536" lon="-2.741139">
        <ele>821.1</ele>
        <time>2008-09-25T08:03:30Z</time>
      </trkpt>
      <trkpt lat="33.977091" lon="-2.741351">
        <ele>818.7</ele>
        <time>2008-09-25T08:03:36Z</time>
      </trkpt>
      <trkpt lat="33.976897" lon="-2.741486">
        <ele>818.7</ele>
        <time>2008-09-25T08:03:45Z</time>
      </trkpt>
      <trkpt lat="33.977022" lon="-2.742024">
        <ele>819.7</ele>
        <time>2008-09-25T08:03:51Z</time>
      </trkpt>
      <trkpt lat="33.976853" lon="-2.742532">
        <ele>820.1</ele>
        <time>2008-09-25T08:03:56Z</time>
      </trkpt>
      <trkpt lat="33.976565" lon="-2.743054">
        <ele>819.2</ele>
        <time>2008-09-25T08:04:01Z</time>
      </trkpt>
      <trkpt lat="33.976623" lon="-2.743609">
        <ele>819.2</ele>
        <time>2008-09-25T08:04:08Z</time>
      </trkpt>
      <trkpt lat="33.976777" lon="-2.744200">
        <ele>818.7</ele>
        <time>2008-09-25T08:04:13Z</time>
      </trkpt>
      <trkpt lat="33.976479" lon="-2.744579">
        <ele>818.2</ele>
        <time>2008-09-25T08:04:19Z</time>
      </trkpt>
      <trkpt lat="33.976107" lon="-2.744568">
        <ele>818.7</ele>
        <time>2008-09-25T08:04:27Z</time>
      </trkpt>
      <trkpt lat="33.975725" lon="-2.744765">
        <ele>817.3</ele>
        <time>2008-09-25T08:04:34Z</time>
      </trkpt>
      <trkpt lat="33.975841" lon="-2.745208">
        <ele>818.2</ele>
        <time>2008-09-25T08:04:41Z</time>
      </trkpt>
      <trkpt lat="33.975839" lon="-2.745715">
        <ele>818.2</ele>
        <time>2008-09-25T08:04:47Z</time>
      </trkpt>
      <trkpt lat="33.975421" lon="-2.745871">
        <ele>818.7</ele>
        <time>2008-09-25T08:04:53Z</time>
      </trkpt>
      <trkpt lat="33.974970" lon="-2.745848">
        <ele>818.7</ele>
        <time>2008-09-25T08:04:59Z</time>
      </trkpt>
      <trkpt lat="33.974967" lon="-2.746472">
        <ele>820.1</ele>
        <time>2008-09-25T08:05:06Z</time>
      </trkpt>
      <trkpt lat="33.974778" lon="-2.747069">
        <ele>820.1</ele>
        <time>2008-09-25T08:05:11Z</time>
      </trkpt>
      <trkpt lat="33.974394" lon="-2.747474">
        <ele>819.7</ele>
        <time>2008-09-25T08:05:17Z</time>
      </trkpt>
      <trkpt lat="33.973899" lon="-2.747625">
        <ele>819.7</ele>
        <time>2008-09-25T08:05:22Z</time>
      </trkpt>
      <trkpt lat="33.973514" lon="-2.747909">
        <ele>818.7</ele>
        <time>2008-09-25T08:05:28Z</time>
      </trkpt>
      <trkpt lat="33.973227" lon="-2.748440">
        <ele>818.7</ele>
        <time>2008-09-25T08:05:33Z</time>
      </trkpt>
      <trkpt lat="33.972895" lon="-2.748872">
        <ele>817.3</ele>
        <time>2008-09-25T08:05:38Z</time>
      </trkpt>
      <trkpt lat="33.972680" lon="-2.749320">
        <ele>815.8</ele>
        <time>2008-09-25T08:05:45Z</time>
      </trkpt>
      <trkpt lat="33.973031" lon="-2.749667">
        <ele>816.8</ele>
        <time>2008-09-25T08:05:53Z</time>
      </trkpt>
      <trkpt lat="33.973141" lon="-2.750241">
        <ele>815.8</ele>
        <time>2008-09-25T08:05:59Z</time>
      </trkpt>
      <trkpt lat="33.972707" lon="-2.750518">
        <ele>814.4</ele>
        <time>2008-09-25T08:06:06Z</time>
      </trkpt>
      <trkpt lat="33.972435" lon="-2.750880">
        <ele>812.5</ele>
        <time>2008-09-25T08:06:14Z</time>
      </trkpt>
      <trkpt lat="33.972487" lon="-2.751268">
        <ele>812.0</ele>
        <time>2008-09-25T08:06:22Z</time>
      </trkpt>
      <trkpt lat="33.972847" lon="-2.751683">
        <ele>812.9</ele>
        <time>2008-09-25T08:06:27Z</time>
      </trkpt>
      <trkpt lat="33.972900" lon="-2.752184">
        <ele>811.5</ele>
        <time>2008-09-25T08:06:32Z</time>
      </trkpt>
      <trkpt lat="33.972881" lon="-2.752809">
        <ele>810.0</ele>
        <time>2008-09-25T08:06:38Z</time>
      </trkpt>
      <trkpt lat="33.972945" lon="-2.753390">
        <ele>808.1</ele>
        <time>2008-09-25T08:06:43Z</time>
      </trkpt>
      <trkpt lat="33.972915" lon="-2.753934">
        <ele>805.7</ele>
        <time>2008-09-25T08:06:48Z</time>
      </trkpt>
      <trkpt lat="33.972756" lon="-2.754426">
        <ele>802.4</ele>
        <time>2008-09-25T08:06:53Z</time>
      </trkpt>
      <trkpt lat="33.972424" lon="-2.754814">
        <ele>799.5</ele>
        <time>2008-09-25T08:06:59Z</time>
      </trkpt>
      <trkpt lat="33.972887" lon="-2.754865">
        <ele>799.5</ele>
        <time>2008-09-25T08:07:06Z</time>
      </trkpt>
      <trkpt lat="33.973377" lon="-2.755009">
        <ele>796.6</ele>
        <time>2008-09-25T08:07:11Z</time>
      </trkpt>
      <trkpt lat="33.973794" lon="-2.755340">
        <ele>793.7</ele>
        <time>2008-09-25T08:07:16Z</time>
      </trkpt>
      <trkpt lat="33.974044" lon="-2.755793">
        <ele>790.3</ele>
        <time>2008-09-25T08:07:20Z</time>
      </trkpt>
      <trkpt lat="33.974108" lon="-2.756310">
        <ele>787.0</ele>
        <time>2008-09-25T08:07:26Z</time>
      </trkpt>
      <trkpt lat="33.973710" lon="-2.756545">
        <ele>784.6</ele>
        <time>2008-09-25T08:07:33Z</time>
      </trkpt>
      <trkpt lat="33.973967" lon="-2.757019">
        <ele>785.5</ele>
        <time>2008-09-25T08:07:40Z</time>
      </trkpt>
      <trkpt lat="33.973953" lon="-2.757677">
        <ele>784.1</ele>
        <time>2008-09-25T08:07:46Z</time>
      </trkpt>
      <trkpt lat="33.974108" lon="-2.758267">
        <ele>781.2</ele>
        <time>2008-09-25T08:07:51Z</time>
      </trkpt>
      <trkpt lat="33.974205" lon="-2.758827">
        <ele>776.9</ele>
        <time>2008-09-25T08:07:56Z</time>
      </trkpt>
      <trkpt lat="33.974111" lon="-2.759351">
        <ele>775.0</ele>
        <time>2008-09-25T08:08:04Z</time>
      </trkpt>
      <trkpt lat="33.974194" lon="-2.759987">
        <ele>772.1</ele>
        <time>2008-09-25T08:08:10Z</time>
      </trkpt>
      <trkpt lat="33.973955" lon="-2.760557">
        <ele>769.2</ele>
        <time>2008-09-25T08:08:16Z</time>
      </trkpt>
      <trkpt lat="33.973550" lon="-2.760893">
        <ele>766.3</ele>
        <time>2008-09-25T08:08:22Z</time>
      </trkpt>
      <trkpt lat="33.973746" lon="-2.761357">
        <ele>768.2</ele>
        <time>2008-09-25T08:08:29Z</time>
      </trkpt>
      <trkpt lat="33.973826" lon="-2.761863">
        <ele>770.2</ele>
        <time>2008-09-25T08:08:34Z</time>
      </trkpt>
      <trkpt lat="33.973381" lon="-2.762155">
        <ele>771.6</ele>
        <time>2008-09-25T08:08:39Z</time>
      </trkpt>
      <trkpt lat="33.972959" lon="-2.762393">
        <ele>773.0</ele>
        <time>2008-09-25T08:08:43Z</time>
      </trkpt>
      <trkpt lat="33.972592" lon="-2.762784">
        <ele>775.0</ele>
        <time>2008-09-25T08:08:47Z</time>
      </trkpt>
      <trkpt lat="33.972289" lon="-2.763283">
        <ele>776.4</ele>
        <time>2008-09-25T08:08:51Z</time>
      </trkpt>
      <trkpt lat="33.972124" lon="-2.763851">
        <ele>774.5</ele>
        <time>2008-09-25T08:08:56Z</time>
      </trkpt>
      <trkpt lat="33.971827" lon="-2.764353">
        <ele>775.0</ele>
        <time>2008-09-25T08:09:02Z</time>
      </trkpt>
      <trkpt lat="33.971442" lon="-2.764772">
        <ele>775.4</ele>
        <time>2008-09-25T08:09:06Z</time>
      </trkpt>
      <trkpt lat="33.971118" lon="-2.765185">
        <ele>774.5</ele>
        <time>2008-09-25T08:09:10Z</time>
      </trkpt>
      <trkpt lat="33.970682" lon="-2.765411">
        <ele>772.6</ele>
        <time>2008-09-25T08:09:16Z</time>
      </trkpt>
      <trkpt lat="33.970703" lon="-2.765936">
        <ele>773.0</ele>
        <time>2008-09-25T08:09:23Z</time>
      </trkpt>
      <trkpt lat="33.970480" lon="-2.766505">
        <ele>772.6</ele>
        <time>2008-09-25T08:09:29Z</time>
      </trkpt>
      <trkpt lat="33.970760" lon="-2.766948">
        <ele>771.6</ele>
        <time>2008-09-25T08:09:34Z</time>
      </trkpt>
      <trkpt lat="33.970969" lon="-2.767546">
        <ele>770.2</ele>
        <time>2008-09-25T08:09:39Z</time>
      </trkpt>
      <trkpt lat="33.971098" lon="-2.768156">
        <ele>765.3</ele>
        <time>2008-09-25T08:09:43Z</time>
      </trkpt>
      <trkpt lat="33.971117" lon="-2.768731">
        <ele>763.9</ele>
        <time>2008-09-25T08:09:48Z</time>
      </trkpt>
      <trkpt lat="33.971199" lon="-2.769225">
        <ele>760.5</ele>
        <time>2008-09-25T08:09:54Z</time>
      </trkpt>
      <trkpt lat="33.971708" lon="-2.769507">
        <ele>757.2</ele>
        <time>2008-09-25T08:09:59Z</time>
      </trkpt>
      <trkpt lat="33.972257" lon="-2.769615">
        <ele>753.3</ele>
        <time>2008-09-25T08:10:04Z</time>
      </trkpt>
      <trkpt lat="33.972684" lon="-2.769885">
        <ele>754.8</ele>
        <time>2008-09-25T08:10:08Z</time>
      </trkpt>
      <trkpt lat="33.973033" lon="-2.770214">
        <ele>753.8</ele>
        <time>2008-09-25T08:10:12Z</time>
      </trkpt>
      <trkpt lat="33.973039" lon="-2.770800">
        <ele>753.3</ele>
        <time>2008-09-25T08:10:17Z</time>
      </trkpt>
      <trkpt lat="33.973001" lon="-2.771355">
        <ele>751.9</ele>
        <time>2008-09-25T08:10:21Z</time>
      </trkpt>
      <trkpt lat="33.973209" lon="-2.771923">
        <ele>750.4</ele>
        <time>2008-09-25T08:10:27Z</time>
      </trkpt>
      <trkpt lat="33.973551" lon="-2.772393">
        <ele>752.8</ele>
        <time>2008-09-25T08:10:32Z</time>
      </trkpt>
      <trkpt lat="33.973937" lon="-2.772951">
        <ele>756.7</ele>
        <time>2008-09-25T08:10:36Z</time>
      </trkpt>
      <trkpt lat="33.974266" lon="-2.773451">
        <ele>759.1</ele>
        <time>2008-09-25T08:10:39Z</time>
      </trkpt>
      <trkpt lat="33.974540" lon="-2.774053">
        <ele>761.0</ele>
        <time>2008-09-25T08:10:43Z</time>
      </trkpt>
      <trkpt lat="33.974388" lon="-2.774611">
        <ele>763.4</ele>
        <time>2008-09-25T08:10:47Z</time>
      </trkpt>
      <trkpt lat="33.974224" lon="-2.775175">
        <ele>764.4</ele>
        <time>2008-09-25T08:10:51Z</time>
      </trkpt>
      <trkpt lat="33.974147" lon="-2.775840">
        <ele>765.8</ele>
        <time>2008-09-25T08:10:55Z</time>
      </trkpt>
      <trkpt lat="33.974151" lon="-2.776404">
        <ele>766.3</ele>
        <time>2008-09-25T08:10:58Z</time>
      </trkpt>
      <trkpt lat="33.974138" lon="-2.776986">
        <ele>768.7</ele>
        <time>2008-09-25T08:11:01Z</time>
      </trkpt>
      <trkpt lat="33.974034" lon="-2.777515">
        <ele>769.2</ele>
        <time>2008-09-25T08:11:04Z</time>
      </trkpt>
      <trkpt lat="33.973811" lon="-2.778058">
        <ele>768.7</ele>
        <time>2008-09-25T08:11:09Z</time>
      </trkpt>
      <trkpt lat="33.973628" lon="-2.778572">
        <ele>769.2</ele>
        <time>2008-09-25T08:11:15Z</time>
      </trkpt>
      <trkpt lat="33.973493" lon="-2.779168">
        <ele>772.1</ele>
        <time>2008-09-25T08:11:20Z</time>
      </trkpt>
      <trkpt lat="33.973433" lon="-2.779829">
        <ele>775.9</ele>
        <time>2008-09-25T08:11:24Z</time>
      </trkpt>
      <trkpt lat="33.973377" lon="-2.780411">
        <ele>778.3</ele>
        <time>2008-09-25T08:11:27Z</time>
      </trkpt>
      <trkpt lat="33.973322" lon="-2.780994">
        <ele>779.3</ele>
        <time>2008-09-25T08:11:30Z</time>
      </trkpt>
      <trkpt lat="33.973225" lon="-2.781696">
        <ele>780.2</ele>
        <time>2008-09-25T08:11:34Z</time>
      </trkpt>
      <trkpt lat="33.973161" lon="-2.782388">
        <ele>781.7</ele>
        <time>2008-09-25T08:11:38Z</time>
      </trkpt>
      <trkpt lat="33.973166" lon="-2.783024">
        <ele>782.2</ele>
        <time>2008-09-25T08:11:42Z</time>
      </trkpt>
      <trkpt lat="33.973136" lon="-2.783664">
        <ele>783.6</ele>
        <time>2008-09-25T08:11:46Z</time>
      </trkpt>
      <trkpt lat="33.973105" lon="-2.784301">
        <ele>785.5</ele>
        <time>2008-09-25T08:11:50Z</time>
      </trkpt>
      <trkpt lat="33.973071" lon="-2.784955">
        <ele>787.5</ele>
        <time>2008-09-25T08:11:54Z</time>
      </trkpt>
      <trkpt lat="33.973130" lon="-2.785522">
        <ele>787.0</ele>
        <time>2008-09-25T08:11:58Z</time>
      </trkpt>
      <trkpt lat="33.973203" lon="-2.786081">
        <ele>787.9</ele>
        <time>2008-09-25T08:12:03Z</time>
      </trkpt>
      <trkpt lat="33.973199" lon="-2.786650">
        <ele>789.4</ele>
        <time>2008-09-25T08:12:08Z</time>
      </trkpt>
      <trkpt lat="33.973194" lon="-2.787225">
        <ele>791.8</ele>
        <time>2008-09-25T08:12:12Z</time>
      </trkpt>
      <trkpt lat="33.973235" lon="-2.787842">
        <ele>790.8</ele>
        <time>2008-09-25T08:12:16Z</time>
      </trkpt>
      <trkpt lat="33.973209" lon="-2.788509">
        <ele>793.2</ele>
        <time>2008-09-25T08:12:20Z</time>
      </trkpt>
      <trkpt lat="33.973165" lon="-2.789135">
        <ele>796.6</ele>
        <time>2008-09-25T08:12:24Z</time>
      </trkpt>
      <trkpt lat="33.973165" lon="-2.789747">
        <ele>800.4</ele>
        <time>2008-09-25T08:12:28Z</time>
      </trkpt>
      <trkpt lat="33.973257" lon="-2.790348">
        <ele>799.5</ele>
        <time>2008-09-25T08:12:32Z</time>
      </trkpt>
      <trkpt lat="33.973350" lon="-2.790948">
        <ele>800.9</ele>
        <time>2008-09-25T08:12:36Z</time>
      </trkpt>
      <trkpt lat="33.973403" lon="-2.791532">
        <ele>799.5</ele>
        <time>2008-09-25T08:12:40Z</time>
      </trkpt>
      <trkpt lat="33.973595" lon="-2.792025">
        <ele>798.0</ele>
        <time>2008-09-25T08:12:45Z</time>
      </trkpt>
      <trkpt lat="33.973784" lon="-2.792576">
        <ele>799.5</ele>
        <time>2008-09-25T08:12:51Z</time>
      </trkpt>
      <trkpt lat="33.973941" lon="-2.793215">
        <ele>801.4</ele>
        <time>2008-09-25T08:12:56Z</time>
      </trkpt>
      <trkpt lat="33.974170" lon="-2.793734">
        <ele>803.8</ele>
        <time>2008-09-25T08:13:00Z</time>
      </trkpt>
      <trkpt lat="33.974402" lon="-2.794325">
        <ele>806.7</ele>
        <time>2008-09-25T08:13:04Z</time>
      </trkpt>
      <trkpt lat="33.974575" lon="-2.794958">
        <ele>808.6</ele>
        <time>2008-09-25T08:13:08Z</time>
      </trkpt>
      <trkpt lat="33.974860" lon="-2.795374">
        <ele>807.6</ele>
        <time>2008-09-25T08:13:12Z</time>
      </trkpt>
      <trkpt lat="33.975126" lon="-2.795852">
        <ele>810.5</ele>
        <time>2008-09-25T08:13:16Z</time>
      </trkpt>
      <trkpt lat="33.975345" lon="-2.796480">
        <ele>815.3</ele>
        <time>2008-09-25T08:13:20Z</time>
      </trkpt>
      <trkpt lat="33.975522" lon="-2.797006">
        <ele>817.3</ele>
        <time>2008-09-25T08:13:23Z</time>
      </trkpt>
      <trkpt lat="33.975727" lon="-2.797676">
        <ele>816.3</ele>
        <time>2008-09-25T08:13:27Z</time>
      </trkpt>
      <trkpt lat="33.975890" lon="-2.798250">
        <ele>813.9</ele>
        <time>2008-09-25T08:13:31Z</time>
      </trkpt>
      <trkpt lat="33.976001" lon="-2.798895">
        <ele>814.4</ele>
        <time>2008-09-25T08:13:36Z</time>
      </trkpt>
      <trkpt lat="33.975987" lon="-2.799529">
        <ele>816.8</ele>
        <time>2008-09-25T08:13:40Z</time>
      </trkpt>
      <trkpt lat="33.975932" lon="-2.800165">
        <ele>817.3</ele>
        <time>2008-09-25T08:13:44Z</time>
      </trkpt>
      <trkpt lat="33.976006" lon="-2.800816">
        <ele>819.2</ele>
        <time>2008-09-25T08:13:48Z</time>
      </trkpt>
      <trkpt lat="33.976157" lon="-2.801479">
        <ele>820.1</ele>
        <time>2008-09-25T08:13:52Z</time>
      </trkpt>
      <trkpt lat="33.976299" lon="-2.802094">
        <ele>817.3</ele>
        <time>2008-09-25T08:13:56Z</time>
      </trkpt>
      <trkpt lat="33.976380" lon="-2.802657">
        <ele>818.7</ele>
        <time>2008-09-25T08:14:00Z</time>
      </trkpt>
      <trkpt lat="33.976491" lon="-2.803383">
        <ele>821.6</ele>
        <time>2008-09-25T08:14:04Z</time>
      </trkpt>
      <trkpt lat="33.976627" lon="-2.803926">
        <ele>824.9</ele>
        <time>2008-09-25T08:14:07Z</time>
      </trkpt>
      <trkpt lat="33.976895" lon="-2.804564">
        <ele>828.3</ele>
        <time>2008-09-25T08:14:11Z</time>
      </trkpt>
      <trkpt lat="33.977178" lon="-2.805143">
        <ele>829.3</ele>
        <time>2008-09-25T08:14:15Z</time>
      </trkpt>
      <trkpt lat="33.977562" lon="-2.805594">
        <ele>830.7</ele>
        <time>2008-09-25T08:14:19Z</time>
      </trkpt>
      <trkpt lat="33.977832" lon="-2.806011">
        <ele>824.5</ele>
        <time>2008-09-25T08:14:27Z</time>
      </trkpt>
      <trkpt lat="33.977916" lon="-2.806547">
        <ele>829.3</ele>
        <time>2008-09-25T08:14:41Z</time>
      </trkpt>
      <trkpt lat="33.978163" lon="-2.807017">
        <ele>832.6</ele>
        <time>2008-09-25T08:14:48Z</time>
      </trkpt>
      <trkpt lat="33.978540" lon="-2.807420">
        <ele>831.2</ele>
        <time>2008-09-25T08:14:54Z</time>
      </trkpt>
      <trkpt lat="33.978149" lon="-2.807665">
        <ele>833.6</ele>
        <time>2008-09-25T08:15:03Z</time>
      </trkpt>
      <trkpt lat="33.977990" lon="-2.808172">
        <ele>833.1</ele>
        <time>2008-09-25T08:15:09Z</time>
      </trkpt>
      <trkpt lat="33.977689" lon="-2.808625">
        <ele>834.1</ele>
        <time>2008-09-25T08:15:14Z</time>
      </trkpt>
      <trkpt lat="33.977281" lon="-2.809043">
        <ele>836.5</ele>
        <time>2008-09-25T08:15:20Z</time>
      </trkpt>
      <trkpt lat="33.977116" lon="-2.809583">
        <ele>838.9</ele>
        <time>2008-09-25T08:15:25Z</time>
      </trkpt>
      <trkpt lat="33.977076" lon="-2.810130">
        <ele>839.8</ele>
        <time>2008-09-25T08:15:30Z</time>
      </trkpt>
      <trkpt lat="33.977021" lon="-2.810692">
        <ele>844.2</ele>
        <time>2008-09-25T08:15:34Z</time>
      </trkpt>
      <trkpt lat="33.976986" lon="-2.811288">
        <ele>845.1</ele>
        <time>2008-09-25T08:15:38Z</time>
      </trkpt>
      <trkpt lat="33.976779" lon="-2.811777">
        <ele>848.5</ele>
        <time>2008-09-25T08:15:42Z</time>
      </trkpt>
      <trkpt lat="33.976646" lon="-2.812299">
        <ele>848.5</ele>
        <time>2008-09-25T08:15:46Z</time>
      </trkpt>
      <trkpt lat="33.976687" lon="-2.812841">
        <ele>845.1</ele>
        <time>2008-09-25T08:15:51Z</time>
      </trkpt>
      <trkpt lat="33.976712" lon="-2.813483">
        <ele>849.9</ele>
        <time>2008-09-25T08:15:57Z</time>
      </trkpt>
      <trkpt lat="33.976497" lon="-2.814106">
        <ele>854.7</ele>
        <time>2008-09-25T08:16:02Z</time>
      </trkpt>
      <trkpt lat="33.976293" lon="-2.814624">
        <ele>856.2</ele>
        <time>2008-09-25T08:16:06Z</time>
      </trkpt>
      <trkpt lat="33.976158" lon="-2.815151">
        <ele>856.2</ele>
        <time>2008-09-25T08:16:10Z</time>
      </trkpt>
      <trkpt lat="33.976005" lon="-2.815702">
        <ele>861.5</ele>
        <time>2008-09-25T08:16:14Z</time>
      </trkpt>
      <trkpt lat="33.975808" lon="-2.816199">
        <ele>866.3</ele>
        <time>2008-09-25T08:16:17Z</time>
      </trkpt>
      <trkpt lat="33.975526" lon="-2.816769">
        <ele>862.9</ele>
        <time>2008-09-25T08:16:21Z</time>
      </trkpt>
      <trkpt lat="33.975314" lon="-2.817369">
        <ele>867.2</ele>
        <time>2008-09-25T08:16:26Z</time>
      </trkpt>
      <trkpt lat="33.975118" lon="-2.817896">
        <ele>867.7</ele>
        <time>2008-09-25T08:16:31Z</time>
      </trkpt>
      <trkpt lat="33.974810" lon="-2.818312">
        <ele>868.2</ele>
        <time>2008-09-25T08:16:39Z</time>
      </trkpt>
      <trkpt lat="33.974529" lon="-2.818780">
        <ele>874.5</ele>
        <time>2008-09-25T08:16:47Z</time>
      </trkpt>
      <trkpt lat="33.974371" lon="-2.819324">
        <ele>874.5</ele>
        <time>2008-09-25T08:16:54Z</time>
      </trkpt>
      <trkpt lat="33.974348" lon="-2.819909">
        <ele>876.9</ele>
        <time>2008-09-25T08:17:01Z</time>
      </trkpt>
      <trkpt lat="33.974245" lon="-2.820443">
        <ele>878.3</ele>
        <time>2008-09-25T08:17:08Z</time>
      </trkpt>
      <trkpt lat="33.974377" lon="-2.821000">
        <ele>879.7</ele>
        <time>2008-09-25T08:17:15Z</time>
      </trkpt>
      <trkpt lat="33.974503" lon="-2.821546">
        <ele>882.6</ele>
        <time>2008-09-25T08:17:22Z</time>
      </trkpt>
      <trkpt lat="33.974477" lon="-2.822098">
        <ele>884.6</ele>
        <time>2008-09-25T08:17:29Z</time>
      </trkpt>
      <trkpt lat="33.974455" lon="-2.822666">
        <ele>886.5</ele>
        <time>2008-09-25T08:17:36Z</time>
      </trkpt>
      <trkpt lat="33.974407" lon="-2.823293">
        <ele>889.8</ele>
        <time>2008-09-25T08:17:43Z</time>
      </trkpt>
      <trkpt lat="33.974373" lon="-2.823904">
        <ele>893.7</ele>
        <time>2008-09-25T08:17:49Z</time>
      </trkpt>
      <trkpt lat="33.974406" lon="-2.824472">
        <ele>895.6</ele>
        <time>2008-09-25T08:17:54Z</time>
      </trkpt>
      <trkpt lat="33.974504" lon="-2.825047">
        <ele>898.0</ele>
        <time>2008-09-25T08:17:59Z</time>
      </trkpt>
      <trkpt lat="33.974664" lon="-2.825652">
        <ele>899.9</ele>
        <time>2008-09-25T08:18:05Z</time>
      </trkpt>
      <trkpt lat="33.974516" lon="-2.826165">
        <ele>903.3</ele>
        <time>2008-09-25T08:18:11Z</time>
      </trkpt>
      <trkpt lat="33.974411" lon="-2.826699">
        <ele>904.7</ele>
        <time>2008-09-25T08:18:17Z</time>
      </trkpt>
      <trkpt lat="33.974261" lon="-2.827271">
        <ele>907.6</ele>
        <time>2008-09-25T08:18:23Z</time>
      </trkpt>
      <trkpt lat="33.974007" lon="-2.827800">
        <ele>906.7</ele>
        <time>2008-09-25T08:18:29Z</time>
      </trkpt>
      <trkpt lat="33.973776" lon="-2.828412">
        <ele>908.6</ele>
        <time>2008-09-25T08:18:35Z</time>
      </trkpt>
      <trkpt lat="33.973606" lon="-2.828943">
        <ele>908.1</ele>
        <time>2008-09-25T08:18:40Z</time>
      </trkpt>
      <trkpt lat="33.973495" lon="-2.829488">
        <ele>909.1</ele>
        <time>2008-09-25T08:18:46Z</time>
      </trkpt>
      <trkpt lat="33.973525" lon="-2.830127">
        <ele>911.0</ele>
        <time>2008-09-25T08:18:52Z</time>
      </trkpt>
      <trkpt lat="33.973654" lon="-2.830764">
        <ele>914.4</ele>
        <time>2008-09-25T08:18:58Z</time>
      </trkpt>
      <trkpt lat="33.973701" lon="-2.831393">
        <ele>918.2</ele>
        <time>2008-09-25T08:19:03Z</time>
      </trkpt>
      <trkpt lat="33.973660" lon="-2.832034">
        <ele>920.1</ele>
        <time>2008-09-25T08:19:09Z</time>
      </trkpt>
      <trkpt lat="33.973622" lon="-2.832655">
        <ele>922.0</ele>
        <time>2008-09-25T08:19:15Z</time>
      </trkpt>
      <trkpt lat="33.973847" lon="-2.833125">
        <ele>920.1</ele>
        <time>2008-09-25T08:19:22Z</time>
      </trkpt>
      <trkpt lat="33.973412" lon="-2.833423">
        <ele>925.4</ele>
        <time>2008-09-25T08:19:31Z</time>
      </trkpt>
      <trkpt lat="33.973282" lon="-2.833999">
        <ele>929.3</ele>
        <time>2008-09-25T08:19:39Z</time>
      </trkpt>
      <trkpt lat="33.973138" lon="-2.834620">
        <ele>933.6</ele>
        <time>2008-09-25T08:19:46Z</time>
      </trkpt>
      <trkpt lat="33.972980" lon="-2.835191">
        <ele>938.4</ele>
        <time>2008-09-25T08:19:52Z</time>
      </trkpt>
      <trkpt lat="33.973078" lon="-2.835764">
        <ele>941.7</ele>
        <time>2008-09-25T08:19:57Z</time>
      </trkpt>
      <trkpt lat="33.973248" lon="-2.836340">
        <ele>944.2</ele>
        <time>2008-09-25T08:20:02Z</time>
      </trkpt>
      <trkpt lat="33.973374" lon="-2.836888">
        <ele>945.6</ele>
        <time>2008-09-25T08:20:08Z</time>
      </trkpt>
      <trkpt lat="33.973801" lon="-2.837259">
        <ele>950.4</ele>
        <time>2008-09-25T08:20:14Z</time>
      </trkpt>
      <trkpt lat="33.974215" lon="-2.837493">
        <ele>949.9</ele>
        <time>2008-09-25T08:20:20Z</time>
      </trkpt>
      <trkpt lat="33.974688" lon="-2.837599">
        <ele>952.3</ele>
        <time>2008-09-25T08:20:29Z</time>
      </trkpt>
      <trkpt lat="33.975148" lon="-2.837299">
        <ele>956.6</ele>
        <time>2008-09-25T08:20:37Z</time>
      </trkpt>
      <trkpt lat="33.975600" lon="-2.836980">
        <ele>961.0</ele>
        <time>2008-09-25T08:20:44Z</time>
      </trkpt>
      <trkpt lat="33.976043" lon="-2.836807">
        <ele>966.3</ele>
        <time>2008-09-25T08:20:50Z</time>
      </trkpt>
      <trkpt lat="33.976551" lon="-2.836746">
        <ele>971.5</ele>
        <time>2008-09-25T08:20:56Z</time>
      </trkpt>
      <trkpt lat="33.977012" lon="-2.836774">
        <ele>975.9</ele>
        <time>2008-09-25T08:21:01Z</time>
      </trkpt>
      <trkpt lat="33.977486" lon="-2.836819">
        <ele>980.2</ele>
        <time>2008-09-25T08:21:06Z</time>
      </trkpt>
      <trkpt lat="33.977998" lon="-2.836850">
        <ele>984.0</ele>
        <time>2008-09-25T08:21:11Z</time>
      </trkpt>
      <trkpt lat="33.978505" lon="-2.836934">
        <ele>987.4</ele>
        <time>2008-09-25T08:21:16Z</time>
      </trkpt>
      <trkpt lat="33.979026" lon="-2.836942">
        <ele>991.7</ele>
        <time>2008-09-25T08:21:21Z</time>
      </trkpt>
      <trkpt lat="33.979581" lon="-2.836887">
        <ele>996.5</ele>
        <time>2008-09-25T08:21:26Z</time>
      </trkpt>
      <trkpt lat="33.980137" lon="-2.836888">
        <ele>1000.4</ele>
        <time>2008-09-25T08:21:31Z</time>
      </trkpt>
      <trkpt lat="33.980695" lon="-2.836970">
        <ele>1004.7</ele>
        <time>2008-09-25T08:21:36Z</time>
      </trkpt>
      <trkpt lat="33.981237" lon="-2.837036">
        <ele>1007.6</ele>
        <time>2008-09-25T08:21:41Z</time>
      </trkpt>
      <trkpt lat="33.981707" lon="-2.837021">
        <ele>1010.5</ele>
        <time>2008-09-25T08:21:46Z</time>
      </trkpt>
      <trkpt lat="33.982180" lon="-2.836886">
        <ele>1013.4</ele>
        <time>2008-09-25T08:21:51Z</time>
      </trkpt>
      <trkpt lat="33.982633" lon="-2.836976">
        <ele>1016.7</ele>
        <time>2008-09-25T08:21:56Z</time>
      </trkpt>
      <trkpt lat="33.983001" lon="-2.837308">
        <ele>1020.6</ele>
        <time>2008-09-25T08:22:01Z</time>
      </trkpt>
      <trkpt lat="33.983355" lon="-2.837635">
        <ele>1023.0</ele>
        <time>2008-09-25T08:22:07Z</time>
      </trkpt>
      <trkpt lat="33.983827" lon="-2.837720">
        <ele>1021.1</ele>
        <time>2008-09-25T08:22:16Z</time>
      </trkpt>
      <trkpt lat="33.984086" lon="-2.838123">
        <ele>1022.5</ele>
        <time>2008-09-25T08:22:27Z</time>
      </trkpt>
      <trkpt lat="33.984138" lon="-2.838703">
        <ele>1025.4</ele>
        <time>2008-09-25T08:22:33Z</time>
      </trkpt>
      <trkpt lat="33.984206" lon="-2.839263">
        <ele>1024.9</ele>
        <time>2008-09-25T08:22:41Z</time>
      </trkpt>
      <trkpt lat="33.984156" lon="-2.839834">
        <ele>1027.8</ele>
        <time>2008-09-25T08:22:50Z</time>
      </trkpt>
      <trkpt lat="33.984053" lon="-2.840384">
        <ele>1029.7</ele>
        <time>2008-09-25T08:22:58Z</time>
      </trkpt>
      <trkpt lat="33.983900" lon="-2.840952">
        <ele>1030.2</ele>
        <time>2008-09-25T08:23:26Z</time>
      </trkpt>
      <trkpt lat="33.983987" lon="-2.841515">
        <ele>1033.1</ele>
        <time>2008-09-25T08:23:34Z</time>
      </trkpt>
      <trkpt lat="33.984199" lon="-2.842032">
        <ele>1034.5</ele>
        <time>2008-09-25T08:23:40Z</time>
      </trkpt>
      <trkpt lat="33.984207" lon="-2.842554">
        <ele>1036.4</ele>
        <time>2008-09-25T08:23:48Z</time>
      </trkpt>
      <trkpt lat="33.983975" lon="-2.843110">
        <ele>1039.3</ele>
        <time>2008-09-25T08:23:54Z</time>
      </trkpt>
      <trkpt lat="33.983924" lon="-2.843654">
        <ele>1041.2</ele>
        <time>2008-09-25T08:23:59Z</time>
      </trkpt>
      <trkpt lat="33.984040" lon="-2.844231">
        <ele>1042.7</ele>
        <time>2008-09-25T08:24:04Z</time>
      </trkpt>
      <trkpt lat="33.984343" lon="-2.844732">
        <ele>1043.2</ele>
        <time>2008-09-25T08:24:10Z</time>
      </trkpt>
      <trkpt lat="33.984523" lon="-2.845299">
        <ele>1046.1</ele>
        <time>2008-09-25T08:24:16Z</time>
      </trkpt>
      <trkpt lat="33.984720" lon="-2.845877">
        <ele>1049.4</ele>
        <time>2008-09-25T08:24:21Z</time>
      </trkpt>
      <trkpt lat="33.984933" lon="-2.846370">
        <ele>1050.9</ele>
        <time>2008-09-25T08:24:25Z</time>
      </trkpt>
      <trkpt lat="33.985164" lon="-2.846859">
        <ele>1051.3</ele>
        <time>2008-09-25T08:24:30Z</time>
      </trkpt>
      <trkpt lat="33.985362" lon="-2.847356">
        <ele>1053.3</ele>
        <time>2008-09-25T08:24:35Z</time>
      </trkpt>
      <trkpt lat="33.985454" lon="-2.847986">
        <ele>1052.8</ele>
        <time>2008-09-25T08:24:40Z</time>
      </trkpt>
      <trkpt lat="33.985387" lon="-2.848546">
        <ele>1052.3</ele>
        <time>2008-09-25T08:24:45Z</time>
      </trkpt>
      <trkpt lat="33.985163" lon="-2.849100">
        <ele>1051.3</ele>
        <time>2008-09-25T08:24:50Z</time>
      </trkpt>
      <trkpt lat="33.985059" lon="-2.849682">
        <ele>1052.3</ele>
        <time>2008-09-25T08:24:55Z</time>
      </trkpt>
      <trkpt lat="33.985083" lon="-2.850346">
        <ele>1053.3</ele>
        <time>2008-09-25T08:25:00Z</time>
      </trkpt>
      <trkpt lat="33.985300" lon="-2.850845">
        <ele>1052.8</ele>
        <time>2008-09-25T08:25:05Z</time>
      </trkpt>
      <trkpt lat="33.985801" lon="-2.851030">
        <ele>1053.7</ele>
        <time>2008-09-25T08:25:10Z</time>
      </trkpt>
      <trkpt lat="33.986370" lon="-2.851073">
        <ele>1051.8</ele>
        <time>2008-09-25T08:25:15Z</time>
      </trkpt>
      <trkpt lat="33.986817" lon="-2.851251">
        <ele>1049.9</ele>
        <time>2008-09-25T08:25:20Z</time>
      </trkpt>
      <trkpt lat="33.986973" lon="-2.851793">
        <ele>1051.8</ele>
        <time>2008-09-25T08:25:26Z</time>
      </trkpt>
      <trkpt lat="33.986728" lon="-2.852375">
        <ele>1051.8</ele>
        <time>2008-09-25T08:25:32Z</time>
      </trkpt>
      <trkpt lat="33.986339" lon="-2.852763">
        <ele>1051.8</ele>
        <time>2008-09-25T08:25:37Z</time>
      </trkpt>
      <trkpt lat="33.986146" lon="-2.853344">
        <ele>1053.3</ele>
        <time>2008-09-25T08:25:42Z</time>
      </trkpt>
      <trkpt lat="33.986191" lon="-2.853959">
        <ele>1054.2</ele>
        <time>2008-09-25T08:25:47Z</time>
      </trkpt>
      <trkpt lat="33.986260" lon="-2.854527">
        <ele>1056.6</ele>
        <time>2008-09-25T08:25:52Z</time>
      </trkpt>
      <trkpt lat="33.986203" lon="-2.855173">
        <ele>1058.1</ele>
        <time>2008-09-25T08:25:57Z</time>
      </trkpt>
      <trkpt lat="33.986279" lon="-2.855732">
        <ele>1057.6</ele>
        <time>2008-09-25T08:26:02Z</time>
      </trkpt>
      <trkpt lat="33.986352" lon="-2.856300">
        <ele>1057.6</ele>
        <time>2008-09-25T08:26:10Z</time>
      </trkpt>
      <trkpt lat="33.986524" lon="-2.856854">
        <ele>1060.5</ele>
        <time>2008-09-25T08:26:17Z</time>
      </trkpt>
      <trkpt lat="33.986844" lon="-2.857275">
        <ele>1060.5</ele>
        <time>2008-09-25T08:26:23Z</time>
      </trkpt>
      <trkpt lat="33.987285" lon="-2.857455">
        <ele>1062.4</ele>
        <time>2008-09-25T08:26:30Z</time>
      </trkpt>
      <trkpt lat="33.987455" lon="-2.858070">
        <ele>1067.2</ele>
        <time>2008-09-25T08:26:36Z</time>
      </trkpt>
      <trkpt lat="33.987589" lon="-2.858653">
        <ele>1069.6</ele>
        <time>2008-09-25T08:26:41Z</time>
      </trkpt>
      <trkpt lat="33.987653" lon="-2.859303">
        <ele>1072.5</ele>
        <time>2008-09-25T08:26:46Z</time>
      </trkpt>
      <trkpt lat="33.987722" lon="-2.859890">
        <ele>1070.1</ele>
        <time>2008-09-25T08:26:51Z</time>
      </trkpt>
      <trkpt lat="33.987730" lon="-2.860450">
        <ele>1066.7</ele>
        <time>2008-09-25T08:26:56Z</time>
      </trkpt>
      <trkpt lat="33.987904" lon="-2.860939">
        <ele>1063.4</ele>
        <time>2008-09-25T08:27:02Z</time>
      </trkpt>
      <trkpt lat="33.988047" lon="-2.861450">
        <ele>1060.5</ele>
        <time>2008-09-25T08:27:08Z</time>
      </trkpt>
      <trkpt lat="33.988033" lon="-2.862018">
        <ele>1056.6</ele>
        <time>2008-09-25T08:27:16Z</time>
      </trkpt>
      <trkpt lat="33.987783" lon="-2.862474">
        <ele>1056.6</ele>
        <time>2008-09-25T08:27:23Z</time>
      </trkpt>
      <trkpt lat="33.987597" lon="-2.863011">
        <ele>1052.3</ele>
        <time>2008-09-25T08:27:30Z</time>
      </trkpt>
      <trkpt lat="33.987918" lon="-2.863406">
        <ele>1049.4</ele>
        <time>2008-09-25T08:27:37Z</time>
      </trkpt>
      <trkpt lat="33.988365" lon="-2.863717">
        <ele>1048.0</ele>
        <time>2008-09-25T08:27:42Z</time>
      </trkpt>
      <trkpt lat="33.988805" lon="-2.863995">
        <ele>1043.6</ele>
        <time>2008-09-25T08:27:47Z</time>
      </trkpt>
      <trkpt lat="33.989220" lon="-2.864302">
        <ele>1040.3</ele>
        <time>2008-09-25T08:27:52Z</time>
      </trkpt>
      <trkpt lat="33.989148" lon="-2.864677">
        <ele>1041.2</ele>
        <time>2008-09-25T08:28:01Z</time>
      </trkpt>
      <trkpt lat="33.988673" lon="-2.864880">
        <ele>1045.1</ele>
        <time>2008-09-25T08:28:07Z</time>
      </trkpt>
      <trkpt lat="33.988348" lon="-2.865341">
        <ele>1048.5</ele>
        <time>2008-09-25T08:28:12Z</time>
      </trkpt>
      <trkpt lat="33.987963" lon="-2.865789">
        <ele>1052.3</ele>
        <time>2008-09-25T08:28:17Z</time>
      </trkpt>
      <trkpt lat="33.987723" lon="-2.866255">
        <ele>1053.3</ele>
        <time>2008-09-25T08:28:23Z</time>
      </trkpt>
      <trkpt lat="33.987843" lon="-2.866841">
        <ele>1056.6</ele>
        <time>2008-09-25T08:28:29Z</time>
      </trkpt>
      <trkpt lat="33.987969" lon="-2.867442">
        <ele>1059.5</ele>
        <time>2008-09-25T08:28:35Z</time>
      </trkpt>
      <trkpt lat="33.987701" lon="-2.867962">
        <ele>1064.3</ele>
        <time>2008-09-25T08:28:43Z</time>
      </trkpt>
      <trkpt lat="33.987309" lon="-2.868233">
        <ele>1068.6</ele>
        <time>2008-09-25T08:28:48Z</time>
      </trkpt>
      <trkpt lat="33.986875" lon="-2.868423">
        <ele>1069.1</ele>
        <time>2008-09-25T08:28:55Z</time>
      </trkpt>
      <trkpt lat="33.986697" lon="-2.869001">
        <ele>1070.6</ele>
        <time>2008-09-25T08:29:04Z</time>
      </trkpt>
      <trkpt lat="33.986640" lon="-2.869618">
        <ele>1067.7</ele>
        <time>2008-09-25T08:29:10Z</time>
      </trkpt>
      <trkpt lat="33.986634" lon="-2.870200">
        <ele>1066.2</ele>
        <time>2008-09-25T08:29:15Z</time>
      </trkpt>
      <trkpt lat="33.986662" lon="-2.870806">
        <ele>1061.9</ele>
        <time>2008-09-25T08:29:21Z</time>
      </trkpt>
      <trkpt lat="33.986783" lon="-2.871398">
        <ele>1059.0</ele>
        <time>2008-09-25T08:29:29Z</time>
      </trkpt>
      <trkpt lat="33.986650" lon="-2.871980">
        <ele>1060.0</ele>
        <time>2008-09-25T08:29:35Z</time>
      </trkpt>
      <trkpt lat="33.986419" lon="-2.872471">
        <ele>1058.1</ele>
        <time>2008-09-25T08:29:40Z</time>
      </trkpt>
      <trkpt lat="33.986289" lon="-2.873057">
        <ele>1055.7</ele>
        <time>2008-09-25T08:29:46Z</time>
      </trkpt>
      <trkpt lat="33.986505" lon="-2.873606">
        <ele>1053.3</ele>
        <time>2008-09-25T08:29:52Z</time>
      </trkpt>
      <trkpt lat="33.986779" lon="-2.874104">
        <ele>1050.9</ele>
        <time>2008-09-25T08:29:58Z</time>
      </trkpt>
      <trkpt lat="33.986677" lon="-2.874616">
        <ele>1049.4</ele>
        <time>2008-09-25T08:30:04Z</time>
      </trkpt>
      <trkpt lat="33.986323" lon="-2.875054">
        <ele>1050.4</ele>
        <time>2008-09-25T08:30:12Z</time>
      </trkpt>
      <trkpt lat="33.985867" lon="-2.875346">
        <ele>1053.3</ele>
        <time>2008-09-25T08:30:19Z</time>
      </trkpt>
      <trkpt lat="33.985478" lon="-2.875727">
        <ele>1056.1</ele>
        <time>2008-09-25T08:30:25Z</time>
      </trkpt>
      <trkpt lat="33.985206" lon="-2.876249">
        <ele>1058.1</ele>
        <time>2008-09-25T08:30:31Z</time>
      </trkpt>
      <trkpt lat="33.985012" lon="-2.876789">
        <ele>1060.0</ele>
        <time>2008-09-25T08:30:37Z</time>
      </trkpt>
      <trkpt lat="33.984822" lon="-2.877336">
        <ele>1060.0</ele>
        <time>2008-09-25T08:30:44Z</time>
      </trkpt>
      <trkpt lat="33.984793" lon="-2.877839">
        <ele>1062.4</ele>
        <time>2008-09-25T08:30:51Z</time>
      </trkpt>
      <trkpt lat="33.984926" lon="-2.878365">
        <ele>1062.4</ele>
        <time>2008-09-25T08:30:58Z</time>
      </trkpt>
      <trkpt lat="33.985136" lon="-2.878920">
        <ele>1065.3</ele>
        <time>2008-09-25T08:31:03Z</time>
      </trkpt>
      <trkpt lat="33.985158" lon="-2.879502">
        <ele>1065.3</ele>
        <time>2008-09-25T08:31:08Z</time>
      </trkpt>
      <trkpt lat="33.985104" lon="-2.880037">
        <ele>1065.8</ele>
        <time>2008-09-25T08:31:13Z</time>
      </trkpt>
      <trkpt lat="33.984677" lon="-2.879994">
        <ele>1066.2</ele>
        <time>2008-09-25T08:31:20Z</time>
      </trkpt>
      <trkpt lat="33.984181" lon="-2.879941">
        <ele>1069.6</ele>
        <time>2008-09-25T08:31:27Z</time>
      </trkpt>
      <trkpt lat="33.983686" lon="-2.879960">
        <ele>1072.5</ele>
        <time>2008-09-25T08:31:33Z</time>
      </trkpt>
      <trkpt lat="33.983347" lon="-2.880351">
        <ele>1073.9</ele>
        <time>2008-09-25T08:31:39Z</time>
      </trkpt>
      <trkpt lat="33.983227" lon="-2.880893">
        <ele>1072.0</ele>
        <time>2008-09-25T08:31:47Z</time>
      </trkpt>
      <trkpt lat="33.982862" lon="-2.881326">
        <ele>1077.3</ele>
        <time>2008-09-25T08:31:55Z</time>
      </trkpt>
      <trkpt lat="33.982487" lon="-2.881742">
        <ele>1075.4</ele>
        <time>2008-09-25T08:32:00Z</time>
      </trkpt>
      <trkpt lat="33.982230" lon="-2.882258">
        <ele>1073.0</ele>
        <time>2008-09-25T08:32:06Z</time>
      </trkpt>
      <trkpt lat="33.982022" lon="-2.882771">
        <ele>1070.1</ele>
        <time>2008-09-25T08:32:12Z</time>
      </trkpt>
      <trkpt lat="33.981924" lon="-2.883308">
        <ele>1068.2</ele>
        <time>2008-09-25T08:32:17Z</time>
      </trkpt>
      <trkpt lat="33.981811" lon="-2.883889">
        <ele>1065.3</ele>
        <time>2008-09-25T08:32:23Z</time>
      </trkpt>
      <trkpt lat="33.981413" lon="-2.884243">
        <ele>1062.4</ele>
        <time>2008-09-25T08:32:29Z</time>
      </trkpt>
      <trkpt lat="33.981437" lon="-2.884806">
        <ele>1060.0</ele>
        <time>2008-09-25T08:32:35Z</time>
      </trkpt>
      <trkpt lat="33.981820" lon="-2.885188">
        <ele>1056.1</ele>
        <time>2008-09-25T08:32:42Z</time>
      </trkpt>
      <trkpt lat="33.982257" lon="-2.885521">
        <ele>1053.3</ele>
        <time>2008-09-25T08:32:52Z</time>
      </trkpt>
      <trkpt lat="33.982635" lon="-2.885865">
        <ele>1051.8</ele>
        <time>2008-09-25T08:33:00Z</time>
      </trkpt>
      <trkpt lat="33.982585" lon="-2.886406">
        <ele>1052.3</ele>
        <time>2008-09-25T08:33:11Z</time>
      </trkpt>
      <trkpt lat="33.982510" lon="-2.887017">
        <ele>1053.7</ele>
        <time>2008-09-25T08:33:18Z</time>
      </trkpt>
      <trkpt lat="33.982587" lon="-2.887633">
        <ele>1056.6</ele>
        <time>2008-09-25T08:33:25Z</time>
      </trkpt>
      <trkpt lat="33.982836" lon="-2.888105">
        <ele>1057.6</ele>
        <time>2008-09-25T08:33:31Z</time>
      </trkpt>
      <trkpt lat="33.983025" lon="-2.888619">
        <ele>1059.5</ele>
        <time>2008-09-25T08:33:37Z</time>
      </trkpt>
      <trkpt lat="33.982815" lon="-2.889030">
        <ele>1061.9</ele>
        <time>2008-09-25T08:33:44Z</time>
      </trkpt>
      <trkpt lat="33.982791" lon="-2.889603">
        <ele>1062.9</ele>
        <time>2008-09-25T08:33:51Z</time>
      </trkpt>
      <trkpt lat="33.982829" lon="-2.890187">
        <ele>1066.7</ele>
        <time>2008-09-25T08:33:57Z</time>
      </trkpt>
      <trkpt lat="33.982805" lon="-2.890767">
        <ele>1069.6</ele>
        <time>2008-09-25T08:34:03Z</time>
      </trkpt>
      <trkpt lat="33.982650" lon="-2.891361">
        <ele>1074.9</ele>
        <time>2008-09-25T08:34:10Z</time>
      </trkpt>
      <trkpt lat="33.982668" lon="-2.891932">
        <ele>1078.3</ele>
        <time>2008-09-25T08:34:16Z</time>
      </trkpt>
      <trkpt lat="33.982559" lon="-2.892562">
        <ele>1080.2</ele>
        <time>2008-09-25T08:34:22Z</time>
      </trkpt>
      <trkpt lat="33.982593" lon="-2.893188">
        <ele>1081.6</ele>
        <time>2008-09-25T08:34:28Z</time>
      </trkpt>
      <trkpt lat="33.982753" lon="-2.893665">
        <ele>1083.1</ele>
        <time>2008-09-25T08:34:35Z</time>
      </trkpt>
      <trkpt lat="33.982642" lon="-2.894162">
        <ele>1086.9</ele>
        <time>2008-09-25T08:34:43Z</time>
      </trkpt>
      <trkpt lat="33.982170" lon="-2.894143">
        <ele>1091.2</ele>
        <time>2008-09-25T08:34:50Z</time>
      </trkpt>
      <trkpt lat="33.981810" lon="-2.893840">
        <ele>1094.1</ele>
        <time>2008-09-25T08:34:57Z</time>
      </trkpt>
      <trkpt lat="33.981355" lon="-2.893932">
        <ele>1095.6</ele>
        <time>2008-09-25T08:35:04Z</time>
      </trkpt>
      <trkpt lat="33.980999" lon="-2.894356">
        <ele>1097.0</ele>
        <time>2008-09-25T08:35:12Z</time>
      </trkpt>
      <trkpt lat="33.980548" lon="-2.894624">
        <ele>1100.4</ele>
        <time>2008-09-25T08:35:20Z</time>
      </trkpt>
      <trkpt lat="33.980560" lon="-2.895223">
        <ele>1103.7</ele>
        <time>2008-09-25T08:35:27Z</time>
      </trkpt>
      <trkpt lat="33.980931" lon="-2.895693">
        <ele>1106.1</ele>
        <time>2008-09-25T08:35:32Z</time>
      </trkpt>
      <trkpt lat="33.981337" lon="-2.896088">
        <ele>1106.6</ele>
        <time>2008-09-25T08:35:37Z</time>
      </trkpt>
      <trkpt lat="33.981336" lon="-2.896606">
        <ele>1107.6</ele>
        <time>2008-09-25T08:35:44Z</time>
      </trkpt>
      <trkpt lat="33.981231" lon="-2.897151">
        <ele>1107.6</ele>
        <time>2008-09-25T08:35:50Z</time>
      </trkpt>
      <trkpt lat="33.981204" lon="-2.897740">
        <ele>1108.1</ele>
        <time>2008-09-25T08:35:56Z</time>
      </trkpt>
      <trkpt lat="33.981386" lon="-2.898337">
        <ele>1109.0</ele>
        <time>2008-09-25T08:36:02Z</time>
      </trkpt>
      <trkpt lat="33.981554" lon="-2.898920">
        <ele>1107.1</ele>
        <time>2008-09-25T08:36:08Z</time>
      </trkpt>
      <trkpt lat="33.981614" lon="-2.899558">
        <ele>1107.6</ele>
        <time>2008-09-25T08:36:15Z</time>
      </trkpt>
      <trkpt lat="33.981704" lon="-2.900166">
        <ele>1108.1</ele>
        <time>2008-09-25T08:36:22Z</time>
      </trkpt>
      <trkpt lat="33.981675" lon="-2.900717">
        <ele>1108.1</ele>
        <time>2008-09-25T08:36:28Z</time>
      </trkpt>
      <trkpt lat="33.981808" lon="-2.901211">
        <ele>1107.6</ele>
        <time>2008-09-25T08:36:35Z</time>
      </trkpt>
      <trkpt lat="33.982065" lon="-2.901730">
        <ele>1108.5</ele>
        <time>2008-09-25T08:36:42Z</time>
      </trkpt>
      <trkpt lat="33.982244" lon="-2.902208">
        <ele>1106.6</ele>
        <time>2008-09-25T08:36:49Z</time>
      </trkpt>
      <trkpt lat="33.982437" lon="-2.902682">
        <ele>1106.6</ele>
        <time>2008-09-25T08:41:41Z</time>
      </trkpt>
      <trkpt lat="33.982805" lon="-2.903031">
        <ele>1107.1</ele>
        <time>2008-09-25T08:41:51Z</time>
      </trkpt>
      <trkpt lat="33.983168" lon="-2.903456">
        <ele>1107.6</ele>
        <time>2008-09-25T08:42:00Z</time>
      </trkpt>
      <trkpt lat="33.983428" lon="-2.903890">
        <ele>1107.1</ele>
        <time>2008-09-25T08:42:10Z</time>
      </trkpt>
      <trkpt lat="33.983562" lon="-2.904417">
        <ele>1107.1</ele>
        <time>2008-09-25T08:42:18Z</time>
      </trkpt>
      <trkpt lat="33.983440" lon="-2.904949">
        <ele>1107.6</ele>
        <time>2008-09-25T08:42:28Z</time>
      </trkpt>
      <trkpt lat="33.982971" lon="-2.905163">
        <ele>1108.5</ele>
        <time>2008-09-25T08:42:35Z</time>
      </trkpt>
      <trkpt lat="33.982465" lon="-2.905223">
        <ele>1108.1</ele>
        <time>2008-09-25T08:42:42Z</time>
      </trkpt>
      <trkpt lat="33.981957" lon="-2.905163">
        <ele>1108.1</ele>
        <time>2008-09-25T08:42:50Z</time>
      </trkpt>
      <trkpt lat="33.981476" lon="-2.905069">
        <ele>1109.0</ele>
        <time>2008-09-25T08:42:57Z</time>
      </trkpt>
      <trkpt lat="33.980995" lon="-2.905064">
        <ele>1109.5</ele>
        <time>2008-09-25T08:43:03Z</time>
      </trkpt>
      <trkpt lat="33.980472" lon="-2.905125">
        <ele>1110.5</ele>
        <time>2008-09-25T08:43:09Z</time>
      </trkpt>
      <trkpt lat="33.980081" lon="-2.905495">
        <ele>1108.5</ele>
        <time>2008-09-25T08:43:16Z</time>
      </trkpt>
      <trkpt lat="33.979971" lon="-2.906081">
        <ele>1110.5</ele>
        <time>2008-09-25T08:43:22Z</time>
      </trkpt>
      <trkpt lat="33.980096" lon="-2.906665">
        <ele>1110.9</ele>
        <time>2008-09-25T08:43:28Z</time>
      </trkpt>
      <trkpt lat="33.980395" lon="-2.907198">
        <ele>1112.9</ele>
        <time>2008-09-25T08:43:34Z</time>
      </trkpt>
      <trkpt lat="33.980667" lon="-2.907650">
        <ele>1113.8</ele>
        <time>2008-09-25T08:43:39Z</time>
      </trkpt>
      <trkpt lat="33.981041" lon="-2.907993">
        <ele>1115.3</ele>
        <time>2008-09-25T08:43:44Z</time>
      </trkpt>
      <trkpt lat="33.981470" lon="-2.908366">
        <ele>1116.2</ele>
        <time>2008-09-25T08:43:49Z</time>
      </trkpt>
      <trkpt lat="33.981857" lon="-2.908794">
        <ele>1117.7</ele>
        <time>2008-09-25T08:43:54Z</time>
      </trkpt>
      <trkpt lat="33.982242" lon="-2.909256">
        <ele>1120.1</ele>
        <time>2008-09-25T08:43:59Z</time>
      </trkpt>
      <trkpt lat="33.982596" lon="-2.909752">
        <ele>1120.1</ele>
        <time>2008-09-25T08:44:04Z</time>
      </trkpt>
      <trkpt lat="33.982825" lon="-2.910297">
        <ele>1122.5</ele>
        <time>2008-09-25T08:44:09Z</time>
      </trkpt>
      <trkpt lat="33.983094" lon="-2.910752">
        <ele>1124.9</ele>
        <time>2008-09-25T08:44:14Z</time>
      </trkpt>
      <trkpt lat="33.983454" lon="-2.911141">
        <ele>1127.8</ele>
        <time>2008-09-25T08:44:19Z</time>
      </trkpt>
      <trkpt lat="33.983822" lon="-2.911522">
        <ele>1129.7</ele>
        <time>2008-09-25T08:44:24Z</time>
      </trkpt>
      <trkpt lat="33.984166" lon="-2.911943">
        <ele>1131.1</ele>
        <time>2008-09-25T08:44:29Z</time>
      </trkpt>
      <trkpt lat="33.984565" lon="-2.912337">
        <ele>1130.6</ele>
        <time>2008-09-25T08:44:35Z</time>
      </trkpt>
      <trkpt lat="33.984805" lon="-2.912790">
        <ele>1132.6</ele>
        <time>2008-09-25T08:44:41Z</time>
      </trkpt>
      <trkpt lat="33.984823" lon="-2.913412">
        <ele>1134.5</ele>
        <time>2008-09-25T08:44:47Z</time>
      </trkpt>
      <trkpt lat="33.984797" lon="-2.913960">
        <ele>1136.4</ele>
        <time>2008-09-25T08:44:52Z</time>
      </trkpt>
      <trkpt lat="33.984722" lon="-2.914528">
        <ele>1137.9</ele>
        <time>2008-09-25T08:44:57Z</time>
      </trkpt>
      <trkpt lat="33.984760" lon="-2.915150">
        <ele>1140.7</ele>
        <time>2008-09-25T08:45:02Z</time>
      </trkpt>
      <trkpt lat="33.984818" lon="-2.915748">
        <ele>1141.2</ele>
        <time>2008-09-25T08:45:07Z</time>
      </trkpt>
      <trkpt lat="33.984967" lon="-2.916284">
        <ele>1143.1</ele>
        <time>2008-09-25T08:45:12Z</time>
      </trkpt>
      <trkpt lat="33.985093" lon="-2.916881">
        <ele>1145.5</ele>
        <time>2008-09-25T08:45:17Z</time>
      </trkpt>
      <trkpt lat="33.985274" lon="-2.917502">
        <ele>1148.4</ele>
        <time>2008-09-25T08:45:22Z</time>
      </trkpt>
      <trkpt lat="33.985136" lon="-2.918104">
        <ele>1150.4</ele>
        <time>2008-09-25T08:45:27Z</time>
      </trkpt>
      <trkpt lat="33.984906" lon="-2.918590">
        <ele>1148.0</ele>
        <time>2008-09-25T08:45:32Z</time>
      </trkpt>
      <trkpt lat="33.984608" lon="-2.919095">
        <ele>1148.0</ele>
        <time>2008-09-25T08:45:38Z</time>
      </trkpt>
      <trkpt lat="33.984257" lon="-2.919464">
        <ele>1144.6</ele>
        <time>2008-09-25T08:45:44Z</time>
      </trkpt>
      <trkpt lat="33.983925" lon="-2.919854">
        <ele>1145.1</ele>
        <time>2008-09-25T08:45:50Z</time>
      </trkpt>
      <trkpt lat="33.983577" lon="-2.920332">
        <ele>1142.7</ele>
        <time>2008-09-25T08:45:57Z</time>
      </trkpt>
      <trkpt lat="33.983258" lon="-2.920765">
        <ele>1139.8</ele>
        <time>2008-09-25T08:46:03Z</time>
      </trkpt>
      <trkpt lat="33.982913" lon="-2.921186">
        <ele>1138.3</ele>
        <time>2008-09-25T08:46:09Z</time>
      </trkpt>
      <trkpt lat="33.982597" lon="-2.921668">
        <ele>1133.5</ele>
        <time>2008-09-25T08:46:17Z</time>
      </trkpt>
      <trkpt lat="33.982346" lon="-2.922147">
        <ele>1130.6</ele>
        <time>2008-09-25T08:46:25Z</time>
      </trkpt>
      <trkpt lat="33.982113" lon="-2.922614">
        <ele>1126.3</ele>
        <time>2008-09-25T08:46:34Z</time>
      </trkpt>
      <trkpt lat="33.981851" lon="-2.923108">
        <ele>1124.4</ele>
        <time>2008-09-25T08:46:42Z</time>
      </trkpt>
      <trkpt lat="33.981631" lon="-2.923612">
        <ele>1123.9</ele>
        <time>2008-09-25T08:46:50Z</time>
      </trkpt>
      <trkpt lat="33.981431" lon="-2.924124">
        <ele>1123.4</ele>
        <time>2008-09-25T08:46:55Z</time>
      </trkpt>
      <trkpt lat="33.981259" lon="-2.924638">
        <ele>1123.0</ele>
        <time>2008-09-25T08:47:00Z</time>
      </trkpt>
      <trkpt lat="33.981030" lon="-2.925149">
        <ele>1122.5</ele>
        <time>2008-09-25T08:47:06Z</time>
      </trkpt>
      <trkpt lat="33.980736" lon="-2.925559">
        <ele>1124.4</ele>
        <time>2008-09-25T08:47:11Z</time>
      </trkpt>
      <trkpt lat="33.980399" lon="-2.925974">
        <ele>1125.4</ele>
        <time>2008-09-25T08:47:17Z</time>
      </trkpt>
      <trkpt lat="33.980049" lon="-2.926408">
        <ele>1124.4</ele>
        <time>2008-09-25T08:47:23Z</time>
      </trkpt>
      <trkpt lat="33.979818" lon="-2.926874">
        <ele>1124.4</ele>
        <time>2008-09-25T08:47:28Z</time>
      </trkpt>
      <trkpt lat="33.979659" lon="-2.927444">
        <ele>1123.9</ele>
        <time>2008-09-25T08:47:33Z</time>
      </trkpt>
      <trkpt lat="33.979415" lon="-2.928011">
        <ele>1124.4</ele>
        <time>2008-09-25T08:47:38Z</time>
      </trkpt>
      <trkpt lat="33.979160" lon="-2.928580">
        <ele>1121.5</ele>
        <time>2008-09-25T08:47:43Z</time>
      </trkpt>
      <trkpt lat="33.978943" lon="-2.929185">
        <ele>1120.1</ele>
        <time>2008-09-25T08:47:48Z</time>
      </trkpt>
      <trkpt lat="33.978720" lon="-2.929770">
        <ele>1118.2</ele>
        <time>2008-09-25T08:47:53Z</time>
      </trkpt>
      <trkpt lat="33.978542" lon="-2.930326">
        <ele>1115.3</ele>
        <time>2008-09-25T08:47:58Z</time>
      </trkpt>
      <trkpt lat="33.978245" lon="-2.930921">
        <ele>1116.2</ele>
        <time>2008-09-25T08:48:03Z</time>
      </trkpt>
      <trkpt lat="33.977906" lon="-2.931458">
        <ele>1118.6</ele>
        <time>2008-09-25T08:48:07Z</time>
      </trkpt>
      <trkpt lat="33.977538" lon="-2.931928">
        <ele>1116.7</ele>
        <time>2008-09-25T08:48:11Z</time>
      </trkpt>
      <trkpt lat="33.977196" lon="-2.932368">
        <ele>1115.7</ele>
        <time>2008-09-25T08:48:15Z</time>
      </trkpt>
      <trkpt lat="33.976870" lon="-2.932815">
        <ele>1115.3</ele>
        <time>2008-09-25T08:48:19Z</time>
      </trkpt>
      <trkpt lat="33.976512" lon="-2.933258">
        <ele>1116.2</ele>
        <time>2008-09-25T08:48:23Z</time>
      </trkpt>
      <trkpt lat="33.976204" lon="-2.933730">
        <ele>1117.7</ele>
        <time>2008-09-25T08:48:27Z</time>
      </trkpt>
      <trkpt lat="33.975929" lon="-2.934291">
        <ele>1119.6</ele>
        <time>2008-09-25T08:48:31Z</time>
      </trkpt>
      <trkpt lat="33.975685" lon="-2.934895">
        <ele>1119.1</ele>
        <time>2008-09-25T08:48:35Z</time>
      </trkpt>
      <trkpt lat="33.975397" lon="-2.935441">
        <ele>1118.6</ele>
        <time>2008-09-25T08:48:40Z</time>
      </trkpt>
      <trkpt lat="33.975031" lon="-2.935839">
        <ele>1120.1</ele>
        <time>2008-09-25T08:48:44Z</time>
      </trkpt>
      <trkpt lat="33.974684" lon="-2.936274">
        <ele>1117.7</ele>
        <time>2008-09-25T08:48:48Z</time>
      </trkpt>
      <trkpt lat="33.974351" lon="-2.936718">
        <ele>1112.9</ele>
        <time>2008-09-25T08:48:53Z</time>
      </trkpt>
      <trkpt lat="33.974038" lon="-2.937129">
        <ele>1113.3</ele>
        <time>2008-09-25T08:48:59Z</time>
      </trkpt>
      <trkpt lat="33.973833" lon="-2.937638">
        <ele>1113.3</ele>
        <time>2008-09-25T08:49:04Z</time>
      </trkpt>
      <trkpt lat="33.973606" lon="-2.938225">
        <ele>1112.9</ele>
        <time>2008-09-25T08:49:09Z</time>
      </trkpt>
      <trkpt lat="33.973377" lon="-2.938781">
        <ele>1114.3</ele>
        <time>2008-09-25T08:49:13Z</time>
      </trkpt>
      <trkpt lat="33.973205" lon="-2.939427">
        <ele>1115.3</ele>
        <time>2008-09-25T08:49:17Z</time>
      </trkpt>
      <trkpt lat="33.973060" lon="-2.939939">
        <ele>1115.7</ele>
        <time>2008-09-25T08:49:20Z</time>
      </trkpt>
      <trkpt lat="33.972859" lon="-2.940596">
        <ele>1115.3</ele>
        <time>2008-09-25T08:49:24Z</time>
      </trkpt>
      <trkpt lat="33.972631" lon="-2.941225">
        <ele>1117.7</ele>
        <time>2008-09-25T08:49:28Z</time>
      </trkpt>
      <trkpt lat="33.972411" lon="-2.941881">
        <ele>1119.6</ele>
        <time>2008-09-25T08:49:32Z</time>
      </trkpt>
      <trkpt lat="33.972272" lon="-2.942586">
        <ele>1121.5</ele>
        <time>2008-09-25T08:49:36Z</time>
      </trkpt>
      <trkpt lat="33.972198" lon="-2.943127">
        <ele>1122.0</ele>
        <time>2008-09-25T08:49:39Z</time>
      </trkpt>
      <trkpt lat="33.972064" lon="-2.943661">
        <ele>1122.0</ele>
        <time>2008-09-25T08:49:42Z</time>
      </trkpt>
      <trkpt lat="33.971886" lon="-2.944184">
        <ele>1122.0</ele>
        <time>2008-09-25T08:49:45Z</time>
      </trkpt>
      <trkpt lat="33.971731" lon="-2.944859">
        <ele>1119.6</ele>
        <time>2008-09-25T08:49:49Z</time>
      </trkpt>
      <trkpt lat="33.971676" lon="-2.945410">
        <ele>1120.1</ele>
        <time>2008-09-25T08:49:52Z</time>
      </trkpt>
      <trkpt lat="33.971646" lon="-2.945957">
        <ele>1119.1</ele>
        <time>2008-09-25T08:49:55Z</time>
      </trkpt>
      <trkpt lat="33.971558" lon="-2.946668">
        <ele>1118.2</ele>
        <time>2008-09-25T08:49:59Z</time>
      </trkpt>
      <trkpt lat="33.971437" lon="-2.947334">
        <ele>1116.2</ele>
        <time>2008-09-25T08:50:03Z</time>
      </trkpt>
      <trkpt lat="33.971386" lon="-2.947881">
        <ele>1112.9</ele>
        <time>2008-09-25T08:50:07Z</time>
      </trkpt>
      <trkpt lat="33.971324" lon="-2.948444">
        <ele>1115.3</ele>
        <time>2008-09-25T08:50:11Z</time>
      </trkpt>
      <trkpt lat="33.971302" lon="-2.949058">
        <ele>1115.7</ele>
        <time>2008-09-25T08:50:15Z</time>
      </trkpt>
      <trkpt lat="33.971291" lon="-2.949664">
        <ele>1116.7</ele>
        <time>2008-09-25T08:50:19Z</time>
      </trkpt>
      <trkpt lat="33.971285" lon="-2.950224">
        <ele>1116.2</ele>
        <time>2008-09-25T08:50:24Z</time>
      </trkpt>
      <trkpt lat="33.971253" lon="-2.950819">
        <ele>1118.6</ele>
        <time>2008-09-25T08:50:29Z</time>
      </trkpt>
      <trkpt lat="33.970941" lon="-2.951376">
        <ele>1125.4</ele>
        <time>2008-09-25T08:50:34Z</time>
      </trkpt>
      <trkpt lat="33.970594" lon="-2.951762">
        <ele>1127.8</ele>
        <time>2008-09-25T08:50:38Z</time>
      </trkpt>
      <trkpt lat="33.970249" lon="-2.952155">
        <ele>1127.3</ele>
        <time>2008-09-25T08:50:43Z</time>
      </trkpt>
      <trkpt lat="33.970349" lon="-2.952703">
        <ele>1128.2</ele>
        <time>2008-09-25T08:50:49Z</time>
      </trkpt>
      <trkpt lat="33.970589" lon="-2.953182">
        <ele>1128.7</ele>
        <time>2008-09-25T08:50:54Z</time>
      </trkpt>
      <trkpt lat="33.970810" lon="-2.953749">
        <ele>1131.6</ele>
        <time>2008-09-25T08:50:59Z</time>
      </trkpt>
      <trkpt lat="33.970779" lon="-2.954352">
        <ele>1135.5</ele>
        <time>2008-09-25T08:51:04Z</time>
      </trkpt>
      <trkpt lat="33.970587" lon="-2.954932">
        <ele>1137.4</ele>
        <time>2008-09-25T08:51:09Z</time>
      </trkpt>
      <trkpt lat="33.970407" lon="-2.955527">
        <ele>1138.8</ele>
        <time>2008-09-25T08:51:14Z</time>
      </trkpt>
      <trkpt lat="33.970142" lon="-2.956095">
        <ele>1140.3</ele>
        <time>2008-09-25T08:51:19Z</time>
      </trkpt>
      <trkpt lat="33.969956" lon="-2.956629">
        <ele>1138.8</ele>
        <time>2008-09-25T08:51:24Z</time>
      </trkpt>
      <trkpt lat="33.969776" lon="-2.957249">
        <ele>1137.9</ele>
        <time>2008-09-25T08:51:29Z</time>
      </trkpt>
      <trkpt lat="33.969626" lon="-2.957848">
        <ele>1136.4</ele>
        <time>2008-09-25T08:51:33Z</time>
      </trkpt>
      <trkpt lat="33.969462" lon="-2.958514">
        <ele>1134.0</ele>
        <time>2008-09-25T08:51:37Z</time>
      </trkpt>
      <trkpt lat="33.969328" lon="-2.959100">
        <ele>1128.2</ele>
        <time>2008-09-25T08:51:42Z</time>
      </trkpt>
      <trkpt lat="33.969184" lon="-2.959628">
        <ele>1130.6</ele>
        <time>2008-09-25T08:51:48Z</time>
      </trkpt>
      <trkpt lat="33.969043" lon="-2.960164">
        <ele>1133.1</ele>
        <time>2008-09-25T08:51:52Z</time>
      </trkpt>
      <trkpt lat="33.968978" lon="-2.960772">
        <ele>1135.5</ele>
        <time>2008-09-25T08:51:56Z</time>
      </trkpt>
      <trkpt lat="33.968988" lon="-2.961340">
        <ele>1135.9</ele>
        <time>2008-09-25T08:52:00Z</time>
      </trkpt>
      <trkpt lat="33.968743" lon="-2.961838">
        <ele>1141.2</ele>
        <time>2008-09-25T08:52:05Z</time>
      </trkpt>
      <trkpt lat="33.968500" lon="-2.962322">
        <ele>1139.8</ele>
        <time>2008-09-25T08:52:10Z</time>
      </trkpt>
      <trkpt lat="33.968319" lon="-2.962851">
        <ele>1140.7</ele>
        <time>2008-09-25T08:52:14Z</time>
      </trkpt>
      <trkpt lat="33.968169" lon="-2.963472">
        <ele>1139.8</ele>
        <time>2008-09-25T08:52:19Z</time>
      </trkpt>
      <trkpt lat="33.968215" lon="-2.964043">
        <ele>1141.2</ele>
        <time>2008-09-25T08:52:23Z</time>
      </trkpt>
      <trkpt lat="33.968222" lon="-2.964599">
        <ele>1140.7</ele>
        <time>2008-09-25T08:52:28Z</time>
      </trkpt>
      <trkpt lat="33.967995" lon="-2.965172">
        <ele>1143.6</ele>
        <time>2008-09-25T08:52:33Z</time>
      </trkpt>
      <trkpt lat="33.967689" lon="-2.965585">
        <ele>1144.1</ele>
        <time>2008-09-25T08:52:37Z</time>
      </trkpt>
      <trkpt lat="33.967307" lon="-2.966070">
        <ele>1145.5</ele>
        <time>2008-09-25T08:52:42Z</time>
      </trkpt>
      <trkpt lat="33.967114" lon="-2.966577">
        <ele>1144.6</ele>
        <time>2008-09-25T08:52:47Z</time>
      </trkpt>
      <trkpt lat="33.967118" lon="-2.967196">
        <ele>1144.6</ele>
        <time>2008-09-25T08:52:53Z</time>
      </trkpt>
      <trkpt lat="33.967060" lon="-2.967775">
        <ele>1143.6</ele>
        <time>2008-09-25T08:52:59Z</time>
      </trkpt>
      <trkpt lat="33.966993" lon="-2.968411">
        <ele>1141.7</ele>
        <time>2008-09-25T08:53:05Z</time>
      </trkpt>
      <trkpt lat="33.967004" lon="-2.968996">
        <ele>1138.8</ele>
        <time>2008-09-25T08:53:11Z</time>
      </trkpt>
      <trkpt lat="33.967249" lon="-2.969524">
        <ele>1135.9</ele>
        <time>2008-09-25T08:53:17Z</time>
      </trkpt>
      <trkpt lat="33.967448" lon="-2.970018">
        <ele>1135.0</ele>
        <time>2008-09-25T08:53:24Z</time>
      </trkpt>
      <trkpt lat="33.967665" lon="-2.970524">
        <ele>1133.1</ele>
        <time>2008-09-25T08:53:29Z</time>
      </trkpt>
      <trkpt lat="33.967843" lon="-2.971091">
        <ele>1130.2</ele>
        <time>2008-09-25T08:53:35Z</time>
      </trkpt>
      <trkpt lat="33.967909" lon="-2.971689">
        <ele>1129.7</ele>
        <time>2008-09-25T08:53:41Z</time>
      </trkpt>
      <trkpt lat="33.967847" lon="-2.972321">
        <ele>1130.6</ele>
        <time>2008-09-25T08:53:46Z</time>
      </trkpt>
      <trkpt lat="33.967832" lon="-2.972954">
        <ele>1129.2</ele>
        <time>2008-09-25T08:53:52Z</time>
      </trkpt>
      <trkpt lat="33.967932" lon="-2.973551">
        <ele>1131.1</ele>
        <time>2008-09-25T08:53:57Z</time>
      </trkpt>
      <trkpt lat="33.968023" lon="-2.974096">
        <ele>1130.6</ele>
        <time>2008-09-25T08:54:01Z</time>
      </trkpt>
      <trkpt lat="33.968179" lon="-2.974727">
        <ele>1127.8</ele>
        <time>2008-09-25T08:54:06Z</time>
      </trkpt>
      <trkpt lat="33.968350" lon="-2.975331">
        <ele>1127.8</ele>
        <time>2008-09-25T08:54:11Z</time>
      </trkpt>
      <trkpt lat="33.968457" lon="-2.976009">
        <ele>1127.8</ele>
        <time>2008-09-25T08:54:16Z</time>
      </trkpt>
      <trkpt lat="33.968504" lon="-2.976632">
        <ele>1127.3</ele>
        <time>2008-09-25T08:54:20Z</time>
      </trkpt>
      <trkpt lat="33.968572" lon="-2.977271">
        <ele>1128.2</ele>
        <time>2008-09-25T08:54:24Z</time>
      </trkpt>
      <trkpt lat="33.968668" lon="-2.977909">
        <ele>1131.6</ele>
        <time>2008-09-25T08:54:28Z</time>
      </trkpt>
      <trkpt lat="33.968667" lon="-2.978584">
        <ele>1131.6</ele>
        <time>2008-09-25T08:54:32Z</time>
      </trkpt>
      <trkpt lat="33.968646" lon="-2.979273">
        <ele>1132.6</ele>
        <time>2008-09-25T08:54:36Z</time>
      </trkpt>
      <trkpt lat="33.968717" lon="-2.979964">
        <ele>1133.5</ele>
        <time>2008-09-25T08:54:40Z</time>
      </trkpt>
      <trkpt lat="33.968830" lon="-2.980640">
        <ele>1132.1</ele>
        <time>2008-09-25T08:54:44Z</time>
      </trkpt>
      <trkpt lat="33.968876" lon="-2.981194">
        <ele>1131.1</ele>
        <time>2008-09-25T08:54:48Z</time>
      </trkpt>
      <trkpt lat="33.968983" lon="-2.981723">
        <ele>1129.2</ele>
        <time>2008-09-25T08:54:54Z</time>
      </trkpt>
      <trkpt lat="33.969087" lon="-2.982262">
        <ele>1130.6</ele>
        <time>2008-09-25T08:55:04Z</time>
      </trkpt>
      <trkpt lat="33.969335" lon="-2.982745">
        <ele>1133.5</ele>
        <time>2008-09-25T08:55:15Z</time>
      </trkpt>
      <trkpt lat="33.969689" lon="-2.983091">
        <ele>1134.5</ele>
        <time>2008-09-25T08:55:27Z</time>
      </trkpt>
      <trkpt lat="33.970001" lon="-2.983545">
        <ele>1137.9</ele>
        <time>2008-09-25T08:55:35Z</time>
      </trkpt>
      <trkpt lat="33.969768" lon="-2.984023">
        <ele>1142.7</ele>
        <time>2008-09-25T08:55:41Z</time>
      </trkpt>
      <trkpt lat="33.969341" lon="-2.984298">
        <ele>1146.0</ele>
        <time>2008-09-25T08:55:46Z</time>
      </trkpt>
      <trkpt lat="33.968968" lon="-2.984705">
        <ele>1148.0</ele>
        <time>2008-09-25T08:55:52Z</time>
      </trkpt>
      <trkpt lat="33.968860" lon="-2.985284">
        <ele>1148.4</ele>
        <time>2008-09-25T08:55:58Z</time>
      </trkpt>
      <trkpt lat="33.968838" lon="-2.985900">
        <ele>1145.1</ele>
        <time>2008-09-25T08:56:04Z</time>
      </trkpt>
      <trkpt lat="33.968683" lon="-2.986516">
        <ele>1142.2</ele>
        <time>2008-09-25T08:56:10Z</time>
      </trkpt>
      <trkpt lat="33.968601" lon="-2.987135">
        <ele>1139.3</ele>
        <time>2008-09-25T08:56:16Z</time>
      </trkpt>
      <trkpt lat="33.968700" lon="-2.987703">
        <ele>1137.4</ele>
        <time>2008-09-25T08:56:23Z</time>
      </trkpt>
      <trkpt lat="33.968799" lon="-2.988262">
        <ele>1136.9</ele>
        <time>2008-09-25T08:56:29Z</time>
      </trkpt>
      <trkpt lat="33.968960" lon="-2.988788">
        <ele>1136.9</ele>
        <time>2008-09-25T08:56:34Z</time>
      </trkpt>
      <trkpt lat="33.969214" lon="-2.989390">
        <ele>1135.9</ele>
        <time>2008-09-25T08:56:39Z</time>
      </trkpt>
      <trkpt lat="33.969425" lon="-2.989958">
        <ele>1136.4</ele>
        <time>2008-09-25T08:56:44Z</time>
      </trkpt>
      <trkpt lat="33.969586" lon="-2.990541">
        <ele>1137.4</ele>
        <time>2008-09-25T08:56:49Z</time>
      </trkpt>
      <trkpt lat="33.969718" lon="-2.991065">
        <ele>1139.3</ele>
        <time>2008-09-25T08:56:53Z</time>
      </trkpt>
      <trkpt lat="33.969846" lon="-2.991597">
        <ele>1141.2</ele>
        <time>2008-09-25T08:56:57Z</time>
      </trkpt>
      <trkpt lat="33.970049" lon="-2.992129">
        <ele>1141.7</ele>
        <time>2008-09-25T08:57:02Z</time>
      </trkpt>
      <trkpt lat="33.970204" lon="-2.992669">
        <ele>1143.1</ele>
        <time>2008-09-25T08:57:06Z</time>
      </trkpt>
      <trkpt lat="33.970394" lon="-2.993240">
        <ele>1143.1</ele>
        <time>2008-09-25T08:57:11Z</time>
      </trkpt>
      <trkpt lat="33.970578" lon="-2.993840">
        <ele>1141.7</ele>
        <time>2008-09-25T08:57:17Z</time>
      </trkpt>
      <trkpt lat="33.970818" lon="-2.994445">
        <ele>1142.2</ele>
        <time>2008-09-25T08:57:22Z</time>
      </trkpt>
      <trkpt lat="33.970960" lon="-2.995085">
        <ele>1140.7</ele>
        <time>2008-09-25T08:57:27Z</time>
      </trkpt>
      <trkpt lat="33.971143" lon="-2.995584">
        <ele>1137.9</ele>
        <time>2008-09-25T08:57:32Z</time>
      </trkpt>
      <trkpt lat="33.971312" lon="-2.996116">
        <ele>1136.9</ele>
        <time>2008-09-25T08:57:38Z</time>
      </trkpt>
      <trkpt lat="33.971478" lon="-2.996688">
        <ele>1134.5</ele>
        <time>2008-09-25T08:57:43Z</time>
      </trkpt>
      <trkpt lat="33.971670" lon="-2.997272">
        <ele>1135.0</ele>
        <time>2008-09-25T08:57:48Z</time>
      </trkpt>
      <trkpt lat="33.971864" lon="-2.997823">
        <ele>1135.0</ele>
        <time>2008-09-25T08:57:53Z</time>
      </trkpt>
      <trkpt lat="33.972064" lon="-2.998340">
        <ele>1137.4</ele>
        <time>2008-09-25T08:57:58Z</time>
      </trkpt>
      <trkpt lat="33.972253" lon="-2.998843">
        <ele>1139.3</ele>
        <time>2008-09-25T08:58:03Z</time>
      </trkpt>
      <trkpt lat="33.972425" lon="-2.999408">
        <ele>1142.7</ele>
        <time>2008-09-25T08:58:09Z</time>
      </trkpt>
      <trkpt lat="33.972617" lon="-2.999989">
        <ele>1145.5</ele>
        <time>2008-09-25T08:58:15Z</time>
      </trkpt>
      <trkpt lat="33.972779" lon="-3.000624">
        <ele>1148.4</ele>
        <time>2008-09-25T08:58:20Z</time>
      </trkpt>
      <trkpt lat="33.972902" lon="-3.001158">
        <ele>1148.9</ele>
        <time>2008-09-25T08:58:25Z</time>
      </trkpt>
      <trkpt lat="33.972930" lon="-3.001734">
        <ele>1145.5</ele>
        <time>2008-09-25T08:58:30Z</time>
      </trkpt>
      <trkpt lat="33.972921" lon="-3.002321">
        <ele>1143.1</ele>
        <time>2008-09-25T08:58:35Z</time>
      </trkpt>
      <trkpt lat="33.972876" lon="-3.002986">
        <ele>1142.2</ele>
        <time>2008-09-25T08:58:40Z</time>
      </trkpt>
      <trkpt lat="33.972823" lon="-3.003648">
        <ele>1145.5</ele>
        <time>2008-09-25T08:58:44Z</time>
      </trkpt>
      <trkpt lat="33.972787" lon="-3.004272">
        <ele>1145.5</ele>
        <time>2008-09-25T08:58:49Z</time>
      </trkpt>
      <trkpt lat="33.972808" lon="-3.004852">
        <ele>1146.0</ele>
        <time>2008-09-25T08:58:55Z</time>
      </trkpt>
      <trkpt lat="33.972847" lon="-3.005415">
        <ele>1144.1</ele>
        <time>2008-09-25T08:59:04Z</time>
      </trkpt>
      <trkpt lat="33.972870" lon="-3.005967">
        <ele>1141.7</ele>
        <time>2008-09-25T08:59:15Z</time>
      </trkpt>
      <trkpt lat="33.972855" lon="-3.006580">
        <ele>1140.3</ele>
        <time>2008-09-25T08:59:21Z</time>
      </trkpt>
      <trkpt lat="33.972805" lon="-3.007201">
        <ele>1137.9</ele>
        <time>2008-09-25T08:59:27Z</time>
      </trkpt>
      <trkpt lat="33.972763" lon="-3.007813">
        <ele>1136.4</ele>
        <time>2008-09-25T08:59:34Z</time>
      </trkpt>
      <trkpt lat="33.972652" lon="-3.008436">
        <ele>1135.5</ele>
        <time>2008-09-25T08:59:40Z</time>
      </trkpt>
      <trkpt lat="33.972514" lon="-3.009008">
        <ele>1137.4</ele>
        <time>2008-09-25T08:59:45Z</time>
      </trkpt>
      <trkpt lat="33.972363" lon="-3.009567">
        <ele>1139.8</ele>
        <time>2008-09-25T08:59:49Z</time>
      </trkpt>
      <trkpt lat="33.972211" lon="-3.010160">
        <ele>1142.2</ele>
        <time>2008-09-25T08:59:53Z</time>
      </trkpt>
      <trkpt lat="33.972080" lon="-3.010750">
        <ele>1143.1</ele>
        <time>2008-09-25T08:59:57Z</time>
      </trkpt>
      <trkpt lat="33.972027" lon="-3.011342">
        <ele>1146.0</ele>
        <time>2008-09-25T09:00:01Z</time>
      </trkpt>
      <trkpt lat="33.971948" lon="-3.011930">
        <ele>1148.4</ele>
        <time>2008-09-25T09:00:06Z</time>
      </trkpt>
      <trkpt lat="33.971687" lon="-3.012499">
        <ele>1148.0</ele>
        <time>2008-09-25T09:00:11Z</time>
      </trkpt>
      <trkpt lat="33.971427" lon="-3.013102">
        <ele>1148.4</ele>
        <time>2008-09-25T09:00:16Z</time>
      </trkpt>
      <trkpt lat="33.971192" lon="-3.013651">
        <ele>1147.0</ele>
        <time>2008-09-25T09:00:20Z</time>
      </trkpt>
      <trkpt lat="33.971001" lon="-3.014201">
        <ele>1147.5</ele>
        <time>2008-09-25T09:00:24Z</time>
      </trkpt>
      <trkpt lat="33.970829" lon="-3.014760">
        <ele>1145.5</ele>
        <time>2008-09-25T09:00:28Z</time>
      </trkpt>
      <trkpt lat="33.970635" lon="-3.015331">
        <ele>1146.5</ele>
        <time>2008-09-25T09:00:32Z</time>
      </trkpt>
      <trkpt lat="33.970391" lon="-3.015876">
        <ele>1147.0</ele>
        <time>2008-09-25T09:00:36Z</time>
      </trkpt>
      <trkpt lat="33.970142" lon="-3.016415">
        <ele>1147.5</ele>
        <time>2008-09-25T09:00:40Z</time>
      </trkpt>
      <trkpt lat="33.969858" lon="-3.017017">
        <ele>1149.9</ele>
        <time>2008-09-25T09:00:44Z</time>
      </trkpt>
      <trkpt lat="33.969651" lon="-3.017507">
        <ele>1151.3</ele>
        <time>2008-09-25T09:00:47Z</time>
      </trkpt>
      <trkpt lat="33.969446" lon="-3.018000">
        <ele>1147.5</ele>
        <time>2008-09-25T09:00:51Z</time>
      </trkpt>
      <trkpt lat="33.969276" lon="-3.018531">
        <ele>1146.5</ele>
        <time>2008-09-25T09:00:57Z</time>
      </trkpt>
      <trkpt lat="33.969112" lon="-3.019036">
        <ele>1149.4</ele>
        <time>2008-09-25T09:01:03Z</time>
      </trkpt>
      <trkpt lat="33.968976" lon="-3.019563">
        <ele>1153.2</ele>
        <time>2008-09-25T09:01:08Z</time>
      </trkpt>
      <trkpt lat="33.968852" lon="-3.020111">
        <ele>1154.2</ele>
        <time>2008-09-25T09:01:13Z</time>
      </trkpt>
      <trkpt lat="33.968745" lon="-3.020656">
        <ele>1156.6</ele>
        <time>2008-09-25T09:01:18Z</time>
      </trkpt>
      <trkpt lat="33.968560" lon="-3.021206">
        <ele>1154.2</ele>
        <time>2008-09-25T09:01:24Z</time>
      </trkpt>
      <trkpt lat="33.968443" lon="-3.021728">
        <ele>1153.2</ele>
        <time>2008-09-25T09:01:29Z</time>
      </trkpt>
      <trkpt lat="33.968302" lon="-3.022250">
        <ele>1150.8</ele>
        <time>2008-09-25T09:01:34Z</time>
      </trkpt>
      <trkpt lat="33.968137" lon="-3.022793">
        <ele>1148.9</ele>
        <time>2008-09-25T09:01:39Z</time>
      </trkpt>
      <trkpt lat="33.967925" lon="-3.023417">
        <ele>1150.4</ele>
        <time>2008-09-25T09:01:44Z</time>
      </trkpt>
      <trkpt lat="33.967723" lon="-3.024013">
        <ele>1147.0</ele>
        <time>2008-09-25T09:01:49Z</time>
      </trkpt>
      <trkpt lat="33.967522" lon="-3.024515">
        <ele>1145.5</ele>
        <time>2008-09-25T09:01:53Z</time>
      </trkpt>
      <trkpt lat="33.967268" lon="-3.025047">
        <ele>1141.7</ele>
        <time>2008-09-25T09:01:58Z</time>
      </trkpt>
      <trkpt lat="33.967001" lon="-3.025546">
        <ele>1138.3</ele>
        <time>2008-09-25T09:02:05Z</time>
      </trkpt>
      <trkpt lat="33.967004" lon="-3.026161">
        <ele>1135.9</ele>
        <time>2008-09-25T09:02:12Z</time>
      </trkpt>
      <trkpt lat="33.966752" lon="-3.026667">
        <ele>1135.5</ele>
        <time>2008-09-25T09:02:21Z</time>
      </trkpt>
      <trkpt lat="33.966424" lon="-3.027145">
        <ele>1135.0</ele>
        <time>2008-09-25T09:02:27Z</time>
      </trkpt>
      <trkpt lat="33.966015" lon="-3.027491">
        <ele>1133.5</ele>
        <time>2008-09-25T09:02:34Z</time>
      </trkpt>
      <trkpt lat="33.965717" lon="-3.027900">
        <ele>1131.1</ele>
        <time>2008-09-25T09:02:42Z</time>
      </trkpt>
      <trkpt lat="33.965255" lon="-3.028237">
        <ele>1133.1</ele>
        <time>2008-09-25T09:02:48Z</time>
      </trkpt>
      <trkpt lat="33.964810" lon="-3.028500">
        <ele>1129.7</ele>
        <time>2008-09-25T09:02:54Z</time>
      </trkpt>
      <trkpt lat="33.964357" lon="-3.028676">
        <ele>1128.2</ele>
        <time>2008-09-25T09:03:03Z</time>
      </trkpt>
      <trkpt lat="33.963888" lon="-3.028679">
        <ele>1128.2</ele>
        <time>2008-09-25T09:03:13Z</time>
      </trkpt>
      <trkpt lat="33.963429" lon="-3.028660">
        <ele>1131.1</ele>
        <time>2008-09-25T09:03:19Z</time>
      </trkpt>
      <trkpt lat="33.962956" lon="-3.028697">
        <ele>1132.6</ele>
        <time>2008-09-25T09:03:24Z</time>
      </trkpt>
      <trkpt lat="33.962499" lon="-3.028952">
        <ele>1129.7</ele>
        <time>2008-09-25T09:03:30Z</time>
      </trkpt>
      <trkpt lat="33.962099" lon="-3.029278">
        <ele>1128.7</ele>
        <time>2008-09-25T09:03:36Z</time>
      </trkpt>
      <trkpt lat="33.961669" lon="-3.029636">
        <ele>1128.7</ele>
        <time>2008-09-25T09:03:42Z</time>
      </trkpt>
      <trkpt lat="33.961282" lon="-3.030066">
        <ele>1125.8</ele>
        <time>2008-09-25T09:03:48Z</time>
      </trkpt>
      <trkpt lat="33.960887" lon="-3.030463">
        <ele>1127.3</ele>
        <time>2008-09-25T09:03:54Z</time>
      </trkpt>
      <trkpt lat="33.960531" lon="-3.030828">
        <ele>1126.8</ele>
        <time>2008-09-25T09:03:59Z</time>
      </trkpt>
      <trkpt lat="33.960161" lon="-3.031188">
        <ele>1129.7</ele>
        <time>2008-09-25T09:04:04Z</time>
      </trkpt>
      <trkpt lat="33.959813" lon="-3.031580">
        <ele>1130.2</ele>
        <time>2008-09-25T09:04:09Z</time>
      </trkpt>
      <trkpt lat="33.959495" lon="-3.031999">
        <ele>1130.2</ele>
        <time>2008-09-25T09:04:14Z</time>
      </trkpt>
      <trkpt lat="33.959153" lon="-3.032427">
        <ele>1128.2</ele>
        <time>2008-09-25T09:04:19Z</time>
      </trkpt>
      <trkpt lat="33.958815" lon="-3.032901">
        <ele>1125.4</ele>
        <time>2008-09-25T09:04:24Z</time>
      </trkpt>
      <trkpt lat="33.958531" lon="-3.033361">
        <ele>1123.0</ele>
        <time>2008-09-25T09:04:29Z</time>
      </trkpt>
      <trkpt lat="33.958172" lon="-3.033836">
        <ele>1120.1</ele>
        <time>2008-09-25T09:04:35Z</time>
      </trkpt>
      <trkpt lat="33.957933" lon="-3.034291">
        <ele>1117.7</ele>
        <time>2008-09-25T09:04:41Z</time>
      </trkpt>
      <trkpt lat="33.957637" lon="-3.034812">
        <ele>1118.2</ele>
        <time>2008-09-25T09:04:49Z</time>
      </trkpt>
      <trkpt lat="33.957515" lon="-3.035339">
        <ele>1118.2</ele>
        <time>2008-09-25T09:04:55Z</time>
      </trkpt>
      <trkpt lat="33.957564" lon="-3.035888">
        <ele>1118.6</ele>
        <time>2008-09-25T09:05:02Z</time>
      </trkpt>
      <trkpt lat="33.957337" lon="-3.036422">
        <ele>1120.6</ele>
        <time>2008-09-25T09:05:09Z</time>
      </trkpt>
      <trkpt lat="33.957068" lon="-3.036944">
        <ele>1123.0</ele>
        <time>2008-09-25T09:05:14Z</time>
      </trkpt>
      <trkpt lat="33.956991" lon="-3.037540">
        <ele>1122.5</ele>
        <time>2008-09-25T09:05:20Z</time>
      </trkpt>
      <trkpt lat="33.957261" lon="-3.038032">
        <ele>1124.9</ele>
        <time>2008-09-25T09:05:25Z</time>
      </trkpt>
      <trkpt lat="33.957514" lon="-3.038545">
        <ele>1124.4</ele>
        <time>2008-09-25T09:05:31Z</time>
      </trkpt>
      <trkpt lat="33.957741" lon="-3.039017">
        <ele>1125.8</ele>
        <time>2008-09-25T09:05:37Z</time>
      </trkpt>
      <trkpt lat="33.957969" lon="-3.039588">
        <ele>1127.3</ele>
        <time>2008-09-25T09:05:43Z</time>
      </trkpt>
      <trkpt lat="33.958406" lon="-3.039929">
        <ele>1127.8</ele>
        <time>2008-09-25T09:05:49Z</time>
      </trkpt>
      <trkpt lat="33.958468" lon="-3.040437">
        <ele>1128.2</ele>
        <time>2008-09-25T09:05:56Z</time>
      </trkpt>
      <trkpt lat="33.958124" lon="-3.040859">
        <ele>1130.2</ele>
        <time>2008-09-25T09:06:02Z</time>
      </trkpt>
      <trkpt lat="33.957646" lon="-3.041070">
        <ele>1130.6</ele>
        <time>2008-09-25T09:06:08Z</time>
      </trkpt>
      <trkpt lat="33.957206" lon="-3.041302">
        <ele>1129.7</ele>
        <time>2008-09-25T09:06:14Z</time>
      </trkpt>
      <trkpt lat="33.956735" lon="-3.041547">
        <ele>1129.7</ele>
        <time>2008-09-25T09:06:19Z</time>
      </trkpt>
      <trkpt lat="33.956279" lon="-3.041733">
        <ele>1129.2</ele>
        <time>2008-09-25T09:06:23Z</time>
      </trkpt>
      <trkpt lat="33.955814" lon="-3.041901">
        <ele>1124.4</ele>
        <time>2008-09-25T09:06:28Z</time>
      </trkpt>
      <trkpt lat="33.955362" lon="-3.042098">
        <ele>1124.9</ele>
        <time>2008-09-25T09:06:33Z</time>
      </trkpt>
      <trkpt lat="33.954942" lon="-3.042336">
        <ele>1121.5</ele>
        <time>2008-09-25T09:06:38Z</time>
      </trkpt>
      <trkpt lat="33.954647" lon="-3.042883">
        <ele>1123.0</ele>
        <time>2008-09-25T09:06:43Z</time>
      </trkpt>
      <trkpt lat="33.954380" lon="-3.043377">
        <ele>1123.4</ele>
        <time>2008-09-25T09:06:47Z</time>
      </trkpt>
      <trkpt lat="33.954241" lon="-3.043976">
        <ele>1121.5</ele>
        <time>2008-09-25T09:06:52Z</time>
      </trkpt>
      <trkpt lat="33.954260" lon="-3.044575">
        <ele>1120.1</ele>
        <time>2008-09-25T09:06:57Z</time>
      </trkpt>
      <trkpt lat="33.954269" lon="-3.045120">
        <ele>1117.2</ele>
        <time>2008-09-25T09:07:04Z</time>
      </trkpt>
      <trkpt lat="33.953751" lon="-3.044992">
        <ele>1121.0</ele>
        <time>2008-09-25T09:07:11Z</time>
      </trkpt>
      <trkpt lat="33.953292" lon="-3.044828">
        <ele>1122.0</ele>
        <time>2008-09-25T09:07:16Z</time>
      </trkpt>
      <trkpt lat="33.952795" lon="-3.044749">
        <ele>1119.1</ele>
        <time>2008-09-25T09:07:22Z</time>
      </trkpt>
      <trkpt lat="33.952405" lon="-3.045038">
        <ele>1119.6</ele>
        <time>2008-09-25T09:07:28Z</time>
      </trkpt>
      <trkpt lat="33.952055" lon="-3.045419">
        <ele>1117.2</ele>
        <time>2008-09-25T09:07:34Z</time>
      </trkpt>
      <trkpt lat="33.951719" lon="-3.045763">
        <ele>1115.3</ele>
        <time>2008-09-25T09:07:41Z</time>
      </trkpt>
      <trkpt lat="33.951238" lon="-3.045909">
        <ele>1113.3</ele>
        <time>2008-09-25T09:07:48Z</time>
      </trkpt>
      <trkpt lat="33.950771" lon="-3.046110">
        <ele>1114.3</ele>
        <time>2008-09-25T09:07:57Z</time>
      </trkpt>
      <trkpt lat="33.950367" lon="-3.046350">
        <ele>1114.8</ele>
        <time>2008-09-25T09:08:03Z</time>
      </trkpt>
      <trkpt lat="33.949973" lon="-3.046646">
        <ele>1116.2</ele>
        <time>2008-09-25T09:08:08Z</time>
      </trkpt>
      <trkpt lat="33.949924" lon="-3.047184">
        <ele>1115.7</ele>
        <time>2008-09-25T09:08:13Z</time>
      </trkpt>
      <trkpt lat="33.950232" lon="-3.047673">
        <ele>1117.2</ele>
        <time>2008-09-25T09:08:18Z</time>
      </trkpt>
      <trkpt lat="33.950595" lon="-3.048105">
        <ele>1118.6</ele>
        <time>2008-09-25T09:08:23Z</time>
      </trkpt>
      <trkpt lat="33.950966" lon="-3.048590">
        <ele>1118.6</ele>
        <time>2008-09-25T09:08:28Z</time>
      </trkpt>
      <trkpt lat="33.951295" lon="-3.048995">
        <ele>1119.6</ele>
        <time>2008-09-25T09:08:32Z</time>
      </trkpt>
      <trkpt lat="33.951669" lon="-3.049471">
        <ele>1121.0</ele>
        <time>2008-09-25T09:08:36Z</time>
      </trkpt>
      <trkpt lat="33.952057" lon="-3.049931">
        <ele>1121.0</ele>
        <time>2008-09-25T09:08:40Z</time>
      </trkpt>
      <trkpt lat="33.952456" lon="-3.050246">
        <ele>1119.1</ele>
        <time>2008-09-25T09:08:45Z</time>
      </trkpt>
      <trkpt lat="33.952257" lon="-3.050562">
        <ele>1122.5</ele>
        <time>2008-09-25T09:09:05Z</time>
      </trkpt>
      <trkpt lat="33.951870" lon="-3.050888">
        <ele>1124.9</ele>
        <time>2008-09-25T09:09:09Z</time>
      </trkpt>
      <trkpt lat="33.951362" lon="-3.051318">
        <ele>1123.4</ele>
        <time>2008-09-25T09:09:13Z</time>
      </trkpt>
      <trkpt lat="33.950922" lon="-3.051645">
        <ele>1122.0</ele>
        <time>2008-09-25T09:09:16Z</time>
      </trkpt>
      <trkpt lat="33.950427" lon="-3.051849">
        <ele>1120.1</ele>
        <time>2008-09-25T09:09:19Z</time>
      </trkpt>
      <trkpt lat="33.949869" lon="-3.051959">
        <ele>1118.6</ele>
        <time>2008-09-25T09:09:22Z</time>
      </trkpt>
      <trkpt lat="33.949320" lon="-3.052063">
        <ele>1117.7</ele>
        <time>2008-09-25T09:09:25Z</time>
      </trkpt>
      <trkpt lat="33.948844" lon="-3.052165">
        <ele>1115.7</ele>
        <time>2008-09-25T09:09:28Z</time>
      </trkpt>
      <trkpt lat="33.948405" lon="-3.052309">
        <ele>1113.3</ele>
        <time>2008-09-25T09:09:32Z</time>
      </trkpt>
      <trkpt lat="33.948001" lon="-3.052531">
        <ele>1113.8</ele>
        <time>2008-09-25T09:09:38Z</time>
      </trkpt>
      <trkpt lat="33.947605" lon="-3.052822">
        <ele>1115.3</ele>
        <time>2008-09-25T09:09:43Z</time>
      </trkpt>
      <trkpt lat="33.947137" lon="-3.053168">
        <ele>1116.2</ele>
        <time>2008-09-25T09:09:47Z</time>
      </trkpt>
      <trkpt lat="33.946711" lon="-3.053482">
        <ele>1117.2</ele>
        <time>2008-09-25T09:09:50Z</time>
      </trkpt>
      <trkpt lat="33.946256" lon="-3.053812">
        <ele>1117.7</ele>
        <time>2008-09-25T09:09:53Z</time>
      </trkpt>
      <trkpt lat="33.945835" lon="-3.054113">
        <ele>1116.2</ele>
        <time>2008-09-25T09:09:56Z</time>
      </trkpt>
      <trkpt lat="33.945416" lon="-3.054424">
        <ele>1114.8</ele>
        <time>2008-09-25T09:10:00Z</time>
      </trkpt>
      <trkpt lat="33.944877" lon="-3.054614">
        <ele>1112.4</ele>
        <time>2008-09-25T09:10:04Z</time>
      </trkpt>
      <trkpt lat="33.944366" lon="-3.054674">
        <ele>1110.0</ele>
        <time>2008-09-25T09:10:07Z</time>
      </trkpt>
      <trkpt lat="33.943773" lon="-3.054736">
        <ele>1109.5</ele>
        <time>2008-09-25T09:10:10Z</time>
      </trkpt>
      <trkpt lat="33.943114" lon="-3.054813">
        <ele>1108.5</ele>
        <time>2008-09-25T09:10:13Z</time>
      </trkpt>
      <trkpt lat="33.942396" lon="-3.054898">
        <ele>1108.5</ele>
        <time>2008-09-25T09:10:16Z</time>
      </trkpt>
      <trkpt lat="33.941896" lon="-3.054958">
        <ele>1108.5</ele>
        <time>2008-09-25T09:10:18Z</time>
      </trkpt>
      <trkpt lat="33.941401" lon="-3.055018">
        <ele>1108.1</ele>
        <time>2008-09-25T09:10:20Z</time>
      </trkpt>
      <trkpt lat="33.940935" lon="-3.055075">
        <ele>1108.1</ele>
        <time>2008-09-25T09:10:22Z</time>
      </trkpt>
      <trkpt lat="33.940265" lon="-3.055141">
        <ele>1109.0</ele>
        <time>2008-09-25T09:10:25Z</time>
      </trkpt>
      <trkpt lat="33.939807" lon="-3.055163">
        <ele>1109.0</ele>
        <time>2008-09-25T09:10:27Z</time>
      </trkpt>
      <trkpt lat="33.939339" lon="-3.055160">
        <ele>1108.5</ele>
        <time>2008-09-25T09:10:29Z</time>
      </trkpt>
      <trkpt lat="33.938859" lon="-3.055139">
        <ele>1108.1</ele>
        <time>2008-09-25T09:10:31Z</time>
      </trkpt>
      <trkpt lat="33.938365" lon="-3.055115">
        <ele>1107.1</ele>
        <time>2008-09-25T09:10:33Z</time>
      </trkpt>
      <trkpt lat="33.937859" lon="-3.055084">
        <ele>1105.7</ele>
        <time>2008-09-25T09:10:35Z</time>
      </trkpt>
      <trkpt lat="33.937356" lon="-3.055047">
        <ele>1103.7</ele>
        <time>2008-09-25T09:10:37Z</time>
      </trkpt>
      <trkpt lat="33.936827" lon="-3.055020">
        <ele>1102.3</ele>
        <time>2008-09-25T09:10:39Z</time>
      </trkpt>
      <trkpt lat="33.936278" lon="-3.054992">
        <ele>1100.4</ele>
        <time>2008-09-25T09:10:41Z</time>
      </trkpt>
      <trkpt lat="33.935715" lon="-3.054964">
        <ele>1099.9</ele>
        <time>2008-09-25T09:10:43Z</time>
      </trkpt>
      <trkpt lat="33.935147" lon="-3.054932">
        <ele>1100.4</ele>
        <time>2008-09-25T09:10:45Z</time>
      </trkpt>
      <trkpt lat="33.934577" lon="-3.054898">
        <ele>1101.3</ele>
        <time>2008-09-25T09:10:47Z</time>
      </trkpt>
      <trkpt lat="33.934004" lon="-3.054866">
        <ele>1101.3</ele>
        <time>2008-09-25T09:10:49Z</time>
      </trkpt>
      <trkpt lat="33.933422" lon="-3.054838">
        <ele>1100.4</ele>
        <time>2008-09-25T09:10:51Z</time>
      </trkpt>
      <trkpt lat="33.932833" lon="-3.054810">
        <ele>1099.4</ele>
        <time>2008-09-25T09:10:53Z</time>
      </trkpt>
      <trkpt lat="33.932239" lon="-3.054778">
        <ele>1099.4</ele>
        <time>2008-09-25T09:10:55Z</time>
      </trkpt>
      <trkpt lat="33.931641" lon="-3.054748">
        <ele>1099.9</ele>
        <time>2008-09-25T09:10:57Z</time>
      </trkpt>
      <trkpt lat="33.931041" lon="-3.054717">
        <ele>1099.9</ele>
        <time>2008-09-25T09:10:59Z</time>
      </trkpt>
      <trkpt lat="33.930438" lon="-3.054684">
        <ele>1099.9</ele>
        <time>2008-09-25T09:11:01Z</time>
      </trkpt>
      <trkpt lat="33.929834" lon="-3.054650">
        <ele>1099.9</ele>
        <time>2008-09-25T09:11:03Z</time>
      </trkpt>
      <trkpt lat="33.929231" lon="-3.054617">
        <ele>1099.4</ele>
        <time>2008-09-25T09:11:05Z</time>
      </trkpt>
      <trkpt lat="33.928650" lon="-3.054588">
        <ele>1098.0</ele>
        <time>2008-09-25T09:11:07Z</time>
      </trkpt>
      <trkpt lat="33.928097" lon="-3.054562">
        <ele>1096.5</ele>
        <time>2008-09-25T09:11:09Z</time>
      </trkpt>
      <trkpt lat="33.927573" lon="-3.054538">
        <ele>1096.5</ele>
        <time>2008-09-25T09:11:11Z</time>
      </trkpt>
      <trkpt lat="33.927091" lon="-3.054513">
        <ele>1096.0</ele>
        <time>2008-09-25T09:11:13Z</time>
      </trkpt>
      <trkpt lat="33.926630" lon="-3.054489">
        <ele>1096.5</ele>
        <time>2008-09-25T09:11:15Z</time>
      </trkpt>
      <trkpt lat="33.926159" lon="-3.054459">
        <ele>1096.0</ele>
        <time>2008-09-25T09:11:17Z</time>
      </trkpt>
      <trkpt lat="33.925664" lon="-3.054429">
        <ele>1095.6</ele>
        <time>2008-09-25T09:11:19Z</time>
      </trkpt>
      <trkpt lat="33.925156" lon="-3.054401">
        <ele>1096.0</ele>
        <time>2008-09-25T09:11:21Z</time>
      </trkpt>
      <trkpt lat="33.924654" lon="-3.054370">
        <ele>1097.0</ele>
        <time>2008-09-25T09:11:23Z</time>
      </trkpt>
      <trkpt lat="33.924149" lon="-3.054342">
        <ele>1097.5</ele>
        <time>2008-09-25T09:11:25Z</time>
      </trkpt>
      <trkpt lat="33.923646" lon="-3.054322">
        <ele>1096.0</ele>
        <time>2008-09-25T09:11:27Z</time>
      </trkpt>
      <trkpt lat="33.923165" lon="-3.054316">
        <ele>1094.6</ele>
        <time>2008-09-25T09:11:29Z</time>
      </trkpt>
      <trkpt lat="33.922698" lon="-3.054340">
        <ele>1094.6</ele>
        <time>2008-09-25T09:11:31Z</time>
      </trkpt>
      <trkpt lat="33.922234" lon="-3.054442">
        <ele>1095.6</ele>
        <time>2008-09-25T09:11:33Z</time>
      </trkpt>
      <trkpt lat="33.921778" lon="-3.054608">
        <ele>1096.0</ele>
        <time>2008-09-25T09:11:35Z</time>
      </trkpt>
      <trkpt lat="33.921345" lon="-3.054789">
        <ele>1094.6</ele>
        <time>2008-09-25T09:11:37Z</time>
      </trkpt>
      <trkpt lat="33.920867" lon="-3.055003">
        <ele>1090.8</ele>
        <time>2008-09-25T09:11:40Z</time>
      </trkpt>
      <trkpt lat="33.920385" lon="-3.055217">
        <ele>1089.3</ele>
        <time>2008-09-25T09:11:44Z</time>
      </trkpt>
      <trkpt lat="33.919875" lon="-3.055457">
        <ele>1092.2</ele>
        <time>2008-09-25T09:11:48Z</time>
      </trkpt>
      <trkpt lat="33.919391" lon="-3.055662">
        <ele>1090.8</ele>
        <time>2008-09-25T09:11:52Z</time>
      </trkpt>
      <trkpt lat="33.918933" lon="-3.055695">
        <ele>1087.9</ele>
        <time>2008-09-25T09:11:58Z</time>
      </trkpt>
      <trkpt lat="33.918912" lon="-3.056094">
        <ele>1084.5</ele>
        <time>2008-09-25T09:12:18Z</time>
      </trkpt>
      <trkpt lat="33.919094" lon="-3.056610">
        <ele>1085.5</ele>
        <time>2008-09-25T09:12:29Z</time>
      </trkpt>
      <trkpt lat="33.919171" lon="-3.057211">
        <ele>1086.9</ele>
        <time>2008-09-25T09:12:37Z</time>
      </trkpt>
      <trkpt lat="33.919181" lon="-3.057745">
        <ele>1087.9</ele>
        <time>2008-09-25T09:12:44Z</time>
      </trkpt>
      <trkpt lat="33.918979" lon="-3.058210">
        <ele>1086.9</ele>
        <time>2008-09-25T09:12:52Z</time>
      </trkpt>
      <trkpt lat="33.918963" lon="-3.058797">
        <ele>1087.4</ele>
        <time>2008-09-25T09:13:00Z</time>
      </trkpt>
      <trkpt lat="33.918846" lon="-3.059328">
        <ele>1086.9</ele>
        <time>2008-09-25T09:13:07Z</time>
      </trkpt>
      <trkpt lat="33.918977" lon="-3.059860">
        <ele>1085.5</ele>
        <time>2008-09-25T09:13:14Z</time>
      </trkpt>
      <trkpt lat="33.919029" lon="-3.060454">
        <ele>1085.9</ele>
        <time>2008-09-25T09:13:21Z</time>
      </trkpt>
      <trkpt lat="33.919118" lon="-3.061043">
        <ele>1086.9</ele>
        <time>2008-09-25T09:13:27Z</time>
      </trkpt>
      <trkpt lat="33.919206" lon="-3.061635">
        <ele>1087.4</ele>
        <time>2008-09-25T09:13:33Z</time>
      </trkpt>
      <trkpt lat="33.919290" lon="-3.062242">
        <ele>1088.8</ele>
        <time>2008-09-25T09:13:39Z</time>
      </trkpt>
      <trkpt lat="33.919384" lon="-3.062878">
        <ele>1088.8</ele>
        <time>2008-09-25T09:13:45Z</time>
      </trkpt>
      <trkpt lat="33.919365" lon="-3.063526">
        <ele>1089.8</ele>
        <time>2008-09-25T09:13:51Z</time>
      </trkpt>
      <trkpt lat="33.919315" lon="-3.064092">
        <ele>1090.3</ele>
        <time>2008-09-25T09:13:58Z</time>
      </trkpt>
      <trkpt lat="33.919304" lon="-3.064682">
        <ele>1090.8</ele>
        <time>2008-09-25T09:14:07Z</time>
      </trkpt>
      <trkpt lat="33.919320" lon="-3.065307">
        <ele>1090.8</ele>
        <time>2008-09-25T09:14:14Z</time>
      </trkpt>
      <trkpt lat="33.919286" lon="-3.065858">
        <ele>1090.8</ele>
        <time>2008-09-25T09:14:20Z</time>
      </trkpt>
      <trkpt lat="33.919235" lon="-3.066445">
        <ele>1091.2</ele>
        <time>2008-09-25T09:14:26Z</time>
      </trkpt>
      <trkpt lat="33.919140" lon="-3.067033">
        <ele>1092.7</ele>
        <time>2008-09-25T09:14:32Z</time>
      </trkpt>
      <trkpt lat="33.918993" lon="-3.067549">
        <ele>1093.2</ele>
        <time>2008-09-25T09:14:38Z</time>
      </trkpt>
      <trkpt lat="33.918924" lon="-3.068133">
        <ele>1095.1</ele>
        <time>2008-09-25T09:14:44Z</time>
      </trkpt>
      <trkpt lat="33.918888" lon="-3.068735">
        <ele>1096.5</ele>
        <time>2008-09-25T09:14:51Z</time>
      </trkpt>
      <trkpt lat="33.918772" lon="-3.069289">
        <ele>1098.9</ele>
        <time>2008-09-25T09:14:58Z</time>
      </trkpt>
      <trkpt lat="33.918651" lon="-3.069880">
        <ele>1100.8</ele>
        <time>2008-09-25T09:15:05Z</time>
      </trkpt>
      <trkpt lat="33.918596" lon="-3.070503">
        <ele>1100.8</ele>
        <time>2008-09-25T09:15:12Z</time>
      </trkpt>
      <trkpt lat="33.918568" lon="-3.071067">
        <ele>1099.4</ele>
        <time>2008-09-25T09:15:18Z</time>
      </trkpt>
      <trkpt lat="33.918530" lon="-3.071635">
        <ele>1099.4</ele>
        <time>2008-09-25T09:15:25Z</time>
      </trkpt>
      <trkpt lat="33.918501" lon="-3.072250">
        <ele>1100.4</ele>
        <time>2008-09-25T09:15:34Z</time>
      </trkpt>
      <trkpt lat="33.918472" lon="-3.072838">
        <ele>1101.8</ele>
        <time>2008-09-25T09:15:41Z</time>
      </trkpt>
      <trkpt lat="33.918381" lon="-3.073441">
        <ele>1102.8</ele>
        <time>2008-09-25T09:15:49Z</time>
      </trkpt>
      <trkpt lat="33.918227" lon="-3.073956">
        <ele>1104.2</ele>
        <time>2008-09-25T09:15:55Z</time>
      </trkpt>
      <trkpt lat="33.918064" lon="-3.074465">
        <ele>1105.2</ele>
        <time>2008-09-25T09:16:01Z</time>
      </trkpt>
      <trkpt lat="33.918182" lon="-3.075014">
        <ele>1104.7</ele>
        <time>2008-09-25T09:16:08Z</time>
      </trkpt>
      <trkpt lat="33.918333" lon="-3.075565">
        <ele>1105.7</ele>
        <time>2008-09-25T09:16:15Z</time>
      </trkpt>
      <trkpt lat="33.918372" lon="-3.076110">
        <ele>1106.1</ele>
        <time>2008-09-25T09:16:21Z</time>
      </trkpt>
      <trkpt lat="33.918346" lon="-3.076749">
        <ele>1106.1</ele>
        <time>2008-09-25T09:16:27Z</time>
      </trkpt>
      <trkpt lat="33.918329" lon="-3.077352">
        <ele>1104.7</ele>
        <time>2008-09-25T09:16:33Z</time>
      </trkpt>
      <trkpt lat="33.918384" lon="-3.077957">
        <ele>1107.1</ele>
        <time>2008-09-25T09:16:40Z</time>
      </trkpt>
      <trkpt lat="33.918352" lon="-3.078561">
        <ele>1109.5</ele>
        <time>2008-09-25T09:16:46Z</time>
      </trkpt>
      <trkpt lat="33.918357" lon="-3.079117">
        <ele>1109.0</ele>
        <time>2008-09-25T09:16:52Z</time>
      </trkpt>
      <trkpt lat="33.918364" lon="-3.079656">
        <ele>1108.5</ele>
        <time>2008-09-25T09:16:58Z</time>
      </trkpt>
      <trkpt lat="33.918279" lon="-3.080189">
        <ele>1106.1</ele>
        <time>2008-09-25T09:17:05Z</time>
      </trkpt>
      <trkpt lat="33.918115" lon="-3.080695">
        <ele>1106.6</ele>
        <time>2008-09-25T09:17:11Z</time>
      </trkpt>
      <trkpt lat="33.917754" lon="-3.081028">
        <ele>1107.6</ele>
        <time>2008-09-25T09:17:17Z</time>
      </trkpt>
      <trkpt lat="33.917290" lon="-3.080973">
        <ele>1106.6</ele>
        <time>2008-09-25T09:17:24Z</time>
      </trkpt>
      <trkpt lat="33.916857" lon="-3.081124">
        <ele>1104.7</ele>
        <time>2008-09-25T09:17:31Z</time>
      </trkpt>
      <trkpt lat="33.916406" lon="-3.081369">
        <ele>1105.2</ele>
        <time>2008-09-25T09:17:38Z</time>
      </trkpt>
      <trkpt lat="33.915947" lon="-3.081452">
        <ele>1106.6</ele>
        <time>2008-09-25T09:17:44Z</time>
      </trkpt>
      <trkpt lat="33.915444" lon="-3.081455">
        <ele>1106.1</ele>
        <time>2008-09-25T09:17:50Z</time>
      </trkpt>
      <trkpt lat="33.914980" lon="-3.081691">
        <ele>1104.2</ele>
        <time>2008-09-25T09:17:57Z</time>
      </trkpt>
      <trkpt lat="33.914570" lon="-3.082034">
        <ele>1104.2</ele>
        <time>2008-09-25T09:18:03Z</time>
      </trkpt>
      <trkpt lat="33.914161" lon="-3.082394">
        <ele>1103.7</ele>
        <time>2008-09-25T09:18:09Z</time>
      </trkpt>
      <trkpt lat="33.913787" lon="-3.082789">
        <ele>1100.8</ele>
        <time>2008-09-25T09:18:16Z</time>
      </trkpt>
      <trkpt lat="33.913536" lon="-3.083230">
        <ele>1098.4</ele>
        <time>2008-09-25T09:18:23Z</time>
      </trkpt>
      <trkpt lat="33.913229" lon="-3.083625">
        <ele>1098.0</ele>
        <time>2008-09-25T09:18:34Z</time>
      </trkpt>
      <trkpt lat="33.913020" lon="-3.084125">
        <ele>1098.4</ele>
        <time>2008-09-25T09:18:45Z</time>
      </trkpt>
      <trkpt lat="33.912661" lon="-3.084603">
        <ele>1101.8</ele>
        <time>2008-09-25T09:18:52Z</time>
      </trkpt>
      <trkpt lat="33.912314" lon="-3.085077">
        <ele>1102.8</ele>
        <time>2008-09-25T09:18:57Z</time>
      </trkpt>
      <trkpt lat="33.911974" lon="-3.085490">
        <ele>1103.3</ele>
        <time>2008-09-25T09:19:02Z</time>
      </trkpt>
      <trkpt lat="33.911552" lon="-3.085752">
        <ele>1102.8</ele>
        <time>2008-09-25T09:19:08Z</time>
      </trkpt>
      <trkpt lat="33.911262" lon="-3.086236">
        <ele>1103.3</ele>
        <time>2008-09-25T09:19:15Z</time>
      </trkpt>
      <trkpt lat="33.910982" lon="-3.086735">
        <ele>1104.7</ele>
        <time>2008-09-25T09:19:41Z</time>
      </trkpt>
      <trkpt lat="33.910761" lon="-3.087170">
        <ele>1106.1</ele>
        <time>2008-09-25T09:19:48Z</time>
      </trkpt>
      <trkpt lat="33.910569" lon="-3.087703">
        <ele>1105.2</ele>
        <time>2008-09-25T09:19:55Z</time>
      </trkpt>
      <trkpt lat="33.910363" lon="-3.088286">
        <ele>1104.2</ele>
        <time>2008-09-25T09:20:01Z</time>
      </trkpt>
      <trkpt lat="33.910164" lon="-3.088854">
        <ele>1102.3</ele>
        <time>2008-09-25T09:20:06Z</time>
      </trkpt>
      <trkpt lat="33.909964" lon="-3.089404">
        <ele>1102.3</ele>
        <time>2008-09-25T09:20:10Z</time>
      </trkpt>
      <trkpt lat="33.909774" lon="-3.089956">
        <ele>1102.3</ele>
        <time>2008-09-25T09:20:14Z</time>
      </trkpt>
      <trkpt lat="33.909589" lon="-3.090470">
        <ele>1102.3</ele>
        <time>2008-09-25T09:20:18Z</time>
      </trkpt>
      <trkpt lat="33.909376" lon="-3.091077">
        <ele>1101.8</ele>
        <time>2008-09-25T09:20:23Z</time>
      </trkpt>
      <trkpt lat="33.909186" lon="-3.091603">
        <ele>1104.2</ele>
        <time>2008-09-25T09:20:27Z</time>
      </trkpt>
      <trkpt lat="33.908986" lon="-3.092121">
        <ele>1104.2</ele>
        <time>2008-09-25T09:20:31Z</time>
      </trkpt>
      <trkpt lat="33.908814" lon="-3.092664">
        <ele>1102.3</ele>
        <time>2008-09-25T09:20:35Z</time>
      </trkpt>
      <trkpt lat="33.908663" lon="-3.093205">
        <ele>1103.7</ele>
        <time>2008-09-25T09:20:39Z</time>
      </trkpt>
      <trkpt lat="33.908503" lon="-3.093724">
        <ele>1102.8</ele>
        <time>2008-09-25T09:20:43Z</time>
      </trkpt>
      <trkpt lat="33.908342" lon="-3.094282">
        <ele>1101.8</ele>
        <time>2008-09-25T09:20:47Z</time>
      </trkpt>
      <trkpt lat="33.908167" lon="-3.094891">
        <ele>1100.8</ele>
        <time>2008-09-25T09:20:51Z</time>
      </trkpt>
      <trkpt lat="33.907992" lon="-3.095470">
        <ele>1099.4</ele>
        <time>2008-09-25T09:20:55Z</time>
      </trkpt>
      <trkpt lat="33.907727" lon="-3.096082">
        <ele>1101.3</ele>
        <time>2008-09-25T09:21:00Z</time>
      </trkpt>
      <trkpt lat="33.907464" lon="-3.096524">
        <ele>1100.8</ele>
        <time>2008-09-25T09:21:04Z</time>
      </trkpt>
      <trkpt lat="33.907191" lon="-3.096996">
        <ele>1099.9</ele>
        <time>2008-09-25T09:21:12Z</time>
      </trkpt>
      <trkpt lat="33.906978" lon="-3.097530">
        <ele>1099.4</ele>
        <time>2008-09-25T09:21:23Z</time>
      </trkpt>
      <trkpt lat="33.906768" lon="-3.098041">
        <ele>1098.0</ele>
        <time>2008-09-25T09:21:32Z</time>
      </trkpt>
      <trkpt lat="33.906532" lon="-3.098543">
        <ele>1096.0</ele>
        <time>2008-09-25T09:21:41Z</time>
      </trkpt>
      <trkpt lat="33.906297" lon="-3.099004">
        <ele>1095.1</ele>
        <time>2008-09-25T09:21:49Z</time>
      </trkpt>
      <trkpt lat="33.905924" lon="-3.099365">
        <ele>1093.2</ele>
        <time>2008-09-25T09:21:59Z</time>
      </trkpt>
      <trkpt lat="33.905531" lon="-3.099733">
        <ele>1094.1</ele>
        <time>2008-09-25T09:22:06Z</time>
      </trkpt>
      <trkpt lat="33.905118" lon="-3.100133">
        <ele>1093.6</ele>
        <time>2008-09-25T09:22:12Z</time>
      </trkpt>
      <trkpt lat="33.904718" lon="-3.100507">
        <ele>1091.7</ele>
        <time>2008-09-25T09:22:18Z</time>
      </trkpt>
      <trkpt lat="33.904345" lon="-3.100851">
        <ele>1092.2</ele>
        <time>2008-09-25T09:22:25Z</time>
      </trkpt>
      <trkpt lat="33.903996" lon="-3.101182">
        <ele>1092.7</ele>
        <time>2008-09-25T09:22:32Z</time>
      </trkpt>
      <trkpt lat="33.903694" lon="-3.101618">
        <ele>1091.7</ele>
        <time>2008-09-25T09:22:39Z</time>
      </trkpt>
      <trkpt lat="33.903463" lon="-3.102154">
        <ele>1090.3</ele>
        <time>2008-09-25T09:22:46Z</time>
      </trkpt>
      <trkpt lat="33.903210" lon="-3.102661">
        <ele>1088.8</ele>
        <time>2008-09-25T09:22:54Z</time>
      </trkpt>
      <trkpt lat="33.903159" lon="-3.103208">
        <ele>1088.3</ele>
        <time>2008-09-25T09:23:02Z</time>
      </trkpt>
      <trkpt lat="33.903202" lon="-3.103811">
        <ele>1086.9</ele>
        <time>2008-09-25T09:23:11Z</time>
      </trkpt>
      <trkpt lat="33.903333" lon="-3.104385">
        <ele>1085.5</ele>
        <time>2008-09-25T09:23:19Z</time>
      </trkpt>
      <trkpt lat="33.903586" lon="-3.104998">
        <ele>1084.0</ele>
        <time>2008-09-25T09:23:27Z</time>
      </trkpt>
      <trkpt lat="33.903805" lon="-3.105563">
        <ele>1082.6</ele>
        <time>2008-09-25T09:23:35Z</time>
      </trkpt>
      <trkpt lat="33.904027" lon="-3.106101">
        <ele>1080.7</ele>
        <time>2008-09-25T09:23:42Z</time>
      </trkpt>
      <trkpt lat="33.904271" lon="-3.106625">
        <ele>1078.3</ele>
        <time>2008-09-25T09:23:50Z</time>
      </trkpt>
      <trkpt lat="33.904528" lon="-3.107189">
        <ele>1076.8</ele>
        <time>2008-09-25T09:23:58Z</time>
      </trkpt>
      <trkpt lat="33.904727" lon="-3.107762">
        <ele>1074.4</ele>
        <time>2008-09-25T09:24:05Z</time>
      </trkpt>
      <trkpt lat="33.904802" lon="-3.108356">
        <ele>1074.4</ele>
        <time>2008-09-25T09:24:11Z</time>
      </trkpt>
      <trkpt lat="33.904769" lon="-3.108969">
        <ele>1074.9</ele>
        <time>2008-09-25T09:24:18Z</time>
      </trkpt>
      <trkpt lat="33.904635" lon="-3.109499">
        <ele>1076.3</ele>
        <time>2008-09-25T09:24:26Z</time>
      </trkpt>
      <trkpt lat="33.904438" lon="-3.110083">
        <ele>1077.8</ele>
        <time>2008-09-25T09:24:33Z</time>
      </trkpt>
      <trkpt lat="33.904160" lon="-3.110555">
        <ele>1079.2</ele>
        <time>2008-09-25T09:24:39Z</time>
      </trkpt>
      <trkpt lat="33.903803" lon="-3.111045">
        <ele>1076.8</ele>
        <time>2008-09-25T09:24:45Z</time>
      </trkpt>
      <trkpt lat="33.903514" lon="-3.111485">
        <ele>1075.9</ele>
        <time>2008-09-25T09:24:50Z</time>
      </trkpt>
      <trkpt lat="33.903264" lon="-3.111970">
        <ele>1074.4</ele>
        <time>2008-09-25T09:24:56Z</time>
      </trkpt>
      <trkpt lat="33.903008" lon="-3.112505">
        <ele>1076.8</ele>
        <time>2008-09-25T09:25:06Z</time>
      </trkpt>
      <trkpt lat="33.902745" lon="-3.113040">
        <ele>1079.2</ele>
        <time>2008-09-25T09:25:13Z</time>
      </trkpt>
      <trkpt lat="33.902484" lon="-3.113602">
        <ele>1081.1</ele>
        <time>2008-09-25T09:25:20Z</time>
      </trkpt>
      <trkpt lat="33.902217" lon="-3.114097">
        <ele>1081.6</ele>
        <time>2008-09-25T09:25:26Z</time>
      </trkpt>
      <trkpt lat="33.901918" lon="-3.114553">
        <ele>1082.1</ele>
        <time>2008-09-25T09:25:32Z</time>
      </trkpt>
      <trkpt lat="33.901653" lon="-3.115014">
        <ele>1084.0</ele>
        <time>2008-09-25T09:25:43Z</time>
      </trkpt>
      <trkpt lat="33.901429" lon="-3.115463">
        <ele>1085.5</ele>
        <time>2008-09-25T09:25:56Z</time>
      </trkpt>
      <trkpt lat="33.901359" lon="-3.116001">
        <ele>1085.5</ele>
        <time>2008-09-25T09:26:08Z</time>
      </trkpt>
      <trkpt lat="33.901119" lon="-3.116471">
        <ele>1085.0</ele>
        <time>2008-09-25T09:26:23Z</time>
      </trkpt>
      <trkpt lat="33.900711" lon="-3.116630">
        <ele>1085.0</ele>
        <time>2008-09-25T09:26:34Z</time>
      </trkpt>
      <trkpt lat="33.900337" lon="-3.116931">
        <ele>1083.5</ele>
        <time>2008-09-25T09:26:44Z</time>
      </trkpt>
      <trkpt lat="33.900033" lon="-3.117312">
        <ele>1083.5</ele>
        <time>2008-09-25T09:26:54Z</time>
      </trkpt>
      <trkpt lat="33.899925" lon="-3.117835">
        <ele>1084.0</ele>
        <time>2008-09-25T09:27:05Z</time>
      </trkpt>
      <trkpt lat="33.899777" lon="-3.118340">
        <ele>1084.0</ele>
        <time>2008-09-25T09:27:12Z</time>
      </trkpt>
      <trkpt lat="33.899598" lon="-3.118846">
        <ele>1083.1</ele>
        <time>2008-09-25T09:27:20Z</time>
      </trkpt>
      <trkpt lat="33.899355" lon="-3.119343">
        <ele>1081.1</ele>
        <time>2008-09-25T09:27:29Z</time>
      </trkpt>
      <trkpt lat="33.898901" lon="-3.119410">
        <ele>1081.6</ele>
        <time>2008-09-25T09:27:37Z</time>
      </trkpt>
      <trkpt lat="33.898415" lon="-3.119403">
        <ele>1081.1</ele>
        <time>2008-09-25T09:27:45Z</time>
      </trkpt>
      <trkpt lat="33.897905" lon="-3.119431">
        <ele>1080.2</ele>
        <time>2008-09-25T09:27:53Z</time>
      </trkpt>
      <trkpt lat="33.897489" lon="-3.119640">
        <ele>1078.7</ele>
        <time>2008-09-25T09:28:03Z</time>
      </trkpt>
      <trkpt lat="33.897052" lon="-3.119854">
        <ele>1078.7</ele>
        <time>2008-09-25T09:28:11Z</time>
      </trkpt>
      <trkpt lat="33.896575" lon="-3.120078">
        <ele>1079.2</ele>
        <time>2008-09-25T09:28:19Z</time>
      </trkpt>
      <trkpt lat="33.896130" lon="-3.120250">
        <ele>1078.3</ele>
        <time>2008-09-25T09:28:29Z</time>
      </trkpt>
      <trkpt lat="33.895658" lon="-3.120413">
        <ele>1078.7</ele>
        <time>2008-09-25T09:28:39Z</time>
      </trkpt>
      <trkpt lat="33.895164" lon="-3.120414">
        <ele>1079.2</ele>
        <time>2008-09-25T09:28:49Z</time>
      </trkpt>
      <trkpt lat="33.894662" lon="-3.120362">
        <ele>1079.7</ele>
        <time>2008-09-25T09:28:57Z</time>
      </trkpt>
      <trkpt lat="33.894175" lon="-3.120257">
        <ele>1079.2</ele>
        <time>2008-09-25T09:29:05Z</time>
      </trkpt>
      <trkpt lat="33.893700" lon="-3.120234">
        <ele>1077.3</ele>
        <time>2008-09-25T09:29:18Z</time>
      </trkpt>
      <trkpt lat="33.893243" lon="-3.120359">
        <ele>1075.4</ele>
        <time>2008-09-25T09:29:31Z</time>
      </trkpt>
      <trkpt lat="33.892779" lon="-3.120500">
        <ele>1075.4</ele>
        <time>2008-09-25T09:29:44Z</time>
      </trkpt>
      <trkpt lat="33.892331" lon="-3.120617">
        <ele>1075.9</ele>
        <time>2008-09-25T09:29:55Z</time>
      </trkpt>
      <trkpt lat="33.891865" lon="-3.120745">
        <ele>1075.4</ele>
        <time>2008-09-25T09:30:07Z</time>
      </trkpt>
      <trkpt lat="33.891386" lon="-3.120881">
        <ele>1075.9</ele>
        <time>2008-09-25T09:30:22Z</time>
      </trkpt>
      <trkpt lat="33.890942" lon="-3.120998">
        <ele>1075.4</ele>
        <time>2008-09-25T09:30:34Z</time>
      </trkpt>
      <trkpt lat="33.890473" lon="-3.121157">
        <ele>1074.9</ele>
        <time>2008-09-25T09:30:46Z</time>
      </trkpt>
      <trkpt lat="33.890038" lon="-3.121396">
        <ele>1073.4</ele>
        <time>2008-09-25T09:30:56Z</time>
      </trkpt>
      <trkpt lat="33.889663" lon="-3.121698">
        <ele>1073.0</ele>
        <time>2008-09-25T09:31:09Z</time>
      </trkpt>
      <trkpt lat="33.889282" lon="-3.122047">
        <ele>1072.5</ele>
        <time>2008-09-25T09:31:22Z</time>
      </trkpt>
      <trkpt lat="33.888989" lon="-3.122475">
        <ele>1070.6</ele>
        <time>2008-09-25T09:31:34Z</time>
      </trkpt>
      <trkpt lat="33.888712" lon="-3.122947">
        <ele>1068.2</ele>
        <time>2008-09-25T09:31:52Z</time>
      </trkpt>
      <trkpt lat="33.888527" lon="-3.123467">
        <ele>1065.3</ele>
        <time>2008-09-25T09:32:04Z</time>
      </trkpt>
      <trkpt lat="33.888371" lon="-3.124001">
        <ele>1063.8</ele>
        <time>2008-09-25T09:32:17Z</time>
      </trkpt>
      <trkpt lat="33.888207" lon="-3.124542">
        <ele>1061.0</ele>
        <time>2008-09-25T09:32:31Z</time>
      </trkpt>
      <trkpt lat="33.887984" lon="-3.125030">
        <ele>1058.1</ele>
        <time>2008-09-25T09:32:46Z</time>
      </trkpt>
      <trkpt lat="33.887739" lon="-3.125527">
        <ele>1055.7</ele>
        <time>2008-09-25T09:33:02Z</time>
      </trkpt>
      <trkpt lat="33.887567" lon="-3.126068">
        <ele>1054.2</ele>
        <time>2008-09-25T09:33:20Z</time>
      </trkpt>
      <trkpt lat="33.887420" lon="-3.126625">
        <ele>1052.3</ele>
        <time>2008-09-25T09:33:38Z</time>
      </trkpt>
      <trkpt lat="33.887310" lon="-3.127155">
        <ele>1049.4</ele>
        <time>2008-09-25T09:33:58Z</time>
      </trkpt>
      <trkpt lat="33.887098" lon="-3.127668">
        <ele>1048.0</ele>
        <time>2008-09-25T09:34:13Z</time>
      </trkpt>
      <trkpt lat="33.886897" lon="-3.128164">
        <ele>1045.1</ele>
        <time>2008-09-25T09:34:27Z</time>
      </trkpt>
      <trkpt lat="33.886689" lon="-3.128663">
        <ele>1042.2</ele>
        <time>2008-09-25T09:34:43Z</time>
      </trkpt>
      <trkpt lat="33.886491" lon="-3.129161">
        <ele>1040.8</ele>
        <time>2008-09-25T09:34:57Z</time>
      </trkpt>
      <trkpt lat="33.886288" lon="-3.129683">
        <ele>1039.8</ele>
        <time>2008-09-25T09:35:13Z</time>
      </trkpt>
      <trkpt lat="33.886078" lon="-3.130213">
        <ele>1039.3</ele>
        <time>2008-09-25T09:35:30Z</time>
      </trkpt>
      <trkpt lat="33.885881" lon="-3.130714">
        <ele>1039.3</ele>
        <time>2008-09-25T09:35:41Z</time>
      </trkpt>
      <trkpt lat="33.885684" lon="-3.131242">
        <ele>1039.3</ele>
        <time>2008-09-25T09:35:52Z</time>
      </trkpt>
      <trkpt lat="33.885401" lon="-3.131697">
        <ele>1038.4</ele>
        <time>2008-09-25T09:36:03Z</time>
      </trkpt>
      <trkpt lat="33.884940" lon="-3.131869">
        <ele>1036.9</ele>
        <time>2008-09-25T09:36:14Z</time>
      </trkpt>
      <trkpt lat="33.884483" lon="-3.132009">
        <ele>1035.5</ele>
        <time>2008-09-25T09:36:27Z</time>
      </trkpt>
      <trkpt lat="33.884021" lon="-3.132158">
        <ele>1033.6</ele>
        <time>2008-09-25T09:36:39Z</time>
      </trkpt>
      <trkpt lat="33.883566" lon="-3.132292">
        <ele>1031.6</ele>
        <time>2008-09-25T09:36:55Z</time>
      </trkpt>
      <trkpt lat="33.883108" lon="-3.132448">
        <ele>1029.7</ele>
        <time>2008-09-25T09:37:08Z</time>
      </trkpt>
      <trkpt lat="33.882676" lon="-3.132604">
        <ele>1027.3</ele>
        <time>2008-09-25T09:37:23Z</time>
      </trkpt>
      <trkpt lat="33.882232" lon="-3.132730">
        <ele>1024.9</ele>
        <time>2008-09-25T09:37:40Z</time>
      </trkpt>
      <trkpt lat="33.881790" lon="-3.132907">
        <ele>1022.5</ele>
        <time>2008-09-25T09:38:27Z</time>
      </trkpt>
      <trkpt lat="33.881334" lon="-3.133053">
        <ele>1021.1</ele>
        <time>2008-09-25T09:38:42Z</time>
      </trkpt>
      <trkpt lat="33.880882" lon="-3.133225">
        <ele>1021.1</ele>
        <time>2008-09-25T09:38:54Z</time>
      </trkpt>
      <trkpt lat="33.880419" lon="-3.133373">
        <ele>1020.1</ele>
        <time>2008-09-25T09:39:06Z</time>
      </trkpt>
      <trkpt lat="33.879974" lon="-3.133549">
        <ele>1019.6</ele>
        <time>2008-09-25T09:39:19Z</time>
      </trkpt>
      <trkpt lat="33.879528" lon="-3.133712">
        <ele>1019.1</ele>
        <time>2008-09-25T09:39:31Z</time>
      </trkpt>
      <trkpt lat="33.879082" lon="-3.133879">
        <ele>1019.1</ele>
        <time>2008-09-25T09:39:44Z</time>
      </trkpt>
      <trkpt lat="33.878633" lon="-3.134050">
        <ele>1018.2</ele>
        <time>2008-09-25T09:39:58Z</time>
      </trkpt>
      <trkpt lat="33.878176" lon="-3.134215">
        <ele>1018.7</ele>
        <time>2008-09-25T09:40:10Z</time>
      </trkpt>
      <trkpt lat="33.877727" lon="-3.134378">
        <ele>1018.7</ele>
        <time>2008-09-25T09:40:24Z</time>
      </trkpt>
      <trkpt lat="33.877290" lon="-3.134533">
        <ele>1018.7</ele>
        <time>2008-09-25T09:40:36Z</time>
      </trkpt>
      <trkpt lat="33.876840" lon="-3.134701">
        <ele>1019.1</ele>
        <time>2008-09-25T09:40:50Z</time>
      </trkpt>
      <trkpt lat="33.876384" lon="-3.134874">
        <ele>1019.1</ele>
        <time>2008-09-25T09:41:05Z</time>
      </trkpt>
      <trkpt lat="33.875924" lon="-3.135042">
        <ele>1019.6</ele>
        <time>2008-09-25T09:41:19Z</time>
      </trkpt>
      <trkpt lat="33.875489" lon="-3.135204">
        <ele>1017.7</ele>
        <time>2008-09-25T09:41:30Z</time>
      </trkpt>
      <trkpt lat="33.875040" lon="-3.135375">
        <ele>1017.2</ele>
        <time>2008-09-25T09:41:44Z</time>
      </trkpt>
      <trkpt lat="33.874575" lon="-3.135546">
        <ele>1017.2</ele>
        <time>2008-09-25T09:41:57Z</time>
      </trkpt>
      <trkpt lat="33.874116" lon="-3.135706">
        <ele>1018.2</ele>
        <time>2008-09-25T09:42:10Z</time>
      </trkpt>
      <trkpt lat="33.873665" lon="-3.135878">
        <ele>1018.7</ele>
        <time>2008-09-25T09:42:22Z</time>
      </trkpt>
      <trkpt lat="33.873215" lon="-3.136034">
        <ele>1018.7</ele>
        <time>2008-09-25T09:42:34Z</time>
      </trkpt>
      <trkpt lat="33.872712" lon="-3.136129">
        <ele>1017.7</ele>
        <time>2008-09-25T09:42:43Z</time>
      </trkpt>
      <trkpt lat="33.872214" lon="-3.136240">
        <ele>1017.2</ele>
        <time>2008-09-25T09:42:52Z</time>
      </trkpt>
      <trkpt lat="33.871723" lon="-3.136326">
        <ele>1017.7</ele>
        <time>2008-09-25T09:43:01Z</time>
      </trkpt>
      <trkpt lat="33.871253" lon="-3.136423">
        <ele>1017.2</ele>
        <time>2008-09-25T09:43:09Z</time>
      </trkpt>
      <trkpt lat="33.870802" lon="-3.136506">
        <ele>1016.7</ele>
        <time>2008-09-25T09:43:17Z</time>
      </trkpt>
      <trkpt lat="33.870341" lon="-3.136591">
        <ele>1016.7</ele>
        <time>2008-09-25T09:43:28Z</time>
      </trkpt>
      <trkpt lat="33.869878" lon="-3.136679">
        <ele>1016.7</ele>
        <time>2008-09-25T09:43:41Z</time>
      </trkpt>
      <trkpt lat="33.869416" lon="-3.136772">
        <ele>1017.7</ele>
        <time>2008-09-25T09:43:51Z</time>
      </trkpt>
      <trkpt lat="33.868957" lon="-3.136863">
        <ele>1017.7</ele>
        <time>2008-09-25T09:44:01Z</time>
      </trkpt>
      <trkpt lat="33.868491" lon="-3.136986">
        <ele>1018.2</ele>
        <time>2008-09-25T09:44:11Z</time>
      </trkpt>
      <trkpt lat="33.868052" lon="-3.137207">
        <ele>1019.1</ele>
        <time>2008-09-25T09:44:21Z</time>
      </trkpt>
      <trkpt lat="33.867633" lon="-3.137416">
        <ele>1020.1</ele>
        <time>2008-09-25T09:44:33Z</time>
      </trkpt>
      <trkpt lat="33.867213" lon="-3.137622">
        <ele>1021.5</ele>
        <time>2008-09-25T09:44:44Z</time>
      </trkpt>
      <trkpt lat="33.866802" lon="-3.137852">
        <ele>1023.0</ele>
        <time>2008-09-25T09:44:54Z</time>
      </trkpt>
      <trkpt lat="33.866374" lon="-3.138112">
        <ele>1024.4</ele>
        <time>2008-09-25T09:45:03Z</time>
      </trkpt>
      <trkpt lat="33.865954" lon="-3.138377">
        <ele>1024.9</ele>
        <time>2008-09-25T09:45:12Z</time>
      </trkpt>
      <trkpt lat="33.865578" lon="-3.138709">
        <ele>1024.9</ele>
        <time>2008-09-25T09:45:21Z</time>
      </trkpt>
      <trkpt lat="33.865255" lon="-3.139127">
        <ele>1024.4</ele>
        <time>2008-09-25T09:45:31Z</time>
      </trkpt>
      <trkpt lat="33.865082" lon="-3.139629">
        <ele>1023.0</ele>
        <time>2008-09-25T09:45:39Z</time>
      </trkpt>
      <trkpt lat="33.864945" lon="-3.140199">
        <ele>1020.6</ele>
        <time>2008-09-25T09:45:48Z</time>
      </trkpt>
      <trkpt lat="33.864815" lon="-3.140795">
        <ele>1018.7</ele>
        <time>2008-09-25T09:45:57Z</time>
      </trkpt>
      <trkpt lat="33.864647" lon="-3.141293">
        <ele>1016.3</ele>
        <time>2008-09-25T09:46:07Z</time>
      </trkpt>
      <trkpt lat="33.864561" lon="-3.141820">
        <ele>1014.3</ele>
        <time>2008-09-25T09:46:19Z</time>
      </trkpt>
      <trkpt lat="33.864421" lon="-3.142361">
        <ele>1012.9</ele>
        <time>2008-09-25T09:46:29Z</time>
      </trkpt>
      <trkpt lat="33.864112" lon="-3.142827">
        <ele>1013.4</ele>
        <time>2008-09-25T09:46:36Z</time>
      </trkpt>
      <trkpt lat="33.863822" lon="-3.143248">
        <ele>1012.4</ele>
        <time>2008-09-25T09:46:44Z</time>
      </trkpt>
      <trkpt lat="33.863570" lon="-3.143700">
        <ele>1010.0</ele>
        <time>2008-09-25T09:46:53Z</time>
      </trkpt>
      <trkpt lat="33.863258" lon="-3.144138">
        <ele>1010.5</ele>
        <time>2008-09-25T09:46:59Z</time>
      </trkpt>
      <trkpt lat="33.862917" lon="-3.144537">
        <ele>1011.0</ele>
        <time>2008-09-25T09:47:06Z</time>
      </trkpt>
      <trkpt lat="33.862734" lon="-3.145022">
        <ele>1007.6</ele>
        <time>2008-09-25T09:47:17Z</time>
      </trkpt>
      <trkpt lat="33.862511" lon="-3.145511">
        <ele>1005.7</ele>
        <time>2008-09-25T09:47:28Z</time>
      </trkpt>
      <trkpt lat="33.862292" lon="-3.146041">
        <ele>1002.8</ele>
        <time>2008-09-25T09:47:38Z</time>
      </trkpt>
      <trkpt lat="33.862111" lon="-3.146605">
        <ele>1002.8</ele>
        <time>2008-09-25T09:47:46Z</time>
      </trkpt>
      <trkpt lat="33.861870" lon="-3.147123">
        <ele>999.9</ele>
        <time>2008-09-25T09:47:54Z</time>
      </trkpt>
      <trkpt lat="33.861601" lon="-3.147610">
        <ele>998.5</ele>
        <time>2008-09-25T09:48:03Z</time>
      </trkpt>
      <trkpt lat="33.861265" lon="-3.147964">
        <ele>999.4</ele>
        <time>2008-09-25T09:48:10Z</time>
      </trkpt>
      <trkpt lat="33.860888" lon="-3.148263">
        <ele>997.5</ele>
        <time>2008-09-25T09:48:16Z</time>
      </trkpt>
      <trkpt lat="33.860572" lon="-3.148723">
        <ele>996.1</ele>
        <time>2008-09-25T09:48:22Z</time>
      </trkpt>
      <trkpt lat="33.860711" lon="-3.149168">
        <ele>993.7</ele>
        <time>2008-09-25T09:48:30Z</time>
      </trkpt>
      <trkpt lat="33.860993" lon="-3.149583">
        <ele>992.7</ele>
        <time>2008-09-25T09:48:39Z</time>
      </trkpt>
      <trkpt lat="33.861353" lon="-3.149949">
        <ele>993.2</ele>
        <time>2008-09-25T09:48:47Z</time>
      </trkpt>
      <trkpt lat="33.861773" lon="-3.150188">
        <ele>991.3</ele>
        <time>2008-09-25T09:48:55Z</time>
      </trkpt>
      <trkpt lat="33.862197" lon="-3.150383">
        <ele>989.8</ele>
        <time>2008-09-25T09:49:01Z</time>
      </trkpt>
      <trkpt lat="33.862516" lon="-3.150749">
        <ele>987.9</ele>
        <time>2008-09-25T09:49:12Z</time>
      </trkpt>
      <trkpt lat="33.862734" lon="-3.151216">
        <ele>986.4</ele>
        <time>2008-09-25T09:49:19Z</time>
      </trkpt>
      <trkpt lat="33.862919" lon="-3.151727">
        <ele>984.0</ele>
        <time>2008-09-25T09:49:28Z</time>
      </trkpt>
      <trkpt lat="33.863161" lon="-3.152214">
        <ele>983.1</ele>
        <time>2008-09-25T09:49:40Z</time>
      </trkpt>
      <trkpt lat="33.863282" lon="-3.152743">
        <ele>981.2</ele>
        <time>2008-09-25T09:49:52Z</time>
      </trkpt>
      <trkpt lat="33.863532" lon="-3.153215">
        <ele>978.8</ele>
        <time>2008-09-25T09:50:02Z</time>
      </trkpt>
      <trkpt lat="33.863360" lon="-3.153771">
        <ele>979.7</ele>
        <time>2008-09-25T09:50:11Z</time>
      </trkpt>
      <trkpt lat="33.863143" lon="-3.154279">
        <ele>978.3</ele>
        <time>2008-09-25T09:50:20Z</time>
      </trkpt>
      <trkpt lat="33.862947" lon="-3.154807">
        <ele>977.3</ele>
        <time>2008-09-25T09:50:32Z</time>
      </trkpt>
      <trkpt lat="33.862721" lon="-3.155312">
        <ele>976.8</ele>
        <time>2008-09-25T09:50:44Z</time>
      </trkpt>
      <trkpt lat="33.862503" lon="-3.155840">
        <ele>976.4</ele>
        <time>2008-09-25T09:50:56Z</time>
      </trkpt>
      <trkpt lat="33.862301" lon="-3.156375">
        <ele>975.9</ele>
        <time>2008-09-25T09:51:07Z</time>
      </trkpt>
      <trkpt lat="33.861989" lon="-3.156359">
        <ele>975.9</ele>
        <time>2008-09-25T09:51:20Z</time>
      </trkpt>
      <trkpt lat="33.861619" lon="-3.155988">
        <ele>975.4</ele>
        <time>2008-09-25T09:51:30Z</time>
      </trkpt>
      <trkpt lat="33.861256" lon="-3.155633">
        <ele>974.4</ele>
        <time>2008-09-25T09:51:40Z</time>
      </trkpt>
      <trkpt lat="33.860832" lon="-3.155378">
        <ele>976.8</ele>
        <time>2008-09-25T09:51:51Z</time>
      </trkpt>
      <trkpt lat="33.860380" lon="-3.155174">
        <ele>977.3</ele>
        <time>2008-09-25T09:51:59Z</time>
      </trkpt>
      <trkpt lat="33.859968" lon="-3.155444">
        <ele>976.4</ele>
        <time>2008-09-25T09:52:07Z</time>
      </trkpt>
      <trkpt lat="33.859576" lon="-3.155757">
        <ele>977.8</ele>
        <time>2008-09-25T09:52:14Z</time>
      </trkpt>
      <trkpt lat="33.859225" lon="-3.156163">
        <ele>976.8</ele>
        <time>2008-09-25T09:52:23Z</time>
      </trkpt>
      <trkpt lat="33.858914" lon="-3.156569">
        <ele>977.8</ele>
        <time>2008-09-25T09:52:30Z</time>
      </trkpt>
      <trkpt lat="33.858482" lon="-3.156609">
        <ele>979.7</ele>
        <time>2008-09-25T09:52:52Z</time>
      </trkpt>
      <trkpt lat="33.858037" lon="-3.156394">
        <ele>982.6</ele>
        <time>2008-09-25T09:53:01Z</time>
      </trkpt>
      <trkpt lat="33.857572" lon="-3.156476">
        <ele>983.1</ele>
        <time>2008-09-25T09:53:10Z</time>
      </trkpt>
      <trkpt lat="33.857112" lon="-3.156599">
        <ele>983.6</ele>
        <time>2008-09-25T09:53:18Z</time>
      </trkpt>
      <trkpt lat="33.856655" lon="-3.156604">
        <ele>986.0</ele>
        <time>2008-09-25T09:53:26Z</time>
      </trkpt>
      <trkpt lat="33.856220" lon="-3.156307">
        <ele>986.9</ele>
        <time>2008-09-25T09:53:33Z</time>
      </trkpt>
      <trkpt lat="33.855827" lon="-3.155985">
        <ele>987.4</ele>
        <time>2008-09-25T09:53:39Z</time>
      </trkpt>
      <trkpt lat="33.855434" lon="-3.155613">
        <ele>988.4</ele>
        <time>2008-09-25T09:53:45Z</time>
      </trkpt>
      <trkpt lat="33.855129" lon="-3.155141">
        <ele>989.3</ele>
        <time>2008-09-25T09:53:51Z</time>
      </trkpt>
      <trkpt lat="33.854803" lon="-3.154763">
        <ele>989.3</ele>
        <time>2008-09-25T09:53:59Z</time>
      </trkpt>
      <trkpt lat="33.854385" lon="-3.154525">
        <ele>990.8</ele>
        <time>2008-09-25T09:54:09Z</time>
      </trkpt>
      <trkpt lat="33.853921" lon="-3.154311">
        <ele>993.7</ele>
        <time>2008-09-25T09:54:16Z</time>
      </trkpt>
      <trkpt lat="33.853489" lon="-3.154175">
        <ele>993.7</ele>
        <time>2008-09-25T09:54:24Z</time>
      </trkpt>
      <trkpt lat="33.853055" lon="-3.154110">
        <ele>994.6</ele>
        <time>2008-09-25T09:54:33Z</time>
      </trkpt>
      <trkpt lat="33.852620" lon="-3.154130">
        <ele>997.0</ele>
        <time>2008-09-25T09:54:46Z</time>
      </trkpt>
      <trkpt lat="33.852206" lon="-3.153897">
        <ele>997.5</ele>
        <time>2008-09-25T09:54:57Z</time>
      </trkpt>
      <trkpt lat="33.851815" lon="-3.153607">
        <ele>997.0</ele>
        <time>2008-09-25T09:55:08Z</time>
      </trkpt>
      <trkpt lat="33.851451" lon="-3.153280">
        <ele>997.5</ele>
        <time>2008-09-25T09:55:17Z</time>
      </trkpt>
      <trkpt lat="33.851097" lon="-3.152893">
        <ele>996.5</ele>
        <time>2008-09-25T09:55:27Z</time>
      </trkpt>
      <trkpt lat="33.850709" lon="-3.152625">
        <ele>996.5</ele>
        <time>2008-09-25T09:55:38Z</time>
      </trkpt>
      <trkpt lat="33.850344" lon="-3.152278">
        <ele>995.6</ele>
        <time>2008-09-25T09:55:49Z</time>
      </trkpt>
      <trkpt lat="33.849983" lon="-3.151936">
        <ele>995.6</ele>
        <time>2008-09-25T09:56:00Z</time>
      </trkpt>
      <trkpt lat="33.849627" lon="-3.151584">
        <ele>995.6</ele>
        <time>2008-09-25T09:56:13Z</time>
      </trkpt>
      <trkpt lat="33.849243" lon="-3.151216">
        <ele>996.1</ele>
        <time>2008-09-25T09:56:22Z</time>
      </trkpt>
      <trkpt lat="33.848870" lon="-3.150875">
        <ele>995.6</ele>
        <time>2008-09-25T09:56:32Z</time>
      </trkpt>
      <trkpt lat="33.848512" lon="-3.150519">
        <ele>997.0</ele>
        <time>2008-09-25T09:56:43Z</time>
      </trkpt>
      <trkpt lat="33.848175" lon="-3.150123">
        <ele>995.6</ele>
        <time>2008-09-25T09:56:53Z</time>
      </trkpt>
      <trkpt lat="33.847831" lon="-3.149721">
        <ele>995.6</ele>
        <time>2008-09-25T09:57:03Z</time>
      </trkpt>
      <trkpt lat="33.847429" lon="-3.149376">
        <ele>995.6</ele>
        <time>2008-09-25T09:57:12Z</time>
      </trkpt>
      <trkpt lat="33.847023" lon="-3.149074">
        <ele>995.6</ele>
        <time>2008-09-25T09:57:21Z</time>
      </trkpt>
      <trkpt lat="33.846566" lon="-3.148921">
        <ele>996.5</ele>
        <time>2008-09-25T09:57:31Z</time>
      </trkpt>
      <trkpt lat="33.846108" lon="-3.148781">
        <ele>996.5</ele>
        <time>2008-09-25T09:57:39Z</time>
      </trkpt>
      <trkpt lat="33.845681" lon="-3.148549">
        <ele>998.0</ele>
        <time>2008-09-25T09:57:45Z</time>
      </trkpt>
      <trkpt lat="33.845229" lon="-3.148442">
        <ele>997.0</ele>
        <time>2008-09-25T09:57:51Z</time>
      </trkpt>
      <trkpt lat="33.844746" lon="-3.148331">
        <ele>997.0</ele>
        <time>2008-09-25T09:57:59Z</time>
      </trkpt>
      <trkpt lat="33.844281" lon="-3.148311">
        <ele>997.0</ele>
        <time>2008-09-25T09:58:06Z</time>
      </trkpt>
      <trkpt lat="33.843773" lon="-3.148281">
        <ele>996.5</ele>
        <time>2008-09-25T09:58:13Z</time>
      </trkpt>
      <trkpt lat="33.843260" lon="-3.148276">
        <ele>996.5</ele>
        <time>2008-09-25T09:58:20Z</time>
      </trkpt>
      <trkpt lat="33.842824" lon="-3.148149">
        <ele>996.5</ele>
        <time>2008-09-25T09:58:26Z</time>
      </trkpt>
      <trkpt lat="33.842366" lon="-3.148080">
        <ele>996.1</ele>
        <time>2008-09-25T09:58:32Z</time>
      </trkpt>
      <trkpt lat="33.841893" lon="-3.147999">
        <ele>995.6</ele>
        <time>2008-09-25T09:58:39Z</time>
      </trkpt>
      <trkpt lat="33.841434" lon="-3.147979">
        <ele>995.1</ele>
        <time>2008-09-25T09:58:46Z</time>
      </trkpt>
      <trkpt lat="33.840930" lon="-3.147987">
        <ele>995.1</ele>
        <time>2008-09-25T09:58:53Z</time>
      </trkpt>
      <trkpt lat="33.840450" lon="-3.148003">
        <ele>996.5</ele>
        <time>2008-09-25T09:59:00Z</time>
      </trkpt>
      <trkpt lat="33.839969" lon="-3.148032">
        <ele>996.5</ele>
        <time>2008-09-25T09:59:09Z</time>
      </trkpt>
      <trkpt lat="33.839455" lon="-3.148053">
        <ele>995.1</ele>
        <time>2008-09-25T09:59:17Z</time>
      </trkpt>
      <trkpt lat="33.839007" lon="-3.148226">
        <ele>994.6</ele>
        <time>2008-09-25T09:59:24Z</time>
      </trkpt>
      <trkpt lat="33.838525" lon="-3.148358">
        <ele>994.6</ele>
        <time>2008-09-25T09:59:32Z</time>
      </trkpt>
      <trkpt lat="33.838084" lon="-3.148486">
        <ele>993.7</ele>
        <time>2008-09-25T09:59:38Z</time>
      </trkpt>
      <trkpt lat="33.837615" lon="-3.148589">
        <ele>993.2</ele>
        <time>2008-09-25T09:59:46Z</time>
      </trkpt>
      <trkpt lat="33.837126" lon="-3.148671">
        <ele>993.2</ele>
        <time>2008-09-25T09:59:56Z</time>
      </trkpt>
      <trkpt lat="33.836682" lon="-3.148723">
        <ele>994.6</ele>
        <time>2008-09-25T10:00:05Z</time>
      </trkpt>
      <trkpt lat="33.836193" lon="-3.148804">
        <ele>994.1</ele>
        <time>2008-09-25T10:00:12Z</time>
      </trkpt>
      <trkpt lat="33.835686" lon="-3.148899">
        <ele>994.1</ele>
        <time>2008-09-25T10:00:19Z</time>
      </trkpt>
      <trkpt lat="33.835214" lon="-3.149085">
        <ele>993.7</ele>
        <time>2008-09-25T10:00:27Z</time>
      </trkpt>
      <trkpt lat="33.834762" lon="-3.149150">
        <ele>993.2</ele>
        <time>2008-09-25T10:00:34Z</time>
      </trkpt>
      <trkpt lat="33.834299" lon="-3.149198">
        <ele>992.7</ele>
        <time>2008-09-25T10:00:41Z</time>
      </trkpt>
      <trkpt lat="33.833792" lon="-3.149257">
        <ele>992.7</ele>
        <time>2008-09-25T10:00:48Z</time>
      </trkpt>
      <trkpt lat="33.833301" lon="-3.149331">
        <ele>993.2</ele>
        <time>2008-09-25T10:00:54Z</time>
      </trkpt>
      <trkpt lat="33.832787" lon="-3.149473">
        <ele>993.7</ele>
        <time>2008-09-25T10:01:00Z</time>
      </trkpt>
      <trkpt lat="33.832302" lon="-3.149675">
        <ele>991.3</ele>
        <time>2008-09-25T10:01:08Z</time>
      </trkpt>
      <trkpt lat="33.831882" lon="-3.149873">
        <ele>990.8</ele>
        <time>2008-09-25T10:01:14Z</time>
      </trkpt>
      <trkpt lat="33.831430" lon="-3.150095">
        <ele>988.9</ele>
        <time>2008-09-25T10:01:21Z</time>
      </trkpt>
      <trkpt lat="33.831088" lon="-3.150479">
        <ele>989.3</ele>
        <time>2008-09-25T10:01:28Z</time>
      </trkpt>
      <trkpt lat="33.830690" lon="-3.150874">
        <ele>989.3</ele>
        <time>2008-09-25T10:01:33Z</time>
      </trkpt>
      <trkpt lat="33.830269" lon="-3.151264">
        <ele>987.4</ele>
        <time>2008-09-25T10:01:38Z</time>
      </trkpt>
      <trkpt lat="33.829772" lon="-3.151505">
        <ele>987.9</ele>
        <time>2008-09-25T10:01:44Z</time>
      </trkpt>
      <trkpt lat="33.829244" lon="-3.151543">
        <ele>989.8</ele>
        <time>2008-09-25T10:01:49Z</time>
      </trkpt>
      <trkpt lat="33.828718" lon="-3.151638">
        <ele>986.9</ele>
        <time>2008-09-25T10:01:54Z</time>
      </trkpt>
      <trkpt lat="33.828259" lon="-3.151769">
        <ele>986.4</ele>
        <time>2008-09-25T10:01:59Z</time>
      </trkpt>
      <trkpt lat="33.827736" lon="-3.151841">
        <ele>985.0</ele>
        <time>2008-09-25T10:02:05Z</time>
      </trkpt>
      <trkpt lat="33.827248" lon="-3.151763">
        <ele>984.0</ele>
        <time>2008-09-25T10:02:12Z</time>
      </trkpt>
      <trkpt lat="33.826736" lon="-3.151764">
        <ele>984.0</ele>
        <time>2008-09-25T10:02:19Z</time>
      </trkpt>
      <trkpt lat="33.826299" lon="-3.151953">
        <ele>985.0</ele>
        <time>2008-09-25T10:02:26Z</time>
      </trkpt>
      <trkpt lat="33.825779" lon="-3.151999">
        <ele>985.5</ele>
        <time>2008-09-25T10:02:32Z</time>
      </trkpt>
      <trkpt lat="33.825299" lon="-3.152030">
        <ele>983.6</ele>
        <time>2008-09-25T10:02:38Z</time>
      </trkpt>
      <trkpt lat="33.824840" lon="-3.152039">
        <ele>984.5</ele>
        <time>2008-09-25T10:02:50Z</time>
      </trkpt>
      <trkpt lat="33.824274" lon="-3.152062">
        <ele>985.5</ele>
        <time>2008-09-25T10:02:55Z</time>
      </trkpt>
      <trkpt lat="33.823794" lon="-3.152078">
        <ele>983.1</ele>
        <time>2008-09-25T10:03:00Z</time>
      </trkpt>
      <trkpt lat="33.823281" lon="-3.152123">
        <ele>981.2</ele>
        <time>2008-09-25T10:03:06Z</time>
      </trkpt>
      <trkpt lat="33.822808" lon="-3.152230">
        <ele>980.2</ele>
        <time>2008-09-25T10:03:11Z</time>
      </trkpt>
      <trkpt lat="33.822244" lon="-3.152226">
        <ele>983.6</ele>
        <time>2008-09-25T10:03:16Z</time>
      </trkpt>
      <trkpt lat="33.821761" lon="-3.152244">
        <ele>982.1</ele>
        <time>2008-09-25T10:03:20Z</time>
      </trkpt>
      <trkpt lat="33.821220" lon="-3.152270">
        <ele>980.2</ele>
        <time>2008-09-25T10:03:25Z</time>
      </trkpt>
      <trkpt lat="33.820697" lon="-3.152282">
        <ele>979.2</ele>
        <time>2008-09-25T10:03:30Z</time>
      </trkpt>
      <trkpt lat="33.820236" lon="-3.152287">
        <ele>980.2</ele>
        <time>2008-09-25T10:03:34Z</time>
      </trkpt>
      <trkpt lat="33.819725" lon="-3.152305">
        <ele>977.3</ele>
        <time>2008-09-25T10:03:39Z</time>
      </trkpt>
      <trkpt lat="33.819266" lon="-3.152318">
        <ele>977.8</ele>
        <time>2008-09-25T10:03:45Z</time>
      </trkpt>
      <trkpt lat="33.818737" lon="-3.152247">
        <ele>978.8</ele>
        <time>2008-09-25T10:03:51Z</time>
      </trkpt>
      <trkpt lat="33.818249" lon="-3.152285">
        <ele>978.3</ele>
        <time>2008-09-25T10:03:56Z</time>
      </trkpt>
      <trkpt lat="33.817802" lon="-3.152291">
        <ele>976.8</ele>
        <time>2008-09-25T10:04:03Z</time>
      </trkpt>
      <trkpt lat="33.817265" lon="-3.152302">
        <ele>978.3</ele>
        <time>2008-09-25T10:04:09Z</time>
      </trkpt>
      <trkpt lat="33.816729" lon="-3.152305">
        <ele>982.6</ele>
        <time>2008-09-25T10:04:14Z</time>
      </trkpt>
      <trkpt lat="33.816205" lon="-3.152300">
        <ele>985.0</ele>
        <time>2008-09-25T10:04:18Z</time>
      </trkpt>
      <trkpt lat="33.815716" lon="-3.152314">
        <ele>982.6</ele>
        <time>2008-09-25T10:04:22Z</time>
      </trkpt>
      <trkpt lat="33.815223" lon="-3.152282">
        <ele>983.1</ele>
        <time>2008-09-25T10:04:26Z</time>
      </trkpt>
      <trkpt lat="33.814765" lon="-3.152169">
        <ele>982.1</ele>
        <time>2008-09-25T10:04:30Z</time>
      </trkpt>
      <trkpt lat="33.814293" lon="-3.152131">
        <ele>980.7</ele>
        <time>2008-09-25T10:04:34Z</time>
      </trkpt>
      <trkpt lat="33.813799" lon="-3.152042">
        <ele>981.2</ele>
        <time>2008-09-25T10:04:38Z</time>
      </trkpt>
      <trkpt lat="33.813276" lon="-3.151887">
        <ele>979.7</ele>
        <time>2008-09-25T10:04:43Z</time>
      </trkpt>
      <trkpt lat="33.812787" lon="-3.151731">
        <ele>982.1</ele>
        <time>2008-09-25T10:04:47Z</time>
      </trkpt>
      <trkpt lat="33.812253" lon="-3.151557">
        <ele>980.7</ele>
        <time>2008-09-25T10:04:51Z</time>
      </trkpt>
      <trkpt lat="33.811806" lon="-3.151421">
        <ele>977.8</ele>
        <time>2008-09-25T10:04:55Z</time>
      </trkpt>
      <trkpt lat="33.811282" lon="-3.151246">
        <ele>978.3</ele>
        <time>2008-09-25T10:04:59Z</time>
      </trkpt>
      <trkpt lat="33.810790" lon="-3.151122">
        <ele>975.4</ele>
        <time>2008-09-25T10:05:03Z</time>
      </trkpt>
      <trkpt lat="33.810249" lon="-3.150972">
        <ele>975.9</ele>
        <time>2008-09-25T10:05:08Z</time>
      </trkpt>
      <trkpt lat="33.809760" lon="-3.150812">
        <ele>972.5</ele>
        <time>2008-09-25T10:05:13Z</time>
      </trkpt>
      <trkpt lat="33.809273" lon="-3.150698">
        <ele>974.9</ele>
        <time>2008-09-25T10:05:19Z</time>
      </trkpt>
      <trkpt lat="33.808807" lon="-3.150676">
        <ele>976.4</ele>
        <time>2008-09-25T10:05:23Z</time>
      </trkpt>
      <trkpt lat="33.808282" lon="-3.150692">
        <ele>977.8</ele>
        <time>2008-09-25T10:05:27Z</time>
      </trkpt>
      <trkpt lat="33.807846" lon="-3.150500">
        <ele>973.0</ele>
        <time>2008-09-25T10:05:32Z</time>
      </trkpt>
      <trkpt lat="33.807397" lon="-3.150210">
        <ele>976.4</ele>
        <time>2008-09-25T10:05:38Z</time>
      </trkpt>
      <trkpt lat="33.806938" lon="-3.149884">
        <ele>978.3</ele>
        <time>2008-09-25T10:05:42Z</time>
      </trkpt>
      <trkpt lat="33.806412" lon="-3.149742">
        <ele>977.8</ele>
        <time>2008-09-25T10:05:46Z</time>
      </trkpt>
      <trkpt lat="33.805849" lon="-3.149545">
        <ele>979.2</ele>
        <time>2008-09-25T10:05:50Z</time>
      </trkpt>
      <trkpt lat="33.805366" lon="-3.149373">
        <ele>981.2</ele>
        <time>2008-09-25T10:05:53Z</time>
      </trkpt>
      <trkpt lat="33.804854" lon="-3.149138">
        <ele>982.6</ele>
        <time>2008-09-25T10:05:56Z</time>
      </trkpt>
      <trkpt lat="33.804313" lon="-3.148896">
        <ele>977.8</ele>
        <time>2008-09-25T10:06:00Z</time>
      </trkpt>
      <trkpt lat="33.803801" lon="-3.148671">
        <ele>979.2</ele>
        <time>2008-09-25T10:06:04Z</time>
      </trkpt>
      <trkpt lat="33.803316" lon="-3.148449">
        <ele>978.8</ele>
        <time>2008-09-25T10:06:08Z</time>
      </trkpt>
      <trkpt lat="33.802826" lon="-3.148234">
        <ele>980.2</ele>
        <time>2008-09-25T10:06:12Z</time>
      </trkpt>
      <trkpt lat="33.802390" lon="-3.148064">
        <ele>980.2</ele>
        <time>2008-09-25T10:06:16Z</time>
      </trkpt>
      <trkpt lat="33.801887" lon="-3.147873">
        <ele>980.7</ele>
        <time>2008-09-25T10:06:20Z</time>
      </trkpt>
      <trkpt lat="33.801392" lon="-3.147584">
        <ele>980.2</ele>
        <time>2008-09-25T10:06:24Z</time>
      </trkpt>
      <trkpt lat="33.800977" lon="-3.147291">
        <ele>977.8</ele>
        <time>2008-09-25T10:06:28Z</time>
      </trkpt>
      <trkpt lat="33.800624" lon="-3.146953">
        <ele>976.8</ele>
        <time>2008-09-25T10:06:32Z</time>
      </trkpt>
      <trkpt lat="33.800184" lon="-3.146656">
        <ele>974.4</ele>
        <time>2008-09-25T10:06:37Z</time>
      </trkpt>
      <trkpt lat="33.799736" lon="-3.146420">
        <ele>974.0</ele>
        <time>2008-09-25T10:06:41Z</time>
      </trkpt>
      <trkpt lat="33.799243" lon="-3.146116">
        <ele>973.0</ele>
        <time>2008-09-25T10:06:45Z</time>
      </trkpt>
      <trkpt lat="33.798693" lon="-3.145896">
        <ele>974.9</ele>
        <time>2008-09-25T10:06:49Z</time>
      </trkpt>
      <trkpt lat="33.798172" lon="-3.145665">
        <ele>973.0</ele>
        <time>2008-09-25T10:06:53Z</time>
      </trkpt>
      <trkpt lat="33.797780" lon="-3.145285">
        <ele>970.6</ele>
        <time>2008-09-25T10:06:57Z</time>
      </trkpt>
      <trkpt lat="33.797375" lon="-3.144875">
        <ele>966.3</ele>
        <time>2008-09-25T10:07:02Z</time>
      </trkpt>
      <trkpt lat="33.797230" lon="-3.144367">
        <ele>967.7</ele>
        <time>2008-09-25T10:07:07Z</time>
      </trkpt>
      <trkpt lat="33.796938" lon="-3.143880">
        <ele>971.1</ele>
        <time>2008-09-25T10:07:11Z</time>
      </trkpt>
      <trkpt lat="33.796620" lon="-3.143437">
        <ele>966.3</ele>
        <time>2008-09-25T10:07:15Z</time>
      </trkpt>
      <trkpt lat="33.796237" lon="-3.143075">
        <ele>964.8</ele>
        <time>2008-09-25T10:07:20Z</time>
      </trkpt>
      <trkpt lat="33.795834" lon="-3.142685">
        <ele>965.8</ele>
        <time>2008-09-25T10:07:25Z</time>
      </trkpt>
      <trkpt lat="33.795495" lon="-3.142255">
        <ele>963.9</ele>
        <time>2008-09-25T10:07:30Z</time>
      </trkpt>
      <trkpt lat="33.795043" lon="-3.141895">
        <ele>963.9</ele>
        <time>2008-09-25T10:07:36Z</time>
      </trkpt>
      <trkpt lat="33.794735" lon="-3.141477">
        <ele>966.3</ele>
        <time>2008-09-25T10:07:40Z</time>
      </trkpt>
      <trkpt lat="33.794443" lon="-3.141017">
        <ele>965.3</ele>
        <time>2008-09-25T10:07:44Z</time>
      </trkpt>
      <trkpt lat="33.794146" lon="-3.140583">
        <ele>968.2</ele>
        <time>2008-09-25T10:07:48Z</time>
      </trkpt>
      <trkpt lat="33.793692" lon="-3.140175">
        <ele>967.2</ele>
        <time>2008-09-25T10:07:52Z</time>
      </trkpt>
      <trkpt lat="33.793279" lon="-3.139733">
        <ele>964.3</ele>
        <time>2008-09-25T10:07:56Z</time>
      </trkpt>
      <trkpt lat="33.793008" lon="-3.139233">
        <ele>965.3</ele>
        <time>2008-09-25T10:08:00Z</time>
      </trkpt>
      <trkpt lat="33.792835" lon="-3.138646">
        <ele>960.5</ele>
        <time>2008-09-25T10:08:05Z</time>
      </trkpt>
      <trkpt lat="33.792615" lon="-3.138193">
        <ele>958.6</ele>
        <time>2008-09-25T10:08:12Z</time>
      </trkpt>
      <trkpt lat="33.792144" lon="-3.138201">
        <ele>958.6</ele>
        <time>2008-09-25T10:08:22Z</time>
      </trkpt>
      <trkpt lat="33.791709" lon="-3.137975">
        <ele>957.1</ele>
        <time>2008-09-25T10:08:29Z</time>
      </trkpt>
      <trkpt lat="33.791297" lon="-3.137678">
        <ele>960.0</ele>
        <time>2008-09-25T10:08:36Z</time>
      </trkpt>
      <trkpt lat="33.790835" lon="-3.137303">
        <ele>961.0</ele>
        <time>2008-09-25T10:08:41Z</time>
      </trkpt>
      <trkpt lat="33.790545" lon="-3.136843">
        <ele>961.5</ele>
        <time>2008-09-25T10:08:45Z</time>
      </trkpt>
      <trkpt lat="33.790189" lon="-3.136327">
        <ele>962.4</ele>
        <time>2008-09-25T10:08:49Z</time>
      </trkpt>
      <trkpt lat="33.789852" lon="-3.135931">
        <ele>963.9</ele>
        <time>2008-09-25T10:08:52Z</time>
      </trkpt>
      <trkpt lat="33.789440" lon="-3.135516">
        <ele>965.3</ele>
        <time>2008-09-25T10:08:55Z</time>
      </trkpt>
      <trkpt lat="33.789055" lon="-3.135134">
        <ele>963.4</ele>
        <time>2008-09-25T10:08:58Z</time>
      </trkpt>
      <trkpt lat="33.788614" lon="-3.134675">
        <ele>959.5</ele>
        <time>2008-09-25T10:09:02Z</time>
      </trkpt>
      <trkpt lat="33.788255" lon="-3.134304">
        <ele>961.5</ele>
        <time>2008-09-25T10:09:05Z</time>
      </trkpt>
      <trkpt lat="33.787865" lon="-3.133984">
        <ele>958.6</ele>
        <time>2008-09-25T10:09:08Z</time>
      </trkpt>
      <trkpt lat="33.787409" lon="-3.133608">
        <ele>955.7</ele>
        <time>2008-09-25T10:09:12Z</time>
      </trkpt>
      <trkpt lat="33.787132" lon="-3.133168">
        <ele>951.8</ele>
        <time>2008-09-25T10:09:18Z</time>
      </trkpt>
      <trkpt lat="33.786865" lon="-3.132726">
        <ele>953.3</ele>
        <time>2008-09-25T10:09:25Z</time>
      </trkpt>
      <trkpt lat="33.786430" lon="-3.132470">
        <ele>954.2</ele>
        <time>2008-09-25T10:09:31Z</time>
      </trkpt>
      <trkpt lat="33.785957" lon="-3.132323">
        <ele>955.7</ele>
        <time>2008-09-25T10:09:35Z</time>
      </trkpt>
      <trkpt lat="33.785472" lon="-3.132011">
        <ele>955.2</ele>
        <time>2008-09-25T10:09:39Z</time>
      </trkpt>
      <trkpt lat="33.785028" lon="-3.131654">
        <ele>955.2</ele>
        <time>2008-09-25T10:09:43Z</time>
      </trkpt>
      <trkpt lat="33.784571" lon="-3.131334">
        <ele>953.3</ele>
        <time>2008-09-25T10:09:47Z</time>
      </trkpt>
      <trkpt lat="33.784142" lon="-3.130999">
        <ele>953.8</ele>
        <time>2008-09-25T10:09:52Z</time>
      </trkpt>
      <trkpt lat="33.783701" lon="-3.130587">
        <ele>956.6</ele>
        <time>2008-09-25T10:09:56Z</time>
      </trkpt>
      <trkpt lat="33.783324" lon="-3.130052">
        <ele>956.2</ele>
        <time>2008-09-25T10:10:00Z</time>
      </trkpt>
      <trkpt lat="33.782970" lon="-3.129609">
        <ele>949.9</ele>
        <time>2008-09-25T10:10:05Z</time>
      </trkpt>
      <trkpt lat="33.782606" lon="-3.129184">
        <ele>948.5</ele>
        <time>2008-09-25T10:10:11Z</time>
      </trkpt>
      <trkpt lat="33.782216" lon="-3.128779">
        <ele>947.0</ele>
        <time>2008-09-25T10:10:19Z</time>
      </trkpt>
      <trkpt lat="33.781854" lon="-3.128378">
        <ele>947.5</ele>
        <time>2008-09-25T10:10:27Z</time>
      </trkpt>
      <trkpt lat="33.781450" lon="-3.127996">
        <ele>949.0</ele>
        <time>2008-09-25T10:10:32Z</time>
      </trkpt>
      <trkpt lat="33.780990" lon="-3.127674">
        <ele>950.4</ele>
        <time>2008-09-25T10:10:36Z</time>
      </trkpt>
      <trkpt lat="33.780573" lon="-3.127339">
        <ele>951.8</ele>
        <time>2008-09-25T10:10:39Z</time>
      </trkpt>
      <trkpt lat="33.780199" lon="-3.127019">
        <ele>949.0</ele>
        <time>2008-09-25T10:10:42Z</time>
      </trkpt>
      <trkpt lat="33.779818" lon="-3.126702">
        <ele>947.0</ele>
        <time>2008-09-25T10:10:46Z</time>
      </trkpt>
      <trkpt lat="33.779466" lon="-3.126283">
        <ele>944.6</ele>
        <time>2008-09-25T10:10:52Z</time>
      </trkpt>
      <trkpt lat="33.779069" lon="-3.125915">
        <ele>945.1</ele>
        <time>2008-09-25T10:10:59Z</time>
      </trkpt>
      <trkpt lat="33.778677" lon="-3.125511">
        <ele>945.6</ele>
        <time>2008-09-25T10:11:05Z</time>
      </trkpt>
      <trkpt lat="33.778261" lon="-3.125264">
        <ele>946.6</ele>
        <time>2008-09-25T10:11:10Z</time>
      </trkpt>
      <trkpt lat="33.777869" lon="-3.124789">
        <ele>946.6</ele>
        <time>2008-09-25T10:11:15Z</time>
      </trkpt>
      <trkpt lat="33.777469" lon="-3.124419">
        <ele>943.7</ele>
        <time>2008-09-25T10:11:20Z</time>
      </trkpt>
      <trkpt lat="33.777148" lon="-3.124078">
        <ele>940.3</ele>
        <time>2008-09-25T10:11:36Z</time>
      </trkpt>
      <trkpt lat="33.776887" lon="-3.123624">
        <ele>943.2</ele>
        <time>2008-09-25T10:12:35Z</time>
      </trkpt>
      <trkpt lat="33.776447" lon="-3.123242">
        <ele>946.1</ele>
        <time>2008-09-25T10:12:40Z</time>
      </trkpt>
      <trkpt lat="33.775976" lon="-3.122899">
        <ele>947.0</ele>
        <time>2008-09-25T10:12:44Z</time>
      </trkpt>
      <trkpt lat="33.775520" lon="-3.122528">
        <ele>944.6</ele>
        <time>2008-09-25T10:12:48Z</time>
      </trkpt>
      <trkpt lat="33.775151" lon="-3.122200">
        <ele>943.7</ele>
        <time>2008-09-25T10:12:52Z</time>
      </trkpt>
      <trkpt lat="33.774689" lon="-3.121858">
        <ele>946.1</ele>
        <time>2008-09-25T10:12:56Z</time>
      </trkpt>
      <trkpt lat="33.774219" lon="-3.121431">
        <ele>946.1</ele>
        <time>2008-09-25T10:13:00Z</time>
      </trkpt>
      <trkpt lat="33.773859" lon="-3.121101">
        <ele>944.6</ele>
        <time>2008-09-25T10:13:03Z</time>
      </trkpt>
      <trkpt lat="33.773414" lon="-3.120687">
        <ele>941.3</ele>
        <time>2008-09-25T10:13:07Z</time>
      </trkpt>
      <trkpt lat="33.773043" lon="-3.120193">
        <ele>943.2</ele>
        <time>2008-09-25T10:13:11Z</time>
      </trkpt>
      <trkpt lat="33.772769" lon="-3.119733">
        <ele>943.7</ele>
        <time>2008-09-25T10:13:14Z</time>
      </trkpt>
      <trkpt lat="33.772437" lon="-3.119306">
        <ele>942.7</ele>
        <time>2008-09-25T10:13:17Z</time>
      </trkpt>
      <trkpt lat="33.772101" lon="-3.118861">
        <ele>942.7</ele>
        <time>2008-09-25T10:13:20Z</time>
      </trkpt>
      <trkpt lat="33.771795" lon="-3.118433">
        <ele>941.3</ele>
        <time>2008-09-25T10:13:23Z</time>
      </trkpt>
      <trkpt lat="33.771406" lon="-3.117951">
        <ele>939.3</ele>
        <time>2008-09-25T10:13:27Z</time>
      </trkpt>
      <trkpt lat="33.771068" lon="-3.117584">
        <ele>933.6</ele>
        <time>2008-09-25T10:13:35Z</time>
      </trkpt>
      <trkpt lat="33.770719" lon="-3.117225">
        <ele>935.5</ele>
        <time>2008-09-25T10:13:43Z</time>
      </trkpt>
      <trkpt lat="33.770414" lon="-3.116816">
        <ele>932.1</ele>
        <time>2008-09-25T10:13:51Z</time>
      </trkpt>
      <trkpt lat="33.770147" lon="-3.116351">
        <ele>934.1</ele>
        <time>2008-09-25T10:14:01Z</time>
      </trkpt>
      <trkpt lat="33.769939" lon="-3.115876">
        <ele>936.9</ele>
        <time>2008-09-25T10:14:06Z</time>
      </trkpt>
      <trkpt lat="33.769873" lon="-3.115304">
        <ele>934.1</ele>
        <time>2008-09-25T10:14:12Z</time>
      </trkpt>
      <trkpt lat="33.769824" lon="-3.114738">
        <ele>932.6</ele>
        <time>2008-09-25T10:14:21Z</time>
      </trkpt>
      <trkpt lat="33.769781" lon="-3.114183">
        <ele>935.0</ele>
        <time>2008-09-25T10:14:28Z</time>
      </trkpt>
      <trkpt lat="33.769675" lon="-3.113652">
        <ele>936.5</ele>
        <time>2008-09-25T10:14:33Z</time>
      </trkpt>
      <trkpt lat="33.769581" lon="-3.113073">
        <ele>938.4</ele>
        <time>2008-09-25T10:14:38Z</time>
      </trkpt>
      <trkpt lat="33.769498" lon="-3.112517">
        <ele>936.5</ele>
        <time>2008-09-25T10:14:43Z</time>
      </trkpt>
      <trkpt lat="33.769446" lon="-3.111900">
        <ele>934.5</ele>
        <time>2008-09-25T10:14:49Z</time>
      </trkpt>
      <trkpt lat="33.769257" lon="-3.111368">
        <ele>933.1</ele>
        <time>2008-09-25T10:14:57Z</time>
      </trkpt>
      <trkpt lat="33.769108" lon="-3.110728">
        <ele>937.4</ele>
        <time>2008-09-25T10:15:04Z</time>
      </trkpt>
      <trkpt lat="33.768976" lon="-3.110148">
        <ele>937.9</ele>
        <time>2008-09-25T10:15:08Z</time>
      </trkpt>
      <trkpt lat="33.768750" lon="-3.109633">
        <ele>933.6</ele>
        <time>2008-09-25T10:15:14Z</time>
      </trkpt>
      <trkpt lat="33.768669" lon="-3.109156">
        <ele>931.7</ele>
        <time>2008-09-25T10:15:46Z</time>
      </trkpt>
      <trkpt lat="33.768483" lon="-3.108682">
        <ele>932.6</ele>
        <time>2008-09-25T10:16:03Z</time>
      </trkpt>
      <trkpt lat="33.768300" lon="-3.108148">
        <ele>936.9</ele>
        <time>2008-09-25T10:16:11Z</time>
      </trkpt>
      <trkpt lat="33.767958" lon="-3.107647">
        <ele>936.9</ele>
        <time>2008-09-25T10:16:16Z</time>
      </trkpt>
      <trkpt lat="33.767722" lon="-3.107073">
        <ele>936.5</ele>
        <time>2008-09-25T10:16:21Z</time>
      </trkpt>
      <trkpt lat="33.767572" lon="-3.106495">
        <ele>936.5</ele>
        <time>2008-09-25T10:16:25Z</time>
      </trkpt>
      <trkpt lat="33.767439" lon="-3.105910">
        <ele>937.9</ele>
        <time>2008-09-25T10:16:29Z</time>
      </trkpt>
      <trkpt lat="33.767212" lon="-3.105310">
        <ele>936.5</ele>
        <time>2008-09-25T10:16:33Z</time>
      </trkpt>
      <trkpt lat="33.767008" lon="-3.104791">
        <ele>931.2</ele>
        <time>2008-09-25T10:16:38Z</time>
      </trkpt>
      <trkpt lat="33.766744" lon="-3.104254">
        <ele>932.1</ele>
        <time>2008-09-25T10:16:45Z</time>
      </trkpt>
      <trkpt lat="33.766472" lon="-3.103767">
        <ele>928.8</ele>
        <time>2008-09-25T10:16:51Z</time>
      </trkpt>
      <trkpt lat="33.766058" lon="-3.103534">
        <ele>931.2</ele>
        <time>2008-09-25T10:16:57Z</time>
      </trkpt>
      <trkpt lat="33.765633" lon="-3.103163">
        <ele>931.2</ele>
        <time>2008-09-25T10:17:02Z</time>
      </trkpt>
      <trkpt lat="33.765134" lon="-3.102868">
        <ele>932.1</ele>
        <time>2008-09-25T10:17:07Z</time>
      </trkpt>
      <trkpt lat="33.764763" lon="-3.102476">
        <ele>933.6</ele>
        <time>2008-09-25T10:17:11Z</time>
      </trkpt>
      <trkpt lat="33.764453" lon="-3.101990">
        <ele>931.7</ele>
        <time>2008-09-25T10:17:15Z</time>
      </trkpt>
      <trkpt lat="33.764185" lon="-3.101539">
        <ele>931.2</ele>
        <time>2008-09-25T10:17:19Z</time>
      </trkpt>
      <trkpt lat="33.763945" lon="-3.101076">
        <ele>931.2</ele>
        <time>2008-09-25T10:17:23Z</time>
      </trkpt>
      <trkpt lat="33.763680" lon="-3.100527">
        <ele>929.3</ele>
        <time>2008-09-25T10:17:29Z</time>
      </trkpt>
      <trkpt lat="33.763387" lon="-3.099976">
        <ele>930.7</ele>
        <time>2008-09-25T10:17:34Z</time>
      </trkpt>
      <trkpt lat="33.763125" lon="-3.099517">
        <ele>930.7</ele>
        <time>2008-09-25T10:17:38Z</time>
      </trkpt>
      <trkpt lat="33.762931" lon="-3.099024">
        <ele>929.3</ele>
        <time>2008-09-25T10:17:42Z</time>
      </trkpt>
      <trkpt lat="33.762701" lon="-3.098480">
        <ele>928.3</ele>
        <time>2008-09-25T10:17:47Z</time>
      </trkpt>
      <trkpt lat="33.762568" lon="-3.097896">
        <ele>927.3</ele>
        <time>2008-09-25T10:17:52Z</time>
      </trkpt>
      <trkpt lat="33.762174" lon="-3.097513">
        <ele>926.8</ele>
        <time>2008-09-25T10:17:58Z</time>
      </trkpt>
      <trkpt lat="33.761751" lon="-3.097193">
        <ele>928.3</ele>
        <time>2008-09-25T10:18:03Z</time>
      </trkpt>
      <trkpt lat="33.761316" lon="-3.096940">
        <ele>924.0</ele>
        <time>2008-09-25T10:18:08Z</time>
      </trkpt>
      <trkpt lat="33.760951" lon="-3.096496">
        <ele>924.0</ele>
        <time>2008-09-25T10:18:14Z</time>
      </trkpt>
      <trkpt lat="33.760594" lon="-3.096040">
        <ele>923.5</ele>
        <time>2008-09-25T10:18:19Z</time>
      </trkpt>
      <trkpt lat="33.760220" lon="-3.095859">
        <ele>918.2</ele>
        <time>2008-09-25T10:21:31Z</time>
      </trkpt>
      <trkpt lat="33.759864" lon="-3.095484">
        <ele>922.5</ele>
        <time>2008-09-25T10:21:39Z</time>
      </trkpt>
      <trkpt lat="33.759489" lon="-3.095065">
        <ele>922.5</ele>
        <time>2008-09-25T10:21:44Z</time>
      </trkpt>
      <trkpt lat="33.759063" lon="-3.094720">
        <ele>921.6</ele>
        <time>2008-09-25T10:21:49Z</time>
      </trkpt>
      <trkpt lat="33.758636" lon="-3.094428">
        <ele>920.6</ele>
        <time>2008-09-25T10:21:54Z</time>
      </trkpt>
      <trkpt lat="33.758172" lon="-3.094098">
        <ele>921.6</ele>
        <time>2008-09-25T10:21:59Z</time>
      </trkpt>
      <trkpt lat="33.757700" lon="-3.093877">
        <ele>922.0</ele>
        <time>2008-09-25T10:22:03Z</time>
      </trkpt>
      <trkpt lat="33.757229" lon="-3.093691">
        <ele>921.1</ele>
        <time>2008-09-25T10:22:07Z</time>
      </trkpt>
      <trkpt lat="33.756745" lon="-3.093523">
        <ele>923.5</ele>
        <time>2008-09-25T10:22:11Z</time>
      </trkpt>
      <trkpt lat="33.756208" lon="-3.093437">
        <ele>922.5</ele>
        <time>2008-09-25T10:22:15Z</time>
      </trkpt>
      <trkpt lat="33.755665" lon="-3.093406">
        <ele>921.1</ele>
        <time>2008-09-25T10:22:19Z</time>
      </trkpt>
      <trkpt lat="33.755155" lon="-3.093392">
        <ele>915.3</ele>
        <time>2008-09-25T10:22:24Z</time>
      </trkpt>
      <trkpt lat="33.754686" lon="-3.093489">
        <ele>912.9</ele>
        <time>2008-09-25T10:22:32Z</time>
      </trkpt>
      <trkpt lat="33.754393" lon="-3.093206">
        <ele>912.4</ele>
        <time>2008-09-25T10:22:42Z</time>
      </trkpt>
      <trkpt lat="33.754302" lon="-3.092652">
        <ele>912.4</ele>
        <time>2008-09-25T10:22:47Z</time>
      </trkpt>
      <trkpt lat="33.754185" lon="-3.092093">
        <ele>915.8</ele>
        <time>2008-09-25T10:22:51Z</time>
      </trkpt>
      <trkpt lat="33.753949" lon="-3.091438">
        <ele>917.7</ele>
        <time>2008-09-25T10:22:55Z</time>
      </trkpt>
      <trkpt lat="33.753740" lon="-3.090899">
        <ele>919.2</ele>
        <time>2008-09-25T10:22:58Z</time>
      </trkpt>
      <trkpt lat="33.753535" lon="-3.090378">
        <ele>918.2</ele>
        <time>2008-09-25T10:23:01Z</time>
      </trkpt>
      <trkpt lat="33.753357" lon="-3.089864">
        <ele>918.2</ele>
        <time>2008-09-25T10:23:04Z</time>
      </trkpt>
      <trkpt lat="33.753164" lon="-3.089331">
        <ele>918.2</ele>
        <time>2008-09-25T10:23:07Z</time>
      </trkpt>
      <trkpt lat="33.752977" lon="-3.088785">
        <ele>918.2</ele>
        <time>2008-09-25T10:23:10Z</time>
      </trkpt>
      <trkpt lat="33.752816" lon="-3.088247">
        <ele>917.2</ele>
        <time>2008-09-25T10:23:13Z</time>
      </trkpt>
      <trkpt lat="33.752635" lon="-3.087691">
        <ele>920.1</ele>
        <time>2008-09-25T10:23:16Z</time>
      </trkpt>
      <trkpt lat="33.752448" lon="-3.087153">
        <ele>918.2</ele>
        <time>2008-09-25T10:23:19Z</time>
      </trkpt>
      <trkpt lat="33.752287" lon="-3.086630">
        <ele>915.8</ele>
        <time>2008-09-25T10:23:22Z</time>
      </trkpt>
      <trkpt lat="33.752069" lon="-3.086010">
        <ele>915.8</ele>
        <time>2008-09-25T10:23:26Z</time>
      </trkpt>
      <trkpt lat="33.751854" lon="-3.085342">
        <ele>916.8</ele>
        <time>2008-09-25T10:23:30Z</time>
      </trkpt>
      <trkpt lat="33.751707" lon="-3.084789">
        <ele>906.7</ele>
        <time>2008-09-25T10:23:34Z</time>
      </trkpt>
      <trkpt lat="33.751498" lon="-3.084288">
        <ele>904.3</ele>
        <time>2008-09-25T10:23:56Z</time>
      </trkpt>
      <trkpt lat="33.751421" lon="-3.083769">
        <ele>905.2</ele>
        <time>2008-09-25T10:24:05Z</time>
      </trkpt>
      <trkpt lat="33.751281" lon="-3.083222">
        <ele>904.3</ele>
        <time>2008-09-25T10:24:20Z</time>
      </trkpt>
      <trkpt lat="33.751094" lon="-3.082709">
        <ele>907.1</ele>
        <time>2008-09-25T10:24:28Z</time>
      </trkpt>
      <trkpt lat="33.750873" lon="-3.082140">
        <ele>908.1</ele>
        <time>2008-09-25T10:24:38Z</time>
      </trkpt>
      <trkpt lat="33.750744" lon="-3.081459">
        <ele>912.4</ele>
        <time>2008-09-25T10:24:43Z</time>
      </trkpt>
      <trkpt lat="33.750517" lon="-3.080845">
        <ele>911.9</ele>
        <time>2008-09-25T10:24:47Z</time>
      </trkpt>
      <trkpt lat="33.750326" lon="-3.080202">
        <ele>908.6</ele>
        <time>2008-09-25T10:24:51Z</time>
      </trkpt>
      <trkpt lat="33.750128" lon="-3.079654">
        <ele>908.1</ele>
        <time>2008-09-25T10:24:55Z</time>
      </trkpt>
      <trkpt lat="33.749929" lon="-3.079139">
        <ele>907.6</ele>
        <time>2008-09-25T10:24:59Z</time>
      </trkpt>
      <trkpt lat="33.749711" lon="-3.078533">
        <ele>906.2</ele>
        <time>2008-09-25T10:25:04Z</time>
      </trkpt>
      <trkpt lat="33.749504" lon="-3.077920">
        <ele>903.8</ele>
        <time>2008-09-25T10:25:09Z</time>
      </trkpt>
      <trkpt lat="33.749337" lon="-3.077412">
        <ele>902.3</ele>
        <time>2008-09-25T10:25:14Z</time>
      </trkpt>
      <trkpt lat="33.749157" lon="-3.076849">
        <ele>902.3</ele>
        <time>2008-09-25T10:25:20Z</time>
      </trkpt>
      <trkpt lat="33.749033" lon="-3.076311">
        <ele>902.3</ele>
        <time>2008-09-25T10:25:25Z</time>
      </trkpt>
      <trkpt lat="33.749023" lon="-3.075753">
        <ele>902.8</ele>
        <time>2008-09-25T10:25:29Z</time>
      </trkpt>
      <trkpt lat="33.748995" lon="-3.075129">
        <ele>904.3</ele>
        <time>2008-09-25T10:25:33Z</time>
      </trkpt>
      <trkpt lat="33.748879" lon="-3.074469">
        <ele>904.7</ele>
        <time>2008-09-25T10:25:37Z</time>
      </trkpt>
      <trkpt lat="33.748714" lon="-3.073802">
        <ele>907.1</ele>
        <time>2008-09-25T10:25:41Z</time>
      </trkpt>
      <trkpt lat="33.748529" lon="-3.073295">
        <ele>907.1</ele>
        <time>2008-09-25T10:25:44Z</time>
      </trkpt>
      <trkpt lat="33.748304" lon="-3.072806">
        <ele>906.7</ele>
        <time>2008-09-25T10:25:47Z</time>
      </trkpt>
      <trkpt lat="33.748085" lon="-3.072331">
        <ele>905.7</ele>
        <time>2008-09-25T10:25:50Z</time>
      </trkpt>
      <trkpt lat="33.747730" lon="-3.071834">
        <ele>902.3</ele>
        <time>2008-09-25T10:25:54Z</time>
      </trkpt>
      <trkpt lat="33.747439" lon="-3.071285">
        <ele>903.8</ele>
        <time>2008-09-25T10:25:58Z</time>
      </trkpt>
      <trkpt lat="33.747222" lon="-3.070657">
        <ele>904.7</ele>
        <time>2008-09-25T10:26:02Z</time>
      </trkpt>
      <trkpt lat="33.747025" lon="-3.070018">
        <ele>899.9</ele>
        <time>2008-09-25T10:26:06Z</time>
      </trkpt>
      <trkpt lat="33.746820" lon="-3.069491">
        <ele>897.0</ele>
        <time>2008-09-25T10:26:18Z</time>
      </trkpt>
      <trkpt lat="33.746670" lon="-3.069012">
        <ele>894.6</ele>
        <time>2008-09-25T10:26:28Z</time>
      </trkpt>
      <trkpt lat="33.746512" lon="-3.068462">
        <ele>896.1</ele>
        <time>2008-09-25T10:26:38Z</time>
      </trkpt>
      <trkpt lat="33.746281" lon="-3.067903">
        <ele>899.9</ele>
        <time>2008-09-25T10:26:45Z</time>
      </trkpt>
      <trkpt lat="33.746079" lon="-3.067340">
        <ele>904.3</ele>
        <time>2008-09-25T10:26:49Z</time>
      </trkpt>
      <trkpt lat="33.745818" lon="-3.066763">
        <ele>904.7</ele>
        <time>2008-09-25T10:26:53Z</time>
      </trkpt>
      <trkpt lat="33.745478" lon="-3.066230">
        <ele>904.7</ele>
        <time>2008-09-25T10:26:57Z</time>
      </trkpt>
      <trkpt lat="33.745160" lon="-3.065772">
        <ele>900.9</ele>
        <time>2008-09-25T10:27:01Z</time>
      </trkpt>
      <trkpt lat="33.745042" lon="-3.065231">
        <ele>896.6</ele>
        <time>2008-09-25T10:27:07Z</time>
      </trkpt>
      <trkpt lat="33.744725" lon="-3.064757">
        <ele>898.5</ele>
        <time>2008-09-25T10:27:13Z</time>
      </trkpt>
      <trkpt lat="33.744412" lon="-3.064262">
        <ele>898.0</ele>
        <time>2008-09-25T10:27:19Z</time>
      </trkpt>
      <trkpt lat="33.744051" lon="-3.063865">
        <ele>896.1</ele>
        <time>2008-09-25T10:27:24Z</time>
      </trkpt>
      <trkpt lat="33.743702" lon="-3.063430">
        <ele>897.5</ele>
        <time>2008-09-25T10:27:30Z</time>
      </trkpt>
      <trkpt lat="33.743379" lon="-3.062915">
        <ele>899.9</ele>
        <time>2008-09-25T10:27:34Z</time>
      </trkpt>
      <trkpt lat="33.743105" lon="-3.062460">
        <ele>896.1</ele>
        <time>2008-09-25T10:27:38Z</time>
      </trkpt>
      <trkpt lat="33.742823" lon="-3.062045">
        <ele>897.5</ele>
        <time>2008-09-25T10:27:42Z</time>
      </trkpt>
      <trkpt lat="33.742554" lon="-3.061605">
        <ele>891.8</ele>
        <time>2008-09-25T10:27:47Z</time>
      </trkpt>
      <trkpt lat="33.742150" lon="-3.061175">
        <ele>895.6</ele>
        <time>2008-09-25T10:27:54Z</time>
      </trkpt>
      <trkpt lat="33.741700" lon="-3.060806">
        <ele>896.1</ele>
        <time>2008-09-25T10:27:59Z</time>
      </trkpt>
      <trkpt lat="33.741367" lon="-3.060316">
        <ele>895.6</ele>
        <time>2008-09-25T10:28:03Z</time>
      </trkpt>
      <trkpt lat="33.740990" lon="-3.059942">
        <ele>889.8</ele>
        <time>2008-09-25T10:28:10Z</time>
      </trkpt>
      <trkpt lat="33.740827" lon="-3.059410">
        <ele>891.8</ele>
        <time>2008-09-25T10:28:17Z</time>
      </trkpt>
      <trkpt lat="33.740747" lon="-3.058866">
        <ele>895.6</ele>
        <time>2008-09-25T10:28:21Z</time>
      </trkpt>
      <trkpt lat="33.740490" lon="-3.058357">
        <ele>894.2</ele>
        <time>2008-09-25T10:28:25Z</time>
      </trkpt>
      <trkpt lat="33.740211" lon="-3.057962">
        <ele>894.2</ele>
        <time>2008-09-25T10:28:33Z</time>
      </trkpt>
      <trkpt lat="33.739857" lon="-3.057498">
        <ele>892.7</ele>
        <time>2008-09-25T10:28:38Z</time>
      </trkpt>
      <trkpt lat="33.739561" lon="-3.057012">
        <ele>894.6</ele>
        <time>2008-09-25T10:28:45Z</time>
      </trkpt>
      <trkpt lat="33.739262" lon="-3.056513">
        <ele>893.2</ele>
        <time>2008-09-25T10:28:50Z</time>
      </trkpt>
      <trkpt lat="33.738986" lon="-3.056087">
        <ele>894.6</ele>
        <time>2008-09-25T10:28:54Z</time>
      </trkpt>
      <trkpt lat="33.738623" lon="-3.055639">
        <ele>889.8</ele>
        <time>2008-09-25T10:28:59Z</time>
      </trkpt>
      <trkpt lat="33.738217" lon="-3.055359">
        <ele>891.8</ele>
        <time>2008-09-25T10:29:04Z</time>
      </trkpt>
      <trkpt lat="33.737778" lon="-3.055146">
        <ele>891.8</ele>
        <time>2008-09-25T10:29:08Z</time>
      </trkpt>
      <trkpt lat="33.737274" lon="-3.054963">
        <ele>893.2</ele>
        <time>2008-09-25T10:29:12Z</time>
      </trkpt>
      <trkpt lat="33.736763" lon="-3.054872">
        <ele>891.8</ele>
        <time>2008-09-25T10:29:16Z</time>
      </trkpt>
      <trkpt lat="33.736333" lon="-3.054741">
        <ele>886.5</ele>
        <time>2008-09-25T10:29:21Z</time>
      </trkpt>
      <trkpt lat="33.735944" lon="-3.054846">
        <ele>883.6</ele>
        <time>2008-09-25T10:29:51Z</time>
      </trkpt>
      <trkpt lat="33.735594" lon="-3.054479">
        <ele>886.0</ele>
        <time>2008-09-25T10:30:00Z</time>
      </trkpt>
      <trkpt lat="33.735343" lon="-3.054015">
        <ele>885.5</ele>
        <time>2008-09-25T10:30:06Z</time>
      </trkpt>
      <trkpt lat="33.735003" lon="-3.053570">
        <ele>887.4</ele>
        <time>2008-09-25T10:30:13Z</time>
      </trkpt>
      <trkpt lat="33.734625" lon="-3.053200">
        <ele>888.4</ele>
        <time>2008-09-25T10:30:19Z</time>
      </trkpt>
      <trkpt lat="33.734166" lon="-3.053145">
        <ele>890.8</ele>
        <time>2008-09-25T10:30:24Z</time>
      </trkpt>
      <trkpt lat="33.733748" lon="-3.052838">
        <ele>889.4</ele>
        <time>2008-09-25T10:30:29Z</time>
      </trkpt>
      <trkpt lat="33.733300" lon="-3.052655">
        <ele>889.4</ele>
        <time>2008-09-25T10:30:34Z</time>
      </trkpt>
      <trkpt lat="33.732879" lon="-3.052504">
        <ele>887.4</ele>
        <time>2008-09-25T10:30:50Z</time>
      </trkpt>
      <trkpt lat="33.732401" lon="-3.052293">
        <ele>888.4</ele>
        <time>2008-09-25T10:30:57Z</time>
      </trkpt>
      <trkpt lat="33.731871" lon="-3.052358">
        <ele>887.4</ele>
        <time>2008-09-25T10:31:03Z</time>
      </trkpt>
      <trkpt lat="33.731351" lon="-3.052324">
        <ele>887.9</ele>
        <time>2008-09-25T10:31:09Z</time>
      </trkpt>
      <trkpt lat="33.730923" lon="-3.052147">
        <ele>888.4</ele>
        <time>2008-09-25T10:31:15Z</time>
      </trkpt>
      <trkpt lat="33.730503" lon="-3.051913">
        <ele>891.3</ele>
        <time>2008-09-25T10:31:20Z</time>
      </trkpt>
      <trkpt lat="33.729991" lon="-3.051621">
        <ele>890.8</ele>
        <time>2008-09-25T10:31:25Z</time>
      </trkpt>
      <trkpt lat="33.729523" lon="-3.051412">
        <ele>885.5</ele>
        <time>2008-09-25T10:31:30Z</time>
      </trkpt>
      <trkpt lat="33.729105" lon="-3.051201">
        <ele>883.6</ele>
        <time>2008-09-25T10:31:39Z</time>
      </trkpt>
      <trkpt lat="33.728654" lon="-3.051014">
        <ele>883.6</ele>
        <time>2008-09-25T10:31:49Z</time>
      </trkpt>
      <trkpt lat="33.728541" lon="-3.051493">
        <ele>883.6</ele>
        <time>2008-09-25T10:31:56Z</time>
      </trkpt>
      <trkpt lat="33.728565" lon="-3.052054">
        <ele>884.1</ele>
        <time>2008-09-25T10:32:02Z</time>
      </trkpt>
      <trkpt lat="33.728465" lon="-3.052393">
        <ele>884.1</ele>
        <time>2008-09-25T10:32:11Z</time>
      </trkpt>
      <trkpt lat="33.728764" lon="-3.051942">
        <ele>884.1</ele>
        <time>2008-09-25T10:32:19Z</time>
      </trkpt>
      <trkpt lat="33.728865" lon="-3.051394">
        <ele>883.6</ele>
        <time>2008-09-25T10:32:26Z</time>
      </trkpt>
      <trkpt lat="33.728856" lon="-3.050922">
        <ele>885.5</ele>
        <time>2008-09-25T10:32:34Z</time>
      </trkpt>
      <trkpt lat="33.728418" lon="-3.050562">
        <ele>887.0</ele>
        <time>2008-09-25T10:32:39Z</time>
      </trkpt>
      <trkpt lat="33.728042" lon="-3.050228">
        <ele>887.4</ele>
        <time>2008-09-25T10:32:43Z</time>
      </trkpt>
      <trkpt lat="33.727588" lon="-3.049996">
        <ele>887.9</ele>
        <time>2008-09-25T10:32:47Z</time>
      </trkpt>
      <trkpt lat="33.727011" lon="-3.049926">
        <ele>887.0</ele>
        <time>2008-09-25T10:32:51Z</time>
      </trkpt>
      <trkpt lat="33.726492" lon="-3.049859">
        <ele>884.1</ele>
        <time>2008-09-25T10:32:55Z</time>
      </trkpt>
      <trkpt lat="33.726050" lon="-3.049938">
        <ele>878.8</ele>
        <time>2008-09-25T10:33:01Z</time>
      </trkpt>
      <trkpt lat="33.725612" lon="-3.049823">
        <ele>878.3</ele>
        <time>2008-09-25T10:33:13Z</time>
      </trkpt>
      <trkpt lat="33.725115" lon="-3.049810">
        <ele>879.3</ele>
        <time>2008-09-25T10:33:25Z</time>
      </trkpt>
      <trkpt lat="33.724633" lon="-3.049766">
        <ele>883.1</ele>
        <time>2008-09-25T10:33:31Z</time>
      </trkpt>
      <trkpt lat="33.724191" lon="-3.049953">
        <ele>883.1</ele>
        <time>2008-09-25T10:33:35Z</time>
      </trkpt>
      <trkpt lat="33.723702" lon="-3.050258">
        <ele>885.0</ele>
        <time>2008-09-25T10:33:39Z</time>
      </trkpt>
      <trkpt lat="33.723204" lon="-3.050608">
        <ele>885.0</ele>
        <time>2008-09-25T10:33:43Z</time>
      </trkpt>
      <trkpt lat="33.722707" lon="-3.050943">
        <ele>884.1</ele>
        <time>2008-09-25T10:33:47Z</time>
      </trkpt>
      <trkpt lat="33.722160" lon="-3.051206">
        <ele>884.1</ele>
        <time>2008-09-25T10:33:51Z</time>
      </trkpt>
      <trkpt lat="33.721709" lon="-3.051481">
        <ele>883.1</ele>
        <time>2008-09-25T10:33:55Z</time>
      </trkpt>
      <trkpt lat="33.721276" lon="-3.051893">
        <ele>884.6</ele>
        <time>2008-09-25T10:33:59Z</time>
      </trkpt>
      <trkpt lat="33.720861" lon="-3.052144">
        <ele>887.4</ele>
        <time>2008-09-25T10:34:02Z</time>
      </trkpt>
      <trkpt lat="33.720421" lon="-3.052404">
        <ele>888.9</ele>
        <time>2008-09-25T10:34:05Z</time>
      </trkpt>
      <trkpt lat="33.720000" lon="-3.052732">
        <ele>887.4</ele>
        <time>2008-09-25T10:34:08Z</time>
      </trkpt>
      <trkpt lat="33.719537" lon="-3.053024">
        <ele>889.8</ele>
        <time>2008-09-25T10:34:11Z</time>
      </trkpt>
      <trkpt lat="33.719044" lon="-3.053334">
        <ele>891.3</ele>
        <time>2008-09-25T10:34:14Z</time>
      </trkpt>
      <trkpt lat="33.718564" lon="-3.053655">
        <ele>887.4</ele>
        <time>2008-09-25T10:34:17Z</time>
      </trkpt>
      <trkpt lat="33.718140" lon="-3.053984">
        <ele>887.0</ele>
        <time>2008-09-25T10:34:20Z</time>
      </trkpt>
      <trkpt lat="33.717690" lon="-3.054324">
        <ele>881.7</ele>
        <time>2008-09-25T10:34:24Z</time>
      </trkpt>
      <trkpt lat="33.717282" lon="-3.054605">
        <ele>878.8</ele>
        <time>2008-09-25T10:34:30Z</time>
      </trkpt>
      <trkpt lat="33.716896" lon="-3.054867">
        <ele>879.3</ele>
        <time>2008-09-25T10:34:40Z</time>
      </trkpt>
      <trkpt lat="33.716530" lon="-3.055223">
        <ele>881.7</ele>
        <time>2008-09-25T10:34:46Z</time>
      </trkpt>
      <trkpt lat="33.716049" lon="-3.055571">
        <ele>882.1</ele>
        <time>2008-09-25T10:34:51Z</time>
      </trkpt>
      <trkpt lat="33.715629" lon="-3.055932">
        <ele>883.6</ele>
        <time>2008-09-25T10:34:55Z</time>
      </trkpt>
      <trkpt lat="33.715156" lon="-3.056316">
        <ele>885.5</ele>
        <time>2008-09-25T10:34:59Z</time>
      </trkpt>
      <trkpt lat="33.714797" lon="-3.056658">
        <ele>887.4</ele>
        <time>2008-09-25T10:35:02Z</time>
      </trkpt>
      <trkpt lat="33.714394" lon="-3.057033">
        <ele>892.2</ele>
        <time>2008-09-25T10:35:05Z</time>
      </trkpt>
      <trkpt lat="33.713970" lon="-3.057407">
        <ele>892.7</ele>
        <time>2008-09-25T10:35:08Z</time>
      </trkpt>
      <trkpt lat="33.713513" lon="-3.057807">
        <ele>895.6</ele>
        <time>2008-09-25T10:35:11Z</time>
      </trkpt>
      <trkpt lat="33.713043" lon="-3.058209">
        <ele>892.2</ele>
        <time>2008-09-25T10:35:14Z</time>
      </trkpt>
      <trkpt lat="33.712653" lon="-3.058537">
        <ele>887.4</ele>
        <time>2008-09-25T10:35:17Z</time>
      </trkpt>
      <trkpt lat="33.712210" lon="-3.058840">
        <ele>885.5</ele>
        <time>2008-09-25T10:35:22Z</time>
      </trkpt>
      <trkpt lat="33.711854" lon="-3.059189">
        <ele>887.0</ele>
        <time>2008-09-25T10:35:26Z</time>
      </trkpt>
      <trkpt lat="33.711437" lon="-3.059556">
        <ele>887.0</ele>
        <time>2008-09-25T10:35:30Z</time>
      </trkpt>
      <trkpt lat="33.710907" lon="-3.059857">
        <ele>889.4</ele>
        <time>2008-09-25T10:35:34Z</time>
      </trkpt>
      <trkpt lat="33.710501" lon="-3.060148">
        <ele>890.3</ele>
        <time>2008-09-25T10:35:37Z</time>
      </trkpt>
      <trkpt lat="33.709982" lon="-3.060458">
        <ele>886.5</ele>
        <time>2008-09-25T10:35:41Z</time>
      </trkpt>
      <trkpt lat="33.709477" lon="-3.060611">
        <ele>888.4</ele>
        <time>2008-09-25T10:35:45Z</time>
      </trkpt>
      <trkpt lat="33.708887" lon="-3.060730">
        <ele>888.4</ele>
        <time>2008-09-25T10:35:49Z</time>
      </trkpt>
      <trkpt lat="33.708303" lon="-3.060862">
        <ele>889.4</ele>
        <time>2008-09-25T10:35:53Z</time>
      </trkpt>
      <trkpt lat="33.707797" lon="-3.060936">
        <ele>889.8</ele>
        <time>2008-09-25T10:35:56Z</time>
      </trkpt>
      <trkpt lat="33.707321" lon="-3.061014">
        <ele>886.5</ele>
        <time>2008-09-25T10:35:59Z</time>
      </trkpt>
      <trkpt lat="33.706759" lon="-3.061262">
        <ele>888.4</ele>
        <time>2008-09-25T10:36:03Z</time>
      </trkpt>
      <trkpt lat="33.706329" lon="-3.061602">
        <ele>886.5</ele>
        <time>2008-09-25T10:36:06Z</time>
      </trkpt>
      <trkpt lat="33.705930" lon="-3.061980">
        <ele>887.4</ele>
        <time>2008-09-25T10:36:09Z</time>
      </trkpt>
      <trkpt lat="33.705480" lon="-3.062368">
        <ele>887.4</ele>
        <time>2008-09-25T10:36:12Z</time>
      </trkpt>
      <trkpt lat="33.705004" lon="-3.062791">
        <ele>885.0</ele>
        <time>2008-09-25T10:36:15Z</time>
      </trkpt>
      <trkpt lat="33.704577" lon="-3.063173">
        <ele>881.7</ele>
        <time>2008-09-25T10:36:18Z</time>
      </trkpt>
      <trkpt lat="33.704222" lon="-3.063533">
        <ele>879.3</ele>
        <time>2008-09-25T10:36:21Z</time>
      </trkpt>
      <trkpt lat="33.703877" lon="-3.063900">
        <ele>880.7</ele>
        <time>2008-09-25T10:36:24Z</time>
      </trkpt>
      <trkpt lat="33.703454" lon="-3.064199">
        <ele>880.7</ele>
        <time>2008-09-25T10:36:27Z</time>
      </trkpt>
      <trkpt lat="33.703037" lon="-3.064427">
        <ele>878.3</ele>
        <time>2008-09-25T10:36:30Z</time>
      </trkpt>
      <trkpt lat="33.702593" lon="-3.064850">
        <ele>875.9</ele>
        <time>2008-09-25T10:36:34Z</time>
      </trkpt>
      <trkpt lat="33.702276" lon="-3.065237">
        <ele>876.9</ele>
        <time>2008-09-25T10:36:37Z</time>
      </trkpt>
      <trkpt lat="33.701943" lon="-3.065635">
        <ele>878.3</ele>
        <time>2008-09-25T10:36:40Z</time>
      </trkpt>
      <trkpt lat="33.701493" lon="-3.066068">
        <ele>875.9</ele>
        <time>2008-09-25T10:36:44Z</time>
      </trkpt>
      <trkpt lat="33.701067" lon="-3.066395">
        <ele>870.1</ele>
        <time>2008-09-25T10:36:49Z</time>
      </trkpt>
      <trkpt lat="33.700616" lon="-3.066513">
        <ele>869.6</ele>
        <time>2008-09-25T10:37:16Z</time>
      </trkpt>
      <trkpt lat="33.700247" lon="-3.066922">
        <ele>870.6</ele>
        <time>2008-09-25T10:37:21Z</time>
      </trkpt>
      <trkpt lat="33.699773" lon="-3.067432">
        <ele>872.5</ele>
        <time>2008-09-25T10:37:25Z</time>
      </trkpt>
      <trkpt lat="33.699344" lon="-3.067889">
        <ele>872.5</ele>
        <time>2008-09-25T10:37:28Z</time>
      </trkpt>
      <trkpt lat="33.698873" lon="-3.068386">
        <ele>873.0</ele>
        <time>2008-09-25T10:37:31Z</time>
      </trkpt>
      <trkpt lat="33.698543" lon="-3.068734">
        <ele>872.5</ele>
        <time>2008-09-25T10:37:33Z</time>
      </trkpt>
      <trkpt lat="33.698037" lon="-3.069281">
        <ele>872.5</ele>
        <time>2008-09-25T10:37:36Z</time>
      </trkpt>
      <trkpt lat="33.697690" lon="-3.069656">
        <ele>872.1</ele>
        <time>2008-09-25T10:37:38Z</time>
      </trkpt>
      <trkpt lat="33.697335" lon="-3.070037">
        <ele>872.1</ele>
        <time>2008-09-25T10:37:40Z</time>
      </trkpt>
      <trkpt lat="33.696974" lon="-3.070423">
        <ele>872.5</ele>
        <time>2008-09-25T10:37:42Z</time>
      </trkpt>
      <trkpt lat="33.696611" lon="-3.070809">
        <ele>871.1</ele>
        <time>2008-09-25T10:37:44Z</time>
      </trkpt>
      <trkpt lat="33.696249" lon="-3.071194">
        <ele>871.1</ele>
        <time>2008-09-25T10:37:46Z</time>
      </trkpt>
      <trkpt lat="33.695888" lon="-3.071576">
        <ele>871.1</ele>
        <time>2008-09-25T10:37:48Z</time>
      </trkpt>
      <trkpt lat="33.695528" lon="-3.071963">
        <ele>871.1</ele>
        <time>2008-09-25T10:37:50Z</time>
      </trkpt>
      <trkpt lat="33.695170" lon="-3.072348">
        <ele>870.6</ele>
        <time>2008-09-25T10:37:52Z</time>
      </trkpt>
      <trkpt lat="33.694817" lon="-3.072724">
        <ele>870.6</ele>
        <time>2008-09-25T10:37:54Z</time>
      </trkpt>
      <trkpt lat="33.694471" lon="-3.073091">
        <ele>870.6</ele>
        <time>2008-09-25T10:37:56Z</time>
      </trkpt>
      <trkpt lat="33.694130" lon="-3.073451">
        <ele>870.6</ele>
        <time>2008-09-25T10:37:58Z</time>
      </trkpt>
      <trkpt lat="33.693785" lon="-3.073813">
        <ele>871.6</ele>
        <time>2008-09-25T10:38:00Z</time>
      </trkpt>
      <trkpt lat="33.693429" lon="-3.074173">
        <ele>872.1</ele>
        <time>2008-09-25T10:38:02Z</time>
      </trkpt>
      <trkpt lat="33.693065" lon="-3.074528">
        <ele>872.5</ele>
        <time>2008-09-25T10:38:04Z</time>
      </trkpt>
      <trkpt lat="33.692692" lon="-3.074884">
        <ele>872.5</ele>
        <time>2008-09-25T10:38:06Z</time>
      </trkpt>
      <trkpt lat="33.692313" lon="-3.075247">
        <ele>872.5</ele>
        <time>2008-09-25T10:38:08Z</time>
      </trkpt>
      <trkpt lat="33.691931" lon="-3.075613">
        <ele>872.1</ele>
        <time>2008-09-25T10:38:10Z</time>
      </trkpt>
      <trkpt lat="33.691545" lon="-3.075979">
        <ele>872.1</ele>
        <time>2008-09-25T10:38:12Z</time>
      </trkpt>
      <trkpt lat="33.691154" lon="-3.076344">
        <ele>872.1</ele>
        <time>2008-09-25T10:38:14Z</time>
      </trkpt>
      <trkpt lat="33.690753" lon="-3.076716">
        <ele>872.1</ele>
        <time>2008-09-25T10:38:16Z</time>
      </trkpt>
      <trkpt lat="33.690345" lon="-3.077094">
        <ele>871.1</ele>
        <time>2008-09-25T10:38:18Z</time>
      </trkpt>
      <trkpt lat="33.689927" lon="-3.077481">
        <ele>870.6</ele>
        <time>2008-09-25T10:38:20Z</time>
      </trkpt>
      <trkpt lat="33.689494" lon="-3.077883">
        <ele>870.6</ele>
        <time>2008-09-25T10:38:22Z</time>
      </trkpt>
      <trkpt lat="33.689047" lon="-3.078300">
        <ele>871.6</ele>
        <time>2008-09-25T10:38:24Z</time>
      </trkpt>
      <trkpt lat="33.688588" lon="-3.078728">
        <ele>871.6</ele>
        <time>2008-09-25T10:38:26Z</time>
      </trkpt>
      <trkpt lat="33.688119" lon="-3.079165">
        <ele>872.1</ele>
        <time>2008-09-25T10:38:28Z</time>
      </trkpt>
      <trkpt lat="33.687642" lon="-3.079610">
        <ele>873.0</ele>
        <time>2008-09-25T10:38:30Z</time>
      </trkpt>
      <trkpt lat="33.687165" lon="-3.080054">
        <ele>873.5</ele>
        <time>2008-09-25T10:38:32Z</time>
      </trkpt>
      <trkpt lat="33.686689" lon="-3.080498">
        <ele>873.0</ele>
        <time>2008-09-25T10:38:34Z</time>
      </trkpt>
      <trkpt lat="33.686201" lon="-3.080956">
        <ele>873.0</ele>
        <time>2008-09-25T10:38:36Z</time>
      </trkpt>
      <trkpt lat="33.685705" lon="-3.081419">
        <ele>874.0</ele>
        <time>2008-09-25T10:38:38Z</time>
      </trkpt>
      <trkpt lat="33.685214" lon="-3.081875">
        <ele>873.5</ele>
        <time>2008-09-25T10:38:40Z</time>
      </trkpt>
      <trkpt lat="33.684726" lon="-3.082327">
        <ele>874.0</ele>
        <time>2008-09-25T10:38:42Z</time>
      </trkpt>
      <trkpt lat="33.684240" lon="-3.082775">
        <ele>874.0</ele>
        <time>2008-09-25T10:38:44Z</time>
      </trkpt>
      <trkpt lat="33.683749" lon="-3.083228">
        <ele>874.5</ele>
        <time>2008-09-25T10:38:46Z</time>
      </trkpt>
      <trkpt lat="33.683248" lon="-3.083689">
        <ele>875.4</ele>
        <time>2008-09-25T10:38:48Z</time>
      </trkpt>
      <trkpt lat="33.682740" lon="-3.084160">
        <ele>876.4</ele>
        <time>2008-09-25T10:38:50Z</time>
      </trkpt>
      <trkpt lat="33.682226" lon="-3.084642">
        <ele>876.9</ele>
        <time>2008-09-25T10:38:52Z</time>
      </trkpt>
      <trkpt lat="33.681704" lon="-3.085131">
        <ele>877.8</ele>
        <time>2008-09-25T10:38:54Z</time>
      </trkpt>
      <trkpt lat="33.681175" lon="-3.085623">
        <ele>877.8</ele>
        <time>2008-09-25T10:38:56Z</time>
      </trkpt>
      <trkpt lat="33.680639" lon="-3.086116">
        <ele>877.8</ele>
        <time>2008-09-25T10:38:58Z</time>
      </trkpt>
      <trkpt lat="33.680105" lon="-3.086610">
        <ele>877.3</ele>
        <time>2008-09-25T10:39:00Z</time>
      </trkpt>
      <trkpt lat="33.679575" lon="-3.087101">
        <ele>876.9</ele>
        <time>2008-09-25T10:39:02Z</time>
      </trkpt>
      <trkpt lat="33.679042" lon="-3.087596">
        <ele>875.9</ele>
        <time>2008-09-25T10:39:04Z</time>
      </trkpt>
      <trkpt lat="33.678504" lon="-3.088096">
        <ele>874.5</ele>
        <time>2008-09-25T10:39:06Z</time>
      </trkpt>
      <trkpt lat="33.677959" lon="-3.088599">
        <ele>874.0</ele>
        <time>2008-09-25T10:39:08Z</time>
      </trkpt>
      <trkpt lat="33.677411" lon="-3.089107">
        <ele>874.5</ele>
        <time>2008-09-25T10:39:10Z</time>
      </trkpt>
      <trkpt lat="33.676864" lon="-3.089617">
        <ele>872.5</ele>
        <time>2008-09-25T10:39:12Z</time>
      </trkpt>
      <trkpt lat="33.676351" lon="-3.090094">
        <ele>869.2</ele>
        <time>2008-09-25T10:39:14Z</time>
      </trkpt>
      <trkpt lat="33.675890" lon="-3.090525">
        <ele>866.8</ele>
        <time>2008-09-25T10:39:16Z</time>
      </trkpt>
      <trkpt lat="33.675485" lon="-3.090903">
        <ele>863.4</ele>
        <time>2008-09-25T10:39:18Z</time>
      </trkpt>
      <trkpt lat="33.674968" lon="-3.091395">
        <ele>861.5</ele>
        <time>2008-09-25T10:39:21Z</time>
      </trkpt>
      <trkpt lat="33.674432" lon="-3.091895">
        <ele>863.4</ele>
        <time>2008-09-25T10:39:24Z</time>
      </trkpt>
      <trkpt lat="33.674050" lon="-3.092243">
        <ele>864.8</ele>
        <time>2008-09-25T10:39:26Z</time>
      </trkpt>
      <trkpt lat="33.673653" lon="-3.092608">
        <ele>865.3</ele>
        <time>2008-09-25T10:39:28Z</time>
      </trkpt>
      <trkpt lat="33.673248" lon="-3.092994">
        <ele>866.8</ele>
        <time>2008-09-25T10:39:30Z</time>
      </trkpt>
      <trkpt lat="33.672829" lon="-3.093394">
        <ele>867.2</ele>
        <time>2008-09-25T10:39:32Z</time>
      </trkpt>
      <trkpt lat="33.672392" lon="-3.093803">
        <ele>868.7</ele>
        <time>2008-09-25T10:39:34Z</time>
      </trkpt>
      <trkpt lat="33.671939" lon="-3.094222">
        <ele>869.2</ele>
        <time>2008-09-25T10:39:36Z</time>
      </trkpt>
      <trkpt lat="33.671474" lon="-3.094655">
        <ele>870.6</ele>
        <time>2008-09-25T10:39:38Z</time>
      </trkpt>
      <trkpt lat="33.670997" lon="-3.095101">
        <ele>871.6</ele>
        <time>2008-09-25T10:39:40Z</time>
      </trkpt>
      <trkpt lat="33.670515" lon="-3.095549">
        <ele>872.5</ele>
        <time>2008-09-25T10:39:42Z</time>
      </trkpt>
      <trkpt lat="33.670041" lon="-3.095992">
        <ele>873.0</ele>
        <time>2008-09-25T10:39:44Z</time>
      </trkpt>
      <trkpt lat="33.669575" lon="-3.096424">
        <ele>873.5</ele>
        <time>2008-09-25T10:39:46Z</time>
      </trkpt>
      <trkpt lat="33.669115" lon="-3.096848">
        <ele>874.0</ele>
        <time>2008-09-25T10:39:48Z</time>
      </trkpt>
      <trkpt lat="33.668655" lon="-3.097279">
        <ele>874.9</ele>
        <time>2008-09-25T10:39:50Z</time>
      </trkpt>
      <trkpt lat="33.668185" lon="-3.097717">
        <ele>875.4</ele>
        <time>2008-09-25T10:39:52Z</time>
      </trkpt>
      <trkpt lat="33.667703" lon="-3.098169">
        <ele>874.5</ele>
        <time>2008-09-25T10:39:54Z</time>
      </trkpt>
      <trkpt lat="33.667211" lon="-3.098639">
        <ele>874.5</ele>
        <time>2008-09-25T10:39:56Z</time>
      </trkpt>
      <trkpt lat="33.666711" lon="-3.099128">
        <ele>874.9</ele>
        <time>2008-09-25T10:39:58Z</time>
      </trkpt>
      <trkpt lat="33.666212" lon="-3.099629">
        <ele>874.5</ele>
        <time>2008-09-25T10:40:00Z</time>
      </trkpt>
      <trkpt lat="33.665732" lon="-3.100142">
        <ele>873.0</ele>
        <time>2008-09-25T10:40:02Z</time>
      </trkpt>
      <trkpt lat="33.665264" lon="-3.100658">
        <ele>871.6</ele>
        <time>2008-09-25T10:40:04Z</time>
      </trkpt>
      <trkpt lat="33.664810" lon="-3.101168">
        <ele>870.6</ele>
        <time>2008-09-25T10:40:06Z</time>
      </trkpt>
      <trkpt lat="33.664386" lon="-3.101642">
        <ele>868.7</ele>
        <time>2008-09-25T10:40:08Z</time>
      </trkpt>
      <trkpt lat="33.664012" lon="-3.102063">
        <ele>864.8</ele>
        <time>2008-09-25T10:40:10Z</time>
      </trkpt>
      <trkpt lat="33.663551" lon="-3.102579">
        <ele>862.0</ele>
        <time>2008-09-25T10:40:13Z</time>
      </trkpt>
      <trkpt lat="33.663125" lon="-3.103061">
        <ele>861.0</ele>
        <time>2008-09-25T10:40:16Z</time>
      </trkpt>
      <trkpt lat="33.662666" lon="-3.103569">
        <ele>861.5</ele>
        <time>2008-09-25T10:40:19Z</time>
      </trkpt>
      <trkpt lat="33.662336" lon="-3.103937">
        <ele>862.4</ele>
        <time>2008-09-25T10:40:21Z</time>
      </trkpt>
      <trkpt lat="33.661989" lon="-3.104323">
        <ele>863.4</ele>
        <time>2008-09-25T10:40:23Z</time>
      </trkpt>
      <trkpt lat="33.661624" lon="-3.104725">
        <ele>863.9</ele>
        <time>2008-09-25T10:40:25Z</time>
      </trkpt>
      <trkpt lat="33.661245" lon="-3.105140">
        <ele>864.4</ele>
        <time>2008-09-25T10:40:27Z</time>
      </trkpt>
      <trkpt lat="33.660870" lon="-3.105560">
        <ele>863.9</ele>
        <time>2008-09-25T10:40:29Z</time>
      </trkpt>
      <trkpt lat="33.660512" lon="-3.105967">
        <ele>862.4</ele>
        <time>2008-09-25T10:40:31Z</time>
      </trkpt>
      <trkpt lat="33.660158" lon="-3.106366">
        <ele>862.0</ele>
        <time>2008-09-25T10:40:33Z</time>
      </trkpt>
      <trkpt lat="33.659804" lon="-3.106767">
        <ele>862.4</ele>
        <time>2008-09-25T10:40:35Z</time>
      </trkpt>
      <trkpt lat="33.659440" lon="-3.107176">
        <ele>863.9</ele>
        <time>2008-09-25T10:40:37Z</time>
      </trkpt>
      <trkpt lat="33.659060" lon="-3.107601">
        <ele>864.8</ele>
        <time>2008-09-25T10:40:39Z</time>
      </trkpt>
      <trkpt lat="33.658668" lon="-3.108040">
        <ele>865.3</ele>
        <time>2008-09-25T10:40:41Z</time>
      </trkpt>
      <trkpt lat="33.658268" lon="-3.108483">
        <ele>865.8</ele>
        <time>2008-09-25T10:40:43Z</time>
      </trkpt>
      <trkpt lat="33.657861" lon="-3.108928">
        <ele>867.2</ele>
        <time>2008-09-25T10:40:45Z</time>
      </trkpt>
      <trkpt lat="33.657443" lon="-3.109360">
        <ele>867.2</ele>
        <time>2008-09-25T10:40:47Z</time>
      </trkpt>
      <trkpt lat="33.656997" lon="-3.109762">
        <ele>867.2</ele>
        <time>2008-09-25T10:40:49Z</time>
      </trkpt>
      <trkpt lat="33.656516" lon="-3.110120">
        <ele>867.7</ele>
        <time>2008-09-25T10:40:51Z</time>
      </trkpt>
      <trkpt lat="33.656007" lon="-3.110436">
        <ele>868.7</ele>
        <time>2008-09-25T10:40:53Z</time>
      </trkpt>
      <trkpt lat="33.655473" lon="-3.110707">
        <ele>868.7</ele>
        <time>2008-09-25T10:40:55Z</time>
      </trkpt>
      <trkpt lat="33.654918" lon="-3.110927">
        <ele>869.6</ele>
        <time>2008-09-25T10:40:57Z</time>
      </trkpt>
      <trkpt lat="33.654341" lon="-3.111089">
        <ele>870.6</ele>
        <time>2008-09-25T10:40:59Z</time>
      </trkpt>
      <trkpt lat="33.653741" lon="-3.111178">
        <ele>870.1</ele>
        <time>2008-09-25T10:41:01Z</time>
      </trkpt>
      <trkpt lat="33.653122" lon="-3.111196">
        <ele>870.6</ele>
        <time>2008-09-25T10:41:03Z</time>
      </trkpt>
      <trkpt lat="33.652492" lon="-3.111147">
        <ele>870.6</ele>
        <time>2008-09-25T10:41:05Z</time>
      </trkpt>
      <trkpt lat="33.651856" lon="-3.111032">
        <ele>870.1</ele>
        <time>2008-09-25T10:41:07Z</time>
      </trkpt>
      <trkpt lat="33.651210" lon="-3.110880">
        <ele>868.7</ele>
        <time>2008-09-25T10:41:09Z</time>
      </trkpt>
      <trkpt lat="33.650564" lon="-3.110713">
        <ele>868.2</ele>
        <time>2008-09-25T10:41:11Z</time>
      </trkpt>
      <trkpt lat="33.649923" lon="-3.110549">
        <ele>867.2</ele>
        <time>2008-09-25T10:41:13Z</time>
      </trkpt>
      <trkpt lat="33.649286" lon="-3.110391">
        <ele>866.8</ele>
        <time>2008-09-25T10:41:15Z</time>
      </trkpt>
      <trkpt lat="33.648650" lon="-3.110235">
        <ele>866.3</ele>
        <time>2008-09-25T10:41:17Z</time>
      </trkpt>
      <trkpt lat="33.648015" lon="-3.110080">
        <ele>866.3</ele>
        <time>2008-09-25T10:41:19Z</time>
      </trkpt>
      <trkpt lat="33.647403" lon="-3.109930">
        <ele>865.3</ele>
        <time>2008-09-25T10:41:21Z</time>
      </trkpt>
      <trkpt lat="33.646825" lon="-3.109786">
        <ele>863.9</ele>
        <time>2008-09-25T10:41:23Z</time>
      </trkpt>
      <trkpt lat="33.646289" lon="-3.109650">
        <ele>864.4</ele>
        <time>2008-09-25T10:41:25Z</time>
      </trkpt>
      <trkpt lat="33.645799" lon="-3.109528">
        <ele>862.9</ele>
        <time>2008-09-25T10:41:27Z</time>
      </trkpt>
      <trkpt lat="33.645171" lon="-3.109373">
        <ele>860.0</ele>
        <time>2008-09-25T10:41:30Z</time>
      </trkpt>
      <trkpt lat="33.644687" lon="-3.109243">
        <ele>859.1</ele>
        <time>2008-09-25T10:41:33Z</time>
      </trkpt>
      <trkpt lat="33.644230" lon="-3.109106">
        <ele>858.1</ele>
        <time>2008-09-25T10:41:37Z</time>
      </trkpt>
      <trkpt lat="33.643736" lon="-3.108976">
        <ele>859.1</ele>
        <time>2008-09-25T10:41:42Z</time>
      </trkpt>
      <trkpt lat="33.643195" lon="-3.108846">
        <ele>860.5</ele>
        <time>2008-09-25T10:41:47Z</time>
      </trkpt>
      <trkpt lat="33.642730" lon="-3.108744">
        <ele>862.4</ele>
        <time>2008-09-25T10:41:50Z</time>
      </trkpt>
      <trkpt lat="33.642181" lon="-3.108636">
        <ele>864.4</ele>
        <time>2008-09-25T10:41:53Z</time>
      </trkpt>
      <trkpt lat="33.641584" lon="-3.108543">
        <ele>865.8</ele>
        <time>2008-09-25T10:41:56Z</time>
      </trkpt>
      <trkpt lat="33.640915" lon="-3.108470">
        <ele>867.2</ele>
        <time>2008-09-25T10:41:59Z</time>
      </trkpt>
      <trkpt lat="33.640431" lon="-3.108436">
        <ele>868.2</ele>
        <time>2008-09-25T10:42:01Z</time>
      </trkpt>
      <trkpt lat="33.639915" lon="-3.108422">
        <ele>868.2</ele>
        <time>2008-09-25T10:42:03Z</time>
      </trkpt>
      <trkpt lat="33.639372" lon="-3.108439">
        <ele>869.6</ele>
        <time>2008-09-25T10:42:05Z</time>
      </trkpt>
      <trkpt lat="33.638810" lon="-3.108486">
        <ele>869.6</ele>
        <time>2008-09-25T10:42:07Z</time>
      </trkpt>
      <trkpt lat="33.638249" lon="-3.108539">
        <ele>869.2</ele>
        <time>2008-09-25T10:42:09Z</time>
      </trkpt>
      <trkpt lat="33.637675" lon="-3.108593">
        <ele>868.7</ele>
        <time>2008-09-25T10:42:11Z</time>
      </trkpt>
      <trkpt lat="33.637085" lon="-3.108647">
        <ele>867.7</ele>
        <time>2008-09-25T10:42:13Z</time>
      </trkpt>
      <trkpt lat="33.636478" lon="-3.108704">
        <ele>867.2</ele>
        <time>2008-09-25T10:42:15Z</time>
      </trkpt>
      <trkpt lat="33.635856" lon="-3.108764">
        <ele>866.8</ele>
        <time>2008-09-25T10:42:17Z</time>
      </trkpt>
      <trkpt lat="33.635221" lon="-3.108829">
        <ele>866.3</ele>
        <time>2008-09-25T10:42:19Z</time>
      </trkpt>
      <trkpt lat="33.634576" lon="-3.108893">
        <ele>865.3</ele>
        <time>2008-09-25T10:42:21Z</time>
      </trkpt>
      <trkpt lat="33.633937" lon="-3.108956">
        <ele>863.9</ele>
        <time>2008-09-25T10:42:23Z</time>
      </trkpt>
      <trkpt lat="33.633316" lon="-3.109021">
        <ele>863.4</ele>
        <time>2008-09-25T10:42:25Z</time>
      </trkpt>
      <trkpt lat="33.632683" lon="-3.109082">
        <ele>863.4</ele>
        <time>2008-09-25T10:42:27Z</time>
      </trkpt>
      <trkpt lat="33.632038" lon="-3.109149">
        <ele>864.8</ele>
        <time>2008-09-25T10:42:29Z</time>
      </trkpt>
      <trkpt lat="33.631381" lon="-3.109217">
        <ele>865.8</ele>
        <time>2008-09-25T10:42:31Z</time>
      </trkpt>
      <trkpt lat="33.630715" lon="-3.109281">
        <ele>865.8</ele>
        <time>2008-09-25T10:42:33Z</time>
      </trkpt>
      <trkpt lat="33.630055" lon="-3.109341">
        <ele>866.3</ele>
        <time>2008-09-25T10:42:35Z</time>
      </trkpt>
      <trkpt lat="33.629412" lon="-3.109402">
        <ele>866.8</ele>
        <time>2008-09-25T10:42:37Z</time>
      </trkpt>
      <trkpt lat="33.628793" lon="-3.109462">
        <ele>866.3</ele>
        <time>2008-09-25T10:42:39Z</time>
      </trkpt>
      <trkpt lat="33.628210" lon="-3.109521">
        <ele>866.3</ele>
        <time>2008-09-25T10:42:41Z</time>
      </trkpt>
      <trkpt lat="33.627634" lon="-3.109581">
        <ele>868.2</ele>
        <time>2008-09-25T10:42:43Z</time>
      </trkpt>
      <trkpt lat="33.627044" lon="-3.109667">
        <ele>868.7</ele>
        <time>2008-09-25T10:42:45Z</time>
      </trkpt>
      <trkpt lat="33.626441" lon="-3.109783">
        <ele>867.7</ele>
        <time>2008-09-25T10:42:47Z</time>
      </trkpt>
      <trkpt lat="33.625825" lon="-3.109915">
        <ele>868.7</ele>
        <time>2008-09-25T10:42:49Z</time>
      </trkpt>
      <trkpt lat="33.625197" lon="-3.110054">
        <ele>868.2</ele>
        <time>2008-09-25T10:42:51Z</time>
      </trkpt>
      <trkpt lat="33.624556" lon="-3.110198">
        <ele>868.7</ele>
        <time>2008-09-25T10:42:53Z</time>
      </trkpt>
      <trkpt lat="33.623906" lon="-3.110348">
        <ele>868.7</ele>
        <time>2008-09-25T10:42:55Z</time>
      </trkpt>
      <trkpt lat="33.623260" lon="-3.110499">
        <ele>868.2</ele>
        <time>2008-09-25T10:42:57Z</time>
      </trkpt>
      <trkpt lat="33.622624" lon="-3.110646">
        <ele>868.2</ele>
        <time>2008-09-25T10:42:59Z</time>
      </trkpt>
      <trkpt lat="33.621993" lon="-3.110792">
        <ele>867.7</ele>
        <time>2008-09-25T10:43:01Z</time>
      </trkpt>
      <trkpt lat="33.621360" lon="-3.110938">
        <ele>868.2</ele>
        <time>2008-09-25T10:43:03Z</time>
      </trkpt>
      <trkpt lat="33.620736" lon="-3.111085">
        <ele>868.7</ele>
        <time>2008-09-25T10:43:05Z</time>
      </trkpt>
      <trkpt lat="33.620135" lon="-3.111225">
        <ele>868.2</ele>
        <time>2008-09-25T10:43:07Z</time>
      </trkpt>
      <trkpt lat="33.619548" lon="-3.111356">
        <ele>869.2</ele>
        <time>2008-09-25T10:43:09Z</time>
      </trkpt>
      <trkpt lat="33.618977" lon="-3.111475">
        <ele>869.2</ele>
        <time>2008-09-25T10:43:11Z</time>
      </trkpt>
      <trkpt lat="33.618425" lon="-3.111576">
        <ele>869.2</ele>
        <time>2008-09-25T10:43:13Z</time>
      </trkpt>
      <trkpt lat="33.617867" lon="-3.111647">
        <ele>869.6</ele>
        <time>2008-09-25T10:43:15Z</time>
      </trkpt>
      <trkpt lat="33.617291" lon="-3.111669">
        <ele>870.1</ele>
        <time>2008-09-25T10:43:17Z</time>
      </trkpt>
      <trkpt lat="33.616705" lon="-3.111654">
        <ele>870.6</ele>
        <time>2008-09-25T10:43:19Z</time>
      </trkpt>
      <trkpt lat="33.616102" lon="-3.111627">
        <ele>870.1</ele>
        <time>2008-09-25T10:43:21Z</time>
      </trkpt>
      <trkpt lat="33.615482" lon="-3.111596">
        <ele>870.6</ele>
        <time>2008-09-25T10:43:23Z</time>
      </trkpt>
      <trkpt lat="33.614854" lon="-3.111564">
        <ele>871.1</ele>
        <time>2008-09-25T10:43:25Z</time>
      </trkpt>
      <trkpt lat="33.614218" lon="-3.111531">
        <ele>872.1</ele>
        <time>2008-09-25T10:43:27Z</time>
      </trkpt>
      <trkpt lat="33.613586" lon="-3.111500">
        <ele>872.5</ele>
        <time>2008-09-25T10:43:29Z</time>
      </trkpt>
      <trkpt lat="33.612971" lon="-3.111481">
        <ele>872.5</ele>
        <time>2008-09-25T10:43:31Z</time>
      </trkpt>
      <trkpt lat="33.612386" lon="-3.111502">
        <ele>873.0</ele>
        <time>2008-09-25T10:43:33Z</time>
      </trkpt>
      <trkpt lat="33.611848" lon="-3.111586">
        <ele>873.0</ele>
        <time>2008-09-25T10:43:35Z</time>
      </trkpt>
      <trkpt lat="33.611394" lon="-3.111685">
        <ele>872.5</ele>
        <time>2008-09-25T10:43:37Z</time>
      </trkpt>
      <trkpt lat="33.610740" lon="-3.111899">
        <ele>874.9</ele>
        <time>2008-09-25T10:43:40Z</time>
      </trkpt>
      <trkpt lat="33.610299" lon="-3.112101">
        <ele>874.9</ele>
        <time>2008-09-25T10:43:42Z</time>
      </trkpt>
      <trkpt lat="33.609855" lon="-3.112354">
        <ele>875.4</ele>
        <time>2008-09-25T10:43:44Z</time>
      </trkpt>
      <trkpt lat="33.609395" lon="-3.112633">
        <ele>875.9</ele>
        <time>2008-09-25T10:43:46Z</time>
      </trkpt>
      <trkpt lat="33.608915" lon="-3.112926">
        <ele>876.4</ele>
        <time>2008-09-25T10:43:48Z</time>
      </trkpt>
      <trkpt lat="33.608418" lon="-3.113230">
        <ele>877.3</ele>
        <time>2008-09-25T10:43:50Z</time>
      </trkpt>
      <trkpt lat="33.607912" lon="-3.113551">
        <ele>877.3</ele>
        <time>2008-09-25T10:43:52Z</time>
      </trkpt>
      <trkpt lat="33.607401" lon="-3.113897">
        <ele>877.3</ele>
        <time>2008-09-25T10:43:54Z</time>
      </trkpt>
      <trkpt lat="33.606899" lon="-3.114287">
        <ele>877.8</ele>
        <time>2008-09-25T10:43:56Z</time>
      </trkpt>
      <trkpt lat="33.606401" lon="-3.114712">
        <ele>878.3</ele>
        <time>2008-09-25T10:43:58Z</time>
      </trkpt>
      <trkpt lat="33.605899" lon="-3.115153">
        <ele>878.3</ele>
        <time>2008-09-25T10:44:00Z</time>
      </trkpt>
      <trkpt lat="33.605387" lon="-3.115600">
        <ele>878.3</ele>
        <time>2008-09-25T10:44:02Z</time>
      </trkpt>
      <trkpt lat="33.604870" lon="-3.116056">
        <ele>879.3</ele>
        <time>2008-09-25T10:44:04Z</time>
      </trkpt>
      <trkpt lat="33.604350" lon="-3.116520">
        <ele>878.3</ele>
        <time>2008-09-25T10:44:06Z</time>
      </trkpt>
      <trkpt lat="33.603828" lon="-3.116984">
        <ele>879.7</ele>
        <time>2008-09-25T10:44:08Z</time>
      </trkpt>
      <trkpt lat="33.603304" lon="-3.117448">
        <ele>880.7</ele>
        <time>2008-09-25T10:44:10Z</time>
      </trkpt>
      <trkpt lat="33.602777" lon="-3.117911">
        <ele>880.7</ele>
        <time>2008-09-25T10:44:12Z</time>
      </trkpt>
      <trkpt lat="33.602246" lon="-3.118379">
        <ele>881.7</ele>
        <time>2008-09-25T10:44:14Z</time>
      </trkpt>
      <trkpt lat="33.601712" lon="-3.118848">
        <ele>882.1</ele>
        <time>2008-09-25T10:44:16Z</time>
      </trkpt>
      <trkpt lat="33.601175" lon="-3.119318">
        <ele>882.1</ele>
        <time>2008-09-25T10:44:18Z</time>
      </trkpt>
      <trkpt lat="33.600633" lon="-3.119792">
        <ele>882.1</ele>
        <time>2008-09-25T10:44:20Z</time>
      </trkpt>
      <trkpt lat="33.600090" lon="-3.120271">
        <ele>883.1</ele>
        <time>2008-09-25T10:44:22Z</time>
      </trkpt>
      <trkpt lat="33.599556" lon="-3.120746">
        <ele>884.1</ele>
        <time>2008-09-25T10:44:24Z</time>
      </trkpt>
      <trkpt lat="33.599021" lon="-3.121216">
        <ele>885.5</ele>
        <time>2008-09-25T10:44:26Z</time>
      </trkpt>
      <trkpt lat="33.598475" lon="-3.121695">
        <ele>885.0</ele>
        <time>2008-09-25T10:44:28Z</time>
      </trkpt>
      <trkpt lat="33.597921" lon="-3.122182">
        <ele>885.5</ele>
        <time>2008-09-25T10:44:30Z</time>
      </trkpt>
      <trkpt lat="33.597373" lon="-3.122664">
        <ele>886.0</ele>
        <time>2008-09-25T10:44:32Z</time>
      </trkpt>
      <trkpt lat="33.596843" lon="-3.123136">
        <ele>885.0</ele>
        <time>2008-09-25T10:44:34Z</time>
      </trkpt>
      <trkpt lat="33.596332" lon="-3.123601">
        <ele>885.0</ele>
        <time>2008-09-25T10:44:36Z</time>
      </trkpt>
      <trkpt lat="33.595841" lon="-3.124084">
        <ele>885.0</ele>
        <time>2008-09-25T10:44:38Z</time>
      </trkpt>
      <trkpt lat="33.595371" lon="-3.124613">
        <ele>885.0</ele>
        <time>2008-09-25T10:44:40Z</time>
      </trkpt>
      <trkpt lat="33.594927" lon="-3.125180">
        <ele>886.0</ele>
        <time>2008-09-25T10:44:42Z</time>
      </trkpt>
      <trkpt lat="33.594514" lon="-3.125784">
        <ele>886.0</ele>
        <time>2008-09-25T10:44:44Z</time>
      </trkpt>
      <trkpt lat="33.594120" lon="-3.126418">
        <ele>886.5</ele>
        <time>2008-09-25T10:44:46Z</time>
      </trkpt>
      <trkpt lat="33.593731" lon="-3.127072">
        <ele>885.5</ele>
        <time>2008-09-25T10:44:48Z</time>
      </trkpt>
      <trkpt lat="33.593340" lon="-3.127735">
        <ele>885.0</ele>
        <time>2008-09-25T10:44:50Z</time>
      </trkpt>
      <trkpt lat="33.592947" lon="-3.128399">
        <ele>884.6</ele>
        <time>2008-09-25T10:44:52Z</time>
      </trkpt>
      <trkpt lat="33.592559" lon="-3.129058">
        <ele>882.1</ele>
        <time>2008-09-25T10:44:54Z</time>
      </trkpt>
      <trkpt lat="33.592178" lon="-3.129707">
        <ele>879.7</ele>
        <time>2008-09-25T10:44:56Z</time>
      </trkpt>
      <trkpt lat="33.591807" lon="-3.130340">
        <ele>878.8</ele>
        <time>2008-09-25T10:44:58Z</time>
      </trkpt>
      <trkpt lat="33.591446" lon="-3.130950">
        <ele>876.4</ele>
        <time>2008-09-25T10:45:00Z</time>
      </trkpt>
      <trkpt lat="33.591112" lon="-3.131519">
        <ele>873.5</ele>
        <time>2008-09-25T10:45:02Z</time>
      </trkpt>
      <trkpt lat="33.590814" lon="-3.132034">
        <ele>871.1</ele>
        <time>2008-09-25T10:45:04Z</time>
      </trkpt>
      <trkpt lat="33.590546" lon="-3.132496">
        <ele>868.7</ele>
        <time>2008-09-25T10:45:06Z</time>
      </trkpt>
      <trkpt lat="33.590189" lon="-3.133106">
        <ele>866.8</ele>
        <time>2008-09-25T10:45:09Z</time>
      </trkpt>
      <trkpt lat="33.589866" lon="-3.133660">
        <ele>865.8</ele>
        <time>2008-09-25T10:45:12Z</time>
      </trkpt>
      <trkpt lat="33.589533" lon="-3.134222">
        <ele>866.3</ele>
        <time>2008-09-25T10:45:15Z</time>
      </trkpt>
      <trkpt lat="33.589170" lon="-3.134835">
        <ele>867.7</ele>
        <time>2008-09-25T10:45:18Z</time>
      </trkpt>
      <trkpt lat="33.588780" lon="-3.135500">
        <ele>868.7</ele>
        <time>2008-09-25T10:45:21Z</time>
      </trkpt>
      <trkpt lat="33.588506" lon="-3.135971">
        <ele>869.6</ele>
        <time>2008-09-25T10:45:23Z</time>
      </trkpt>
      <trkpt lat="33.588219" lon="-3.136460">
        <ele>870.6</ele>
        <time>2008-09-25T10:45:25Z</time>
      </trkpt>
      <trkpt lat="33.587924" lon="-3.136963">
        <ele>872.1</ele>
        <time>2008-09-25T10:45:27Z</time>
      </trkpt>
      <trkpt lat="33.587631" lon="-3.137469">
        <ele>872.5</ele>
        <time>2008-09-25T10:45:29Z</time>
      </trkpt>
      <trkpt lat="33.587339" lon="-3.137981">
        <ele>873.5</ele>
        <time>2008-09-25T10:45:31Z</time>
      </trkpt>
      <trkpt lat="33.587041" lon="-3.138514">
        <ele>873.0</ele>
        <time>2008-09-25T10:45:33Z</time>
      </trkpt>
      <trkpt lat="33.586741" lon="-3.139072">
        <ele>872.5</ele>
        <time>2008-09-25T10:45:35Z</time>
      </trkpt>
      <trkpt lat="33.586440" lon="-3.139655">
        <ele>873.0</ele>
        <time>2008-09-25T10:45:37Z</time>
      </trkpt>
      <trkpt lat="33.586128" lon="-3.140254">
        <ele>872.5</ele>
        <time>2008-09-25T10:45:39Z</time>
      </trkpt>
      <trkpt lat="33.585806" lon="-3.140866">
        <ele>872.1</ele>
        <time>2008-09-25T10:45:41Z</time>
      </trkpt>
      <trkpt lat="33.585478" lon="-3.141494">
        <ele>872.1</ele>
        <time>2008-09-25T10:45:43Z</time>
      </trkpt>
      <trkpt lat="33.585146" lon="-3.142138">
        <ele>872.5</ele>
        <time>2008-09-25T10:45:45Z</time>
      </trkpt>
      <trkpt lat="33.584808" lon="-3.142791">
        <ele>872.5</ele>
        <time>2008-09-25T10:45:47Z</time>
      </trkpt>
      <trkpt lat="33.584464" lon="-3.143448">
        <ele>872.5</ele>
        <time>2008-09-25T10:45:49Z</time>
      </trkpt>
      <trkpt lat="33.584123" lon="-3.144098">
        <ele>872.1</ele>
        <time>2008-09-25T10:45:51Z</time>
      </trkpt>
      <trkpt lat="33.583791" lon="-3.144740">
        <ele>871.1</ele>
        <time>2008-09-25T10:45:53Z</time>
      </trkpt>
      <trkpt lat="33.583465" lon="-3.145376">
        <ele>870.1</ele>
        <time>2008-09-25T10:45:55Z</time>
      </trkpt>
      <trkpt lat="33.583136" lon="-3.146008">
        <ele>869.6</ele>
        <time>2008-09-25T10:45:57Z</time>
      </trkpt>
      <trkpt lat="33.582802" lon="-3.146640">
        <ele>868.7</ele>
        <time>2008-09-25T10:45:59Z</time>
      </trkpt>
      <trkpt lat="33.582465" lon="-3.147273">
        <ele>868.7</ele>
        <time>2008-09-25T10:46:01Z</time>
      </trkpt>
      <trkpt lat="33.582114" lon="-3.147905">
        <ele>868.7</ele>
        <time>2008-09-25T10:46:03Z</time>
      </trkpt>
      <trkpt lat="33.581737" lon="-3.148524">
        <ele>867.7</ele>
        <time>2008-09-25T10:46:05Z</time>
      </trkpt>
      <trkpt lat="33.581325" lon="-3.149120">
        <ele>867.7</ele>
        <time>2008-09-25T10:46:07Z</time>
      </trkpt>
      <trkpt lat="33.580877" lon="-3.149689">
        <ele>868.2</ele>
        <time>2008-09-25T10:46:09Z</time>
      </trkpt>
      <trkpt lat="33.580405" lon="-3.150237">
        <ele>868.7</ele>
        <time>2008-09-25T10:46:11Z</time>
      </trkpt>
      <trkpt lat="33.579920" lon="-3.150777">
        <ele>867.2</ele>
        <time>2008-09-25T10:46:13Z</time>
      </trkpt>
      <trkpt lat="33.579430" lon="-3.151314">
        <ele>867.2</ele>
        <time>2008-09-25T10:46:15Z</time>
      </trkpt>
      <trkpt lat="33.578937" lon="-3.151851">
        <ele>867.2</ele>
        <time>2008-09-25T10:46:17Z</time>
      </trkpt>
      <trkpt lat="33.578442" lon="-3.152394">
        <ele>866.8</ele>
        <time>2008-09-25T10:46:19Z</time>
      </trkpt>
      <trkpt lat="33.577943" lon="-3.152943">
        <ele>866.8</ele>
        <time>2008-09-25T10:46:21Z</time>
      </trkpt>
      <trkpt lat="33.577438" lon="-3.153497">
        <ele>867.2</ele>
        <time>2008-09-25T10:46:23Z</time>
      </trkpt>
      <trkpt lat="33.576928" lon="-3.154056">
        <ele>867.7</ele>
        <time>2008-09-25T10:46:25Z</time>
      </trkpt>
      <trkpt lat="33.576414" lon="-3.154619">
        <ele>867.7</ele>
        <time>2008-09-25T10:46:27Z</time>
      </trkpt>
      <trkpt lat="33.575899" lon="-3.155182">
        <ele>867.7</ele>
        <time>2008-09-25T10:46:29Z</time>
      </trkpt>
      <trkpt lat="33.575396" lon="-3.155737">
        <ele>866.8</ele>
        <time>2008-09-25T10:46:31Z</time>
      </trkpt>
      <trkpt lat="33.574914" lon="-3.156276">
        <ele>864.4</ele>
        <time>2008-09-25T10:46:33Z</time>
      </trkpt>
      <trkpt lat="33.574452" lon="-3.156793">
        <ele>863.4</ele>
        <time>2008-09-25T10:46:35Z</time>
      </trkpt>
      <trkpt lat="33.574007" lon="-3.157288">
        <ele>861.5</ele>
        <time>2008-09-25T10:46:37Z</time>
      </trkpt>
      <trkpt lat="33.573587" lon="-3.157746">
        <ele>858.6</ele>
        <time>2008-09-25T10:46:39Z</time>
      </trkpt>
      <trkpt lat="33.573211" lon="-3.158156">
        <ele>855.7</ele>
        <time>2008-09-25T10:46:41Z</time>
      </trkpt>
      <trkpt lat="33.572872" lon="-3.158523">
        <ele>854.3</ele>
        <time>2008-09-25T10:46:43Z</time>
      </trkpt>
      <trkpt lat="33.572430" lon="-3.159002">
        <ele>851.9</ele>
        <time>2008-09-25T10:46:46Z</time>
      </trkpt>
      <trkpt lat="33.572076" lon="-3.159386">
        <ele>849.9</ele>
        <time>2008-09-25T10:46:49Z</time>
      </trkpt>
      <trkpt lat="33.571736" lon="-3.159774">
        <ele>846.6</ele>
        <time>2008-09-25T10:46:54Z</time>
      </trkpt>
      <trkpt lat="33.571360" lon="-3.160241">
        <ele>847.5</ele>
        <time>2008-09-25T10:47:00Z</time>
      </trkpt>
      <trkpt lat="33.571027" lon="-3.160822">
        <ele>848.5</ele>
        <time>2008-09-25T10:47:04Z</time>
      </trkpt>
      <trkpt lat="33.570769" lon="-3.161393">
        <ele>849.5</ele>
        <time>2008-09-25T10:47:07Z</time>
      </trkpt>
      <trkpt lat="33.570555" lon="-3.162010">
        <ele>849.9</ele>
        <time>2008-09-25T10:47:10Z</time>
      </trkpt>
      <trkpt lat="33.570424" lon="-3.162674">
        <ele>849.5</ele>
        <time>2008-09-25T10:47:13Z</time>
      </trkpt>
      <trkpt lat="33.570358" lon="-3.163382">
        <ele>849.0</ele>
        <time>2008-09-25T10:47:16Z</time>
      </trkpt>
      <trkpt lat="33.570381" lon="-3.164132">
        <ele>849.0</ele>
        <time>2008-09-25T10:47:19Z</time>
      </trkpt>
      <trkpt lat="33.570450" lon="-3.164670">
        <ele>849.0</ele>
        <time>2008-09-25T10:47:21Z</time>
      </trkpt>
      <trkpt lat="33.570563" lon="-3.165230">
        <ele>849.5</ele>
        <time>2008-09-25T10:47:23Z</time>
      </trkpt>
      <trkpt lat="33.570723" lon="-3.165805">
        <ele>849.5</ele>
        <time>2008-09-25T10:47:25Z</time>
      </trkpt>
      <trkpt lat="33.570896" lon="-3.166396">
        <ele>849.9</ele>
        <time>2008-09-25T10:47:27Z</time>
      </trkpt>
      <trkpt lat="33.571075" lon="-3.167004">
        <ele>850.4</ele>
        <time>2008-09-25T10:47:29Z</time>
      </trkpt>
      <trkpt lat="33.571259" lon="-3.167620">
        <ele>849.9</ele>
        <time>2008-09-25T10:47:31Z</time>
      </trkpt>
      <trkpt lat="33.571442" lon="-3.168248">
        <ele>849.5</ele>
        <time>2008-09-25T10:47:33Z</time>
      </trkpt>
      <trkpt lat="33.571633" lon="-3.168903">
        <ele>850.4</ele>
        <time>2008-09-25T10:47:35Z</time>
      </trkpt>
      <trkpt lat="33.571833" lon="-3.169585">
        <ele>849.0</ele>
        <time>2008-09-25T10:47:37Z</time>
      </trkpt>
      <trkpt lat="33.572042" lon="-3.170291">
        <ele>848.5</ele>
        <time>2008-09-25T10:47:39Z</time>
      </trkpt>
      <trkpt lat="33.572260" lon="-3.171020">
        <ele>848.5</ele>
        <time>2008-09-25T10:47:41Z</time>
      </trkpt>
      <trkpt lat="33.572481" lon="-3.171770">
        <ele>847.5</ele>
        <time>2008-09-25T10:47:43Z</time>
      </trkpt>
      <trkpt lat="33.572702" lon="-3.172540">
        <ele>847.5</ele>
        <time>2008-09-25T10:47:45Z</time>
      </trkpt>
      <trkpt lat="33.572924" lon="-3.173327">
        <ele>847.1</ele>
        <time>2008-09-25T10:47:47Z</time>
      </trkpt>
      <trkpt lat="33.573149" lon="-3.174128">
        <ele>846.1</ele>
        <time>2008-09-25T10:47:49Z</time>
      </trkpt>
      <trkpt lat="33.573347" lon="-3.174934">
        <ele>845.6</ele>
        <time>2008-09-25T10:47:51Z</time>
      </trkpt>
      <trkpt lat="33.573520" lon="-3.175751">
        <ele>845.1</ele>
        <time>2008-09-25T10:47:53Z</time>
      </trkpt>
      <trkpt lat="33.573679" lon="-3.176579">
        <ele>844.2</ele>
        <time>2008-09-25T10:47:55Z</time>
      </trkpt>
      <trkpt lat="33.573825" lon="-3.177411">
        <ele>842.7</ele>
        <time>2008-09-25T10:47:57Z</time>
      </trkpt>
      <trkpt lat="33.573975" lon="-3.178248">
        <ele>841.8</ele>
        <time>2008-09-25T10:47:59Z</time>
      </trkpt>
      <trkpt lat="33.574121" lon="-3.179086">
        <ele>841.3</ele>
        <time>2008-09-25T10:48:01Z</time>
      </trkpt>
      <trkpt lat="33.574268" lon="-3.179926">
        <ele>841.3</ele>
        <time>2008-09-25T10:48:03Z</time>
      </trkpt>
      <trkpt lat="33.574420" lon="-3.180767">
        <ele>840.8</ele>
        <time>2008-09-25T10:48:05Z</time>
      </trkpt>
      <trkpt lat="33.574575" lon="-3.181610">
        <ele>841.8</ele>
        <time>2008-09-25T10:48:07Z</time>
      </trkpt>
      <trkpt lat="33.574729" lon="-3.182455">
        <ele>842.3</ele>
        <time>2008-09-25T10:48:09Z</time>
      </trkpt>
      <trkpt lat="33.574878" lon="-3.183301">
        <ele>843.2</ele>
        <time>2008-09-25T10:48:11Z</time>
      </trkpt>
      <trkpt lat="33.575022" lon="-3.184127">
        <ele>844.7</ele>
        <time>2008-09-25T10:48:13Z</time>
      </trkpt>
      <trkpt lat="33.575159" lon="-3.184910">
        <ele>842.7</ele>
        <time>2008-09-25T10:48:15Z</time>
      </trkpt>
      <trkpt lat="33.575289" lon="-3.185666">
        <ele>843.2</ele>
        <time>2008-09-25T10:48:17Z</time>
      </trkpt>
      <trkpt lat="33.575415" lon="-3.186400">
        <ele>842.7</ele>
        <time>2008-09-25T10:48:19Z</time>
      </trkpt>
      <trkpt lat="33.575533" lon="-3.187104">
        <ele>841.3</ele>
        <time>2008-09-25T10:48:21Z</time>
      </trkpt>
      <trkpt lat="33.575625" lon="-3.187821">
        <ele>842.3</ele>
        <time>2008-09-25T10:48:23Z</time>
      </trkpt>
      <trkpt lat="33.575679" lon="-3.188561">
        <ele>842.3</ele>
        <time>2008-09-25T10:48:25Z</time>
      </trkpt>
      <trkpt lat="33.575698" lon="-3.189314">
        <ele>841.3</ele>
        <time>2008-09-25T10:48:27Z</time>
      </trkpt>
      <trkpt lat="33.575677" lon="-3.190076">
        <ele>842.3</ele>
        <time>2008-09-25T10:48:29Z</time>
      </trkpt>
      <trkpt lat="33.575614" lon="-3.190831">
        <ele>841.8</ele>
        <time>2008-09-25T10:48:31Z</time>
      </trkpt>
      <trkpt lat="33.575499" lon="-3.191569">
        <ele>839.8</ele>
        <time>2008-09-25T10:48:33Z</time>
      </trkpt>
      <trkpt lat="33.575339" lon="-3.192295">
        <ele>839.4</ele>
        <time>2008-09-25T10:48:35Z</time>
      </trkpt>
      <trkpt lat="33.575162" lon="-3.193017">
        <ele>838.4</ele>
        <time>2008-09-25T10:48:37Z</time>
      </trkpt>
      <trkpt lat="33.574981" lon="-3.193739">
        <ele>837.0</ele>
        <time>2008-09-25T10:48:39Z</time>
      </trkpt>
      <trkpt lat="33.574802" lon="-3.194467">
        <ele>836.0</ele>
        <time>2008-09-25T10:48:41Z</time>
      </trkpt>
      <trkpt lat="33.574623" lon="-3.195199">
        <ele>835.0</ele>
        <time>2008-09-25T10:48:43Z</time>
      </trkpt>
      <trkpt lat="33.574447" lon="-3.195932">
        <ele>833.6</ele>
        <time>2008-09-25T10:48:45Z</time>
      </trkpt>
      <trkpt lat="33.574276" lon="-3.196647">
        <ele>832.6</ele>
        <time>2008-09-25T10:48:47Z</time>
      </trkpt>
      <trkpt lat="33.574106" lon="-3.197347">
        <ele>832.6</ele>
        <time>2008-09-25T10:48:49Z</time>
      </trkpt>
      <trkpt lat="33.573934" lon="-3.198048">
        <ele>831.2</ele>
        <time>2008-09-25T10:48:51Z</time>
      </trkpt>
      <trkpt lat="33.573758" lon="-3.198751">
        <ele>830.7</ele>
        <time>2008-09-25T10:48:53Z</time>
      </trkpt>
      <trkpt lat="33.573593" lon="-3.199468">
        <ele>830.7</ele>
        <time>2008-09-25T10:48:55Z</time>
      </trkpt>
      <trkpt lat="33.573451" lon="-3.200203">
        <ele>829.8</ele>
        <time>2008-09-25T10:48:57Z</time>
      </trkpt>
      <trkpt lat="33.573337" lon="-3.200953">
        <ele>829.8</ele>
        <time>2008-09-25T10:48:59Z</time>
      </trkpt>
      <trkpt lat="33.573258" lon="-3.201711">
        <ele>828.3</ele>
        <time>2008-09-25T10:49:01Z</time>
      </trkpt>
      <trkpt lat="33.573213" lon="-3.202481">
        <ele>827.4</ele>
        <time>2008-09-25T10:49:03Z</time>
      </trkpt>
      <trkpt lat="33.573183" lon="-3.203257">
        <ele>826.9</ele>
        <time>2008-09-25T10:49:05Z</time>
      </trkpt>
      <trkpt lat="33.573161" lon="-3.204041">
        <ele>827.4</ele>
        <time>2008-09-25T10:49:07Z</time>
      </trkpt>
      <trkpt lat="33.573136" lon="-3.204829">
        <ele>827.8</ele>
        <time>2008-09-25T10:49:09Z</time>
      </trkpt>
      <trkpt lat="33.573114" lon="-3.205607">
        <ele>828.3</ele>
        <time>2008-09-25T10:49:11Z</time>
      </trkpt>
      <trkpt lat="33.573095" lon="-3.206374">
        <ele>828.3</ele>
        <time>2008-09-25T10:49:13Z</time>
      </trkpt>
      <trkpt lat="33.573077" lon="-3.207137">
        <ele>828.8</ele>
        <time>2008-09-25T10:49:15Z</time>
      </trkpt>
      <trkpt lat="33.573055" lon="-3.207887">
        <ele>829.3</ele>
        <time>2008-09-25T10:49:17Z</time>
      </trkpt>
      <trkpt lat="33.573017" lon="-3.208624">
        <ele>829.3</ele>
        <time>2008-09-25T10:49:19Z</time>
      </trkpt>
      <trkpt lat="33.572947" lon="-3.209344">
        <ele>828.8</ele>
        <time>2008-09-25T10:49:21Z</time>
      </trkpt>
      <trkpt lat="33.572849" lon="-3.210035">
        <ele>829.3</ele>
        <time>2008-09-25T10:49:23Z</time>
      </trkpt>
      <trkpt lat="33.572717" lon="-3.210685">
        <ele>828.8</ele>
        <time>2008-09-25T10:49:25Z</time>
      </trkpt>
      <trkpt lat="33.572553" lon="-3.211306">
        <ele>829.3</ele>
        <time>2008-09-25T10:49:27Z</time>
      </trkpt>
      <trkpt lat="33.572370" lon="-3.211895">
        <ele>829.3</ele>
        <time>2008-09-25T10:49:29Z</time>
      </trkpt>
      <trkpt lat="33.572152" lon="-3.212465">
        <ele>828.3</ele>
        <time>2008-09-25T10:49:31Z</time>
      </trkpt>
      <trkpt lat="33.571904" lon="-3.213031">
        <ele>828.3</ele>
        <time>2008-09-25T10:49:33Z</time>
      </trkpt>
      <trkpt lat="33.571637" lon="-3.213603">
        <ele>827.4</ele>
        <time>2008-09-25T10:49:35Z</time>
      </trkpt>
      <trkpt lat="33.571358" lon="-3.214187">
        <ele>825.4</ele>
        <time>2008-09-25T10:49:37Z</time>
      </trkpt>
      <trkpt lat="33.571079" lon="-3.214782">
        <ele>823.5</ele>
        <time>2008-09-25T10:49:39Z</time>
      </trkpt>
      <trkpt lat="33.570802" lon="-3.215375">
        <ele>822.1</ele>
        <time>2008-09-25T10:49:41Z</time>
      </trkpt>
      <trkpt lat="33.570549" lon="-3.215965">
        <ele>821.6</ele>
        <time>2008-09-25T10:49:43Z</time>
      </trkpt>
      <trkpt lat="33.570343" lon="-3.216550">
        <ele>820.6</ele>
        <time>2008-09-25T10:49:45Z</time>
      </trkpt>
      <trkpt lat="33.570188" lon="-3.217155">
        <ele>821.1</ele>
        <time>2008-09-25T10:49:47Z</time>
      </trkpt>
      <trkpt lat="33.570075" lon="-3.217786">
        <ele>821.6</ele>
        <time>2008-09-25T10:49:49Z</time>
      </trkpt>
      <trkpt lat="33.569989" lon="-3.218439">
        <ele>820.6</ele>
        <time>2008-09-25T10:49:51Z</time>
      </trkpt>
      <trkpt lat="33.569917" lon="-3.219110">
        <ele>820.1</ele>
        <time>2008-09-25T10:49:53Z</time>
      </trkpt>
      <trkpt lat="33.569851" lon="-3.219783">
        <ele>820.1</ele>
        <time>2008-09-25T10:49:55Z</time>
      </trkpt>
      <trkpt lat="33.569787" lon="-3.220451">
        <ele>820.1</ele>
        <time>2008-09-25T10:49:57Z</time>
      </trkpt>
      <trkpt lat="33.569717" lon="-3.221102">
        <ele>819.2</ele>
        <time>2008-09-25T10:49:59Z</time>
      </trkpt>
      <trkpt lat="33.569635" lon="-3.221717">
        <ele>816.8</ele>
        <time>2008-09-25T10:50:01Z</time>
      </trkpt>
      <trkpt lat="33.569532" lon="-3.222390">
        <ele>813.4</ele>
        <time>2008-09-25T10:50:04Z</time>
      </trkpt>
      <trkpt lat="33.569387" lon="-3.222898">
        <ele>812.9</ele>
        <time>2008-09-25T10:50:07Z</time>
      </trkpt>
      <trkpt lat="33.569202" lon="-3.223403">
        <ele>813.9</ele>
        <time>2008-09-25T10:50:10Z</time>
      </trkpt>
      <trkpt lat="33.568926" lon="-3.223893">
        <ele>814.9</ele>
        <time>2008-09-25T10:50:13Z</time>
      </trkpt>
      <trkpt lat="33.568582" lon="-3.224419">
        <ele>816.8</ele>
        <time>2008-09-25T10:50:16Z</time>
      </trkpt>
      <trkpt lat="33.568176" lon="-3.224993">
        <ele>817.7</ele>
        <time>2008-09-25T10:50:19Z</time>
      </trkpt>
      <trkpt lat="33.567875" lon="-3.225408">
        <ele>819.7</ele>
        <time>2008-09-25T10:50:21Z</time>
      </trkpt>
      <trkpt lat="33.567565" lon="-3.225835">
        <ele>819.7</ele>
        <time>2008-09-25T10:50:23Z</time>
      </trkpt>
      <trkpt lat="33.567261" lon="-3.226252">
        <ele>819.7</ele>
        <time>2008-09-25T10:50:25Z</time>
      </trkpt>
      <trkpt lat="33.566954" lon="-3.226673">
        <ele>820.1</ele>
        <time>2008-09-25T10:50:27Z</time>
      </trkpt>
      <trkpt lat="33.566654" lon="-3.227088">
        <ele>819.7</ele>
        <time>2008-09-25T10:50:29Z</time>
      </trkpt>
      <trkpt lat="33.566221" lon="-3.227688">
        <ele>819.2</ele>
        <time>2008-09-25T10:50:32Z</time>
      </trkpt>
      <trkpt lat="33.565887" lon="-3.228325">
        <ele>819.7</ele>
        <time>2008-09-25T10:50:35Z</time>
      </trkpt>
      <trkpt lat="33.565700" lon="-3.229057">
        <ele>819.7</ele>
        <time>2008-09-25T10:50:38Z</time>
      </trkpt>
      <trkpt lat="33.565667" lon="-3.229852">
        <ele>821.1</ele>
        <time>2008-09-25T10:50:41Z</time>
      </trkpt>
      <trkpt lat="33.565784" lon="-3.230633">
        <ele>819.7</ele>
        <time>2008-09-25T10:50:44Z</time>
      </trkpt>
      <trkpt lat="33.566033" lon="-3.231374">
        <ele>819.2</ele>
        <time>2008-09-25T10:50:47Z</time>
      </trkpt>
      <trkpt lat="33.566238" lon="-3.231870">
        <ele>818.2</ele>
        <time>2008-09-25T10:50:49Z</time>
      </trkpt>
      <trkpt lat="33.566484" lon="-3.232328">
        <ele>817.3</ele>
        <time>2008-09-25T10:50:51Z</time>
      </trkpt>
      <trkpt lat="33.566987" lon="-3.232859">
        <ele>813.9</ele>
        <time>2008-09-25T10:50:54Z</time>
      </trkpt>
      <trkpt lat="33.567413" lon="-3.233090">
        <ele>812.9</ele>
        <time>2008-09-25T10:50:56Z</time>
      </trkpt>
      <trkpt lat="33.567888" lon="-3.233243">
        <ele>810.5</ele>
        <time>2008-09-25T10:50:58Z</time>
      </trkpt>
      <trkpt lat="33.568382" lon="-3.233382">
        <ele>809.6</ele>
        <time>2008-09-25T10:51:00Z</time>
      </trkpt>
      <trkpt lat="33.568870" lon="-3.233573">
        <ele>809.1</ele>
        <time>2008-09-25T10:51:02Z</time>
      </trkpt>
      <trkpt lat="33.569306" lon="-3.233855">
        <ele>806.7</ele>
        <time>2008-09-25T10:51:04Z</time>
      </trkpt>
      <trkpt lat="33.569788" lon="-3.234380">
        <ele>804.8</ele>
        <time>2008-09-25T10:51:07Z</time>
      </trkpt>
      <trkpt lat="33.570084" lon="-3.235098">
        <ele>803.3</ele>
        <time>2008-09-25T10:51:10Z</time>
      </trkpt>
      <trkpt lat="33.570239" lon="-3.235647">
        <ele>802.8</ele>
        <time>2008-09-25T10:51:12Z</time>
      </trkpt>
      <trkpt lat="33.570376" lon="-3.236243">
        <ele>803.3</ele>
        <time>2008-09-25T10:51:14Z</time>
      </trkpt>
      <trkpt lat="33.570517" lon="-3.236872">
        <ele>802.8</ele>
        <time>2008-09-25T10:51:16Z</time>
      </trkpt>
      <trkpt lat="33.570659" lon="-3.237519">
        <ele>802.4</ele>
        <time>2008-09-25T10:51:18Z</time>
      </trkpt>
      <trkpt lat="33.570808" lon="-3.238164">
        <ele>800.9</ele>
        <time>2008-09-25T10:51:20Z</time>
      </trkpt>
      <trkpt lat="33.570948" lon="-3.238803">
        <ele>800.4</ele>
        <time>2008-09-25T10:51:22Z</time>
      </trkpt>
      <trkpt lat="33.571092" lon="-3.239438">
        <ele>800.0</ele>
        <time>2008-09-25T10:51:24Z</time>
      </trkpt>
      <trkpt lat="33.571231" lon="-3.240053">
        <ele>798.5</ele>
        <time>2008-09-25T10:51:26Z</time>
      </trkpt>
      <trkpt lat="33.571356" lon="-3.240649">
        <ele>798.0</ele>
        <time>2008-09-25T10:51:28Z</time>
      </trkpt>
      <trkpt lat="33.571437" lon="-3.241258">
        <ele>797.6</ele>
        <time>2008-09-25T10:51:30Z</time>
      </trkpt>
      <trkpt lat="33.571448" lon="-3.241890">
        <ele>798.0</ele>
        <time>2008-09-25T10:51:32Z</time>
      </trkpt>
      <trkpt lat="33.571420" lon="-3.242539">
        <ele>797.1</ele>
        <time>2008-09-25T10:51:34Z</time>
      </trkpt>
      <trkpt lat="33.571381" lon="-3.243201">
        <ele>798.0</ele>
        <time>2008-09-25T10:51:36Z</time>
      </trkpt>
      <trkpt lat="33.571341" lon="-3.243878">
        <ele>797.6</ele>
        <time>2008-09-25T10:51:38Z</time>
      </trkpt>
      <trkpt lat="33.571301" lon="-3.244568">
        <ele>796.1</ele>
        <time>2008-09-25T10:51:40Z</time>
      </trkpt>
      <trkpt lat="33.571266" lon="-3.245269">
        <ele>795.6</ele>
        <time>2008-09-25T10:51:42Z</time>
      </trkpt>
      <trkpt lat="33.571236" lon="-3.245979">
        <ele>795.6</ele>
        <time>2008-09-25T10:51:44Z</time>
      </trkpt>
      <trkpt lat="33.571206" lon="-3.246699">
        <ele>794.7</ele>
        <time>2008-09-25T10:51:46Z</time>
      </trkpt>
      <trkpt lat="33.571171" lon="-3.247428">
        <ele>794.2</ele>
        <time>2008-09-25T10:51:48Z</time>
      </trkpt>
      <trkpt lat="33.571132" lon="-3.248163">
        <ele>793.7</ele>
        <time>2008-09-25T10:51:50Z</time>
      </trkpt>
      <trkpt lat="33.571096" lon="-3.248887">
        <ele>791.8</ele>
        <time>2008-09-25T10:51:52Z</time>
      </trkpt>
      <trkpt lat="33.571061" lon="-3.249591">
        <ele>790.3</ele>
        <time>2008-09-25T10:51:54Z</time>
      </trkpt>
      <trkpt lat="33.571028" lon="-3.250286">
        <ele>789.9</ele>
        <time>2008-09-25T10:51:56Z</time>
      </trkpt>
      <trkpt lat="33.570970" lon="-3.250983">
        <ele>789.4</ele>
        <time>2008-09-25T10:51:58Z</time>
      </trkpt>
      <trkpt lat="33.570858" lon="-3.251674">
        <ele>788.4</ele>
        <time>2008-09-25T10:52:00Z</time>
      </trkpt>
      <trkpt lat="33.570685" lon="-3.252350">
        <ele>788.4</ele>
        <time>2008-09-25T10:52:02Z</time>
      </trkpt>
      <trkpt lat="33.570456" lon="-3.253002">
        <ele>787.5</ele>
        <time>2008-09-25T10:52:04Z</time>
      </trkpt>
      <trkpt lat="33.570202" lon="-3.253640">
        <ele>787.5</ele>
        <time>2008-09-25T10:52:06Z</time>
      </trkpt>
      <trkpt lat="33.569944" lon="-3.254279">
        <ele>786.5</ele>
        <time>2008-09-25T10:52:08Z</time>
      </trkpt>
      <trkpt lat="33.569687" lon="-3.254921">
        <ele>785.5</ele>
        <time>2008-09-25T10:52:10Z</time>
      </trkpt>
      <trkpt lat="33.569436" lon="-3.255560">
        <ele>784.6</ele>
        <time>2008-09-25T10:52:12Z</time>
      </trkpt>
      <trkpt lat="33.569185" lon="-3.256194">
        <ele>783.6</ele>
        <time>2008-09-25T10:52:14Z</time>
      </trkpt>
      <trkpt lat="33.568939" lon="-3.256801">
        <ele>779.8</ele>
        <time>2008-09-25T10:52:16Z</time>
      </trkpt>
      <trkpt lat="33.568710" lon="-3.257363">
        <ele>777.4</ele>
        <time>2008-09-25T10:52:18Z</time>
      </trkpt>
      <trkpt lat="33.568507" lon="-3.257916">
        <ele>776.4</ele>
        <time>2008-09-25T10:52:20Z</time>
      </trkpt>
      <trkpt lat="33.568360" lon="-3.258498">
        <ele>775.4</ele>
        <time>2008-09-25T10:52:22Z</time>
      </trkpt>
      <trkpt lat="33.568310" lon="-3.259103">
        <ele>774.5</ele>
        <time>2008-09-25T10:52:24Z</time>
      </trkpt>
      <trkpt lat="33.568347" lon="-3.259709">
        <ele>773.0</ele>
        <time>2008-09-25T10:52:26Z</time>
      </trkpt>
      <trkpt lat="33.568403" lon="-3.260294">
        <ele>771.1</ele>
        <time>2008-09-25T10:52:28Z</time>
      </trkpt>
      <trkpt lat="33.568462" lon="-3.260857">
        <ele>770.2</ele>
        <time>2008-09-25T10:52:30Z</time>
      </trkpt>
      <trkpt lat="33.568533" lon="-3.261405">
        <ele>768.2</ele>
        <time>2008-09-25T10:52:32Z</time>
      </trkpt>
      <trkpt lat="33.568660" lon="-3.261950">
        <ele>766.3</ele>
        <time>2008-09-25T10:52:34Z</time>
      </trkpt>
      <trkpt lat="33.568844" lon="-3.262495">
        <ele>766.3</ele>
        <time>2008-09-25T10:52:36Z</time>
      </trkpt>
      <trkpt lat="33.569049" lon="-3.263057">
        <ele>765.8</ele>
        <time>2008-09-25T10:52:38Z</time>
      </trkpt>
      <trkpt lat="33.569248" lon="-3.263639">
        <ele>765.3</ele>
        <time>2008-09-25T10:52:40Z</time>
      </trkpt>
      <trkpt lat="33.569455" lon="-3.264238">
        <ele>764.9</ele>
        <time>2008-09-25T10:52:42Z</time>
      </trkpt>
      <trkpt lat="33.569674" lon="-3.264845">
        <ele>762.5</ele>
        <time>2008-09-25T10:52:44Z</time>
      </trkpt>
      <trkpt lat="33.569909" lon="-3.265450">
        <ele>761.0</ele>
        <time>2008-09-25T10:52:46Z</time>
      </trkpt>
      <trkpt lat="33.570153" lon="-3.266031">
        <ele>757.7</ele>
        <time>2008-09-25T10:52:48Z</time>
      </trkpt>
      <trkpt lat="33.570393" lon="-3.266568">
        <ele>755.3</ele>
        <time>2008-09-25T10:52:50Z</time>
      </trkpt>
      <trkpt lat="33.570618" lon="-3.267070">
        <ele>751.4</ele>
        <time>2008-09-25T10:52:52Z</time>
      </trkpt>
      <trkpt lat="33.570856" lon="-3.267829">
        <ele>750.0</ele>
        <time>2008-09-25T10:52:55Z</time>
      </trkpt>
      <trkpt lat="33.570908" lon="-3.268386">
        <ele>750.4</ele>
        <time>2008-09-25T10:52:57Z</time>
      </trkpt>
      <trkpt lat="33.570919" lon="-3.268968">
        <ele>750.0</ele>
        <time>2008-09-25T10:52:59Z</time>
      </trkpt>
      <trkpt lat="33.570930" lon="-3.269553">
        <ele>748.5</ele>
        <time>2008-09-25T10:53:01Z</time>
      </trkpt>
      <trkpt lat="33.570945" lon="-3.270120">
        <ele>746.6</ele>
        <time>2008-09-25T10:53:03Z</time>
      </trkpt>
      <trkpt lat="33.570960" lon="-3.270667">
        <ele>745.2</ele>
        <time>2008-09-25T10:53:05Z</time>
      </trkpt>
      <trkpt lat="33.570999" lon="-3.271447">
        <ele>742.8</ele>
        <time>2008-09-25T10:53:08Z</time>
      </trkpt>
      <trkpt lat="33.571214" lon="-3.272168">
        <ele>742.8</ele>
        <time>2008-09-25T10:53:11Z</time>
      </trkpt>
      <trkpt lat="33.571472" lon="-3.272624">
        <ele>741.8</ele>
        <time>2008-09-25T10:53:13Z</time>
      </trkpt>
      <trkpt lat="33.571747" lon="-3.273096">
        <ele>741.3</ele>
        <time>2008-09-25T10:53:15Z</time>
      </trkpt>
      <trkpt lat="33.571996" lon="-3.273597">
        <ele>740.8</ele>
        <time>2008-09-25T10:53:17Z</time>
      </trkpt>
      <trkpt lat="33.572186" lon="-3.274136">
        <ele>740.4</ele>
        <time>2008-09-25T10:53:19Z</time>
      </trkpt>
      <trkpt lat="33.572328" lon="-3.274698">
        <ele>739.4</ele>
        <time>2008-09-25T10:53:21Z</time>
      </trkpt>
      <trkpt lat="33.572467" lon="-3.275260">
        <ele>738.4</ele>
        <time>2008-09-25T10:53:23Z</time>
      </trkpt>
      <trkpt lat="33.572648" lon="-3.275811">
        <ele>737.9</ele>
        <time>2008-09-25T10:53:25Z</time>
      </trkpt>
      <trkpt lat="33.572884" lon="-3.276343">
        <ele>737.9</ele>
        <time>2008-09-25T10:53:27Z</time>
      </trkpt>
      <trkpt lat="33.573144" lon="-3.276855">
        <ele>736.5</ele>
        <time>2008-09-25T10:53:29Z</time>
      </trkpt>
      <trkpt lat="33.573405" lon="-3.277346">
        <ele>735.5</ele>
        <time>2008-09-25T10:53:31Z</time>
      </trkpt>
      <trkpt lat="33.573642" lon="-3.277845">
        <ele>734.1</ele>
        <time>2008-09-25T10:53:33Z</time>
      </trkpt>
      <trkpt lat="33.573819" lon="-3.278389">
        <ele>733.1</ele>
        <time>2008-09-25T10:53:35Z</time>
      </trkpt>
      <trkpt lat="33.573907" lon="-3.278974">
        <ele>731.7</ele>
        <time>2008-09-25T10:53:37Z</time>
      </trkpt>
      <trkpt lat="33.573925" lon="-3.279565">
        <ele>730.7</ele>
        <time>2008-09-25T10:53:39Z</time>
      </trkpt>
      <trkpt lat="33.573877" lon="-3.280105">
        <ele>729.3</ele>
        <time>2008-09-25T10:53:41Z</time>
      </trkpt>
      <trkpt lat="33.573632" lon="-3.280791">
        <ele>727.9</ele>
        <time>2008-09-25T10:53:44Z</time>
      </trkpt>
      <trkpt lat="33.573053" lon="-3.281304">
        <ele>726.9</ele>
        <time>2008-09-25T10:53:47Z</time>
      </trkpt>
      <trkpt lat="33.572460" lon="-3.281663">
        <ele>724.0</ele>
        <time>2008-09-25T10:53:50Z</time>
      </trkpt>
      <trkpt lat="33.571920" lon="-3.282121">
        <ele>722.6</ele>
        <time>2008-09-25T10:53:53Z</time>
      </trkpt>
      <trkpt lat="33.571555" lon="-3.282791">
        <ele>722.1</ele>
        <time>2008-09-25T10:53:56Z</time>
      </trkpt>
      <trkpt lat="33.571417" lon="-3.283318">
        <ele>721.1</ele>
        <time>2008-09-25T10:53:58Z</time>
      </trkpt>
      <trkpt lat="33.571363" lon="-3.283890">
        <ele>720.6</ele>
        <time>2008-09-25T10:54:00Z</time>
      </trkpt>
      <trkpt lat="33.571337" lon="-3.284485">
        <ele>720.6</ele>
        <time>2008-09-25T10:54:02Z</time>
      </trkpt>
      <trkpt lat="33.571308" lon="-3.285083">
        <ele>719.2</ele>
        <time>2008-09-25T10:54:04Z</time>
      </trkpt>
      <trkpt lat="33.571278" lon="-3.285672">
        <ele>718.7</ele>
        <time>2008-09-25T10:54:06Z</time>
      </trkpt>
      <trkpt lat="33.571269" lon="-3.286251">
        <ele>717.8</ele>
        <time>2008-09-25T10:54:08Z</time>
      </trkpt>
      <trkpt lat="33.571324" lon="-3.286814">
        <ele>716.8</ele>
        <time>2008-09-25T10:54:10Z</time>
      </trkpt>
      <trkpt lat="33.571441" lon="-3.287356">
        <ele>715.8</ele>
        <time>2008-09-25T10:54:12Z</time>
      </trkpt>
      <trkpt lat="33.571567" lon="-3.287887">
        <ele>714.4</ele>
        <time>2008-09-25T10:54:14Z</time>
      </trkpt>
      <trkpt lat="33.571671" lon="-3.288675">
        <ele>713.4</ele>
        <time>2008-09-25T10:54:17Z</time>
      </trkpt>
      <trkpt lat="33.571571" lon="-3.289412">
        <ele>711.5</ele>
        <time>2008-09-25T10:54:20Z</time>
      </trkpt>
      <trkpt lat="33.571367" lon="-3.289981">
        <ele>707.7</ele>
        <time>2008-09-25T10:54:23Z</time>
      </trkpt>
      <trkpt lat="33.571152" lon="-3.290537">
        <ele>704.8</ele>
        <time>2008-09-25T10:54:27Z</time>
      </trkpt>
      <trkpt lat="33.570941" lon="-3.291074">
        <ele>703.3</ele>
        <time>2008-09-25T10:54:33Z</time>
      </trkpt>
      <trkpt lat="33.570721" lon="-3.291593">
        <ele>702.4</ele>
        <time>2008-09-25T10:54:41Z</time>
      </trkpt>
      <trkpt lat="33.570498" lon="-3.292120">
        <ele>702.9</ele>
        <time>2008-09-25T10:54:46Z</time>
      </trkpt>
      <trkpt lat="33.570264" lon="-3.292725">
        <ele>703.8</ele>
        <time>2008-09-25T10:54:50Z</time>
      </trkpt>
      <trkpt lat="33.570133" lon="-3.293274">
        <ele>704.3</ele>
        <time>2008-09-25T10:54:53Z</time>
      </trkpt>
      <trkpt lat="33.570098" lon="-3.293913">
        <ele>704.8</ele>
        <time>2008-09-25T10:54:56Z</time>
      </trkpt>
      <trkpt lat="33.570172" lon="-3.294596">
        <ele>704.3</ele>
        <time>2008-09-25T10:54:59Z</time>
      </trkpt>
      <trkpt lat="33.570367" lon="-3.295274">
        <ele>704.8</ele>
        <time>2008-09-25T10:55:02Z</time>
      </trkpt>
      <trkpt lat="33.570651" lon="-3.295984">
        <ele>705.7</ele>
        <time>2008-09-25T10:55:05Z</time>
      </trkpt>
      <trkpt lat="33.570864" lon="-3.296482">
        <ele>706.2</ele>
        <time>2008-09-25T10:55:07Z</time>
      </trkpt>
      <trkpt lat="33.571087" lon="-3.297005">
        <ele>707.2</ele>
        <time>2008-09-25T10:55:09Z</time>
      </trkpt>
      <trkpt lat="33.571315" lon="-3.297544">
        <ele>705.7</ele>
        <time>2008-09-25T10:55:11Z</time>
      </trkpt>
      <trkpt lat="33.571536" lon="-3.298084">
        <ele>705.3</ele>
        <time>2008-09-25T10:55:13Z</time>
      </trkpt>
      <trkpt lat="33.571759" lon="-3.298641">
        <ele>705.3</ele>
        <time>2008-09-25T10:55:15Z</time>
      </trkpt>
      <trkpt lat="33.571992" lon="-3.299217">
        <ele>705.7</ele>
        <time>2008-09-25T10:55:17Z</time>
      </trkpt>
      <trkpt lat="33.572230" lon="-3.299809">
        <ele>706.7</ele>
        <time>2008-09-25T10:55:19Z</time>
      </trkpt>
      <trkpt lat="33.572473" lon="-3.300417">
        <ele>707.2</ele>
        <time>2008-09-25T10:55:21Z</time>
      </trkpt>
      <trkpt lat="33.572725" lon="-3.301038">
        <ele>706.7</ele>
        <time>2008-09-25T10:55:23Z</time>
      </trkpt>
      <trkpt lat="33.572979" lon="-3.301663">
        <ele>707.2</ele>
        <time>2008-09-25T10:55:25Z</time>
      </trkpt>
      <trkpt lat="33.573230" lon="-3.302283">
        <ele>708.1</ele>
        <time>2008-09-25T10:55:27Z</time>
      </trkpt>
      <trkpt lat="33.573483" lon="-3.302900">
        <ele>709.6</ele>
        <time>2008-09-25T10:55:29Z</time>
      </trkpt>
      <trkpt lat="33.573734" lon="-3.303512">
        <ele>712.0</ele>
        <time>2008-09-25T10:55:31Z</time>
      </trkpt>
      <trkpt lat="33.573984" lon="-3.304120">
        <ele>713.4</ele>
        <time>2008-09-25T10:55:33Z</time>
      </trkpt>
      <trkpt lat="33.574222" lon="-3.304707">
        <ele>713.9</ele>
        <time>2008-09-25T10:55:35Z</time>
      </trkpt>
      <trkpt lat="33.574438" lon="-3.305251">
        <ele>713.4</ele>
        <time>2008-09-25T10:55:37Z</time>
      </trkpt>
      <trkpt lat="33.574635" lon="-3.305752">
        <ele>713.4</ele>
        <time>2008-09-25T10:55:39Z</time>
      </trkpt>
      <trkpt lat="33.574842" lon="-3.306253">
        <ele>713.0</ele>
        <time>2008-09-25T10:55:41Z</time>
      </trkpt>
      <trkpt lat="33.575080" lon="-3.306756">
        <ele>711.5</ele>
        <time>2008-09-25T10:55:43Z</time>
      </trkpt>
      <trkpt lat="33.575362" lon="-3.307255">
        <ele>710.6</ele>
        <time>2008-09-25T10:55:45Z</time>
      </trkpt>
      <trkpt lat="33.575684" lon="-3.307742">
        <ele>710.1</ele>
        <time>2008-09-25T10:55:47Z</time>
      </trkpt>
      <trkpt lat="33.576038" lon="-3.308222">
        <ele>709.1</ele>
        <time>2008-09-25T10:55:49Z</time>
      </trkpt>
      <trkpt lat="33.576407" lon="-3.308710">
        <ele>708.6</ele>
        <time>2008-09-25T10:55:51Z</time>
      </trkpt>
      <trkpt lat="33.576785" lon="-3.309201">
        <ele>708.1</ele>
        <time>2008-09-25T10:55:53Z</time>
      </trkpt>
      <trkpt lat="33.577162" lon="-3.309681">
        <ele>707.7</ele>
        <time>2008-09-25T10:55:55Z</time>
      </trkpt>
      <trkpt lat="33.577533" lon="-3.310138">
        <ele>703.3</ele>
        <time>2008-09-25T10:55:57Z</time>
      </trkpt>
      <trkpt lat="33.577914" lon="-3.310560">
        <ele>701.4</ele>
        <time>2008-09-25T10:55:59Z</time>
      </trkpt>
      <trkpt lat="33.578313" lon="-3.310929">
        <ele>700.9</ele>
        <time>2008-09-25T10:56:01Z</time>
      </trkpt>
      <trkpt lat="33.578716" lon="-3.311288">
        <ele>700.9</ele>
        <time>2008-09-25T10:56:03Z</time>
      </trkpt>
      <trkpt lat="33.579103" lon="-3.311633">
        <ele>699.0</ele>
        <time>2008-09-25T10:56:05Z</time>
      </trkpt>
      <trkpt lat="33.579461" lon="-3.311992">
        <ele>698.5</ele>
        <time>2008-09-25T10:56:07Z</time>
      </trkpt>
      <trkpt lat="33.579778" lon="-3.312428">
        <ele>697.6</ele>
        <time>2008-09-25T10:56:09Z</time>
      </trkpt>
      <trkpt lat="33.580061" lon="-3.312932">
        <ele>696.6</ele>
        <time>2008-09-25T10:56:11Z</time>
      </trkpt>
      <trkpt lat="33.580337" lon="-3.313468">
        <ele>694.7</ele>
        <time>2008-09-25T10:56:13Z</time>
      </trkpt>
      <trkpt lat="33.580604" lon="-3.313997">
        <ele>692.3</ele>
        <time>2008-09-25T10:56:15Z</time>
      </trkpt>
      <trkpt lat="33.580863" lon="-3.314508">
        <ele>691.3</ele>
        <time>2008-09-25T10:56:17Z</time>
      </trkpt>
      <trkpt lat="33.581108" lon="-3.315006">
        <ele>688.4</ele>
        <time>2008-09-25T10:56:19Z</time>
      </trkpt>
      <trkpt lat="33.581337" lon="-3.315494">
        <ele>687.5</ele>
        <time>2008-09-25T10:56:21Z</time>
      </trkpt>
      <trkpt lat="33.581542" lon="-3.315976">
        <ele>685.6</ele>
        <time>2008-09-25T10:56:23Z</time>
      </trkpt>
      <trkpt lat="33.581737" lon="-3.316745">
        <ele>685.1</ele>
        <time>2008-09-25T10:56:26Z</time>
      </trkpt>
      <trkpt lat="33.581775" lon="-3.317315">
        <ele>685.1</ele>
        <time>2008-09-25T10:56:28Z</time>
      </trkpt>
      <trkpt lat="33.581729" lon="-3.317918">
        <ele>685.6</ele>
        <time>2008-09-25T10:56:30Z</time>
      </trkpt>
      <trkpt lat="33.581644" lon="-3.318538">
        <ele>684.6</ele>
        <time>2008-09-25T10:56:32Z</time>
      </trkpt>
      <trkpt lat="33.581544" lon="-3.319171">
        <ele>684.6</ele>
        <time>2008-09-25T10:56:34Z</time>
      </trkpt>
      <trkpt lat="33.581441" lon="-3.319812">
        <ele>683.2</ele>
        <time>2008-09-25T10:56:36Z</time>
      </trkpt>
      <trkpt lat="33.581336" lon="-3.320459">
        <ele>682.7</ele>
        <time>2008-09-25T10:56:38Z</time>
      </trkpt>
      <trkpt lat="33.581229" lon="-3.321114">
        <ele>682.7</ele>
        <time>2008-09-25T10:56:40Z</time>
      </trkpt>
      <trkpt lat="33.581121" lon="-3.321775">
        <ele>682.2</ele>
        <time>2008-09-25T10:56:42Z</time>
      </trkpt>
      <trkpt lat="33.581013" lon="-3.322443">
        <ele>680.8</ele>
        <time>2008-09-25T10:56:44Z</time>
      </trkpt>
      <trkpt lat="33.580906" lon="-3.323103">
        <ele>680.3</ele>
        <time>2008-09-25T10:56:46Z</time>
      </trkpt>
      <trkpt lat="33.580805" lon="-3.323752">
        <ele>678.8</ele>
        <time>2008-09-25T10:56:48Z</time>
      </trkpt>
      <trkpt lat="33.580724" lon="-3.324395">
        <ele>678.8</ele>
        <time>2008-09-25T10:56:50Z</time>
      </trkpt>
      <trkpt lat="33.580672" lon="-3.325009">
        <ele>677.4</ele>
        <time>2008-09-25T10:56:52Z</time>
      </trkpt>
      <trkpt lat="33.580653" lon="-3.325592">
        <ele>676.9</ele>
        <time>2008-09-25T10:56:54Z</time>
      </trkpt>
      <trkpt lat="33.580649" lon="-3.326167">
        <ele>676.4</ele>
        <time>2008-09-25T10:56:56Z</time>
      </trkpt>
      <trkpt lat="33.580657" lon="-3.326756">
        <ele>676.9</ele>
        <time>2008-09-25T10:56:58Z</time>
      </trkpt>
      <trkpt lat="33.580667" lon="-3.327362">
        <ele>676.9</ele>
        <time>2008-09-25T10:57:00Z</time>
      </trkpt>
      <trkpt lat="33.580679" lon="-3.327986">
        <ele>676.4</ele>
        <time>2008-09-25T10:57:02Z</time>
      </trkpt>
      <trkpt lat="33.580666" lon="-3.328626">
        <ele>675.5</ele>
        <time>2008-09-25T10:57:04Z</time>
      </trkpt>
      <trkpt lat="33.580610" lon="-3.329273">
        <ele>675.0</ele>
        <time>2008-09-25T10:57:06Z</time>
      </trkpt>
      <trkpt lat="33.580512" lon="-3.329925">
        <ele>674.5</ele>
        <time>2008-09-25T10:57:08Z</time>
      </trkpt>
      <trkpt lat="33.580384" lon="-3.330578">
        <ele>673.5</ele>
        <time>2008-09-25T10:57:10Z</time>
      </trkpt>
      <trkpt lat="33.580239" lon="-3.331239">
        <ele>672.6</ele>
        <time>2008-09-25T10:57:12Z</time>
      </trkpt>
      <trkpt lat="33.580086" lon="-3.331915">
        <ele>671.6</ele>
        <time>2008-09-25T10:57:14Z</time>
      </trkpt>
      <trkpt lat="33.579931" lon="-3.332607">
        <ele>670.2</ele>
        <time>2008-09-25T10:57:16Z</time>
      </trkpt>
      <trkpt lat="33.579774" lon="-3.333309">
        <ele>668.7</ele>
        <time>2008-09-25T10:57:18Z</time>
      </trkpt>
      <trkpt lat="33.579618" lon="-3.334017">
        <ele>667.3</ele>
        <time>2008-09-25T10:57:20Z</time>
      </trkpt>
      <trkpt lat="33.579463" lon="-3.334728">
        <ele>666.3</ele>
        <time>2008-09-25T10:57:22Z</time>
      </trkpt>
      <trkpt lat="33.579313" lon="-3.335441">
        <ele>665.9</ele>
        <time>2008-09-25T10:57:24Z</time>
      </trkpt>
      <trkpt lat="33.579158" lon="-3.336153">
        <ele>664.9</ele>
        <time>2008-09-25T10:57:26Z</time>
      </trkpt>
      <trkpt lat="33.579002" lon="-3.336864">
        <ele>663.9</ele>
        <time>2008-09-25T10:57:28Z</time>
      </trkpt>
      <trkpt lat="33.578844" lon="-3.337572">
        <ele>663.9</ele>
        <time>2008-09-25T10:57:30Z</time>
      </trkpt>
      <trkpt lat="33.578686" lon="-3.338281">
        <ele>663.0</ele>
        <time>2008-09-25T10:57:32Z</time>
      </trkpt>
      <trkpt lat="33.578530" lon="-3.338996">
        <ele>663.4</ele>
        <time>2008-09-25T10:57:34Z</time>
      </trkpt>
      <trkpt lat="33.578370" lon="-3.339716">
        <ele>663.4</ele>
        <time>2008-09-25T10:57:36Z</time>
      </trkpt>
      <trkpt lat="33.578217" lon="-3.340424">
        <ele>663.4</ele>
        <time>2008-09-25T10:57:38Z</time>
      </trkpt>
      <trkpt lat="33.578067" lon="-3.341101">
        <ele>662.5</ele>
        <time>2008-09-25T10:57:40Z</time>
      </trkpt>
      <trkpt lat="33.577920" lon="-3.341761">
        <ele>662.0</ele>
        <time>2008-09-25T10:57:42Z</time>
      </trkpt>
      <trkpt lat="33.577774" lon="-3.342427">
        <ele>660.1</ele>
        <time>2008-09-25T10:57:44Z</time>
      </trkpt>
      <trkpt lat="33.577633" lon="-3.343077">
        <ele>658.2</ele>
        <time>2008-09-25T10:57:46Z</time>
      </trkpt>
      <trkpt lat="33.577499" lon="-3.343696">
        <ele>656.2</ele>
        <time>2008-09-25T10:57:48Z</time>
      </trkpt>
      <trkpt lat="33.577377" lon="-3.344266">
        <ele>653.4</ele>
        <time>2008-09-25T10:57:50Z</time>
      </trkpt>
      <trkpt lat="33.577248" lon="-3.344803">
        <ele>653.4</ele>
        <time>2008-09-25T10:57:52Z</time>
      </trkpt>
      <trkpt lat="33.577065" lon="-3.345338">
        <ele>653.8</ele>
        <time>2008-09-25T10:57:54Z</time>
      </trkpt>
      <trkpt lat="33.576810" lon="-3.345861">
        <ele>652.9</ele>
        <time>2008-09-25T10:57:56Z</time>
      </trkpt>
      <trkpt lat="33.576510" lon="-3.346380">
        <ele>653.4</ele>
        <time>2008-09-25T10:57:58Z</time>
      </trkpt>
      <trkpt lat="33.576201" lon="-3.346893">
        <ele>652.4</ele>
        <time>2008-09-25T10:58:00Z</time>
      </trkpt>
      <trkpt lat="33.575908" lon="-3.347384">
        <ele>650.5</ele>
        <time>2008-09-25T10:58:02Z</time>
      </trkpt>
      <trkpt lat="33.575685" lon="-3.347885">
        <ele>648.5</ele>
        <time>2008-09-25T10:58:04Z</time>
      </trkpt>
      <trkpt lat="33.575544" lon="-3.348444">
        <ele>648.1</ele>
        <time>2008-09-25T10:58:06Z</time>
      </trkpt>
      <trkpt lat="33.575479" lon="-3.349050">
        <ele>649.0</ele>
        <time>2008-09-25T10:58:08Z</time>
      </trkpt>
      <trkpt lat="33.575484" lon="-3.349681">
        <ele>650.0</ele>
        <time>2008-09-25T10:58:10Z</time>
      </trkpt>
      <trkpt lat="33.575530" lon="-3.350319">
        <ele>650.0</ele>
        <time>2008-09-25T10:58:12Z</time>
      </trkpt>
      <trkpt lat="33.575591" lon="-3.350968">
        <ele>650.5</ele>
        <time>2008-09-25T10:58:14Z</time>
      </trkpt>
      <trkpt lat="33.575649" lon="-3.351610">
        <ele>649.5</ele>
        <time>2008-09-25T10:58:16Z</time>
      </trkpt>
      <trkpt lat="33.575708" lon="-3.352238">
        <ele>650.0</ele>
        <time>2008-09-25T10:58:18Z</time>
      </trkpt>
      <trkpt lat="33.575798" lon="-3.352868">
        <ele>651.4</ele>
        <time>2008-09-25T10:58:20Z</time>
      </trkpt>
      <trkpt lat="33.575947" lon="-3.353496">
        <ele>650.9</ele>
        <time>2008-09-25T10:58:22Z</time>
      </trkpt>
      <trkpt lat="33.576155" lon="-3.354110">
        <ele>651.4</ele>
        <time>2008-09-25T10:58:24Z</time>
      </trkpt>
      <trkpt lat="33.576382" lon="-3.354721">
        <ele>651.4</ele>
        <time>2008-09-25T10:58:26Z</time>
      </trkpt>
      <trkpt lat="33.576620" lon="-3.355337">
        <ele>652.4</ele>
        <time>2008-09-25T10:58:28Z</time>
      </trkpt>
      <trkpt lat="33.576858" lon="-3.355944">
        <ele>655.3</ele>
        <time>2008-09-25T10:58:30Z</time>
      </trkpt>
      <trkpt lat="33.577086" lon="-3.356529">
        <ele>658.6</ele>
        <time>2008-09-25T10:58:32Z</time>
      </trkpt>
      <trkpt lat="33.577306" lon="-3.357095">
        <ele>659.1</ele>
        <time>2008-09-25T10:58:34Z</time>
      </trkpt>
      <trkpt lat="33.577537" lon="-3.357624">
        <ele>659.1</ele>
        <time>2008-09-25T10:58:36Z</time>
      </trkpt>
      <trkpt lat="33.577923" lon="-3.358239">
        <ele>658.6</ele>
        <time>2008-09-25T10:58:39Z</time>
      </trkpt>
      <trkpt lat="33.578394" lon="-3.358771">
        <ele>659.1</ele>
        <time>2008-09-25T10:58:42Z</time>
      </trkpt>
      <trkpt lat="33.578746" lon="-3.359135">
        <ele>659.1</ele>
        <time>2008-09-25T10:58:44Z</time>
      </trkpt>
      <trkpt lat="33.579106" lon="-3.359510">
        <ele>658.6</ele>
        <time>2008-09-25T10:58:46Z</time>
      </trkpt>
      <trkpt lat="33.579463" lon="-3.359886">
        <ele>658.2</ele>
        <time>2008-09-25T10:58:48Z</time>
      </trkpt>
      <trkpt lat="33.579814" lon="-3.360263">
        <ele>657.7</ele>
        <time>2008-09-25T10:58:50Z</time>
      </trkpt>
      <trkpt lat="33.580147" lon="-3.360644">
        <ele>656.7</ele>
        <time>2008-09-25T10:58:52Z</time>
      </trkpt>
      <trkpt lat="33.580545" lon="-3.361279">
        <ele>654.3</ele>
        <time>2008-09-25T10:58:55Z</time>
      </trkpt>
      <trkpt lat="33.580709" lon="-3.362050">
        <ele>650.9</ele>
        <time>2008-09-25T10:58:58Z</time>
      </trkpt>
      <trkpt lat="33.580683" lon="-3.362588">
        <ele>650.5</ele>
        <time>2008-09-25T10:59:00Z</time>
      </trkpt>
      <trkpt lat="33.580463" lon="-3.363321">
        <ele>647.1</ele>
        <time>2008-09-25T10:59:03Z</time>
      </trkpt>
      <trkpt lat="33.579971" lon="-3.363866">
        <ele>645.7</ele>
        <time>2008-09-25T10:59:06Z</time>
      </trkpt>
      <trkpt lat="33.579432" lon="-3.364097">
        <ele>644.7</ele>
        <time>2008-09-25T10:59:08Z</time>
      </trkpt>
      <trkpt lat="33.578919" lon="-3.364288">
        <ele>643.7</ele>
        <time>2008-09-25T10:59:10Z</time>
      </trkpt>
      <trkpt lat="33.578392" lon="-3.364457">
        <ele>643.3</ele>
        <time>2008-09-25T10:59:12Z</time>
      </trkpt>
      <trkpt lat="33.577865" lon="-3.364622">
        <ele>640.4</ele>
        <time>2008-09-25T10:59:14Z</time>
      </trkpt>
      <trkpt lat="33.577343" lon="-3.364750">
        <ele>640.4</ele>
        <time>2008-09-25T10:59:16Z</time>
      </trkpt>
      <trkpt lat="33.576785" lon="-3.364798">
        <ele>639.4</ele>
        <time>2008-09-25T10:59:18Z</time>
      </trkpt>
      <trkpt lat="33.576196" lon="-3.364808">
        <ele>638.5</ele>
        <time>2008-09-25T10:59:20Z</time>
      </trkpt>
      <trkpt lat="33.575594" lon="-3.364818">
        <ele>637.5</ele>
        <time>2008-09-25T10:59:22Z</time>
      </trkpt>
      <trkpt lat="33.575001" lon="-3.364824">
        <ele>635.6</ele>
        <time>2008-09-25T10:59:24Z</time>
      </trkpt>
      <trkpt lat="33.574432" lon="-3.364823">
        <ele>634.1</ele>
        <time>2008-09-25T10:59:26Z</time>
      </trkpt>
      <trkpt lat="33.573878" lon="-3.364823">
        <ele>631.2</ele>
        <time>2008-09-25T10:59:28Z</time>
      </trkpt>
      <trkpt lat="33.573329" lon="-3.364827">
        <ele>629.8</ele>
        <time>2008-09-25T10:59:30Z</time>
      </trkpt>
      <trkpt lat="33.572775" lon="-3.364830">
        <ele>629.3</ele>
        <time>2008-09-25T10:59:32Z</time>
      </trkpt>
      <trkpt lat="33.572217" lon="-3.364834">
        <ele>626.9</ele>
        <time>2008-09-25T10:59:34Z</time>
      </trkpt>
      <trkpt lat="33.571655" lon="-3.364844">
        <ele>626.0</ele>
        <time>2008-09-25T10:59:36Z</time>
      </trkpt>
      <trkpt lat="33.571119" lon="-3.364865">
        <ele>623.6</ele>
        <time>2008-09-25T10:59:38Z</time>
      </trkpt>
      <trkpt lat="33.570633" lon="-3.364901">
        <ele>621.6</ele>
        <time>2008-09-25T10:59:40Z</time>
      </trkpt>
      <trkpt lat="33.570176" lon="-3.364949">
        <ele>619.2</ele>
        <time>2008-09-25T10:59:42Z</time>
      </trkpt>
      <trkpt lat="33.569585" lon="-3.365177">
        <ele>616.3</ele>
        <time>2008-09-25T10:59:45Z</time>
      </trkpt>
      <trkpt lat="33.569134" lon="-3.365566">
        <ele>613.9</ele>
        <time>2008-09-25T10:59:48Z</time>
      </trkpt>
      <trkpt lat="33.568620" lon="-3.365799">
        <ele>613.9</ele>
        <time>2008-09-25T10:59:51Z</time>
      </trkpt>
      <trkpt lat="33.568035" lon="-3.365952">
        <ele>613.5</ele>
        <time>2008-09-25T10:59:54Z</time>
      </trkpt>
      <trkpt lat="33.567537" lon="-3.366313">
        <ele>612.0</ele>
        <time>2008-09-25T10:59:57Z</time>
      </trkpt>
      <trkpt lat="33.567091" lon="-3.366874">
        <ele>611.1</ele>
        <time>2008-09-25T11:00:00Z</time>
      </trkpt>
      <trkpt lat="33.566861" lon="-3.367359">
        <ele>610.1</ele>
        <time>2008-09-25T11:00:02Z</time>
      </trkpt>
      <trkpt lat="33.566642" lon="-3.367887">
        <ele>610.1</ele>
        <time>2008-09-25T11:00:04Z</time>
      </trkpt>
      <trkpt lat="33.566411" lon="-3.368442">
        <ele>609.6</ele>
        <time>2008-09-25T11:00:06Z</time>
      </trkpt>
      <trkpt lat="33.566168" lon="-3.369022">
        <ele>609.6</ele>
        <time>2008-09-25T11:00:08Z</time>
      </trkpt>
      <trkpt lat="33.565908" lon="-3.369627">
        <ele>610.1</ele>
        <time>2008-09-25T11:00:10Z</time>
      </trkpt>
      <trkpt lat="33.565647" lon="-3.370247">
        <ele>609.1</ele>
        <time>2008-09-25T11:00:12Z</time>
      </trkpt>
      <trkpt lat="33.565380" lon="-3.370868">
        <ele>608.7</ele>
        <time>2008-09-25T11:00:14Z</time>
      </trkpt>
      <trkpt lat="33.565110" lon="-3.371491">
        <ele>607.7</ele>
        <time>2008-09-25T11:00:16Z</time>
      </trkpt>
      <trkpt lat="33.564839" lon="-3.372118">
        <ele>607.2</ele>
        <time>2008-09-25T11:00:18Z</time>
      </trkpt>
      <trkpt lat="33.564567" lon="-3.372745">
        <ele>605.8</ele>
        <time>2008-09-25T11:00:20Z</time>
      </trkpt>
      <trkpt lat="33.564338" lon="-3.373333">
        <ele>602.4</ele>
        <time>2008-09-25T11:00:22Z</time>
      </trkpt>
      <trkpt lat="33.564153" lon="-3.373894">
        <ele>601.4</ele>
        <time>2008-09-25T11:00:24Z</time>
      </trkpt>
      <trkpt lat="33.564007" lon="-3.374492">
        <ele>601.4</ele>
        <time>2008-09-25T11:00:26Z</time>
      </trkpt>
      <trkpt lat="33.563869" lon="-3.375120">
        <ele>600.0</ele>
        <time>2008-09-25T11:00:28Z</time>
      </trkpt>
      <trkpt lat="33.563727" lon="-3.375772">
        <ele>599.0</ele>
        <time>2008-09-25T11:00:30Z</time>
      </trkpt>
      <trkpt lat="33.563577" lon="-3.376436">
        <ele>599.0</ele>
        <time>2008-09-25T11:00:32Z</time>
      </trkpt>
      <trkpt lat="33.563423" lon="-3.377112">
        <ele>597.6</ele>
        <time>2008-09-25T11:00:34Z</time>
      </trkpt>
      <trkpt lat="33.563268" lon="-3.377800">
        <ele>597.1</ele>
        <time>2008-09-25T11:00:36Z</time>
      </trkpt>
      <trkpt lat="33.563112" lon="-3.378494">
        <ele>596.6</ele>
        <time>2008-09-25T11:00:38Z</time>
      </trkpt>
      <trkpt lat="33.562960" lon="-3.379173">
        <ele>596.6</ele>
        <time>2008-09-25T11:00:40Z</time>
      </trkpt>
      <trkpt lat="33.562814" lon="-3.379818">
        <ele>596.2</ele>
        <time>2008-09-25T11:00:42Z</time>
      </trkpt>
      <trkpt lat="33.562672" lon="-3.380428">
        <ele>594.7</ele>
        <time>2008-09-25T11:00:44Z</time>
      </trkpt>
      <trkpt lat="33.562535" lon="-3.381008">
        <ele>594.2</ele>
        <time>2008-09-25T11:00:46Z</time>
      </trkpt>
      <trkpt lat="33.562399" lon="-3.381563">
        <ele>592.8</ele>
        <time>2008-09-25T11:00:48Z</time>
      </trkpt>
      <trkpt lat="33.562282" lon="-3.382112">
        <ele>591.8</ele>
        <time>2008-09-25T11:00:50Z</time>
      </trkpt>
      <trkpt lat="33.562209" lon="-3.382676">
        <ele>589.9</ele>
        <time>2008-09-25T11:00:52Z</time>
      </trkpt>
      <trkpt lat="33.562206" lon="-3.383259">
        <ele>589.4</ele>
        <time>2008-09-25T11:00:54Z</time>
      </trkpt>
      <trkpt lat="33.562251" lon="-3.383856">
        <ele>589.4</ele>
        <time>2008-09-25T11:00:56Z</time>
      </trkpt>
      <trkpt lat="33.562313" lon="-3.384465">
        <ele>588.5</ele>
        <time>2008-09-25T11:00:58Z</time>
      </trkpt>
      <trkpt lat="33.562374" lon="-3.385090">
        <ele>588.0</ele>
        <time>2008-09-25T11:01:00Z</time>
      </trkpt>
      <trkpt lat="33.562439" lon="-3.385729">
        <ele>587.0</ele>
        <time>2008-09-25T11:01:02Z</time>
      </trkpt>
      <trkpt lat="33.562505" lon="-3.386372">
        <ele>584.6</ele>
        <time>2008-09-25T11:01:04Z</time>
      </trkpt>
      <trkpt lat="33.562571" lon="-3.387001">
        <ele>583.2</ele>
        <time>2008-09-25T11:01:06Z</time>
      </trkpt>
      <trkpt lat="33.562608" lon="-3.387629">
        <ele>582.7</ele>
        <time>2008-09-25T11:01:08Z</time>
      </trkpt>
      <trkpt lat="33.562589" lon="-3.388255">
        <ele>581.7</ele>
        <time>2008-09-25T11:01:10Z</time>
      </trkpt>
      <trkpt lat="33.562506" lon="-3.388885">
        <ele>581.7</ele>
        <time>2008-09-25T11:01:12Z</time>
      </trkpt>
      <trkpt lat="33.562399" lon="-3.389537">
        <ele>581.3</ele>
        <time>2008-09-25T11:01:14Z</time>
      </trkpt>
      <trkpt lat="33.562280" lon="-3.390206">
        <ele>581.7</ele>
        <time>2008-09-25T11:01:16Z</time>
      </trkpt>
      <trkpt lat="33.562155" lon="-3.390867">
        <ele>579.3</ele>
        <time>2008-09-25T11:01:18Z</time>
      </trkpt>
      <trkpt lat="33.562011" lon="-3.391524">
        <ele>578.9</ele>
        <time>2008-09-25T11:01:20Z</time>
      </trkpt>
      <trkpt lat="33.561794" lon="-3.392170">
        <ele>578.9</ele>
        <time>2008-09-25T11:01:22Z</time>
      </trkpt>
      <trkpt lat="33.561520" lon="-3.392805">
        <ele>578.9</ele>
        <time>2008-09-25T11:01:24Z</time>
      </trkpt>
      <trkpt lat="33.561228" lon="-3.393439">
        <ele>575.5</ele>
        <time>2008-09-25T11:01:26Z</time>
      </trkpt>
      <trkpt lat="33.560939" lon="-3.394058">
        <ele>574.0</ele>
        <time>2008-09-25T11:01:28Z</time>
      </trkpt>
      <trkpt lat="33.560663" lon="-3.394644">
        <ele>571.6</ele>
        <time>2008-09-25T11:01:30Z</time>
      </trkpt>
      <trkpt lat="33.560406" lon="-3.395203">
        <ele>570.7</ele>
        <time>2008-09-25T11:01:32Z</time>
      </trkpt>
      <trkpt lat="33.560179" lon="-3.395770">
        <ele>568.8</ele>
        <time>2008-09-25T11:01:34Z</time>
      </trkpt>
      <trkpt lat="33.560030" lon="-3.396361">
        <ele>567.3</ele>
        <time>2008-09-25T11:01:36Z</time>
      </trkpt>
      <trkpt lat="33.559960" lon="-3.396989">
        <ele>568.3</ele>
        <time>2008-09-25T11:01:38Z</time>
      </trkpt>
      <trkpt lat="33.559959" lon="-3.397638">
        <ele>569.7</ele>
        <time>2008-09-25T11:01:40Z</time>
      </trkpt>
      <trkpt lat="33.559978" lon="-3.398304">
        <ele>571.2</ele>
        <time>2008-09-25T11:01:42Z</time>
      </trkpt>
      <trkpt lat="33.560001" lon="-3.398985">
        <ele>572.6</ele>
        <time>2008-09-25T11:01:44Z</time>
      </trkpt>
      <trkpt lat="33.560026" lon="-3.399676">
        <ele>572.6</ele>
        <time>2008-09-25T11:01:46Z</time>
      </trkpt>
      <trkpt lat="33.560050" lon="-3.400344">
        <ele>572.6</ele>
        <time>2008-09-25T11:01:48Z</time>
      </trkpt>
      <trkpt lat="33.560073" lon="-3.400994">
        <ele>573.1</ele>
        <time>2008-09-25T11:01:50Z</time>
      </trkpt>
      <trkpt lat="33.560095" lon="-3.401655">
        <ele>574.0</ele>
        <time>2008-09-25T11:01:52Z</time>
      </trkpt>
      <trkpt lat="33.560114" lon="-3.402327">
        <ele>574.5</ele>
        <time>2008-09-25T11:01:54Z</time>
      </trkpt>
      <trkpt lat="33.560138" lon="-3.402982">
        <ele>573.1</ele>
        <time>2008-09-25T11:01:56Z</time>
      </trkpt>
      <trkpt lat="33.560161" lon="-3.403600">
        <ele>572.1</ele>
        <time>2008-09-25T11:01:58Z</time>
      </trkpt>
      <trkpt lat="33.560181" lon="-3.404172">
        <ele>571.6</ele>
        <time>2008-09-25T11:02:00Z</time>
      </trkpt>
      <trkpt lat="33.560201" lon="-3.404744">
        <ele>571.2</ele>
        <time>2008-09-25T11:02:02Z</time>
      </trkpt>
      <trkpt lat="33.560221" lon="-3.405337">
        <ele>570.7</ele>
        <time>2008-09-25T11:02:04Z</time>
      </trkpt>
      <trkpt lat="33.560243" lon="-3.405948">
        <ele>569.2</ele>
        <time>2008-09-25T11:02:06Z</time>
      </trkpt>
      <trkpt lat="33.560266" lon="-3.406576">
        <ele>568.3</ele>
        <time>2008-09-25T11:02:08Z</time>
      </trkpt>
      <trkpt lat="33.560288" lon="-3.407212">
        <ele>567.3</ele>
        <time>2008-09-25T11:02:10Z</time>
      </trkpt>
      <trkpt lat="33.560288" lon="-3.407840">
        <ele>564.4</ele>
        <time>2008-09-25T11:02:12Z</time>
      </trkpt>
      <trkpt lat="33.560228" lon="-3.408460">
        <ele>563.5</ele>
        <time>2008-09-25T11:02:14Z</time>
      </trkpt>
      <trkpt lat="33.560081" lon="-3.409065">
        <ele>561.5</ele>
        <time>2008-09-25T11:02:16Z</time>
      </trkpt>
      <trkpt lat="33.559866" lon="-3.409572">
        <ele>560.1</ele>
        <time>2008-09-25T11:02:18Z</time>
      </trkpt>
      <trkpt lat="33.559512" lon="-3.410028">
        <ele>559.6</ele>
        <time>2008-09-25T11:02:20Z</time>
      </trkpt>
      <trkpt lat="33.559059" lon="-3.410410">
        <ele>558.7</ele>
        <time>2008-09-25T11:02:22Z</time>
      </trkpt>
      <trkpt lat="33.558578" lon="-3.410733">
        <ele>558.2</ele>
        <time>2008-09-25T11:02:24Z</time>
      </trkpt>
      <trkpt lat="33.558077" lon="-3.411021">
        <ele>557.2</ele>
        <time>2008-09-25T11:02:26Z</time>
      </trkpt>
      <trkpt lat="33.557575" lon="-3.411291">
        <ele>554.8</ele>
        <time>2008-09-25T11:02:28Z</time>
      </trkpt>
      <trkpt lat="33.557095" lon="-3.411556">
        <ele>552.9</ele>
        <time>2008-09-25T11:02:30Z</time>
      </trkpt>
      <trkpt lat="33.556649" lon="-3.411826">
        <ele>550.5</ele>
        <time>2008-09-25T11:02:32Z</time>
      </trkpt>
      <trkpt lat="33.556268" lon="-3.412114">
        <ele>548.6</ele>
        <time>2008-09-25T11:02:34Z</time>
      </trkpt>
      <trkpt lat="33.555858" lon="-3.412672">
        <ele>548.1</ele>
        <time>2008-09-25T11:02:37Z</time>
      </trkpt>
      <trkpt lat="33.555649" lon="-3.413414">
        <ele>548.6</ele>
        <time>2008-09-25T11:02:40Z</time>
      </trkpt>
      <trkpt lat="33.555586" lon="-3.413966">
        <ele>549.1</ele>
        <time>2008-09-25T11:02:42Z</time>
      </trkpt>
      <trkpt lat="33.555518" lon="-3.414529">
        <ele>549.1</ele>
        <time>2008-09-25T11:02:44Z</time>
      </trkpt>
      <trkpt lat="33.555420" lon="-3.415086">
        <ele>550.0</ele>
        <time>2008-09-25T11:02:46Z</time>
      </trkpt>
      <trkpt lat="33.555258" lon="-3.415630">
        <ele>550.5</ele>
        <time>2008-09-25T11:02:48Z</time>
      </trkpt>
      <trkpt lat="33.555046" lon="-3.416172">
        <ele>551.0</ele>
        <time>2008-09-25T11:02:50Z</time>
      </trkpt>
      <trkpt lat="33.554813" lon="-3.416726">
        <ele>550.5</ele>
        <time>2008-09-25T11:02:52Z</time>
      </trkpt>
      <trkpt lat="33.554573" lon="-3.417294">
        <ele>549.5</ele>
        <time>2008-09-25T11:02:54Z</time>
      </trkpt>
      <trkpt lat="33.554326" lon="-3.417873">
        <ele>549.5</ele>
        <time>2008-09-25T11:02:56Z</time>
      </trkpt>
      <trkpt lat="33.554075" lon="-3.418456">
        <ele>549.5</ele>
        <time>2008-09-25T11:02:58Z</time>
      </trkpt>
      <trkpt lat="33.553827" lon="-3.419039">
        <ele>548.1</ele>
        <time>2008-09-25T11:03:00Z</time>
      </trkpt>
      <trkpt lat="33.553582" lon="-3.419625">
        <ele>547.6</ele>
        <time>2008-09-25T11:03:02Z</time>
      </trkpt>
      <trkpt lat="33.553356" lon="-3.420219">
        <ele>547.6</ele>
        <time>2008-09-25T11:03:04Z</time>
      </trkpt>
      <trkpt lat="33.553163" lon="-3.420833">
        <ele>547.1</ele>
        <time>2008-09-25T11:03:06Z</time>
      </trkpt>
      <trkpt lat="33.552989" lon="-3.421440">
        <ele>546.6</ele>
        <time>2008-09-25T11:03:08Z</time>
      </trkpt>
      <trkpt lat="33.552829" lon="-3.422026">
        <ele>545.2</ele>
        <time>2008-09-25T11:03:10Z</time>
      </trkpt>
      <trkpt lat="33.552673" lon="-3.422609">
        <ele>545.2</ele>
        <time>2008-09-25T11:03:12Z</time>
      </trkpt>
      <trkpt lat="33.552511" lon="-3.423204">
        <ele>544.2</ele>
        <time>2008-09-25T11:03:14Z</time>
      </trkpt>
      <trkpt lat="33.552346" lon="-3.423815">
        <ele>542.8</ele>
        <time>2008-09-25T11:03:16Z</time>
      </trkpt>
      <trkpt lat="33.552178" lon="-3.424443">
        <ele>541.8</ele>
        <time>2008-09-25T11:03:18Z</time>
      </trkpt>
      <trkpt lat="33.552001" lon="-3.425086">
        <ele>540.4</ele>
        <time>2008-09-25T11:03:20Z</time>
      </trkpt>
      <trkpt lat="33.551819" lon="-3.425741">
        <ele>538.5</ele>
        <time>2008-09-25T11:03:22Z</time>
      </trkpt>
      <trkpt lat="33.551635" lon="-3.426410">
        <ele>537.5</ele>
        <time>2008-09-25T11:03:24Z</time>
      </trkpt>
      <trkpt lat="33.551449" lon="-3.427088">
        <ele>536.1</ele>
        <time>2008-09-25T11:03:26Z</time>
      </trkpt>
      <trkpt lat="33.551259" lon="-3.427761">
        <ele>535.1</ele>
        <time>2008-09-25T11:03:28Z</time>
      </trkpt>
      <trkpt lat="33.551078" lon="-3.428409">
        <ele>533.7</ele>
        <time>2008-09-25T11:03:30Z</time>
      </trkpt>
      <trkpt lat="33.550917" lon="-3.429054">
        <ele>534.1</ele>
        <time>2008-09-25T11:03:32Z</time>
      </trkpt>
      <trkpt lat="33.550769" lon="-3.429715">
        <ele>533.7</ele>
        <time>2008-09-25T11:03:34Z</time>
      </trkpt>
      <trkpt lat="33.550644" lon="-3.430387">
        <ele>533.2</ele>
        <time>2008-09-25T11:03:36Z</time>
      </trkpt>
      <trkpt lat="33.550546" lon="-3.431070">
        <ele>532.2</ele>
        <time>2008-09-25T11:03:38Z</time>
      </trkpt>
      <trkpt lat="33.550457" lon="-3.431760">
        <ele>531.7</ele>
        <time>2008-09-25T11:03:40Z</time>
      </trkpt>
      <trkpt lat="33.550386" lon="-3.432442">
        <ele>529.3</ele>
        <time>2008-09-25T11:03:42Z</time>
      </trkpt>
      <trkpt lat="33.550317" lon="-3.433095">
        <ele>528.4</ele>
        <time>2008-09-25T11:03:44Z</time>
      </trkpt>
      <trkpt lat="33.550249" lon="-3.433715">
        <ele>527.4</ele>
        <time>2008-09-25T11:03:46Z</time>
      </trkpt>
      <trkpt lat="33.550182" lon="-3.434295">
        <ele>526.0</ele>
        <time>2008-09-25T11:03:48Z</time>
      </trkpt>
      <trkpt lat="33.550127" lon="-3.434845">
        <ele>526.5</ele>
        <time>2008-09-25T11:03:50Z</time>
      </trkpt>
      <trkpt lat="33.550128" lon="-3.435393">
        <ele>526.0</ele>
        <time>2008-09-25T11:03:52Z</time>
      </trkpt>
      <trkpt lat="33.550198" lon="-3.435945">
        <ele>526.5</ele>
        <time>2008-09-25T11:03:54Z</time>
      </trkpt>
      <trkpt lat="33.550311" lon="-3.436506">
        <ele>526.5</ele>
        <time>2008-09-25T11:03:56Z</time>
      </trkpt>
      <trkpt lat="33.550438" lon="-3.437082">
        <ele>525.5</ele>
        <time>2008-09-25T11:03:58Z</time>
      </trkpt>
      <trkpt lat="33.550573" lon="-3.437674">
        <ele>525.5</ele>
        <time>2008-09-25T11:04:00Z</time>
      </trkpt>
      <trkpt lat="33.550710" lon="-3.438278">
        <ele>524.5</ele>
        <time>2008-09-25T11:04:02Z</time>
      </trkpt>
      <trkpt lat="33.550847" lon="-3.438886">
        <ele>523.6</ele>
        <time>2008-09-25T11:04:04Z</time>
      </trkpt>
      <trkpt lat="33.550985" lon="-3.439493">
        <ele>522.6</ele>
        <time>2008-09-25T11:04:06Z</time>
      </trkpt>
      <trkpt lat="33.551120" lon="-3.440100">
        <ele>522.1</ele>
        <time>2008-09-25T11:04:08Z</time>
      </trkpt>
      <trkpt lat="33.551256" lon="-3.440706">
        <ele>521.7</ele>
        <time>2008-09-25T11:04:10Z</time>
      </trkpt>
      <trkpt lat="33.551383" lon="-3.441300">
        <ele>520.2</ele>
        <time>2008-09-25T11:04:12Z</time>
      </trkpt>
      <trkpt lat="33.551464" lon="-3.441886">
        <ele>518.8</ele>
        <time>2008-09-25T11:04:14Z</time>
      </trkpt>
      <trkpt lat="33.551464" lon="-3.442481">
        <ele>517.8</ele>
        <time>2008-09-25T11:04:16Z</time>
      </trkpt>
      <trkpt lat="33.551398" lon="-3.443075">
        <ele>517.8</ele>
        <time>2008-09-25T11:04:18Z</time>
      </trkpt>
      <trkpt lat="33.551296" lon="-3.443667">
        <ele>517.3</ele>
        <time>2008-09-25T11:04:20Z</time>
      </trkpt>
      <trkpt lat="33.551179" lon="-3.444258">
        <ele>516.8</ele>
        <time>2008-09-25T11:04:22Z</time>
      </trkpt>
      <trkpt lat="33.551062" lon="-3.444853">
        <ele>516.4</ele>
        <time>2008-09-25T11:04:24Z</time>
      </trkpt>
      <trkpt lat="33.550948" lon="-3.445449">
        <ele>515.9</ele>
        <time>2008-09-25T11:04:26Z</time>
      </trkpt>
      <trkpt lat="33.550833" lon="-3.446035">
        <ele>514.9</ele>
        <time>2008-09-25T11:04:28Z</time>
      </trkpt>
      <trkpt lat="33.550722" lon="-3.446597">
        <ele>513.0</ele>
        <time>2008-09-25T11:04:30Z</time>
      </trkpt>
      <trkpt lat="33.550623" lon="-3.447135">
        <ele>512.0</ele>
        <time>2008-09-25T11:04:32Z</time>
      </trkpt>
      <trkpt lat="33.550514" lon="-3.447657">
        <ele>512.5</ele>
        <time>2008-09-25T11:04:34Z</time>
      </trkpt>
      <trkpt lat="33.550352" lon="-3.448162">
        <ele>512.5</ele>
        <time>2008-09-25T11:04:36Z</time>
      </trkpt>
      <trkpt lat="33.550129" lon="-3.448641">
        <ele>511.6</ele>
        <time>2008-09-25T11:04:38Z</time>
      </trkpt>
      <trkpt lat="33.549851" lon="-3.449089">
        <ele>511.6</ele>
        <time>2008-09-25T11:04:40Z</time>
      </trkpt>
      <trkpt lat="33.549543" lon="-3.449506">
        <ele>512.0</ele>
        <time>2008-09-25T11:04:42Z</time>
      </trkpt>
      <trkpt lat="33.549203" lon="-3.449880">
        <ele>511.1</ele>
        <time>2008-09-25T11:04:44Z</time>
      </trkpt>
      <trkpt lat="33.548818" lon="-3.450193">
        <ele>510.6</ele>
        <time>2008-09-25T11:04:46Z</time>
      </trkpt>
      <trkpt lat="33.548382" lon="-3.450430">
        <ele>509.6</ele>
        <time>2008-09-25T11:04:48Z</time>
      </trkpt>
      <trkpt lat="33.547912" lon="-3.450601">
        <ele>508.2</ele>
        <time>2008-09-25T11:04:50Z</time>
      </trkpt>
      <trkpt lat="33.547429" lon="-3.450736">
        <ele>507.2</ele>
        <time>2008-09-25T11:04:52Z</time>
      </trkpt>
      <trkpt lat="33.546956" lon="-3.450865">
        <ele>507.7</ele>
        <time>2008-09-25T11:04:54Z</time>
      </trkpt>
      <trkpt lat="33.546484" lon="-3.450993">
        <ele>507.2</ele>
        <time>2008-09-25T11:04:56Z</time>
      </trkpt>
      <trkpt lat="33.546003" lon="-3.451119">
        <ele>506.8</ele>
        <time>2008-09-25T11:04:58Z</time>
      </trkpt>
      <trkpt lat="33.545516" lon="-3.451248">
        <ele>506.8</ele>
        <time>2008-09-25T11:05:00Z</time>
      </trkpt>
      <trkpt lat="33.545026" lon="-3.451386">
        <ele>504.8</ele>
        <time>2008-09-25T11:05:02Z</time>
      </trkpt>
      <trkpt lat="33.544547" lon="-3.451539">
        <ele>503.4</ele>
        <time>2008-09-25T11:05:04Z</time>
      </trkpt>
      <trkpt lat="33.544093" lon="-3.451751">
        <ele>501.9</ele>
        <time>2008-09-25T11:05:06Z</time>
      </trkpt>
      <trkpt lat="33.543675" lon="-3.452045">
        <ele>501.0</ele>
        <time>2008-09-25T11:05:08Z</time>
      </trkpt>
      <trkpt lat="33.543295" lon="-3.452373">
        <ele>499.5</ele>
        <time>2008-09-25T11:05:10Z</time>
      </trkpt>
      <trkpt lat="33.542794" lon="-3.452828">
        <ele>495.7</ele>
        <time>2008-09-25T11:05:13Z</time>
      </trkpt>
      <trkpt lat="33.542367" lon="-3.453222">
        <ele>494.3</ele>
        <time>2008-09-25T11:05:16Z</time>
      </trkpt>
      <trkpt lat="33.541962" lon="-3.453610">
        <ele>492.8</ele>
        <time>2008-09-25T11:05:20Z</time>
      </trkpt>
      <trkpt lat="33.541555" lon="-3.453999">
        <ele>493.3</ele>
        <time>2008-09-25T11:05:25Z</time>
      </trkpt>
      <trkpt lat="33.541146" lon="-3.454375">
        <ele>496.2</ele>
        <time>2008-09-25T11:05:29Z</time>
      </trkpt>
      <trkpt lat="33.540778" lon="-3.454714">
        <ele>498.1</ele>
        <time>2008-09-25T11:05:32Z</time>
      </trkpt>
      <trkpt lat="33.540383" lon="-3.455079">
        <ele>499.1</ele>
        <time>2008-09-25T11:05:35Z</time>
      </trkpt>
      <trkpt lat="33.539960" lon="-3.455474">
        <ele>500.0</ele>
        <time>2008-09-25T11:05:38Z</time>
      </trkpt>
      <trkpt lat="33.539517" lon="-3.455890">
        <ele>499.5</ele>
        <time>2008-09-25T11:05:41Z</time>
      </trkpt>
      <trkpt lat="33.539067" lon="-3.456326">
        <ele>498.1</ele>
        <time>2008-09-25T11:05:44Z</time>
      </trkpt>
      <trkpt lat="33.538607" lon="-3.456715">
        <ele>496.2</ele>
        <time>2008-09-25T11:05:47Z</time>
      </trkpt>
      <trkpt lat="33.538083" lon="-3.456971">
        <ele>493.3</ele>
        <time>2008-09-25T11:05:50Z</time>
      </trkpt>
      <trkpt lat="33.537482" lon="-3.457058">
        <ele>491.9</ele>
        <time>2008-09-25T11:05:53Z</time>
      </trkpt>
      <trkpt lat="33.536829" lon="-3.457061">
        <ele>490.4</ele>
        <time>2008-09-25T11:05:56Z</time>
      </trkpt>
      <trkpt lat="33.536169" lon="-3.457169">
        <ele>487.5</ele>
        <time>2008-09-25T11:05:59Z</time>
      </trkpt>
      <trkpt lat="33.535730" lon="-3.457322">
        <ele>486.6</ele>
        <time>2008-09-25T11:06:01Z</time>
      </trkpt>
      <trkpt lat="33.535285" lon="-3.457502">
        <ele>485.1</ele>
        <time>2008-09-25T11:06:03Z</time>
      </trkpt>
      <trkpt lat="33.534828" lon="-3.457689">
        <ele>483.7</ele>
        <time>2008-09-25T11:06:05Z</time>
      </trkpt>
      <trkpt lat="33.534363" lon="-3.457878">
        <ele>482.2</ele>
        <time>2008-09-25T11:06:07Z</time>
      </trkpt>
      <trkpt lat="33.533911" lon="-3.458060">
        <ele>479.8</ele>
        <time>2008-09-25T11:06:09Z</time>
      </trkpt>
      <trkpt lat="33.533311" lon="-3.458323">
        <ele>478.4</ele>
        <time>2008-09-25T11:06:12Z</time>
      </trkpt>
      <trkpt lat="33.532770" lon="-3.458699">
        <ele>478.9</ele>
        <time>2008-09-25T11:06:15Z</time>
      </trkpt>
      <trkpt lat="33.532267" lon="-3.459245">
        <ele>477.4</ele>
        <time>2008-09-25T11:06:18Z</time>
      </trkpt>
      <trkpt lat="33.531927" lon="-3.459653">
        <ele>476.5</ele>
        <time>2008-09-25T11:06:20Z</time>
      </trkpt>
      <trkpt lat="33.531579" lon="-3.460076">
        <ele>475.5</ele>
        <time>2008-09-25T11:06:22Z</time>
      </trkpt>
      <trkpt lat="33.531225" lon="-3.460520">
        <ele>475.5</ele>
        <time>2008-09-25T11:06:24Z</time>
      </trkpt>
      <trkpt lat="33.530859" lon="-3.460971">
        <ele>476.0</ele>
        <time>2008-09-25T11:06:26Z</time>
      </trkpt>
      <trkpt lat="33.530486" lon="-3.461424">
        <ele>476.0</ele>
        <time>2008-09-25T11:06:28Z</time>
      </trkpt>
      <trkpt lat="33.530114" lon="-3.461872">
        <ele>476.0</ele>
        <time>2008-09-25T11:06:30Z</time>
      </trkpt>
      <trkpt lat="33.529740" lon="-3.462318">
        <ele>476.0</ele>
        <time>2008-09-25T11:06:32Z</time>
      </trkpt>
      <trkpt lat="33.529365" lon="-3.462767">
        <ele>475.0</ele>
        <time>2008-09-25T11:06:34Z</time>
      </trkpt>
      <trkpt lat="33.528992" lon="-3.463211">
        <ele>473.6</ele>
        <time>2008-09-25T11:06:36Z</time>
      </trkpt>
      <trkpt lat="33.528613" lon="-3.463658">
        <ele>472.1</ele>
        <time>2008-09-25T11:06:38Z</time>
      </trkpt>
      <trkpt lat="33.528237" lon="-3.464114">
        <ele>470.7</ele>
        <time>2008-09-25T11:06:40Z</time>
      </trkpt>
      <trkpt lat="33.527867" lon="-3.464569">
        <ele>470.7</ele>
        <time>2008-09-25T11:06:42Z</time>
      </trkpt>
      <trkpt lat="33.527515" lon="-3.465002">
        <ele>470.2</ele>
        <time>2008-09-25T11:06:44Z</time>
      </trkpt>
      <trkpt lat="33.527184" lon="-3.465396">
        <ele>469.3</ele>
        <time>2008-09-25T11:06:46Z</time>
      </trkpt>
      <trkpt lat="33.526730" lon="-3.465888">
        <ele>468.3</ele>
        <time>2008-09-25T11:06:49Z</time>
      </trkpt>
      <trkpt lat="33.526276" lon="-3.466313">
        <ele>468.8</ele>
        <time>2008-09-25T11:06:52Z</time>
      </trkpt>
      <trkpt lat="33.525792" lon="-3.466742">
        <ele>467.8</ele>
        <time>2008-09-25T11:06:55Z</time>
      </trkpt>
      <trkpt lat="33.525313" lon="-3.467179">
        <ele>464.9</ele>
        <time>2008-09-25T11:06:58Z</time>
      </trkpt>
      <trkpt lat="33.524872" lon="-3.467635">
        <ele>462.5</ele>
        <time>2008-09-25T11:07:01Z</time>
      </trkpt>
      <trkpt lat="33.524494" lon="-3.468181">
        <ele>461.6</ele>
        <time>2008-09-25T11:07:04Z</time>
      </trkpt>
      <trkpt lat="33.524160" lon="-3.468776">
        <ele>458.7</ele>
        <time>2008-09-25T11:07:07Z</time>
      </trkpt>
      <trkpt lat="33.523846" lon="-3.469329">
        <ele>459.6</ele>
        <time>2008-09-25T11:07:10Z</time>
      </trkpt>
      <trkpt lat="33.523546" lon="-3.469855">
        <ele>458.7</ele>
        <time>2008-09-25T11:07:13Z</time>
      </trkpt>
      <trkpt lat="33.523232" lon="-3.470398">
        <ele>457.2</ele>
        <time>2008-09-25T11:07:16Z</time>
      </trkpt>
      <trkpt lat="33.522872" lon="-3.470905">
        <ele>454.8</ele>
        <time>2008-09-25T11:07:19Z</time>
      </trkpt>
      <trkpt lat="33.522430" lon="-3.471311">
        <ele>452.9</ele>
        <time>2008-09-25T11:07:22Z</time>
      </trkpt>
      <trkpt lat="33.521943" lon="-3.471576">
        <ele>450.5</ele>
        <time>2008-09-25T11:07:25Z</time>
      </trkpt>
      <trkpt lat="33.521467" lon="-3.471694">
        <ele>447.2</ele>
        <time>2008-09-25T11:07:29Z</time>
      </trkpt>
      <trkpt lat="33.521032" lon="-3.471640">
        <ele>444.3</ele>
        <time>2008-09-25T11:07:37Z</time>
      </trkpt>
      <trkpt lat="33.520612" lon="-3.471531">
        <ele>441.9</ele>
        <time>2008-09-25T11:08:06Z</time>
      </trkpt>
      <trkpt lat="33.520144" lon="-3.471677">
        <ele>443.8</ele>
        <time>2008-09-25T11:08:19Z</time>
      </trkpt>
      <trkpt lat="33.519697" lon="-3.471954">
        <ele>445.2</ele>
        <time>2008-09-25T11:08:36Z</time>
      </trkpt>
      <trkpt lat="33.518761" lon="-3.472225">
        <ele>448.6</ele>
        <time>2008-09-25T11:15:17Z</time>
      </trkpt>
      <trkpt lat="33.518215" lon="-3.472322">
        <ele>449.6</ele>
        <time>2008-09-25T11:15:21Z</time>
      </trkpt>
      <trkpt lat="33.517709" lon="-3.472412">
        <ele>451.0</ele>
        <time>2008-09-25T11:15:24Z</time>
      </trkpt>
      <trkpt lat="33.517136" lon="-3.472507">
        <ele>451.0</ele>
        <time>2008-09-25T11:15:27Z</time>
      </trkpt>
      <trkpt lat="33.516549" lon="-3.472600">
        <ele>450.5</ele>
        <time>2008-09-25T11:15:30Z</time>
      </trkpt>
      <trkpt lat="33.515989" lon="-3.472704">
        <ele>449.6</ele>
        <time>2008-09-25T11:15:33Z</time>
      </trkpt>
      <trkpt lat="33.515456" lon="-3.472900">
        <ele>449.1</ele>
        <time>2008-09-25T11:15:36Z</time>
      </trkpt>
      <trkpt lat="33.514950" lon="-3.473228">
        <ele>449.1</ele>
        <time>2008-09-25T11:15:39Z</time>
      </trkpt>
      <trkpt lat="33.514501" lon="-3.473691">
        <ele>447.6</ele>
        <time>2008-09-25T11:15:42Z</time>
      </trkpt>
      <trkpt lat="33.514138" lon="-3.474289">
        <ele>446.7</ele>
        <time>2008-09-25T11:15:45Z</time>
      </trkpt>
      <trkpt lat="33.513815" lon="-3.474952">
        <ele>446.2</ele>
        <time>2008-09-25T11:15:48Z</time>
      </trkpt>
      <trkpt lat="33.513486" lon="-3.475646">
        <ele>446.2</ele>
        <time>2008-09-25T11:15:51Z</time>
      </trkpt>
      <trkpt lat="33.513262" lon="-3.476118">
        <ele>445.7</ele>
        <time>2008-09-25T11:15:53Z</time>
      </trkpt>
      <trkpt lat="33.513036" lon="-3.476589">
        <ele>445.7</ele>
        <time>2008-09-25T11:15:55Z</time>
      </trkpt>
      <trkpt lat="33.512810" lon="-3.477058">
        <ele>445.2</ele>
        <time>2008-09-25T11:15:57Z</time>
      </trkpt>
      <trkpt lat="33.512587" lon="-3.477527">
        <ele>445.7</ele>
        <time>2008-09-25T11:15:59Z</time>
      </trkpt>
      <trkpt lat="33.512262" lon="-3.478220">
        <ele>445.2</ele>
        <time>2008-09-25T11:16:02Z</time>
      </trkpt>
      <trkpt lat="33.511945" lon="-3.478904">
        <ele>445.2</ele>
        <time>2008-09-25T11:16:05Z</time>
      </trkpt>
      <trkpt lat="33.511621" lon="-3.479596">
        <ele>446.2</ele>
        <time>2008-09-25T11:16:08Z</time>
      </trkpt>
      <trkpt lat="33.511309" lon="-3.480293">
        <ele>445.7</ele>
        <time>2008-09-25T11:16:11Z</time>
      </trkpt>
      <trkpt lat="33.511096" lon="-3.481046">
        <ele>444.7</ele>
        <time>2008-09-25T11:16:14Z</time>
      </trkpt>
      <trkpt lat="33.511030" lon="-3.481586">
        <ele>444.7</ele>
        <time>2008-09-25T11:16:16Z</time>
      </trkpt>
      <trkpt lat="33.511037" lon="-3.482140">
        <ele>444.7</ele>
        <time>2008-09-25T11:16:18Z</time>
      </trkpt>
      <trkpt lat="33.511071" lon="-3.482698">
        <ele>444.3</ele>
        <time>2008-09-25T11:16:20Z</time>
      </trkpt>
      <trkpt lat="33.511109" lon="-3.483259">
        <ele>443.8</ele>
        <time>2008-09-25T11:16:22Z</time>
      </trkpt>
      <trkpt lat="33.511147" lon="-3.483825">
        <ele>443.8</ele>
        <time>2008-09-25T11:16:24Z</time>
      </trkpt>
      <trkpt lat="33.511181" lon="-3.484397">
        <ele>443.3</ele>
        <time>2008-09-25T11:16:26Z</time>
      </trkpt>
      <trkpt lat="33.511214" lon="-3.484971">
        <ele>442.3</ele>
        <time>2008-09-25T11:16:28Z</time>
      </trkpt>
      <trkpt lat="33.511246" lon="-3.485546">
        <ele>441.9</ele>
        <time>2008-09-25T11:16:30Z</time>
      </trkpt>
      <trkpt lat="33.511275" lon="-3.486108">
        <ele>441.4</ele>
        <time>2008-09-25T11:16:32Z</time>
      </trkpt>
      <trkpt lat="33.511305" lon="-3.486648">
        <ele>439.9</ele>
        <time>2008-09-25T11:16:34Z</time>
      </trkpt>
      <trkpt lat="33.511348" lon="-3.487430">
        <ele>438.5</ele>
        <time>2008-09-25T11:16:37Z</time>
      </trkpt>
      <trkpt lat="33.511347" lon="-3.488231">
        <ele>437.1</ele>
        <time>2008-09-25T11:16:40Z</time>
      </trkpt>
      <trkpt lat="33.511278" lon="-3.488772">
        <ele>436.1</ele>
        <time>2008-09-25T11:16:42Z</time>
      </trkpt>
      <trkpt lat="33.511131" lon="-3.489299">
        <ele>434.7</ele>
        <time>2008-09-25T11:16:44Z</time>
      </trkpt>
      <trkpt lat="33.510923" lon="-3.489797">
        <ele>434.7</ele>
        <time>2008-09-25T11:16:46Z</time>
      </trkpt>
      <trkpt lat="33.510698" lon="-3.490287">
        <ele>434.7</ele>
        <time>2008-09-25T11:16:48Z</time>
      </trkpt>
      <trkpt lat="33.510479" lon="-3.490775">
        <ele>434.7</ele>
        <time>2008-09-25T11:16:50Z</time>
      </trkpt>
      <trkpt lat="33.510268" lon="-3.491260">
        <ele>435.6</ele>
        <time>2008-09-25T11:16:52Z</time>
      </trkpt>
      <trkpt lat="33.509999" lon="-3.491970">
        <ele>434.2</ele>
        <time>2008-09-25T11:16:55Z</time>
      </trkpt>
      <trkpt lat="33.509806" lon="-3.492710">
        <ele>433.2</ele>
        <time>2008-09-25T11:16:58Z</time>
      </trkpt>
      <trkpt lat="33.509669" lon="-3.493491">
        <ele>433.7</ele>
        <time>2008-09-25T11:17:01Z</time>
      </trkpt>
      <trkpt lat="33.509592" lon="-3.494024">
        <ele>433.7</ele>
        <time>2008-09-25T11:17:03Z</time>
      </trkpt>
      <trkpt lat="33.509518" lon="-3.494560">
        <ele>432.7</ele>
        <time>2008-09-25T11:17:05Z</time>
      </trkpt>
      <trkpt lat="33.509778" lon="-3.495879">
        <ele>881.2</ele>
        <time>2008-03-16T16:40:17Z</time>
      </trkpt>
      <trkpt lat="33.509362" lon="-3.495742">
        <ele>880.2</ele>
        <time>2008-03-16T16:40:31Z</time>
      </trkpt>
      <trkpt lat="33.508891" lon="-3.495618">
        <ele>884.1</ele>
        <time>2008-03-16T16:40:44Z</time>
      </trkpt>
      <trkpt lat="33.508492" lon="-3.495343">
        <ele>885.5</ele>
        <time>2008-03-16T16:40:53Z</time>
      </trkpt>
      <trkpt lat="33.508051" lon="-3.495179">
        <ele>886.0</ele>
        <time>2008-03-16T16:41:01Z</time>
      </trkpt>
      <trkpt lat="33.507637" lon="-3.494863">
        <ele>890.3</ele>
        <time>2008-03-16T16:41:09Z</time>
      </trkpt>
      <trkpt lat="33.507318" lon="-3.494509">
        <ele>892.7</ele>
        <time>2008-03-16T16:41:20Z</time>
      </trkpt>
      <trkpt lat="33.506882" lon="-3.494546">
        <ele>891.3</ele>
        <time>2008-03-16T16:41:32Z</time>
      </trkpt>
      <trkpt lat="33.506447" lon="-3.494835">
        <ele>892.2</ele>
        <time>2008-03-16T16:41:42Z</time>
      </trkpt>
      <trkpt lat="33.505986" lon="-3.494956">
        <ele>891.8</ele>
        <time>2008-03-16T16:41:52Z</time>
      </trkpt>
      <trkpt lat="33.505712" lon="-3.495374">
        <ele>893.2</ele>
        <time>2008-03-16T16:42:02Z</time>
      </trkpt>
      <trkpt lat="33.505373" lon="-3.495829">
        <ele>894.2</ele>
        <time>2008-03-16T16:42:11Z</time>
      </trkpt>
      <trkpt lat="33.505170" lon="-3.496328">
        <ele>895.6</ele>
        <time>2008-03-16T16:42:18Z</time>
      </trkpt>
      <trkpt lat="33.504834" lon="-3.496720">
        <ele>894.6</ele>
        <time>2008-03-16T16:42:26Z</time>
      </trkpt>
      <trkpt lat="33.504505" lon="-3.497150">
        <ele>893.2</ele>
        <time>2008-03-16T16:42:34Z</time>
      </trkpt>
      <trkpt lat="33.504427" lon="-3.497693">
        <ele>889.8</ele>
        <time>2008-03-16T16:42:43Z</time>
      </trkpt>
      <trkpt lat="33.504443" lon="-3.498232">
        <ele>889.4</ele>
        <time>2008-03-16T16:42:51Z</time>
      </trkpt>
      <trkpt lat="33.504158" lon="-3.498746">
        <ele>883.6</ele>
        <time>2008-03-16T16:43:00Z</time>
      </trkpt>
      <trkpt lat="33.503871" lon="-3.499196">
        <ele>880.7</ele>
        <time>2008-03-16T16:43:09Z</time>
      </trkpt>
      <trkpt lat="33.503836" lon="-3.499799">
        <ele>879.3</ele>
        <time>2008-03-16T16:43:19Z</time>
      </trkpt>
      <trkpt lat="33.503727" lon="-3.500358">
        <ele>879.3</ele>
        <time>2008-03-16T16:43:28Z</time>
      </trkpt>
      <trkpt lat="33.503582" lon="-3.500956">
        <ele>879.7</ele>
        <time>2008-03-16T16:43:36Z</time>
      </trkpt>
      <trkpt lat="33.503437" lon="-3.501504">
        <ele>879.7</ele>
        <time>2008-03-16T16:43:43Z</time>
      </trkpt>
      <trkpt lat="33.503280" lon="-3.502047">
        <ele>882.1</ele>
        <time>2008-03-16T16:43:50Z</time>
      </trkpt>
      <trkpt lat="33.503108" lon="-3.502562">
        <ele>879.7</ele>
        <time>2008-03-16T16:43:57Z</time>
      </trkpt>
      <trkpt lat="33.502892" lon="-3.503073">
        <ele>877.3</ele>
        <time>2008-03-16T16:44:06Z</time>
      </trkpt>
      <trkpt lat="33.502650" lon="-3.503567">
        <ele>874.9</ele>
        <time>2008-03-16T16:44:15Z</time>
      </trkpt>
      <trkpt lat="33.502435" lon="-3.504009">
        <ele>873.0</ele>
        <time>2008-03-16T16:44:31Z</time>
      </trkpt>
      <trkpt lat="33.502217" lon="-3.504533">
        <ele>873.5</ele>
        <time>2008-03-16T16:44:50Z</time>
      </trkpt>
      <trkpt lat="33.501997" lon="-3.505050">
        <ele>873.5</ele>
        <time>2008-03-16T16:44:59Z</time>
      </trkpt>
      <trkpt lat="33.501766" lon="-3.505532">
        <ele>872.1</ele>
        <time>2008-03-16T16:45:05Z</time>
      </trkpt>
      <trkpt lat="33.501551" lon="-3.506098">
        <ele>874.5</ele>
        <time>2008-03-16T16:45:12Z</time>
      </trkpt>
      <trkpt lat="33.501343" lon="-3.506593">
        <ele>871.1</ele>
        <time>2008-03-16T16:45:18Z</time>
      </trkpt>
      <trkpt lat="33.501139" lon="-3.507084">
        <ele>873.0</ele>
        <time>2008-03-16T16:45:25Z</time>
      </trkpt>
      <trkpt lat="33.500966" lon="-3.507573">
        <ele>874.9</ele>
        <time>2008-03-16T16:45:33Z</time>
      </trkpt>
      <trkpt lat="33.500822" lon="-3.508139">
        <ele>880.2</ele>
        <time>2008-03-16T16:45:43Z</time>
      </trkpt>
      <trkpt lat="33.500780" lon="-3.508724">
        <ele>881.7</ele>
        <time>2008-03-16T16:45:50Z</time>
      </trkpt>
      <trkpt lat="33.500804" lon="-3.509272">
        <ele>881.7</ele>
        <time>2008-03-16T16:45:57Z</time>
      </trkpt>
      <trkpt lat="33.500841" lon="-3.509831">
        <ele>878.8</ele>
        <time>2008-03-16T16:46:06Z</time>
      </trkpt>
      <trkpt lat="33.500926" lon="-3.510382">
        <ele>876.4</ele>
        <time>2008-03-16T16:46:16Z</time>
      </trkpt>
      <trkpt lat="33.500727" lon="-3.510815">
        <ele>874.9</ele>
        <time>2008-03-16T16:46:30Z</time>
      </trkpt>
      <trkpt lat="33.500559" lon="-3.511348">
        <ele>874.9</ele>
        <time>2008-03-16T16:46:38Z</time>
      </trkpt>
      <trkpt lat="33.500583" lon="-3.511908">
        <ele>876.4</ele>
        <time>2008-03-16T16:46:46Z</time>
      </trkpt>
      <trkpt lat="33.500663" lon="-3.512494">
        <ele>874.9</ele>
        <time>2008-03-16T16:46:55Z</time>
      </trkpt>
      <trkpt lat="33.500701" lon="-3.513042">
        <ele>870.6</ele>
        <time>2008-03-16T16:47:04Z</time>
      </trkpt>
      <trkpt lat="33.500668" lon="-3.513599">
        <ele>870.1</ele>
        <time>2008-03-16T16:47:12Z</time>
      </trkpt>
      <trkpt lat="33.500473" lon="-3.514170">
        <ele>869.2</ele>
        <time>2008-03-16T16:47:20Z</time>
      </trkpt>
      <trkpt lat="33.500205" lon="-3.514668">
        <ele>866.3</ele>
        <time>2008-03-16T16:47:27Z</time>
      </trkpt>
      <trkpt lat="33.499923" lon="-3.515103">
        <ele>865.8</ele>
        <time>2008-03-16T16:47:34Z</time>
      </trkpt>
      <trkpt lat="33.499703" lon="-3.515625">
        <ele>864.4</ele>
        <time>2008-03-16T16:47:43Z</time>
      </trkpt>
      <trkpt lat="33.499518" lon="-3.516143">
        <ele>863.9</ele>
        <time>2008-03-16T16:47:50Z</time>
      </trkpt>
      <trkpt lat="33.499328" lon="-3.516644">
        <ele>862.0</ele>
        <time>2008-03-16T16:47:58Z</time>
      </trkpt>
      <trkpt lat="33.498943" lon="-3.516808">
        <ele>863.9</ele>
        <time>2008-03-16T16:48:10Z</time>
      </trkpt>
      <trkpt lat="33.498963" lon="-3.517279">
        <ele>863.9</ele>
        <time>2008-03-16T16:48:25Z</time>
      </trkpt>
      <trkpt lat="33.498995" lon="-3.517849">
        <ele>861.0</ele>
        <time>2008-03-16T16:48:33Z</time>
      </trkpt>
      <trkpt lat="33.498778" lon="-3.518382">
        <ele>861.0</ele>
        <time>2008-03-16T16:48:41Z</time>
      </trkpt>
      <trkpt lat="33.498583" lon="-3.518875">
        <ele>861.0</ele>
        <time>2008-03-16T16:48:49Z</time>
      </trkpt>
      <trkpt lat="33.498664" lon="-3.519361">
        <ele>862.4</ele>
        <time>2008-03-16T16:49:07Z</time>
      </trkpt>
      <trkpt lat="33.498496" lon="-3.519921">
        <ele>863.4</ele>
        <time>2008-03-16T16:49:17Z</time>
      </trkpt>
      <trkpt lat="33.498327" lon="-3.520462">
        <ele>863.4</ele>
        <time>2008-03-16T16:49:24Z</time>
      </trkpt>
      <trkpt lat="33.498161" lon="-3.521022">
        <ele>862.9</ele>
        <time>2008-03-16T16:49:31Z</time>
      </trkpt>
      <trkpt lat="33.497939" lon="-3.521560">
        <ele>860.0</ele>
        <time>2008-03-16T16:49:38Z</time>
      </trkpt>
      <trkpt lat="33.497711" lon="-3.522117">
        <ele>859.6</ele>
        <time>2008-03-16T16:49:45Z</time>
      </trkpt>
      <trkpt lat="33.497499" lon="-3.522639">
        <ele>861.5</ele>
        <time>2008-03-16T16:49:51Z</time>
      </trkpt>
      <trkpt lat="33.497263" lon="-3.523201">
        <ele>863.9</ele>
        <time>2008-03-16T16:49:57Z</time>
      </trkpt>
      <trkpt lat="33.497045" lon="-3.523691">
        <ele>862.4</ele>
        <time>2008-03-16T16:50:02Z</time>
      </trkpt>
      <trkpt lat="33.496763" lon="-3.524199">
        <ele>862.4</ele>
        <time>2008-03-16T16:50:07Z</time>
      </trkpt>
      <trkpt lat="33.496460" lon="-3.524736">
        <ele>862.4</ele>
        <time>2008-03-16T16:50:12Z</time>
      </trkpt>
      <trkpt lat="33.496159" lon="-3.525271">
        <ele>862.0</ele>
        <time>2008-03-16T16:50:17Z</time>
      </trkpt>
      <trkpt lat="33.495798" lon="-3.525566">
        <ele>863.4</ele>
        <time>2008-03-16T16:50:23Z</time>
      </trkpt>
      <trkpt lat="33.495376" lon="-3.525750">
        <ele>859.6</ele>
        <time>2008-03-16T16:50:35Z</time>
      </trkpt>
      <trkpt lat="33.495046" lon="-3.526145">
        <ele>860.0</ele>
        <time>2008-03-16T16:50:50Z</time>
      </trkpt>
      <trkpt lat="33.494777" lon="-3.526616">
        <ele>858.6</ele>
        <time>2008-03-16T16:51:01Z</time>
      </trkpt>
      <trkpt lat="33.494504" lon="-3.527105">
        <ele>860.5</ele>
        <time>2008-03-16T16:51:08Z</time>
      </trkpt>
      <trkpt lat="33.494145" lon="-3.527432">
        <ele>859.6</ele>
        <time>2008-03-16T16:51:16Z</time>
      </trkpt>
      <trkpt lat="33.493763" lon="-3.527799">
        <ele>863.4</ele>
        <time>2008-03-16T16:51:29Z</time>
      </trkpt>
      <trkpt lat="33.493393" lon="-3.528131">
        <ele>863.9</ele>
        <time>2008-03-16T16:51:36Z</time>
      </trkpt>
      <trkpt lat="33.493038" lon="-3.528474">
        <ele>865.3</ele>
        <time>2008-03-16T16:51:43Z</time>
      </trkpt>
      <trkpt lat="33.492767" lon="-3.528994">
        <ele>864.4</ele>
        <time>2008-03-16T16:51:51Z</time>
      </trkpt>
      <trkpt lat="33.492459" lon="-3.529465">
        <ele>861.5</ele>
        <time>2008-03-16T16:51:59Z</time>
      </trkpt>
      <trkpt lat="33.492237" lon="-3.529939">
        <ele>860.0</ele>
        <time>2008-03-16T16:52:06Z</time>
      </trkpt>
      <trkpt lat="33.491884" lon="-3.530285">
        <ele>860.0</ele>
        <time>2008-03-16T16:52:13Z</time>
      </trkpt>
      <trkpt lat="33.491583" lon="-3.530771">
        <ele>858.1</ele>
        <time>2008-03-16T16:52:21Z</time>
      </trkpt>
      <trkpt lat="33.491258" lon="-3.531168">
        <ele>857.2</ele>
        <time>2008-03-16T16:52:29Z</time>
      </trkpt>
      <trkpt lat="33.490905" lon="-3.531507">
        <ele>857.2</ele>
        <time>2008-03-16T16:52:44Z</time>
      </trkpt>
      <trkpt lat="33.490487" lon="-3.531742">
        <ele>855.2</ele>
        <time>2008-03-16T16:52:53Z</time>
      </trkpt>
      <trkpt lat="33.490150" lon="-3.532105">
        <ele>856.7</ele>
        <time>2008-03-16T16:53:11Z</time>
      </trkpt>
      <trkpt lat="33.489821" lon="-3.532587">
        <ele>857.6</ele>
        <time>2008-03-16T16:53:21Z</time>
      </trkpt>
      <trkpt lat="33.489462" lon="-3.533028">
        <ele>859.1</ele>
        <time>2008-03-16T16:53:29Z</time>
      </trkpt>
      <trkpt lat="33.489174" lon="-3.533502">
        <ele>858.1</ele>
        <time>2008-03-16T16:53:36Z</time>
      </trkpt>
      <trkpt lat="33.489011" lon="-3.534002">
        <ele>856.7</ele>
        <time>2008-03-16T16:53:43Z</time>
      </trkpt>
      <trkpt lat="33.488885" lon="-3.534502">
        <ele>856.2</ele>
        <time>2008-03-16T16:54:01Z</time>
      </trkpt>
      <trkpt lat="33.488807" lon="-3.535079">
        <ele>858.6</ele>
        <time>2008-03-16T16:54:10Z</time>
      </trkpt>
      <trkpt lat="33.488719" lon="-3.535678">
        <ele>856.7</ele>
        <time>2008-03-16T16:54:16Z</time>
      </trkpt>
      <trkpt lat="33.488639" lon="-3.536238">
        <ele>855.2</ele>
        <time>2008-03-16T16:54:23Z</time>
      </trkpt>
      <trkpt lat="33.488534" lon="-3.536816">
        <ele>852.3</ele>
        <time>2008-03-16T16:54:30Z</time>
      </trkpt>
      <trkpt lat="33.488494" lon="-3.537433">
        <ele>851.9</ele>
        <time>2008-03-16T16:54:38Z</time>
      </trkpt>
      <trkpt lat="33.488427" lon="-3.537994">
        <ele>850.9</ele>
        <time>2008-03-16T16:54:45Z</time>
      </trkpt>
      <trkpt lat="33.488371" lon="-3.538621">
        <ele>850.4</ele>
        <time>2008-03-16T16:54:52Z</time>
      </trkpt>
      <trkpt lat="33.488281" lon="-3.539150">
        <ele>848.5</ele>
        <time>2008-03-16T16:55:01Z</time>
      </trkpt>
      <trkpt lat="33.488222" lon="-3.539727">
        <ele>847.5</ele>
        <time>2008-03-16T16:55:10Z</time>
      </trkpt>
      <trkpt lat="33.488161" lon="-3.540302">
        <ele>844.7</ele>
        <time>2008-03-16T16:55:18Z</time>
      </trkpt>
      <trkpt lat="33.488067" lon="-3.540891">
        <ele>842.3</ele>
        <time>2008-03-16T16:55:26Z</time>
      </trkpt>
      <trkpt lat="33.488141" lon="-3.541479">
        <ele>840.8</ele>
        <time>2008-03-16T16:55:34Z</time>
      </trkpt>
      <trkpt lat="33.488216" lon="-3.542060">
        <ele>840.3</ele>
        <time>2008-03-16T16:55:42Z</time>
      </trkpt>
      <trkpt lat="33.487987" lon="-3.542536">
        <ele>836.0</ele>
        <time>2008-03-16T16:55:53Z</time>
      </trkpt>
      <trkpt lat="33.487801" lon="-3.543010">
        <ele>832.6</ele>
        <time>2008-03-16T16:56:05Z</time>
      </trkpt>
      <trkpt lat="33.487938" lon="-3.543531">
        <ele>830.7</ele>
        <time>2008-03-16T16:56:21Z</time>
      </trkpt>
      <trkpt lat="33.488094" lon="-3.544067">
        <ele>832.6</ele>
        <time>2008-03-16T16:56:38Z</time>
      </trkpt>
      <trkpt lat="33.488263" lon="-3.544610">
        <ele>831.7</ele>
        <time>2008-03-16T16:56:50Z</time>
      </trkpt>
      <trkpt lat="33.488137" lon="-3.545120">
        <ele>835.0</ele>
        <time>2008-03-16T16:57:00Z</time>
      </trkpt>
      <trkpt lat="33.487794" lon="-3.545507">
        <ele>838.9</ele>
        <time>2008-03-16T16:57:11Z</time>
      </trkpt>
      <trkpt lat="33.487353" lon="-3.545458">
        <ele>841.8</ele>
        <time>2008-03-16T16:57:25Z</time>
      </trkpt>
      <trkpt lat="33.487081" lon="-3.545891">
        <ele>838.4</ele>
        <time>2008-03-16T16:57:46Z</time>
      </trkpt>
      <trkpt lat="33.487013" lon="-3.546440">
        <ele>835.0</ele>
        <time>2008-03-16T16:58:00Z</time>
      </trkpt>
      <trkpt lat="33.487284" lon="-3.546857">
        <ele>832.2</ele>
        <time>2008-03-16T16:58:17Z</time>
      </trkpt>
      <trkpt lat="33.487270" lon="-3.547350">
        <ele>835.5</ele>
        <time>2008-03-16T16:58:32Z</time>
      </trkpt>
      <trkpt lat="33.487021" lon="-3.547824">
        <ele>839.8</ele>
        <time>2008-03-16T16:58:43Z</time>
      </trkpt>
      <trkpt lat="33.486792" lon="-3.548357">
        <ele>841.3</ele>
        <time>2008-03-16T16:58:52Z</time>
      </trkpt>
      <trkpt lat="33.486606" lon="-3.548893">
        <ele>841.3</ele>
        <time>2008-03-16T16:58:59Z</time>
      </trkpt>
      <trkpt lat="33.486324" lon="-3.549396">
        <ele>839.4</ele>
        <time>2008-03-16T16:59:06Z</time>
      </trkpt>
      <trkpt lat="33.486063" lon="-3.549849">
        <ele>838.4</ele>
        <time>2008-03-16T16:59:12Z</time>
      </trkpt>
      <trkpt lat="33.485773" lon="-3.550356">
        <ele>837.9</ele>
        <time>2008-03-16T16:59:19Z</time>
      </trkpt>
      <trkpt lat="33.485522" lon="-3.550837">
        <ele>837.0</ele>
        <time>2008-03-16T16:59:26Z</time>
      </trkpt>
      <trkpt lat="33.485234" lon="-3.551319">
        <ele>835.0</ele>
        <time>2008-03-16T16:59:39Z</time>
      </trkpt>
      <trkpt lat="33.484988" lon="-3.551766">
        <ele>833.6</ele>
        <time>2008-03-16T16:59:52Z</time>
      </trkpt>
      <trkpt lat="33.484747" lon="-3.552265">
        <ele>835.5</ele>
        <time>2008-03-16T17:00:04Z</time>
      </trkpt>
      <trkpt lat="33.484516" lon="-3.552828">
        <ele>834.6</ele>
        <time>2008-03-16T17:00:12Z</time>
      </trkpt>
      <trkpt lat="33.484346" lon="-3.553352">
        <ele>834.1</ele>
        <time>2008-03-16T17:00:19Z</time>
      </trkpt>
      <trkpt lat="33.484192" lon="-3.553820">
        <ele>831.2</ele>
        <time>2008-03-16T17:00:30Z</time>
      </trkpt>
      <trkpt lat="33.484044" lon="-3.554368">
        <ele>832.6</ele>
        <time>2008-03-16T17:00:41Z</time>
      </trkpt>
      <trkpt lat="33.483933" lon="-3.554921">
        <ele>834.6</ele>
        <time>2008-03-16T17:00:49Z</time>
      </trkpt>
      <trkpt lat="33.483815" lon="-3.555449">
        <ele>837.0</ele>
        <time>2008-03-16T17:00:56Z</time>
      </trkpt>
      <trkpt lat="33.483274" lon="-3.557248">
        <ele>863.9</ele>
        <time>2008-03-16T17:01:26Z</time>
      </trkpt>
      <trkpt lat="33.483043" lon="-3.557806">
        <ele>839.4</ele>
        <time>2008-03-16T17:01:34Z</time>
      </trkpt>
      <trkpt lat="33.482843" lon="-3.558316">
        <ele>837.0</ele>
        <time>2008-03-16T17:01:41Z</time>
      </trkpt>
      <trkpt lat="33.482626" lon="-3.558832">
        <ele>835.5</ele>
        <time>2008-03-16T17:01:48Z</time>
      </trkpt>
      <trkpt lat="33.482417" lon="-3.559391">
        <ele>834.6</ele>
        <time>2008-03-16T17:01:55Z</time>
      </trkpt>
      <trkpt lat="33.482228" lon="-3.559890">
        <ele>834.6</ele>
        <time>2008-03-16T17:02:01Z</time>
      </trkpt>
      <trkpt lat="33.482030" lon="-3.560414">
        <ele>834.6</ele>
        <time>2008-03-16T17:02:07Z</time>
      </trkpt>
      <trkpt lat="33.481810" lon="-3.560967">
        <ele>835.5</ele>
        <time>2008-03-16T17:02:13Z</time>
      </trkpt>
      <trkpt lat="33.481600" lon="-3.561507">
        <ele>835.0</ele>
        <time>2008-03-16T17:02:19Z</time>
      </trkpt>
      <trkpt lat="33.481379" lon="-3.562041">
        <ele>835.0</ele>
        <time>2008-03-16T17:02:25Z</time>
      </trkpt>
      <trkpt lat="33.481142" lon="-3.562568">
        <ele>834.1</ele>
        <time>2008-03-16T17:02:31Z</time>
      </trkpt>
      <trkpt lat="33.480916" lon="-3.563033">
        <ele>834.1</ele>
        <time>2008-03-16T17:02:38Z</time>
      </trkpt>
      <trkpt lat="33.480696" lon="-3.563516">
        <ele>833.1</ele>
        <time>2008-03-16T17:02:45Z</time>
      </trkpt>
      <trkpt lat="33.480401" lon="-3.564011">
        <ele>833.1</ele>
        <time>2008-03-16T17:02:52Z</time>
      </trkpt>
      <trkpt lat="33.480167" lon="-3.564480">
        <ele>831.7</ele>
        <time>2008-03-16T17:02:58Z</time>
      </trkpt>
      <trkpt lat="33.479887" lon="-3.564992">
        <ele>830.2</ele>
        <time>2008-03-16T17:03:05Z</time>
      </trkpt>
      <trkpt lat="33.479604" lon="-3.565410">
        <ele>829.3</ele>
        <time>2008-03-16T17:03:13Z</time>
      </trkpt>
      <trkpt lat="33.479334" lon="-3.565941">
        <ele>828.3</ele>
        <time>2008-03-16T17:03:21Z</time>
      </trkpt>
      <trkpt lat="33.479060" lon="-3.566450">
        <ele>827.8</ele>
        <time>2008-03-16T17:03:28Z</time>
      </trkpt>
      <trkpt lat="33.478791" lon="-3.566947">
        <ele>827.8</ele>
        <time>2008-03-16T17:03:35Z</time>
      </trkpt>
      <trkpt lat="33.478564" lon="-3.567407">
        <ele>828.8</ele>
        <time>2008-03-16T17:03:43Z</time>
      </trkpt>
      <trkpt lat="33.478226" lon="-3.567816">
        <ele>828.3</ele>
        <time>2008-03-16T17:03:53Z</time>
      </trkpt>
      <trkpt lat="33.477959" lon="-3.568284">
        <ele>829.3</ele>
        <time>2008-03-16T17:04:02Z</time>
      </trkpt>
      <trkpt lat="33.477697" lon="-3.568737">
        <ele>830.2</ele>
        <time>2008-03-16T17:04:09Z</time>
      </trkpt>
      <trkpt lat="33.477428" lon="-3.569178">
        <ele>828.8</ele>
        <time>2008-03-16T17:04:19Z</time>
      </trkpt>
      <trkpt lat="33.476997" lon="-3.569096">
        <ele>825.4</ele>
        <time>2008-03-16T17:04:36Z</time>
      </trkpt>
      <trkpt lat="33.477045" lon="-3.569246">
        <ele>822.1</ele>
        <time>2008-03-16T17:05:23Z</time>
      </trkpt>
      <trkpt lat="33.477187" lon="-3.569587">
        <ele>824.5</ele>
        <time>2008-03-16T17:05:44Z</time>
      </trkpt>
      <trkpt lat="33.476911" lon="-3.570041">
        <ele>826.4</ele>
        <time>2008-03-16T17:05:57Z</time>
      </trkpt>
      <trkpt lat="33.476624" lon="-3.570548">
        <ele>827.8</ele>
        <time>2008-03-16T17:06:06Z</time>
      </trkpt>
      <trkpt lat="33.476361" lon="-3.570988">
        <ele>828.8</ele>
        <time>2008-03-16T17:06:14Z</time>
      </trkpt>
      <trkpt lat="33.476033" lon="-3.571492">
        <ele>834.1</ele>
        <time>2008-03-16T17:06:50Z</time>
      </trkpt>
      <trkpt lat="33.475695" lon="-3.571988">
        <ele>832.6</ele>
        <time>2008-03-16T17:06:57Z</time>
      </trkpt>
      <trkpt lat="33.475394" lon="-3.572446">
        <ele>832.2</ele>
        <time>2008-03-16T17:07:03Z</time>
      </trkpt>
      <trkpt lat="33.475101" lon="-3.572882">
        <ele>831.7</ele>
        <time>2008-03-16T17:07:09Z</time>
      </trkpt>
      <trkpt lat="33.474810" lon="-3.573323">
        <ele>831.2</ele>
        <time>2008-03-16T17:07:15Z</time>
      </trkpt>
      <trkpt lat="33.474454" lon="-3.573801">
        <ele>830.2</ele>
        <time>2008-03-16T17:07:21Z</time>
      </trkpt>
      <trkpt lat="33.474104" lon="-3.574246">
        <ele>829.3</ele>
        <time>2008-03-16T17:07:26Z</time>
      </trkpt>
      <trkpt lat="33.473806" lon="-3.574678">
        <ele>827.8</ele>
        <time>2008-03-16T17:07:31Z</time>
      </trkpt>
      <trkpt lat="33.473430" lon="-3.575026">
        <ele>825.4</ele>
        <time>2008-03-16T17:07:37Z</time>
      </trkpt>
      <trkpt lat="33.473022" lon="-3.575453">
        <ele>824.0</ele>
        <time>2008-03-16T17:07:43Z</time>
      </trkpt>
      <trkpt lat="33.472639" lon="-3.575828">
        <ele>823.0</ele>
        <time>2008-03-16T17:07:48Z</time>
      </trkpt>
      <trkpt lat="33.472281" lon="-3.576136">
        <ele>822.5</ele>
        <time>2008-03-16T17:07:53Z</time>
      </trkpt>
      <trkpt lat="33.471882" lon="-3.576455">
        <ele>822.1</ele>
        <time>2008-03-16T17:08:00Z</time>
      </trkpt>
      <trkpt lat="33.471423" lon="-3.576590">
        <ele>823.0</ele>
        <time>2008-03-16T17:08:10Z</time>
      </trkpt>
      <trkpt lat="33.471018" lon="-3.576833">
        <ele>823.0</ele>
        <time>2008-03-16T17:08:18Z</time>
      </trkpt>
      <trkpt lat="33.470564" lon="-3.576930">
        <ele>823.0</ele>
        <time>2008-03-16T17:08:33Z</time>
      </trkpt>
      <trkpt lat="33.470137" lon="-3.576870">
        <ele>824.9</ele>
        <time>2008-03-16T17:08:43Z</time>
      </trkpt>
      <trkpt lat="33.470004" lon="-3.577414">
        <ele>825.9</ele>
        <time>2008-03-16T17:08:52Z</time>
      </trkpt>
      <trkpt lat="33.469637" lon="-3.577733">
        <ele>826.4</ele>
        <time>2008-03-16T17:09:00Z</time>
      </trkpt>
      <trkpt lat="33.469176" lon="-3.578037">
        <ele>827.4</ele>
        <time>2008-03-16T17:09:09Z</time>
      </trkpt>
      <trkpt lat="33.468721" lon="-3.578342">
        <ele>826.9</ele>
        <time>2008-03-16T17:09:15Z</time>
      </trkpt>
      <trkpt lat="33.468322" lon="-3.578611">
        <ele>826.4</ele>
        <time>2008-03-16T17:09:20Z</time>
      </trkpt>
      <trkpt lat="33.467902" lon="-3.578891">
        <ele>826.9</ele>
        <time>2008-03-16T17:09:25Z</time>
      </trkpt>
      <trkpt lat="33.467494" lon="-3.579177">
        <ele>826.4</ele>
        <time>2008-03-16T17:09:30Z</time>
      </trkpt>
      <trkpt lat="33.467080" lon="-3.579483">
        <ele>826.4</ele>
        <time>2008-03-16T17:09:35Z</time>
      </trkpt>
      <trkpt lat="33.466700" lon="-3.579763">
        <ele>826.4</ele>
        <time>2008-03-16T17:09:40Z</time>
      </trkpt>
      <trkpt lat="33.466322" lon="-3.580152">
        <ele>825.9</ele>
        <time>2008-03-16T17:09:46Z</time>
      </trkpt>
      <trkpt lat="33.465906" lon="-3.580256">
        <ele>824.5</ele>
        <time>2008-03-16T17:09:56Z</time>
      </trkpt>
      <trkpt lat="33.465553" lon="-3.580603">
        <ele>825.4</ele>
        <time>2008-03-16T17:10:14Z</time>
      </trkpt>
      <trkpt lat="33.465158" lon="-3.580925">
        <ele>825.4</ele>
        <time>2008-03-16T17:10:21Z</time>
      </trkpt>
      <trkpt lat="33.464800" lon="-3.581209">
        <ele>825.4</ele>
        <time>2008-03-16T17:10:28Z</time>
      </trkpt>
      <trkpt lat="33.464398" lon="-3.581549">
        <ele>825.9</ele>
        <time>2008-03-16T17:10:37Z</time>
      </trkpt>
      <trkpt lat="33.463996" lon="-3.581867">
        <ele>821.6</ele>
        <time>2008-03-16T17:11:28Z</time>
      </trkpt>
      <trkpt lat="33.463589" lon="-3.582221">
        <ele>823.0</ele>
        <time>2008-03-16T17:11:37Z</time>
      </trkpt>
      <trkpt lat="33.463225" lon="-3.582594">
        <ele>824.5</ele>
        <time>2008-03-16T17:11:44Z</time>
      </trkpt>
      <trkpt lat="33.462852" lon="-3.582967">
        <ele>825.4</ele>
        <time>2008-03-16T17:11:51Z</time>
      </trkpt>
      <trkpt lat="33.462489" lon="-3.583370">
        <ele>825.4</ele>
        <time>2008-03-16T17:11:59Z</time>
      </trkpt>
      <trkpt lat="33.462102" lon="-3.583793">
        <ele>824.9</ele>
        <time>2008-03-16T17:12:06Z</time>
      </trkpt>
      <trkpt lat="33.461673" lon="-3.584112">
        <ele>824.0</ele>
        <time>2008-03-16T17:12:13Z</time>
      </trkpt>
      <trkpt lat="33.461235" lon="-3.584379">
        <ele>824.0</ele>
        <time>2008-03-16T17:12:20Z</time>
      </trkpt>
      <trkpt lat="33.460770" lon="-3.584614">
        <ele>823.5</ele>
        <time>2008-03-16T17:12:27Z</time>
      </trkpt>
      <trkpt lat="33.460341" lon="-3.584836">
        <ele>823.0</ele>
        <time>2008-03-16T17:12:33Z</time>
      </trkpt>
      <trkpt lat="33.459901" lon="-3.585050">
        <ele>823.5</ele>
        <time>2008-03-16T17:12:39Z</time>
      </trkpt>
      <trkpt lat="33.459481" lon="-3.585265">
        <ele>823.0</ele>
        <time>2008-03-16T17:12:45Z</time>
      </trkpt>
      <trkpt lat="33.459013" lon="-3.585483">
        <ele>821.6</ele>
        <time>2008-03-16T17:12:52Z</time>
      </trkpt>
      <trkpt lat="33.458544" lon="-3.585618">
        <ele>820.1</ele>
        <time>2008-03-16T17:13:00Z</time>
      </trkpt>
      <trkpt lat="33.458091" lon="-3.585760">
        <ele>817.7</ele>
        <time>2008-03-16T17:13:08Z</time>
      </trkpt>
      <trkpt lat="33.457789" lon="-3.586137">
        <ele>817.7</ele>
        <time>2008-03-16T17:13:21Z</time>
      </trkpt>
      <trkpt lat="33.457395" lon="-3.586439">
        <ele>816.3</ele>
        <time>2008-03-16T17:13:31Z</time>
      </trkpt>
      <trkpt lat="33.456989" lon="-3.586483">
        <ele>815.3</ele>
        <time>2008-03-16T17:13:42Z</time>
      </trkpt>
      <trkpt lat="33.456576" lon="-3.586330">
        <ele>812.9</ele>
        <time>2008-03-16T17:13:57Z</time>
      </trkpt>
      <trkpt lat="33.456117" lon="-3.586504">
        <ele>817.3</ele>
        <time>2008-03-16T17:14:40Z</time>
      </trkpt>
      <trkpt lat="33.455672" lon="-3.586523">
        <ele>818.2</ele>
        <time>2008-03-16T17:14:49Z</time>
      </trkpt>
      <trkpt lat="33.455258" lon="-3.586269">
        <ele>824.0</ele>
        <time>2008-03-16T17:15:00Z</time>
      </trkpt>
      <trkpt lat="33.454886" lon="-3.585947">
        <ele>828.8</ele>
        <time>2008-03-16T17:15:11Z</time>
      </trkpt>
      <trkpt lat="33.454596" lon="-3.585537">
        <ele>832.6</ele>
        <time>2008-03-16T17:15:22Z</time>
      </trkpt>
      <trkpt lat="33.454323" lon="-3.585081">
        <ele>838.4</ele>
        <time>2008-03-16T17:15:33Z</time>
      </trkpt>
      <trkpt lat="33.453926" lon="-3.584782">
        <ele>841.3</ele>
        <time>2008-03-16T17:15:43Z</time>
      </trkpt>
      <trkpt lat="33.453476" lon="-3.584846">
        <ele>843.2</ele>
        <time>2008-03-16T17:15:51Z</time>
      </trkpt>
      <trkpt lat="33.453041" lon="-3.585183">
        <ele>842.7</ele>
        <time>2008-03-16T17:16:00Z</time>
      </trkpt>
      <trkpt lat="33.452636" lon="-3.585445">
        <ele>841.3</ele>
        <time>2008-03-16T17:16:13Z</time>
      </trkpt>
      <trkpt lat="33.452220" lon="-3.585777">
        <ele>841.8</ele>
        <time>2008-03-16T17:16:21Z</time>
      </trkpt>
      <trkpt lat="33.451822" lon="-3.586047">
        <ele>840.8</ele>
        <time>2008-03-16T17:16:27Z</time>
      </trkpt>
      <trkpt lat="33.451383" lon="-3.586336">
        <ele>839.8</ele>
        <time>2008-03-16T17:16:34Z</time>
      </trkpt>
      <trkpt lat="33.450945" lon="-3.586680">
        <ele>839.4</ele>
        <time>2008-03-16T17:16:41Z</time>
      </trkpt>
      <trkpt lat="33.450536" lon="-3.586974">
        <ele>839.4</ele>
        <time>2008-03-16T17:16:48Z</time>
      </trkpt>
      <trkpt lat="33.450130" lon="-3.587233">
        <ele>839.4</ele>
        <time>2008-03-16T17:16:54Z</time>
      </trkpt>
      <trkpt lat="33.449722" lon="-3.587516">
        <ele>840.3</ele>
        <time>2008-03-16T17:17:00Z</time>
      </trkpt>
      <trkpt lat="33.449331" lon="-3.587828">
        <ele>841.3</ele>
        <time>2008-03-16T17:17:06Z</time>
      </trkpt>
      <trkpt lat="33.448921" lon="-3.588086">
        <ele>842.7</ele>
        <time>2008-03-16T17:17:12Z</time>
      </trkpt>
      <trkpt lat="33.448479" lon="-3.588390">
        <ele>842.3</ele>
        <time>2008-03-16T17:17:18Z</time>
      </trkpt>
      <trkpt lat="33.448030" lon="-3.588594">
        <ele>842.3</ele>
        <time>2008-03-16T17:17:24Z</time>
      </trkpt>
      <trkpt lat="33.447559" lon="-3.588744">
        <ele>843.7</ele>
        <time>2008-03-16T17:17:31Z</time>
      </trkpt>
      <trkpt lat="33.447114" lon="-3.588829">
        <ele>844.2</ele>
        <time>2008-03-16T17:17:38Z</time>
      </trkpt>
      <trkpt lat="33.446644" lon="-3.588914">
        <ele>845.1</ele>
        <time>2008-03-16T17:17:46Z</time>
      </trkpt>
      <trkpt lat="33.446164" lon="-3.588894">
        <ele>845.6</ele>
        <time>2008-03-16T17:17:53Z</time>
      </trkpt>
      <trkpt lat="33.445670" lon="-3.588897">
        <ele>844.7</ele>
        <time>2008-03-16T17:18:00Z</time>
      </trkpt>
      <trkpt lat="33.445149" lon="-3.588843">
        <ele>843.2</ele>
        <time>2008-03-16T17:18:07Z</time>
      </trkpt>
      <trkpt lat="33.444688" lon="-3.588792">
        <ele>841.8</ele>
        <time>2008-03-16T17:18:13Z</time>
      </trkpt>
      <trkpt lat="33.444180" lon="-3.588764">
        <ele>839.8</ele>
        <time>2008-03-16T17:18:20Z</time>
      </trkpt>
      <trkpt lat="33.443670" lon="-3.588722">
        <ele>837.9</ele>
        <time>2008-03-16T17:18:27Z</time>
      </trkpt>
      <trkpt lat="33.443195" lon="-3.588611">
        <ele>837.0</ele>
        <time>2008-03-16T17:18:33Z</time>
      </trkpt>
      <trkpt lat="33.442717" lon="-3.588693">
        <ele>835.0</ele>
        <time>2008-03-16T17:18:39Z</time>
      </trkpt>
      <trkpt lat="33.442268" lon="-3.588802">
        <ele>833.1</ele>
        <time>2008-03-16T17:18:46Z</time>
      </trkpt>
      <trkpt lat="33.441788" lon="-3.588803">
        <ele>833.1</ele>
        <time>2008-03-16T17:18:57Z</time>
      </trkpt>
      <trkpt lat="33.441281" lon="-3.588867">
        <ele>835.5</ele>
        <time>2008-03-16T17:19:04Z</time>
      </trkpt>
      <trkpt lat="33.440817" lon="-3.588960">
        <ele>835.5</ele>
        <time>2008-03-16T17:19:10Z</time>
      </trkpt>
      <trkpt lat="33.440362" lon="-3.589070">
        <ele>835.0</ele>
        <time>2008-03-16T17:19:15Z</time>
      </trkpt>
      <trkpt lat="33.439891" lon="-3.589196">
        <ele>836.5</ele>
        <time>2008-03-16T17:19:20Z</time>
      </trkpt>
      <trkpt lat="33.439387" lon="-3.589330">
        <ele>837.4</ele>
        <time>2008-03-16T17:19:26Z</time>
      </trkpt>
      <trkpt lat="33.438941" lon="-3.589435">
        <ele>836.5</ele>
        <time>2008-03-16T17:19:32Z</time>
      </trkpt>
      <trkpt lat="33.438528" lon="-3.589535">
        <ele>833.6</ele>
        <time>2008-03-16T17:19:45Z</time>
      </trkpt>
      <trkpt lat="33.438022" lon="-3.589651">
        <ele>831.7</ele>
        <time>2008-03-16T17:19:58Z</time>
      </trkpt>
      <trkpt lat="33.437552" lon="-3.589672">
        <ele>830.7</ele>
        <time>2008-03-16T17:20:11Z</time>
      </trkpt>
      <trkpt lat="33.437070" lon="-3.589815">
        <ele>832.2</ele>
        <time>2008-03-16T17:20:21Z</time>
      </trkpt>
      <trkpt lat="33.436553" lon="-3.589829">
        <ele>833.1</ele>
        <time>2008-03-16T17:20:29Z</time>
      </trkpt>
      <trkpt lat="33.436025" lon="-3.589823">
        <ele>833.1</ele>
        <time>2008-03-16T17:20:36Z</time>
      </trkpt>
      <trkpt lat="33.435560" lon="-3.589828">
        <ele>833.6</ele>
        <time>2008-03-16T17:20:42Z</time>
      </trkpt>
      <trkpt lat="33.435032" lon="-3.589862">
        <ele>833.6</ele>
        <time>2008-03-16T17:20:48Z</time>
      </trkpt>
      <trkpt lat="33.434495" lon="-3.589880">
        <ele>833.6</ele>
        <time>2008-03-16T17:20:54Z</time>
      </trkpt>
      <trkpt lat="33.433940" lon="-3.589866">
        <ele>833.1</ele>
        <time>2008-03-16T17:21:00Z</time>
      </trkpt>
      <trkpt lat="33.433450" lon="-3.589868">
        <ele>833.6</ele>
        <time>2008-03-16T17:21:05Z</time>
      </trkpt>
      <trkpt lat="33.432972" lon="-3.589848">
        <ele>833.6</ele>
        <time>2008-03-16T17:21:10Z</time>
      </trkpt>
      <trkpt lat="33.432518" lon="-3.589843">
        <ele>833.6</ele>
        <time>2008-03-16T17:21:15Z</time>
      </trkpt>
      <trkpt lat="33.432088" lon="-3.589836">
        <ele>833.6</ele>
        <time>2008-03-16T17:21:27Z</time>
      </trkpt>
      <trkpt lat="33.431553" lon="-3.589862">
        <ele>834.6</ele>
        <time>2008-03-16T17:21:38Z</time>
      </trkpt>
      <trkpt lat="33.431090" lon="-3.589842">
        <ele>834.6</ele>
        <time>2008-03-16T17:21:44Z</time>
      </trkpt>
      <trkpt lat="33.430594" lon="-3.589868">
        <ele>834.1</ele>
        <time>2008-03-16T17:21:50Z</time>
      </trkpt>
      <trkpt lat="33.430130" lon="-3.589865">
        <ele>834.6</ele>
        <time>2008-03-16T17:21:55Z</time>
      </trkpt>
      <trkpt lat="33.429659" lon="-3.589875">
        <ele>835.0</ele>
        <time>2008-03-16T17:22:00Z</time>
      </trkpt>
      <trkpt lat="33.429198" lon="-3.589859">
        <ele>835.5</ele>
        <time>2008-03-16T17:22:05Z</time>
      </trkpt>
      <trkpt lat="33.428679" lon="-3.589819">
        <ele>836.0</ele>
        <time>2008-03-16T17:22:11Z</time>
      </trkpt>
      <trkpt lat="33.428185" lon="-3.589758">
        <ele>837.0</ele>
        <time>2008-03-16T17:22:17Z</time>
      </trkpt>
      <trkpt lat="33.427665" lon="-3.589735">
        <ele>838.9</ele>
        <time>2008-03-16T17:22:23Z</time>
      </trkpt>
      <trkpt lat="33.427135" lon="-3.589656">
        <ele>840.8</ele>
        <time>2008-03-16T17:22:29Z</time>
      </trkpt>
      <trkpt lat="33.426689" lon="-3.589560">
        <ele>841.8</ele>
        <time>2008-03-16T17:22:34Z</time>
      </trkpt>
      <trkpt lat="33.426239" lon="-3.589474">
        <ele>842.7</ele>
        <time>2008-03-16T17:22:39Z</time>
      </trkpt>
      <trkpt lat="33.425770" lon="-3.589573">
        <ele>843.2</ele>
        <time>2008-03-16T17:22:44Z</time>
      </trkpt>
      <trkpt lat="33.425316" lon="-3.589724">
        <ele>842.7</ele>
        <time>2008-03-16T17:22:49Z</time>
      </trkpt>
      <trkpt lat="33.424863" lon="-3.589824">
        <ele>842.3</ele>
        <time>2008-03-16T17:22:55Z</time>
      </trkpt>
      <trkpt lat="33.424384" lon="-3.589959">
        <ele>842.3</ele>
        <time>2008-03-16T17:23:00Z</time>
      </trkpt>
      <trkpt lat="33.423894" lon="-3.590097">
        <ele>842.7</ele>
        <time>2008-03-16T17:23:05Z</time>
      </trkpt>
      <trkpt lat="33.423523" lon="-3.590465">
        <ele>842.7</ele>
        <time>2008-03-16T17:23:11Z</time>
      </trkpt>
      <trkpt lat="33.423061" lon="-3.590508">
        <ele>841.8</ele>
        <time>2008-03-16T17:23:19Z</time>
      </trkpt>
      <trkpt lat="33.422618" lon="-3.590408">
        <ele>842.7</ele>
        <time>2008-03-16T17:23:28Z</time>
      </trkpt>
      <trkpt lat="33.422179" lon="-3.590668">
        <ele>844.7</ele>
        <time>2008-03-16T17:23:37Z</time>
      </trkpt>
      <trkpt lat="33.421706" lon="-3.590702">
        <ele>845.6</ele>
        <time>2008-03-16T17:23:46Z</time>
      </trkpt>
      <trkpt lat="33.421231" lon="-3.590501">
        <ele>846.6</ele>
        <time>2008-03-16T17:24:12Z</time>
      </trkpt>
      <trkpt lat="33.420761" lon="-3.590302">
        <ele>847.1</ele>
        <time>2008-03-16T17:24:19Z</time>
      </trkpt>
      <trkpt lat="33.420262" lon="-3.590120">
        <ele>848.5</ele>
        <time>2008-03-16T17:24:25Z</time>
      </trkpt>
      <trkpt lat="33.419762" lon="-3.590034">
        <ele>849.9</ele>
        <time>2008-03-16T17:24:30Z</time>
      </trkpt>
      <trkpt lat="33.419248" lon="-3.589943">
        <ele>850.9</ele>
        <time>2008-03-16T17:24:35Z</time>
      </trkpt>
      <trkpt lat="33.418792" lon="-3.589838">
        <ele>851.4</ele>
        <time>2008-03-16T17:24:40Z</time>
      </trkpt>
      <trkpt lat="33.418350" lon="-3.589766">
        <ele>851.4</ele>
        <time>2008-03-16T17:24:50Z</time>
      </trkpt>
      <trkpt lat="33.417886" lon="-3.589677">
        <ele>851.9</ele>
        <time>2008-03-16T17:24:57Z</time>
      </trkpt>
      <trkpt lat="33.417437" lon="-3.589601">
        <ele>853.3</ele>
        <time>2008-03-16T17:25:03Z</time>
      </trkpt>
      <trkpt lat="33.416966" lon="-3.589489">
        <ele>854.7</ele>
        <time>2008-03-16T17:25:09Z</time>
      </trkpt>
      <trkpt lat="33.416475" lon="-3.589327">
        <ele>855.2</ele>
        <time>2008-03-16T17:25:15Z</time>
      </trkpt>
      <trkpt lat="33.415987" lon="-3.589170">
        <ele>856.7</ele>
        <time>2008-03-16T17:25:21Z</time>
      </trkpt>
      <trkpt lat="33.415502" lon="-3.589009">
        <ele>857.2</ele>
        <time>2008-03-16T17:25:27Z</time>
      </trkpt>
      <trkpt lat="33.415063" lon="-3.588825">
        <ele>857.6</ele>
        <time>2008-03-16T17:25:33Z</time>
      </trkpt>
      <trkpt lat="33.414585" lon="-3.588706">
        <ele>858.1</ele>
        <time>2008-03-16T17:25:41Z</time>
      </trkpt>
      <trkpt lat="33.414128" lon="-3.588495">
        <ele>856.7</ele>
        <time>2008-03-16T17:25:49Z</time>
      </trkpt>
      <trkpt lat="33.413849" lon="-3.588016">
        <ele>854.7</ele>
        <time>2008-03-16T17:25:56Z</time>
      </trkpt>
      <trkpt lat="33.413570" lon="-3.587529">
        <ele>855.2</ele>
        <time>2008-03-16T17:26:04Z</time>
      </trkpt>
      <trkpt lat="33.413300" lon="-3.587151">
        <ele>857.6</ele>
        <time>2008-03-16T17:26:15Z</time>
      </trkpt>
      <trkpt lat="33.412937" lon="-3.586780">
        <ele>862.0</ele>
        <time>2008-03-16T17:26:28Z</time>
      </trkpt>
      <trkpt lat="33.412587" lon="-3.586395">
        <ele>864.8</ele>
        <time>2008-03-16T17:26:42Z</time>
      </trkpt>
      <trkpt lat="33.412242" lon="-3.586027">
        <ele>866.3</ele>
        <time>2008-03-16T17:26:52Z</time>
      </trkpt>
      <trkpt lat="33.411884" lon="-3.585658">
        <ele>867.7</ele>
        <time>2008-03-16T17:27:00Z</time>
      </trkpt>
      <trkpt lat="33.411514" lon="-3.585332">
        <ele>870.6</ele>
        <time>2008-03-16T17:27:08Z</time>
      </trkpt>
      <trkpt lat="33.411175" lon="-3.584919">
        <ele>871.6</ele>
        <time>2008-03-16T17:27:16Z</time>
      </trkpt>
      <trkpt lat="33.410850" lon="-3.584474">
        <ele>870.1</ele>
        <time>2008-03-16T17:27:25Z</time>
      </trkpt>
      <trkpt lat="33.410540" lon="-3.584072">
        <ele>870.6</ele>
        <time>2008-03-16T17:27:33Z</time>
      </trkpt>
      <trkpt lat="33.410233" lon="-3.583637">
        <ele>871.6</ele>
        <time>2008-03-16T17:27:41Z</time>
      </trkpt>
      <trkpt lat="33.409946" lon="-3.583218">
        <ele>870.6</ele>
        <time>2008-03-16T17:27:49Z</time>
      </trkpt>
      <trkpt lat="33.409638" lon="-3.582756">
        <ele>873.5</ele>
        <time>2008-03-16T17:27:58Z</time>
      </trkpt>
      <trkpt lat="33.409332" lon="-3.582317">
        <ele>875.4</ele>
        <time>2008-03-16T17:28:07Z</time>
      </trkpt>
      <trkpt lat="33.408965" lon="-3.582006">
        <ele>876.9</ele>
        <time>2008-03-16T17:28:21Z</time>
      </trkpt>
      <trkpt lat="33.408499" lon="-3.581932">
        <ele>874.0</ele>
        <time>2008-03-16T17:28:35Z</time>
      </trkpt>
      <trkpt lat="33.408043" lon="-3.581934">
        <ele>874.5</ele>
        <time>2008-03-16T17:28:50Z</time>
      </trkpt>
      <trkpt lat="33.407572" lon="-3.581979">
        <ele>877.8</ele>
        <time>2008-03-16T17:29:02Z</time>
      </trkpt>
      <trkpt lat="33.407089" lon="-3.581994">
        <ele>877.3</ele>
        <time>2008-03-16T17:29:17Z</time>
      </trkpt>
      <trkpt lat="33.406619" lon="-3.581925">
        <ele>877.8</ele>
        <time>2008-03-16T17:29:31Z</time>
      </trkpt>
      <trkpt lat="33.406133" lon="-3.581949">
        <ele>882.1</ele>
        <time>2008-03-16T17:29:42Z</time>
      </trkpt>
      <trkpt lat="33.405679" lon="-3.581919">
        <ele>879.7</ele>
        <time>2008-03-16T17:29:53Z</time>
      </trkpt>
      <trkpt lat="33.405213" lon="-3.581756">
        <ele>877.3</ele>
        <time>2008-03-16T17:30:03Z</time>
      </trkpt>
      <trkpt lat="33.404778" lon="-3.581805">
        <ele>878.3</ele>
        <time>2008-03-16T17:30:14Z</time>
      </trkpt>
      <trkpt lat="33.404437" lon="-3.582169">
        <ele>880.2</ele>
        <time>2008-03-16T17:30:32Z</time>
      </trkpt>
      <trkpt lat="33.404141" lon="-3.582591">
        <ele>882.1</ele>
        <time>2008-03-16T17:30:47Z</time>
      </trkpt>
      <trkpt lat="33.403840" lon="-3.582989">
        <ele>883.1</ele>
        <time>2008-03-16T17:31:07Z</time>
      </trkpt>
      <trkpt lat="33.403415" lon="-3.583215">
        <ele>886.5</ele>
        <time>2008-03-16T17:31:33Z</time>
      </trkpt>
      <trkpt lat="33.402952" lon="-3.583253">
        <ele>885.5</ele>
        <time>2008-03-16T17:31:52Z</time>
      </trkpt>
      <trkpt lat="33.402464" lon="-3.583329">
        <ele>883.1</ele>
        <time>2008-03-16T17:32:05Z</time>
      </trkpt>
      <trkpt lat="33.402001" lon="-3.583373">
        <ele>882.6</ele>
        <time>2008-03-16T17:32:17Z</time>
      </trkpt>
      <trkpt lat="33.401522" lon="-3.583412">
        <ele>884.6</ele>
        <time>2008-03-16T17:32:28Z</time>
      </trkpt>
      <trkpt lat="33.401096" lon="-3.583318">
        <ele>883.6</ele>
        <time>2008-03-16T17:32:44Z</time>
      </trkpt>
      <trkpt lat="33.400650" lon="-3.583208">
        <ele>882.6</ele>
        <time>2008-03-16T17:33:03Z</time>
      </trkpt>
      <trkpt lat="33.400208" lon="-3.583094">
        <ele>882.1</ele>
        <time>2008-03-16T17:33:18Z</time>
      </trkpt>
      <trkpt lat="33.399758" lon="-3.582975">
        <ele>881.2</ele>
        <time>2008-03-16T17:33:32Z</time>
      </trkpt>
      <trkpt lat="33.399321" lon="-3.582781">
        <ele>882.6</ele>
        <time>2008-03-16T17:33:44Z</time>
      </trkpt>
      <trkpt lat="33.398881" lon="-3.582526">
        <ele>883.1</ele>
        <time>2008-03-16T17:33:55Z</time>
      </trkpt>
      <trkpt lat="33.398483" lon="-3.582751">
        <ele>886.0</ele>
        <time>2008-03-16T17:34:06Z</time>
      </trkpt>
      <trkpt lat="33.398184" lon="-3.583209">
        <ele>886.0</ele>
        <time>2008-03-16T17:34:19Z</time>
      </trkpt>
      <trkpt lat="33.397812" lon="-3.583570">
        <ele>886.5</ele>
        <time>2008-03-16T17:34:33Z</time>
      </trkpt>
      <trkpt lat="33.397362" lon="-3.583786">
        <ele>885.5</ele>
        <time>2008-03-16T17:34:45Z</time>
      </trkpt>
      <trkpt lat="33.396926" lon="-3.583892">
        <ele>884.1</ele>
        <time>2008-03-16T17:35:03Z</time>
      </trkpt>
      <trkpt lat="33.396477" lon="-3.583981">
        <ele>885.5</ele>
        <time>2008-03-16T17:35:22Z</time>
      </trkpt>
      <trkpt lat="33.396102" lon="-3.584347">
        <ele>885.5</ele>
        <time>2008-03-16T17:35:36Z</time>
      </trkpt>
      <trkpt lat="33.395701" lon="-3.584685">
        <ele>885.5</ele>
        <time>2008-03-16T17:35:47Z</time>
      </trkpt>
      <trkpt lat="33.395314" lon="-3.584982">
        <ele>884.1</ele>
        <time>2008-03-16T17:36:00Z</time>
      </trkpt>
      <trkpt lat="33.394904" lon="-3.585270">
        <ele>882.6</ele>
        <time>2008-03-16T17:36:11Z</time>
      </trkpt>
      <trkpt lat="33.394490" lon="-3.585524">
        <ele>882.1</ele>
        <time>2008-03-16T17:36:19Z</time>
      </trkpt>
      <trkpt lat="33.394085" lon="-3.585835">
        <ele>882.6</ele>
        <time>2008-03-16T17:36:26Z</time>
      </trkpt>
      <trkpt lat="33.393688" lon="-3.586173">
        <ele>885.5</ele>
        <time>2008-03-16T17:36:34Z</time>
      </trkpt>
      <trkpt lat="33.393496" lon="-3.586685">
        <ele>885.5</ele>
        <time>2008-03-16T17:36:41Z</time>
      </trkpt>
      <trkpt lat="33.393489" lon="-3.587334">
        <ele>884.6</ele>
        <time>2008-03-16T17:36:47Z</time>
      </trkpt>
      <trkpt lat="33.393506" lon="-3.587909">
        <ele>883.6</ele>
        <time>2008-03-16T17:36:52Z</time>
      </trkpt>
      <trkpt lat="33.393522" lon="-3.588512">
        <ele>883.1</ele>
        <time>2008-03-16T17:36:57Z</time>
      </trkpt>
      <trkpt lat="33.393534" lon="-3.589098">
        <ele>882.1</ele>
        <time>2008-03-16T17:37:02Z</time>
      </trkpt>
      <trkpt lat="33.393544" lon="-3.589648">
        <ele>880.7</ele>
        <time>2008-03-16T17:37:12Z</time>
      </trkpt>
      <trkpt lat="33.393571" lon="-3.590261">
        <ele>879.7</ele>
        <time>2008-03-16T17:37:19Z</time>
      </trkpt>
      <trkpt lat="33.393578" lon="-3.590887">
        <ele>879.3</ele>
        <time>2008-03-16T17:37:26Z</time>
      </trkpt>
      <trkpt lat="33.393574" lon="-3.591523">
        <ele>879.7</ele>
        <time>2008-03-16T17:37:32Z</time>
      </trkpt>
      <trkpt lat="33.393565" lon="-3.592128">
        <ele>879.3</ele>
        <time>2008-03-16T17:37:37Z</time>
      </trkpt>
      <trkpt lat="33.393468" lon="-3.592705">
        <ele>878.8</ele>
        <time>2008-03-16T17:37:42Z</time>
      </trkpt>
      <trkpt lat="33.393274" lon="-3.593321">
        <ele>878.3</ele>
        <time>2008-03-16T17:37:47Z</time>
      </trkpt>
      <trkpt lat="33.393083" lon="-3.593846">
        <ele>877.8</ele>
        <time>2008-03-16T17:37:51Z</time>
      </trkpt>
      <trkpt lat="33.392885" lon="-3.594380">
        <ele>877.3</ele>
        <time>2008-03-16T17:37:55Z</time>
      </trkpt>
      <trkpt lat="33.392684" lon="-3.594910">
        <ele>877.8</ele>
        <time>2008-03-16T17:37:59Z</time>
      </trkpt>
      <trkpt lat="33.392480" lon="-3.595424">
        <ele>877.8</ele>
        <time>2008-03-16T17:38:03Z</time>
      </trkpt>
      <trkpt lat="33.392286" lon="-3.595950">
        <ele>878.3</ele>
        <time>2008-03-16T17:38:07Z</time>
      </trkpt>
      <trkpt lat="33.392088" lon="-3.596483">
        <ele>878.3</ele>
        <time>2008-03-16T17:38:11Z</time>
      </trkpt>
      <trkpt lat="33.391881" lon="-3.597032">
        <ele>878.3</ele>
        <time>2008-03-16T17:38:15Z</time>
      </trkpt>
      <trkpt lat="33.391674" lon="-3.597593">
        <ele>877.8</ele>
        <time>2008-03-16T17:38:19Z</time>
      </trkpt>
      <trkpt lat="33.391464" lon="-3.598146">
        <ele>877.8</ele>
        <time>2008-03-16T17:38:23Z</time>
      </trkpt>
      <trkpt lat="33.391262" lon="-3.598710">
        <ele>878.3</ele>
        <time>2008-03-16T17:38:27Z</time>
      </trkpt>
      <trkpt lat="33.391052" lon="-3.599280">
        <ele>877.8</ele>
        <time>2008-03-16T17:38:31Z</time>
      </trkpt>
      <trkpt lat="33.390837" lon="-3.599863">
        <ele>877.8</ele>
        <time>2008-03-16T17:38:35Z</time>
      </trkpt>
      <trkpt lat="33.390621" lon="-3.600456">
        <ele>877.8</ele>
        <time>2008-03-16T17:38:39Z</time>
      </trkpt>
      <trkpt lat="33.390403" lon="-3.601045">
        <ele>876.9</ele>
        <time>2008-03-16T17:38:43Z</time>
      </trkpt>
      <trkpt lat="33.390185" lon="-3.601630">
        <ele>876.9</ele>
        <time>2008-03-16T17:38:47Z</time>
      </trkpt>
      <trkpt lat="33.389977" lon="-3.602192">
        <ele>876.4</ele>
        <time>2008-03-16T17:38:51Z</time>
      </trkpt>
      <trkpt lat="33.389787" lon="-3.602700">
        <ele>876.4</ele>
        <time>2008-03-16T17:38:55Z</time>
      </trkpt>
      <trkpt lat="33.389584" lon="-3.603245">
        <ele>875.9</ele>
        <time>2008-03-16T17:39:01Z</time>
      </trkpt>
      <trkpt lat="33.389402" lon="-3.603778">
        <ele>875.4</ele>
        <time>2008-03-16T17:39:08Z</time>
      </trkpt>
      <trkpt lat="33.389117" lon="-3.604245">
        <ele>874.5</ele>
        <time>2008-03-16T17:39:16Z</time>
      </trkpt>
      <trkpt lat="33.388912" lon="-3.604770">
        <ele>873.5</ele>
        <time>2008-03-16T17:39:22Z</time>
      </trkpt>
      <trkpt lat="33.388671" lon="-3.605295">
        <ele>872.5</ele>
        <time>2008-03-16T17:39:28Z</time>
      </trkpt>
      <trkpt lat="33.388440" lon="-3.605831">
        <ele>871.6</ele>
        <time>2008-03-16T17:39:34Z</time>
      </trkpt>
      <trkpt lat="33.388207" lon="-3.606311">
        <ele>871.1</ele>
        <time>2008-03-16T17:39:40Z</time>
      </trkpt>
      <trkpt lat="33.387955" lon="-3.606820">
        <ele>869.6</ele>
        <time>2008-03-16T17:39:46Z</time>
      </trkpt>
      <trkpt lat="33.387744" lon="-3.607383">
        <ele>867.7</ele>
        <time>2008-03-16T17:39:52Z</time>
      </trkpt>
      <trkpt lat="33.387521" lon="-3.607937">
        <ele>865.8</ele>
        <time>2008-03-16T17:39:59Z</time>
      </trkpt>
      <trkpt lat="33.387289" lon="-3.608438">
        <ele>863.4</ele>
        <time>2008-03-16T17:40:06Z</time>
      </trkpt>
      <trkpt lat="33.387059" lon="-3.608899">
        <ele>861.0</ele>
        <time>2008-03-16T17:40:13Z</time>
      </trkpt>
      <trkpt lat="33.386695" lon="-3.609280">
        <ele>858.1</ele>
        <time>2008-03-16T17:40:23Z</time>
      </trkpt>
      <trkpt lat="33.386343" lon="-3.609638">
        <ele>858.1</ele>
        <time>2008-03-16T17:40:31Z</time>
      </trkpt>
      <trkpt lat="33.385943" lon="-3.610045">
        <ele>860.0</ele>
        <time>2008-03-16T17:40:39Z</time>
      </trkpt>
      <trkpt lat="33.385744" lon="-3.610552">
        <ele>863.4</ele>
        <time>2008-03-16T17:40:46Z</time>
      </trkpt>
      <trkpt lat="33.385486" lon="-3.611066">
        <ele>862.9</ele>
        <time>2008-03-16T17:40:53Z</time>
      </trkpt>
      <trkpt lat="33.385182" lon="-3.611518">
        <ele>862.0</ele>
        <time>2008-03-16T17:41:00Z</time>
      </trkpt>
      <trkpt lat="33.384856" lon="-3.611922">
        <ele>857.6</ele>
        <time>2008-03-16T17:41:09Z</time>
      </trkpt>
      <trkpt lat="33.384526" lon="-3.612312">
        <ele>853.8</ele>
        <time>2008-03-16T17:41:21Z</time>
      </trkpt>
      <trkpt lat="33.384477" lon="-3.612887">
        <ele>854.3</ele>
        <time>2008-03-16T17:41:32Z</time>
      </trkpt>
      <trkpt lat="33.384357" lon="-3.613466">
        <ele>854.7</ele>
        <time>2008-03-16T17:41:40Z</time>
      </trkpt>
      <trkpt lat="33.384170" lon="-3.613974">
        <ele>857.6</ele>
        <time>2008-03-16T17:41:47Z</time>
      </trkpt>
      <trkpt lat="33.383879" lon="-3.614398">
        <ele>859.6</ele>
        <time>2008-03-16T17:41:55Z</time>
      </trkpt>
      <trkpt lat="33.383520" lon="-3.614804">
        <ele>859.6</ele>
        <time>2008-03-16T17:42:03Z</time>
      </trkpt>
      <trkpt lat="33.383139" lon="-3.615161">
        <ele>860.0</ele>
        <time>2008-03-16T17:42:10Z</time>
      </trkpt>
      <trkpt lat="33.382839" lon="-3.615604">
        <ele>859.6</ele>
        <time>2008-03-16T17:42:17Z</time>
      </trkpt>
      <trkpt lat="33.382520" lon="-3.616084">
        <ele>861.5</ele>
        <time>2008-03-16T17:42:24Z</time>
      </trkpt>
      <trkpt lat="33.382337" lon="-3.616617">
        <ele>861.0</ele>
        <time>2008-03-16T17:42:32Z</time>
      </trkpt>
      <trkpt lat="33.382407" lon="-3.617121">
        <ele>858.1</ele>
        <time>2008-03-16T17:42:41Z</time>
      </trkpt>
      <trkpt lat="33.382586" lon="-3.617612">
        <ele>855.7</ele>
        <time>2008-03-16T17:42:48Z</time>
      </trkpt>
      <trkpt lat="33.382484" lon="-3.618154">
        <ele>853.3</ele>
        <time>2008-03-16T17:42:57Z</time>
      </trkpt>
      <trkpt lat="33.382235" lon="-3.618694">
        <ele>850.4</ele>
        <time>2008-03-16T17:43:04Z</time>
      </trkpt>
      <trkpt lat="33.381943" lon="-3.619138">
        <ele>849.5</ele>
        <time>2008-03-16T17:43:10Z</time>
      </trkpt>
      <trkpt lat="33.381731" lon="-3.619667">
        <ele>848.0</ele>
        <time>2008-03-16T17:43:16Z</time>
      </trkpt>
      <trkpt lat="33.381510" lon="-3.620222">
        <ele>847.1</ele>
        <time>2008-03-16T17:43:22Z</time>
      </trkpt>
      <trkpt lat="33.381295" lon="-3.620740">
        <ele>846.1</ele>
        <time>2008-03-16T17:43:27Z</time>
      </trkpt>
      <trkpt lat="33.381097" lon="-3.621310">
        <ele>845.1</ele>
        <time>2008-03-16T17:43:32Z</time>
      </trkpt>
      <trkpt lat="33.380916" lon="-3.621849">
        <ele>843.7</ele>
        <time>2008-03-16T17:43:37Z</time>
      </trkpt>
      <trkpt lat="33.380689" lon="-3.622395">
        <ele>842.3</ele>
        <time>2008-03-16T17:43:43Z</time>
      </trkpt>
      <trkpt lat="33.380419" lon="-3.622908">
        <ele>841.8</ele>
        <time>2008-03-16T17:43:49Z</time>
      </trkpt>
      <trkpt lat="33.380237" lon="-3.623399">
        <ele>841.8</ele>
        <time>2008-03-16T17:43:54Z</time>
      </trkpt>
      <trkpt lat="33.379995" lon="-3.623908">
        <ele>841.8</ele>
        <time>2008-03-16T17:44:00Z</time>
      </trkpt>
      <trkpt lat="33.379770" lon="-3.624438">
        <ele>843.7</ele>
        <time>2008-03-16T17:44:07Z</time>
      </trkpt>
      <trkpt lat="33.379625" lon="-3.624966">
        <ele>846.1</ele>
        <time>2008-03-16T17:44:14Z</time>
      </trkpt>
      <trkpt lat="33.379426" lon="-3.625516">
        <ele>845.6</ele>
        <time>2008-03-16T17:44:22Z</time>
      </trkpt>
      <trkpt lat="33.379204" lon="-3.626004">
        <ele>842.7</ele>
        <time>2008-03-16T17:44:28Z</time>
      </trkpt>
      <trkpt lat="33.379065" lon="-3.626536">
        <ele>840.8</ele>
        <time>2008-03-16T17:44:33Z</time>
      </trkpt>
      <trkpt lat="33.378876" lon="-3.627104">
        <ele>838.4</ele>
        <time>2008-03-16T17:44:39Z</time>
      </trkpt>
      <trkpt lat="33.378680" lon="-3.627678">
        <ele>838.4</ele>
        <time>2008-03-16T17:44:45Z</time>
      </trkpt>
      <trkpt lat="33.378490" lon="-3.628223">
        <ele>839.4</ele>
        <time>2008-03-16T17:44:51Z</time>
      </trkpt>
      <trkpt lat="33.378306" lon="-3.628774">
        <ele>839.8</ele>
        <time>2008-03-16T17:44:57Z</time>
      </trkpt>
      <trkpt lat="33.378070" lon="-3.629350">
        <ele>838.4</ele>
        <time>2008-03-16T17:45:03Z</time>
      </trkpt>
      <trkpt lat="33.377867" lon="-3.629837">
        <ele>837.0</ele>
        <time>2008-03-16T17:45:08Z</time>
      </trkpt>
      <trkpt lat="33.377677" lon="-3.630404">
        <ele>836.0</ele>
        <time>2008-03-16T17:45:14Z</time>
      </trkpt>
      <trkpt lat="33.377587" lon="-3.630924">
        <ele>834.6</ele>
        <time>2008-03-16T17:45:21Z</time>
      </trkpt>
      <trkpt lat="33.377581" lon="-3.631488">
        <ele>834.6</ele>
        <time>2008-03-16T17:45:29Z</time>
      </trkpt>
      <trkpt lat="33.377361" lon="-3.631971">
        <ele>832.6</ele>
        <time>2008-03-16T17:45:36Z</time>
      </trkpt>
      <trkpt lat="33.377131" lon="-3.632528">
        <ele>830.7</ele>
        <time>2008-03-16T17:45:44Z</time>
      </trkpt>
      <trkpt lat="33.376928" lon="-3.633060">
        <ele>829.8</ele>
        <time>2008-03-16T17:45:51Z</time>
      </trkpt>
      <trkpt lat="33.376852" lon="-3.633619">
        <ele>828.8</ele>
        <time>2008-03-16T17:45:59Z</time>
      </trkpt>
      <trkpt lat="33.376873" lon="-3.634221">
        <ele>827.8</ele>
        <time>2008-03-16T17:46:07Z</time>
      </trkpt>
      <trkpt lat="33.376672" lon="-3.634797">
        <ele>826.4</ele>
        <time>2008-03-16T17:46:14Z</time>
      </trkpt>
      <trkpt lat="33.376481" lon="-3.635321">
        <ele>825.4</ele>
        <time>2008-03-16T17:46:20Z</time>
      </trkpt>
      <trkpt lat="33.376249" lon="-3.635846">
        <ele>824.5</ele>
        <time>2008-03-16T17:46:26Z</time>
      </trkpt>
      <trkpt lat="33.376167" lon="-3.636398">
        <ele>823.0</ele>
        <time>2008-03-16T17:46:32Z</time>
      </trkpt>
      <trkpt lat="33.375967" lon="-3.636950">
        <ele>822.1</ele>
        <time>2008-03-16T17:46:39Z</time>
      </trkpt>
      <trkpt lat="33.375671" lon="-3.637467">
        <ele>821.6</ele>
        <time>2008-03-16T17:46:46Z</time>
      </trkpt>
      <trkpt lat="33.375463" lon="-3.637966">
        <ele>821.1</ele>
        <time>2008-03-16T17:46:52Z</time>
      </trkpt>
      <trkpt lat="33.375150" lon="-3.638376">
        <ele>821.1</ele>
        <time>2008-03-16T17:46:58Z</time>
      </trkpt>
      <trkpt lat="33.374931" lon="-3.638907">
        <ele>820.6</ele>
        <time>2008-03-16T17:47:05Z</time>
      </trkpt>
      <trkpt lat="33.374719" lon="-3.639372">
        <ele>819.2</ele>
        <time>2008-03-16T17:47:13Z</time>
      </trkpt>
      <trkpt lat="33.374421" lon="-3.639780">
        <ele>817.7</ele>
        <time>2008-03-16T17:47:23Z</time>
      </trkpt>
      <trkpt lat="33.374312" lon="-3.640293">
        <ele>817.3</ele>
        <time>2008-03-16T17:47:30Z</time>
      </trkpt>
      <trkpt lat="33.374253" lon="-3.640833">
        <ele>816.3</ele>
        <time>2008-03-16T17:47:37Z</time>
      </trkpt>
      <trkpt lat="33.374062" lon="-3.641412">
        <ele>814.4</ele>
        <time>2008-03-16T17:47:44Z</time>
      </trkpt>
      <trkpt lat="33.373929" lon="-3.641954">
        <ele>812.5</ele>
        <time>2008-03-16T17:47:50Z</time>
      </trkpt>
      <trkpt lat="33.373800" lon="-3.642546">
        <ele>812.0</ele>
        <time>2008-03-16T17:47:57Z</time>
      </trkpt>
      <trkpt lat="33.373865" lon="-3.643092">
        <ele>811.0</ele>
        <time>2008-03-16T17:48:03Z</time>
      </trkpt>
      <trkpt lat="33.373920" lon="-3.643671">
        <ele>811.0</ele>
        <time>2008-03-16T17:48:09Z</time>
      </trkpt>
      <trkpt lat="33.374008" lon="-3.644225">
        <ele>810.0</ele>
        <time>2008-03-16T17:48:15Z</time>
      </trkpt>
      <trkpt lat="33.374149" lon="-3.644790">
        <ele>807.6</ele>
        <time>2008-03-16T17:48:21Z</time>
      </trkpt>
      <trkpt lat="33.374362" lon="-3.645377">
        <ele>805.7</ele>
        <time>2008-03-16T17:48:27Z</time>
      </trkpt>
      <trkpt lat="33.374574" lon="-3.645945">
        <ele>804.3</ele>
        <time>2008-03-16T17:48:33Z</time>
      </trkpt>
      <trkpt lat="33.374917" lon="-3.646437">
        <ele>802.4</ele>
        <time>2008-03-16T17:48:39Z</time>
      </trkpt>
      <trkpt lat="33.375113" lon="-3.646958">
        <ele>801.4</ele>
        <time>2008-03-16T17:48:44Z</time>
      </trkpt>
      <trkpt lat="33.375330" lon="-3.647480">
        <ele>800.9</ele>
        <time>2008-03-16T17:48:49Z</time>
      </trkpt>
      <trkpt lat="33.375416" lon="-3.647956">
        <ele>799.5</ele>
        <time>2008-03-16T17:48:55Z</time>
      </trkpt>
      <trkpt lat="33.374918" lon="-3.648092">
        <ele>798.0</ele>
        <time>2008-03-16T17:49:24Z</time>
      </trkpt>
      <trkpt lat="33.374399" lon="-3.648173">
        <ele>798.0</ele>
        <time>2008-03-16T17:49:29Z</time>
      </trkpt>
      <trkpt lat="33.373932" lon="-3.648404">
        <ele>798.5</ele>
        <time>2008-03-16T17:49:33Z</time>
      </trkpt>
      <trkpt lat="33.373484" lon="-3.648654">
        <ele>797.1</ele>
        <time>2008-03-16T17:49:37Z</time>
      </trkpt>
      <trkpt lat="33.372989" lon="-3.648921">
        <ele>795.6</ele>
        <time>2008-03-16T17:49:41Z</time>
      </trkpt>
      <trkpt lat="33.372440" lon="-3.649226">
        <ele>795.1</ele>
        <time>2008-03-16T17:49:45Z</time>
      </trkpt>
      <trkpt lat="33.372015" lon="-3.649462">
        <ele>795.1</ele>
        <time>2008-03-16T17:49:48Z</time>
      </trkpt>
      <trkpt lat="33.371592" lon="-3.649694">
        <ele>796.6</ele>
        <time>2008-03-16T17:49:51Z</time>
      </trkpt>
      <trkpt lat="33.371172" lon="-3.649929">
        <ele>797.1</ele>
        <time>2008-03-16T17:49:54Z</time>
      </trkpt>
      <trkpt lat="33.370732" lon="-3.650177">
        <ele>798.5</ele>
        <time>2008-03-16T17:49:57Z</time>
      </trkpt>
      <trkpt lat="33.370269" lon="-3.650430">
        <ele>800.4</ele>
        <time>2008-03-16T17:50:00Z</time>
      </trkpt>
      <trkpt lat="33.369790" lon="-3.650692">
        <ele>801.9</ele>
        <time>2008-03-16T17:50:03Z</time>
      </trkpt>
      <trkpt lat="33.369365" lon="-3.650931">
        <ele>803.3</ele>
        <time>2008-03-16T17:50:06Z</time>
      </trkpt>
      <trkpt lat="33.369024" lon="-3.651159">
        <ele>802.4</ele>
        <time>2008-03-16T17:50:59Z</time>
      </trkpt>
      <trkpt lat="33.368483" lon="-3.651427">
        <ele>803.8</ele>
        <time>2008-03-16T17:51:08Z</time>
      </trkpt>
      <trkpt lat="33.368043" lon="-3.651668">
        <ele>804.3</ele>
        <time>2008-03-16T17:51:12Z</time>
      </trkpt>
      <trkpt lat="33.367533" lon="-3.651957">
        <ele>805.2</ele>
        <time>2008-03-16T17:51:16Z</time>
      </trkpt>
      <trkpt lat="33.367103" lon="-3.652194">
        <ele>806.2</ele>
        <time>2008-03-16T17:51:19Z</time>
      </trkpt>
      <trkpt lat="33.366662" lon="-3.652437">
        <ele>806.7</ele>
        <time>2008-03-16T17:51:22Z</time>
      </trkpt>
      <trkpt lat="33.366200" lon="-3.652691">
        <ele>806.7</ele>
        <time>2008-03-16T17:51:25Z</time>
      </trkpt>
      <trkpt lat="33.365725" lon="-3.652956">
        <ele>807.2</ele>
        <time>2008-03-16T17:51:28Z</time>
      </trkpt>
      <trkpt lat="33.365231" lon="-3.653232">
        <ele>806.7</ele>
        <time>2008-03-16T17:51:31Z</time>
      </trkpt>
      <trkpt lat="33.364738" lon="-3.653500">
        <ele>806.7</ele>
        <time>2008-03-16T17:51:34Z</time>
      </trkpt>
      <trkpt lat="33.364243" lon="-3.653767">
        <ele>806.7</ele>
        <time>2008-03-16T17:51:37Z</time>
      </trkpt>
      <trkpt lat="33.363735" lon="-3.654048">
        <ele>806.7</ele>
        <time>2008-03-16T17:51:40Z</time>
      </trkpt>
      <trkpt lat="33.363213" lon="-3.654338">
        <ele>807.2</ele>
        <time>2008-03-16T17:51:43Z</time>
      </trkpt>
      <trkpt lat="33.362684" lon="-3.654633">
        <ele>807.2</ele>
        <time>2008-03-16T17:51:46Z</time>
      </trkpt>
      <trkpt lat="33.362153" lon="-3.654935">
        <ele>807.2</ele>
        <time>2008-03-16T17:51:49Z</time>
      </trkpt>
      <trkpt lat="33.361623" lon="-3.655227">
        <ele>807.2</ele>
        <time>2008-03-16T17:51:52Z</time>
      </trkpt>
      <trkpt lat="33.361112" lon="-3.655501">
        <ele>806.7</ele>
        <time>2008-03-16T17:51:55Z</time>
      </trkpt>
      <trkpt lat="33.360616" lon="-3.655754">
        <ele>807.2</ele>
        <time>2008-03-16T17:51:58Z</time>
      </trkpt>
      <trkpt lat="33.360147" lon="-3.655998">
        <ele>806.7</ele>
        <time>2008-03-16T17:52:01Z</time>
      </trkpt>
      <trkpt lat="33.359714" lon="-3.656253">
        <ele>807.2</ele>
        <time>2008-03-16T17:52:04Z</time>
      </trkpt>
      <trkpt lat="33.359299" lon="-3.656551">
        <ele>807.2</ele>
        <time>2008-03-16T17:52:07Z</time>
      </trkpt>
      <trkpt lat="33.358913" lon="-3.656938">
        <ele>807.2</ele>
        <time>2008-03-16T17:52:10Z</time>
      </trkpt>
      <trkpt lat="33.358569" lon="-3.657418">
        <ele>807.2</ele>
        <time>2008-03-16T17:52:13Z</time>
      </trkpt>
      <trkpt lat="33.358241" lon="-3.657944">
        <ele>808.1</ele>
        <time>2008-03-16T17:52:16Z</time>
      </trkpt>
      <trkpt lat="33.357913" lon="-3.658472">
        <ele>809.1</ele>
        <time>2008-03-16T17:52:19Z</time>
      </trkpt>
      <trkpt lat="33.357574" lon="-3.659013">
        <ele>810.0</ele>
        <time>2008-03-16T17:52:22Z</time>
      </trkpt>
      <trkpt lat="33.357225" lon="-3.659567">
        <ele>810.5</ele>
        <time>2008-03-16T17:52:25Z</time>
      </trkpt>
      <trkpt lat="33.356875" lon="-3.660129">
        <ele>811.0</ele>
        <time>2008-03-16T17:52:28Z</time>
      </trkpt>
      <trkpt lat="33.356523" lon="-3.660689">
        <ele>811.0</ele>
        <time>2008-03-16T17:52:31Z</time>
      </trkpt>
      <trkpt lat="33.356180" lon="-3.661245">
        <ele>811.0</ele>
        <time>2008-03-16T17:52:34Z</time>
      </trkpt>
      <trkpt lat="33.355835" lon="-3.661796">
        <ele>811.5</ele>
        <time>2008-03-16T17:52:37Z</time>
      </trkpt>
      <trkpt lat="33.355492" lon="-3.662344">
        <ele>811.0</ele>
        <time>2008-03-16T17:52:40Z</time>
      </trkpt>
      <trkpt lat="33.355140" lon="-3.662904">
        <ele>810.5</ele>
        <time>2008-03-16T17:52:43Z</time>
      </trkpt>
      <trkpt lat="33.354784" lon="-3.663476">
        <ele>809.6</ele>
        <time>2008-03-16T17:52:46Z</time>
      </trkpt>
      <trkpt lat="33.354422" lon="-3.664061">
        <ele>809.1</ele>
        <time>2008-03-16T17:52:49Z</time>
      </trkpt>
      <trkpt lat="33.354054" lon="-3.664657">
        <ele>808.1</ele>
        <time>2008-03-16T17:52:52Z</time>
      </trkpt>
      <trkpt lat="33.353678" lon="-3.665260">
        <ele>807.2</ele>
        <time>2008-03-16T17:52:55Z</time>
      </trkpt>
      <trkpt lat="33.353296" lon="-3.665875">
        <ele>806.7</ele>
        <time>2008-03-16T17:52:58Z</time>
      </trkpt>
      <trkpt lat="33.352909" lon="-3.666494">
        <ele>806.2</ele>
        <time>2008-03-16T17:53:01Z</time>
      </trkpt>
      <trkpt lat="33.352520" lon="-3.667118">
        <ele>805.7</ele>
        <time>2008-03-16T17:53:04Z</time>
      </trkpt>
      <trkpt lat="33.352133" lon="-3.667739">
        <ele>804.8</ele>
        <time>2008-03-16T17:53:07Z</time>
      </trkpt>
      <trkpt lat="33.351746" lon="-3.668360">
        <ele>805.2</ele>
        <time>2008-03-16T17:53:10Z</time>
      </trkpt>
      <trkpt lat="33.351360" lon="-3.668979">
        <ele>804.8</ele>
        <time>2008-03-16T17:53:13Z</time>
      </trkpt>
      <trkpt lat="33.350973" lon="-3.669597">
        <ele>805.2</ele>
        <time>2008-03-16T17:53:16Z</time>
      </trkpt>
      <trkpt lat="33.350590" lon="-3.670211">
        <ele>806.2</ele>
        <time>2008-03-16T17:53:19Z</time>
      </trkpt>
      <trkpt lat="33.350213" lon="-3.670809">
        <ele>808.1</ele>
        <time>2008-03-16T17:53:22Z</time>
      </trkpt>
      <trkpt lat="33.349848" lon="-3.671393">
        <ele>809.1</ele>
        <time>2008-03-16T17:53:25Z</time>
      </trkpt>
      <trkpt lat="33.349487" lon="-3.671967">
        <ele>810.0</ele>
        <time>2008-03-16T17:53:28Z</time>
      </trkpt>
      <trkpt lat="33.349134" lon="-3.672526">
        <ele>809.6</ele>
        <time>2008-03-16T17:53:31Z</time>
      </trkpt>
      <trkpt lat="33.348796" lon="-3.673070">
        <ele>809.6</ele>
        <time>2008-03-16T17:53:34Z</time>
      </trkpt>
      <trkpt lat="33.348456" lon="-3.673615">
        <ele>809.6</ele>
        <time>2008-03-16T17:53:37Z</time>
      </trkpt>
      <trkpt lat="33.348112" lon="-3.674165">
        <ele>810.0</ele>
        <time>2008-03-16T17:53:40Z</time>
      </trkpt>
      <trkpt lat="33.347767" lon="-3.674720">
        <ele>810.5</ele>
        <time>2008-03-16T17:53:43Z</time>
      </trkpt>
      <trkpt lat="33.347419" lon="-3.675276">
        <ele>810.5</ele>
        <time>2008-03-16T17:53:46Z</time>
      </trkpt>
      <trkpt lat="33.347068" lon="-3.675836">
        <ele>810.5</ele>
        <time>2008-03-16T17:53:49Z</time>
      </trkpt>
      <trkpt lat="33.346722" lon="-3.676388">
        <ele>810.0</ele>
        <time>2008-03-16T17:53:52Z</time>
      </trkpt>
      <trkpt lat="33.346381" lon="-3.676941">
        <ele>810.0</ele>
        <time>2008-03-16T17:53:55Z</time>
      </trkpt>
      <trkpt lat="33.346036" lon="-3.677494">
        <ele>810.0</ele>
        <time>2008-03-16T17:53:58Z</time>
      </trkpt>
      <trkpt lat="33.345691" lon="-3.678052">
        <ele>809.6</ele>
        <time>2008-03-16T17:54:01Z</time>
      </trkpt>
      <trkpt lat="33.345342" lon="-3.678620">
        <ele>808.6</ele>
        <time>2008-03-16T17:54:04Z</time>
      </trkpt>
      <trkpt lat="33.344985" lon="-3.679193">
        <ele>808.1</ele>
        <time>2008-03-16T17:54:07Z</time>
      </trkpt>
      <trkpt lat="33.344627" lon="-3.679769">
        <ele>808.1</ele>
        <time>2008-03-16T17:54:10Z</time>
      </trkpt>
      <trkpt lat="33.344267" lon="-3.680348">
        <ele>807.6</ele>
        <time>2008-03-16T17:54:13Z</time>
      </trkpt>
      <trkpt lat="33.343908" lon="-3.680925">
        <ele>807.2</ele>
        <time>2008-03-16T17:54:16Z</time>
      </trkpt>
      <trkpt lat="33.343543" lon="-3.681504">
        <ele>805.7</ele>
        <time>2008-03-16T17:54:19Z</time>
      </trkpt>
      <trkpt lat="33.343173" lon="-3.682093">
        <ele>804.3</ele>
        <time>2008-03-16T17:54:22Z</time>
      </trkpt>
      <trkpt lat="33.342807" lon="-3.682692">
        <ele>803.8</ele>
        <time>2008-03-16T17:54:25Z</time>
      </trkpt>
      <trkpt lat="33.342439" lon="-3.683284">
        <ele>803.3</ele>
        <time>2008-03-16T17:54:28Z</time>
      </trkpt>
      <trkpt lat="33.342070" lon="-3.683866">
        <ele>803.3</ele>
        <time>2008-03-16T17:54:31Z</time>
      </trkpt>
      <trkpt lat="33.341704" lon="-3.684448">
        <ele>802.8</ele>
        <time>2008-03-16T17:54:34Z</time>
      </trkpt>
      <trkpt lat="33.341338" lon="-3.685036">
        <ele>801.9</ele>
        <time>2008-03-16T17:54:37Z</time>
      </trkpt>
      <trkpt lat="33.340968" lon="-3.685630">
        <ele>800.4</ele>
        <time>2008-03-16T17:54:40Z</time>
      </trkpt>
      <trkpt lat="33.340594" lon="-3.686229">
        <ele>800.0</ele>
        <time>2008-03-16T17:54:43Z</time>
      </trkpt>
      <trkpt lat="33.340219" lon="-3.686829">
        <ele>799.5</ele>
        <time>2008-03-16T17:54:46Z</time>
      </trkpt>
      <trkpt lat="33.339847" lon="-3.687432">
        <ele>799.5</ele>
        <time>2008-03-16T17:54:49Z</time>
      </trkpt>
      <trkpt lat="33.339479" lon="-3.688024">
        <ele>799.0</ele>
        <time>2008-03-16T17:54:52Z</time>
      </trkpt>
      <trkpt lat="33.339115" lon="-3.688608">
        <ele>798.5</ele>
        <time>2008-03-16T17:54:55Z</time>
      </trkpt>
      <trkpt lat="33.338753" lon="-3.689189">
        <ele>798.0</ele>
        <time>2008-03-16T17:54:58Z</time>
      </trkpt>
      <trkpt lat="33.338393" lon="-3.689762">
        <ele>798.5</ele>
        <time>2008-03-16T17:55:01Z</time>
      </trkpt>
      <trkpt lat="33.338049" lon="-3.690317">
        <ele>798.5</ele>
        <time>2008-03-16T17:55:04Z</time>
      </trkpt>
      <trkpt lat="33.337712" lon="-3.690860">
        <ele>799.0</ele>
        <time>2008-03-16T17:55:07Z</time>
      </trkpt>
      <trkpt lat="33.337391" lon="-3.691375">
        <ele>798.5</ele>
        <time>2008-03-16T17:55:10Z</time>
      </trkpt>
      <trkpt lat="33.337104" lon="-3.691879">
        <ele>798.0</ele>
        <time>2008-03-16T17:55:13Z</time>
      </trkpt>
      <trkpt lat="33.336895" lon="-3.692397">
        <ele>798.0</ele>
        <time>2008-03-16T17:55:16Z</time>
      </trkpt>
      <trkpt lat="33.336771" lon="-3.692927">
        <ele>797.6</ele>
        <time>2008-03-16T17:55:19Z</time>
      </trkpt>
      <trkpt lat="33.336681" lon="-3.693459">
        <ele>797.1</ele>
        <time>2008-03-16T17:55:22Z</time>
      </trkpt>
      <trkpt lat="33.336594" lon="-3.693990">
        <ele>797.1</ele>
        <time>2008-03-16T17:55:25Z</time>
      </trkpt>
      <trkpt lat="33.336498" lon="-3.694527">
        <ele>796.6</ele>
        <time>2008-03-16T17:55:28Z</time>
      </trkpt>
      <trkpt lat="33.336401" lon="-3.695078">
        <ele>796.1</ele>
        <time>2008-03-16T17:55:31Z</time>
      </trkpt>
      <trkpt lat="33.336482" lon="-3.694631">
        <ele>794.2</ele>
        <time>2008-09-25T11:38:26Z</time>
      </trkpt>
      <trkpt lat="33.336388" lon="-3.695179">
        <ele>794.2</ele>
        <time>2008-09-25T11:38:29Z</time>
      </trkpt>
      <trkpt lat="33.336283" lon="-3.695791">
        <ele>794.2</ele>
        <time>2008-09-25T11:38:33Z</time>
      </trkpt>
      <trkpt lat="33.336199" lon="-3.696307">
        <ele>794.7</ele>
        <time>2008-09-25T11:38:39Z</time>
      </trkpt>
      <trkpt lat="33.336097" lon="-3.696908">
        <ele>794.7</ele>
        <time>2008-09-25T11:38:44Z</time>
      </trkpt>
      <trkpt lat="33.335997" lon="-3.697492">
        <ele>795.1</ele>
        <time>2008-09-25T11:38:49Z</time>
      </trkpt>
      <trkpt lat="33.335910" lon="-3.698025">
        <ele>794.7</ele>
        <time>2008-09-25T11:38:54Z</time>
      </trkpt>
      <trkpt lat="33.335796" lon="-3.698692">
        <ele>794.2</ele>
        <time>2008-09-25T11:38:59Z</time>
      </trkpt>
      <trkpt lat="33.335592" lon="-3.699220">
        <ele>794.2</ele>
        <time>2008-09-25T11:39:05Z</time>
      </trkpt>
      <trkpt lat="33.335132" lon="-3.699446">
        <ele>793.2</ele>
        <time>2008-09-25T11:39:12Z</time>
      </trkpt>
      <trkpt lat="33.334635" lon="-3.699519">
        <ele>792.3</ele>
        <time>2008-09-25T11:39:18Z</time>
      </trkpt>
      <trkpt lat="33.334173" lon="-3.699435">
        <ele>790.3</ele>
        <time>2008-09-25T11:39:24Z</time>
      </trkpt>
      <trkpt lat="33.333811" lon="-3.699097">
        <ele>788.4</ele>
        <time>2008-09-25T11:39:30Z</time>
      </trkpt>
      <trkpt lat="33.333418" lon="-3.698723">
        <ele>784.1</ele>
        <time>2008-09-25T11:39:37Z</time>
      </trkpt>
      <trkpt lat="33.333043" lon="-3.698330">
        <ele>781.7</ele>
        <time>2008-09-25T11:39:43Z</time>
      </trkpt>
      <trkpt lat="33.332706" lon="-3.697911">
        <ele>781.7</ele>
        <time>2008-09-25T11:39:49Z</time>
      </trkpt>
      <trkpt lat="33.332262" lon="-3.697711">
        <ele>780.7</ele>
        <time>2008-09-25T11:39:54Z</time>
      </trkpt>
      <trkpt lat="33.331747" lon="-3.697558">
        <ele>780.7</ele>
        <time>2008-09-25T11:39:59Z</time>
      </trkpt>
      <trkpt lat="33.331357" lon="-3.697245">
        <ele>775.4</ele>
        <time>2008-09-25T11:40:04Z</time>
      </trkpt>
      <trkpt lat="33.330881" lon="-3.696995">
        <ele>778.3</ele>
        <time>2008-09-25T11:40:09Z</time>
      </trkpt>
      <trkpt lat="33.330514" lon="-3.696594">
        <ele>780.2</ele>
        <time>2008-09-25T11:40:14Z</time>
      </trkpt>
      <trkpt lat="33.330048" lon="-3.696541">
        <ele>782.2</ele>
        <time>2008-09-25T11:40:19Z</time>
      </trkpt>
      <trkpt lat="33.329576" lon="-3.696525">
        <ele>785.1</ele>
        <time>2008-09-25T11:40:24Z</time>
      </trkpt>
      <trkpt lat="33.329091" lon="-3.696488">
        <ele>785.1</ele>
        <time>2008-09-25T11:40:29Z</time>
      </trkpt>
      <trkpt lat="33.328533" lon="-3.696412">
        <ele>787.0</ele>
        <time>2008-09-25T11:40:34Z</time>
      </trkpt>
      <trkpt lat="33.328091" lon="-3.696336">
        <ele>788.4</ele>
        <time>2008-09-25T11:40:38Z</time>
      </trkpt>
      <trkpt lat="33.327553" lon="-3.696316">
        <ele>790.8</ele>
        <time>2008-09-25T11:40:43Z</time>
      </trkpt>
      <trkpt lat="33.327017" lon="-3.696277">
        <ele>791.3</ele>
        <time>2008-09-25T11:40:48Z</time>
      </trkpt>
      <trkpt lat="33.326486" lon="-3.696246">
        <ele>791.8</ele>
        <time>2008-09-25T11:40:53Z</time>
      </trkpt>
      <trkpt lat="33.325970" lon="-3.696193">
        <ele>792.7</ele>
        <time>2008-09-25T11:40:58Z</time>
      </trkpt>
      <trkpt lat="33.325450" lon="-3.696010">
        <ele>794.2</ele>
        <time>2008-09-25T11:41:03Z</time>
      </trkpt>
      <trkpt lat="33.324903" lon="-3.695935">
        <ele>795.1</ele>
        <time>2008-09-25T11:41:08Z</time>
      </trkpt>
      <trkpt lat="33.324445" lon="-3.695833">
        <ele>795.1</ele>
        <time>2008-09-25T11:41:12Z</time>
      </trkpt>
      <trkpt lat="33.323986" lon="-3.695791">
        <ele>795.1</ele>
        <time>2008-09-25T11:41:16Z</time>
      </trkpt>
      <trkpt lat="33.323534" lon="-3.695727">
        <ele>795.6</ele>
        <time>2008-09-25T11:41:20Z</time>
      </trkpt>
      <trkpt lat="33.323001" lon="-3.695582">
        <ele>795.6</ele>
        <time>2008-09-25T11:41:25Z</time>
      </trkpt>
      <trkpt lat="33.322446" lon="-3.695548">
        <ele>796.1</ele>
        <time>2008-09-25T11:41:30Z</time>
      </trkpt>
      <trkpt lat="33.321889" lon="-3.695497">
        <ele>796.6</ele>
        <time>2008-09-25T11:41:35Z</time>
      </trkpt>
      <trkpt lat="33.321432" lon="-3.695451">
        <ele>797.1</ele>
        <time>2008-09-25T11:41:39Z</time>
      </trkpt>
      <trkpt lat="33.320975" lon="-3.695352">
        <ele>796.6</ele>
        <time>2008-09-25T11:41:43Z</time>
      </trkpt>
      <trkpt lat="33.320505" lon="-3.695364">
        <ele>796.6</ele>
        <time>2008-09-25T11:41:47Z</time>
      </trkpt>
      <trkpt lat="33.320010" lon="-3.695331">
        <ele>797.1</ele>
        <time>2008-09-25T11:41:51Z</time>
      </trkpt>
      <trkpt lat="33.319498" lon="-3.695334">
        <ele>797.1</ele>
        <time>2008-09-25T11:41:55Z</time>
      </trkpt>
      <trkpt lat="33.318971" lon="-3.695336">
        <ele>798.0</ele>
        <time>2008-09-25T11:41:59Z</time>
      </trkpt>
      <trkpt lat="33.318446" lon="-3.695286">
        <ele>798.0</ele>
        <time>2008-09-25T11:42:03Z</time>
      </trkpt>
      <trkpt lat="33.317946" lon="-3.695257">
        <ele>798.5</ele>
        <time>2008-09-25T11:42:07Z</time>
      </trkpt>
      <trkpt lat="33.317452" lon="-3.695355">
        <ele>799.0</ele>
        <time>2008-09-25T11:42:11Z</time>
      </trkpt>
      <trkpt lat="33.316956" lon="-3.695369">
        <ele>799.5</ele>
        <time>2008-09-25T11:42:15Z</time>
      </trkpt>
      <trkpt lat="33.316481" lon="-3.695288">
        <ele>798.0</ele>
        <time>2008-09-25T11:42:19Z</time>
      </trkpt>
      <trkpt lat="33.316010" lon="-3.695241">
        <ele>795.6</ele>
        <time>2008-09-25T11:42:23Z</time>
      </trkpt>
      <trkpt lat="33.315529" lon="-3.695232">
        <ele>795.1</ele>
        <time>2008-09-25T11:42:27Z</time>
      </trkpt>
      <trkpt lat="33.315022" lon="-3.695281">
        <ele>794.7</ele>
        <time>2008-09-25T11:42:31Z</time>
      </trkpt>
      <trkpt lat="33.314494" lon="-3.695318">
        <ele>794.7</ele>
        <time>2008-09-25T11:42:35Z</time>
      </trkpt>
      <trkpt lat="33.313959" lon="-3.695323">
        <ele>795.1</ele>
        <time>2008-09-25T11:42:39Z</time>
      </trkpt>
      <trkpt lat="33.313479" lon="-3.695351">
        <ele>798.5</ele>
        <time>2008-09-25T11:42:43Z</time>
      </trkpt>
      <trkpt lat="33.312949" lon="-3.695306">
        <ele>797.6</ele>
        <time>2008-09-25T11:42:48Z</time>
      </trkpt>
      <trkpt lat="33.312476" lon="-3.695376">
        <ele>798.0</ele>
        <time>2008-09-25T11:42:52Z</time>
      </trkpt>
      <trkpt lat="33.312033" lon="-3.695464">
        <ele>797.1</ele>
        <time>2008-09-25T11:42:56Z</time>
      </trkpt>
      <trkpt lat="33.311536" lon="-3.695599">
        <ele>792.7</ele>
        <time>2008-09-25T11:43:01Z</time>
      </trkpt>
      <trkpt lat="33.311054" lon="-3.695671">
        <ele>791.3</ele>
        <time>2008-09-25T11:43:07Z</time>
      </trkpt>
      <trkpt lat="33.310591" lon="-3.695812">
        <ele>793.7</ele>
        <time>2008-09-25T11:43:12Z</time>
      </trkpt>
      <trkpt lat="33.310061" lon="-3.695968">
        <ele>797.6</ele>
        <time>2008-09-25T11:43:17Z</time>
      </trkpt>
      <trkpt lat="33.309537" lon="-3.696159">
        <ele>797.1</ele>
        <time>2008-09-25T11:43:22Z</time>
      </trkpt>
      <trkpt lat="33.309105" lon="-3.696456">
        <ele>797.6</ele>
        <time>2008-09-25T11:43:27Z</time>
      </trkpt>
      <trkpt lat="33.308670" lon="-3.696896">
        <ele>797.6</ele>
        <time>2008-09-25T11:43:32Z</time>
      </trkpt>
      <trkpt lat="33.308294" lon="-3.697273">
        <ele>797.1</ele>
        <time>2008-09-25T11:43:36Z</time>
      </trkpt>
      <trkpt lat="33.307871" lon="-3.697599">
        <ele>796.6</ele>
        <time>2008-09-25T11:43:41Z</time>
      </trkpt>
      <trkpt lat="33.307396" lon="-3.697781">
        <ele>790.8</ele>
        <time>2008-09-25T11:43:46Z</time>
      </trkpt>
      <trkpt lat="33.306876" lon="-3.698056">
        <ele>787.9</ele>
        <time>2008-09-25T11:43:51Z</time>
      </trkpt>
      <trkpt lat="33.306400" lon="-3.698200">
        <ele>786.0</ele>
        <time>2008-09-25T11:43:56Z</time>
      </trkpt>
      <trkpt lat="33.305992" lon="-3.698080">
        <ele>783.1</ele>
        <time>2008-09-25T11:44:05Z</time>
      </trkpt>
      <trkpt lat="33.305565" lon="-3.698287">
        <ele>784.1</ele>
        <time>2008-09-25T11:44:16Z</time>
      </trkpt>
      <trkpt lat="33.305086" lon="-3.698419">
        <ele>783.6</ele>
        <time>2008-09-25T11:44:25Z</time>
      </trkpt>
      <trkpt lat="33.304645" lon="-3.698652">
        <ele>784.6</ele>
        <time>2008-09-25T11:44:31Z</time>
      </trkpt>
      <trkpt lat="33.304231" lon="-3.698935">
        <ele>788.4</ele>
        <time>2008-09-25T11:44:36Z</time>
      </trkpt>
      <trkpt lat="33.303806" lon="-3.699274">
        <ele>790.8</ele>
        <time>2008-09-25T11:44:42Z</time>
      </trkpt>
      <trkpt lat="33.303411" lon="-3.699562">
        <ele>791.3</ele>
        <time>2008-09-25T11:44:47Z</time>
      </trkpt>
      <trkpt lat="33.303010" lon="-3.699894">
        <ele>792.3</ele>
        <time>2008-09-25T11:44:51Z</time>
      </trkpt>
      <trkpt lat="33.302533" lon="-3.700265">
        <ele>793.7</ele>
        <time>2008-09-25T11:44:55Z</time>
      </trkpt>
      <trkpt lat="33.302057" lon="-3.700636">
        <ele>795.1</ele>
        <time>2008-09-25T11:44:59Z</time>
      </trkpt>
      <trkpt lat="33.301727" lon="-3.700878">
        <ele>794.2</ele>
        <time>2008-09-25T11:45:31Z</time>
      </trkpt>
      <trkpt lat="33.301201" lon="-3.700775">
        <ele>792.7</ele>
        <time>2008-09-25T11:45:44Z</time>
      </trkpt>
      <trkpt lat="33.300711" lon="-3.700917">
        <ele>793.2</ele>
        <time>2008-09-25T11:45:49Z</time>
      </trkpt>
      <trkpt lat="33.300254" lon="-3.701034">
        <ele>792.3</ele>
        <time>2008-09-25T11:45:53Z</time>
      </trkpt>
      <trkpt lat="33.299753" lon="-3.701152">
        <ele>792.3</ele>
        <time>2008-09-25T11:45:57Z</time>
      </trkpt>
      <trkpt lat="33.299216" lon="-3.701281">
        <ele>792.3</ele>
        <time>2008-09-25T11:46:01Z</time>
      </trkpt>
      <trkpt lat="33.298686" lon="-3.701405">
        <ele>792.3</ele>
        <time>2008-09-25T11:46:05Z</time>
      </trkpt>
      <trkpt lat="33.298180" lon="-3.701617">
        <ele>792.7</ele>
        <time>2008-09-25T11:46:09Z</time>
      </trkpt>
      <trkpt lat="33.297625" lon="-3.701714">
        <ele>792.7</ele>
        <time>2008-09-25T11:46:13Z</time>
      </trkpt>
      <trkpt lat="33.297063" lon="-3.701860">
        <ele>793.2</ele>
        <time>2008-09-25T11:46:17Z</time>
      </trkpt>
      <trkpt lat="33.296479" lon="-3.702021">
        <ele>793.7</ele>
        <time>2008-09-25T11:46:21Z</time>
      </trkpt>
      <trkpt lat="33.296022" lon="-3.702078">
        <ele>794.2</ele>
        <time>2008-09-25T11:46:24Z</time>
      </trkpt>
      <trkpt lat="33.295436" lon="-3.702076">
        <ele>794.7</ele>
        <time>2008-09-25T11:46:28Z</time>
      </trkpt>
      <trkpt lat="33.294869" lon="-3.702143">
        <ele>795.1</ele>
        <time>2008-09-25T11:46:32Z</time>
      </trkpt>
      <trkpt lat="33.294265" lon="-3.702080">
        <ele>795.6</ele>
        <time>2008-09-25T11:46:36Z</time>
      </trkpt>
      <trkpt lat="33.293806" lon="-3.702060">
        <ele>795.6</ele>
        <time>2008-09-25T11:46:39Z</time>
      </trkpt>
      <trkpt lat="33.293296" lon="-3.702063">
        <ele>795.1</ele>
        <time>2008-09-25T11:46:43Z</time>
      </trkpt>
      <trkpt lat="33.292817" lon="-3.702086">
        <ele>793.2</ele>
        <time>2008-09-25T11:46:47Z</time>
      </trkpt>
      <trkpt lat="33.292301" lon="-3.702136">
        <ele>793.2</ele>
        <time>2008-09-25T11:46:52Z</time>
      </trkpt>
      <trkpt lat="33.291805" lon="-3.702183">
        <ele>794.7</ele>
        <time>2008-09-25T11:46:56Z</time>
      </trkpt>
      <trkpt lat="33.291271" lon="-3.702223">
        <ele>795.6</ele>
        <time>2008-09-25T11:47:00Z</time>
      </trkpt>
      <trkpt lat="33.290855" lon="-3.702229">
        <ele>796.1</ele>
        <time>2008-09-25T11:47:03Z</time>
      </trkpt>
      <trkpt lat="33.290180" lon="-3.702300">
        <ele>798.0</ele>
        <time>2008-09-25T11:47:08Z</time>
      </trkpt>
      <trkpt lat="33.289622" lon="-3.702346">
        <ele>798.5</ele>
        <time>2008-09-25T11:47:12Z</time>
      </trkpt>
      <trkpt lat="33.289028" lon="-3.702270">
        <ele>799.5</ele>
        <time>2008-09-25T11:47:16Z</time>
      </trkpt>
      <trkpt lat="33.288565" lon="-3.702244">
        <ele>800.0</ele>
        <time>2008-09-25T11:47:19Z</time>
      </trkpt>
      <trkpt lat="33.288084" lon="-3.702213">
        <ele>800.9</ele>
        <time>2008-09-25T11:47:22Z</time>
      </trkpt>
      <trkpt lat="33.287604" lon="-3.702195">
        <ele>801.9</ele>
        <time>2008-09-25T11:47:25Z</time>
      </trkpt>
      <trkpt lat="33.287118" lon="-3.702190">
        <ele>801.9</ele>
        <time>2008-09-25T11:47:28Z</time>
      </trkpt>
      <trkpt lat="33.286620" lon="-3.702186">
        <ele>802.4</ele>
        <time>2008-09-25T11:47:31Z</time>
      </trkpt>
      <trkpt lat="33.286119" lon="-3.702209">
        <ele>803.3</ele>
        <time>2008-09-25T11:47:34Z</time>
      </trkpt>
      <trkpt lat="33.285628" lon="-3.702243">
        <ele>803.8</ele>
        <time>2008-09-25T11:47:37Z</time>
      </trkpt>
      <trkpt lat="33.285141" lon="-3.702277">
        <ele>804.3</ele>
        <time>2008-09-25T11:47:40Z</time>
      </trkpt>
      <trkpt lat="33.284635" lon="-3.702302">
        <ele>804.8</ele>
        <time>2008-09-25T11:47:43Z</time>
      </trkpt>
      <trkpt lat="33.284141" lon="-3.702313">
        <ele>804.8</ele>
        <time>2008-09-25T11:47:46Z</time>
      </trkpt>
      <trkpt lat="33.283635" lon="-3.702353">
        <ele>804.8</ele>
        <time>2008-09-25T11:47:49Z</time>
      </trkpt>
      <trkpt lat="33.283121" lon="-3.702381">
        <ele>805.2</ele>
        <time>2008-09-25T11:47:52Z</time>
      </trkpt>
      <trkpt lat="33.282588" lon="-3.702394">
        <ele>806.2</ele>
        <time>2008-09-25T11:47:55Z</time>
      </trkpt>
      <trkpt lat="33.282044" lon="-3.702419">
        <ele>806.7</ele>
        <time>2008-09-25T11:47:58Z</time>
      </trkpt>
      <trkpt lat="33.281495" lon="-3.702448">
        <ele>807.2</ele>
        <time>2008-09-25T11:48:01Z</time>
      </trkpt>
      <trkpt lat="33.280954" lon="-3.702478">
        <ele>807.6</ele>
        <time>2008-09-25T11:48:04Z</time>
      </trkpt>
      <trkpt lat="33.280454" lon="-3.702528">
        <ele>808.6</ele>
        <time>2008-09-25T11:48:07Z</time>
      </trkpt>
      <trkpt lat="33.279869" lon="-3.702561">
        <ele>809.6</ele>
        <time>2008-09-25T11:48:11Z</time>
      </trkpt>
      <trkpt lat="33.279394" lon="-3.702582">
        <ele>810.0</ele>
        <time>2008-09-25T11:48:14Z</time>
      </trkpt>
      <trkpt lat="33.278888" lon="-3.702614">
        <ele>809.6</ele>
        <time>2008-09-25T11:48:17Z</time>
      </trkpt>
      <trkpt lat="33.278353" lon="-3.702650">
        <ele>809.6</ele>
        <time>2008-09-25T11:48:20Z</time>
      </trkpt>
      <trkpt lat="33.277816" lon="-3.702687">
        <ele>810.0</ele>
        <time>2008-09-25T11:48:23Z</time>
      </trkpt>
      <trkpt lat="33.277270" lon="-3.702678">
        <ele>810.5</ele>
        <time>2008-09-25T11:48:26Z</time>
      </trkpt>
      <trkpt lat="33.276739" lon="-3.702674">
        <ele>811.0</ele>
        <time>2008-09-25T11:48:29Z</time>
      </trkpt>
      <trkpt lat="33.276234" lon="-3.702676">
        <ele>811.5</ele>
        <time>2008-09-25T11:48:32Z</time>
      </trkpt>
      <trkpt lat="33.275709" lon="-3.702696">
        <ele>812.0</ele>
        <time>2008-09-25T11:48:35Z</time>
      </trkpt>
      <trkpt lat="33.275173" lon="-3.702701">
        <ele>812.5</ele>
        <time>2008-09-25T11:48:38Z</time>
      </trkpt>
      <trkpt lat="33.274633" lon="-3.702724">
        <ele>812.9</ele>
        <time>2008-09-25T11:48:41Z</time>
      </trkpt>
      <trkpt lat="33.274084" lon="-3.702753">
        <ele>813.4</ele>
        <time>2008-09-25T11:48:44Z</time>
      </trkpt>
      <trkpt lat="33.273533" lon="-3.702789">
        <ele>813.9</ele>
        <time>2008-09-25T11:48:47Z</time>
      </trkpt>
      <trkpt lat="33.272977" lon="-3.702830">
        <ele>813.9</ele>
        <time>2008-09-25T11:48:50Z</time>
      </trkpt>
      <trkpt lat="33.272416" lon="-3.702858">
        <ele>814.4</ele>
        <time>2008-09-25T11:48:53Z</time>
      </trkpt>
      <trkpt lat="33.271856" lon="-3.702873">
        <ele>814.9</ele>
        <time>2008-09-25T11:48:56Z</time>
      </trkpt>
      <trkpt lat="33.271290" lon="-3.702853">
        <ele>815.3</ele>
        <time>2008-09-25T11:48:59Z</time>
      </trkpt>
      <trkpt lat="33.270724" lon="-3.702859">
        <ele>815.8</ele>
        <time>2008-09-25T11:49:02Z</time>
      </trkpt>
      <trkpt lat="33.270175" lon="-3.702884">
        <ele>816.8</ele>
        <time>2008-09-25T11:49:05Z</time>
      </trkpt>
      <trkpt lat="33.269625" lon="-3.702933">
        <ele>816.8</ele>
        <time>2008-09-25T11:49:08Z</time>
      </trkpt>
      <trkpt lat="33.269054" lon="-3.702955">
        <ele>817.3</ele>
        <time>2008-09-25T11:49:11Z</time>
      </trkpt>
      <trkpt lat="33.268469" lon="-3.702991">
        <ele>817.7</ele>
        <time>2008-09-25T11:49:14Z</time>
      </trkpt>
      <trkpt lat="33.267878" lon="-3.703033">
        <ele>818.2</ele>
        <time>2008-09-25T11:49:17Z</time>
      </trkpt>
      <trkpt lat="33.267312" lon="-3.703075">
        <ele>818.7</ele>
        <time>2008-09-25T11:49:20Z</time>
      </trkpt>
      <trkpt lat="33.266757" lon="-3.703124">
        <ele>819.2</ele>
        <time>2008-09-25T11:49:23Z</time>
      </trkpt>
      <trkpt lat="33.266186" lon="-3.703191">
        <ele>819.7</ele>
        <time>2008-09-25T11:49:26Z</time>
      </trkpt>
      <trkpt lat="33.265609" lon="-3.703221">
        <ele>819.7</ele>
        <time>2008-09-25T11:49:29Z</time>
      </trkpt>
      <trkpt lat="33.265033" lon="-3.703262">
        <ele>819.7</ele>
        <time>2008-09-25T11:49:32Z</time>
      </trkpt>
      <trkpt lat="33.264467" lon="-3.703326">
        <ele>820.1</ele>
        <time>2008-09-25T11:49:35Z</time>
      </trkpt>
      <trkpt lat="33.263952" lon="-3.703388">
        <ele>820.6</ele>
        <time>2008-09-25T11:49:38Z</time>
      </trkpt>
      <trkpt lat="33.263444" lon="-3.703436">
        <ele>820.6</ele>
        <time>2008-09-25T11:49:41Z</time>
      </trkpt>
      <trkpt lat="33.262935" lon="-3.703490">
        <ele>821.1</ele>
        <time>2008-09-25T11:49:44Z</time>
      </trkpt>
      <trkpt lat="33.262427" lon="-3.703563">
        <ele>821.1</ele>
        <time>2008-09-25T11:49:47Z</time>
      </trkpt>
      <trkpt lat="33.261947" lon="-3.703654">
        <ele>821.1</ele>
        <time>2008-09-25T11:49:50Z</time>
      </trkpt>
      <trkpt lat="33.261385" lon="-3.703794">
        <ele>821.6</ele>
        <time>2008-09-25T11:49:54Z</time>
      </trkpt>
      <trkpt lat="33.260961" lon="-3.703865">
        <ele>821.6</ele>
        <time>2008-09-25T11:49:58Z</time>
      </trkpt>
      <trkpt lat="33.260419" lon="-3.703943">
        <ele>821.6</ele>
        <time>2008-09-25T11:50:04Z</time>
      </trkpt>
      <trkpt lat="33.259928" lon="-3.703990">
        <ele>822.5</ele>
        <time>2008-09-25T11:50:08Z</time>
      </trkpt>
      <trkpt lat="33.259389" lon="-3.704027">
        <ele>823.0</ele>
        <time>2008-09-25T11:50:12Z</time>
      </trkpt>
      <trkpt lat="33.258853" lon="-3.704115">
        <ele>823.5</ele>
        <time>2008-09-25T11:50:16Z</time>
      </trkpt>
      <trkpt lat="33.258376" lon="-3.704179">
        <ele>824.0</ele>
        <time>2008-09-25T11:50:20Z</time>
      </trkpt>
      <trkpt lat="33.257940" lon="-3.704263">
        <ele>823.5</ele>
        <time>2008-09-25T11:50:25Z</time>
      </trkpt>
      <trkpt lat="33.257471" lon="-3.704328">
        <ele>822.5</ele>
        <time>2008-09-25T11:50:32Z</time>
      </trkpt>
      <trkpt lat="33.256944" lon="-3.704373">
        <ele>824.9</ele>
        <time>2008-09-25T11:50:38Z</time>
      </trkpt>
      <trkpt lat="33.256417" lon="-3.704374">
        <ele>824.9</ele>
        <time>2008-09-25T11:50:43Z</time>
      </trkpt>
      <trkpt lat="33.255927" lon="-3.704431">
        <ele>825.4</ele>
        <time>2008-09-25T11:50:47Z</time>
      </trkpt>
      <trkpt lat="33.255425" lon="-3.704482">
        <ele>825.4</ele>
        <time>2008-09-25T11:50:51Z</time>
      </trkpt>
      <trkpt lat="33.254915" lon="-3.704483">
        <ele>826.9</ele>
        <time>2008-09-25T11:50:55Z</time>
      </trkpt>
      <trkpt lat="33.254399" lon="-3.704474">
        <ele>827.8</ele>
        <time>2008-09-25T11:50:59Z</time>
      </trkpt>
      <trkpt lat="33.253872" lon="-3.704445">
        <ele>828.3</ele>
        <time>2008-09-25T11:51:03Z</time>
      </trkpt>
      <trkpt lat="33.253323" lon="-3.704442">
        <ele>828.8</ele>
        <time>2008-09-25T11:51:07Z</time>
      </trkpt>
      <trkpt lat="33.252730" lon="-3.704460">
        <ele>829.3</ele>
        <time>2008-09-25T11:51:11Z</time>
      </trkpt>
      <trkpt lat="33.252278" lon="-3.704484">
        <ele>829.3</ele>
        <time>2008-09-25T11:51:14Z</time>
      </trkpt>
      <trkpt lat="33.251824" lon="-3.704512">
        <ele>829.8</ele>
        <time>2008-09-25T11:51:17Z</time>
      </trkpt>
      <trkpt lat="33.251256" lon="-3.704540">
        <ele>830.2</ele>
        <time>2008-09-25T11:51:21Z</time>
      </trkpt>
      <trkpt lat="33.250739" lon="-3.704536">
        <ele>830.2</ele>
        <time>2008-09-25T11:51:25Z</time>
      </trkpt>
      <trkpt lat="33.250196" lon="-3.704566">
        <ele>830.7</ele>
        <time>2008-09-25T11:51:29Z</time>
      </trkpt>
      <trkpt lat="33.249627" lon="-3.704594">
        <ele>830.7</ele>
        <time>2008-09-25T11:51:33Z</time>
      </trkpt>
      <trkpt lat="33.249031" lon="-3.704642">
        <ele>831.2</ele>
        <time>2008-09-25T11:51:37Z</time>
      </trkpt>
      <trkpt lat="33.248569" lon="-3.704670">
        <ele>831.7</ele>
        <time>2008-09-25T11:51:40Z</time>
      </trkpt>
      <trkpt lat="33.248094" lon="-3.704693">
        <ele>832.2</ele>
        <time>2008-09-25T11:51:43Z</time>
      </trkpt>
      <trkpt lat="33.247626" lon="-3.704718">
        <ele>832.6</ele>
        <time>2008-09-25T11:51:46Z</time>
      </trkpt>
      <trkpt lat="33.247175" lon="-3.704751">
        <ele>832.6</ele>
        <time>2008-09-25T11:51:49Z</time>
      </trkpt>
      <trkpt lat="33.246590" lon="-3.704781">
        <ele>832.6</ele>
        <time>2008-09-25T11:51:53Z</time>
      </trkpt>
      <trkpt lat="33.246133" lon="-3.704796">
        <ele>833.1</ele>
        <time>2008-09-25T11:51:56Z</time>
      </trkpt>
      <trkpt lat="33.245531" lon="-3.704804">
        <ele>833.6</ele>
        <time>2008-09-25T11:52:00Z</time>
      </trkpt>
      <trkpt lat="33.245061" lon="-3.704834">
        <ele>834.1</ele>
        <time>2008-09-25T11:52:03Z</time>
      </trkpt>
      <trkpt lat="33.244592" lon="-3.704858">
        <ele>834.1</ele>
        <time>2008-09-25T11:52:06Z</time>
      </trkpt>
      <trkpt lat="33.244125" lon="-3.704882">
        <ele>834.6</ele>
        <time>2008-09-25T11:52:09Z</time>
      </trkpt>
      <trkpt lat="33.243670" lon="-3.704895">
        <ele>835.0</ele>
        <time>2008-09-25T11:52:12Z</time>
      </trkpt>
      <trkpt lat="33.243210" lon="-3.704928">
        <ele>835.0</ele>
        <time>2008-09-25T11:52:15Z</time>
      </trkpt>
      <trkpt lat="33.242744" lon="-3.704955">
        <ele>835.5</ele>
        <time>2008-09-25T11:52:18Z</time>
      </trkpt>
      <trkpt lat="33.242289" lon="-3.704942">
        <ele>835.5</ele>
        <time>2008-09-25T11:52:21Z</time>
      </trkpt>
      <trkpt lat="33.241817" lon="-3.704968">
        <ele>836.0</ele>
        <time>2008-09-25T11:52:24Z</time>
      </trkpt>
      <trkpt lat="33.241312" lon="-3.704982">
        <ele>836.5</ele>
        <time>2008-09-25T11:52:27Z</time>
      </trkpt>
      <trkpt lat="33.240807" lon="-3.705006">
        <ele>837.4</ele>
        <time>2008-09-25T11:52:30Z</time>
      </trkpt>
      <trkpt lat="33.240324" lon="-3.705026">
        <ele>837.9</ele>
        <time>2008-09-25T11:52:33Z</time>
      </trkpt>
      <trkpt lat="33.239742" lon="-3.705071">
        <ele>837.9</ele>
        <time>2008-09-25T11:52:37Z</time>
      </trkpt>
      <trkpt lat="33.239153" lon="-3.705108">
        <ele>838.4</ele>
        <time>2008-09-25T11:52:41Z</time>
      </trkpt>
      <trkpt lat="33.238684" lon="-3.705111">
        <ele>838.9</ele>
        <time>2008-09-25T11:52:44Z</time>
      </trkpt>
      <trkpt lat="33.238200" lon="-3.705108">
        <ele>838.9</ele>
        <time>2008-09-25T11:52:47Z</time>
      </trkpt>
      <trkpt lat="33.237708" lon="-3.705111">
        <ele>839.4</ele>
        <time>2008-09-25T11:52:50Z</time>
      </trkpt>
      <trkpt lat="33.237235" lon="-3.705121">
        <ele>839.8</ele>
        <time>2008-09-25T11:52:53Z</time>
      </trkpt>
      <trkpt lat="33.236755" lon="-3.705125">
        <ele>840.3</ele>
        <time>2008-09-25T11:52:56Z</time>
      </trkpt>
      <trkpt lat="33.236283" lon="-3.705145">
        <ele>840.8</ele>
        <time>2008-09-25T11:52:59Z</time>
      </trkpt>
      <trkpt lat="33.235814" lon="-3.705175">
        <ele>840.3</ele>
        <time>2008-09-25T11:53:02Z</time>
      </trkpt>
      <trkpt lat="33.235324" lon="-3.705193">
        <ele>839.8</ele>
        <time>2008-09-25T11:53:05Z</time>
      </trkpt>
      <trkpt lat="33.234858" lon="-3.705216">
        <ele>840.3</ele>
        <time>2008-09-25T11:53:08Z</time>
      </trkpt>
      <trkpt lat="33.234390" lon="-3.705226">
        <ele>840.3</ele>
        <time>2008-09-25T11:53:11Z</time>
      </trkpt>
      <trkpt lat="33.233914" lon="-3.705184">
        <ele>840.8</ele>
        <time>2008-09-25T11:53:14Z</time>
      </trkpt>
      <trkpt lat="33.233457" lon="-3.705154">
        <ele>841.3</ele>
        <time>2008-09-25T11:53:17Z</time>
      </trkpt>
      <trkpt lat="33.232993" lon="-3.705110">
        <ele>841.3</ele>
        <time>2008-09-25T11:53:20Z</time>
      </trkpt>
      <trkpt lat="33.232520" lon="-3.705065">
        <ele>841.3</ele>
        <time>2008-09-25T11:53:23Z</time>
      </trkpt>
      <trkpt lat="33.232068" lon="-3.705048">
        <ele>841.8</ele>
        <time>2008-09-25T11:53:26Z</time>
      </trkpt>
      <trkpt lat="33.231481" lon="-3.705054">
        <ele>842.3</ele>
        <time>2008-09-25T11:53:30Z</time>
      </trkpt>
      <trkpt lat="33.230913" lon="-3.705040">
        <ele>843.2</ele>
        <time>2008-09-25T11:53:34Z</time>
      </trkpt>
      <trkpt lat="33.230368" lon="-3.704939">
        <ele>843.7</ele>
        <time>2008-09-25T11:53:38Z</time>
      </trkpt>
      <trkpt lat="33.229818" lon="-3.704771">
        <ele>843.7</ele>
        <time>2008-09-25T11:53:42Z</time>
      </trkpt>
      <trkpt lat="33.229281" lon="-3.704634">
        <ele>843.2</ele>
        <time>2008-09-25T11:53:46Z</time>
      </trkpt>
      <trkpt lat="33.228744" lon="-3.704561">
        <ele>843.2</ele>
        <time>2008-09-25T11:53:50Z</time>
      </trkpt>
      <trkpt lat="33.228178" lon="-3.704492">
        <ele>844.7</ele>
        <time>2008-09-25T11:53:54Z</time>
      </trkpt>
      <trkpt lat="33.227719" lon="-3.704404">
        <ele>844.7</ele>
        <time>2008-09-25T11:53:57Z</time>
      </trkpt>
      <trkpt lat="33.227250" lon="-3.704331">
        <ele>845.6</ele>
        <time>2008-09-25T11:54:00Z</time>
      </trkpt>
      <trkpt lat="33.226781" lon="-3.704241">
        <ele>846.1</ele>
        <time>2008-09-25T11:54:03Z</time>
      </trkpt>
      <trkpt lat="33.226306" lon="-3.704134">
        <ele>846.6</ele>
        <time>2008-09-25T11:54:06Z</time>
      </trkpt>
      <trkpt lat="33.225839" lon="-3.704040">
        <ele>846.6</ele>
        <time>2008-09-25T11:54:09Z</time>
      </trkpt>
      <trkpt lat="33.225385" lon="-3.703964">
        <ele>847.1</ele>
        <time>2008-09-25T11:54:12Z</time>
      </trkpt>
      <trkpt lat="33.224862" lon="-3.703869">
        <ele>847.1</ele>
        <time>2008-09-25T11:54:16Z</time>
      </trkpt>
      <trkpt lat="33.224389" lon="-3.703755">
        <ele>846.6</ele>
        <time>2008-09-25T11:54:20Z</time>
      </trkpt>
      <trkpt lat="33.223894" lon="-3.703683">
        <ele>846.6</ele>
        <time>2008-09-25T11:54:25Z</time>
      </trkpt>
      <trkpt lat="33.223401" lon="-3.703548">
        <ele>847.1</ele>
        <time>2008-09-25T11:54:29Z</time>
      </trkpt>
      <trkpt lat="33.222908" lon="-3.703506">
        <ele>848.0</ele>
        <time>2008-09-25T11:54:33Z</time>
      </trkpt>
      <trkpt lat="33.222438" lon="-3.703459">
        <ele>848.5</ele>
        <time>2008-09-25T11:54:37Z</time>
      </trkpt>
      <trkpt lat="33.221950" lon="-3.703365">
        <ele>849.5</ele>
        <time>2008-09-25T11:54:42Z</time>
      </trkpt>
      <trkpt lat="33.221461" lon="-3.703287">
        <ele>850.4</ele>
        <time>2008-09-25T11:54:48Z</time>
      </trkpt>
      <trkpt lat="33.220968" lon="-3.703205">
        <ele>849.9</ele>
        <time>2008-09-25T11:54:54Z</time>
      </trkpt>
      <trkpt lat="33.220493" lon="-3.703113">
        <ele>849.9</ele>
        <time>2008-09-25T11:55:01Z</time>
      </trkpt>
      <trkpt lat="33.219987" lon="-3.703031">
        <ele>849.9</ele>
        <time>2008-09-25T11:55:07Z</time>
      </trkpt>
      <trkpt lat="33.219425" lon="-3.702937">
        <ele>850.4</ele>
        <time>2008-09-25T11:55:12Z</time>
      </trkpt>
      <trkpt lat="33.218909" lon="-3.702803">
        <ele>850.4</ele>
        <time>2008-09-25T11:55:16Z</time>
      </trkpt>
      <trkpt lat="33.218375" lon="-3.702672">
        <ele>850.4</ele>
        <time>2008-09-25T11:55:20Z</time>
      </trkpt>
      <trkpt lat="33.217833" lon="-3.702556">
        <ele>850.9</ele>
        <time>2008-09-25T11:55:24Z</time>
      </trkpt>
      <trkpt lat="33.217295" lon="-3.702433">
        <ele>850.9</ele>
        <time>2008-09-25T11:55:28Z</time>
      </trkpt>
      <trkpt lat="33.216790" lon="-3.702341">
        <ele>851.9</ele>
        <time>2008-09-25T11:55:32Z</time>
      </trkpt>
      <trkpt lat="33.216320" lon="-3.702252">
        <ele>851.9</ele>
        <time>2008-09-25T11:55:36Z</time>
      </trkpt>
      <trkpt lat="33.215822" lon="-3.702171">
        <ele>851.9</ele>
        <time>2008-09-25T11:55:40Z</time>
      </trkpt>
      <trkpt lat="33.215311" lon="-3.702070">
        <ele>852.8</ele>
        <time>2008-09-25T11:55:44Z</time>
      </trkpt>
      <trkpt lat="33.214760" lon="-3.701937">
        <ele>852.8</ele>
        <time>2008-09-25T11:55:48Z</time>
      </trkpt>
      <trkpt lat="33.214174" lon="-3.701823">
        <ele>853.3</ele>
        <time>2008-09-25T11:55:52Z</time>
      </trkpt>
      <trkpt lat="33.213731" lon="-3.701722">
        <ele>853.8</ele>
        <time>2008-09-25T11:55:55Z</time>
      </trkpt>
      <trkpt lat="33.213141" lon="-3.701625">
        <ele>854.3</ele>
        <time>2008-09-25T11:55:59Z</time>
      </trkpt>
      <trkpt lat="33.212695" lon="-3.701511">
        <ele>854.3</ele>
        <time>2008-09-25T11:56:02Z</time>
      </trkpt>
      <trkpt lat="33.212149" lon="-3.701407">
        <ele>854.7</ele>
        <time>2008-09-25T11:56:06Z</time>
      </trkpt>
      <trkpt lat="33.211634" lon="-3.701337">
        <ele>855.2</ele>
        <time>2008-09-25T11:56:10Z</time>
      </trkpt>
      <trkpt lat="33.211056" lon="-3.701247">
        <ele>855.2</ele>
        <time>2008-09-25T11:56:14Z</time>
      </trkpt>
      <trkpt lat="33.210492" lon="-3.701156">
        <ele>855.7</ele>
        <time>2008-09-25T11:56:18Z</time>
      </trkpt>
      <trkpt lat="33.209971" lon="-3.701062">
        <ele>855.7</ele>
        <time>2008-09-25T11:56:22Z</time>
      </trkpt>
      <trkpt lat="33.209515" lon="-3.700987">
        <ele>856.2</ele>
        <time>2008-09-25T11:56:26Z</time>
      </trkpt>
      <trkpt lat="33.209086" lon="-3.700892">
        <ele>862.9</ele>
        <time>2008-09-25T12:02:42Z</time>
      </trkpt>
      <trkpt lat="33.208606" lon="-3.700853">
        <ele>862.4</ele>
        <time>2008-09-25T12:02:50Z</time>
      </trkpt>
      <trkpt lat="33.208118" lon="-3.700811">
        <ele>864.4</ele>
        <time>2008-09-25T12:02:58Z</time>
      </trkpt>
      <trkpt lat="33.207604" lon="-3.700655">
        <ele>864.4</ele>
        <time>2008-09-25T12:03:05Z</time>
      </trkpt>
      <trkpt lat="33.207116" lon="-3.700532">
        <ele>865.3</ele>
        <time>2008-09-25T12:03:11Z</time>
      </trkpt>
      <trkpt lat="33.206615" lon="-3.700362">
        <ele>865.8</ele>
        <time>2008-09-25T12:03:17Z</time>
      </trkpt>
      <trkpt lat="33.206120" lon="-3.700230">
        <ele>866.3</ele>
        <time>2008-09-25T12:03:22Z</time>
      </trkpt>
      <trkpt lat="33.205588" lon="-3.700021">
        <ele>866.8</ele>
        <time>2008-09-25T12:03:27Z</time>
      </trkpt>
      <trkpt lat="33.205137" lon="-3.699867">
        <ele>868.2</ele>
        <time>2008-09-25T12:03:31Z</time>
      </trkpt>
      <trkpt lat="33.204679" lon="-3.699747">
        <ele>868.7</ele>
        <time>2008-09-25T12:03:35Z</time>
      </trkpt>
      <trkpt lat="33.204144" lon="-3.699554">
        <ele>868.7</ele>
        <time>2008-09-25T12:03:40Z</time>
      </trkpt>
      <trkpt lat="33.203691" lon="-3.699477">
        <ele>868.7</ele>
        <time>2008-09-25T12:03:44Z</time>
      </trkpt>
      <trkpt lat="33.203211" lon="-3.699366">
        <ele>869.2</ele>
        <time>2008-09-25T12:03:48Z</time>
      </trkpt>
      <trkpt lat="33.202738" lon="-3.699226">
        <ele>869.6</ele>
        <time>2008-09-25T12:03:52Z</time>
      </trkpt>
      <trkpt lat="33.202282" lon="-3.699096">
        <ele>869.6</ele>
        <time>2008-09-25T12:03:56Z</time>
      </trkpt>
      <trkpt lat="33.201805" lon="-3.698960">
        <ele>870.1</ele>
        <time>2008-09-25T12:04:01Z</time>
      </trkpt>
      <trkpt lat="33.201342" lon="-3.698938">
        <ele>870.6</ele>
        <time>2008-09-25T12:04:06Z</time>
      </trkpt>
      <trkpt lat="33.200832" lon="-3.699143">
        <ele>871.1</ele>
        <time>2008-09-25T12:04:11Z</time>
      </trkpt>
      <trkpt lat="33.200392" lon="-3.699394">
        <ele>871.1</ele>
        <time>2008-09-25T12:04:15Z</time>
      </trkpt>
      <trkpt lat="33.199933" lon="-3.699657">
        <ele>871.6</ele>
        <time>2008-09-25T12:04:19Z</time>
      </trkpt>
      <trkpt lat="33.199453" lon="-3.699947">
        <ele>871.6</ele>
        <time>2008-09-25T12:04:23Z</time>
      </trkpt>
      <trkpt lat="33.198974" lon="-3.700256">
        <ele>871.6</ele>
        <time>2008-09-25T12:04:27Z</time>
      </trkpt>
      <trkpt lat="33.198484" lon="-3.700563">
        <ele>872.1</ele>
        <time>2008-09-25T12:04:31Z</time>
      </trkpt>
      <trkpt lat="33.198015" lon="-3.700900">
        <ele>872.5</ele>
        <time>2008-09-25T12:04:35Z</time>
      </trkpt>
      <trkpt lat="33.197521" lon="-3.701219">
        <ele>873.0</ele>
        <time>2008-09-25T12:04:39Z</time>
      </trkpt>
      <trkpt lat="33.197029" lon="-3.701564">
        <ele>873.5</ele>
        <time>2008-09-25T12:04:43Z</time>
      </trkpt>
      <trkpt lat="33.196543" lon="-3.701882">
        <ele>874.5</ele>
        <time>2008-09-25T12:04:47Z</time>
      </trkpt>
      <trkpt lat="33.196064" lon="-3.702238">
        <ele>874.0</ele>
        <time>2008-09-25T12:04:51Z</time>
      </trkpt>
      <trkpt lat="33.195575" lon="-3.702619">
        <ele>874.0</ele>
        <time>2008-09-25T12:04:55Z</time>
      </trkpt>
      <trkpt lat="33.195077" lon="-3.702980">
        <ele>874.0</ele>
        <time>2008-09-25T12:04:59Z</time>
      </trkpt>
      <trkpt lat="33.194557" lon="-3.703318">
        <ele>874.0</ele>
        <time>2008-09-25T12:05:03Z</time>
      </trkpt>
      <trkpt lat="33.194144" lon="-3.703578">
        <ele>874.0</ele>
        <time>2008-09-25T12:05:06Z</time>
      </trkpt>
      <trkpt lat="33.193708" lon="-3.703844">
        <ele>874.5</ele>
        <time>2008-09-25T12:05:09Z</time>
      </trkpt>
      <trkpt lat="33.193264" lon="-3.704129">
        <ele>874.9</ele>
        <time>2008-09-25T12:05:12Z</time>
      </trkpt>
      <trkpt lat="33.192829" lon="-3.704437">
        <ele>875.4</ele>
        <time>2008-09-25T12:05:15Z</time>
      </trkpt>
      <trkpt lat="33.192413" lon="-3.704744">
        <ele>875.4</ele>
        <time>2008-09-25T12:05:18Z</time>
      </trkpt>
      <trkpt lat="33.192003" lon="-3.705029">
        <ele>875.4</ele>
        <time>2008-09-25T12:05:21Z</time>
      </trkpt>
      <trkpt lat="33.191582" lon="-3.705278">
        <ele>875.9</ele>
        <time>2008-09-25T12:05:24Z</time>
      </trkpt>
      <trkpt lat="33.191066" lon="-3.705570">
        <ele>875.9</ele>
        <time>2008-09-25T12:05:28Z</time>
      </trkpt>
      <trkpt lat="33.190629" lon="-3.705902">
        <ele>875.9</ele>
        <time>2008-09-25T12:05:32Z</time>
      </trkpt>
      <trkpt lat="33.190256" lon="-3.706213">
        <ele>875.4</ele>
        <time>2008-09-25T12:05:36Z</time>
      </trkpt>
      <trkpt lat="33.189789" lon="-3.706498">
        <ele>875.4</ele>
        <time>2008-09-25T12:05:40Z</time>
      </trkpt>
      <trkpt lat="33.189325" lon="-3.706780">
        <ele>875.9</ele>
        <time>2008-09-25T12:05:44Z</time>
      </trkpt>
      <trkpt lat="33.188903" lon="-3.707144">
        <ele>876.9</ele>
        <time>2008-09-25T12:05:48Z</time>
      </trkpt>
      <trkpt lat="33.188460" lon="-3.707473">
        <ele>876.4</ele>
        <time>2008-09-25T12:05:52Z</time>
      </trkpt>
      <trkpt lat="33.188018" lon="-3.707769">
        <ele>876.4</ele>
        <time>2008-09-25T12:05:56Z</time>
      </trkpt>
      <trkpt lat="33.187566" lon="-3.707953">
        <ele>876.9</ele>
        <time>2008-09-25T12:06:00Z</time>
      </trkpt>
      <trkpt lat="33.187121" lon="-3.708071">
        <ele>875.9</ele>
        <time>2008-09-25T12:06:07Z</time>
      </trkpt>
      <trkpt lat="33.186816" lon="-3.708514">
        <ele>874.5</ele>
        <time>2008-09-25T12:06:21Z</time>
      </trkpt>
      <trkpt lat="33.186899" lon="-3.709049">
        <ele>875.4</ele>
        <time>2008-09-25T12:06:30Z</time>
      </trkpt>
      <trkpt lat="33.186695" lon="-3.709458">
        <ele>877.8</ele>
        <time>2008-09-25T12:06:38Z</time>
      </trkpt>
      <trkpt lat="33.186139" lon="-3.709472">
        <ele>877.8</ele>
        <time>2008-09-25T12:06:44Z</time>
      </trkpt>
      <trkpt lat="33.185661" lon="-3.709476">
        <ele>878.3</ele>
        <time>2008-09-25T12:06:48Z</time>
      </trkpt>
      <trkpt lat="33.185169" lon="-3.709414">
        <ele>878.8</ele>
        <time>2008-09-25T12:06:52Z</time>
      </trkpt>
      <trkpt lat="33.184712" lon="-3.709289">
        <ele>878.8</ele>
        <time>2008-09-25T12:06:56Z</time>
      </trkpt>
      <trkpt lat="33.184279" lon="-3.709054">
        <ele>879.7</ele>
        <time>2008-09-25T12:07:02Z</time>
      </trkpt>
      <trkpt lat="33.183999" lon="-3.709466">
        <ele>880.2</ele>
        <time>2008-09-25T12:07:11Z</time>
      </trkpt>
      <trkpt lat="33.183684" lon="-3.709896">
        <ele>879.7</ele>
        <time>2008-09-25T12:07:17Z</time>
      </trkpt>
      <trkpt lat="33.183290" lon="-3.710109">
        <ele>878.3</ele>
        <time>2008-09-25T12:07:31Z</time>
      </trkpt>
      <trkpt lat="33.182839" lon="-3.710355">
        <ele>878.3</ele>
        <time>2008-09-25T12:07:39Z</time>
      </trkpt>
      <trkpt lat="33.182358" lon="-3.710502">
        <ele>877.8</ele>
        <time>2008-09-25T12:07:48Z</time>
      </trkpt>
      <trkpt lat="33.182019" lon="-3.710751">
        <ele>877.3</ele>
        <time>2008-09-25T12:08:01Z</time>
      </trkpt>
      <trkpt lat="33.181648" lon="-3.710810">
        <ele>877.8</ele>
        <time>2008-09-25T12:08:15Z</time>
      </trkpt>
      <trkpt lat="33.181326" lon="-3.711034">
        <ele>879.7</ele>
        <time>2008-09-25T12:08:42Z</time>
      </trkpt>
      <trkpt lat="33.181074" lon="-3.711582">
        <ele>879.7</ele>
        <time>2008-09-25T12:08:49Z</time>
      </trkpt>
      <trkpt lat="33.180932" lon="-3.712175">
        <ele>879.7</ele>
        <time>2008-09-25T12:08:54Z</time>
      </trkpt>
      <trkpt lat="33.180752" lon="-3.712741">
        <ele>879.3</ele>
        <time>2008-09-25T12:08:59Z</time>
      </trkpt>
      <trkpt lat="33.180530" lon="-3.713230">
        <ele>879.3</ele>
        <time>2008-09-25T12:09:04Z</time>
      </trkpt>
      <trkpt lat="33.180304" lon="-3.713812">
        <ele>879.3</ele>
        <time>2008-09-25T12:09:09Z</time>
      </trkpt>
      <trkpt lat="33.180033" lon="-3.714300">
        <ele>878.8</ele>
        <time>2008-09-25T12:09:14Z</time>
      </trkpt>
      <trkpt lat="33.179641" lon="-3.714574">
        <ele>878.8</ele>
        <time>2008-09-25T12:09:19Z</time>
      </trkpt>
      <trkpt lat="33.179162" lon="-3.714802">
        <ele>879.3</ele>
        <time>2008-09-25T12:09:24Z</time>
      </trkpt>
      <trkpt lat="33.178726" lon="-3.714880">
        <ele>878.8</ele>
        <time>2008-09-25T12:09:29Z</time>
      </trkpt>
      <trkpt lat="33.178169" lon="-3.714960">
        <ele>878.8</ele>
        <time>2008-09-25T12:09:36Z</time>
      </trkpt>
      <trkpt lat="33.177605" lon="-3.714944">
        <ele>879.3</ele>
        <time>2008-09-25T12:09:41Z</time>
      </trkpt>
      <trkpt lat="33.177050" lon="-3.714878">
        <ele>880.7</ele>
        <time>2008-09-25T12:09:46Z</time>
      </trkpt>
      <trkpt lat="33.176583" lon="-3.714939">
        <ele>880.2</ele>
        <time>2008-09-25T12:09:50Z</time>
      </trkpt>
      <trkpt lat="33.176103" lon="-3.715102">
        <ele>880.2</ele>
        <time>2008-09-25T12:09:54Z</time>
      </trkpt>
      <trkpt lat="33.175623" lon="-3.715260">
        <ele>880.2</ele>
        <time>2008-09-25T12:09:58Z</time>
      </trkpt>
      <trkpt lat="33.175079" lon="-3.715304">
        <ele>880.7</ele>
        <time>2008-09-25T12:10:03Z</time>
      </trkpt>
      <trkpt lat="33.174657" lon="-3.715070">
        <ele>881.2</ele>
        <time>2008-09-25T12:10:07Z</time>
      </trkpt>
      <trkpt lat="33.174270" lon="-3.714786">
        <ele>881.7</ele>
        <time>2008-09-25T12:10:11Z</time>
      </trkpt>
      <trkpt lat="33.173732" lon="-3.714717">
        <ele>882.6</ele>
        <time>2008-09-25T12:10:16Z</time>
      </trkpt>
      <trkpt lat="33.173253" lon="-3.714834">
        <ele>882.1</ele>
        <time>2008-09-25T12:10:20Z</time>
      </trkpt>
      <trkpt lat="33.172700" lon="-3.714866">
        <ele>882.6</ele>
        <time>2008-09-25T12:10:24Z</time>
      </trkpt>
      <trkpt lat="33.172139" lon="-3.714831">
        <ele>882.6</ele>
        <time>2008-09-25T12:10:28Z</time>
      </trkpt>
      <trkpt lat="33.171573" lon="-3.714866">
        <ele>882.6</ele>
        <time>2008-09-25T12:10:32Z</time>
      </trkpt>
      <trkpt lat="33.171002" lon="-3.714826">
        <ele>883.1</ele>
        <time>2008-09-25T12:10:36Z</time>
      </trkpt>
      <trkpt lat="33.170417" lon="-3.714864">
        <ele>883.1</ele>
        <time>2008-09-25T12:10:40Z</time>
      </trkpt>
      <trkpt lat="33.169964" lon="-3.714841">
        <ele>882.6</ele>
        <time>2008-09-25T12:10:43Z</time>
      </trkpt>
      <trkpt lat="33.169423" lon="-3.714818">
        <ele>882.6</ele>
        <time>2008-09-25T12:10:47Z</time>
      </trkpt>
      <trkpt lat="33.168926" lon="-3.714825">
        <ele>882.6</ele>
        <time>2008-09-25T12:10:51Z</time>
      </trkpt>
      <trkpt lat="33.168419" lon="-3.714955">
        <ele>883.1</ele>
        <time>2008-09-25T12:10:55Z</time>
      </trkpt>
      <trkpt lat="33.167943" lon="-3.715129">
        <ele>883.1</ele>
        <time>2008-09-25T12:10:59Z</time>
      </trkpt>
      <trkpt lat="33.167457" lon="-3.715165">
        <ele>883.6</ele>
        <time>2008-09-25T12:11:03Z</time>
      </trkpt>
      <trkpt lat="33.166975" lon="-3.715184">
        <ele>883.6</ele>
        <time>2008-09-25T12:11:07Z</time>
      </trkpt>
      <trkpt lat="33.166480" lon="-3.715189">
        <ele>884.1</ele>
        <time>2008-09-25T12:11:11Z</time>
      </trkpt>
      <trkpt lat="33.165991" lon="-3.715260">
        <ele>884.6</ele>
        <time>2008-09-25T12:11:15Z</time>
      </trkpt>
      <trkpt lat="33.165491" lon="-3.715324">
        <ele>885.0</ele>
        <time>2008-09-25T12:11:19Z</time>
      </trkpt>
      <trkpt lat="33.164978" lon="-3.715439">
        <ele>885.5</ele>
        <time>2008-09-25T12:11:23Z</time>
      </trkpt>
      <trkpt lat="33.164405" lon="-3.715509">
        <ele>886.5</ele>
        <time>2008-09-25T12:11:27Z</time>
      </trkpt>
      <trkpt lat="33.163825" lon="-3.715590">
        <ele>887.9</ele>
        <time>2008-09-25T12:11:31Z</time>
      </trkpt>
      <trkpt lat="33.163228" lon="-3.715759">
        <ele>887.4</ele>
        <time>2008-09-25T12:11:35Z</time>
      </trkpt>
      <trkpt lat="33.162791" lon="-3.715901">
        <ele>887.9</ele>
        <time>2008-09-25T12:11:38Z</time>
      </trkpt>
      <trkpt lat="33.162376" lon="-3.716103">
        <ele>887.4</ele>
        <time>2008-09-25T12:11:41Z</time>
      </trkpt>
      <trkpt lat="33.161822" lon="-3.716361">
        <ele>887.4</ele>
        <time>2008-09-25T12:11:45Z</time>
      </trkpt>
      <trkpt lat="33.161302" lon="-3.716687">
        <ele>888.4</ele>
        <time>2008-09-25T12:11:49Z</time>
      </trkpt>
      <trkpt lat="33.160807" lon="-3.717060">
        <ele>888.4</ele>
        <time>2008-09-25T12:11:53Z</time>
      </trkpt>
      <trkpt lat="33.160335" lon="-3.717500">
        <ele>887.9</ele>
        <time>2008-09-25T12:11:57Z</time>
      </trkpt>
      <trkpt lat="33.159921" lon="-3.717734">
        <ele>888.4</ele>
        <time>2008-09-25T12:12:00Z</time>
      </trkpt>
      <trkpt lat="33.159505" lon="-3.717933">
        <ele>888.4</ele>
        <time>2008-09-25T12:12:03Z</time>
      </trkpt>
      <trkpt lat="33.159031" lon="-3.718316">
        <ele>888.4</ele>
        <time>2008-09-25T12:12:07Z</time>
      </trkpt>
      <trkpt lat="33.158590" lon="-3.718740">
        <ele>888.4</ele>
        <time>2008-09-25T12:12:11Z</time>
      </trkpt>
      <trkpt lat="33.158115" lon="-3.719119">
        <ele>888.4</ele>
        <time>2008-09-25T12:12:15Z</time>
      </trkpt>
      <trkpt lat="33.157728" lon="-3.719414">
        <ele>889.4</ele>
        <time>2008-09-25T12:12:18Z</time>
      </trkpt>
      <trkpt lat="33.157255" lon="-3.719759">
        <ele>890.3</ele>
        <time>2008-09-25T12:12:22Z</time>
      </trkpt>
      <trkpt lat="33.156828" lon="-3.720154">
        <ele>890.3</ele>
        <time>2008-09-25T12:12:26Z</time>
      </trkpt>
      <trkpt lat="33.156406" lon="-3.720469">
        <ele>890.3</ele>
        <time>2008-09-25T12:12:30Z</time>
      </trkpt>
      <trkpt lat="33.155925" lon="-3.720779">
        <ele>890.8</ele>
        <time>2008-09-25T12:12:35Z</time>
      </trkpt>
      <trkpt lat="33.155458" lon="-3.721126">
        <ele>890.8</ele>
        <time>2008-09-25T12:12:39Z</time>
      </trkpt>
      <trkpt lat="33.155083" lon="-3.721431">
        <ele>891.3</ele>
        <time>2008-09-25T12:12:42Z</time>
      </trkpt>
      <trkpt lat="33.154701" lon="-3.721744">
        <ele>891.8</ele>
        <time>2008-09-25T12:12:45Z</time>
      </trkpt>
      <trkpt lat="33.154317" lon="-3.722028">
        <ele>892.7</ele>
        <time>2008-09-25T12:12:48Z</time>
      </trkpt>
      <trkpt lat="33.153903" lon="-3.722255">
        <ele>892.2</ele>
        <time>2008-09-25T12:12:51Z</time>
      </trkpt>
      <trkpt lat="33.153375" lon="-3.722567">
        <ele>892.2</ele>
        <time>2008-09-25T12:12:55Z</time>
      </trkpt>
      <trkpt lat="33.152922" lon="-3.723040">
        <ele>893.2</ele>
        <time>2008-09-25T12:12:59Z</time>
      </trkpt>
      <trkpt lat="33.152613" lon="-3.723426">
        <ele>893.7</ele>
        <time>2008-09-25T12:13:02Z</time>
      </trkpt>
      <trkpt lat="33.152300" lon="-3.723819">
        <ele>894.2</ele>
        <time>2008-09-25T12:13:05Z</time>
      </trkpt>
      <trkpt lat="33.151936" lon="-3.724164">
        <ele>894.6</ele>
        <time>2008-09-25T12:13:08Z</time>
      </trkpt>
      <trkpt lat="33.151576" lon="-3.724490">
        <ele>894.2</ele>
        <time>2008-09-25T12:13:11Z</time>
      </trkpt>
      <trkpt lat="33.151201" lon="-3.724801">
        <ele>893.2</ele>
        <time>2008-09-25T12:13:14Z</time>
      </trkpt>
      <trkpt lat="33.150804" lon="-3.725093">
        <ele>893.7</ele>
        <time>2008-09-25T12:13:17Z</time>
      </trkpt>
      <trkpt lat="33.150431" lon="-3.725445">
        <ele>894.6</ele>
        <time>2008-09-25T12:13:20Z</time>
      </trkpt>
      <trkpt lat="33.150032" lon="-3.725725">
        <ele>896.6</ele>
        <time>2008-09-25T12:13:23Z</time>
      </trkpt>
      <trkpt lat="33.149656" lon="-3.726021">
        <ele>897.0</ele>
        <time>2008-09-25T12:13:26Z</time>
      </trkpt>
      <trkpt lat="33.149219" lon="-3.726469">
        <ele>899.0</ele>
        <time>2008-09-25T12:13:30Z</time>
      </trkpt>
      <trkpt lat="33.148851" lon="-3.726893">
        <ele>897.0</ele>
        <time>2008-09-25T12:13:34Z</time>
      </trkpt>
      <trkpt lat="33.148568" lon="-3.727356">
        <ele>894.6</ele>
        <time>2008-09-25T12:13:38Z</time>
      </trkpt>
      <trkpt lat="33.148245" lon="-3.727797">
        <ele>896.6</ele>
        <time>2008-09-25T12:13:42Z</time>
      </trkpt>
      <trkpt lat="33.147837" lon="-3.728223">
        <ele>898.0</ele>
        <time>2008-09-25T12:13:46Z</time>
      </trkpt>
      <trkpt lat="33.147436" lon="-3.728643">
        <ele>898.0</ele>
        <time>2008-09-25T12:13:50Z</time>
      </trkpt>
      <trkpt lat="33.147046" lon="-3.729014">
        <ele>897.5</ele>
        <time>2008-09-25T12:13:54Z</time>
      </trkpt>
      <trkpt lat="33.146677" lon="-3.729405">
        <ele>896.6</ele>
        <time>2008-09-25T12:13:58Z</time>
      </trkpt>
      <trkpt lat="33.146303" lon="-3.729851">
        <ele>896.1</ele>
        <time>2008-09-25T12:14:03Z</time>
      </trkpt>
      <trkpt lat="33.145996" lon="-3.730258">
        <ele>897.0</ele>
        <time>2008-09-25T12:14:07Z</time>
      </trkpt>
      <trkpt lat="33.145714" lon="-3.730715">
        <ele>898.5</ele>
        <time>2008-09-25T12:14:11Z</time>
      </trkpt>
      <trkpt lat="33.145361" lon="-3.731055">
        <ele>899.5</ele>
        <time>2008-09-25T12:14:15Z</time>
      </trkpt>
      <trkpt lat="33.145000" lon="-3.731426">
        <ele>899.5</ele>
        <time>2008-09-25T12:14:20Z</time>
      </trkpt>
      <trkpt lat="33.144631" lon="-3.731772">
        <ele>899.5</ele>
        <time>2008-09-25T12:14:25Z</time>
      </trkpt>
      <trkpt lat="33.144224" lon="-3.732121">
        <ele>899.9</ele>
        <time>2008-09-25T12:14:31Z</time>
      </trkpt>
      <trkpt lat="33.143907" lon="-3.732578">
        <ele>899.0</ele>
        <time>2008-09-25T12:14:36Z</time>
      </trkpt>
      <trkpt lat="33.143637" lon="-3.733021">
        <ele>899.0</ele>
        <time>2008-09-25T12:14:40Z</time>
      </trkpt>
      <trkpt lat="33.143339" lon="-3.733486">
        <ele>898.5</ele>
        <time>2008-09-25T12:14:44Z</time>
      </trkpt>
      <trkpt lat="33.143067" lon="-3.733949">
        <ele>898.5</ele>
        <time>2008-09-25T12:14:48Z</time>
      </trkpt>
      <trkpt lat="33.142757" lon="-3.734440">
        <ele>898.5</ele>
        <time>2008-09-25T12:14:53Z</time>
      </trkpt>
      <trkpt lat="33.142414" lon="-3.734949">
        <ele>899.0</ele>
        <time>2008-09-25T12:14:58Z</time>
      </trkpt>
      <trkpt lat="33.142121" lon="-3.735391">
        <ele>899.9</ele>
        <time>2008-09-25T12:15:02Z</time>
      </trkpt>
      <trkpt lat="33.141798" lon="-3.735839">
        <ele>900.4</ele>
        <time>2008-09-25T12:15:06Z</time>
      </trkpt>
      <trkpt lat="33.141474" lon="-3.736298">
        <ele>900.9</ele>
        <time>2008-09-25T12:15:10Z</time>
      </trkpt>
      <trkpt lat="33.141161" lon="-3.736751">
        <ele>900.9</ele>
        <time>2008-09-25T12:15:14Z</time>
      </trkpt>
      <trkpt lat="33.140860" lon="-3.737146">
        <ele>900.9</ele>
        <time>2008-09-25T12:15:18Z</time>
      </trkpt>
      <trkpt lat="33.140586" lon="-3.737622">
        <ele>899.9</ele>
        <time>2008-09-25T12:15:22Z</time>
      </trkpt>
      <trkpt lat="33.140350" lon="-3.738145">
        <ele>900.4</ele>
        <time>2008-09-25T12:15:26Z</time>
      </trkpt>
      <trkpt lat="33.140064" lon="-3.738700">
        <ele>900.9</ele>
        <time>2008-09-25T12:15:30Z</time>
      </trkpt>
      <trkpt lat="33.139765" lon="-3.739270">
        <ele>901.4</ele>
        <time>2008-09-25T12:15:34Z</time>
      </trkpt>
      <trkpt lat="33.139533" lon="-3.739733">
        <ele>901.9</ele>
        <time>2008-09-25T12:15:38Z</time>
      </trkpt>
      <trkpt lat="33.139243" lon="-3.740227">
        <ele>899.5</ele>
        <time>2008-09-25T12:15:43Z</time>
      </trkpt>
      <trkpt lat="33.139035" lon="-3.740822">
        <ele>899.5</ele>
        <time>2008-09-25T12:15:48Z</time>
      </trkpt>
      <trkpt lat="33.138700" lon="-3.741259">
        <ele>899.5</ele>
        <time>2008-09-25T12:15:53Z</time>
      </trkpt>
      <trkpt lat="33.138329" lon="-3.741608">
        <ele>899.5</ele>
        <time>2008-09-25T12:15:57Z</time>
      </trkpt>
      <trkpt lat="33.137945" lon="-3.742004">
        <ele>900.4</ele>
        <time>2008-09-25T12:16:01Z</time>
      </trkpt>
      <trkpt lat="33.137616" lon="-3.742533">
        <ele>901.4</ele>
        <time>2008-09-25T12:16:06Z</time>
      </trkpt>
      <trkpt lat="33.137338" lon="-3.742969">
        <ele>902.3</ele>
        <time>2008-09-25T12:16:10Z</time>
      </trkpt>
      <trkpt lat="33.137020" lon="-3.743447">
        <ele>902.3</ele>
        <time>2008-09-25T12:16:14Z</time>
      </trkpt>
      <trkpt lat="33.136618" lon="-3.743915">
        <ele>902.8</ele>
        <time>2008-09-25T12:16:18Z</time>
      </trkpt>
      <trkpt lat="33.136330" lon="-3.744392">
        <ele>904.7</ele>
        <time>2008-09-25T12:16:22Z</time>
      </trkpt>
      <trkpt lat="33.136026" lon="-3.744822">
        <ele>905.2</ele>
        <time>2008-09-25T12:16:27Z</time>
      </trkpt>
      <trkpt lat="33.135822" lon="-3.745307">
        <ele>903.3</ele>
        <time>2008-09-25T12:16:32Z</time>
      </trkpt>
      <trkpt lat="33.135522" lon="-3.745799">
        <ele>902.8</ele>
        <time>2008-09-25T12:16:38Z</time>
      </trkpt>
      <trkpt lat="33.135244" lon="-3.746277">
        <ele>902.3</ele>
        <time>2008-09-25T12:16:43Z</time>
      </trkpt>
      <trkpt lat="33.135141" lon="-3.746845">
        <ele>904.3</ele>
        <time>2008-09-25T12:16:48Z</time>
      </trkpt>
      <trkpt lat="33.134891" lon="-3.747479">
        <ele>904.3</ele>
        <time>2008-09-25T12:16:53Z</time>
      </trkpt>
      <trkpt lat="33.134669" lon="-3.748007">
        <ele>905.7</ele>
        <time>2008-09-25T12:16:57Z</time>
      </trkpt>
      <trkpt lat="33.134544" lon="-3.748572">
        <ele>905.7</ele>
        <time>2008-09-25T12:17:01Z</time>
      </trkpt>
      <trkpt lat="33.134343" lon="-3.749112">
        <ele>905.7</ele>
        <time>2008-09-25T12:17:05Z</time>
      </trkpt>
      <trkpt lat="33.134028" lon="-3.749507">
        <ele>905.7</ele>
        <time>2008-09-25T12:17:09Z</time>
      </trkpt>
      <trkpt lat="33.133637" lon="-3.749908">
        <ele>905.7</ele>
        <time>2008-09-25T12:17:14Z</time>
      </trkpt>
      <trkpt lat="33.133224" lon="-3.750259">
        <ele>906.2</ele>
        <time>2008-09-25T12:17:18Z</time>
      </trkpt>
      <trkpt lat="33.132802" lon="-3.750680">
        <ele>906.2</ele>
        <time>2008-09-25T12:17:22Z</time>
      </trkpt>
      <trkpt lat="33.132385" lon="-3.751055">
        <ele>906.7</ele>
        <time>2008-09-25T12:17:26Z</time>
      </trkpt>
      <trkpt lat="33.132011" lon="-3.751446">
        <ele>907.1</ele>
        <time>2008-09-25T12:17:30Z</time>
      </trkpt>
      <trkpt lat="33.131730" lon="-3.751924">
        <ele>907.1</ele>
        <time>2008-09-25T12:17:34Z</time>
      </trkpt>
      <trkpt lat="33.131427" lon="-3.752386">
        <ele>907.1</ele>
        <time>2008-09-25T12:17:38Z</time>
      </trkpt>
      <trkpt lat="33.131237" lon="-3.752916">
        <ele>908.1</ele>
        <time>2008-09-25T12:17:42Z</time>
      </trkpt>
      <trkpt lat="33.131051" lon="-3.753462">
        <ele>908.1</ele>
        <time>2008-09-25T12:17:46Z</time>
      </trkpt>
      <trkpt lat="33.130906" lon="-3.753937">
        <ele>908.1</ele>
        <time>2008-09-25T12:17:51Z</time>
      </trkpt>
      <trkpt lat="33.130699" lon="-3.754442">
        <ele>908.6</ele>
        <time>2008-09-25T12:18:01Z</time>
      </trkpt>
      <trkpt lat="33.130566" lon="-3.754975">
        <ele>909.1</ele>
        <time>2008-09-25T12:18:07Z</time>
      </trkpt>
      <trkpt lat="33.130341" lon="-3.755516">
        <ele>910.5</ele>
        <time>2008-09-25T12:18:13Z</time>
      </trkpt>
      <trkpt lat="33.129915" lon="-3.755505">
        <ele>911.5</ele>
        <time>2008-09-25T12:18:20Z</time>
      </trkpt>
      <trkpt lat="33.129366" lon="-3.755542">
        <ele>911.9</ele>
        <time>2008-09-25T12:18:26Z</time>
      </trkpt>
      <trkpt lat="33.128865" lon="-3.755659">
        <ele>912.4</ele>
        <time>2008-09-25T12:18:31Z</time>
      </trkpt>
      <trkpt lat="33.128370" lon="-3.755488">
        <ele>912.4</ele>
        <time>2008-09-25T12:18:36Z</time>
      </trkpt>
      <trkpt lat="33.127808" lon="-3.755331">
        <ele>912.9</ele>
        <time>2008-09-25T12:18:41Z</time>
      </trkpt>
      <trkpt lat="33.127300" lon="-3.755124">
        <ele>912.9</ele>
        <time>2008-09-25T12:18:45Z</time>
      </trkpt>
      <trkpt lat="33.126748" lon="-3.755009">
        <ele>913.4</ele>
        <time>2008-09-25T12:18:49Z</time>
      </trkpt>
      <trkpt lat="33.126181" lon="-3.755025">
        <ele>913.9</ele>
        <time>2008-09-25T12:18:53Z</time>
      </trkpt>
      <trkpt lat="33.125616" lon="-3.755047">
        <ele>914.4</ele>
        <time>2008-09-25T12:18:57Z</time>
      </trkpt>
      <trkpt lat="33.125171" lon="-3.754999">
        <ele>914.4</ele>
        <time>2008-09-25T12:19:02Z</time>
      </trkpt>
      <trkpt lat="33.124631" lon="-3.755102">
        <ele>914.8</ele>
        <time>2008-09-25T12:19:07Z</time>
      </trkpt>
      <trkpt lat="33.124058" lon="-3.755206">
        <ele>915.8</ele>
        <time>2008-09-25T12:19:11Z</time>
      </trkpt>
      <trkpt lat="33.123543" lon="-3.755277">
        <ele>915.3</ele>
        <time>2008-09-25T12:19:15Z</time>
      </trkpt>
      <trkpt lat="33.123112" lon="-3.755087">
        <ele>915.8</ele>
        <time>2008-09-25T12:19:21Z</time>
      </trkpt>
      <trkpt lat="33.122684" lon="-3.754729">
        <ele>919.2</ele>
        <time>2008-09-25T12:19:27Z</time>
      </trkpt>
      <trkpt lat="33.122136" lon="-3.754622">
        <ele>919.6</ele>
        <time>2008-09-25T12:19:32Z</time>
      </trkpt>
      <trkpt lat="33.121663" lon="-3.754482">
        <ele>920.1</ele>
        <time>2008-09-25T12:19:36Z</time>
      </trkpt>
      <trkpt lat="33.121192" lon="-3.754354">
        <ele>921.1</ele>
        <time>2008-09-25T12:19:40Z</time>
      </trkpt>
      <trkpt lat="33.120702" lon="-3.754278">
        <ele>921.6</ele>
        <time>2008-09-25T12:19:44Z</time>
      </trkpt>
      <trkpt lat="33.120179" lon="-3.754151">
        <ele>921.6</ele>
        <time>2008-09-25T12:19:48Z</time>
      </trkpt>
      <trkpt lat="33.119650" lon="-3.753927">
        <ele>922.0</ele>
        <time>2008-09-25T12:19:52Z</time>
      </trkpt>
      <trkpt lat="33.119196" lon="-3.753554">
        <ele>923.0</ele>
        <time>2008-09-25T12:19:56Z</time>
      </trkpt>
      <trkpt lat="33.118839" lon="-3.753105">
        <ele>924.0</ele>
        <time>2008-09-25T12:20:00Z</time>
      </trkpt>
      <trkpt lat="33.118334" lon="-3.752827">
        <ele>924.9</ele>
        <time>2008-09-25T12:20:04Z</time>
      </trkpt>
      <trkpt lat="33.117775" lon="-3.752562">
        <ele>924.9</ele>
        <time>2008-09-25T12:20:08Z</time>
      </trkpt>
      <trkpt lat="33.117320" lon="-3.752396">
        <ele>925.4</ele>
        <time>2008-09-25T12:20:11Z</time>
      </trkpt>
      <trkpt lat="33.116845" lon="-3.752234">
        <ele>926.4</ele>
        <time>2008-09-25T12:20:14Z</time>
      </trkpt>
      <trkpt lat="33.116358" lon="-3.752054">
        <ele>927.3</ele>
        <time>2008-09-25T12:20:17Z</time>
      </trkpt>
      <trkpt lat="33.115891" lon="-3.751869">
        <ele>928.3</ele>
        <time>2008-09-25T12:20:20Z</time>
      </trkpt>
      <trkpt lat="33.115437" lon="-3.751729">
        <ele>929.3</ele>
        <time>2008-09-25T12:20:23Z</time>
      </trkpt>
      <trkpt lat="33.114991" lon="-3.751603">
        <ele>930.7</ele>
        <time>2008-09-25T12:20:26Z</time>
      </trkpt>
      <trkpt lat="33.114540" lon="-3.751451">
        <ele>931.2</ele>
        <time>2008-09-25T12:20:29Z</time>
      </trkpt>
      <trkpt lat="33.114066" lon="-3.751300">
        <ele>932.1</ele>
        <time>2008-09-25T12:20:32Z</time>
      </trkpt>
      <trkpt lat="33.113581" lon="-3.751123">
        <ele>933.1</ele>
        <time>2008-09-25T12:20:35Z</time>
      </trkpt>
      <trkpt lat="33.113090" lon="-3.750934">
        <ele>934.1</ele>
        <time>2008-09-25T12:20:38Z</time>
      </trkpt>
      <trkpt lat="33.112589" lon="-3.750778">
        <ele>934.5</ele>
        <time>2008-09-25T12:20:41Z</time>
      </trkpt>
      <trkpt lat="33.112066" lon="-3.750643">
        <ele>934.5</ele>
        <time>2008-09-25T12:20:44Z</time>
      </trkpt>
      <trkpt lat="33.111529" lon="-3.750509">
        <ele>934.5</ele>
        <time>2008-09-25T12:20:47Z</time>
      </trkpt>
      <trkpt lat="33.110995" lon="-3.750376">
        <ele>935.0</ele>
        <time>2008-09-25T12:20:50Z</time>
      </trkpt>
      <trkpt lat="33.110466" lon="-3.750234">
        <ele>935.5</ele>
        <time>2008-09-25T12:20:53Z</time>
      </trkpt>
      <trkpt lat="33.109940" lon="-3.750105">
        <ele>936.0</ele>
        <time>2008-09-25T12:20:56Z</time>
      </trkpt>
      <trkpt lat="33.109427" lon="-3.750013">
        <ele>936.5</ele>
        <time>2008-09-25T12:20:59Z</time>
      </trkpt>
      <trkpt lat="33.108950" lon="-3.749931">
        <ele>937.4</ele>
        <time>2008-09-25T12:21:02Z</time>
      </trkpt>
      <trkpt lat="33.108397" lon="-3.749749">
        <ele>937.9</ele>
        <time>2008-09-25T12:21:06Z</time>
      </trkpt>
      <trkpt lat="33.107893" lon="-3.749491">
        <ele>938.4</ele>
        <time>2008-09-25T12:21:10Z</time>
      </trkpt>
      <trkpt lat="33.107340" lon="-3.749177">
        <ele>938.9</ele>
        <time>2008-09-25T12:21:14Z</time>
      </trkpt>
      <trkpt lat="33.106927" lon="-3.748915">
        <ele>938.9</ele>
        <time>2008-09-25T12:21:17Z</time>
      </trkpt>
      <trkpt lat="33.106503" lon="-3.748683">
        <ele>938.9</ele>
        <time>2008-09-25T12:21:20Z</time>
      </trkpt>
      <trkpt lat="33.105931" lon="-3.748586">
        <ele>939.3</ele>
        <time>2008-09-25T12:21:24Z</time>
      </trkpt>
      <trkpt lat="33.105460" lon="-3.748724">
        <ele>939.3</ele>
        <time>2008-09-25T12:21:27Z</time>
      </trkpt>
      <trkpt lat="33.104937" lon="-3.748908">
        <ele>939.3</ele>
        <time>2008-09-25T12:21:30Z</time>
      </trkpt>
      <trkpt lat="33.104402" lon="-3.749098">
        <ele>939.3</ele>
        <time>2008-09-25T12:21:33Z</time>
      </trkpt>
      <trkpt lat="33.103900" lon="-3.749283">
        <ele>938.9</ele>
        <time>2008-09-25T12:21:36Z</time>
      </trkpt>
      <trkpt lat="33.103387" lon="-3.749460">
        <ele>938.9</ele>
        <time>2008-09-25T12:21:39Z</time>
      </trkpt>
      <trkpt lat="33.102829" lon="-3.749673">
        <ele>939.3</ele>
        <time>2008-09-25T12:21:42Z</time>
      </trkpt>
      <trkpt lat="33.102244" lon="-3.749891">
        <ele>939.3</ele>
        <time>2008-09-25T12:21:45Z</time>
      </trkpt>
      <trkpt lat="33.101659" lon="-3.750112">
        <ele>939.3</ele>
        <time>2008-09-25T12:21:48Z</time>
      </trkpt>
      <trkpt lat="33.101084" lon="-3.750321">
        <ele>939.8</ele>
        <time>2008-09-25T12:21:51Z</time>
      </trkpt>
      <trkpt lat="33.100508" lon="-3.750535">
        <ele>939.3</ele>
        <time>2008-09-25T12:21:54Z</time>
      </trkpt>
      <trkpt lat="33.099923" lon="-3.750746">
        <ele>939.3</ele>
        <time>2008-09-25T12:21:57Z</time>
      </trkpt>
      <trkpt lat="33.099352" lon="-3.750950">
        <ele>939.8</ele>
        <time>2008-09-25T12:22:00Z</time>
      </trkpt>
      <trkpt lat="33.098824" lon="-3.751143">
        <ele>939.3</ele>
        <time>2008-09-25T12:22:03Z</time>
      </trkpt>
      <trkpt lat="33.098302" lon="-3.751338">
        <ele>939.3</ele>
        <time>2008-09-25T12:22:06Z</time>
      </trkpt>
      <trkpt lat="33.097829" lon="-3.751541">
        <ele>939.3</ele>
        <time>2008-09-25T12:22:09Z</time>
      </trkpt>
      <trkpt lat="33.097351" lon="-3.751725">
        <ele>939.3</ele>
        <time>2008-09-25T12:22:12Z</time>
      </trkpt>
      <trkpt lat="33.096861" lon="-3.751925">
        <ele>939.3</ele>
        <time>2008-09-25T12:22:15Z</time>
      </trkpt>
      <trkpt lat="33.096344" lon="-3.752132">
        <ele>939.8</ele>
        <time>2008-09-25T12:22:18Z</time>
      </trkpt>
      <trkpt lat="33.095828" lon="-3.752340">
        <ele>940.8</ele>
        <time>2008-09-25T12:22:21Z</time>
      </trkpt>
      <trkpt lat="33.095328" lon="-3.752543">
        <ele>940.8</ele>
        <time>2008-09-25T12:22:24Z</time>
      </trkpt>
      <trkpt lat="33.094847" lon="-3.752734">
        <ele>941.3</ele>
        <time>2008-09-25T12:22:27Z</time>
      </trkpt>
      <trkpt lat="33.094406" lon="-3.752921">
        <ele>941.7</ele>
        <time>2008-09-25T12:22:30Z</time>
      </trkpt>
      <trkpt lat="33.093981" lon="-3.753208">
        <ele>942.2</ele>
        <time>2008-09-25T12:22:33Z</time>
      </trkpt>
      <trkpt lat="33.093529" lon="-3.753515">
        <ele>942.7</ele>
        <time>2008-09-25T12:22:36Z</time>
      </trkpt>
      <trkpt lat="33.093040" lon="-3.753821">
        <ele>943.2</ele>
        <time>2008-09-25T12:22:39Z</time>
      </trkpt>
      <trkpt lat="33.092536" lon="-3.754163">
        <ele>943.7</ele>
        <time>2008-09-25T12:22:42Z</time>
      </trkpt>
      <trkpt lat="33.092010" lon="-3.754522">
        <ele>944.2</ele>
        <time>2008-09-25T12:22:45Z</time>
      </trkpt>
      <trkpt lat="33.091465" lon="-3.754878">
        <ele>944.6</ele>
        <time>2008-09-25T12:22:48Z</time>
      </trkpt>
      <trkpt lat="33.090961" lon="-3.755202">
        <ele>945.1</ele>
        <time>2008-09-25T12:22:51Z</time>
      </trkpt>
      <trkpt lat="33.090460" lon="-3.755523">
        <ele>945.1</ele>
        <time>2008-09-25T12:22:54Z</time>
      </trkpt>
      <trkpt lat="33.089917" lon="-3.755842">
        <ele>945.6</ele>
        <time>2008-09-25T12:22:57Z</time>
      </trkpt>
      <trkpt lat="33.089364" lon="-3.756181">
        <ele>946.1</ele>
        <time>2008-09-25T12:23:00Z</time>
      </trkpt>
      <trkpt lat="33.088842" lon="-3.756502">
        <ele>946.6</ele>
        <time>2008-09-25T12:23:03Z</time>
      </trkpt>
      <trkpt lat="33.088474" lon="-3.756726">
        <ele>947.0</ele>
        <time>2008-09-25T12:23:06Z</time>
      </trkpt>
      <trkpt lat="33.088067" lon="-3.756984">
        <ele>946.6</ele>
        <time>2008-09-25T12:23:13Z</time>
      </trkpt>
      <trkpt lat="33.087669" lon="-3.757235">
        <ele>946.6</ele>
        <time>2008-09-25T12:23:20Z</time>
      </trkpt>
      <trkpt lat="33.087508" lon="-3.757705">
        <ele>946.1</ele>
        <time>2008-09-25T12:23:30Z</time>
      </trkpt>
      <trkpt lat="33.087297" lon="-3.758048">
        <ele>948.5</ele>
        <time>2008-09-25T12:23:44Z</time>
      </trkpt>
      <trkpt lat="33.086782" lon="-3.758136">
        <ele>949.0</ele>
        <time>2008-09-25T12:23:51Z</time>
      </trkpt>
      <trkpt lat="33.086572" lon="-3.758607">
        <ele>949.4</ele>
        <time>2008-09-25T12:23:56Z</time>
      </trkpt>
      <trkpt lat="33.086257" lon="-3.758992">
        <ele>949.4</ele>
        <time>2008-09-25T12:24:01Z</time>
      </trkpt>
      <trkpt lat="33.086002" lon="-3.759504">
        <ele>949.4</ele>
        <time>2008-09-25T12:24:06Z</time>
      </trkpt>
      <trkpt lat="33.085622" lon="-3.759774">
        <ele>949.4</ele>
        <time>2008-09-25T12:24:11Z</time>
      </trkpt>
      <trkpt lat="33.085338" lon="-3.760179">
        <ele>948.5</ele>
        <time>2008-09-25T12:24:44Z</time>
      </trkpt>
      <trkpt lat="33.085156" lon="-3.760713">
        <ele>949.0</ele>
        <time>2008-09-25T12:24:50Z</time>
      </trkpt>
      <trkpt lat="33.084940" lon="-3.761202">
        <ele>949.0</ele>
        <time>2008-09-25T12:24:55Z</time>
      </trkpt>
      <trkpt lat="33.084740" lon="-3.761696">
        <ele>949.4</ele>
        <time>2008-09-25T12:25:00Z</time>
      </trkpt>
      <trkpt lat="33.084508" lon="-3.762236">
        <ele>949.9</ele>
        <time>2008-09-25T12:25:05Z</time>
      </trkpt>
      <trkpt lat="33.084191" lon="-3.762778">
        <ele>949.9</ele>
        <time>2008-09-25T12:25:10Z</time>
      </trkpt>
      <trkpt lat="33.083897" lon="-3.763316">
        <ele>949.9</ele>
        <time>2008-09-25T12:25:15Z</time>
      </trkpt>
      <trkpt lat="33.083602" lon="-3.763840">
        <ele>949.9</ele>
        <time>2008-09-25T12:25:20Z</time>
      </trkpt>
      <trkpt lat="33.083469" lon="-3.764413">
        <ele>949.9</ele>
        <time>2008-09-25T12:25:25Z</time>
      </trkpt>
      <trkpt lat="33.083363" lon="-3.765039">
        <ele>949.9</ele>
        <time>2008-09-25T12:25:31Z</time>
      </trkpt>
      <trkpt lat="33.083251" lon="-3.765621">
        <ele>949.4</ele>
        <time>2008-09-25T12:25:38Z</time>
      </trkpt>
      <trkpt lat="33.083016" lon="-3.766085">
        <ele>949.0</ele>
        <time>2008-09-25T12:25:44Z</time>
      </trkpt>
      <trkpt lat="33.082642" lon="-3.766496">
        <ele>949.0</ele>
        <time>2008-09-25T12:25:50Z</time>
      </trkpt>
      <trkpt lat="33.082321" lon="-3.766964">
        <ele>948.5</ele>
        <time>2008-09-25T12:25:56Z</time>
      </trkpt>
      <trkpt lat="33.082070" lon="-3.766877">
        <ele>949.0</ele>
        <time>2008-09-25T12:26:07Z</time>
      </trkpt>
      <trkpt lat="33.081738" lon="-3.766354">
        <ele>949.9</ele>
        <time>2008-09-25T12:26:14Z</time>
      </trkpt>
      <trkpt lat="33.081429" lon="-3.765895">
        <ele>950.4</ele>
        <time>2008-09-25T12:26:19Z</time>
      </trkpt>
      <trkpt lat="33.081067" lon="-3.765467">
        <ele>951.4</ele>
        <time>2008-09-25T12:26:24Z</time>
      </trkpt>
      <trkpt lat="33.080705" lon="-3.765010">
        <ele>952.3</ele>
        <time>2008-09-25T12:26:29Z</time>
      </trkpt>
      <trkpt lat="33.080353" lon="-3.764526">
        <ele>952.8</ele>
        <time>2008-09-25T12:26:34Z</time>
      </trkpt>
      <trkpt lat="33.080001" lon="-3.764079">
        <ele>953.8</ele>
        <time>2008-09-25T12:26:39Z</time>
      </trkpt>
      <trkpt lat="33.079723" lon="-3.763646">
        <ele>953.8</ele>
        <time>2008-09-25T12:26:44Z</time>
      </trkpt>
      <trkpt lat="33.079541" lon="-3.763118">
        <ele>954.2</ele>
        <time>2008-09-25T12:26:49Z</time>
      </trkpt>
      <trkpt lat="33.079346" lon="-3.762612">
        <ele>954.7</ele>
        <time>2008-09-25T12:26:54Z</time>
      </trkpt>
      <trkpt lat="33.079133" lon="-3.762087">
        <ele>955.2</ele>
        <time>2008-09-25T12:26:59Z</time>
      </trkpt>
      <trkpt lat="33.078851" lon="-3.761565">
        <ele>955.7</ele>
        <time>2008-09-25T12:27:04Z</time>
      </trkpt>
      <trkpt lat="33.078513" lon="-3.761133">
        <ele>956.2</ele>
        <time>2008-09-25T12:27:09Z</time>
      </trkpt>
      <trkpt lat="33.078164" lon="-3.760748">
        <ele>957.6</ele>
        <time>2008-09-25T12:27:15Z</time>
      </trkpt>
      <trkpt lat="33.077789" lon="-3.760320">
        <ele>958.6</ele>
        <time>2008-09-25T12:27:21Z</time>
      </trkpt>
      <trkpt lat="33.077403" lon="-3.760022">
        <ele>958.6</ele>
        <time>2008-09-25T12:27:27Z</time>
      </trkpt>
      <trkpt lat="33.076895" lon="-3.760313">
        <ele>958.6</ele>
        <time>2008-09-25T12:27:33Z</time>
      </trkpt>
      <trkpt lat="33.076467" lon="-3.760520">
        <ele>958.1</ele>
        <time>2008-09-25T12:27:37Z</time>
      </trkpt>
      <trkpt lat="33.076017" lon="-3.760728">
        <ele>958.1</ele>
        <time>2008-09-25T12:27:41Z</time>
      </trkpt>
      <trkpt lat="33.075556" lon="-3.760949">
        <ele>958.1</ele>
        <time>2008-09-25T12:27:45Z</time>
      </trkpt>
      <trkpt lat="33.075086" lon="-3.761177">
        <ele>958.6</ele>
        <time>2008-09-25T12:27:49Z</time>
      </trkpt>
      <trkpt lat="33.074620" lon="-3.761432">
        <ele>957.6</ele>
        <time>2008-09-25T12:27:53Z</time>
      </trkpt>
      <trkpt lat="33.074141" lon="-3.761704">
        <ele>957.6</ele>
        <time>2008-09-25T12:27:57Z</time>
      </trkpt>
      <trkpt lat="33.073665" lon="-3.761976">
        <ele>957.6</ele>
        <time>2008-09-25T12:28:01Z</time>
      </trkpt>
      <trkpt lat="33.073208" lon="-3.762251">
        <ele>957.1</ele>
        <time>2008-09-25T12:28:05Z</time>
      </trkpt>
      <trkpt lat="33.072785" lon="-3.762518">
        <ele>957.6</ele>
        <time>2008-09-25T12:28:09Z</time>
      </trkpt>
      <trkpt lat="33.072341" lon="-3.762808">
        <ele>957.1</ele>
        <time>2008-09-25T12:28:13Z</time>
      </trkpt>
      <trkpt lat="33.071922" lon="-3.763086">
        <ele>957.6</ele>
        <time>2008-09-25T12:28:17Z</time>
      </trkpt>
      <trkpt lat="33.071480" lon="-3.763375">
        <ele>957.6</ele>
        <time>2008-09-25T12:28:22Z</time>
      </trkpt>
      <trkpt lat="33.071048" lon="-3.763641">
        <ele>957.6</ele>
        <time>2008-09-25T12:28:27Z</time>
      </trkpt>
      <trkpt lat="33.070606" lon="-3.763814">
        <ele>957.6</ele>
        <time>2008-09-25T12:28:32Z</time>
      </trkpt>
      <trkpt lat="33.070116" lon="-3.763826">
        <ele>958.1</ele>
        <time>2008-09-25T12:28:37Z</time>
      </trkpt>
      <trkpt lat="33.069576" lon="-3.763756">
        <ele>958.6</ele>
        <time>2008-09-25T12:28:42Z</time>
      </trkpt>
      <trkpt lat="33.069087" lon="-3.763687">
        <ele>959.1</ele>
        <time>2008-09-25T12:28:46Z</time>
      </trkpt>
      <trkpt lat="33.068560" lon="-3.763613">
        <ele>959.5</ele>
        <time>2008-09-25T12:28:50Z</time>
      </trkpt>
      <trkpt lat="33.068012" lon="-3.763524">
        <ele>960.5</ele>
        <time>2008-09-25T12:28:54Z</time>
      </trkpt>
      <trkpt lat="33.067455" lon="-3.763422">
        <ele>960.0</ele>
        <time>2008-09-25T12:28:58Z</time>
      </trkpt>
      <trkpt lat="33.066913" lon="-3.763294">
        <ele>960.5</ele>
        <time>2008-09-25T12:29:02Z</time>
      </trkpt>
      <trkpt lat="33.066368" lon="-3.763168">
        <ele>962.4</ele>
        <time>2008-09-25T12:29:06Z</time>
      </trkpt>
      <trkpt lat="33.065831" lon="-3.763082">
        <ele>963.9</ele>
        <time>2008-09-25T12:29:10Z</time>
      </trkpt>
      <trkpt lat="33.065280" lon="-3.763027">
        <ele>964.8</ele>
        <time>2008-09-25T12:29:14Z</time>
      </trkpt>
      <trkpt lat="33.064744" lon="-3.762967">
        <ele>964.8</ele>
        <time>2008-09-25T12:29:18Z</time>
      </trkpt>
      <trkpt lat="33.064244" lon="-3.762919">
        <ele>964.3</ele>
        <time>2008-09-25T12:29:22Z</time>
      </trkpt>
      <trkpt lat="33.063712" lon="-3.762866">
        <ele>963.4</ele>
        <time>2008-09-25T12:29:26Z</time>
      </trkpt>
      <trkpt lat="33.063143" lon="-3.762819">
        <ele>963.9</ele>
        <time>2008-09-25T12:29:30Z</time>
      </trkpt>
      <trkpt lat="33.062562" lon="-3.762782">
        <ele>963.9</ele>
        <time>2008-09-25T12:29:34Z</time>
      </trkpt>
      <trkpt lat="33.062002" lon="-3.762750">
        <ele>963.9</ele>
        <time>2008-09-25T12:29:38Z</time>
      </trkpt>
      <trkpt lat="33.061432" lon="-3.762733">
        <ele>964.3</ele>
        <time>2008-09-25T12:29:42Z</time>
      </trkpt>
      <trkpt lat="33.060915" lon="-3.762772">
        <ele>963.9</ele>
        <time>2008-09-25T12:29:46Z</time>
      </trkpt>
      <trkpt lat="33.060433" lon="-3.762867">
        <ele>963.9</ele>
        <time>2008-09-25T12:29:50Z</time>
      </trkpt>
      <trkpt lat="33.059966" lon="-3.763022">
        <ele>964.3</ele>
        <time>2008-09-25T12:29:54Z</time>
      </trkpt>
      <trkpt lat="33.059538" lon="-3.763183">
        <ele>963.9</ele>
        <time>2008-09-25T12:29:58Z</time>
      </trkpt>
      <trkpt lat="33.059014" lon="-3.763378">
        <ele>963.4</ele>
        <time>2008-09-25T12:30:03Z</time>
      </trkpt>
      <trkpt lat="33.058513" lon="-3.763544">
        <ele>963.4</ele>
        <time>2008-09-25T12:30:08Z</time>
      </trkpt>
      <trkpt lat="33.058031" lon="-3.763586">
        <ele>963.9</ele>
        <time>2008-09-25T12:30:13Z</time>
      </trkpt>
      <trkpt lat="33.057530" lon="-3.763398">
        <ele>964.3</ele>
        <time>2008-09-25T12:30:18Z</time>
      </trkpt>
      <trkpt lat="33.057088" lon="-3.763136">
        <ele>964.8</ele>
        <time>2008-09-25T12:30:22Z</time>
      </trkpt>
      <trkpt lat="33.056629" lon="-3.762843">
        <ele>965.3</ele>
        <time>2008-09-25T12:30:26Z</time>
      </trkpt>
      <trkpt lat="33.056170" lon="-3.762582">
        <ele>965.8</ele>
        <time>2008-09-25T12:30:30Z</time>
      </trkpt>
      <trkpt lat="33.055707" lon="-3.762330">
        <ele>966.3</ele>
        <time>2008-09-25T12:30:34Z</time>
      </trkpt>
      <trkpt lat="33.055236" lon="-3.762067">
        <ele>966.7</ele>
        <time>2008-09-25T12:30:38Z</time>
      </trkpt>
      <trkpt lat="33.054725" lon="-3.761875">
        <ele>967.7</ele>
        <time>2008-09-25T12:30:42Z</time>
      </trkpt>
      <trkpt lat="33.054184" lon="-3.761743">
        <ele>968.2</ele>
        <time>2008-09-25T12:30:46Z</time>
      </trkpt>
      <trkpt lat="33.053629" lon="-3.761602">
        <ele>968.7</ele>
        <time>2008-09-25T12:30:50Z</time>
      </trkpt>
      <trkpt lat="33.053066" lon="-3.761447">
        <ele>969.6</ele>
        <time>2008-09-25T12:30:54Z</time>
      </trkpt>
      <trkpt lat="33.052521" lon="-3.761264">
        <ele>970.1</ele>
        <time>2008-09-25T12:30:58Z</time>
      </trkpt>
      <trkpt lat="33.051993" lon="-3.761092">
        <ele>970.1</ele>
        <time>2008-09-25T12:31:02Z</time>
      </trkpt>
      <trkpt lat="33.051604" lon="-3.761022">
        <ele>968.7</ele>
        <time>2008-09-25T12:31:18Z</time>
      </trkpt>
      <trkpt lat="33.051201" lon="-3.760705">
        <ele>968.7</ele>
        <time>2008-09-25T12:31:35Z</time>
      </trkpt>
      <trkpt lat="33.050854" lon="-3.761022">
        <ele>969.6</ele>
        <time>2008-09-25T12:32:03Z</time>
      </trkpt>
      <trkpt lat="33.050470" lon="-3.761318">
        <ele>970.1</ele>
        <time>2008-09-25T12:32:13Z</time>
      </trkpt>
      <trkpt lat="33.049974" lon="-3.761449">
        <ele>970.1</ele>
        <time>2008-09-25T12:32:20Z</time>
      </trkpt>
      <trkpt lat="33.049485" lon="-3.761600">
        <ele>970.6</ele>
        <time>2008-09-25T12:32:27Z</time>
      </trkpt>
      <trkpt lat="33.048960" lon="-3.761734">
        <ele>971.1</ele>
        <time>2008-09-25T12:32:33Z</time>
      </trkpt>
      <trkpt lat="33.048482" lon="-3.761847">
        <ele>971.5</ele>
        <time>2008-09-25T12:32:38Z</time>
      </trkpt>
      <trkpt lat="33.047980" lon="-3.761949">
        <ele>972.0</ele>
        <time>2008-09-25T12:32:44Z</time>
      </trkpt>
      <trkpt lat="33.047484" lon="-3.762025">
        <ele>972.5</ele>
        <time>2008-09-25T12:32:49Z</time>
      </trkpt>
      <trkpt lat="33.046978" lon="-3.762083">
        <ele>973.5</ele>
        <time>2008-09-25T12:32:53Z</time>
      </trkpt>
      <trkpt lat="33.046387" lon="-3.762106">
        <ele>974.0</ele>
        <time>2008-09-25T12:32:57Z</time>
      </trkpt>
      <trkpt lat="33.045910" lon="-3.762162">
        <ele>974.4</ele>
        <time>2008-09-25T12:33:00Z</time>
      </trkpt>
      <trkpt lat="33.045417" lon="-3.762261">
        <ele>974.9</ele>
        <time>2008-09-25T12:33:03Z</time>
      </trkpt>
      <trkpt lat="33.044941" lon="-3.762355">
        <ele>975.9</ele>
        <time>2008-09-25T12:33:06Z</time>
      </trkpt>
      <trkpt lat="33.044456" lon="-3.762456">
        <ele>976.4</ele>
        <time>2008-09-25T12:33:09Z</time>
      </trkpt>
      <trkpt lat="33.043944" lon="-3.762542">
        <ele>976.8</ele>
        <time>2008-09-25T12:33:12Z</time>
      </trkpt>
      <trkpt lat="33.043439" lon="-3.762618">
        <ele>977.8</ele>
        <time>2008-09-25T12:33:15Z</time>
      </trkpt>
      <trkpt lat="33.042959" lon="-3.762701">
        <ele>978.3</ele>
        <time>2008-09-25T12:33:18Z</time>
      </trkpt>
      <trkpt lat="33.042531" lon="-3.762831">
        <ele>978.8</ele>
        <time>2008-09-25T12:33:21Z</time>
      </trkpt>
      <trkpt lat="33.041995" lon="-3.763058">
        <ele>978.3</ele>
        <time>2008-09-25T12:33:25Z</time>
      </trkpt>
      <trkpt lat="33.041550" lon="-3.763204">
        <ele>978.8</ele>
        <time>2008-09-25T12:33:28Z</time>
      </trkpt>
      <trkpt lat="33.041103" lon="-3.763264">
        <ele>978.8</ele>
        <time>2008-09-25T12:33:31Z</time>
      </trkpt>
      <trkpt lat="33.040599" lon="-3.763263">
        <ele>979.2</ele>
        <time>2008-09-25T12:33:35Z</time>
      </trkpt>
      <trkpt lat="33.040127" lon="-3.763325">
        <ele>979.2</ele>
        <time>2008-09-25T12:33:41Z</time>
      </trkpt>
      <trkpt lat="33.039617" lon="-3.763421">
        <ele>979.2</ele>
        <time>2008-09-25T12:33:47Z</time>
      </trkpt>
      <trkpt lat="33.039058" lon="-3.763515">
        <ele>980.2</ele>
        <time>2008-09-25T12:33:52Z</time>
      </trkpt>
      <trkpt lat="33.038524" lon="-3.763583">
        <ele>980.7</ele>
        <time>2008-09-25T12:33:56Z</time>
      </trkpt>
      <trkpt lat="33.037930" lon="-3.763670">
        <ele>982.1</ele>
        <time>2008-09-25T12:34:00Z</time>
      </trkpt>
      <trkpt lat="33.037459" lon="-3.763737">
        <ele>982.6</ele>
        <time>2008-09-25T12:34:03Z</time>
      </trkpt>
      <trkpt lat="33.036974" lon="-3.763795">
        <ele>983.6</ele>
        <time>2008-09-25T12:34:06Z</time>
      </trkpt>
      <trkpt lat="33.036476" lon="-3.763844">
        <ele>983.6</ele>
        <time>2008-09-25T12:34:09Z</time>
      </trkpt>
      <trkpt lat="33.035951" lon="-3.763881">
        <ele>984.5</ele>
        <time>2008-09-25T12:34:12Z</time>
      </trkpt>
      <trkpt lat="33.035404" lon="-3.763914">
        <ele>985.0</ele>
        <time>2008-09-25T12:34:15Z</time>
      </trkpt>
      <trkpt lat="33.034829" lon="-3.763959">
        <ele>986.0</ele>
        <time>2008-09-25T12:34:18Z</time>
      </trkpt>
      <trkpt lat="33.034241" lon="-3.764036">
        <ele>986.4</ele>
        <time>2008-09-25T12:34:21Z</time>
      </trkpt>
      <trkpt lat="33.033658" lon="-3.764103">
        <ele>986.9</ele>
        <time>2008-09-25T12:34:24Z</time>
      </trkpt>
      <trkpt lat="33.033060" lon="-3.764135">
        <ele>987.4</ele>
        <time>2008-09-25T12:34:27Z</time>
      </trkpt>
      <trkpt lat="33.032430" lon="-3.764128">
        <ele>988.4</ele>
        <time>2008-09-25T12:34:30Z</time>
      </trkpt>
      <trkpt lat="33.031780" lon="-3.764070">
        <ele>988.9</ele>
        <time>2008-09-25T12:34:33Z</time>
      </trkpt>
      <trkpt lat="33.031110" lon="-3.763985">
        <ele>989.3</ele>
        <time>2008-09-25T12:34:36Z</time>
      </trkpt>
      <trkpt lat="33.030474" lon="-3.763897">
        <ele>990.3</ele>
        <time>2008-09-25T12:34:39Z</time>
      </trkpt>
      <trkpt lat="33.029884" lon="-3.763826">
        <ele>991.3</ele>
        <time>2008-09-25T12:34:42Z</time>
      </trkpt>
      <trkpt lat="33.029277" lon="-3.763789">
        <ele>991.7</ele>
        <time>2008-09-25T12:34:45Z</time>
      </trkpt>
      <trkpt lat="33.028640" lon="-3.763827">
        <ele>991.7</ele>
        <time>2008-09-25T12:34:48Z</time>
      </trkpt>
      <trkpt lat="33.027999" lon="-3.763885">
        <ele>992.2</ele>
        <time>2008-09-25T12:34:51Z</time>
      </trkpt>
      <trkpt lat="33.027422" lon="-3.763932">
        <ele>993.2</ele>
        <time>2008-09-25T12:34:54Z</time>
      </trkpt>
      <trkpt lat="33.026883" lon="-3.764073">
        <ele>993.7</ele>
        <time>2008-09-25T12:34:57Z</time>
      </trkpt>
      <trkpt lat="33.026323" lon="-3.764298">
        <ele>994.1</ele>
        <time>2008-09-25T12:35:00Z</time>
      </trkpt>
      <trkpt lat="33.025728" lon="-3.764554">
        <ele>994.1</ele>
        <time>2008-09-25T12:35:03Z</time>
      </trkpt>
      <trkpt lat="33.025105" lon="-3.764817">
        <ele>994.6</ele>
        <time>2008-09-25T12:35:06Z</time>
      </trkpt>
      <trkpt lat="33.024457" lon="-3.765012">
        <ele>995.1</ele>
        <time>2008-09-25T12:35:09Z</time>
      </trkpt>
      <trkpt lat="33.023827" lon="-3.765151">
        <ele>996.1</ele>
        <time>2008-09-25T12:35:12Z</time>
      </trkpt>
      <trkpt lat="33.023176" lon="-3.765270">
        <ele>997.0</ele>
        <time>2008-09-25T12:35:15Z</time>
      </trkpt>
      <trkpt lat="33.022724" lon="-3.765339">
        <ele>997.0</ele>
        <time>2008-09-25T12:35:17Z</time>
      </trkpt>
      <trkpt lat="33.022270" lon="-3.765406">
        <ele>998.0</ele>
        <time>2008-09-25T12:35:19Z</time>
      </trkpt>
      <trkpt lat="33.021813" lon="-3.765477">
        <ele>998.5</ele>
        <time>2008-09-25T12:35:21Z</time>
      </trkpt>
      <trkpt lat="33.021337" lon="-3.765545">
        <ele>998.5</ele>
        <time>2008-09-25T12:35:23Z</time>
      </trkpt>
      <trkpt lat="33.020852" lon="-3.765612">
        <ele>998.9</ele>
        <time>2008-09-25T12:35:25Z</time>
      </trkpt>
      <trkpt lat="33.020366" lon="-3.765681">
        <ele>999.9</ele>
        <time>2008-09-25T12:35:27Z</time>
      </trkpt>
      <trkpt lat="33.019889" lon="-3.765747">
        <ele>999.9</ele>
        <time>2008-09-25T12:35:29Z</time>
      </trkpt>
      <trkpt lat="33.019424" lon="-3.765813">
        <ele>999.9</ele>
        <time>2008-09-25T12:35:31Z</time>
      </trkpt>
      <trkpt lat="33.018961" lon="-3.765880">
        <ele>1000.9</ele>
        <time>2008-09-25T12:35:33Z</time>
      </trkpt>
      <trkpt lat="33.018496" lon="-3.765946">
        <ele>1001.4</ele>
        <time>2008-09-25T12:35:35Z</time>
      </trkpt>
      <trkpt lat="33.018023" lon="-3.765995">
        <ele>1001.4</ele>
        <time>2008-09-25T12:35:37Z</time>
      </trkpt>
      <trkpt lat="33.017556" lon="-3.766024">
        <ele>1001.8</ele>
        <time>2008-09-25T12:35:39Z</time>
      </trkpt>
      <trkpt lat="33.017105" lon="-3.766042">
        <ele>1002.3</ele>
        <time>2008-09-25T12:35:41Z</time>
      </trkpt>
      <trkpt lat="33.016444" lon="-3.766083">
        <ele>1002.8</ele>
        <time>2008-09-25T12:35:44Z</time>
      </trkpt>
      <trkpt lat="33.015796" lon="-3.766157">
        <ele>1003.3</ele>
        <time>2008-09-25T12:35:47Z</time>
      </trkpt>
      <trkpt lat="33.015217" lon="-3.766215">
        <ele>1003.8</ele>
        <time>2008-09-25T12:35:50Z</time>
      </trkpt>
      <trkpt lat="33.014635" lon="-3.766399">
        <ele>1003.8</ele>
        <time>2008-09-25T12:35:53Z</time>
      </trkpt>
      <trkpt lat="33.014038" lon="-3.766652">
        <ele>1004.2</ele>
        <time>2008-09-25T12:35:56Z</time>
      </trkpt>
      <trkpt lat="33.013427" lon="-3.766894">
        <ele>1004.7</ele>
        <time>2008-09-25T12:35:59Z</time>
      </trkpt>
      <trkpt lat="33.012912" lon="-3.767102">
        <ele>1004.7</ele>
        <time>2008-09-25T12:36:02Z</time>
      </trkpt>
      <trkpt lat="33.012477" lon="-3.767295">
        <ele>1004.7</ele>
        <time>2008-09-25T12:36:05Z</time>
      </trkpt>
      <trkpt lat="33.011927" lon="-3.767525">
        <ele>1004.2</ele>
        <time>2008-09-25T12:36:09Z</time>
      </trkpt>
      <trkpt lat="33.011442" lon="-3.767725">
        <ele>1004.7</ele>
        <time>2008-09-25T12:36:13Z</time>
      </trkpt>
      <trkpt lat="33.010972" lon="-3.767919">
        <ele>1004.7</ele>
        <time>2008-09-25T12:36:20Z</time>
      </trkpt>
      <trkpt lat="33.010490" lon="-3.768118">
        <ele>1005.2</ele>
        <time>2008-09-25T12:36:25Z</time>
      </trkpt>
      <trkpt lat="33.009942" lon="-3.768340">
        <ele>1005.7</ele>
        <time>2008-09-25T12:36:29Z</time>
      </trkpt>
      <trkpt lat="33.009478" lon="-3.768533">
        <ele>1006.2</ele>
        <time>2008-09-25T12:36:32Z</time>
      </trkpt>
      <trkpt lat="33.008970" lon="-3.768742">
        <ele>1006.2</ele>
        <time>2008-09-25T12:36:35Z</time>
      </trkpt>
      <trkpt lat="33.008425" lon="-3.768973">
        <ele>1006.2</ele>
        <time>2008-09-25T12:36:38Z</time>
      </trkpt>
      <trkpt lat="33.007878" lon="-3.769201">
        <ele>1007.1</ele>
        <time>2008-09-25T12:36:41Z</time>
      </trkpt>
      <trkpt lat="33.007429" lon="-3.769393">
        <ele>1007.1</ele>
        <time>2008-09-25T12:36:44Z</time>
      </trkpt>
      <trkpt lat="33.006978" lon="-3.769575">
        <ele>1007.1</ele>
        <time>2008-09-25T12:36:48Z</time>
      </trkpt>
      <trkpt lat="33.006466" lon="-3.769787">
        <ele>1007.6</ele>
        <time>2008-09-25T12:36:52Z</time>
      </trkpt>
      <trkpt lat="33.006025" lon="-3.769965">
        <ele>1007.6</ele>
        <time>2008-09-25T12:36:55Z</time>
      </trkpt>
      <trkpt lat="33.005582" lon="-3.770150">
        <ele>1008.6</ele>
        <time>2008-09-25T12:36:58Z</time>
      </trkpt>
      <trkpt lat="33.005130" lon="-3.770332">
        <ele>1008.6</ele>
        <time>2008-09-25T12:37:01Z</time>
      </trkpt>
      <trkpt lat="33.004667" lon="-3.770518">
        <ele>1009.5</ele>
        <time>2008-09-25T12:37:04Z</time>
      </trkpt>
      <trkpt lat="33.004213" lon="-3.770723">
        <ele>1009.0</ele>
        <time>2008-09-25T12:37:07Z</time>
      </trkpt>
      <trkpt lat="33.003663" lon="-3.770954">
        <ele>1008.6</ele>
        <time>2008-09-25T12:37:11Z</time>
      </trkpt>
      <trkpt lat="33.003232" lon="-3.771133">
        <ele>1009.5</ele>
        <time>2008-09-25T12:37:14Z</time>
      </trkpt>
      <trkpt lat="33.002767" lon="-3.771320">
        <ele>1010.0</ele>
        <time>2008-09-25T12:37:17Z</time>
      </trkpt>
      <trkpt lat="33.002277" lon="-3.771518">
        <ele>1010.5</ele>
        <time>2008-09-25T12:37:21Z</time>
      </trkpt>
      <trkpt lat="33.001827" lon="-3.771693">
        <ele>1011.0</ele>
        <time>2008-09-25T12:37:25Z</time>
      </trkpt>
      <trkpt lat="33.001324" lon="-3.771904">
        <ele>1011.4</ele>
        <time>2008-09-25T12:37:29Z</time>
      </trkpt>
      <trkpt lat="33.000759" lon="-3.772145">
        <ele>1012.4</ele>
        <time>2008-09-25T12:37:33Z</time>
      </trkpt>
      <trkpt lat="33.000283" lon="-3.772344">
        <ele>1012.9</ele>
        <time>2008-09-25T12:37:36Z</time>
      </trkpt>
      <trkpt lat="32.999865" lon="-3.772520">
        <ele>1012.9</ele>
        <time>2008-09-25T12:37:39Z</time>
      </trkpt>
      <trkpt lat="32.999427" lon="-3.772696">
        <ele>1012.4</ele>
        <time>2008-09-25T12:37:47Z</time>
      </trkpt>
      <trkpt lat="32.998988" lon="-3.772870">
        <ele>1012.9</ele>
        <time>2008-09-25T12:38:21Z</time>
      </trkpt>
      <trkpt lat="32.998504" lon="-3.773059">
        <ele>1012.9</ele>
        <time>2008-09-25T12:38:26Z</time>
      </trkpt>
      <trkpt lat="32.998084" lon="-3.773240">
        <ele>1013.4</ele>
        <time>2008-09-25T12:38:32Z</time>
      </trkpt>
      <trkpt lat="32.997533" lon="-3.773470">
        <ele>1014.8</ele>
        <time>2008-09-25T12:38:37Z</time>
      </trkpt>
      <trkpt lat="32.996996" lon="-3.773707">
        <ele>1016.3</ele>
        <time>2008-09-25T12:38:41Z</time>
      </trkpt>
      <trkpt lat="32.996561" lon="-3.773884">
        <ele>1016.7</ele>
        <time>2008-09-25T12:38:44Z</time>
      </trkpt>
      <trkpt lat="32.996109" lon="-3.774069">
        <ele>1017.2</ele>
        <time>2008-09-25T12:38:47Z</time>
      </trkpt>
      <trkpt lat="32.995653" lon="-3.774263">
        <ele>1017.7</ele>
        <time>2008-09-25T12:38:50Z</time>
      </trkpt>
      <trkpt lat="32.995211" lon="-3.774452">
        <ele>1017.2</ele>
        <time>2008-09-25T12:38:53Z</time>
      </trkpt>
      <trkpt lat="32.994720" lon="-3.774651">
        <ele>1017.7</ele>
        <time>2008-09-25T12:38:56Z</time>
      </trkpt>
      <trkpt lat="32.994180" lon="-3.774879">
        <ele>1018.2</ele>
        <time>2008-09-25T12:38:59Z</time>
      </trkpt>
      <trkpt lat="32.993612" lon="-3.775105">
        <ele>1018.7</ele>
        <time>2008-09-25T12:39:02Z</time>
      </trkpt>
      <trkpt lat="32.993025" lon="-3.775340">
        <ele>1019.1</ele>
        <time>2008-09-25T12:39:05Z</time>
      </trkpt>
      <trkpt lat="32.992435" lon="-3.775585">
        <ele>1020.6</ele>
        <time>2008-09-25T12:39:08Z</time>
      </trkpt>
      <trkpt lat="32.991985" lon="-3.775783">
        <ele>1021.5</ele>
        <time>2008-09-25T12:39:11Z</time>
      </trkpt>
      <trkpt lat="32.991479" lon="-3.775992">
        <ele>1022.0</ele>
        <time>2008-09-25T12:39:16Z</time>
      </trkpt>
      <trkpt lat="32.990904" lon="-3.776225">
        <ele>1022.0</ele>
        <time>2008-09-25T12:39:20Z</time>
      </trkpt>
      <trkpt lat="32.990419" lon="-3.776421">
        <ele>1023.0</ele>
        <time>2008-09-25T12:39:23Z</time>
      </trkpt>
      <trkpt lat="32.989894" lon="-3.776637">
        <ele>1023.5</ele>
        <time>2008-09-25T12:39:26Z</time>
      </trkpt>
      <trkpt lat="32.989380" lon="-3.776848">
        <ele>1023.9</ele>
        <time>2008-09-25T12:39:29Z</time>
      </trkpt>
      <trkpt lat="32.988919" lon="-3.777037">
        <ele>1024.4</ele>
        <time>2008-09-25T12:39:32Z</time>
      </trkpt>
      <trkpt lat="32.988441" lon="-3.777269">
        <ele>1024.4</ele>
        <time>2008-09-25T12:39:36Z</time>
      </trkpt>
      <trkpt lat="32.987999" lon="-3.777566">
        <ele>1023.5</ele>
        <time>2008-09-25T12:39:41Z</time>
      </trkpt>
      <trkpt lat="32.987611" lon="-3.777849">
        <ele>1023.9</ele>
        <time>2008-09-25T12:39:46Z</time>
      </trkpt>
      <trkpt lat="32.987171" lon="-3.778178">
        <ele>1024.4</ele>
        <time>2008-09-25T12:39:52Z</time>
      </trkpt>
      <trkpt lat="32.986769" lon="-3.778415">
        <ele>1025.9</ele>
        <time>2008-09-25T12:39:57Z</time>
      </trkpt>
      <trkpt lat="32.986304" lon="-3.778465">
        <ele>1026.3</ele>
        <time>2008-09-25T12:40:01Z</time>
      </trkpt>
      <trkpt lat="32.985749" lon="-3.778504">
        <ele>1026.3</ele>
        <time>2008-09-25T12:40:05Z</time>
      </trkpt>
      <trkpt lat="32.985259" lon="-3.778572">
        <ele>1026.8</ele>
        <time>2008-09-25T12:40:08Z</time>
      </trkpt>
      <trkpt lat="32.984741" lon="-3.778766">
        <ele>1027.8</ele>
        <time>2008-09-25T12:40:11Z</time>
      </trkpt>
      <trkpt lat="32.984215" lon="-3.778988">
        <ele>1028.3</ele>
        <time>2008-09-25T12:40:14Z</time>
      </trkpt>
      <trkpt lat="32.983701" lon="-3.779199">
        <ele>1028.3</ele>
        <time>2008-09-25T12:40:17Z</time>
      </trkpt>
      <trkpt lat="32.983202" lon="-3.779407">
        <ele>1029.2</ele>
        <time>2008-09-25T12:40:20Z</time>
      </trkpt>
      <trkpt lat="32.982690" lon="-3.779617">
        <ele>1029.7</ele>
        <time>2008-09-25T12:40:23Z</time>
      </trkpt>
      <trkpt lat="32.982152" lon="-3.779843">
        <ele>1030.7</ele>
        <time>2008-09-25T12:40:26Z</time>
      </trkpt>
      <trkpt lat="32.981599" lon="-3.780069">
        <ele>1031.2</ele>
        <time>2008-09-25T12:40:29Z</time>
      </trkpt>
      <trkpt lat="32.981035" lon="-3.780293">
        <ele>1032.6</ele>
        <time>2008-09-25T12:40:32Z</time>
      </trkpt>
      <trkpt lat="32.980460" lon="-3.780521">
        <ele>1033.6</ele>
        <time>2008-09-25T12:40:35Z</time>
      </trkpt>
      <trkpt lat="32.979875" lon="-3.780774">
        <ele>1035.0</ele>
        <time>2008-09-25T12:40:38Z</time>
      </trkpt>
      <trkpt lat="32.979309" lon="-3.781010">
        <ele>1036.0</ele>
        <time>2008-09-25T12:40:41Z</time>
      </trkpt>
      <trkpt lat="32.978772" lon="-3.781219">
        <ele>1036.9</ele>
        <time>2008-09-25T12:40:44Z</time>
      </trkpt>
      <trkpt lat="32.978233" lon="-3.781457">
        <ele>1037.4</ele>
        <time>2008-09-25T12:40:47Z</time>
      </trkpt>
      <trkpt lat="32.977671" lon="-3.781718">
        <ele>1038.4</ele>
        <time>2008-09-25T12:40:50Z</time>
      </trkpt>
      <trkpt lat="32.977083" lon="-3.781959">
        <ele>1039.3</ele>
        <time>2008-09-25T12:40:53Z</time>
      </trkpt>
      <trkpt lat="32.976502" lon="-3.782194">
        <ele>1039.8</ele>
        <time>2008-09-25T12:40:56Z</time>
      </trkpt>
      <trkpt lat="32.975899" lon="-3.782441">
        <ele>1039.8</ele>
        <time>2008-09-25T12:40:59Z</time>
      </trkpt>
      <trkpt lat="32.975342" lon="-3.782666">
        <ele>1040.3</ele>
        <time>2008-09-25T12:41:02Z</time>
      </trkpt>
      <trkpt lat="32.974923" lon="-3.782827">
        <ele>1039.8</ele>
        <time>2008-09-25T12:41:05Z</time>
      </trkpt>
      <trkpt lat="32.974459" lon="-3.783062">
        <ele>1040.3</ele>
        <time>2008-09-25T12:41:09Z</time>
      </trkpt>
      <trkpt lat="32.973978" lon="-3.783279">
        <ele>1040.3</ele>
        <time>2008-09-25T12:41:13Z</time>
      </trkpt>
      <trkpt lat="32.973516" lon="-3.783442">
        <ele>1039.8</ele>
        <time>2008-09-25T12:41:16Z</time>
      </trkpt>
      <trkpt lat="32.973027" lon="-3.783662">
        <ele>1040.3</ele>
        <time>2008-09-25T12:41:19Z</time>
      </trkpt>
      <trkpt lat="32.972489" lon="-3.783888">
        <ele>1040.3</ele>
        <time>2008-09-25T12:41:22Z</time>
      </trkpt>
      <trkpt lat="32.971908" lon="-3.784121">
        <ele>1041.2</ele>
        <time>2008-09-25T12:41:25Z</time>
      </trkpt>
      <trkpt lat="32.971323" lon="-3.784364">
        <ele>1042.2</ele>
        <time>2008-09-25T12:41:28Z</time>
      </trkpt>
      <trkpt lat="32.970812" lon="-3.784569">
        <ele>1044.1</ele>
        <time>2008-09-25T12:41:31Z</time>
      </trkpt>
      <trkpt lat="32.970245" lon="-3.784780">
        <ele>1047.0</ele>
        <time>2008-09-25T12:41:35Z</time>
      </trkpt>
      <trkpt lat="32.969801" lon="-3.784972">
        <ele>1048.0</ele>
        <time>2008-09-25T12:41:38Z</time>
      </trkpt>
      <trkpt lat="32.969331" lon="-3.785181">
        <ele>1048.9</ele>
        <time>2008-09-25T12:41:41Z</time>
      </trkpt>
      <trkpt lat="32.968829" lon="-3.785378">
        <ele>1049.4</ele>
        <time>2008-09-25T12:41:44Z</time>
      </trkpt>
      <trkpt lat="32.968308" lon="-3.785587">
        <ele>1050.4</ele>
        <time>2008-09-25T12:41:47Z</time>
      </trkpt>
      <trkpt lat="32.967776" lon="-3.785810">
        <ele>1050.9</ele>
        <time>2008-09-25T12:41:50Z</time>
      </trkpt>
      <trkpt lat="32.967251" lon="-3.786028">
        <ele>1050.9</ele>
        <time>2008-09-25T12:41:53Z</time>
      </trkpt>
      <trkpt lat="32.966728" lon="-3.786246">
        <ele>1051.8</ele>
        <time>2008-09-25T12:41:56Z</time>
      </trkpt>
      <trkpt lat="32.966223" lon="-3.786409">
        <ele>1051.8</ele>
        <time>2008-09-25T12:41:59Z</time>
      </trkpt>
      <trkpt lat="32.965632" lon="-3.786563">
        <ele>1051.3</ele>
        <time>2008-09-25T12:42:03Z</time>
      </trkpt>
      <trkpt lat="32.965177" lon="-3.786648">
        <ele>1053.3</ele>
        <time>2008-09-25T12:42:06Z</time>
      </trkpt>
      <trkpt lat="32.964690" lon="-3.786635">
        <ele>1051.8</ele>
        <time>2008-09-25T12:42:09Z</time>
      </trkpt>
      <trkpt lat="32.964123" lon="-3.786645">
        <ele>1052.3</ele>
        <time>2008-09-25T12:42:12Z</time>
      </trkpt>
      <trkpt lat="32.963511" lon="-3.786621">
        <ele>1052.8</ele>
        <time>2008-09-25T12:42:15Z</time>
      </trkpt>
      <trkpt lat="32.962900" lon="-3.786561">
        <ele>1053.7</ele>
        <time>2008-09-25T12:42:18Z</time>
      </trkpt>
      <trkpt lat="32.962299" lon="-3.786482">
        <ele>1054.2</ele>
        <time>2008-09-25T12:42:21Z</time>
      </trkpt>
      <trkpt lat="32.961648" lon="-3.786371">
        <ele>1055.7</ele>
        <time>2008-09-25T12:42:24Z</time>
      </trkpt>
      <trkpt lat="32.961046" lon="-3.786219">
        <ele>1057.1</ele>
        <time>2008-09-25T12:42:27Z</time>
      </trkpt>
      <trkpt lat="32.960550" lon="-3.786108">
        <ele>1058.5</ele>
        <time>2008-09-25T12:42:30Z</time>
      </trkpt>
      <trkpt lat="32.960094" lon="-3.786031">
        <ele>1057.6</ele>
        <time>2008-09-25T12:42:33Z</time>
      </trkpt>
      <trkpt lat="32.959603" lon="-3.785952">
        <ele>1057.6</ele>
        <time>2008-09-25T12:42:36Z</time>
      </trkpt>
      <trkpt lat="32.959068" lon="-3.785858">
        <ele>1058.1</ele>
        <time>2008-09-25T12:42:40Z</time>
      </trkpt>
      <trkpt lat="32.958492" lon="-3.785770">
        <ele>1058.5</ele>
        <time>2008-09-25T12:42:44Z</time>
      </trkpt>
      <trkpt lat="32.958009" lon="-3.785695">
        <ele>1059.5</ele>
        <time>2008-09-25T12:42:47Z</time>
      </trkpt>
      <trkpt lat="32.957528" lon="-3.785623">
        <ele>1060.5</ele>
        <time>2008-09-25T12:42:50Z</time>
      </trkpt>
      <trkpt lat="32.957078" lon="-3.785553">
        <ele>1061.4</ele>
        <time>2008-09-25T12:42:53Z</time>
      </trkpt>
      <trkpt lat="32.956587" lon="-3.785467">
        <ele>1062.4</ele>
        <time>2008-09-25T12:42:57Z</time>
      </trkpt>
      <trkpt lat="32.956050" lon="-3.785359">
        <ele>1062.9</ele>
        <time>2008-09-25T12:43:01Z</time>
      </trkpt>
      <trkpt lat="32.955447" lon="-3.785268">
        <ele>1063.4</ele>
        <time>2008-09-25T12:43:05Z</time>
      </trkpt>
      <trkpt lat="32.954981" lon="-3.785196">
        <ele>1063.4</ele>
        <time>2008-09-25T12:43:08Z</time>
      </trkpt>
      <trkpt lat="32.954489" lon="-3.785168">
        <ele>1063.4</ele>
        <time>2008-09-25T12:43:11Z</time>
      </trkpt>
      <trkpt lat="32.953937" lon="-3.785090">
        <ele>1064.3</ele>
        <time>2008-09-25T12:43:15Z</time>
      </trkpt>
      <trkpt lat="32.953507" lon="-3.785004">
        <ele>1065.8</ele>
        <time>2008-09-25T12:43:19Z</time>
      </trkpt>
      <trkpt lat="32.952167" lon="-3.787778">
        <ele>1078.3</ele>
        <time>2008-09-25T12:43:51Z</time>
      </trkpt>
      <trkpt lat="32.952026" lon="-3.788391">
        <ele>1059.0</ele>
        <time>2008-09-25T12:43:56Z</time>
      </trkpt>
      <trkpt lat="32.952186" lon="-3.788925">
        <ele>1057.6</ele>
        <time>2008-09-25T12:44:03Z</time>
      </trkpt>
      <trkpt lat="32.952522" lon="-3.789381">
        <ele>1053.7</ele>
        <time>2008-09-25T12:44:10Z</time>
      </trkpt>
      <trkpt lat="32.952959" lon="-3.789662">
        <ele>1052.8</ele>
        <time>2008-09-25T12:44:17Z</time>
      </trkpt>
      <trkpt lat="32.953374" lon="-3.789974">
        <ele>1051.8</ele>
        <time>2008-09-25T12:44:26Z</time>
      </trkpt>
      <trkpt lat="32.953822" lon="-3.790136">
        <ele>1051.3</ele>
        <time>2008-09-25T12:44:33Z</time>
      </trkpt>
      <trkpt lat="32.954194" lon="-3.790458">
        <ele>1054.2</ele>
        <time>2008-09-25T12:44:43Z</time>
      </trkpt>
      <trkpt lat="32.953847" lon="-3.790872">
        <ele>1056.1</ele>
        <time>2008-09-25T12:44:50Z</time>
      </trkpt>
      <trkpt lat="32.953409" lon="-3.791246">
        <ele>1056.1</ele>
        <time>2008-09-25T12:44:55Z</time>
      </trkpt>
      <trkpt lat="32.953026" lon="-3.791604">
        <ele>1057.6</ele>
        <time>2008-09-25T12:44:59Z</time>
      </trkpt>
      <trkpt lat="32.952724" lon="-3.792057">
        <ele>1059.5</ele>
        <time>2008-09-25T12:45:03Z</time>
      </trkpt>
      <trkpt lat="32.952533" lon="-3.792508">
        <ele>1060.0</ele>
        <time>2008-09-25T12:45:13Z</time>
      </trkpt>
      <trkpt lat="32.952362" lon="-3.793154">
        <ele>1059.5</ele>
        <time>2008-09-25T12:45:19Z</time>
      </trkpt>
      <trkpt lat="32.952259" lon="-3.793795">
        <ele>1058.5</ele>
        <time>2008-09-25T12:45:23Z</time>
      </trkpt>
      <trkpt lat="32.952175" lon="-3.794456">
        <ele>1058.5</ele>
        <time>2008-09-25T12:45:27Z</time>
      </trkpt>
      <trkpt lat="32.952030" lon="-3.795079">
        <ele>1058.5</ele>
        <time>2008-09-25T12:45:31Z</time>
      </trkpt>
      <trkpt lat="32.951814" lon="-3.795676">
        <ele>1058.5</ele>
        <time>2008-09-25T12:45:36Z</time>
      </trkpt>
      <trkpt lat="32.951672" lon="-3.796179">
        <ele>1060.0</ele>
        <time>2008-09-25T12:45:46Z</time>
      </trkpt>
      <trkpt lat="32.951507" lon="-3.796812">
        <ele>1061.0</ele>
        <time>2008-09-25T12:45:52Z</time>
      </trkpt>
      <trkpt lat="32.951334" lon="-3.797396">
        <ele>1061.4</ele>
        <time>2008-09-25T12:45:58Z</time>
      </trkpt>
      <trkpt lat="32.951153" lon="-3.797945">
        <ele>1063.4</ele>
        <time>2008-09-25T12:46:02Z</time>
      </trkpt>
      <trkpt lat="32.951045" lon="-3.798558">
        <ele>1062.9</ele>
        <time>2008-09-25T12:46:06Z</time>
      </trkpt>
      <trkpt lat="32.950877" lon="-3.799160">
        <ele>1063.8</ele>
        <time>2008-09-25T12:46:10Z</time>
      </trkpt>
      <trkpt lat="32.950732" lon="-3.799759">
        <ele>1063.4</ele>
        <time>2008-09-25T12:46:14Z</time>
      </trkpt>
      <trkpt lat="32.950506" lon="-3.800373">
        <ele>1061.9</ele>
        <time>2008-09-25T12:46:18Z</time>
      </trkpt>
      <trkpt lat="32.950278" lon="-3.800876">
        <ele>1061.0</ele>
        <time>2008-09-25T12:46:22Z</time>
      </trkpt>
      <trkpt lat="32.949920" lon="-3.801332">
        <ele>1063.8</ele>
        <time>2008-09-25T12:46:26Z</time>
      </trkpt>
      <trkpt lat="32.949581" lon="-3.801812">
        <ele>1064.8</ele>
        <time>2008-09-25T12:46:31Z</time>
      </trkpt>
      <trkpt lat="32.949231" lon="-3.802267">
        <ele>1063.4</ele>
        <time>2008-09-25T12:46:36Z</time>
      </trkpt>
      <trkpt lat="32.948856" lon="-3.802679">
        <ele>1062.4</ele>
        <time>2008-09-25T12:46:41Z</time>
      </trkpt>
      <trkpt lat="32.948654" lon="-3.803189">
        <ele>1061.4</ele>
        <time>2008-09-25T12:46:48Z</time>
      </trkpt>
      <trkpt lat="32.948646" lon="-3.803871">
        <ele>1063.4</ele>
        <time>2008-09-25T12:46:54Z</time>
      </trkpt>
      <trkpt lat="32.948633" lon="-3.804510">
        <ele>1064.3</ele>
        <time>2008-09-25T12:46:58Z</time>
      </trkpt>
      <trkpt lat="32.948614" lon="-3.805039">
        <ele>1066.2</ele>
        <time>2008-09-25T12:47:01Z</time>
      </trkpt>
      <trkpt lat="32.948624" lon="-3.805691">
        <ele>1070.1</ele>
        <time>2008-09-25T12:47:05Z</time>
      </trkpt>
      <trkpt lat="32.948598" lon="-3.806282">
        <ele>1070.6</ele>
        <time>2008-09-25T12:47:09Z</time>
      </trkpt>
      <trkpt lat="32.948578" lon="-3.806893">
        <ele>1070.6</ele>
        <time>2008-09-25T12:47:13Z</time>
      </trkpt>
      <trkpt lat="32.948634" lon="-3.807489">
        <ele>1070.1</ele>
        <time>2008-09-25T12:47:17Z</time>
      </trkpt>
      <trkpt lat="32.948884" lon="-3.808043">
        <ele>1071.5</ele>
        <time>2008-09-25T12:47:21Z</time>
      </trkpt>
      <trkpt lat="32.949071" lon="-3.808595">
        <ele>1071.0</ele>
        <time>2008-09-25T12:47:25Z</time>
      </trkpt>
      <trkpt lat="32.949401" lon="-3.809080">
        <ele>1070.1</ele>
        <time>2008-09-25T12:47:29Z</time>
      </trkpt>
      <trkpt lat="32.949777" lon="-3.809649">
        <ele>1068.2</ele>
        <time>2008-09-25T12:47:33Z</time>
      </trkpt>
      <trkpt lat="32.950094" lon="-3.810081">
        <ele>1067.7</ele>
        <time>2008-09-25T12:47:36Z</time>
      </trkpt>
      <trkpt lat="32.950405" lon="-3.810509">
        <ele>1066.7</ele>
        <time>2008-09-25T12:47:39Z</time>
      </trkpt>
      <trkpt lat="32.950658" lon="-3.810992">
        <ele>1065.8</ele>
        <time>2008-09-25T12:47:42Z</time>
      </trkpt>
      <trkpt lat="32.950971" lon="-3.811575">
        <ele>1065.3</ele>
        <time>2008-09-25T12:47:46Z</time>
      </trkpt>
      <trkpt lat="32.951197" lon="-3.812171">
        <ele>1065.3</ele>
        <time>2008-09-25T12:47:50Z</time>
      </trkpt>
      <trkpt lat="32.951409" lon="-3.812654">
        <ele>1065.8</ele>
        <time>2008-09-25T12:47:53Z</time>
      </trkpt>
      <trkpt lat="32.951677" lon="-3.813280">
        <ele>1064.8</ele>
        <time>2008-09-25T12:47:57Z</time>
      </trkpt>
      <trkpt lat="32.951955" lon="-3.813915">
        <ele>1063.4</ele>
        <time>2008-09-25T12:48:01Z</time>
      </trkpt>
      <trkpt lat="32.952246" lon="-3.814517">
        <ele>1063.4</ele>
        <time>2008-09-25T12:48:05Z</time>
      </trkpt>
      <trkpt lat="32.952467" lon="-3.814996">
        <ele>1063.8</ele>
        <time>2008-09-25T12:48:08Z</time>
      </trkpt>
      <trkpt lat="32.952704" lon="-3.815638">
        <ele>1063.4</ele>
        <time>2008-09-25T12:48:12Z</time>
      </trkpt>
      <trkpt lat="32.952964" lon="-3.816107">
        <ele>1063.4</ele>
        <time>2008-09-25T12:48:15Z</time>
      </trkpt>
      <trkpt lat="32.953216" lon="-3.816625">
        <ele>1062.9</ele>
        <time>2008-09-25T12:48:18Z</time>
      </trkpt>
      <trkpt lat="32.953481" lon="-3.817163">
        <ele>1061.9</ele>
        <time>2008-09-25T12:48:21Z</time>
      </trkpt>
      <trkpt lat="32.953758" lon="-3.817698">
        <ele>1061.9</ele>
        <time>2008-09-25T12:48:24Z</time>
      </trkpt>
      <trkpt lat="32.953977" lon="-3.818201">
        <ele>1061.4</ele>
        <time>2008-09-25T12:48:27Z</time>
      </trkpt>
      <trkpt lat="32.954236" lon="-3.818750">
        <ele>1061.0</ele>
        <time>2008-09-25T12:48:30Z</time>
      </trkpt>
      <trkpt lat="32.954499" lon="-3.819279">
        <ele>1060.5</ele>
        <time>2008-09-25T12:48:33Z</time>
      </trkpt>
      <trkpt lat="32.954735" lon="-3.819766">
        <ele>1060.0</ele>
        <time>2008-09-25T12:48:36Z</time>
      </trkpt>
      <trkpt lat="32.954981" lon="-3.820218">
        <ele>1059.5</ele>
        <time>2008-09-25T12:48:40Z</time>
      </trkpt>
      <trkpt lat="32.955241" lon="-3.820733">
        <ele>1059.5</ele>
        <time>2008-09-25T12:48:45Z</time>
      </trkpt>
      <trkpt lat="32.955540" lon="-3.821279">
        <ele>1060.0</ele>
        <time>2008-09-25T12:48:49Z</time>
      </trkpt>
      <trkpt lat="32.955781" lon="-3.821759">
        <ele>1060.0</ele>
        <time>2008-09-25T12:48:52Z</time>
      </trkpt>
      <trkpt lat="32.956037" lon="-3.822259">
        <ele>1059.5</ele>
        <time>2008-09-25T12:48:55Z</time>
      </trkpt>
      <trkpt lat="32.956293" lon="-3.822717">
        <ele>1059.0</ele>
        <time>2008-09-25T12:48:58Z</time>
      </trkpt>
      <trkpt lat="32.956592" lon="-3.823292">
        <ele>1058.5</ele>
        <time>2008-09-25T12:49:02Z</time>
      </trkpt>
      <trkpt lat="32.956876" lon="-3.823732">
        <ele>1058.5</ele>
        <time>2008-09-25T12:49:06Z</time>
      </trkpt>
      <trkpt lat="32.957181" lon="-3.824192">
        <ele>1057.6</ele>
        <time>2008-09-25T12:49:12Z</time>
      </trkpt>
      <trkpt lat="32.957487" lon="-3.824658">
        <ele>1057.1</ele>
        <time>2008-09-25T12:49:18Z</time>
      </trkpt>
      <trkpt lat="32.957769" lon="-3.825120">
        <ele>1056.6</ele>
        <time>2008-09-25T12:49:22Z</time>
      </trkpt>
      <trkpt lat="32.958037" lon="-3.825733">
        <ele>1056.6</ele>
        <time>2008-09-25T12:49:26Z</time>
      </trkpt>
      <trkpt lat="32.958281" lon="-3.826189">
        <ele>1056.1</ele>
        <time>2008-09-25T12:49:29Z</time>
      </trkpt>
      <trkpt lat="32.958565" lon="-3.826642">
        <ele>1056.1</ele>
        <time>2008-09-25T12:49:32Z</time>
      </trkpt>
      <trkpt lat="32.958854" lon="-3.827151">
        <ele>1056.1</ele>
        <time>2008-09-25T12:49:35Z</time>
      </trkpt>
      <trkpt lat="32.959142" lon="-3.827641">
        <ele>1055.7</ele>
        <time>2008-09-25T12:49:38Z</time>
      </trkpt>
      <trkpt lat="32.959411" lon="-3.828159">
        <ele>1055.2</ele>
        <time>2008-09-25T12:49:41Z</time>
      </trkpt>
      <trkpt lat="32.959623" lon="-3.828686">
        <ele>1054.7</ele>
        <time>2008-09-25T12:49:44Z</time>
      </trkpt>
      <trkpt lat="32.959846" lon="-3.829319">
        <ele>1053.7</ele>
        <time>2008-09-25T12:49:48Z</time>
      </trkpt>
      <trkpt lat="32.959945" lon="-3.829940">
        <ele>1052.8</ele>
        <time>2008-09-25T12:49:52Z</time>
      </trkpt>
      <trkpt lat="32.959997" lon="-3.830465">
        <ele>1052.3</ele>
        <time>2008-09-25T12:49:56Z</time>
      </trkpt>
      <trkpt lat="32.960190" lon="-3.830963">
        <ele>1048.0</ele>
        <time>2008-09-25T12:50:01Z</time>
      </trkpt>
      <trkpt lat="32.960457" lon="-3.831500">
        <ele>1040.8</ele>
        <time>2008-09-25T12:50:06Z</time>
      </trkpt>
      <trkpt lat="32.960475" lon="-3.832039">
        <ele>1037.4</ele>
        <time>2008-09-25T12:50:10Z</time>
      </trkpt>
      <trkpt lat="32.960376" lon="-3.832582">
        <ele>1035.5</ele>
        <time>2008-09-25T12:50:14Z</time>
      </trkpt>
      <trkpt lat="32.960535" lon="-3.833197">
        <ele>1034.0</ele>
        <time>2008-09-25T12:50:18Z</time>
      </trkpt>
      <trkpt lat="32.960570" lon="-3.833748">
        <ele>1031.2</ele>
        <time>2008-09-25T12:50:22Z</time>
      </trkpt>
      <trkpt lat="32.960655" lon="-3.834279">
        <ele>1029.7</ele>
        <time>2008-09-25T12:50:28Z</time>
      </trkpt>
      <trkpt lat="32.960963" lon="-3.834715">
        <ele>1028.3</ele>
        <time>2008-09-25T12:50:32Z</time>
      </trkpt>
      <trkpt lat="32.961175" lon="-3.835413">
        <ele>1026.8</ele>
        <time>2008-09-25T12:50:36Z</time>
      </trkpt>
      <trkpt lat="32.961378" lon="-3.835979">
        <ele>1025.4</ele>
        <time>2008-09-25T12:50:39Z</time>
      </trkpt>
      <trkpt lat="32.961662" lon="-3.836477">
        <ele>1025.4</ele>
        <time>2008-09-25T12:50:42Z</time>
      </trkpt>
      <trkpt lat="32.961917" lon="-3.837006">
        <ele>1024.4</ele>
        <time>2008-09-25T12:50:45Z</time>
      </trkpt>
      <trkpt lat="32.962131" lon="-3.837528">
        <ele>1023.0</ele>
        <time>2008-09-25T12:50:48Z</time>
      </trkpt>
      <trkpt lat="32.962395" lon="-3.837953">
        <ele>1022.5</ele>
        <time>2008-09-25T12:50:51Z</time>
      </trkpt>
      <trkpt lat="32.962591" lon="-3.838476">
        <ele>1018.7</ele>
        <time>2008-09-25T12:50:56Z</time>
      </trkpt>
      <trkpt lat="32.962682" lon="-3.838996">
        <ele>1015.8</ele>
        <time>2008-09-25T12:51:02Z</time>
      </trkpt>
      <trkpt lat="32.962559" lon="-3.839532">
        <ele>1015.3</ele>
        <time>2008-09-25T12:51:11Z</time>
      </trkpt>
      <trkpt lat="32.962576" lon="-3.840127">
        <ele>1015.3</ele>
        <time>2008-09-25T12:51:18Z</time>
      </trkpt>
      <trkpt lat="32.962592" lon="-3.840722">
        <ele>1014.8</ele>
        <time>2008-09-25T12:51:23Z</time>
      </trkpt>
      <trkpt lat="32.962619" lon="-3.841240">
        <ele>1014.3</ele>
        <time>2008-09-25T12:51:29Z</time>
      </trkpt>
      <trkpt lat="32.962839" lon="-3.841771">
        <ele>1014.8</ele>
        <time>2008-09-25T12:51:35Z</time>
      </trkpt>
      <trkpt lat="32.963158" lon="-3.842278">
        <ele>1014.8</ele>
        <time>2008-09-25T12:51:39Z</time>
      </trkpt>
      <trkpt lat="32.963446" lon="-3.842785">
        <ele>1014.3</ele>
        <time>2008-09-25T12:51:43Z</time>
      </trkpt>
      <trkpt lat="32.963612" lon="-3.843263">
        <ele>1012.9</ele>
        <time>2008-09-25T12:51:52Z</time>
      </trkpt>
      <trkpt lat="32.963759" lon="-3.843851">
        <ele>1012.4</ele>
        <time>2008-09-25T12:51:58Z</time>
      </trkpt>
      <trkpt lat="32.963961" lon="-3.844455">
        <ele>1012.9</ele>
        <time>2008-09-25T12:52:02Z</time>
      </trkpt>
      <trkpt lat="32.964075" lon="-3.845078">
        <ele>1014.3</ele>
        <time>2008-09-25T12:52:06Z</time>
      </trkpt>
      <trkpt lat="32.964283" lon="-3.845729">
        <ele>1014.8</ele>
        <time>2008-09-25T12:52:10Z</time>
      </trkpt>
      <trkpt lat="32.964439" lon="-3.846376">
        <ele>1016.7</ele>
        <time>2008-09-25T12:52:14Z</time>
      </trkpt>
      <trkpt lat="32.964516" lon="-3.846985">
        <ele>1015.8</ele>
        <time>2008-09-25T12:52:18Z</time>
      </trkpt>
      <trkpt lat="32.964673" lon="-3.847664">
        <ele>1014.3</ele>
        <time>2008-09-25T12:52:22Z</time>
      </trkpt>
      <trkpt lat="32.964802" lon="-3.848227">
        <ele>1014.3</ele>
        <time>2008-09-25T12:52:25Z</time>
      </trkpt>
      <trkpt lat="32.964922" lon="-3.848765">
        <ele>1013.4</ele>
        <time>2008-09-25T12:52:28Z</time>
      </trkpt>
      <trkpt lat="32.965043" lon="-3.849316">
        <ele>1011.9</ele>
        <time>2008-09-25T12:52:31Z</time>
      </trkpt>
      <trkpt lat="32.965164" lon="-3.849859">
        <ele>1010.5</ele>
        <time>2008-09-25T12:52:34Z</time>
      </trkpt>
      <trkpt lat="32.965307" lon="-3.850410">
        <ele>1010.0</ele>
        <time>2008-09-25T12:52:37Z</time>
      </trkpt>
      <trkpt lat="32.965502" lon="-3.850987">
        <ele>1010.5</ele>
        <time>2008-09-25T12:52:40Z</time>
      </trkpt>
      <trkpt lat="32.965646" lon="-3.851585">
        <ele>1009.5</ele>
        <time>2008-09-25T12:52:43Z</time>
      </trkpt>
      <trkpt lat="32.965813" lon="-3.852123">
        <ele>1009.5</ele>
        <time>2008-09-25T12:52:46Z</time>
      </trkpt>
      <trkpt lat="32.966033" lon="-3.852664">
        <ele>1009.0</ele>
        <time>2008-09-25T12:52:50Z</time>
      </trkpt>
      <trkpt lat="32.966315" lon="-3.853223">
        <ele>1008.1</ele>
        <time>2008-09-25T12:52:54Z</time>
      </trkpt>
      <trkpt lat="32.966576" lon="-3.853686">
        <ele>1008.1</ele>
        <time>2008-09-25T12:52:57Z</time>
      </trkpt>
      <trkpt lat="32.966822" lon="-3.854185">
        <ele>1008.1</ele>
        <time>2008-09-25T12:53:00Z</time>
      </trkpt>
      <trkpt lat="32.967003" lon="-3.854755">
        <ele>1008.6</ele>
        <time>2008-09-25T12:53:03Z</time>
      </trkpt>
      <trkpt lat="32.967203" lon="-3.855351">
        <ele>1008.1</ele>
        <time>2008-09-25T12:53:06Z</time>
      </trkpt>
      <trkpt lat="32.967408" lon="-3.855935">
        <ele>1007.6</ele>
        <time>2008-09-25T12:53:09Z</time>
      </trkpt>
      <trkpt lat="32.967627" lon="-3.856562">
        <ele>1006.6</ele>
        <time>2008-09-25T12:53:12Z</time>
      </trkpt>
      <trkpt lat="32.967854" lon="-3.857200">
        <ele>1006.2</ele>
        <time>2008-09-25T12:53:15Z</time>
      </trkpt>
      <trkpt lat="32.968048" lon="-3.857869">
        <ele>1005.7</ele>
        <time>2008-09-25T12:53:18Z</time>
      </trkpt>
      <trkpt lat="32.968221" lon="-3.858543">
        <ele>1004.7</ele>
        <time>2008-09-25T12:53:21Z</time>
      </trkpt>
      <trkpt lat="32.968382" lon="-3.859198">
        <ele>1004.2</ele>
        <time>2008-09-25T12:53:24Z</time>
      </trkpt>
      <trkpt lat="32.968550" lon="-3.859867">
        <ele>1003.3</ele>
        <time>2008-09-25T12:53:27Z</time>
      </trkpt>
      <trkpt lat="32.968755" lon="-3.860521">
        <ele>1002.3</ele>
        <time>2008-09-25T12:53:30Z</time>
      </trkpt>
      <trkpt lat="32.969010" lon="-3.861110">
        <ele>1001.8</ele>
        <time>2008-09-25T12:53:33Z</time>
      </trkpt>
      <trkpt lat="32.969317" lon="-3.861604">
        <ele>1001.4</ele>
        <time>2008-09-25T12:53:36Z</time>
      </trkpt>
      <trkpt lat="32.969587" lon="-3.862050">
        <ele>1000.4</ele>
        <time>2008-09-25T12:53:39Z</time>
      </trkpt>
      <trkpt lat="32.969755" lon="-3.862704">
        <ele>1000.4</ele>
        <time>2008-09-25T12:53:43Z</time>
      </trkpt>
      <trkpt lat="32.969860" lon="-3.863245">
        <ele>998.5</ele>
        <time>2008-09-25T12:53:46Z</time>
      </trkpt>
      <trkpt lat="32.970017" lon="-3.863879">
        <ele>997.0</ele>
        <time>2008-09-25T12:53:49Z</time>
      </trkpt>
      <trkpt lat="32.970160" lon="-3.864554">
        <ele>996.1</ele>
        <time>2008-09-25T12:53:52Z</time>
      </trkpt>
      <trkpt lat="32.970322" lon="-3.865237">
        <ele>995.6</ele>
        <time>2008-09-25T12:53:55Z</time>
      </trkpt>
      <trkpt lat="32.970495" lon="-3.865904">
        <ele>995.6</ele>
        <time>2008-09-25T12:53:58Z</time>
      </trkpt>
      <trkpt lat="32.970674" lon="-3.866573">
        <ele>995.1</ele>
        <time>2008-09-25T12:54:01Z</time>
      </trkpt>
      <trkpt lat="32.970828" lon="-3.867157">
        <ele>995.1</ele>
        <time>2008-09-25T12:54:04Z</time>
      </trkpt>
      <trkpt lat="32.970916" lon="-3.867699">
        <ele>994.6</ele>
        <time>2008-09-25T12:54:07Z</time>
      </trkpt>
      <trkpt lat="32.971032" lon="-3.868314">
        <ele>992.2</ele>
        <time>2008-09-25T12:54:10Z</time>
      </trkpt>
      <trkpt lat="32.971183" lon="-3.868959">
        <ele>990.8</ele>
        <time>2008-09-25T12:54:13Z</time>
      </trkpt>
      <trkpt lat="32.971336" lon="-3.869569">
        <ele>990.3</ele>
        <time>2008-09-25T12:54:16Z</time>
      </trkpt>
      <trkpt lat="32.971510" lon="-3.870171">
        <ele>989.3</ele>
        <time>2008-09-25T12:54:19Z</time>
      </trkpt>
      <trkpt lat="32.971700" lon="-3.870723">
        <ele>988.4</ele>
        <time>2008-09-25T12:54:22Z</time>
      </trkpt>
      <trkpt lat="32.971966" lon="-3.871293">
        <ele>988.4</ele>
        <time>2008-09-25T12:54:26Z</time>
      </trkpt>
      <trkpt lat="32.972251" lon="-3.871854">
        <ele>987.9</ele>
        <time>2008-09-25T12:54:30Z</time>
      </trkpt>
      <trkpt lat="32.972551" lon="-3.872261">
        <ele>988.4</ele>
        <time>2008-09-25T12:54:33Z</time>
      </trkpt>
      <trkpt lat="32.972871" lon="-3.872697">
        <ele>987.4</ele>
        <time>2008-09-25T12:54:36Z</time>
      </trkpt>
      <trkpt lat="32.973201" lon="-3.873112">
        <ele>986.4</ele>
        <time>2008-09-25T12:54:39Z</time>
      </trkpt>
      <trkpt lat="32.973568" lon="-3.873487">
        <ele>985.5</ele>
        <time>2008-09-25T12:54:42Z</time>
      </trkpt>
      <trkpt lat="32.973973" lon="-3.873837">
        <ele>985.0</ele>
        <time>2008-09-25T12:54:45Z</time>
      </trkpt>
      <trkpt lat="32.974395" lon="-3.874242">
        <ele>985.0</ele>
        <time>2008-09-25T12:54:48Z</time>
      </trkpt>
      <trkpt lat="32.974772" lon="-3.874742">
        <ele>984.5</ele>
        <time>2008-09-25T12:54:51Z</time>
      </trkpt>
      <trkpt lat="32.975101" lon="-3.875316">
        <ele>984.0</ele>
        <time>2008-09-25T12:54:54Z</time>
      </trkpt>
      <trkpt lat="32.975431" lon="-3.875905">
        <ele>983.6</ele>
        <time>2008-09-25T12:54:57Z</time>
      </trkpt>
      <trkpt lat="32.975818" lon="-3.876509">
        <ele>983.1</ele>
        <time>2008-09-25T12:55:00Z</time>
      </trkpt>
      <trkpt lat="32.976181" lon="-3.877130">
        <ele>982.1</ele>
        <time>2008-09-25T12:55:03Z</time>
      </trkpt>
      <trkpt lat="32.976511" lon="-3.877673">
        <ele>981.6</ele>
        <time>2008-09-25T12:55:06Z</time>
      </trkpt>
      <trkpt lat="32.976843" lon="-3.878201">
        <ele>981.2</ele>
        <time>2008-09-25T12:55:09Z</time>
      </trkpt>
      <trkpt lat="32.977131" lon="-3.878741">
        <ele>981.2</ele>
        <time>2008-09-25T12:55:12Z</time>
      </trkpt>
      <trkpt lat="32.977400" lon="-3.879294">
        <ele>980.7</ele>
        <time>2008-09-25T12:55:15Z</time>
      </trkpt>
      <trkpt lat="32.977644" lon="-3.879807">
        <ele>980.2</ele>
        <time>2008-09-25T12:55:18Z</time>
      </trkpt>
      <trkpt lat="32.977862" lon="-3.880259">
        <ele>980.2</ele>
        <time>2008-09-25T12:55:22Z</time>
      </trkpt>
      <trkpt lat="32.978117" lon="-3.880697">
        <ele>980.2</ele>
        <time>2008-09-25T12:55:27Z</time>
      </trkpt>
      <trkpt lat="32.978330" lon="-3.881237">
        <ele>980.2</ele>
        <time>2008-09-25T12:55:34Z</time>
      </trkpt>
      <trkpt lat="32.978594" lon="-3.881743">
        <ele>979.7</ele>
        <time>2008-09-25T12:55:39Z</time>
      </trkpt>
      <trkpt lat="32.978994" lon="-3.882128">
        <ele>979.2</ele>
        <time>2008-09-25T12:55:43Z</time>
      </trkpt>
      <trkpt lat="32.979394" lon="-3.882593">
        <ele>978.8</ele>
        <time>2008-09-25T12:55:47Z</time>
      </trkpt>
      <trkpt lat="32.979798" lon="-3.883065">
        <ele>977.8</ele>
        <time>2008-09-25T12:55:51Z</time>
      </trkpt>
      <trkpt lat="32.980251" lon="-3.883381">
        <ele>977.3</ele>
        <time>2008-09-25T12:55:55Z</time>
      </trkpt>
      <trkpt lat="32.980747" lon="-3.883712">
        <ele>976.8</ele>
        <time>2008-09-25T12:55:59Z</time>
      </trkpt>
      <trkpt lat="32.981159" lon="-3.884096">
        <ele>975.9</ele>
        <time>2008-09-25T12:56:03Z</time>
      </trkpt>
      <trkpt lat="32.981437" lon="-3.884487">
        <ele>975.9</ele>
        <time>2008-09-25T12:56:08Z</time>
      </trkpt>
      <trkpt lat="32.981929" lon="-3.884699">
        <ele>975.9</ele>
        <time>2008-09-25T12:56:14Z</time>
      </trkpt>
      <trkpt lat="32.982424" lon="-3.885046">
        <ele>975.4</ele>
        <time>2008-09-25T12:56:18Z</time>
      </trkpt>
      <trkpt lat="32.982817" lon="-3.885374">
        <ele>974.4</ele>
        <time>2008-09-25T12:56:21Z</time>
      </trkpt>
      <trkpt lat="32.983208" lon="-3.885658">
        <ele>974.4</ele>
        <time>2008-09-25T12:56:24Z</time>
      </trkpt>
      <trkpt lat="32.983685" lon="-3.885949">
        <ele>973.5</ele>
        <time>2008-09-25T12:56:28Z</time>
      </trkpt>
      <trkpt lat="32.984196" lon="-3.886168">
        <ele>972.5</ele>
        <time>2008-09-25T12:56:32Z</time>
      </trkpt>
      <trkpt lat="32.984563" lon="-3.886540">
        <ele>972.5</ele>
        <time>2008-09-25T12:56:37Z</time>
      </trkpt>
      <trkpt lat="32.984982" lon="-3.886879">
        <ele>972.0</ele>
        <time>2008-09-25T12:56:42Z</time>
      </trkpt>
      <trkpt lat="32.985386" lon="-3.887260">
        <ele>971.5</ele>
        <time>2008-09-25T12:56:46Z</time>
      </trkpt>
      <trkpt lat="32.985823" lon="-3.887678">
        <ele>970.6</ele>
        <time>2008-09-25T12:56:50Z</time>
      </trkpt>
      <trkpt lat="32.986223" lon="-3.888016">
        <ele>969.1</ele>
        <time>2008-09-25T12:56:53Z</time>
      </trkpt>
      <trkpt lat="32.986660" lon="-3.888371">
        <ele>968.7</ele>
        <time>2008-09-25T12:56:56Z</time>
      </trkpt>
      <trkpt lat="32.987113" lon="-3.888688">
        <ele>968.2</ele>
        <time>2008-09-25T12:56:59Z</time>
      </trkpt>
      <trkpt lat="32.987529" lon="-3.888940">
        <ele>967.7</ele>
        <time>2008-09-25T12:57:02Z</time>
      </trkpt>
      <trkpt lat="32.987947" lon="-3.889206">
        <ele>967.2</ele>
        <time>2008-09-25T12:57:05Z</time>
      </trkpt>
      <trkpt lat="32.988329" lon="-3.889488">
        <ele>966.7</ele>
        <time>2008-09-25T12:57:08Z</time>
      </trkpt>
      <trkpt lat="32.988837" lon="-3.889897">
        <ele>966.3</ele>
        <time>2008-09-25T12:57:12Z</time>
      </trkpt>
      <trkpt lat="32.989223" lon="-3.890236">
        <ele>965.8</ele>
        <time>2008-09-25T12:57:15Z</time>
      </trkpt>
      <trkpt lat="32.989658" lon="-3.890529">
        <ele>965.3</ele>
        <time>2008-09-25T12:57:18Z</time>
      </trkpt>
      <trkpt lat="32.990124" lon="-3.890833">
        <ele>964.8</ele>
        <time>2008-09-25T12:57:21Z</time>
      </trkpt>
      <trkpt lat="32.990538" lon="-3.891184">
        <ele>963.9</ele>
        <time>2008-09-25T12:57:24Z</time>
      </trkpt>
      <trkpt lat="32.991004" lon="-3.891490">
        <ele>963.4</ele>
        <time>2008-09-25T12:57:27Z</time>
      </trkpt>
      <trkpt lat="32.991459" lon="-3.891782">
        <ele>962.9</ele>
        <time>2008-09-25T12:57:30Z</time>
      </trkpt>
      <trkpt lat="32.991946" lon="-3.892113">
        <ele>961.9</ele>
        <time>2008-09-25T12:57:34Z</time>
      </trkpt>
      <trkpt lat="32.992454" lon="-3.892401">
        <ele>961.9</ele>
        <time>2008-09-25T12:57:38Z</time>
      </trkpt>
      <trkpt lat="32.992944" lon="-3.892699">
        <ele>962.9</ele>
        <time>2008-09-25T12:57:42Z</time>
      </trkpt>
      <trkpt lat="32.993380" lon="-3.893092">
        <ele>961.0</ele>
        <time>2008-09-25T12:57:46Z</time>
      </trkpt>
      <trkpt lat="32.993800" lon="-3.893456">
        <ele>961.9</ele>
        <time>2008-09-25T12:57:50Z</time>
      </trkpt>
      <trkpt lat="32.994166" lon="-3.893822">
        <ele>962.9</ele>
        <time>2008-09-25T12:57:54Z</time>
      </trkpt>
      <trkpt lat="32.994657" lon="-3.894076">
        <ele>962.4</ele>
        <time>2008-09-25T12:57:58Z</time>
      </trkpt>
      <trkpt lat="32.995157" lon="-3.894348">
        <ele>961.9</ele>
        <time>2008-09-25T12:58:02Z</time>
      </trkpt>
      <trkpt lat="32.995665" lon="-3.894498">
        <ele>958.6</ele>
        <time>2008-09-25T12:58:07Z</time>
      </trkpt>
      <trkpt lat="32.995999" lon="-3.894890">
        <ele>957.6</ele>
        <time>2008-09-25T12:58:12Z</time>
      </trkpt>
      <trkpt lat="32.996426" lon="-3.895058">
        <ele>956.6</ele>
        <time>2008-09-25T12:58:18Z</time>
      </trkpt>
      <trkpt lat="32.996837" lon="-3.894820">
        <ele>958.6</ele>
        <time>2008-09-25T12:58:23Z</time>
      </trkpt>
      <trkpt lat="32.997271" lon="-3.894682">
        <ele>958.1</ele>
        <time>2008-09-25T12:58:28Z</time>
      </trkpt>
      <trkpt lat="32.997769" lon="-3.894755">
        <ele>956.2</ele>
        <time>2008-09-25T12:58:33Z</time>
      </trkpt>
      <trkpt lat="32.998290" lon="-3.894774">
        <ele>955.2</ele>
        <time>2008-09-25T12:58:38Z</time>
      </trkpt>
      <trkpt lat="32.998741" lon="-3.894861">
        <ele>954.7</ele>
        <time>2008-09-25T12:58:43Z</time>
      </trkpt>
      <trkpt lat="32.999182" lon="-3.895160">
        <ele>954.2</ele>
        <time>2008-09-25T12:58:49Z</time>
      </trkpt>
      <trkpt lat="32.999541" lon="-3.895546">
        <ele>953.3</ele>
        <time>2008-09-25T12:58:54Z</time>
      </trkpt>
      <trkpt lat="32.999735" lon="-3.896053">
        <ele>954.7</ele>
        <time>2008-09-25T12:58:59Z</time>
      </trkpt>
      <trkpt lat="32.999395" lon="-3.896414">
        <ele>952.3</ele>
        <time>2008-09-25T12:59:05Z</time>
      </trkpt>
      <trkpt lat="32.999052" lon="-3.896731">
        <ele>949.0</ele>
        <time>2008-09-25T12:59:12Z</time>
      </trkpt>
      <trkpt lat="32.999130" lon="-3.897277">
        <ele>946.1</ele>
        <time>2008-09-25T12:59:26Z</time>
      </trkpt>
      <trkpt lat="32.999201" lon="-3.897799">
        <ele>945.6</ele>
        <time>2008-09-25T12:59:41Z</time>
      </trkpt>
      <trkpt lat="32.999511" lon="-3.898208">
        <ele>946.1</ele>
        <time>2008-09-25T12:59:50Z</time>
      </trkpt>
      <trkpt lat="32.999920" lon="-3.898522">
        <ele>945.6</ele>
        <time>2008-09-25T12:59:57Z</time>
      </trkpt>
      <trkpt lat="33.000243" lon="-3.898895">
        <ele>946.1</ele>
        <time>2008-09-25T13:00:04Z</time>
      </trkpt>
      <trkpt lat="33.000624" lon="-3.899299">
        <ele>946.1</ele>
        <time>2008-09-25T13:00:11Z</time>
      </trkpt>
      <trkpt lat="33.001045" lon="-3.899512">
        <ele>947.0</ele>
        <time>2008-09-25T13:00:16Z</time>
      </trkpt>
      <trkpt lat="33.001458" lon="-3.899664">
        <ele>950.9</ele>
        <time>2008-09-25T13:00:22Z</time>
      </trkpt>
      <trkpt lat="33.001627" lon="-3.900207">
        <ele>952.8</ele>
        <time>2008-09-25T13:00:27Z</time>
      </trkpt>
      <trkpt lat="33.002021" lon="-3.900537">
        <ele>954.2</ele>
        <time>2008-09-25T13:00:33Z</time>
      </trkpt>
      <trkpt lat="33.002457" lon="-3.900992">
        <ele>953.8</ele>
        <time>2008-09-25T13:00:38Z</time>
      </trkpt>
      <trkpt lat="33.002919" lon="-3.901439">
        <ele>952.8</ele>
        <time>2008-09-25T13:00:42Z</time>
      </trkpt>
      <trkpt lat="33.003254" lon="-3.901823">
        <ele>952.3</ele>
        <time>2008-09-25T13:00:45Z</time>
      </trkpt>
      <trkpt lat="33.003564" lon="-3.902385">
        <ele>951.4</ele>
        <time>2008-09-25T13:00:49Z</time>
      </trkpt>
      <trkpt lat="33.003869" lon="-3.902774">
        <ele>950.4</ele>
        <time>2008-09-25T13:00:53Z</time>
      </trkpt>
      <trkpt lat="33.004224" lon="-3.903118">
        <ele>948.0</ele>
        <time>2008-09-25T13:00:58Z</time>
      </trkpt>
      <trkpt lat="33.004436" lon="-3.903601">
        <ele>947.0</ele>
        <time>2008-09-25T13:01:04Z</time>
      </trkpt>
      <trkpt lat="33.004794" lon="-3.904017">
        <ele>945.6</ele>
        <time>2008-09-25T13:01:11Z</time>
      </trkpt>
      <trkpt lat="33.004996" lon="-3.904516">
        <ele>946.6</ele>
        <time>2008-09-25T13:01:19Z</time>
      </trkpt>
      <trkpt lat="33.004964" lon="-3.905146">
        <ele>948.5</ele>
        <time>2008-09-25T13:01:24Z</time>
      </trkpt>
      <trkpt lat="33.005028" lon="-3.905701">
        <ele>950.4</ele>
        <time>2008-09-25T13:01:29Z</time>
      </trkpt>
      <trkpt lat="33.005148" lon="-3.906234">
        <ele>951.4</ele>
        <time>2008-09-25T13:01:34Z</time>
      </trkpt>
      <trkpt lat="33.005137" lon="-3.906804">
        <ele>950.9</ele>
        <time>2008-09-25T13:01:38Z</time>
      </trkpt>
      <trkpt lat="33.005162" lon="-3.907458">
        <ele>950.9</ele>
        <time>2008-09-25T13:01:42Z</time>
      </trkpt>
      <trkpt lat="33.005169" lon="-3.908071">
        <ele>950.9</ele>
        <time>2008-09-25T13:01:46Z</time>
      </trkpt>
      <trkpt lat="33.005220" lon="-3.908688">
        <ele>950.4</ele>
        <time>2008-09-25T13:01:50Z</time>
      </trkpt>
      <trkpt lat="33.005200" lon="-3.909398">
        <ele>950.4</ele>
        <time>2008-09-25T13:01:54Z</time>
      </trkpt>
      <trkpt lat="33.005163" lon="-3.909944">
        <ele>949.9</ele>
        <time>2008-09-25T13:01:57Z</time>
      </trkpt>
      <trkpt lat="33.005194" lon="-3.910582">
        <ele>950.4</ele>
        <time>2008-09-25T13:02:01Z</time>
      </trkpt>
      <trkpt lat="33.005339" lon="-3.911101">
        <ele>949.9</ele>
        <time>2008-09-25T13:02:06Z</time>
      </trkpt>
      <trkpt lat="33.005297" lon="-3.911671">
        <ele>949.9</ele>
        <time>2008-09-25T13:02:11Z</time>
      </trkpt>
      <trkpt lat="33.005334" lon="-3.912276">
        <ele>949.0</ele>
        <time>2008-09-25T13:02:15Z</time>
      </trkpt>
      <trkpt lat="33.005420" lon="-3.912881">
        <ele>948.5</ele>
        <time>2008-09-25T13:02:19Z</time>
      </trkpt>
      <trkpt lat="33.005559" lon="-3.913399">
        <ele>948.0</ele>
        <time>2008-09-25T13:02:24Z</time>
      </trkpt>
      <trkpt lat="33.005627" lon="-3.913981">
        <ele>948.5</ele>
        <time>2008-09-25T13:02:30Z</time>
      </trkpt>
      <trkpt lat="33.005638" lon="-3.914586">
        <ele>948.0</ele>
        <time>2008-09-25T13:02:35Z</time>
      </trkpt>
      <trkpt lat="33.005642" lon="-3.915135">
        <ele>948.5</ele>
        <time>2008-09-25T13:02:39Z</time>
      </trkpt>
      <trkpt lat="33.005661" lon="-3.915730">
        <ele>948.5</ele>
        <time>2008-09-25T13:02:43Z</time>
      </trkpt>
      <trkpt lat="33.005664" lon="-3.916344">
        <ele>949.0</ele>
        <time>2008-09-25T13:02:47Z</time>
      </trkpt>
      <trkpt lat="33.005571" lon="-3.916975">
        <ele>948.5</ele>
        <time>2008-09-25T13:02:51Z</time>
      </trkpt>
      <trkpt lat="33.005584" lon="-3.917566">
        <ele>949.9</ele>
        <time>2008-09-25T13:02:55Z</time>
      </trkpt>
      <trkpt lat="33.005674" lon="-3.918163">
        <ele>949.9</ele>
        <time>2008-09-25T13:02:59Z</time>
      </trkpt>
      <trkpt lat="33.005743" lon="-3.918690">
        <ele>949.9</ele>
        <time>2008-09-25T13:03:03Z</time>
      </trkpt>
      <trkpt lat="33.005723" lon="-3.919236">
        <ele>949.9</ele>
        <time>2008-09-25T13:03:09Z</time>
      </trkpt>
      <trkpt lat="33.005881" lon="-3.919843">
        <ele>948.5</ele>
        <time>2008-09-25T13:03:16Z</time>
      </trkpt>
      <trkpt lat="33.005971" lon="-3.920458">
        <ele>949.0</ele>
        <time>2008-09-25T13:03:21Z</time>
      </trkpt>
      <trkpt lat="33.006035" lon="-3.921062">
        <ele>948.5</ele>
        <time>2008-09-25T13:03:26Z</time>
      </trkpt>
      <trkpt lat="33.006120" lon="-3.921630">
        <ele>947.0</ele>
        <time>2008-09-25T13:03:31Z</time>
      </trkpt>
      <trkpt lat="33.006023" lon="-3.922170">
        <ele>945.1</ele>
        <time>2008-09-25T13:03:36Z</time>
      </trkpt>
      <trkpt lat="33.006118" lon="-3.922736">
        <ele>941.7</ele>
        <time>2008-09-25T13:03:42Z</time>
      </trkpt>
      <trkpt lat="33.006516" lon="-3.922971">
        <ele>939.3</ele>
        <time>2008-09-25T13:03:50Z</time>
      </trkpt>
      <trkpt lat="33.006783" lon="-3.923311">
        <ele>941.7</ele>
        <time>2008-09-25T13:03:58Z</time>
      </trkpt>
      <trkpt lat="33.006772" lon="-3.923873">
        <ele>941.7</ele>
        <time>2008-09-25T13:04:04Z</time>
      </trkpt>
      <trkpt lat="33.006822" lon="-3.924411">
        <ele>943.2</ele>
        <time>2008-09-25T13:04:09Z</time>
      </trkpt>
      <trkpt lat="33.007180" lon="-3.924794">
        <ele>943.2</ele>
        <time>2008-09-25T13:04:15Z</time>
      </trkpt>
      <trkpt lat="33.007602" lon="-3.925198">
        <ele>944.2</ele>
        <time>2008-09-25T13:04:20Z</time>
      </trkpt>
      <trkpt lat="33.007920" lon="-3.925652">
        <ele>946.1</ele>
        <time>2008-09-25T13:04:25Z</time>
      </trkpt>
      <trkpt lat="33.008179" lon="-3.926121">
        <ele>946.6</ele>
        <time>2008-09-25T13:04:30Z</time>
      </trkpt>
      <trkpt lat="33.008464" lon="-3.926690">
        <ele>947.0</ele>
        <time>2008-09-25T13:04:35Z</time>
      </trkpt>
      <trkpt lat="33.008669" lon="-3.927306">
        <ele>946.6</ele>
        <time>2008-09-25T13:04:40Z</time>
      </trkpt>
      <trkpt lat="33.008894" lon="-3.927891">
        <ele>947.0</ele>
        <time>2008-09-25T13:04:44Z</time>
      </trkpt>
      <trkpt lat="33.009210" lon="-3.928498">
        <ele>946.1</ele>
        <time>2008-09-25T13:04:48Z</time>
      </trkpt>
      <trkpt lat="33.009459" lon="-3.929000">
        <ele>945.6</ele>
        <time>2008-09-25T13:04:51Z</time>
      </trkpt>
      <trkpt lat="33.009703" lon="-3.929531">
        <ele>945.1</ele>
        <time>2008-09-25T13:04:54Z</time>
      </trkpt>
      <trkpt lat="33.009990" lon="-3.930019">
        <ele>945.1</ele>
        <time>2008-09-25T13:04:57Z</time>
      </trkpt>
      <trkpt lat="33.010289" lon="-3.930613">
        <ele>944.6</ele>
        <time>2008-09-25T13:05:01Z</time>
      </trkpt>
      <trkpt lat="33.010538" lon="-3.931076">
        <ele>944.2</ele>
        <time>2008-09-25T13:05:04Z</time>
      </trkpt>
      <trkpt lat="33.010758" lon="-3.931586">
        <ele>943.7</ele>
        <time>2008-09-25T13:05:07Z</time>
      </trkpt>
      <trkpt lat="33.010913" lon="-3.932114">
        <ele>943.7</ele>
        <time>2008-09-25T13:05:10Z</time>
      </trkpt>
      <trkpt lat="33.011018" lon="-3.932790">
        <ele>943.7</ele>
        <time>2008-09-25T13:05:14Z</time>
      </trkpt>
      <trkpt lat="33.011194" lon="-3.933387">
        <ele>943.7</ele>
        <time>2008-09-25T13:05:18Z</time>
      </trkpt>
      <trkpt lat="33.011361" lon="-3.933914">
        <ele>943.2</ele>
        <time>2008-09-25T13:05:23Z</time>
      </trkpt>
      <trkpt lat="33.011395" lon="-3.934479">
        <ele>944.2</ele>
        <time>2008-09-25T13:05:28Z</time>
      </trkpt>
      <trkpt lat="33.011551" lon="-3.935079">
        <ele>944.2</ele>
        <time>2008-09-25T13:05:33Z</time>
      </trkpt>
      <trkpt lat="33.011676" lon="-3.935667">
        <ele>943.2</ele>
        <time>2008-09-25T13:05:38Z</time>
      </trkpt>
      <trkpt lat="33.011817" lon="-3.936313">
        <ele>943.2</ele>
        <time>2008-09-25T13:05:43Z</time>
      </trkpt>
      <trkpt lat="33.011884" lon="-3.936849">
        <ele>943.2</ele>
        <time>2008-09-25T13:05:47Z</time>
      </trkpt>
      <trkpt lat="33.011854" lon="-3.937399">
        <ele>943.2</ele>
        <time>2008-09-25T13:05:51Z</time>
      </trkpt>
      <trkpt lat="33.012021" lon="-3.937979">
        <ele>943.7</ele>
        <time>2008-09-25T13:05:56Z</time>
      </trkpt>
      <trkpt lat="33.012073" lon="-3.938520">
        <ele>942.7</ele>
        <time>2008-09-25T13:06:00Z</time>
      </trkpt>
      <trkpt lat="33.012126" lon="-3.939081">
        <ele>942.2</ele>
        <time>2008-09-25T13:06:04Z</time>
      </trkpt>
      <trkpt lat="33.012242" lon="-3.939678">
        <ele>942.2</ele>
        <time>2008-09-25T13:06:08Z</time>
      </trkpt>
      <trkpt lat="33.012323" lon="-3.940267">
        <ele>942.2</ele>
        <time>2008-09-25T13:06:13Z</time>
      </trkpt>
      <trkpt lat="33.012441" lon="-3.940865">
        <ele>943.2</ele>
        <time>2008-09-25T13:06:19Z</time>
      </trkpt>
      <trkpt lat="33.012630" lon="-3.941467">
        <ele>942.7</ele>
        <time>2008-09-25T13:06:24Z</time>
      </trkpt>
      <trkpt lat="33.012751" lon="-3.941982">
        <ele>943.2</ele>
        <time>2008-09-25T13:06:28Z</time>
      </trkpt>
      <trkpt lat="33.012847" lon="-3.942567">
        <ele>942.7</ele>
        <time>2008-09-25T13:06:33Z</time>
      </trkpt>
      <trkpt lat="33.013055" lon="-3.943047">
        <ele>942.7</ele>
        <time>2008-09-25T13:06:38Z</time>
      </trkpt>
      <trkpt lat="33.013212" lon="-3.943588">
        <ele>942.2</ele>
        <time>2008-09-25T13:06:44Z</time>
      </trkpt>
      <trkpt lat="33.013309" lon="-3.944231">
        <ele>941.3</ele>
        <time>2008-09-25T13:06:50Z</time>
      </trkpt>
      <trkpt lat="33.013448" lon="-3.944796">
        <ele>941.3</ele>
        <time>2008-09-25T13:06:54Z</time>
      </trkpt>
      <trkpt lat="33.013613" lon="-3.945267">
        <ele>941.3</ele>
        <time>2008-09-25T13:06:59Z</time>
      </trkpt>
      <trkpt lat="33.013745" lon="-3.945839">
        <ele>941.3</ele>
        <time>2008-09-25T13:07:08Z</time>
      </trkpt>
      <trkpt lat="33.013777" lon="-3.946409">
        <ele>942.2</ele>
        <time>2008-09-25T13:07:14Z</time>
      </trkpt>
      <trkpt lat="33.013980" lon="-3.946983">
        <ele>942.7</ele>
        <time>2008-09-25T13:07:19Z</time>
      </trkpt>
      <trkpt lat="33.014114" lon="-3.947535">
        <ele>942.7</ele>
        <time>2008-09-25T13:07:24Z</time>
      </trkpt>
      <trkpt lat="33.014223" lon="-3.948076">
        <ele>942.2</ele>
        <time>2008-09-25T13:07:28Z</time>
      </trkpt>
      <trkpt lat="33.014388" lon="-3.948635">
        <ele>942.2</ele>
        <time>2008-09-25T13:07:32Z</time>
      </trkpt>
      <trkpt lat="33.014558" lon="-3.949190">
        <ele>942.2</ele>
        <time>2008-09-25T13:07:36Z</time>
      </trkpt>
      <trkpt lat="33.014713" lon="-3.949792">
        <ele>941.3</ele>
        <time>2008-09-25T13:07:40Z</time>
      </trkpt>
      <trkpt lat="33.014905" lon="-3.950381">
        <ele>941.3</ele>
        <time>2008-09-25T13:07:44Z</time>
      </trkpt>
      <trkpt lat="33.015199" lon="-3.950890">
        <ele>941.3</ele>
        <time>2008-09-25T13:07:48Z</time>
      </trkpt>
      <trkpt lat="33.015368" lon="-3.951493">
        <ele>941.3</ele>
        <time>2008-09-25T13:07:52Z</time>
      </trkpt>
      <trkpt lat="33.015473" lon="-3.952119">
        <ele>941.3</ele>
        <time>2008-09-25T13:07:56Z</time>
      </trkpt>
      <trkpt lat="33.015671" lon="-3.952685">
        <ele>940.8</ele>
        <time>2008-09-25T13:08:00Z</time>
      </trkpt>
      <trkpt lat="33.015899" lon="-3.953270">
        <ele>940.8</ele>
        <time>2008-09-25T13:08:04Z</time>
      </trkpt>
      <trkpt lat="33.016083" lon="-3.953834">
        <ele>940.8</ele>
        <time>2008-09-25T13:08:08Z</time>
      </trkpt>
      <trkpt lat="33.016415" lon="-3.954271">
        <ele>940.3</ele>
        <time>2008-09-25T13:08:12Z</time>
      </trkpt>
      <trkpt lat="33.016623" lon="-3.954784">
        <ele>938.9</ele>
        <time>2008-09-25T13:08:16Z</time>
      </trkpt>
      <trkpt lat="33.016541" lon="-3.955350">
        <ele>938.9</ele>
        <time>2008-09-25T13:08:21Z</time>
      </trkpt>
      <trkpt lat="33.016559" lon="-3.955854">
        <ele>936.9</ele>
        <time>2008-09-25T13:08:27Z</time>
      </trkpt>
      <trkpt lat="33.016968" lon="-3.956157">
        <ele>937.9</ele>
        <time>2008-09-25T13:08:36Z</time>
      </trkpt>
      <trkpt lat="33.017452" lon="-3.956521">
        <ele>938.9</ele>
        <time>2008-09-25T13:08:41Z</time>
      </trkpt>
      <trkpt lat="33.017871" lon="-3.956933">
        <ele>937.9</ele>
        <time>2008-09-25T13:08:45Z</time>
      </trkpt>
      <trkpt lat="33.018356" lon="-3.957286">
        <ele>937.9</ele>
        <time>2008-09-25T13:08:49Z</time>
      </trkpt>
      <trkpt lat="33.018823" lon="-3.957727">
        <ele>937.4</ele>
        <time>2008-09-25T13:08:53Z</time>
      </trkpt>
      <trkpt lat="33.019198" lon="-3.958047">
        <ele>937.4</ele>
        <time>2008-09-25T13:08:56Z</time>
      </trkpt>
      <trkpt lat="33.019540" lon="-3.958410">
        <ele>936.9</ele>
        <time>2008-09-25T13:08:59Z</time>
      </trkpt>
      <trkpt lat="33.019918" lon="-3.958741">
        <ele>936.9</ele>
        <time>2008-09-25T13:09:02Z</time>
      </trkpt>
      <trkpt lat="33.020301" lon="-3.959025">
        <ele>936.9</ele>
        <time>2008-09-25T13:09:05Z</time>
      </trkpt>
      <trkpt lat="33.020803" lon="-3.959395">
        <ele>936.5</ele>
        <time>2008-09-25T13:09:09Z</time>
      </trkpt>
      <trkpt lat="33.021260" lon="-3.959783">
        <ele>936.0</ele>
        <time>2008-09-25T13:09:13Z</time>
      </trkpt>
      <trkpt lat="33.021660" lon="-3.960210">
        <ele>935.5</ele>
        <time>2008-09-25T13:09:17Z</time>
      </trkpt>
      <trkpt lat="33.022092" lon="-3.960655">
        <ele>934.1</ele>
        <time>2008-09-25T13:09:21Z</time>
      </trkpt>
      <trkpt lat="33.022455" lon="-3.961120">
        <ele>933.1</ele>
        <time>2008-09-25T13:09:25Z</time>
      </trkpt>
      <trkpt lat="33.022781" lon="-3.961466">
        <ele>933.1</ele>
        <time>2008-09-25T13:09:30Z</time>
      </trkpt>
      <trkpt lat="33.023245" lon="-3.961722">
        <ele>933.1</ele>
        <time>2008-09-25T13:09:35Z</time>
      </trkpt>
      <trkpt lat="33.023773" lon="-3.961979">
        <ele>933.1</ele>
        <time>2008-09-25T13:09:40Z</time>
      </trkpt>
      <trkpt lat="33.024230" lon="-3.962159">
        <ele>932.1</ele>
        <time>2008-09-25T13:09:44Z</time>
      </trkpt>
      <trkpt lat="33.024730" lon="-3.962461">
        <ele>931.2</ele>
        <time>2008-09-25T13:09:48Z</time>
      </trkpt>
      <trkpt lat="33.025145" lon="-3.962770">
        <ele>930.2</ele>
        <time>2008-09-25T13:09:51Z</time>
      </trkpt>
      <trkpt lat="33.025562" lon="-3.963052">
        <ele>929.3</ele>
        <time>2008-09-25T13:09:54Z</time>
      </trkpt>
      <trkpt lat="33.026032" lon="-3.963387">
        <ele>928.3</ele>
        <time>2008-09-25T13:09:58Z</time>
      </trkpt>
      <trkpt lat="33.026468" lon="-3.963754">
        <ele>928.8</ele>
        <time>2008-09-25T13:10:03Z</time>
      </trkpt>
      <trkpt lat="33.026801" lon="-3.964253">
        <ele>928.8</ele>
        <time>2008-09-25T13:10:08Z</time>
      </trkpt>
      <trkpt lat="33.027217" lon="-3.964693">
        <ele>927.3</ele>
        <time>2008-09-25T13:10:13Z</time>
      </trkpt>
      <trkpt lat="33.027590" lon="-3.965068">
        <ele>928.8</ele>
        <time>2008-09-25T13:10:17Z</time>
      </trkpt>
      <trkpt lat="33.028031" lon="-3.965411">
        <ele>928.3</ele>
        <time>2008-09-25T13:10:21Z</time>
      </trkpt>
      <trkpt lat="33.028528" lon="-3.965754">
        <ele>927.8</ele>
        <time>2008-09-25T13:10:25Z</time>
      </trkpt>
      <trkpt lat="33.028896" lon="-3.966112">
        <ele>927.8</ele>
        <time>2008-09-25T13:10:29Z</time>
      </trkpt>
      <trkpt lat="33.029313" lon="-3.966386">
        <ele>926.8</ele>
        <time>2008-09-25T13:10:34Z</time>
      </trkpt>
      <trkpt lat="33.029720" lon="-3.966667">
        <ele>926.4</ele>
        <time>2008-09-25T13:10:38Z</time>
      </trkpt>
      <trkpt lat="33.030147" lon="-3.966898">
        <ele>926.4</ele>
        <time>2008-09-25T13:10:42Z</time>
      </trkpt>
      <trkpt lat="33.030623" lon="-3.967058">
        <ele>925.4</ele>
        <time>2008-09-25T13:10:46Z</time>
      </trkpt>
      <trkpt lat="33.031060" lon="-3.967084">
        <ele>925.4</ele>
        <time>2008-09-25T13:10:50Z</time>
      </trkpt>
      <trkpt lat="33.031589" lon="-3.967117">
        <ele>924.4</ele>
        <time>2008-09-25T13:10:55Z</time>
      </trkpt>
      <trkpt lat="33.032014" lon="-3.967423">
        <ele>924.4</ele>
        <time>2008-09-25T13:11:01Z</time>
      </trkpt>
      <trkpt lat="33.032509" lon="-3.967497">
        <ele>924.4</ele>
        <time>2008-09-25T13:11:07Z</time>
      </trkpt>
      <trkpt lat="33.032985" lon="-3.967648">
        <ele>924.4</ele>
        <time>2008-09-25T13:11:13Z</time>
      </trkpt>
      <trkpt lat="33.033450" lon="-3.967845">
        <ele>924.0</ele>
        <time>2008-09-25T13:11:18Z</time>
      </trkpt>
      <trkpt lat="33.033978" lon="-3.968006">
        <ele>923.5</ele>
        <time>2008-09-25T13:11:23Z</time>
      </trkpt>
      <trkpt lat="33.034423" lon="-3.968146">
        <ele>924.0</ele>
        <time>2008-09-25T13:11:27Z</time>
      </trkpt>
      <trkpt lat="33.034897" lon="-3.968291">
        <ele>923.0</ele>
        <time>2008-09-25T13:11:31Z</time>
      </trkpt>
      <trkpt lat="33.035354" lon="-3.968456">
        <ele>923.0</ele>
        <time>2008-09-25T13:11:35Z</time>
      </trkpt>
      <trkpt lat="33.035766" lon="-3.968674">
        <ele>923.0</ele>
        <time>2008-09-25T13:11:39Z</time>
      </trkpt>
      <trkpt lat="33.036274" lon="-3.968861">
        <ele>923.0</ele>
        <time>2008-09-25T13:11:44Z</time>
      </trkpt>
      <trkpt lat="33.036806" lon="-3.968940">
        <ele>922.5</ele>
        <time>2008-09-25T13:11:49Z</time>
      </trkpt>
      <trkpt lat="33.037328" lon="-3.969136">
        <ele>921.6</ele>
        <time>2008-09-25T13:11:54Z</time>
      </trkpt>
      <trkpt lat="33.037816" lon="-3.969119">
        <ele>921.6</ele>
        <time>2008-09-25T13:11:58Z</time>
      </trkpt>
      <trkpt lat="33.038261" lon="-3.969141">
        <ele>921.1</ele>
        <time>2008-09-25T13:12:02Z</time>
      </trkpt>
      <trkpt lat="33.038728" lon="-3.969417">
        <ele>920.6</ele>
        <time>2008-09-25T13:12:07Z</time>
      </trkpt>
      <trkpt lat="33.039104" lon="-3.969728">
        <ele>918.7</ele>
        <time>2008-09-25T13:12:13Z</time>
      </trkpt>
      <trkpt lat="33.039634" lon="-3.969725">
        <ele>916.3</ele>
        <time>2008-09-25T13:12:19Z</time>
      </trkpt>
      <trkpt lat="33.040054" lon="-3.969266">
        <ele>912.9</ele>
        <time>2008-09-25T13:12:24Z</time>
      </trkpt>
      <trkpt lat="33.040464" lon="-3.968973">
        <ele>910.5</ele>
        <time>2008-09-25T13:12:28Z</time>
      </trkpt>
      <trkpt lat="33.041010" lon="-3.969010">
        <ele>908.1</ele>
        <time>2008-09-25T13:12:33Z</time>
      </trkpt>
      <trkpt lat="33.041491" lon="-3.969284">
        <ele>905.7</ele>
        <time>2008-09-25T13:12:38Z</time>
      </trkpt>
      <trkpt lat="33.041822" lon="-3.969749">
        <ele>902.8</ele>
        <time>2008-09-25T13:12:43Z</time>
      </trkpt>
      <trkpt lat="33.042132" lon="-3.970208">
        <ele>902.8</ele>
        <time>2008-09-25T13:12:48Z</time>
      </trkpt>
      <trkpt lat="33.042498" lon="-3.970646">
        <ele>901.9</ele>
        <time>2008-09-25T13:12:53Z</time>
      </trkpt>
      <trkpt lat="33.043006" lon="-3.970922">
        <ele>900.9</ele>
        <time>2008-09-25T13:12:58Z</time>
      </trkpt>
      <trkpt lat="33.043428" lon="-3.971193">
        <ele>899.5</ele>
        <time>2008-09-25T13:13:02Z</time>
      </trkpt>
      <trkpt lat="33.043888" lon="-3.971465">
        <ele>898.5</ele>
        <time>2008-09-25T13:13:06Z</time>
      </trkpt>
      <trkpt lat="33.044367" lon="-3.971703">
        <ele>897.0</ele>
        <time>2008-09-25T13:13:10Z</time>
      </trkpt>
      <trkpt lat="33.044823" lon="-3.971864">
        <ele>895.6</ele>
        <time>2008-09-25T13:13:14Z</time>
      </trkpt>
      <trkpt lat="33.045324" lon="-3.972157">
        <ele>893.7</ele>
        <time>2008-09-25T13:13:19Z</time>
      </trkpt>
      <trkpt lat="33.045839" lon="-3.972391">
        <ele>892.2</ele>
        <time>2008-09-25T13:13:24Z</time>
      </trkpt>
      <trkpt lat="33.046277" lon="-3.972666">
        <ele>890.8</ele>
        <time>2008-09-25T13:13:28Z</time>
      </trkpt>
      <trkpt lat="33.046778" lon="-3.972904">
        <ele>889.4</ele>
        <time>2008-09-25T13:13:32Z</time>
      </trkpt>
      <trkpt lat="33.047239" lon="-3.973131">
        <ele>889.4</ele>
        <time>2008-09-25T13:13:36Z</time>
      </trkpt>
      <trkpt lat="33.047702" lon="-3.973420">
        <ele>891.8</ele>
        <time>2008-09-25T13:13:41Z</time>
      </trkpt>
      <trkpt lat="33.048189" lon="-3.973752">
        <ele>890.8</ele>
        <time>2008-09-25T13:13:46Z</time>
      </trkpt>
      <trkpt lat="33.048520" lon="-3.974132">
        <ele>889.8</ele>
        <time>2008-09-25T13:13:50Z</time>
      </trkpt>
      <trkpt lat="33.048976" lon="-3.974382">
        <ele>889.4</ele>
        <time>2008-09-25T13:13:55Z</time>
      </trkpt>
      <trkpt lat="33.049443" lon="-3.974552">
        <ele>889.4</ele>
        <time>2008-09-25T13:14:00Z</time>
      </trkpt>
      <trkpt lat="33.049893" lon="-3.974766">
        <ele>890.3</ele>
        <time>2008-09-25T13:14:04Z</time>
      </trkpt>
      <trkpt lat="33.050294" lon="-3.974976">
        <ele>890.3</ele>
        <time>2008-09-25T13:14:08Z</time>
      </trkpt>
      <trkpt lat="33.050730" lon="-3.975164">
        <ele>889.4</ele>
        <time>2008-09-25T13:14:30Z</time>
      </trkpt>
      <trkpt lat="33.051188" lon="-3.975256">
        <ele>887.4</ele>
        <time>2008-09-25T13:14:35Z</time>
      </trkpt>
      <trkpt lat="33.051525" lon="-3.975577">
        <ele>883.6</ele>
        <time>2008-09-25T13:14:41Z</time>
      </trkpt>
      <trkpt lat="33.051512" lon="-3.976207">
        <ele>881.7</ele>
        <time>2008-09-25T13:14:47Z</time>
      </trkpt>
      <trkpt lat="33.051646" lon="-3.976705">
        <ele>880.7</ele>
        <time>2008-09-25T13:14:53Z</time>
      </trkpt>
      <trkpt lat="33.051958" lon="-3.977134">
        <ele>880.2</ele>
        <time>2008-09-25T13:14:58Z</time>
      </trkpt>
      <trkpt lat="33.052155" lon="-3.977664">
        <ele>880.2</ele>
        <time>2008-09-25T13:15:03Z</time>
      </trkpt>
      <trkpt lat="33.052337" lon="-3.978236">
        <ele>881.2</ele>
        <time>2008-09-25T13:15:10Z</time>
      </trkpt>
      <trkpt lat="33.052504" lon="-3.978746">
        <ele>880.7</ele>
        <time>2008-09-25T13:15:15Z</time>
      </trkpt>
      <trkpt lat="33.052440" lon="-3.979317">
        <ele>880.2</ele>
        <time>2008-09-25T13:15:20Z</time>
      </trkpt>
      <trkpt lat="33.052010" lon="-3.979636">
        <ele>880.7</ele>
        <time>2008-09-25T13:15:25Z</time>
      </trkpt>
      <trkpt lat="33.051498" lon="-3.979909">
        <ele>880.7</ele>
        <time>2008-09-25T13:15:30Z</time>
      </trkpt>
      <trkpt lat="33.051015" lon="-3.980161">
        <ele>881.7</ele>
        <time>2008-09-25T13:15:35Z</time>
      </trkpt>
      <trkpt lat="33.050555" lon="-3.980402">
        <ele>882.6</ele>
        <time>2008-09-25T13:15:40Z</time>
      </trkpt>
      <trkpt lat="33.050201" lon="-3.980714">
        <ele>883.1</ele>
        <time>2008-09-25T13:15:45Z</time>
      </trkpt>
      <trkpt lat="33.050016" lon="-3.981301">
        <ele>882.6</ele>
        <time>2008-09-25T13:15:50Z</time>
      </trkpt>
      <trkpt lat="33.049974" lon="-3.981891">
        <ele>883.1</ele>
        <time>2008-09-25T13:15:54Z</time>
      </trkpt>
      <trkpt lat="33.049936" lon="-3.982446">
        <ele>883.6</ele>
        <time>2008-09-25T13:15:58Z</time>
      </trkpt>
      <trkpt lat="33.049836" lon="-3.983085">
        <ele>883.6</ele>
        <time>2008-09-25T13:16:03Z</time>
      </trkpt>
      <trkpt lat="33.049591" lon="-3.983618">
        <ele>883.6</ele>
        <time>2008-09-25T13:16:08Z</time>
      </trkpt>
      <trkpt lat="33.049291" lon="-3.984086">
        <ele>884.6</ele>
        <time>2008-09-25T13:16:13Z</time>
      </trkpt>
      <trkpt lat="33.049029" lon="-3.984485">
        <ele>885.0</ele>
        <time>2008-09-25T13:16:20Z</time>
      </trkpt>
      <trkpt lat="33.048741" lon="-3.984035">
        <ele>885.5</ele>
        <time>2008-09-25T13:16:37Z</time>
      </trkpt>
      <trkpt lat="33.048305" lon="-3.983904">
        <ele>885.5</ele>
        <time>2008-09-25T13:16:43Z</time>
      </trkpt>
      <trkpt lat="33.047783" lon="-3.983979">
        <ele>885.5</ele>
        <time>2008-09-25T13:16:49Z</time>
      </trkpt>
      <trkpt lat="33.047332" lon="-3.984223">
        <ele>885.5</ele>
        <time>2008-09-25T13:16:55Z</time>
      </trkpt>
      <trkpt lat="33.047037" lon="-3.984700">
        <ele>885.5</ele>
        <time>2008-09-25T13:17:01Z</time>
      </trkpt>
      <trkpt lat="33.046774" lon="-3.985226">
        <ele>886.5</ele>
        <time>2008-09-25T13:17:07Z</time>
      </trkpt>
      <trkpt lat="33.046594" lon="-3.985734">
        <ele>887.4</ele>
        <time>2008-09-25T13:17:13Z</time>
      </trkpt>
      <trkpt lat="33.046338" lon="-3.986043">
        <ele>887.9</ele>
        <time>2008-09-25T13:17:26Z</time>
      </trkpt>
      <trkpt lat="33.046363" lon="-3.986301">
        <ele>881.7</ele>
        <time>2008-09-25T13:31:25Z</time>
      </trkpt>
      <trkpt lat="33.046203" lon="-3.986820">
        <ele>881.7</ele>
        <time>2008-09-25T13:31:33Z</time>
      </trkpt>
      <trkpt lat="33.046303" lon="-3.987370">
        <ele>883.1</ele>
        <time>2008-09-25T13:31:40Z</time>
      </trkpt>
      <trkpt lat="33.046415" lon="-3.987930">
        <ele>884.6</ele>
        <time>2008-09-25T13:31:47Z</time>
      </trkpt>
      <trkpt lat="33.046756" lon="-3.988314">
        <ele>891.3</ele>
        <time>2008-09-25T13:31:56Z</time>
      </trkpt>
      <trkpt lat="33.047168" lon="-3.988530">
        <ele>893.2</ele>
        <time>2008-09-25T13:32:04Z</time>
      </trkpt>
      <trkpt lat="33.047440" lon="-3.988841">
        <ele>893.7</ele>
        <time>2008-09-25T13:32:15Z</time>
      </trkpt>
      <trkpt lat="33.047208" lon="-3.989418">
        <ele>893.7</ele>
        <time>2008-09-25T13:32:22Z</time>
      </trkpt>
      <trkpt lat="33.047004" lon="-3.989919">
        <ele>894.2</ele>
        <time>2008-09-25T13:32:29Z</time>
      </trkpt>
      <trkpt lat="33.046786" lon="-3.990469">
        <ele>896.6</ele>
        <time>2008-09-25T13:33:05Z</time>
      </trkpt>
      <trkpt lat="33.046581" lon="-3.991000">
        <ele>897.0</ele>
        <time>2008-09-25T13:33:11Z</time>
      </trkpt>
      <trkpt lat="33.046364" lon="-3.991576">
        <ele>896.6</ele>
        <time>2008-09-25T13:33:17Z</time>
      </trkpt>
      <trkpt lat="33.046142" lon="-3.992148">
        <ele>896.6</ele>
        <time>2008-09-25T13:33:23Z</time>
      </trkpt>
      <trkpt lat="33.045950" lon="-3.992618">
        <ele>896.6</ele>
        <time>2008-09-25T13:33:30Z</time>
      </trkpt>
      <trkpt lat="33.045625" lon="-3.992953">
        <ele>897.0</ele>
        <time>2008-09-25T13:33:41Z</time>
      </trkpt>
      <trkpt lat="33.045603" lon="-3.993449">
        <ele>890.3</ele>
        <time>2008-09-25T13:40:06Z</time>
      </trkpt>
      <trkpt lat="33.045383" lon="-3.993893">
        <ele>891.8</ele>
        <time>2008-09-25T13:40:16Z</time>
      </trkpt>
      <trkpt lat="33.045115" lon="-3.994441">
        <ele>901.9</ele>
        <time>2008-09-25T13:40:52Z</time>
      </trkpt>
      <trkpt lat="33.044840" lon="-3.994959">
        <ele>901.4</ele>
        <time>2008-09-25T13:40:58Z</time>
      </trkpt>
      <trkpt lat="33.044585" lon="-3.995485">
        <ele>900.4</ele>
        <time>2008-09-25T13:41:04Z</time>
      </trkpt>
      <trkpt lat="33.044362" lon="-3.995974">
        <ele>899.5</ele>
        <time>2008-09-25T13:41:09Z</time>
      </trkpt>
      <trkpt lat="33.044168" lon="-3.996597">
        <ele>899.0</ele>
        <time>2008-09-25T13:41:14Z</time>
      </trkpt>
      <trkpt lat="33.044038" lon="-3.997145">
        <ele>899.0</ele>
        <time>2008-09-25T13:41:18Z</time>
      </trkpt>
      <trkpt lat="33.043918" lon="-3.997694">
        <ele>899.5</ele>
        <time>2008-09-25T13:41:22Z</time>
      </trkpt>
      <trkpt lat="33.043805" lon="-3.998326">
        <ele>899.9</ele>
        <time>2008-09-25T13:41:27Z</time>
      </trkpt>
      <trkpt lat="33.043700" lon="-3.998960">
        <ele>900.9</ele>
        <time>2008-09-25T13:41:32Z</time>
      </trkpt>
      <trkpt lat="33.043596" lon="-3.999576">
        <ele>902.8</ele>
        <time>2008-09-25T13:41:37Z</time>
      </trkpt>
      <trkpt lat="33.043497" lon="-4.000178">
        <ele>903.8</ele>
        <time>2008-09-25T13:41:42Z</time>
      </trkpt>
      <trkpt lat="33.043391" lon="-4.000754">
        <ele>905.7</ele>
        <time>2008-09-25T13:41:47Z</time>
      </trkpt>
      <trkpt lat="33.043292" lon="-4.001332">
        <ele>907.1</ele>
        <time>2008-09-25T13:41:52Z</time>
      </trkpt>
      <trkpt lat="33.043128" lon="-4.001943">
        <ele>907.1</ele>
        <time>2008-09-25T13:41:57Z</time>
      </trkpt>
      <trkpt lat="33.042988" lon="-4.002455">
        <ele>907.1</ele>
        <time>2008-09-25T13:42:01Z</time>
      </trkpt>
      <trkpt lat="33.042849" lon="-4.002980">
        <ele>906.2</ele>
        <time>2008-09-25T13:42:05Z</time>
      </trkpt>
      <trkpt lat="33.042678" lon="-4.003605">
        <ele>905.2</ele>
        <time>2008-09-25T13:42:10Z</time>
      </trkpt>
      <trkpt lat="33.042510" lon="-4.004212">
        <ele>903.8</ele>
        <time>2008-09-25T13:42:15Z</time>
      </trkpt>
      <trkpt lat="33.042364" lon="-4.004826">
        <ele>901.4</ele>
        <time>2008-09-25T13:42:20Z</time>
      </trkpt>
      <trkpt lat="33.042216" lon="-4.005383">
        <ele>901.4</ele>
        <time>2008-09-25T13:42:25Z</time>
      </trkpt>
      <trkpt lat="33.042081" lon="-4.005948">
        <ele>901.9</ele>
        <time>2008-09-25T13:42:30Z</time>
      </trkpt>
      <trkpt lat="33.042019" lon="-4.006629">
        <ele>900.9</ele>
        <time>2008-09-25T13:42:35Z</time>
      </trkpt>
      <trkpt lat="33.042028" lon="-4.007170">
        <ele>900.4</ele>
        <time>2008-09-25T13:42:39Z</time>
      </trkpt>
      <trkpt lat="33.042041" lon="-4.007744">
        <ele>900.9</ele>
        <time>2008-09-25T13:42:44Z</time>
      </trkpt>
      <trkpt lat="33.042122" lon="-4.008457">
        <ele>901.9</ele>
        <time>2008-09-25T13:42:49Z</time>
      </trkpt>
      <trkpt lat="33.042205" lon="-4.009026">
        <ele>903.3</ele>
        <time>2008-09-25T13:42:52Z</time>
      </trkpt>
      <trkpt lat="33.042304" lon="-4.009629">
        <ele>904.3</ele>
        <time>2008-09-25T13:42:55Z</time>
      </trkpt>
      <trkpt lat="33.042399" lon="-4.010222">
        <ele>904.3</ele>
        <time>2008-09-25T13:42:58Z</time>
      </trkpt>
      <trkpt lat="33.042485" lon="-4.010826">
        <ele>904.7</ele>
        <time>2008-09-25T13:43:01Z</time>
      </trkpt>
      <trkpt lat="33.042490" lon="-4.011455">
        <ele>905.7</ele>
        <time>2008-09-25T13:43:04Z</time>
      </trkpt>
      <trkpt lat="33.042410" lon="-4.012097">
        <ele>905.7</ele>
        <time>2008-09-25T13:43:07Z</time>
      </trkpt>
      <trkpt lat="33.042332" lon="-4.012739">
        <ele>906.7</ele>
        <time>2008-09-25T13:43:10Z</time>
      </trkpt>
      <trkpt lat="33.042349" lon="-4.013389">
        <ele>907.1</ele>
        <time>2008-09-25T13:43:13Z</time>
      </trkpt>
      <trkpt lat="33.042404" lon="-4.014056">
        <ele>908.1</ele>
        <time>2008-09-25T13:43:16Z</time>
      </trkpt>
      <trkpt lat="33.042461" lon="-4.014733">
        <ele>908.1</ele>
        <time>2008-09-25T13:43:19Z</time>
      </trkpt>
      <trkpt lat="33.042506" lon="-4.015398">
        <ele>908.6</ele>
        <time>2008-09-25T13:43:22Z</time>
      </trkpt>
      <trkpt lat="33.042468" lon="-4.016055">
        <ele>908.6</ele>
        <time>2008-09-25T13:43:25Z</time>
      </trkpt>
      <trkpt lat="33.042359" lon="-4.016722">
        <ele>909.1</ele>
        <time>2008-09-25T13:43:28Z</time>
      </trkpt>
      <trkpt lat="33.042214" lon="-4.017393">
        <ele>909.1</ele>
        <time>2008-09-25T13:43:31Z</time>
      </trkpt>
      <trkpt lat="33.042073" lon="-4.018064">
        <ele>908.6</ele>
        <time>2008-09-25T13:43:34Z</time>
      </trkpt>
      <trkpt lat="33.041936" lon="-4.018741">
        <ele>906.2</ele>
        <time>2008-09-25T13:43:37Z</time>
      </trkpt>
      <trkpt lat="33.041801" lon="-4.019418">
        <ele>907.6</ele>
        <time>2008-09-25T13:43:40Z</time>
      </trkpt>
      <trkpt lat="33.041692" lon="-4.020087">
        <ele>908.6</ele>
        <time>2008-09-25T13:43:43Z</time>
      </trkpt>
      <trkpt lat="33.041661" lon="-4.020772">
        <ele>910.0</ele>
        <time>2008-09-25T13:43:46Z</time>
      </trkpt>
      <trkpt lat="33.041717" lon="-4.021473">
        <ele>911.0</ele>
        <time>2008-09-25T13:43:49Z</time>
      </trkpt>
      <trkpt lat="33.041799" lon="-4.022189">
        <ele>911.5</ele>
        <time>2008-09-25T13:43:52Z</time>
      </trkpt>
      <trkpt lat="33.041886" lon="-4.022914">
        <ele>912.9</ele>
        <time>2008-09-25T13:43:55Z</time>
      </trkpt>
      <trkpt lat="33.041980" lon="-4.023644">
        <ele>914.4</ele>
        <time>2008-09-25T13:43:58Z</time>
      </trkpt>
      <trkpt lat="33.042071" lon="-4.024379">
        <ele>916.3</ele>
        <time>2008-09-25T13:44:01Z</time>
      </trkpt>
      <trkpt lat="33.042165" lon="-4.025116">
        <ele>916.8</ele>
        <time>2008-09-25T13:44:04Z</time>
      </trkpt>
      <trkpt lat="33.042231" lon="-4.025865">
        <ele>915.8</ele>
        <time>2008-09-25T13:44:07Z</time>
      </trkpt>
      <trkpt lat="33.042199" lon="-4.026626">
        <ele>915.8</ele>
        <time>2008-09-25T13:44:10Z</time>
      </trkpt>
      <trkpt lat="33.042091" lon="-4.027375">
        <ele>916.3</ele>
        <time>2008-09-25T13:44:13Z</time>
      </trkpt>
      <trkpt lat="33.041981" lon="-4.028111">
        <ele>916.3</ele>
        <time>2008-09-25T13:44:16Z</time>
      </trkpt>
      <trkpt lat="33.041873" lon="-4.028840">
        <ele>917.2</ele>
        <time>2008-09-25T13:44:19Z</time>
      </trkpt>
      <trkpt lat="33.041768" lon="-4.029560">
        <ele>917.7</ele>
        <time>2008-09-25T13:44:22Z</time>
      </trkpt>
      <trkpt lat="33.041665" lon="-4.030268">
        <ele>918.2</ele>
        <time>2008-09-25T13:44:25Z</time>
      </trkpt>
      <trkpt lat="33.041558" lon="-4.030968">
        <ele>918.7</ele>
        <time>2008-09-25T13:44:28Z</time>
      </trkpt>
      <trkpt lat="33.041456" lon="-4.031667">
        <ele>919.6</ele>
        <time>2008-09-25T13:44:31Z</time>
      </trkpt>
      <trkpt lat="33.041379" lon="-4.032373">
        <ele>919.6</ele>
        <time>2008-09-25T13:44:34Z</time>
      </trkpt>
      <trkpt lat="33.041360" lon="-4.033089">
        <ele>920.1</ele>
        <time>2008-09-25T13:44:37Z</time>
      </trkpt>
      <trkpt lat="33.041411" lon="-4.033808">
        <ele>921.1</ele>
        <time>2008-09-25T13:44:40Z</time>
      </trkpt>
      <trkpt lat="33.041532" lon="-4.034515">
        <ele>921.6</ele>
        <time>2008-09-25T13:44:43Z</time>
      </trkpt>
      <trkpt lat="33.041661" lon="-4.035229">
        <ele>922.5</ele>
        <time>2008-09-25T13:44:46Z</time>
      </trkpt>
      <trkpt lat="33.041786" lon="-4.035937">
        <ele>923.5</ele>
        <time>2008-09-25T13:44:49Z</time>
      </trkpt>
      <trkpt lat="33.041915" lon="-4.036637">
        <ele>924.0</ele>
        <time>2008-09-25T13:44:52Z</time>
      </trkpt>
      <trkpt lat="33.042028" lon="-4.037340">
        <ele>924.0</ele>
        <time>2008-09-25T13:44:55Z</time>
      </trkpt>
      <trkpt lat="33.042059" lon="-4.038047">
        <ele>924.0</ele>
        <time>2008-09-25T13:44:58Z</time>
      </trkpt>
      <trkpt lat="33.042000" lon="-4.038743">
        <ele>924.4</ele>
        <time>2008-09-25T13:45:01Z</time>
      </trkpt>
      <trkpt lat="33.041935" lon="-4.039418">
        <ele>924.4</ele>
        <time>2008-09-25T13:45:04Z</time>
      </trkpt>
      <trkpt lat="33.041862" lon="-4.040096">
        <ele>923.0</ele>
        <time>2008-09-25T13:45:07Z</time>
      </trkpt>
      <trkpt lat="33.041767" lon="-4.040814">
        <ele>921.1</ele>
        <time>2008-09-25T13:45:10Z</time>
      </trkpt>
      <trkpt lat="33.041618" lon="-4.041541">
        <ele>921.6</ele>
        <time>2008-09-25T13:45:13Z</time>
      </trkpt>
      <trkpt lat="33.041430" lon="-4.042259">
        <ele>923.0</ele>
        <time>2008-09-25T13:45:16Z</time>
      </trkpt>
      <trkpt lat="33.041229" lon="-4.042975">
        <ele>924.9</ele>
        <time>2008-09-25T13:45:19Z</time>
      </trkpt>
      <trkpt lat="33.041027" lon="-4.043692">
        <ele>926.4</ele>
        <time>2008-09-25T13:45:22Z</time>
      </trkpt>
      <trkpt lat="33.040833" lon="-4.044402">
        <ele>928.3</ele>
        <time>2008-09-25T13:45:25Z</time>
      </trkpt>
      <trkpt lat="33.040645" lon="-4.045094">
        <ele>929.3</ele>
        <time>2008-09-25T13:45:28Z</time>
      </trkpt>
      <trkpt lat="33.040496" lon="-4.045787">
        <ele>929.7</ele>
        <time>2008-09-25T13:45:31Z</time>
      </trkpt>
      <trkpt lat="33.040473" lon="-4.046500">
        <ele>930.7</ele>
        <time>2008-09-25T13:45:34Z</time>
      </trkpt>
      <trkpt lat="33.040572" lon="-4.047213">
        <ele>932.6</ele>
        <time>2008-09-25T13:45:37Z</time>
      </trkpt>
      <trkpt lat="33.040719" lon="-4.047918">
        <ele>935.0</ele>
        <time>2008-09-25T13:45:40Z</time>
      </trkpt>
      <trkpt lat="33.040872" lon="-4.048624">
        <ele>936.0</ele>
        <time>2008-09-25T13:45:43Z</time>
      </trkpt>
      <trkpt lat="33.041026" lon="-4.049347">
        <ele>936.0</ele>
        <time>2008-09-25T13:45:46Z</time>
      </trkpt>
      <trkpt lat="33.041180" lon="-4.050073">
        <ele>936.9</ele>
        <time>2008-09-25T13:45:49Z</time>
      </trkpt>
      <trkpt lat="33.041323" lon="-4.050775">
        <ele>937.4</ele>
        <time>2008-09-25T13:45:52Z</time>
      </trkpt>
      <trkpt lat="33.041349" lon="-4.051438">
        <ele>937.9</ele>
        <time>2008-09-25T13:45:55Z</time>
      </trkpt>
      <trkpt lat="33.041226" lon="-4.052022">
        <ele>937.4</ele>
        <time>2008-09-25T13:45:58Z</time>
      </trkpt>
      <trkpt lat="33.040955" lon="-4.052516">
        <ele>936.0</ele>
        <time>2008-09-25T13:46:01Z</time>
      </trkpt>
      <trkpt lat="33.040576" lon="-4.052904">
        <ele>934.5</ele>
        <time>2008-09-25T13:46:04Z</time>
      </trkpt>
      <trkpt lat="33.040115" lon="-4.053128">
        <ele>934.5</ele>
        <time>2008-09-25T13:46:07Z</time>
      </trkpt>
      <trkpt lat="33.039621" lon="-4.053201">
        <ele>934.5</ele>
        <time>2008-09-25T13:46:10Z</time>
      </trkpt>
      <trkpt lat="33.039121" lon="-4.053238">
        <ele>934.5</ele>
        <time>2008-09-25T13:46:13Z</time>
      </trkpt>
      <trkpt lat="33.038613" lon="-4.053281">
        <ele>934.1</ele>
        <time>2008-09-25T13:46:16Z</time>
      </trkpt>
      <trkpt lat="33.038098" lon="-4.053342">
        <ele>934.1</ele>
        <time>2008-09-25T13:46:19Z</time>
      </trkpt>
      <trkpt lat="33.037594" lon="-4.053458">
        <ele>935.0</ele>
        <time>2008-09-25T13:46:22Z</time>
      </trkpt>
      <trkpt lat="33.037123" lon="-4.053637">
        <ele>936.0</ele>
        <time>2008-09-25T13:46:25Z</time>
      </trkpt>
      <trkpt lat="33.036713" lon="-4.053924">
        <ele>936.9</ele>
        <time>2008-09-25T13:46:28Z</time>
      </trkpt>
      <trkpt lat="33.036386" lon="-4.054315">
        <ele>937.9</ele>
        <time>2008-09-25T13:46:31Z</time>
      </trkpt>
      <trkpt lat="33.036103" lon="-4.054952">
        <ele>938.4</ele>
        <time>2008-09-25T13:46:35Z</time>
      </trkpt>
      <trkpt lat="33.036012" lon="-4.055517">
        <ele>937.9</ele>
        <time>2008-09-25T13:46:38Z</time>
      </trkpt>
      <trkpt lat="33.036067" lon="-4.056138">
        <ele>937.4</ele>
        <time>2008-09-25T13:46:41Z</time>
      </trkpt>
      <trkpt lat="33.036168" lon="-4.056794">
        <ele>936.9</ele>
        <time>2008-09-25T13:46:44Z</time>
      </trkpt>
      <trkpt lat="33.036278" lon="-4.057485">
        <ele>937.4</ele>
        <time>2008-09-25T13:46:47Z</time>
      </trkpt>
      <trkpt lat="33.036392" lon="-4.058197">
        <ele>938.4</ele>
        <time>2008-09-25T13:46:50Z</time>
      </trkpt>
      <trkpt lat="33.036509" lon="-4.058927">
        <ele>939.8</ele>
        <time>2008-09-25T13:46:53Z</time>
      </trkpt>
      <trkpt lat="33.036630" lon="-4.059668">
        <ele>940.8</ele>
        <time>2008-09-25T13:46:56Z</time>
      </trkpt>
      <trkpt lat="33.036751" lon="-4.060387">
        <ele>942.2</ele>
        <time>2008-09-25T13:46:59Z</time>
      </trkpt>
      <trkpt lat="33.036811" lon="-4.061114">
        <ele>942.7</ele>
        <time>2008-09-25T13:47:02Z</time>
      </trkpt>
      <trkpt lat="33.036747" lon="-4.061866">
        <ele>943.2</ele>
        <time>2008-09-25T13:47:05Z</time>
      </trkpt>
      <trkpt lat="33.036654" lon="-4.062629">
        <ele>943.2</ele>
        <time>2008-09-25T13:47:08Z</time>
      </trkpt>
      <trkpt lat="33.036559" lon="-4.063384">
        <ele>942.2</ele>
        <time>2008-09-25T13:47:11Z</time>
      </trkpt>
      <trkpt lat="33.036463" lon="-4.064126">
        <ele>940.8</ele>
        <time>2008-09-25T13:47:14Z</time>
      </trkpt>
      <trkpt lat="33.036360" lon="-4.064872">
        <ele>943.2</ele>
        <time>2008-09-25T13:47:17Z</time>
      </trkpt>
      <trkpt lat="33.036259" lon="-4.065620">
        <ele>946.1</ele>
        <time>2008-09-25T13:47:20Z</time>
      </trkpt>
      <trkpt lat="33.036137" lon="-4.066353">
        <ele>947.0</ele>
        <time>2008-09-25T13:47:23Z</time>
      </trkpt>
      <trkpt lat="33.035990" lon="-4.067072">
        <ele>947.5</ele>
        <time>2008-09-25T13:47:26Z</time>
      </trkpt>
      <trkpt lat="33.035829" lon="-4.067810">
        <ele>948.5</ele>
        <time>2008-09-25T13:47:29Z</time>
      </trkpt>
      <trkpt lat="33.035663" lon="-4.068565">
        <ele>948.5</ele>
        <time>2008-09-25T13:47:32Z</time>
      </trkpt>
      <trkpt lat="33.035502" lon="-4.069317">
        <ele>949.0</ele>
        <time>2008-09-25T13:47:35Z</time>
      </trkpt>
      <trkpt lat="33.035351" lon="-4.070037">
        <ele>949.4</ele>
        <time>2008-09-25T13:47:38Z</time>
      </trkpt>
      <trkpt lat="33.035202" lon="-4.070747">
        <ele>950.4</ele>
        <time>2008-09-25T13:47:41Z</time>
      </trkpt>
      <trkpt lat="33.035051" lon="-4.071456">
        <ele>951.8</ele>
        <time>2008-09-25T13:47:44Z</time>
      </trkpt>
      <trkpt lat="33.034900" lon="-4.072169">
        <ele>953.3</ele>
        <time>2008-09-25T13:47:47Z</time>
      </trkpt>
      <trkpt lat="33.034744" lon="-4.072889">
        <ele>954.2</ele>
        <time>2008-09-25T13:47:50Z</time>
      </trkpt>
      <trkpt lat="33.034594" lon="-4.073589">
        <ele>955.7</ele>
        <time>2008-09-25T13:47:53Z</time>
      </trkpt>
      <trkpt lat="33.034450" lon="-4.074262">
        <ele>957.1</ele>
        <time>2008-09-25T13:47:56Z</time>
      </trkpt>
      <trkpt lat="33.034321" lon="-4.074946">
        <ele>958.6</ele>
        <time>2008-09-25T13:47:59Z</time>
      </trkpt>
      <trkpt lat="33.034227" lon="-4.075624">
        <ele>959.1</ele>
        <time>2008-09-25T13:48:02Z</time>
      </trkpt>
      <trkpt lat="33.034169" lon="-4.076244">
        <ele>960.5</ele>
        <time>2008-09-25T13:48:05Z</time>
      </trkpt>
      <trkpt lat="33.034192" lon="-4.076841">
        <ele>961.5</ele>
        <time>2008-09-25T13:48:09Z</time>
      </trkpt>
      <trkpt lat="33.033936" lon="-4.077209">
        <ele>961.5</ele>
        <time>2008-09-25T13:48:14Z</time>
      </trkpt>
      <trkpt lat="33.033490" lon="-4.077455">
        <ele>960.5</ele>
        <time>2008-09-25T13:48:18Z</time>
      </trkpt>
      <trkpt lat="33.033095" lon="-4.077764">
        <ele>959.5</ele>
        <time>2008-09-25T13:48:21Z</time>
      </trkpt>
      <trkpt lat="33.032659" lon="-4.078120">
        <ele>958.1</ele>
        <time>2008-09-25T13:48:24Z</time>
      </trkpt>
      <trkpt lat="33.032191" lon="-4.078519">
        <ele>956.2</ele>
        <time>2008-09-25T13:48:27Z</time>
      </trkpt>
      <trkpt lat="33.031781" lon="-4.078898">
        <ele>954.7</ele>
        <time>2008-09-25T13:48:30Z</time>
      </trkpt>
      <trkpt lat="33.031227" lon="-4.079381">
        <ele>950.9</ele>
        <time>2008-09-25T14:20:30Z</time>
      </trkpt>
      <trkpt lat="33.030840" lon="-4.079729">
        <ele>949.4</ele>
        <time>2008-09-25T14:20:32Z</time>
      </trkpt>
      <trkpt lat="33.030443" lon="-4.080090">
        <ele>948.0</ele>
        <time>2008-09-25T14:20:34Z</time>
      </trkpt>
      <trkpt lat="33.030039" lon="-4.080460">
        <ele>946.6</ele>
        <time>2008-09-25T14:20:36Z</time>
      </trkpt>
      <trkpt lat="33.029627" lon="-4.080837">
        <ele>945.1</ele>
        <time>2008-09-25T14:20:38Z</time>
      </trkpt>
      <trkpt lat="33.029206" lon="-4.081220">
        <ele>944.2</ele>
        <time>2008-09-25T14:20:40Z</time>
      </trkpt>
      <trkpt lat="33.028783" lon="-4.081601">
        <ele>944.2</ele>
        <time>2008-09-25T14:20:42Z</time>
      </trkpt>
      <trkpt lat="33.028368" lon="-4.081981">
        <ele>943.7</ele>
        <time>2008-09-25T14:20:44Z</time>
      </trkpt>
      <trkpt lat="33.027962" lon="-4.082355">
        <ele>943.7</ele>
        <time>2008-09-25T14:20:46Z</time>
      </trkpt>
      <trkpt lat="33.027562" lon="-4.082718">
        <ele>943.2</ele>
        <time>2008-09-25T14:20:48Z</time>
      </trkpt>
      <trkpt lat="33.027169" lon="-4.083080">
        <ele>943.2</ele>
        <time>2008-09-25T14:20:50Z</time>
      </trkpt>
      <trkpt lat="33.026788" lon="-4.083434">
        <ele>942.7</ele>
        <time>2008-09-25T14:20:52Z</time>
      </trkpt>
      <trkpt lat="33.026412" lon="-4.083775">
        <ele>943.2</ele>
        <time>2008-09-25T14:20:54Z</time>
      </trkpt>
      <trkpt lat="33.026040" lon="-4.084119">
        <ele>944.6</ele>
        <time>2008-09-25T14:20:56Z</time>
      </trkpt>
      <trkpt lat="33.025699" lon="-4.084500">
        <ele>945.6</ele>
        <time>2008-09-25T14:20:58Z</time>
      </trkpt>
      <trkpt lat="33.025392" lon="-4.084935">
        <ele>946.1</ele>
        <time>2008-09-25T14:21:00Z</time>
      </trkpt>
      <trkpt lat="33.025088" lon="-4.085395">
        <ele>946.6</ele>
        <time>2008-09-25T14:21:02Z</time>
      </trkpt>
      <trkpt lat="33.024773" lon="-4.085865">
        <ele>946.6</ele>
        <time>2008-09-25T14:21:04Z</time>
      </trkpt>
      <trkpt lat="33.024459" lon="-4.086333">
        <ele>947.5</ele>
        <time>2008-09-25T14:21:06Z</time>
      </trkpt>
      <trkpt lat="33.024152" lon="-4.086790">
        <ele>947.5</ele>
        <time>2008-09-25T14:21:08Z</time>
      </trkpt>
      <trkpt lat="33.023850" lon="-4.087234">
        <ele>948.5</ele>
        <time>2008-09-25T14:21:10Z</time>
      </trkpt>
      <trkpt lat="33.023561" lon="-4.087659">
        <ele>949.9</ele>
        <time>2008-09-25T14:21:12Z</time>
      </trkpt>
      <trkpt lat="33.023160" lon="-4.088260">
        <ele>951.8</ele>
        <time>2008-09-25T14:21:15Z</time>
      </trkpt>
      <trkpt lat="33.022777" lon="-4.088835">
        <ele>954.2</ele>
        <time>2008-09-25T14:21:18Z</time>
      </trkpt>
      <trkpt lat="33.022375" lon="-4.089402">
        <ele>956.2</ele>
        <time>2008-09-25T14:21:21Z</time>
      </trkpt>
      <trkpt lat="33.021982" lon="-4.089986">
        <ele>958.6</ele>
        <time>2008-09-25T14:21:24Z</time>
      </trkpt>
      <trkpt lat="33.021593" lon="-4.090564">
        <ele>961.0</ele>
        <time>2008-09-25T14:21:27Z</time>
      </trkpt>
      <trkpt lat="33.021221" lon="-4.091108">
        <ele>962.4</ele>
        <time>2008-09-25T14:21:30Z</time>
      </trkpt>
      <trkpt lat="33.020839" lon="-4.091668">
        <ele>962.9</ele>
        <time>2008-09-25T14:21:33Z</time>
      </trkpt>
      <trkpt lat="33.020436" lon="-4.092252">
        <ele>963.4</ele>
        <time>2008-09-25T14:21:36Z</time>
      </trkpt>
      <trkpt lat="33.020019" lon="-4.092854">
        <ele>964.8</ele>
        <time>2008-09-25T14:21:39Z</time>
      </trkpt>
      <trkpt lat="33.019594" lon="-4.093476">
        <ele>965.8</ele>
        <time>2008-09-25T14:21:42Z</time>
      </trkpt>
      <trkpt lat="33.019304" lon="-4.093898">
        <ele>966.3</ele>
        <time>2008-09-25T14:21:44Z</time>
      </trkpt>
      <trkpt lat="33.019008" lon="-4.094328">
        <ele>967.2</ele>
        <time>2008-09-25T14:21:46Z</time>
      </trkpt>
      <trkpt lat="33.018708" lon="-4.094763">
        <ele>967.7</ele>
        <time>2008-09-25T14:21:48Z</time>
      </trkpt>
      <trkpt lat="33.018403" lon="-4.095199">
        <ele>968.2</ele>
        <time>2008-09-25T14:21:50Z</time>
      </trkpt>
      <trkpt lat="33.018096" lon="-4.095642">
        <ele>968.7</ele>
        <time>2008-09-25T14:21:52Z</time>
      </trkpt>
      <trkpt lat="33.017786" lon="-4.096086">
        <ele>969.6</ele>
        <time>2008-09-25T14:21:54Z</time>
      </trkpt>
      <trkpt lat="33.017484" lon="-4.096527">
        <ele>970.1</ele>
        <time>2008-09-25T14:21:56Z</time>
      </trkpt>
      <trkpt lat="33.017195" lon="-4.096949">
        <ele>970.6</ele>
        <time>2008-09-25T14:21:58Z</time>
      </trkpt>
      <trkpt lat="33.016771" lon="-4.097557">
        <ele>971.5</ele>
        <time>2008-09-25T14:22:01Z</time>
      </trkpt>
      <trkpt lat="33.016351" lon="-4.098176">
        <ele>972.0</ele>
        <time>2008-09-25T14:22:04Z</time>
      </trkpt>
      <trkpt lat="33.015931" lon="-4.098789">
        <ele>972.5</ele>
        <time>2008-09-25T14:22:07Z</time>
      </trkpt>
      <trkpt lat="33.015516" lon="-4.099396">
        <ele>973.0</ele>
        <time>2008-09-25T14:22:10Z</time>
      </trkpt>
      <trkpt lat="33.015106" lon="-4.099997">
        <ele>973.0</ele>
        <time>2008-09-25T14:22:13Z</time>
      </trkpt>
      <trkpt lat="33.014680" lon="-4.100597">
        <ele>973.0</ele>
        <time>2008-09-25T14:22:16Z</time>
      </trkpt>
      <trkpt lat="33.014243" lon="-4.101211">
        <ele>973.0</ele>
        <time>2008-09-25T14:22:19Z</time>
      </trkpt>
      <trkpt lat="33.013952" lon="-4.101633">
        <ele>972.5</ele>
        <time>2008-09-25T14:22:21Z</time>
      </trkpt>
      <trkpt lat="33.013660" lon="-4.102057">
        <ele>972.5</ele>
        <time>2008-09-25T14:22:23Z</time>
      </trkpt>
      <trkpt lat="33.013368" lon="-4.102481">
        <ele>972.5</ele>
        <time>2008-09-25T14:22:25Z</time>
      </trkpt>
      <trkpt lat="33.013067" lon="-4.102896">
        <ele>972.5</ele>
        <time>2008-09-25T14:22:27Z</time>
      </trkpt>
      <trkpt lat="33.012732" lon="-4.103270">
        <ele>972.5</ele>
        <time>2008-09-25T14:22:29Z</time>
      </trkpt>
      <trkpt lat="33.012382" lon="-4.103600">
        <ele>972.0</ele>
        <time>2008-09-25T14:22:31Z</time>
      </trkpt>
      <trkpt lat="33.011875" lon="-4.104068">
        <ele>971.1</ele>
        <time>2008-09-25T14:22:34Z</time>
      </trkpt>
      <trkpt lat="33.011373" lon="-4.104530">
        <ele>971.1</ele>
        <time>2008-09-25T14:22:37Z</time>
      </trkpt>
      <trkpt lat="33.010864" lon="-4.104999">
        <ele>973.5</ele>
        <time>2008-09-25T14:22:40Z</time>
      </trkpt>
      <trkpt lat="33.010340" lon="-4.105476">
        <ele>975.4</ele>
        <time>2008-09-25T14:22:43Z</time>
      </trkpt>
      <trkpt lat="33.009820" lon="-4.105959">
        <ele>976.4</ele>
        <time>2008-09-25T14:22:46Z</time>
      </trkpt>
      <trkpt lat="33.009312" lon="-4.106436">
        <ele>977.3</ele>
        <time>2008-09-25T14:22:49Z</time>
      </trkpt>
      <trkpt lat="33.008863" lon="-4.106874">
        <ele>977.8</ele>
        <time>2008-09-25T14:22:52Z</time>
      </trkpt>
      <trkpt lat="33.008488" lon="-4.107372">
        <ele>978.8</ele>
        <time>2008-09-25T14:22:55Z</time>
      </trkpt>
      <trkpt lat="33.008146" lon="-4.107961">
        <ele>979.7</ele>
        <time>2008-09-25T14:22:58Z</time>
      </trkpt>
      <trkpt lat="33.007792" lon="-4.108597">
        <ele>981.2</ele>
        <time>2008-09-25T14:23:01Z</time>
      </trkpt>
      <trkpt lat="33.007412" lon="-4.109251">
        <ele>982.6</ele>
        <time>2008-09-25T14:23:04Z</time>
      </trkpt>
      <trkpt lat="33.007160" lon="-4.109695">
        <ele>983.1</ele>
        <time>2008-09-25T14:23:06Z</time>
      </trkpt>
      <trkpt lat="33.006786" lon="-4.110358">
        <ele>984.0</ele>
        <time>2008-09-25T14:23:09Z</time>
      </trkpt>
      <trkpt lat="33.006529" lon="-4.110808">
        <ele>984.5</ele>
        <time>2008-09-25T14:23:11Z</time>
      </trkpt>
      <trkpt lat="33.006266" lon="-4.111266">
        <ele>985.5</ele>
        <time>2008-09-25T14:23:13Z</time>
      </trkpt>
      <trkpt lat="33.005998" lon="-4.111732">
        <ele>986.4</ele>
        <time>2008-09-25T14:23:15Z</time>
      </trkpt>
      <trkpt lat="33.005725" lon="-4.112206">
        <ele>987.4</ele>
        <time>2008-09-25T14:23:17Z</time>
      </trkpt>
      <trkpt lat="33.005449" lon="-4.112689">
        <ele>988.4</ele>
        <time>2008-09-25T14:23:19Z</time>
      </trkpt>
      <trkpt lat="33.005169" lon="-4.113178">
        <ele>988.9</ele>
        <time>2008-09-25T14:23:21Z</time>
      </trkpt>
      <trkpt lat="33.004893" lon="-4.113663">
        <ele>989.3</ele>
        <time>2008-09-25T14:23:23Z</time>
      </trkpt>
      <trkpt lat="33.004624" lon="-4.114139">
        <ele>989.3</ele>
        <time>2008-09-25T14:23:25Z</time>
      </trkpt>
      <trkpt lat="33.004351" lon="-4.114618">
        <ele>989.3</ele>
        <time>2008-09-25T14:23:27Z</time>
      </trkpt>
      <trkpt lat="33.004082" lon="-4.115109">
        <ele>989.8</ele>
        <time>2008-09-25T14:23:29Z</time>
      </trkpt>
      <trkpt lat="33.003829" lon="-4.115622">
        <ele>989.8</ele>
        <time>2008-09-25T14:23:31Z</time>
      </trkpt>
      <trkpt lat="33.003579" lon="-4.116148">
        <ele>989.3</ele>
        <time>2008-09-25T14:23:33Z</time>
      </trkpt>
      <trkpt lat="33.003326" lon="-4.116685">
        <ele>988.9</ele>
        <time>2008-09-25T14:23:35Z</time>
      </trkpt>
      <trkpt lat="33.003071" lon="-4.117232">
        <ele>988.9</ele>
        <time>2008-09-25T14:23:37Z</time>
      </trkpt>
      <trkpt lat="33.002815" lon="-4.117786">
        <ele>988.9</ele>
        <time>2008-09-25T14:23:39Z</time>
      </trkpt>
      <trkpt lat="33.002557" lon="-4.118347">
        <ele>988.4</ele>
        <time>2008-09-25T14:23:41Z</time>
      </trkpt>
      <trkpt lat="33.002293" lon="-4.118912">
        <ele>988.4</ele>
        <time>2008-09-25T14:23:43Z</time>
      </trkpt>
      <trkpt lat="33.002026" lon="-4.119482">
        <ele>988.4</ele>
        <time>2008-09-25T14:23:45Z</time>
      </trkpt>
      <trkpt lat="33.001758" lon="-4.120055">
        <ele>988.9</ele>
        <time>2008-09-25T14:23:47Z</time>
      </trkpt>
      <trkpt lat="33.001490" lon="-4.120629">
        <ele>989.8</ele>
        <time>2008-09-25T14:23:49Z</time>
      </trkpt>
      <trkpt lat="33.001221" lon="-4.121202">
        <ele>991.3</ele>
        <time>2008-09-25T14:23:51Z</time>
      </trkpt>
      <trkpt lat="33.000958" lon="-4.121775">
        <ele>992.7</ele>
        <time>2008-09-25T14:23:53Z</time>
      </trkpt>
      <trkpt lat="33.000693" lon="-4.122342">
        <ele>994.6</ele>
        <time>2008-09-25T14:23:55Z</time>
      </trkpt>
      <trkpt lat="33.000430" lon="-4.122904">
        <ele>996.5</ele>
        <time>2008-09-25T14:23:57Z</time>
      </trkpt>
      <trkpt lat="33.000175" lon="-4.123455">
        <ele>998.9</ele>
        <time>2008-09-25T14:23:59Z</time>
      </trkpt>
      <trkpt lat="32.999931" lon="-4.123985">
        <ele>1000.9</ele>
        <time>2008-09-25T14:24:01Z</time>
      </trkpt>
      <trkpt lat="32.999695" lon="-4.124493">
        <ele>1003.3</ele>
        <time>2008-09-25T14:24:03Z</time>
      </trkpt>
      <trkpt lat="32.999465" lon="-4.124985">
        <ele>1005.7</ele>
        <time>2008-09-25T14:24:05Z</time>
      </trkpt>
      <trkpt lat="32.999231" lon="-4.125477">
        <ele>1006.6</ele>
        <time>2008-09-25T14:24:07Z</time>
      </trkpt>
      <trkpt lat="32.999003" lon="-4.125967">
        <ele>1007.1</ele>
        <time>2008-09-25T14:24:09Z</time>
      </trkpt>
      <trkpt lat="32.998784" lon="-4.126439">
        <ele>1007.6</ele>
        <time>2008-09-25T14:24:11Z</time>
      </trkpt>
      <trkpt lat="32.998418" lon="-4.127087">
        <ele>1006.6</ele>
        <time>2008-09-25T14:24:14Z</time>
      </trkpt>
      <trkpt lat="32.998100" lon="-4.127492">
        <ele>1005.7</ele>
        <time>2008-09-25T14:24:16Z</time>
      </trkpt>
      <trkpt lat="32.997756" lon="-4.127908">
        <ele>1004.7</ele>
        <time>2008-09-25T14:24:18Z</time>
      </trkpt>
      <trkpt lat="32.997402" lon="-4.128340">
        <ele>1004.7</ele>
        <time>2008-09-25T14:24:20Z</time>
      </trkpt>
      <trkpt lat="32.997048" lon="-4.128768">
        <ele>1004.7</ele>
        <time>2008-09-25T14:24:22Z</time>
      </trkpt>
      <trkpt lat="32.996707" lon="-4.129180">
        <ele>1004.7</ele>
        <time>2008-09-25T14:24:24Z</time>
      </trkpt>
      <trkpt lat="32.996379" lon="-4.129592">
        <ele>1005.2</ele>
        <time>2008-09-25T14:24:26Z</time>
      </trkpt>
      <trkpt lat="32.996032" lon="-4.130002">
        <ele>1005.2</ele>
        <time>2008-09-25T14:24:28Z</time>
      </trkpt>
      <trkpt lat="32.995671" lon="-4.130427">
        <ele>1005.2</ele>
        <time>2008-09-25T14:24:30Z</time>
      </trkpt>
      <trkpt lat="32.995305" lon="-4.130868">
        <ele>1005.2</ele>
        <time>2008-09-25T14:24:32Z</time>
      </trkpt>
      <trkpt lat="32.994935" lon="-4.131318">
        <ele>1005.2</ele>
        <time>2008-09-25T14:24:34Z</time>
      </trkpt>
      <trkpt lat="32.994566" lon="-4.131765">
        <ele>1005.7</ele>
        <time>2008-09-25T14:24:36Z</time>
      </trkpt>
      <trkpt lat="32.994195" lon="-4.132204">
        <ele>1007.1</ele>
        <time>2008-09-25T14:24:38Z</time>
      </trkpt>
      <trkpt lat="32.993827" lon="-4.132648">
        <ele>1008.6</ele>
        <time>2008-09-25T14:24:40Z</time>
      </trkpt>
      <trkpt lat="32.993464" lon="-4.133106">
        <ele>1009.5</ele>
        <time>2008-09-25T14:24:42Z</time>
      </trkpt>
      <trkpt lat="32.993102" lon="-4.133570">
        <ele>1010.5</ele>
        <time>2008-09-25T14:24:44Z</time>
      </trkpt>
      <trkpt lat="32.992740" lon="-4.134043">
        <ele>1011.4</ele>
        <time>2008-09-25T14:24:46Z</time>
      </trkpt>
      <trkpt lat="32.992378" lon="-4.134519">
        <ele>1012.4</ele>
        <time>2008-09-25T14:24:48Z</time>
      </trkpt>
      <trkpt lat="32.992016" lon="-4.134999">
        <ele>1013.4</ele>
        <time>2008-09-25T14:24:50Z</time>
      </trkpt>
      <trkpt lat="32.991661" lon="-4.135469">
        <ele>1014.3</ele>
        <time>2008-09-25T14:24:52Z</time>
      </trkpt>
      <trkpt lat="32.991320" lon="-4.135920">
        <ele>1015.3</ele>
        <time>2008-09-25T14:24:54Z</time>
      </trkpt>
      <trkpt lat="32.990995" lon="-4.136366">
        <ele>1016.3</ele>
        <time>2008-09-25T14:24:56Z</time>
      </trkpt>
      <trkpt lat="32.990701" lon="-4.136832">
        <ele>1017.7</ele>
        <time>2008-09-25T14:24:58Z</time>
      </trkpt>
      <trkpt lat="32.990452" lon="-4.137331">
        <ele>1018.7</ele>
        <time>2008-09-25T14:25:00Z</time>
      </trkpt>
      <trkpt lat="32.990234" lon="-4.137850">
        <ele>1019.6</ele>
        <time>2008-09-25T14:25:02Z</time>
      </trkpt>
      <trkpt lat="32.990028" lon="-4.138374">
        <ele>1020.1</ele>
        <time>2008-09-25T14:25:04Z</time>
      </trkpt>
      <trkpt lat="32.989821" lon="-4.138897">
        <ele>1020.6</ele>
        <time>2008-09-25T14:25:06Z</time>
      </trkpt>
      <trkpt lat="32.989615" lon="-4.139411">
        <ele>1021.5</ele>
        <time>2008-09-25T14:25:08Z</time>
      </trkpt>
      <trkpt lat="32.989402" lon="-4.139889">
        <ele>1022.0</ele>
        <time>2008-09-25T14:25:10Z</time>
      </trkpt>
      <trkpt lat="32.989155" lon="-4.140336">
        <ele>1022.5</ele>
        <time>2008-09-25T14:25:12Z</time>
      </trkpt>
      <trkpt lat="32.988881" lon="-4.140764">
        <ele>1023.9</ele>
        <time>2008-09-25T14:25:14Z</time>
      </trkpt>
      <trkpt lat="32.988471" lon="-4.141363">
        <ele>1024.9</ele>
        <time>2008-09-25T14:25:17Z</time>
      </trkpt>
      <trkpt lat="32.988104" lon="-4.141896">
        <ele>1025.9</ele>
        <time>2008-09-25T14:25:20Z</time>
      </trkpt>
      <trkpt lat="32.987693" lon="-4.142337">
        <ele>1026.3</ele>
        <time>2008-09-25T14:25:23Z</time>
      </trkpt>
      <trkpt lat="32.987199" lon="-4.142681">
        <ele>1025.4</ele>
        <time>2008-09-25T14:25:26Z</time>
      </trkpt>
      <trkpt lat="32.986659" lon="-4.142881">
        <ele>1023.5</ele>
        <time>2008-09-25T14:25:29Z</time>
      </trkpt>
      <trkpt lat="32.986070" lon="-4.142965">
        <ele>1021.1</ele>
        <time>2008-09-25T14:25:32Z</time>
      </trkpt>
      <trkpt lat="32.985447" lon="-4.142982">
        <ele>1016.7</ele>
        <time>2008-09-25T14:25:35Z</time>
      </trkpt>
      <trkpt lat="32.984789" lon="-4.143014">
        <ele>1012.9</ele>
        <time>2008-09-25T14:25:38Z</time>
      </trkpt>
      <trkpt lat="32.984332" lon="-4.143087">
        <ele>1010.0</ele>
        <time>2008-09-25T14:25:40Z</time>
      </trkpt>
      <trkpt lat="32.983869" lon="-4.143232">
        <ele>1008.1</ele>
        <time>2008-09-25T14:25:42Z</time>
      </trkpt>
      <trkpt lat="32.983403" lon="-4.143397">
        <ele>1006.6</ele>
        <time>2008-09-25T14:25:44Z</time>
      </trkpt>
      <trkpt lat="32.982943" lon="-4.143565">
        <ele>1005.7</ele>
        <time>2008-09-25T14:25:46Z</time>
      </trkpt>
      <trkpt lat="32.982494" lon="-4.143727">
        <ele>1005.7</ele>
        <time>2008-09-25T14:25:48Z</time>
      </trkpt>
      <trkpt lat="32.982068" lon="-4.143892">
        <ele>1005.7</ele>
        <time>2008-09-25T14:25:50Z</time>
      </trkpt>
      <trkpt lat="32.981491" lon="-4.144223">
        <ele>1006.6</ele>
        <time>2008-09-25T14:25:53Z</time>
      </trkpt>
      <trkpt lat="32.981003" lon="-4.144704">
        <ele>1008.1</ele>
        <time>2008-09-25T14:25:56Z</time>
      </trkpt>
      <trkpt lat="32.980553" lon="-4.145272">
        <ele>1008.6</ele>
        <time>2008-09-25T14:25:59Z</time>
      </trkpt>
      <trkpt lat="32.980083" lon="-4.145872">
        <ele>1006.6</ele>
        <time>2008-09-25T14:26:02Z</time>
      </trkpt>
      <trkpt lat="32.979761" lon="-4.146285">
        <ele>1005.2</ele>
        <time>2008-09-25T14:26:04Z</time>
      </trkpt>
      <trkpt lat="32.979428" lon="-4.146712">
        <ele>1004.7</ele>
        <time>2008-09-25T14:26:06Z</time>
      </trkpt>
      <trkpt lat="32.979085" lon="-4.147153">
        <ele>1003.8</ele>
        <time>2008-09-25T14:26:08Z</time>
      </trkpt>
      <trkpt lat="32.978754" lon="-4.147584">
        <ele>1003.8</ele>
        <time>2008-09-25T14:26:10Z</time>
      </trkpt>
      <trkpt lat="32.978423" lon="-4.148006">
        <ele>1003.8</ele>
        <time>2008-09-25T14:26:12Z</time>
      </trkpt>
      <trkpt lat="32.978087" lon="-4.148434">
        <ele>1004.7</ele>
        <time>2008-09-25T14:26:14Z</time>
      </trkpt>
      <trkpt lat="32.977748" lon="-4.148868">
        <ele>1005.7</ele>
        <time>2008-09-25T14:26:16Z</time>
      </trkpt>
      <trkpt lat="32.977412" lon="-4.149302">
        <ele>1007.6</ele>
        <time>2008-09-25T14:26:18Z</time>
      </trkpt>
      <trkpt lat="32.977100" lon="-4.149709">
        <ele>1009.0</ele>
        <time>2008-09-25T14:26:20Z</time>
      </trkpt>
      <trkpt lat="32.976703" lon="-4.150228">
        <ele>1011.0</ele>
        <time>2008-09-25T14:26:23Z</time>
      </trkpt>
      <trkpt lat="32.976301" lon="-4.150718">
        <ele>1012.4</ele>
        <time>2008-09-25T14:26:26Z</time>
      </trkpt>
      <trkpt lat="32.975836" lon="-4.151211">
        <ele>1012.9</ele>
        <time>2008-09-25T14:26:29Z</time>
      </trkpt>
      <trkpt lat="32.975333" lon="-4.151751">
        <ele>1012.4</ele>
        <time>2008-09-25T14:26:32Z</time>
      </trkpt>
      <trkpt lat="32.974979" lon="-4.152131">
        <ele>1011.9</ele>
        <time>2008-09-25T14:26:34Z</time>
      </trkpt>
      <trkpt lat="32.974622" lon="-4.152520">
        <ele>1011.9</ele>
        <time>2008-09-25T14:26:36Z</time>
      </trkpt>
      <trkpt lat="32.974268" lon="-4.152899">
        <ele>1011.9</ele>
        <time>2008-09-25T14:26:38Z</time>
      </trkpt>
      <trkpt lat="32.973929" lon="-4.153262">
        <ele>1011.4</ele>
        <time>2008-09-25T14:26:40Z</time>
      </trkpt>
      <trkpt lat="32.973443" lon="-4.153782">
        <ele>1011.9</ele>
        <time>2008-09-25T14:26:43Z</time>
      </trkpt>
      <trkpt lat="32.973001" lon="-4.154354">
        <ele>1012.9</ele>
        <time>2008-09-25T14:26:46Z</time>
      </trkpt>
      <trkpt lat="32.972652" lon="-4.155043">
        <ele>1014.3</ele>
        <time>2008-09-25T14:26:49Z</time>
      </trkpt>
      <trkpt lat="32.972433" lon="-4.155532">
        <ele>1014.8</ele>
        <time>2008-09-25T14:26:51Z</time>
      </trkpt>
      <trkpt lat="32.972209" lon="-4.156032">
        <ele>1015.3</ele>
        <time>2008-09-25T14:26:53Z</time>
      </trkpt>
      <trkpt lat="32.971977" lon="-4.156538">
        <ele>1015.8</ele>
        <time>2008-09-25T14:26:55Z</time>
      </trkpt>
      <trkpt lat="32.971744" lon="-4.157057">
        <ele>1016.3</ele>
        <time>2008-09-25T14:26:57Z</time>
      </trkpt>
      <trkpt lat="32.971508" lon="-4.157581">
        <ele>1017.7</ele>
        <time>2008-09-25T14:26:59Z</time>
      </trkpt>
      <trkpt lat="32.971273" lon="-4.158100">
        <ele>1018.7</ele>
        <time>2008-09-25T14:27:01Z</time>
      </trkpt>
      <trkpt lat="32.971041" lon="-4.158612">
        <ele>1020.1</ele>
        <time>2008-09-25T14:27:03Z</time>
      </trkpt>
      <trkpt lat="32.970809" lon="-4.159118">
        <ele>1021.1</ele>
        <time>2008-09-25T14:27:05Z</time>
      </trkpt>
      <trkpt lat="32.970586" lon="-4.159609">
        <ele>1022.0</ele>
        <time>2008-09-25T14:27:07Z</time>
      </trkpt>
      <trkpt lat="32.970376" lon="-4.160079">
        <ele>1022.0</ele>
        <time>2008-09-25T14:27:09Z</time>
      </trkpt>
      <trkpt lat="32.970070" lon="-4.160742">
        <ele>1021.5</ele>
        <time>2008-09-25T14:27:12Z</time>
      </trkpt>
      <trkpt lat="32.969680" lon="-4.161331">
        <ele>1019.6</ele>
        <time>2008-09-25T14:27:15Z</time>
      </trkpt>
      <trkpt lat="32.969168" lon="-4.161849">
        <ele>1017.2</ele>
        <time>2008-09-25T14:27:18Z</time>
      </trkpt>
      <trkpt lat="32.968797" lon="-4.162182">
        <ele>1015.8</ele>
        <time>2008-09-25T14:27:20Z</time>
      </trkpt>
      <trkpt lat="32.968429" lon="-4.162511">
        <ele>1014.3</ele>
        <time>2008-09-25T14:27:22Z</time>
      </trkpt>
      <trkpt lat="32.968068" lon="-4.162846">
        <ele>1012.9</ele>
        <time>2008-09-25T14:27:24Z</time>
      </trkpt>
      <trkpt lat="32.967709" lon="-4.163192">
        <ele>1012.9</ele>
        <time>2008-09-25T14:27:26Z</time>
      </trkpt>
      <trkpt lat="32.967362" lon="-4.163563">
        <ele>1012.4</ele>
        <time>2008-09-25T14:27:28Z</time>
      </trkpt>
      <trkpt lat="32.967021" lon="-4.163951">
        <ele>1012.4</ele>
        <time>2008-09-25T14:27:30Z</time>
      </trkpt>
      <trkpt lat="32.966679" lon="-4.164348">
        <ele>1012.4</ele>
        <time>2008-09-25T14:27:32Z</time>
      </trkpt>
      <trkpt lat="32.966339" lon="-4.164745">
        <ele>1012.9</ele>
        <time>2008-09-25T14:27:34Z</time>
      </trkpt>
      <trkpt lat="32.966018" lon="-4.165150">
        <ele>1014.3</ele>
        <time>2008-09-25T14:27:36Z</time>
      </trkpt>
      <trkpt lat="32.965756" lon="-4.165598">
        <ele>1015.8</ele>
        <time>2008-09-25T14:27:38Z</time>
      </trkpt>
      <trkpt lat="32.965562" lon="-4.166088">
        <ele>1018.2</ele>
        <time>2008-09-25T14:27:40Z</time>
      </trkpt>
      <trkpt lat="32.965375" lon="-4.166810">
        <ele>1022.0</ele>
        <time>2008-09-25T14:27:43Z</time>
      </trkpt>
      <trkpt lat="32.965189" lon="-4.167474">
        <ele>1023.5</ele>
        <time>2008-09-25T14:27:46Z</time>
      </trkpt>
      <trkpt lat="32.964862" lon="-4.168071">
        <ele>1022.5</ele>
        <time>2008-09-25T14:27:49Z</time>
      </trkpt>
      <trkpt lat="32.964406" lon="-4.168602">
        <ele>1023.0</ele>
        <time>2008-09-25T14:27:52Z</time>
      </trkpt>
      <trkpt lat="32.963906" lon="-4.169101">
        <ele>1026.8</ele>
        <time>2008-09-25T14:27:55Z</time>
      </trkpt>
      <trkpt lat="32.963419" lon="-4.169603">
        <ele>1030.2</ele>
        <time>2008-09-25T14:27:58Z</time>
      </trkpt>
      <trkpt lat="32.962977" lon="-4.170079">
        <ele>1032.1</ele>
        <time>2008-09-25T14:28:01Z</time>
      </trkpt>
      <trkpt lat="32.962657" lon="-4.170605">
        <ele>1032.6</ele>
        <time>2008-09-25T14:28:04Z</time>
      </trkpt>
      <trkpt lat="32.962473" lon="-4.171240">
        <ele>1031.2</ele>
        <time>2008-09-25T14:28:07Z</time>
      </trkpt>
      <trkpt lat="32.962333" lon="-4.171945">
        <ele>1027.8</ele>
        <time>2008-09-25T14:28:10Z</time>
      </trkpt>
      <trkpt lat="32.962166" lon="-4.172675">
        <ele>1024.4</ele>
        <time>2008-09-25T14:28:13Z</time>
      </trkpt>
      <trkpt lat="32.961938" lon="-4.173407">
        <ele>1021.5</ele>
        <time>2008-09-25T14:28:16Z</time>
      </trkpt>
      <trkpt lat="32.961674" lon="-4.174139">
        <ele>1021.1</ele>
        <time>2008-09-25T14:28:19Z</time>
      </trkpt>
      <trkpt lat="32.961404" lon="-4.174875">
        <ele>1021.5</ele>
        <time>2008-09-25T14:28:22Z</time>
      </trkpt>
      <trkpt lat="32.961138" lon="-4.175602">
        <ele>1022.0</ele>
        <time>2008-09-25T14:28:25Z</time>
      </trkpt>
      <trkpt lat="32.960874" lon="-4.176326">
        <ele>1022.5</ele>
        <time>2008-09-25T14:28:28Z</time>
      </trkpt>
      <trkpt lat="32.960610" lon="-4.177054">
        <ele>1022.0</ele>
        <time>2008-09-25T14:28:31Z</time>
      </trkpt>
      <trkpt lat="32.960394" lon="-4.177651">
        <ele>1022.0</ele>
        <time>2008-09-25T14:28:34Z</time>
      </trkpt>
      <trkpt lat="32.960176" lon="-4.178261">
        <ele>1022.0</ele>
        <time>2008-09-25T14:28:38Z</time>
      </trkpt>
      <trkpt lat="32.959950" lon="-4.178843">
        <ele>1024.9</ele>
        <time>2008-09-25T14:28:42Z</time>
      </trkpt>
      <trkpt lat="32.959721" lon="-4.179496">
        <ele>1027.3</ele>
        <time>2008-09-25T14:28:46Z</time>
      </trkpt>
      <trkpt lat="32.959557" lon="-4.180060">
        <ele>1029.7</ele>
        <time>2008-09-25T14:28:49Z</time>
      </trkpt>
      <trkpt lat="32.959379" lon="-4.180668">
        <ele>1032.1</ele>
        <time>2008-09-25T14:28:52Z</time>
      </trkpt>
      <trkpt lat="32.959171" lon="-4.181292">
        <ele>1034.5</ele>
        <time>2008-09-25T14:28:55Z</time>
      </trkpt>
      <trkpt lat="32.958927" lon="-4.181927">
        <ele>1036.9</ele>
        <time>2008-09-25T14:28:58Z</time>
      </trkpt>
      <trkpt lat="32.958657" lon="-4.182575">
        <ele>1038.4</ele>
        <time>2008-09-25T14:29:01Z</time>
      </trkpt>
      <trkpt lat="32.958384" lon="-4.183240">
        <ele>1040.3</ele>
        <time>2008-09-25T14:29:04Z</time>
      </trkpt>
      <trkpt lat="32.958110" lon="-4.183918">
        <ele>1041.7</ele>
        <time>2008-09-25T14:29:07Z</time>
      </trkpt>
      <trkpt lat="32.957823" lon="-4.184613">
        <ele>1043.2</ele>
        <time>2008-09-25T14:29:10Z</time>
      </trkpt>
      <trkpt lat="32.957540" lon="-4.185307">
        <ele>1045.1</ele>
        <time>2008-09-25T14:29:13Z</time>
      </trkpt>
      <trkpt lat="32.957269" lon="-4.185959">
        <ele>1046.5</ele>
        <time>2008-09-25T14:29:16Z</time>
      </trkpt>
      <trkpt lat="32.956931" lon="-4.186566">
        <ele>1048.0</ele>
        <time>2008-09-25T14:29:19Z</time>
      </trkpt>
      <trkpt lat="32.956540" lon="-4.187156">
        <ele>1047.5</ele>
        <time>2008-09-25T14:29:22Z</time>
      </trkpt>
      <trkpt lat="32.956123" lon="-4.187771">
        <ele>1046.1</ele>
        <time>2008-09-25T14:29:25Z</time>
      </trkpt>
      <trkpt lat="32.955702" lon="-4.188394">
        <ele>1045.6</ele>
        <time>2008-09-25T14:29:28Z</time>
      </trkpt>
      <trkpt lat="32.955278" lon="-4.189024">
        <ele>1046.1</ele>
        <time>2008-09-25T14:29:31Z</time>
      </trkpt>
      <trkpt lat="32.954979" lon="-4.189447">
        <ele>1047.0</ele>
        <time>2008-09-25T14:29:33Z</time>
      </trkpt>
      <trkpt lat="32.954680" lon="-4.189881">
        <ele>1048.5</ele>
        <time>2008-09-25T14:29:35Z</time>
      </trkpt>
      <trkpt lat="32.954388" lon="-4.190312">
        <ele>1049.9</ele>
        <time>2008-09-25T14:29:37Z</time>
      </trkpt>
      <trkpt lat="32.954104" lon="-4.190732">
        <ele>1050.9</ele>
        <time>2008-09-25T14:29:39Z</time>
      </trkpt>
      <trkpt lat="32.953821" lon="-4.191159">
        <ele>1051.8</ele>
        <time>2008-09-25T14:29:41Z</time>
      </trkpt>
      <trkpt lat="32.953531" lon="-4.191593">
        <ele>1052.8</ele>
        <time>2008-09-25T14:29:43Z</time>
      </trkpt>
      <trkpt lat="32.953224" lon="-4.192023">
        <ele>1053.3</ele>
        <time>2008-09-25T14:29:45Z</time>
      </trkpt>
      <trkpt lat="32.952914" lon="-4.192460">
        <ele>1053.7</ele>
        <time>2008-09-25T14:29:47Z</time>
      </trkpt>
      <trkpt lat="32.952601" lon="-4.192904">
        <ele>1054.7</ele>
        <time>2008-09-25T14:29:49Z</time>
      </trkpt>
      <trkpt lat="32.952263" lon="-4.193327">
        <ele>1055.2</ele>
        <time>2008-09-25T14:29:51Z</time>
      </trkpt>
      <trkpt lat="32.951887" lon="-4.193709">
        <ele>1055.7</ele>
        <time>2008-09-25T14:29:53Z</time>
      </trkpt>
      <trkpt lat="32.951496" lon="-4.194080">
        <ele>1056.1</ele>
        <time>2008-09-25T14:29:55Z</time>
      </trkpt>
      <trkpt lat="32.951103" lon="-4.194455">
        <ele>1056.1</ele>
        <time>2008-09-25T14:29:57Z</time>
      </trkpt>
      <trkpt lat="32.950706" lon="-4.194836">
        <ele>1056.1</ele>
        <time>2008-09-25T14:29:59Z</time>
      </trkpt>
      <trkpt lat="32.950300" lon="-4.195222">
        <ele>1055.7</ele>
        <time>2008-09-25T14:30:01Z</time>
      </trkpt>
      <trkpt lat="32.949887" lon="-4.195617">
        <ele>1055.7</ele>
        <time>2008-09-25T14:30:03Z</time>
      </trkpt>
      <trkpt lat="32.949468" lon="-4.196019">
        <ele>1055.2</ele>
        <time>2008-09-25T14:30:05Z</time>
      </trkpt>
      <trkpt lat="32.949042" lon="-4.196424">
        <ele>1055.7</ele>
        <time>2008-09-25T14:30:07Z</time>
      </trkpt>
      <trkpt lat="32.948612" lon="-4.196832">
        <ele>1055.7</ele>
        <time>2008-09-25T14:30:09Z</time>
      </trkpt>
      <trkpt lat="32.948181" lon="-4.197245">
        <ele>1055.7</ele>
        <time>2008-09-25T14:30:11Z</time>
      </trkpt>
      <trkpt lat="32.947760" lon="-4.197658">
        <ele>1055.7</ele>
        <time>2008-09-25T14:30:13Z</time>
      </trkpt>
      <trkpt lat="32.947348" lon="-4.198053">
        <ele>1055.7</ele>
        <time>2008-09-25T14:30:15Z</time>
      </trkpt>
      <trkpt lat="32.946949" lon="-4.198437">
        <ele>1055.7</ele>
        <time>2008-09-25T14:30:17Z</time>
      </trkpt>
      <trkpt lat="32.946550" lon="-4.198822">
        <ele>1056.1</ele>
        <time>2008-09-25T14:30:19Z</time>
      </trkpt>
      <trkpt lat="32.946137" lon="-4.199199">
        <ele>1056.1</ele>
        <time>2008-09-25T14:30:21Z</time>
      </trkpt>
      <trkpt lat="32.945730" lon="-4.199578">
        <ele>1056.1</ele>
        <time>2008-09-25T14:30:23Z</time>
      </trkpt>
      <trkpt lat="32.945329" lon="-4.199965">
        <ele>1056.1</ele>
        <time>2008-09-25T14:30:25Z</time>
      </trkpt>
      <trkpt lat="32.944933" lon="-4.200363">
        <ele>1056.1</ele>
        <time>2008-09-25T14:30:27Z</time>
      </trkpt>
      <trkpt lat="32.944551" lon="-4.200788">
        <ele>1056.1</ele>
        <time>2008-09-25T14:30:29Z</time>
      </trkpt>
      <trkpt lat="32.944184" lon="-4.201240">
        <ele>1056.6</ele>
        <time>2008-09-25T14:30:31Z</time>
      </trkpt>
      <trkpt lat="32.943825" lon="-4.201709">
        <ele>1056.1</ele>
        <time>2008-09-25T14:30:33Z</time>
      </trkpt>
      <trkpt lat="32.943466" lon="-4.202188">
        <ele>1056.1</ele>
        <time>2008-09-25T14:30:35Z</time>
      </trkpt>
      <trkpt lat="32.943104" lon="-4.202668">
        <ele>1056.1</ele>
        <time>2008-09-25T14:30:37Z</time>
      </trkpt>
      <trkpt lat="32.942741" lon="-4.203152">
        <ele>1055.7</ele>
        <time>2008-09-25T14:30:39Z</time>
      </trkpt>
      <trkpt lat="32.942379" lon="-4.203633">
        <ele>1055.7</ele>
        <time>2008-09-25T14:30:41Z</time>
      </trkpt>
      <trkpt lat="32.942018" lon="-4.204113">
        <ele>1055.2</ele>
        <time>2008-09-25T14:30:43Z</time>
      </trkpt>
      <trkpt lat="32.941653" lon="-4.204592">
        <ele>1054.7</ele>
        <time>2008-09-25T14:30:45Z</time>
      </trkpt>
      <trkpt lat="32.941291" lon="-4.205076">
        <ele>1054.2</ele>
        <time>2008-09-25T14:30:47Z</time>
      </trkpt>
      <trkpt lat="32.940926" lon="-4.205558">
        <ele>1053.7</ele>
        <time>2008-09-25T14:30:49Z</time>
      </trkpt>
      <trkpt lat="32.940564" lon="-4.206039">
        <ele>1053.3</ele>
        <time>2008-09-25T14:30:51Z</time>
      </trkpt>
      <trkpt lat="32.940206" lon="-4.206520">
        <ele>1052.8</ele>
        <time>2008-09-25T14:30:53Z</time>
      </trkpt>
      <trkpt lat="32.939847" lon="-4.206997">
        <ele>1052.3</ele>
        <time>2008-09-25T14:30:55Z</time>
      </trkpt>
      <trkpt lat="32.939485" lon="-4.207478">
        <ele>1051.8</ele>
        <time>2008-09-25T14:30:57Z</time>
      </trkpt>
      <trkpt lat="32.939117" lon="-4.207960">
        <ele>1050.4</ele>
        <time>2008-09-25T14:30:59Z</time>
      </trkpt>
      <trkpt lat="32.938754" lon="-4.208450">
        <ele>1049.4</ele>
        <time>2008-09-25T14:31:01Z</time>
      </trkpt>
      <trkpt lat="32.938389" lon="-4.208938">
        <ele>1048.5</ele>
        <time>2008-09-25T14:31:03Z</time>
      </trkpt>
      <trkpt lat="32.938023" lon="-4.209422">
        <ele>1048.0</ele>
        <time>2008-09-25T14:31:05Z</time>
      </trkpt>
      <trkpt lat="32.937666" lon="-4.209889">
        <ele>1047.5</ele>
        <time>2008-09-25T14:31:07Z</time>
      </trkpt>
      <trkpt lat="32.937324" lon="-4.210340">
        <ele>1047.5</ele>
        <time>2008-09-25T14:31:09Z</time>
      </trkpt>
      <trkpt lat="32.936985" lon="-4.210797">
        <ele>1047.0</ele>
        <time>2008-09-25T14:31:11Z</time>
      </trkpt>
      <trkpt lat="32.936638" lon="-4.211258">
        <ele>1046.5</ele>
        <time>2008-09-25T14:31:13Z</time>
      </trkpt>
      <trkpt lat="32.936285" lon="-4.211719">
        <ele>1046.1</ele>
        <time>2008-09-25T14:31:15Z</time>
      </trkpt>
      <trkpt lat="32.935934" lon="-4.212159">
        <ele>1046.1</ele>
        <time>2008-09-25T14:31:17Z</time>
      </trkpt>
      <trkpt lat="32.935573" lon="-4.212537">
        <ele>1046.5</ele>
        <time>2008-09-25T14:31:19Z</time>
      </trkpt>
      <trkpt lat="32.935182" lon="-4.212856">
        <ele>1046.5</ele>
        <time>2008-09-25T14:31:21Z</time>
      </trkpt>
      <trkpt lat="32.934763" lon="-4.213143">
        <ele>1046.1</ele>
        <time>2008-09-25T14:31:23Z</time>
      </trkpt>
      <trkpt lat="32.934324" lon="-4.213419">
        <ele>1044.6</ele>
        <time>2008-09-25T14:31:25Z</time>
      </trkpt>
      <trkpt lat="32.933871" lon="-4.213698">
        <ele>1043.2</ele>
        <time>2008-09-25T14:31:27Z</time>
      </trkpt>
      <trkpt lat="32.933409" lon="-4.213983">
        <ele>1041.7</ele>
        <time>2008-09-25T14:31:29Z</time>
      </trkpt>
      <trkpt lat="32.932945" lon="-4.214277">
        <ele>1039.8</ele>
        <time>2008-09-25T14:31:31Z</time>
      </trkpt>
      <trkpt lat="32.932479" lon="-4.214574">
        <ele>1039.3</ele>
        <time>2008-09-25T14:31:33Z</time>
      </trkpt>
      <trkpt lat="32.932010" lon="-4.214869">
        <ele>1038.8</ele>
        <time>2008-09-25T14:31:35Z</time>
      </trkpt>
      <trkpt lat="32.931543" lon="-4.215162">
        <ele>1039.3</ele>
        <time>2008-09-25T14:31:37Z</time>
      </trkpt>
      <trkpt lat="32.931091" lon="-4.215445">
        <ele>1039.8</ele>
        <time>2008-09-25T14:31:39Z</time>
      </trkpt>
      <trkpt lat="32.930654" lon="-4.215720">
        <ele>1038.8</ele>
        <time>2008-09-25T14:31:41Z</time>
      </trkpt>
      <trkpt lat="32.930232" lon="-4.215984">
        <ele>1037.9</ele>
        <time>2008-09-25T14:31:43Z</time>
      </trkpt>
      <trkpt lat="32.929827" lon="-4.216240">
        <ele>1036.4</ele>
        <time>2008-09-25T14:31:45Z</time>
      </trkpt>
      <trkpt lat="32.929260" lon="-4.216607">
        <ele>1037.4</ele>
        <time>2008-09-25T14:31:48Z</time>
      </trkpt>
      <trkpt lat="32.928732" lon="-4.216942">
        <ele>1038.8</ele>
        <time>2008-09-25T14:31:51Z</time>
      </trkpt>
      <trkpt lat="32.928222" lon="-4.217256">
        <ele>1040.3</ele>
        <time>2008-09-25T14:31:54Z</time>
      </trkpt>
      <trkpt lat="32.927687" lon="-4.217573">
        <ele>1039.3</ele>
        <time>2008-09-25T14:31:57Z</time>
      </trkpt>
      <trkpt lat="32.927111" lon="-4.217937">
        <ele>1037.4</ele>
        <time>2008-09-25T14:32:00Z</time>
      </trkpt>
      <trkpt lat="32.926705" lon="-4.218196">
        <ele>1036.9</ele>
        <time>2008-09-25T14:32:02Z</time>
      </trkpt>
      <trkpt lat="32.926289" lon="-4.218459">
        <ele>1037.4</ele>
        <time>2008-09-25T14:32:04Z</time>
      </trkpt>
      <trkpt lat="32.925873" lon="-4.218721">
        <ele>1037.9</ele>
        <time>2008-09-25T14:32:06Z</time>
      </trkpt>
      <trkpt lat="32.925459" lon="-4.218981">
        <ele>1037.9</ele>
        <time>2008-09-25T14:32:08Z</time>
      </trkpt>
      <trkpt lat="32.925047" lon="-4.219226">
        <ele>1038.4</ele>
        <time>2008-09-25T14:32:10Z</time>
      </trkpt>
      <trkpt lat="32.924628" lon="-4.219449">
        <ele>1038.8</ele>
        <time>2008-09-25T14:32:12Z</time>
      </trkpt>
      <trkpt lat="32.924208" lon="-4.219645">
        <ele>1038.8</ele>
        <time>2008-09-25T14:32:14Z</time>
      </trkpt>
      <trkpt lat="32.923776" lon="-4.219816">
        <ele>1037.9</ele>
        <time>2008-09-25T14:32:16Z</time>
      </trkpt>
      <trkpt lat="32.923329" lon="-4.219973">
        <ele>1036.4</ele>
        <time>2008-09-25T14:32:18Z</time>
      </trkpt>
      <trkpt lat="32.922869" lon="-4.220137">
        <ele>1034.5</ele>
        <time>2008-09-25T14:32:20Z</time>
      </trkpt>
      <trkpt lat="32.922400" lon="-4.220301">
        <ele>1033.1</ele>
        <time>2008-09-25T14:32:22Z</time>
      </trkpt>
      <trkpt lat="32.921925" lon="-4.220471">
        <ele>1032.1</ele>
        <time>2008-09-25T14:32:24Z</time>
      </trkpt>
      <trkpt lat="32.921446" lon="-4.220646">
        <ele>1030.7</ele>
        <time>2008-09-25T14:32:26Z</time>
      </trkpt>
      <trkpt lat="32.920963" lon="-4.220824">
        <ele>1029.7</ele>
        <time>2008-09-25T14:32:28Z</time>
      </trkpt>
      <trkpt lat="32.920482" lon="-4.221007">
        <ele>1029.2</ele>
        <time>2008-09-25T14:32:30Z</time>
      </trkpt>
      <trkpt lat="32.920039" lon="-4.221186">
        <ele>1028.3</ele>
        <time>2008-09-25T14:32:32Z</time>
      </trkpt>
      <trkpt lat="32.919462" lon="-4.221437">
        <ele>1026.8</ele>
        <time>2008-09-25T14:32:35Z</time>
      </trkpt>
      <trkpt lat="32.918952" lon="-4.221677">
        <ele>1025.9</ele>
        <time>2008-09-25T14:32:38Z</time>
      </trkpt>
      <trkpt lat="32.918496" lon="-4.221887">
        <ele>1024.9</ele>
        <time>2008-09-25T14:32:41Z</time>
      </trkpt>
      <trkpt lat="32.918012" lon="-4.222095">
        <ele>1023.9</ele>
        <time>2008-09-25T14:32:44Z</time>
      </trkpt>
      <trkpt lat="32.917480" lon="-4.222326">
        <ele>1023.0</ele>
        <time>2008-09-25T14:32:47Z</time>
      </trkpt>
      <trkpt lat="32.916925" lon="-4.222593">
        <ele>1022.0</ele>
        <time>2008-09-25T14:32:50Z</time>
      </trkpt>
      <trkpt lat="32.916368" lon="-4.222914">
        <ele>1021.1</ele>
        <time>2008-09-25T14:32:53Z</time>
      </trkpt>
      <trkpt lat="32.915818" lon="-4.223323">
        <ele>1019.1</ele>
        <time>2008-09-25T14:32:56Z</time>
      </trkpt>
      <trkpt lat="32.915261" lon="-4.223761">
        <ele>1018.7</ele>
        <time>2008-09-25T14:32:59Z</time>
      </trkpt>
      <trkpt lat="32.914696" lon="-4.224217">
        <ele>1019.6</ele>
        <time>2008-09-25T14:33:02Z</time>
      </trkpt>
      <trkpt lat="32.914150" lon="-4.224644">
        <ele>1021.1</ele>
        <time>2008-09-25T14:33:05Z</time>
      </trkpt>
      <trkpt lat="32.913623" lon="-4.225076">
        <ele>1023.5</ele>
        <time>2008-09-25T14:33:08Z</time>
      </trkpt>
      <trkpt lat="32.913119" lon="-4.225473">
        <ele>1026.8</ele>
        <time>2008-09-25T14:33:11Z</time>
      </trkpt>
      <trkpt lat="32.912608" lon="-4.225824">
        <ele>1029.7</ele>
        <time>2008-09-25T14:33:14Z</time>
      </trkpt>
      <trkpt lat="32.912048" lon="-4.226104">
        <ele>1030.7</ele>
        <time>2008-09-25T14:33:17Z</time>
      </trkpt>
      <trkpt lat="32.911441" lon="-4.226349">
        <ele>1029.7</ele>
        <time>2008-09-25T14:33:20Z</time>
      </trkpt>
      <trkpt lat="32.910802" lon="-4.226612">
        <ele>1028.3</ele>
        <time>2008-09-25T14:33:23Z</time>
      </trkpt>
      <trkpt lat="32.910360" lon="-4.226795">
        <ele>1027.3</ele>
        <time>2008-09-25T14:33:25Z</time>
      </trkpt>
      <trkpt lat="32.909917" lon="-4.226977">
        <ele>1026.3</ele>
        <time>2008-09-25T14:33:27Z</time>
      </trkpt>
      <trkpt lat="32.909458" lon="-4.227167">
        <ele>1024.9</ele>
        <time>2008-09-25T14:33:29Z</time>
      </trkpt>
      <trkpt lat="32.908979" lon="-4.227360">
        <ele>1023.9</ele>
        <time>2008-09-25T14:33:31Z</time>
      </trkpt>
      <trkpt lat="32.908492" lon="-4.227562">
        <ele>1022.5</ele>
        <time>2008-09-25T14:33:33Z</time>
      </trkpt>
      <trkpt lat="32.907996" lon="-4.227766">
        <ele>1022.0</ele>
        <time>2008-09-25T14:33:35Z</time>
      </trkpt>
      <trkpt lat="32.907490" lon="-4.227975">
        <ele>1021.1</ele>
        <time>2008-09-25T14:33:37Z</time>
      </trkpt>
      <trkpt lat="32.906977" lon="-4.228183">
        <ele>1020.1</ele>
        <time>2008-09-25T14:33:39Z</time>
      </trkpt>
      <trkpt lat="32.906460" lon="-4.228400">
        <ele>1019.6</ele>
        <time>2008-09-25T14:33:41Z</time>
      </trkpt>
      <trkpt lat="32.905938" lon="-4.228618">
        <ele>1019.1</ele>
        <time>2008-09-25T14:33:43Z</time>
      </trkpt>
      <trkpt lat="32.905417" lon="-4.228827">
        <ele>1018.7</ele>
        <time>2008-09-25T14:33:45Z</time>
      </trkpt>
      <trkpt lat="32.904908" lon="-4.229036">
        <ele>1017.7</ele>
        <time>2008-09-25T14:33:47Z</time>
      </trkpt>
      <trkpt lat="32.904416" lon="-4.229235">
        <ele>1016.7</ele>
        <time>2008-09-25T14:33:49Z</time>
      </trkpt>
      <trkpt lat="32.903956" lon="-4.229425">
        <ele>1016.3</ele>
        <time>2008-09-25T14:33:51Z</time>
      </trkpt>
      <trkpt lat="32.903339" lon="-4.229678">
        <ele>1015.3</ele>
        <time>2008-09-25T14:33:54Z</time>
      </trkpt>
      <trkpt lat="32.902738" lon="-4.229925">
        <ele>1011.9</ele>
        <time>2008-09-25T14:33:57Z</time>
      </trkpt>
      <trkpt lat="32.902115" lon="-4.230178">
        <ele>1007.6</ele>
        <time>2008-09-25T14:34:00Z</time>
      </trkpt>
      <trkpt lat="32.901478" lon="-4.230439">
        <ele>1004.7</ele>
        <time>2008-09-25T14:34:03Z</time>
      </trkpt>
      <trkpt lat="32.900847" lon="-4.230697">
        <ele>1002.3</ele>
        <time>2008-09-25T14:34:06Z</time>
      </trkpt>
      <trkpt lat="32.900240" lon="-4.230963">
        <ele>1000.9</ele>
        <time>2008-09-25T14:34:09Z</time>
      </trkpt>
      <trkpt lat="32.899656" lon="-4.231348">
        <ele>998.5</ele>
        <time>2008-09-25T14:34:12Z</time>
      </trkpt>
      <trkpt lat="32.899287" lon="-4.231675">
        <ele>997.0</ele>
        <time>2008-09-25T14:34:14Z</time>
      </trkpt>
      <trkpt lat="32.898932" lon="-4.232039">
        <ele>997.0</ele>
        <time>2008-09-25T14:34:16Z</time>
      </trkpt>
      <trkpt lat="32.898583" lon="-4.232402">
        <ele>997.5</ele>
        <time>2008-09-25T14:34:18Z</time>
      </trkpt>
      <trkpt lat="32.898239" lon="-4.232759">
        <ele>998.5</ele>
        <time>2008-09-25T14:34:20Z</time>
      </trkpt>
      <trkpt lat="32.897757" lon="-4.233251">
        <ele>1001.4</ele>
        <time>2008-09-25T14:34:23Z</time>
      </trkpt>
      <trkpt lat="32.897329" lon="-4.233707">
        <ele>1005.7</ele>
        <time>2008-09-25T14:34:26Z</time>
      </trkpt>
      <trkpt lat="32.896997" lon="-4.234087">
        <ele>1008.6</ele>
        <time>2008-09-25T14:34:29Z</time>
      </trkpt>
      <trkpt lat="32.896734" lon="-4.234554">
        <ele>1007.6</ele>
        <time>2008-09-25T14:34:32Z</time>
      </trkpt>
      <trkpt lat="32.896558" lon="-4.235137">
        <ele>1004.7</ele>
        <time>2008-09-25T14:34:35Z</time>
      </trkpt>
      <trkpt lat="32.896383" lon="-4.235791">
        <ele>1000.9</ele>
        <time>2008-09-25T14:34:38Z</time>
      </trkpt>
      <trkpt lat="32.896180" lon="-4.236475">
        <ele>997.0</ele>
        <time>2008-09-25T14:34:41Z</time>
      </trkpt>
      <trkpt lat="32.895814" lon="-4.237087">
        <ele>996.1</ele>
        <time>2008-09-25T14:34:44Z</time>
      </trkpt>
      <trkpt lat="32.895325" lon="-4.237618">
        <ele>996.5</ele>
        <time>2008-09-25T14:34:47Z</time>
      </trkpt>
      <trkpt lat="32.894825" lon="-4.238145">
        <ele>997.5</ele>
        <time>2008-09-25T14:34:50Z</time>
      </trkpt>
      <trkpt lat="32.894334" lon="-4.238674">
        <ele>999.4</ele>
        <time>2008-09-25T14:34:53Z</time>
      </trkpt>
      <trkpt lat="32.893859" lon="-4.239185">
        <ele>1003.3</ele>
        <time>2008-09-25T14:34:56Z</time>
      </trkpt>
      <trkpt lat="32.893412" lon="-4.239663">
        <ele>1008.1</ele>
        <time>2008-09-25T14:34:59Z</time>
      </trkpt>
      <trkpt lat="32.892993" lon="-4.240115">
        <ele>1011.4</ele>
        <time>2008-09-25T14:35:02Z</time>
      </trkpt>
      <trkpt lat="32.892594" lon="-4.240527">
        <ele>1012.9</ele>
        <time>2008-09-25T14:35:05Z</time>
      </trkpt>
      <trkpt lat="32.892153" lon="-4.240881">
        <ele>1012.9</ele>
        <time>2008-09-25T14:35:08Z</time>
      </trkpt>
      <trkpt lat="32.891648" lon="-4.241161">
        <ele>1011.9</ele>
        <time>2008-09-25T14:35:11Z</time>
      </trkpt>
      <trkpt lat="32.891110" lon="-4.241429">
        <ele>1011.4</ele>
        <time>2008-09-25T14:35:14Z</time>
      </trkpt>
      <trkpt lat="32.890539" lon="-4.241699">
        <ele>1011.0</ele>
        <time>2008-09-25T14:35:17Z</time>
      </trkpt>
      <trkpt lat="32.889947" lon="-4.241992">
        <ele>1011.0</ele>
        <time>2008-09-25T14:35:20Z</time>
      </trkpt>
      <trkpt lat="32.889336" lon="-4.242283">
        <ele>1011.4</ele>
        <time>2008-09-25T14:35:23Z</time>
      </trkpt>
      <trkpt lat="32.888740" lon="-4.242550">
        <ele>1011.9</ele>
        <time>2008-09-25T14:35:26Z</time>
      </trkpt>
      <trkpt lat="32.888136" lon="-4.242690">
        <ele>1012.4</ele>
        <time>2008-09-25T14:35:29Z</time>
      </trkpt>
      <trkpt lat="32.887503" lon="-4.242687">
        <ele>1012.9</ele>
        <time>2008-09-25T14:35:32Z</time>
      </trkpt>
      <trkpt lat="32.886862" lon="-4.242617">
        <ele>1013.4</ele>
        <time>2008-09-25T14:35:35Z</time>
      </trkpt>
      <trkpt lat="32.886223" lon="-4.242562">
        <ele>1011.9</ele>
        <time>2008-09-25T14:35:38Z</time>
      </trkpt>
      <trkpt lat="32.885598" lon="-4.242511">
        <ele>1011.4</ele>
        <time>2008-09-25T14:35:41Z</time>
      </trkpt>
      <trkpt lat="32.885036" lon="-4.242438">
        <ele>1011.4</ele>
        <time>2008-09-25T14:35:44Z</time>
      </trkpt>
      <trkpt lat="32.884533" lon="-4.242238">
        <ele>1011.9</ele>
        <time>2008-09-25T14:35:47Z</time>
      </trkpt>
      <trkpt lat="32.884119" lon="-4.241882">
        <ele>1011.9</ele>
        <time>2008-09-25T14:35:50Z</time>
      </trkpt>
      <trkpt lat="32.883762" lon="-4.241469">
        <ele>1011.0</ele>
        <time>2008-09-25T14:35:53Z</time>
      </trkpt>
      <trkpt lat="32.883386" lon="-4.241096">
        <ele>1009.0</ele>
        <time>2008-09-25T14:35:56Z</time>
      </trkpt>
      <trkpt lat="32.882946" lon="-4.240848">
        <ele>1006.2</ele>
        <time>2008-09-25T14:35:59Z</time>
      </trkpt>
      <trkpt lat="32.882426" lon="-4.240744">
        <ele>1002.8</ele>
        <time>2008-09-25T14:36:02Z</time>
      </trkpt>
      <trkpt lat="32.881873" lon="-4.240685">
        <ele>1001.8</ele>
        <time>2008-09-25T14:36:05Z</time>
      </trkpt>
      <trkpt lat="32.881310" lon="-4.240634">
        <ele>1000.9</ele>
        <time>2008-09-25T14:36:08Z</time>
      </trkpt>
      <trkpt lat="32.880745" lon="-4.240579">
        <ele>999.4</ele>
        <time>2008-09-25T14:36:11Z</time>
      </trkpt>
      <trkpt lat="32.880195" lon="-4.240445">
        <ele>998.5</ele>
        <time>2008-09-25T14:36:14Z</time>
      </trkpt>
      <trkpt lat="32.879670" lon="-4.240186">
        <ele>997.5</ele>
        <time>2008-09-25T14:36:17Z</time>
      </trkpt>
      <trkpt lat="32.879157" lon="-4.239909">
        <ele>996.5</ele>
        <time>2008-09-25T14:36:20Z</time>
      </trkpt>
      <trkpt lat="32.878672" lon="-4.239652">
        <ele>996.1</ele>
        <time>2008-09-25T14:36:23Z</time>
      </trkpt>
      <trkpt lat="32.878216" lon="-4.239419">
        <ele>996.1</ele>
        <time>2008-09-25T14:36:26Z</time>
      </trkpt>
      <trkpt lat="32.877780" lon="-4.239189">
        <ele>996.1</ele>
        <time>2008-09-25T14:36:29Z</time>
      </trkpt>
      <trkpt lat="32.877325" lon="-4.239039">
        <ele>995.1</ele>
        <time>2008-09-25T14:36:32Z</time>
      </trkpt>
      <trkpt lat="32.876912" lon="-4.239181">
        <ele>996.1</ele>
        <time>2008-09-25T14:36:35Z</time>
      </trkpt>
      <trkpt lat="32.876616" lon="-4.239772">
        <ele>996.5</ele>
        <time>2008-09-25T14:36:39Z</time>
      </trkpt>
      <trkpt lat="32.876467" lon="-4.240298">
        <ele>997.0</ele>
        <time>2008-09-25T14:36:42Z</time>
      </trkpt>
      <trkpt lat="32.876311" lon="-4.240850">
        <ele>998.0</ele>
        <time>2008-09-25T14:36:45Z</time>
      </trkpt>
      <trkpt lat="32.876147" lon="-4.241423">
        <ele>998.5</ele>
        <time>2008-09-25T14:36:48Z</time>
      </trkpt>
      <trkpt lat="32.875989" lon="-4.241995">
        <ele>998.9</ele>
        <time>2008-09-25T14:36:51Z</time>
      </trkpt>
      <trkpt lat="32.875949" lon="-4.242591">
        <ele>999.4</ele>
        <time>2008-09-25T14:36:54Z</time>
      </trkpt>
      <trkpt lat="32.876009" lon="-4.243199">
        <ele>1000.4</ele>
        <time>2008-09-25T14:36:57Z</time>
      </trkpt>
      <trkpt lat="32.876066" lon="-4.243820">
        <ele>1000.9</ele>
        <time>2008-09-25T14:37:00Z</time>
      </trkpt>
      <trkpt lat="32.876125" lon="-4.244427">
        <ele>1001.4</ele>
        <time>2008-09-25T14:37:03Z</time>
      </trkpt>
      <trkpt lat="32.876165" lon="-4.244997">
        <ele>1001.4</ele>
        <time>2008-09-25T14:37:06Z</time>
      </trkpt>
      <trkpt lat="32.876043" lon="-4.245559">
        <ele>1000.9</ele>
        <time>2008-09-25T14:37:09Z</time>
      </trkpt>
      <trkpt lat="32.874934" lon="-4.248841">
        <ele>1014.8</ele>
        <time>2008-09-25T14:37:26Z</time>
      </trkpt>
      <trkpt lat="32.874681" lon="-4.249496">
        <ele>999.4</ele>
        <time>2008-09-25T14:37:29Z</time>
      </trkpt>
      <trkpt lat="32.874446" lon="-4.250099">
        <ele>999.4</ele>
        <time>2008-09-25T14:37:32Z</time>
      </trkpt>
      <trkpt lat="32.874218" lon="-4.250721">
        <ele>1000.4</ele>
        <time>2008-09-25T14:37:35Z</time>
      </trkpt>
      <trkpt lat="32.873993" lon="-4.251366">
        <ele>1001.8</ele>
        <time>2008-09-25T14:37:38Z</time>
      </trkpt>
      <trkpt lat="32.873763" lon="-4.252019">
        <ele>1005.2</ele>
        <time>2008-09-25T14:37:41Z</time>
      </trkpt>
      <trkpt lat="32.873539" lon="-4.252652">
        <ele>1007.6</ele>
        <time>2008-09-25T14:37:44Z</time>
      </trkpt>
      <trkpt lat="32.873304" lon="-4.253272">
        <ele>1008.6</ele>
        <time>2008-09-25T14:37:47Z</time>
      </trkpt>
      <trkpt lat="32.873034" lon="-4.253870">
        <ele>1009.0</ele>
        <time>2008-09-25T14:37:50Z</time>
      </trkpt>
      <trkpt lat="32.872707" lon="-4.254414">
        <ele>1009.0</ele>
        <time>2008-09-25T14:37:53Z</time>
      </trkpt>
      <trkpt lat="32.872354" lon="-4.254961">
        <ele>1009.5</ele>
        <time>2008-09-25T14:37:56Z</time>
      </trkpt>
      <trkpt lat="32.871994" lon="-4.255529">
        <ele>1010.0</ele>
        <time>2008-09-25T14:37:59Z</time>
      </trkpt>
      <trkpt lat="32.871629" lon="-4.256114">
        <ele>1010.5</ele>
        <time>2008-09-25T14:38:02Z</time>
      </trkpt>
      <trkpt lat="32.871248" lon="-4.256706">
        <ele>1011.0</ele>
        <time>2008-09-25T14:38:05Z</time>
      </trkpt>
      <trkpt lat="32.870868" lon="-4.257318">
        <ele>1011.4</ele>
        <time>2008-09-25T14:38:08Z</time>
      </trkpt>
      <trkpt lat="32.870481" lon="-4.257941">
        <ele>1011.9</ele>
        <time>2008-09-25T14:38:11Z</time>
      </trkpt>
      <trkpt lat="32.870072" lon="-4.258561">
        <ele>1012.4</ele>
        <time>2008-09-25T14:38:14Z</time>
      </trkpt>
      <trkpt lat="32.869618" lon="-4.259148">
        <ele>1012.9</ele>
        <time>2008-09-25T14:38:17Z</time>
      </trkpt>
      <trkpt lat="32.869153" lon="-4.259716">
        <ele>1012.9</ele>
        <time>2008-09-25T14:38:20Z</time>
      </trkpt>
      <trkpt lat="32.868698" lon="-4.260259">
        <ele>1013.4</ele>
        <time>2008-09-25T14:38:23Z</time>
      </trkpt>
      <trkpt lat="32.868276" lon="-4.260787">
        <ele>1013.8</ele>
        <time>2008-09-25T14:38:26Z</time>
      </trkpt>
      <trkpt lat="32.867915" lon="-4.261374">
        <ele>1012.9</ele>
        <time>2008-09-25T14:38:29Z</time>
      </trkpt>
      <trkpt lat="32.867673" lon="-4.262047">
        <ele>1012.9</ele>
        <time>2008-09-25T14:38:32Z</time>
      </trkpt>
      <trkpt lat="32.867469" lon="-4.262738">
        <ele>1013.4</ele>
        <time>2008-09-25T14:38:35Z</time>
      </trkpt>
      <trkpt lat="32.867251" lon="-4.263422">
        <ele>1014.8</ele>
        <time>2008-09-25T14:38:38Z</time>
      </trkpt>
      <trkpt lat="32.867035" lon="-4.264121">
        <ele>1014.3</ele>
        <time>2008-09-25T14:38:41Z</time>
      </trkpt>
      <trkpt lat="32.866815" lon="-4.264847">
        <ele>1013.4</ele>
        <time>2008-09-25T14:38:44Z</time>
      </trkpt>
      <trkpt lat="32.866579" lon="-4.265585">
        <ele>1013.8</ele>
        <time>2008-09-25T14:38:47Z</time>
      </trkpt>
      <trkpt lat="32.866273" lon="-4.266288">
        <ele>1015.3</ele>
        <time>2008-09-25T14:38:50Z</time>
      </trkpt>
      <trkpt lat="32.865890" lon="-4.266945">
        <ele>1015.3</ele>
        <time>2008-09-25T14:38:53Z</time>
      </trkpt>
      <trkpt lat="32.865618" lon="-4.267378">
        <ele>1015.3</ele>
        <time>2008-09-25T14:38:55Z</time>
      </trkpt>
      <trkpt lat="32.865208" lon="-4.268036">
        <ele>1015.3</ele>
        <time>2008-09-25T14:38:58Z</time>
      </trkpt>
      <trkpt lat="32.864934" lon="-4.268483">
        <ele>1015.8</ele>
        <time>2008-09-25T14:39:00Z</time>
      </trkpt>
      <trkpt lat="32.864656" lon="-4.268933">
        <ele>1015.8</ele>
        <time>2008-09-25T14:39:02Z</time>
      </trkpt>
      <trkpt lat="32.864376" lon="-4.269389">
        <ele>1015.8</ele>
        <time>2008-09-25T14:39:04Z</time>
      </trkpt>
      <trkpt lat="32.864093" lon="-4.269850">
        <ele>1015.8</ele>
        <time>2008-09-25T14:39:06Z</time>
      </trkpt>
      <trkpt lat="32.863805" lon="-4.270320">
        <ele>1014.8</ele>
        <time>2008-09-25T14:39:08Z</time>
      </trkpt>
      <trkpt lat="32.863509" lon="-4.270799">
        <ele>1014.3</ele>
        <time>2008-09-25T14:39:10Z</time>
      </trkpt>
      <trkpt lat="32.863207" lon="-4.271283">
        <ele>1014.3</ele>
        <time>2008-09-25T14:39:12Z</time>
      </trkpt>
      <trkpt lat="32.862908" lon="-4.271772">
        <ele>1014.3</ele>
        <time>2008-09-25T14:39:14Z</time>
      </trkpt>
      <trkpt lat="32.862618" lon="-4.272250">
        <ele>1015.3</ele>
        <time>2008-09-25T14:39:16Z</time>
      </trkpt>
      <trkpt lat="32.862346" lon="-4.272700">
        <ele>1016.7</ele>
        <time>2008-09-25T14:39:18Z</time>
      </trkpt>
      <trkpt lat="32.861942" lon="-4.273294">
        <ele>1018.2</ele>
        <time>2008-09-25T14:39:21Z</time>
      </trkpt>
      <trkpt lat="32.861493" lon="-4.273790">
        <ele>1015.8</ele>
        <time>2008-09-25T14:39:24Z</time>
      </trkpt>
      <trkpt lat="32.860996" lon="-4.274247">
        <ele>1011.0</ele>
        <time>2008-09-25T14:39:27Z</time>
      </trkpt>
      <trkpt lat="32.860501" lon="-4.274701">
        <ele>1009.0</ele>
        <time>2008-09-25T14:39:30Z</time>
      </trkpt>
      <trkpt lat="32.860026" lon="-4.275130">
        <ele>1009.0</ele>
        <time>2008-09-25T14:39:33Z</time>
      </trkpt>
      <trkpt lat="32.859582" lon="-4.275593">
        <ele>1009.0</ele>
        <time>2008-09-25T14:39:36Z</time>
      </trkpt>
      <trkpt lat="32.859220" lon="-4.276181">
        <ele>1010.0</ele>
        <time>2008-09-25T14:39:39Z</time>
      </trkpt>
      <trkpt lat="32.858921" lon="-4.276849">
        <ele>1010.5</ele>
        <time>2008-09-25T14:39:42Z</time>
      </trkpt>
      <trkpt lat="32.858625" lon="-4.277545">
        <ele>1011.0</ele>
        <time>2008-09-25T14:39:45Z</time>
      </trkpt>
      <trkpt lat="32.858319" lon="-4.278268">
        <ele>1010.5</ele>
        <time>2008-09-25T14:39:48Z</time>
      </trkpt>
      <trkpt lat="32.858105" lon="-4.278759">
        <ele>1010.0</ele>
        <time>2008-09-25T14:39:50Z</time>
      </trkpt>
      <trkpt lat="32.857894" lon="-4.279256">
        <ele>1009.5</ele>
        <time>2008-09-25T14:39:52Z</time>
      </trkpt>
      <trkpt lat="32.857685" lon="-4.279752">
        <ele>1009.5</ele>
        <time>2008-09-25T14:39:54Z</time>
      </trkpt>
      <trkpt lat="32.857483" lon="-4.280229">
        <ele>1009.0</ele>
        <time>2008-09-25T14:39:56Z</time>
      </trkpt>
      <trkpt lat="32.857191" lon="-4.280902">
        <ele>1009.5</ele>
        <time>2008-09-25T14:39:59Z</time>
      </trkpt>
      <trkpt lat="32.856845" lon="-4.281506">
        <ele>1009.5</ele>
        <time>2008-09-25T14:40:02Z</time>
      </trkpt>
      <trkpt lat="32.856429" lon="-4.282026">
        <ele>1009.5</ele>
        <time>2008-09-25T14:40:05Z</time>
      </trkpt>
      <trkpt lat="32.856011" lon="-4.282526">
        <ele>1010.0</ele>
        <time>2008-09-25T14:40:08Z</time>
      </trkpt>
      <trkpt lat="32.855646" lon="-4.282981">
        <ele>1010.5</ele>
        <time>2008-09-25T14:40:11Z</time>
      </trkpt>
      <trkpt lat="32.855369" lon="-4.283515">
        <ele>1011.0</ele>
        <time>2008-09-25T14:40:14Z</time>
      </trkpt>
      <trkpt lat="32.855171" lon="-4.284090">
        <ele>1011.0</ele>
        <time>2008-09-25T14:40:17Z</time>
      </trkpt>
      <trkpt lat="32.855007" lon="-4.284656">
        <ele>1011.0</ele>
        <time>2008-09-25T14:40:20Z</time>
      </trkpt>
      <trkpt lat="32.854847" lon="-4.285215">
        <ele>1010.0</ele>
        <time>2008-09-25T14:40:23Z</time>
      </trkpt>
      <trkpt lat="32.854689" lon="-4.285770">
        <ele>1009.5</ele>
        <time>2008-09-25T14:40:26Z</time>
      </trkpt>
      <trkpt lat="32.854536" lon="-4.286321">
        <ele>1009.5</ele>
        <time>2008-09-25T14:40:29Z</time>
      </trkpt>
      <trkpt lat="32.854386" lon="-4.286864">
        <ele>1010.5</ele>
        <time>2008-09-25T14:40:32Z</time>
      </trkpt>
      <trkpt lat="32.854233" lon="-4.287385">
        <ele>1011.9</ele>
        <time>2008-09-25T14:40:35Z</time>
      </trkpt>
      <trkpt lat="32.853987" lon="-4.287972">
        <ele>1014.8</ele>
        <time>2008-09-25T14:40:39Z</time>
      </trkpt>
      <trkpt lat="32.853634" lon="-4.288430">
        <ele>1016.7</ele>
        <time>2008-09-25T14:40:43Z</time>
      </trkpt>
      <trkpt lat="32.853186" lon="-4.288765">
        <ele>1018.7</ele>
        <time>2008-09-25T14:40:47Z</time>
      </trkpt>
      <trkpt lat="32.852763" lon="-4.289167">
        <ele>1020.6</ele>
        <time>2008-09-25T14:40:51Z</time>
      </trkpt>
      <trkpt lat="32.852422" lon="-4.289700">
        <ele>1021.5</ele>
        <time>2008-09-25T14:40:55Z</time>
      </trkpt>
      <trkpt lat="32.852074" lon="-4.290290">
        <ele>1022.0</ele>
        <time>2008-09-25T14:40:59Z</time>
      </trkpt>
      <trkpt lat="32.851806" lon="-4.290744">
        <ele>1021.5</ele>
        <time>2008-09-25T14:41:02Z</time>
      </trkpt>
      <trkpt lat="32.851516" lon="-4.291237">
        <ele>1020.6</ele>
        <time>2008-09-25T14:41:05Z</time>
      </trkpt>
      <trkpt lat="32.851211" lon="-4.291749">
        <ele>1021.1</ele>
        <time>2008-09-25T14:41:08Z</time>
      </trkpt>
      <trkpt lat="32.850896" lon="-4.292293">
        <ele>1023.0</ele>
        <time>2008-09-25T14:41:11Z</time>
      </trkpt>
      <trkpt lat="32.850566" lon="-4.292847">
        <ele>1026.3</ele>
        <time>2008-09-25T14:41:14Z</time>
      </trkpt>
      <trkpt lat="32.850233" lon="-4.293415">
        <ele>1028.7</ele>
        <time>2008-09-25T14:41:17Z</time>
      </trkpt>
      <trkpt lat="32.849902" lon="-4.293977">
        <ele>1031.2</ele>
        <time>2008-09-25T14:41:20Z</time>
      </trkpt>
      <trkpt lat="32.849569" lon="-4.294533">
        <ele>1033.1</ele>
        <time>2008-09-25T14:41:23Z</time>
      </trkpt>
      <trkpt lat="32.849233" lon="-4.295096">
        <ele>1035.0</ele>
        <time>2008-09-25T14:41:26Z</time>
      </trkpt>
      <trkpt lat="32.848890" lon="-4.295668">
        <ele>1036.4</ele>
        <time>2008-09-25T14:41:29Z</time>
      </trkpt>
      <trkpt lat="32.848548" lon="-4.296245">
        <ele>1038.4</ele>
        <time>2008-09-25T14:41:32Z</time>
      </trkpt>
      <trkpt lat="32.848215" lon="-4.296810">
        <ele>1039.8</ele>
        <time>2008-09-25T14:41:35Z</time>
      </trkpt>
      <trkpt lat="32.847897" lon="-4.297340">
        <ele>1041.2</ele>
        <time>2008-09-25T14:41:38Z</time>
      </trkpt>
      <trkpt lat="32.847652" lon="-4.297774">
        <ele>1042.7</ele>
        <time>2008-09-25T14:41:41Z</time>
      </trkpt>
      <trkpt lat="32.847379" lon="-4.298265">
        <ele>1043.6</ele>
        <time>2008-09-25T14:41:45Z</time>
      </trkpt>
      <trkpt lat="32.847035" lon="-4.298830">
        <ele>1044.6</ele>
        <time>2008-09-25T14:41:49Z</time>
      </trkpt>
      <trkpt lat="32.846734" lon="-4.299328">
        <ele>1044.6</ele>
        <time>2008-09-25T14:41:52Z</time>
      </trkpt>
      <trkpt lat="32.846412" lon="-4.299865">
        <ele>1043.2</ele>
        <time>2008-09-25T14:41:55Z</time>
      </trkpt>
      <trkpt lat="32.846083" lon="-4.300423">
        <ele>1042.7</ele>
        <time>2008-09-25T14:41:58Z</time>
      </trkpt>
      <trkpt lat="32.845750" lon="-4.300990">
        <ele>1042.7</ele>
        <time>2008-09-25T14:42:01Z</time>
      </trkpt>
      <trkpt lat="32.845414" lon="-4.301582">
        <ele>1042.2</ele>
        <time>2008-09-25T14:42:04Z</time>
      </trkpt>
      <trkpt lat="32.845043" lon="-4.302202">
        <ele>1042.2</ele>
        <time>2008-09-25T14:42:07Z</time>
      </trkpt>
      <trkpt lat="32.844661" lon="-4.302861">
        <ele>1043.2</ele>
        <time>2008-09-25T14:42:10Z</time>
      </trkpt>
      <trkpt lat="32.844394" lon="-4.303313">
        <ele>1044.1</ele>
        <time>2008-09-25T14:42:12Z</time>
      </trkpt>
      <trkpt lat="32.844120" lon="-4.303771">
        <ele>1044.6</ele>
        <time>2008-09-25T14:42:14Z</time>
      </trkpt>
      <trkpt lat="32.843846" lon="-4.304231">
        <ele>1045.1</ele>
        <time>2008-09-25T14:42:16Z</time>
      </trkpt>
      <trkpt lat="32.843575" lon="-4.304690">
        <ele>1046.1</ele>
        <time>2008-09-25T14:42:18Z</time>
      </trkpt>
      <trkpt lat="32.843307" lon="-4.305141">
        <ele>1046.5</ele>
        <time>2008-09-25T14:42:20Z</time>
      </trkpt>
      <trkpt lat="32.843044" lon="-4.305589">
        <ele>1047.5</ele>
        <time>2008-09-25T14:42:22Z</time>
      </trkpt>
      <trkpt lat="32.842784" lon="-4.306029">
        <ele>1048.5</ele>
        <time>2008-09-25T14:42:24Z</time>
      </trkpt>
      <trkpt lat="32.842401" lon="-4.306683">
        <ele>1049.4</ele>
        <time>2008-09-25T14:42:27Z</time>
      </trkpt>
      <trkpt lat="32.842139" lon="-4.307123">
        <ele>1049.4</ele>
        <time>2008-09-25T14:42:29Z</time>
      </trkpt>
      <trkpt lat="32.841877" lon="-4.307568">
        <ele>1049.4</ele>
        <time>2008-09-25T14:42:31Z</time>
      </trkpt>
      <trkpt lat="32.841610" lon="-4.308013">
        <ele>1049.4</ele>
        <time>2008-09-25T14:42:33Z</time>
      </trkpt>
      <trkpt lat="32.841343" lon="-4.308458">
        <ele>1049.9</ele>
        <time>2008-09-25T14:42:35Z</time>
      </trkpt>
      <trkpt lat="32.841081" lon="-4.308902">
        <ele>1049.9</ele>
        <time>2008-09-25T14:42:37Z</time>
      </trkpt>
      <trkpt lat="32.840826" lon="-4.309340">
        <ele>1050.9</ele>
        <time>2008-09-25T14:42:39Z</time>
      </trkpt>
      <trkpt lat="32.840458" lon="-4.309976">
        <ele>1051.8</ele>
        <time>2008-09-25T14:42:42Z</time>
      </trkpt>
      <trkpt lat="32.840111" lon="-4.310571">
        <ele>1051.8</ele>
        <time>2008-09-25T14:42:45Z</time>
      </trkpt>
      <trkpt lat="32.839833" lon="-4.311185">
        <ele>1051.3</ele>
        <time>2008-09-25T14:42:48Z</time>
      </trkpt>
      <trkpt lat="32.839676" lon="-4.311865">
        <ele>1049.4</ele>
        <time>2008-09-25T14:42:51Z</time>
      </trkpt>
      <trkpt lat="32.839589" lon="-4.312593">
        <ele>1047.5</ele>
        <time>2008-09-25T14:42:54Z</time>
      </trkpt>
      <trkpt lat="32.839512" lon="-4.313344">
        <ele>1046.5</ele>
        <time>2008-09-25T14:42:57Z</time>
      </trkpt>
      <trkpt lat="32.839444" lon="-4.314076">
        <ele>1046.5</ele>
        <time>2008-09-25T14:43:00Z</time>
      </trkpt>
      <trkpt lat="32.839355" lon="-4.314738">
        <ele>1046.5</ele>
        <time>2008-09-25T14:43:03Z</time>
      </trkpt>
      <trkpt lat="32.839215" lon="-4.315291">
        <ele>1046.5</ele>
        <time>2008-09-25T14:43:06Z</time>
      </trkpt>
      <trkpt lat="32.838998" lon="-4.315774">
        <ele>1046.1</ele>
        <time>2008-09-25T14:43:09Z</time>
      </trkpt>
      <trkpt lat="32.838713" lon="-4.316236">
        <ele>1046.1</ele>
        <time>2008-09-25T14:43:12Z</time>
      </trkpt>
      <trkpt lat="32.838398" lon="-4.316735">
        <ele>1046.1</ele>
        <time>2008-09-25T14:43:15Z</time>
      </trkpt>
      <trkpt lat="32.838067" lon="-4.317281">
        <ele>1045.6</ele>
        <time>2008-09-25T14:43:18Z</time>
      </trkpt>
      <trkpt lat="32.837716" lon="-4.317861">
        <ele>1045.1</ele>
        <time>2008-09-25T14:43:21Z</time>
      </trkpt>
      <trkpt lat="32.837360" lon="-4.318454">
        <ele>1044.6</ele>
        <time>2008-09-25T14:43:24Z</time>
      </trkpt>
      <trkpt lat="32.837002" lon="-4.319050">
        <ele>1044.1</ele>
        <time>2008-09-25T14:43:27Z</time>
      </trkpt>
      <trkpt lat="32.836638" lon="-4.319648">
        <ele>1043.6</ele>
        <time>2008-09-25T14:43:30Z</time>
      </trkpt>
      <trkpt lat="32.836277" lon="-4.320241">
        <ele>1043.2</ele>
        <time>2008-09-25T14:43:33Z</time>
      </trkpt>
      <trkpt lat="32.835961" lon="-4.320776">
        <ele>1042.2</ele>
        <time>2008-09-25T14:43:36Z</time>
      </trkpt>
      <trkpt lat="32.835746" lon="-4.321308">
        <ele>1041.7</ele>
        <time>2008-09-25T14:43:39Z</time>
      </trkpt>
      <trkpt lat="32.835699" lon="-4.321907">
        <ele>1040.8</ele>
        <time>2008-09-25T14:43:42Z</time>
      </trkpt>
      <trkpt lat="32.835852" lon="-4.322479">
        <ele>1038.8</ele>
        <time>2008-09-25T14:43:45Z</time>
      </trkpt>
      <trkpt lat="32.836130" lon="-4.323019">
        <ele>1036.4</ele>
        <time>2008-09-25T14:43:48Z</time>
      </trkpt>
      <trkpt lat="32.836416" lon="-4.323558">
        <ele>1034.0</ele>
        <time>2008-09-25T14:43:51Z</time>
      </trkpt>
      <trkpt lat="32.836636" lon="-4.324070">
        <ele>1032.6</ele>
        <time>2008-09-25T14:43:54Z</time>
      </trkpt>
      <trkpt lat="32.836689" lon="-4.324626">
        <ele>1031.2</ele>
        <time>2008-09-25T14:43:57Z</time>
      </trkpt>
      <trkpt lat="32.836574" lon="-4.325199">
        <ele>1029.2</ele>
        <time>2008-09-25T14:44:00Z</time>
      </trkpt>
      <trkpt lat="32.836380" lon="-4.325774">
        <ele>1028.7</ele>
        <time>2008-09-25T14:44:03Z</time>
      </trkpt>
      <trkpt lat="32.836180" lon="-4.326360">
        <ele>1028.7</ele>
        <time>2008-09-25T14:44:06Z</time>
      </trkpt>
      <trkpt lat="32.835912" lon="-4.326917">
        <ele>1029.7</ele>
        <time>2008-09-25T14:44:09Z</time>
      </trkpt>
      <trkpt lat="32.835535" lon="-4.327408">
        <ele>1030.2</ele>
        <time>2008-09-25T14:44:12Z</time>
      </trkpt>
      <trkpt lat="32.835122" lon="-4.327867">
        <ele>1030.7</ele>
        <time>2008-09-25T14:44:15Z</time>
      </trkpt>
      <trkpt lat="32.834716" lon="-4.328334">
        <ele>1031.2</ele>
        <time>2008-09-25T14:44:18Z</time>
      </trkpt>
      <trkpt lat="32.834330" lon="-4.328844">
        <ele>1032.1</ele>
        <time>2008-09-25T14:44:21Z</time>
      </trkpt>
      <trkpt lat="32.833980" lon="-4.329419">
        <ele>1032.1</ele>
        <time>2008-09-25T14:44:24Z</time>
      </trkpt>
      <trkpt lat="32.833661" lon="-4.330048">
        <ele>1032.6</ele>
        <time>2008-09-25T14:44:27Z</time>
      </trkpt>
      <trkpt lat="32.833342" lon="-4.330698">
        <ele>1033.1</ele>
        <time>2008-09-25T14:44:30Z</time>
      </trkpt>
      <trkpt lat="32.833027" lon="-4.331356">
        <ele>1034.0</ele>
        <time>2008-09-25T14:44:33Z</time>
      </trkpt>
      <trkpt lat="32.832720" lon="-4.331997">
        <ele>1035.0</ele>
        <time>2008-09-25T14:44:36Z</time>
      </trkpt>
      <trkpt lat="32.832434" lon="-4.332588">
        <ele>1036.0</ele>
        <time>2008-09-25T14:44:39Z</time>
      </trkpt>
      <trkpt lat="32.832171" lon="-4.333134">
        <ele>1036.4</ele>
        <time>2008-09-25T14:44:42Z</time>
      </trkpt>
      <trkpt lat="32.831850" lon="-4.333644">
        <ele>1036.9</ele>
        <time>2008-09-25T14:44:45Z</time>
      </trkpt>
      <trkpt lat="32.831448" lon="-4.334061">
        <ele>1036.9</ele>
        <time>2008-09-25T14:44:48Z</time>
      </trkpt>
      <trkpt lat="32.831062" lon="-4.334424">
        <ele>1036.9</ele>
        <time>2008-09-25T14:44:51Z</time>
      </trkpt>
      <trkpt lat="32.830734" lon="-4.334835">
        <ele>1037.4</ele>
        <time>2008-09-25T14:44:54Z</time>
      </trkpt>
      <trkpt lat="32.830464" lon="-4.335317">
        <ele>1037.4</ele>
        <time>2008-09-25T14:44:57Z</time>
      </trkpt>
      <trkpt lat="32.830227" lon="-4.335841">
        <ele>1037.9</ele>
        <time>2008-09-25T14:45:00Z</time>
      </trkpt>
      <trkpt lat="32.830003" lon="-4.336374">
        <ele>1037.9</ele>
        <time>2008-09-25T14:45:03Z</time>
      </trkpt>
      <trkpt lat="32.829782" lon="-4.336902">
        <ele>1038.4</ele>
        <time>2008-09-25T14:45:06Z</time>
      </trkpt>
      <trkpt lat="32.829585" lon="-4.337444">
        <ele>1038.4</ele>
        <time>2008-09-25T14:45:09Z</time>
      </trkpt>
      <trkpt lat="32.829413" lon="-4.338003">
        <ele>1038.4</ele>
        <time>2008-09-25T14:45:12Z</time>
      </trkpt>
      <trkpt lat="32.829246" lon="-4.338545">
        <ele>1038.8</ele>
        <time>2008-09-25T14:45:15Z</time>
      </trkpt>
      <trkpt lat="32.828979" lon="-4.339012">
        <ele>1039.8</ele>
        <time>2008-09-25T14:45:18Z</time>
      </trkpt>
      <trkpt lat="32.828578" lon="-4.339418">
        <ele>1039.8</ele>
        <time>2008-09-25T14:45:21Z</time>
      </trkpt>
      <trkpt lat="32.828127" lon="-4.339845">
        <ele>1040.8</ele>
        <time>2008-09-25T14:45:24Z</time>
      </trkpt>
      <trkpt lat="32.827642" lon="-4.340281">
        <ele>1042.2</ele>
        <time>2008-09-25T14:45:27Z</time>
      </trkpt>
      <trkpt lat="32.827145" lon="-4.340728">
        <ele>1043.2</ele>
        <time>2008-09-25T14:45:30Z</time>
      </trkpt>
      <trkpt lat="32.826674" lon="-4.341179">
        <ele>1045.1</ele>
        <time>2008-09-25T14:45:33Z</time>
      </trkpt>
      <trkpt lat="32.826284" lon="-4.341686">
        <ele>1048.0</ele>
        <time>2008-09-25T14:45:36Z</time>
      </trkpt>
      <trkpt lat="32.826007" lon="-4.342282">
        <ele>1050.4</ele>
        <time>2008-09-25T14:45:39Z</time>
      </trkpt>
      <trkpt lat="32.825849" lon="-4.342932">
        <ele>1051.8</ele>
        <time>2008-09-25T14:45:42Z</time>
      </trkpt>
      <trkpt lat="32.825738" lon="-4.343623">
        <ele>1051.8</ele>
        <time>2008-09-25T14:45:45Z</time>
      </trkpt>
      <trkpt lat="32.825627" lon="-4.344341">
        <ele>1050.9</ele>
        <time>2008-09-25T14:45:48Z</time>
      </trkpt>
      <trkpt lat="32.825513" lon="-4.345073">
        <ele>1049.9</ele>
        <time>2008-09-25T14:45:51Z</time>
      </trkpt>
      <trkpt lat="32.825405" lon="-4.345814">
        <ele>1049.9</ele>
        <time>2008-09-25T14:45:54Z</time>
      </trkpt>
      <trkpt lat="32.825294" lon="-4.346558">
        <ele>1051.3</ele>
        <time>2008-09-25T14:45:57Z</time>
      </trkpt>
      <trkpt lat="32.825189" lon="-4.347282">
        <ele>1052.8</ele>
        <time>2008-09-25T14:46:00Z</time>
      </trkpt>
      <trkpt lat="32.825035" lon="-4.347986">
        <ele>1055.7</ele>
        <time>2008-09-25T14:46:03Z</time>
      </trkpt>
      <trkpt lat="32.824788" lon="-4.348625">
        <ele>1058.1</ele>
        <time>2008-09-25T14:46:06Z</time>
      </trkpt>
      <trkpt lat="32.824438" lon="-4.349170">
        <ele>1061.0</ele>
        <time>2008-09-25T14:46:09Z</time>
      </trkpt>
      <trkpt lat="32.823987" lon="-4.349617">
        <ele>1062.9</ele>
        <time>2008-09-25T14:46:12Z</time>
      </trkpt>
      <trkpt lat="32.823467" lon="-4.349997">
        <ele>1064.3</ele>
        <time>2008-09-25T14:46:15Z</time>
      </trkpt>
      <trkpt lat="32.822929" lon="-4.350392">
        <ele>1065.3</ele>
        <time>2008-09-25T14:46:18Z</time>
      </trkpt>
      <trkpt lat="32.822371" lon="-4.350808">
        <ele>1065.8</ele>
        <time>2008-09-25T14:46:21Z</time>
      </trkpt>
      <trkpt lat="32.821799" lon="-4.351239">
        <ele>1066.7</ele>
        <time>2008-09-25T14:46:24Z</time>
      </trkpt>
      <trkpt lat="32.821231" lon="-4.351663">
        <ele>1068.2</ele>
        <time>2008-09-25T14:46:27Z</time>
      </trkpt>
      <trkpt lat="32.820673" lon="-4.352078">
        <ele>1069.1</ele>
        <time>2008-09-25T14:46:30Z</time>
      </trkpt>
      <trkpt lat="32.820128" lon="-4.352514">
        <ele>1069.6</ele>
        <time>2008-09-25T14:46:33Z</time>
      </trkpt>
      <trkpt lat="32.819639" lon="-4.353020">
        <ele>1070.6</ele>
        <time>2008-09-25T14:46:36Z</time>
      </trkpt>
      <trkpt lat="32.819232" lon="-4.353583">
        <ele>1071.0</ele>
        <time>2008-09-25T14:46:39Z</time>
      </trkpt>
      <trkpt lat="32.818889" lon="-4.354193">
        <ele>1072.0</ele>
        <time>2008-09-25T14:46:42Z</time>
      </trkpt>
      <trkpt lat="32.818548" lon="-4.354827">
        <ele>1072.5</ele>
        <time>2008-09-25T14:46:45Z</time>
      </trkpt>
      <trkpt lat="32.818194" lon="-4.355480">
        <ele>1073.9</ele>
        <time>2008-09-25T14:46:48Z</time>
      </trkpt>
      <trkpt lat="32.817843" lon="-4.356140">
        <ele>1076.8</ele>
        <time>2008-09-25T14:46:51Z</time>
      </trkpt>
      <trkpt lat="32.817505" lon="-4.356778">
        <ele>1080.2</ele>
        <time>2008-09-25T14:46:54Z</time>
      </trkpt>
      <trkpt lat="32.817173" lon="-4.357384">
        <ele>1082.6</ele>
        <time>2008-09-25T14:46:57Z</time>
      </trkpt>
      <trkpt lat="32.816849" lon="-4.357987">
        <ele>1084.0</ele>
        <time>2008-09-25T14:47:00Z</time>
      </trkpt>
      <trkpt lat="32.816520" lon="-4.358585">
        <ele>1085.0</ele>
        <time>2008-09-25T14:47:03Z</time>
      </trkpt>
      <trkpt lat="32.816192" lon="-4.359175">
        <ele>1085.9</ele>
        <time>2008-09-25T14:47:06Z</time>
      </trkpt>
      <trkpt lat="32.815821" lon="-4.359722">
        <ele>1087.4</ele>
        <time>2008-09-25T14:47:09Z</time>
      </trkpt>
      <trkpt lat="32.815379" lon="-4.360225">
        <ele>1088.3</ele>
        <time>2008-09-25T14:47:12Z</time>
      </trkpt>
      <trkpt lat="32.814929" lon="-4.360738">
        <ele>1089.3</ele>
        <time>2008-09-25T14:47:15Z</time>
      </trkpt>
      <trkpt lat="32.814472" lon="-4.361254">
        <ele>1088.3</ele>
        <time>2008-09-25T14:47:18Z</time>
      </trkpt>
      <trkpt lat="32.814008" lon="-4.361765">
        <ele>1086.4</ele>
        <time>2008-09-25T14:47:21Z</time>
      </trkpt>
      <trkpt lat="32.813549" lon="-4.362287">
        <ele>1084.0</ele>
        <time>2008-09-25T14:47:24Z</time>
      </trkpt>
      <trkpt lat="32.813096" lon="-4.362803">
        <ele>1082.6</ele>
        <time>2008-09-25T14:47:27Z</time>
      </trkpt>
      <trkpt lat="32.812705" lon="-4.363252">
        <ele>1080.7</ele>
        <time>2008-09-25T14:47:30Z</time>
      </trkpt>
      <trkpt lat="32.812366" lon="-4.363634">
        <ele>1079.7</ele>
        <time>2008-09-25T14:47:33Z</time>
      </trkpt>
      <trkpt lat="32.811935" lon="-4.364134">
        <ele>1081.1</ele>
        <time>2008-09-25T14:47:37Z</time>
      </trkpt>
      <trkpt lat="32.811582" lon="-4.364551">
        <ele>1082.1</ele>
        <time>2008-09-25T14:47:40Z</time>
      </trkpt>
      <trkpt lat="32.811197" lon="-4.364978">
        <ele>1083.5</ele>
        <time>2008-09-25T14:47:43Z</time>
      </trkpt>
      <trkpt lat="32.810777" lon="-4.365435">
        <ele>1084.5</ele>
        <time>2008-09-25T14:47:46Z</time>
      </trkpt>
      <trkpt lat="32.810325" lon="-4.365865">
        <ele>1085.5</ele>
        <time>2008-09-25T14:47:49Z</time>
      </trkpt>
      <trkpt lat="32.809814" lon="-4.366181">
        <ele>1085.9</ele>
        <time>2008-09-25T14:47:52Z</time>
      </trkpt>
      <trkpt lat="32.809249" lon="-4.366362">
        <ele>1086.4</ele>
        <time>2008-09-25T14:47:55Z</time>
      </trkpt>
      <trkpt lat="32.808659" lon="-4.366458">
        <ele>1086.9</ele>
        <time>2008-09-25T14:47:58Z</time>
      </trkpt>
      <trkpt lat="32.808071" lon="-4.366547">
        <ele>1087.9</ele>
        <time>2008-09-25T14:48:01Z</time>
      </trkpt>
      <trkpt lat="32.807492" lon="-4.366662">
        <ele>1089.3</ele>
        <time>2008-09-25T14:48:04Z</time>
      </trkpt>
      <trkpt lat="32.806938" lon="-4.366881">
        <ele>1090.3</ele>
        <time>2008-09-25T14:48:07Z</time>
      </trkpt>
      <trkpt lat="32.806443" lon="-4.367247">
        <ele>1090.8</ele>
        <time>2008-09-25T14:48:10Z</time>
      </trkpt>
      <trkpt lat="32.806037" lon="-4.367724">
        <ele>1091.2</ele>
        <time>2008-09-25T14:48:13Z</time>
      </trkpt>
      <trkpt lat="32.805726" lon="-4.368259">
        <ele>1091.7</ele>
        <time>2008-09-25T14:48:16Z</time>
      </trkpt>
      <trkpt lat="32.805522" lon="-4.368828">
        <ele>1092.2</ele>
        <time>2008-09-25T14:48:19Z</time>
      </trkpt>
      <trkpt lat="32.805426" lon="-4.369402">
        <ele>1092.2</ele>
        <time>2008-09-25T14:48:22Z</time>
      </trkpt>
      <trkpt lat="32.805391" lon="-4.369985">
        <ele>1092.2</ele>
        <time>2008-09-25T14:48:25Z</time>
      </trkpt>
      <trkpt lat="32.805383" lon="-4.370569">
        <ele>1092.2</ele>
        <time>2008-09-25T14:48:28Z</time>
      </trkpt>
      <trkpt lat="32.805378" lon="-4.371163">
        <ele>1093.6</ele>
        <time>2008-09-25T14:48:31Z</time>
      </trkpt>
      <trkpt lat="32.805369" lon="-4.371779">
        <ele>1093.6</ele>
        <time>2008-09-25T14:48:34Z</time>
      </trkpt>
      <trkpt lat="32.805360" lon="-4.372414">
        <ele>1093.2</ele>
        <time>2008-09-25T14:48:37Z</time>
      </trkpt>
      <trkpt lat="32.805351" lon="-4.373059">
        <ele>1092.7</ele>
        <time>2008-09-25T14:48:40Z</time>
      </trkpt>
      <trkpt lat="32.805385" lon="-4.373697">
        <ele>1091.7</ele>
        <time>2008-09-25T14:48:43Z</time>
      </trkpt>
      <trkpt lat="32.805524" lon="-4.374309">
        <ele>1090.8</ele>
        <time>2008-09-25T14:48:46Z</time>
      </trkpt>
      <trkpt lat="32.805757" lon="-4.374904">
        <ele>1090.8</ele>
        <time>2008-09-25T14:48:49Z</time>
      </trkpt>
      <trkpt lat="32.806050" lon="-4.375502">
        <ele>1089.3</ele>
        <time>2008-09-25T14:48:52Z</time>
      </trkpt>
      <trkpt lat="32.806344" lon="-4.376123">
        <ele>1088.8</ele>
        <time>2008-09-25T14:48:55Z</time>
      </trkpt>
      <trkpt lat="32.806644" lon="-4.376750">
        <ele>1088.8</ele>
        <time>2008-09-25T14:48:58Z</time>
      </trkpt>
      <trkpt lat="32.806932" lon="-4.377359">
        <ele>1088.8</ele>
        <time>2008-09-25T14:49:01Z</time>
      </trkpt>
      <trkpt lat="32.807220" lon="-4.377959">
        <ele>1088.8</ele>
        <time>2008-09-25T14:49:04Z</time>
      </trkpt>
      <trkpt lat="32.807511" lon="-4.378568">
        <ele>1088.3</ele>
        <time>2008-09-25T14:49:07Z</time>
      </trkpt>
      <trkpt lat="32.807805" lon="-4.379180">
        <ele>1088.3</ele>
        <time>2008-09-25T14:49:10Z</time>
      </trkpt>
      <trkpt lat="32.808107" lon="-4.379819">
        <ele>1087.9</ele>
        <time>2008-09-25T14:49:13Z</time>
      </trkpt>
      <trkpt lat="32.808418" lon="-4.380485">
        <ele>1087.9</ele>
        <time>2008-09-25T14:49:16Z</time>
      </trkpt>
      <trkpt lat="32.808748" lon="-4.381167">
        <ele>1087.4</ele>
        <time>2008-09-25T14:49:19Z</time>
      </trkpt>
      <trkpt lat="32.809081" lon="-4.381860">
        <ele>1087.4</ele>
        <time>2008-09-25T14:49:22Z</time>
      </trkpt>
      <trkpt lat="32.809304" lon="-4.382326">
        <ele>1087.4</ele>
        <time>2008-09-25T14:49:24Z</time>
      </trkpt>
      <trkpt lat="32.809531" lon="-4.382798">
        <ele>1087.4</ele>
        <time>2008-09-25T14:49:26Z</time>
      </trkpt>
      <trkpt lat="32.809758" lon="-4.383279">
        <ele>1086.9</ele>
        <time>2008-09-25T14:49:28Z</time>
      </trkpt>
      <trkpt lat="32.809988" lon="-4.383768">
        <ele>1086.9</ele>
        <time>2008-09-25T14:49:30Z</time>
      </trkpt>
      <trkpt lat="32.810221" lon="-4.384257">
        <ele>1086.9</ele>
        <time>2008-09-25T14:49:32Z</time>
      </trkpt>
      <trkpt lat="32.810453" lon="-4.384744">
        <ele>1086.9</ele>
        <time>2008-09-25T14:49:34Z</time>
      </trkpt>
      <trkpt lat="32.810683" lon="-4.385231">
        <ele>1086.9</ele>
        <time>2008-09-25T14:49:36Z</time>
      </trkpt>
      <trkpt lat="32.810914" lon="-4.385718">
        <ele>1086.9</ele>
        <time>2008-09-25T14:49:38Z</time>
      </trkpt>
      <trkpt lat="32.811145" lon="-4.386194">
        <ele>1086.9</ele>
        <time>2008-09-25T14:49:40Z</time>
      </trkpt>
      <trkpt lat="32.811370" lon="-4.386658">
        <ele>1086.9</ele>
        <time>2008-09-25T14:49:42Z</time>
      </trkpt>
      <trkpt lat="32.811699" lon="-4.387343">
        <ele>1086.9</ele>
        <time>2008-09-25T14:49:45Z</time>
      </trkpt>
      <trkpt lat="32.812022" lon="-4.388018">
        <ele>1086.9</ele>
        <time>2008-09-25T14:49:48Z</time>
      </trkpt>
      <trkpt lat="32.812338" lon="-4.388682">
        <ele>1086.9</ele>
        <time>2008-09-25T14:49:51Z</time>
      </trkpt>
      <trkpt lat="32.812660" lon="-4.389355">
        <ele>1086.9</ele>
        <time>2008-09-25T14:49:54Z</time>
      </trkpt>
      <trkpt lat="32.812984" lon="-4.390017">
        <ele>1086.9</ele>
        <time>2008-09-25T14:49:57Z</time>
      </trkpt>
      <trkpt lat="32.813301" lon="-4.390682">
        <ele>1086.9</ele>
        <time>2008-09-25T14:50:00Z</time>
      </trkpt>
      <trkpt lat="32.813623" lon="-4.391354">
        <ele>1087.4</ele>
        <time>2008-09-25T14:50:03Z</time>
      </trkpt>
      <trkpt lat="32.813960" lon="-4.392026">
        <ele>1087.9</ele>
        <time>2008-09-25T14:50:06Z</time>
      </trkpt>
      <trkpt lat="32.814323" lon="-4.392697">
        <ele>1088.8</ele>
        <time>2008-09-25T14:50:09Z</time>
      </trkpt>
      <trkpt lat="32.814577" lon="-4.393146">
        <ele>1089.3</ele>
        <time>2008-09-25T14:50:11Z</time>
      </trkpt>
      <trkpt lat="32.814834" lon="-4.393596">
        <ele>1089.3</ele>
        <time>2008-09-25T14:50:13Z</time>
      </trkpt>
      <trkpt lat="32.815205" lon="-4.394248">
        <ele>1089.8</ele>
        <time>2008-09-25T14:50:16Z</time>
      </trkpt>
      <trkpt lat="32.815557" lon="-4.394887">
        <ele>1090.3</ele>
        <time>2008-09-25T14:50:19Z</time>
      </trkpt>
      <trkpt lat="32.815907" lon="-4.395534">
        <ele>1090.3</ele>
        <time>2008-09-25T14:50:22Z</time>
      </trkpt>
      <trkpt lat="32.816253" lon="-4.396211">
        <ele>1090.8</ele>
        <time>2008-09-25T14:50:25Z</time>
      </trkpt>
      <trkpt lat="32.816457" lon="-4.396689">
        <ele>1090.8</ele>
        <time>2008-09-25T14:50:27Z</time>
      </trkpt>
      <trkpt lat="32.816688" lon="-4.397409">
        <ele>1091.2</ele>
        <time>2008-09-25T14:50:30Z</time>
      </trkpt>
      <trkpt lat="32.816866" lon="-4.398052">
        <ele>1091.7</ele>
        <time>2008-09-25T14:50:33Z</time>
      </trkpt>
      <trkpt lat="32.817012" lon="-4.398590">
        <ele>1092.2</ele>
        <time>2008-09-25T14:50:36Z</time>
      </trkpt>
      <trkpt lat="32.817165" lon="-4.399134">
        <ele>1092.2</ele>
        <time>2008-09-25T14:50:40Z</time>
      </trkpt>
      <trkpt lat="32.817322" lon="-4.399695">
        <ele>1092.2</ele>
        <time>2008-09-25T14:50:45Z</time>
      </trkpt>
      <trkpt lat="32.817479" lon="-4.400255">
        <ele>1092.7</ele>
        <time>2008-09-25T14:50:50Z</time>
      </trkpt>
      <trkpt lat="32.817643" lon="-4.400860">
        <ele>1093.2</ele>
        <time>2008-09-25T14:50:55Z</time>
      </trkpt>
      <trkpt lat="32.817799" lon="-4.401492">
        <ele>1093.6</ele>
        <time>2008-09-25T14:51:00Z</time>
      </trkpt>
      <trkpt lat="32.817905" lon="-4.402132">
        <ele>1094.6</ele>
        <time>2008-09-25T14:51:05Z</time>
      </trkpt>
      <trkpt lat="32.817970" lon="-4.402746">
        <ele>1095.6</ele>
        <time>2008-09-25T14:51:10Z</time>
      </trkpt>
      <trkpt lat="32.817992" lon="-4.403331">
        <ele>1096.5</ele>
        <time>2008-09-25T14:51:16Z</time>
      </trkpt>
      <trkpt lat="32.817973" lon="-4.403944">
        <ele>1097.5</ele>
        <time>2008-09-25T14:51:21Z</time>
      </trkpt>
      <trkpt lat="32.817916" lon="-4.404524">
        <ele>1098.4</ele>
        <time>2008-09-25T14:51:26Z</time>
      </trkpt>
      <trkpt lat="32.817834" lon="-4.405074">
        <ele>1099.4</ele>
        <time>2008-09-25T14:51:32Z</time>
      </trkpt>
      <trkpt lat="32.817704" lon="-4.405642">
        <ele>1100.4</ele>
        <time>2008-09-25T14:51:43Z</time>
      </trkpt>
      <trkpt lat="32.817517" lon="-4.406278">
        <ele>1101.3</ele>
        <time>2008-09-25T14:51:50Z</time>
      </trkpt>
      <trkpt lat="32.817323" lon="-4.406799">
        <ele>1102.3</ele>
        <time>2008-09-25T14:51:54Z</time>
      </trkpt>
      <trkpt lat="32.817080" lon="-4.407353">
        <ele>1103.3</ele>
        <time>2008-09-25T14:51:58Z</time>
      </trkpt>
      <trkpt lat="32.816752" lon="-4.407946">
        <ele>1104.7</ele>
        <time>2008-09-25T14:52:02Z</time>
      </trkpt>
      <trkpt lat="32.816447" lon="-4.408417">
        <ele>1105.7</ele>
        <time>2008-09-25T14:52:05Z</time>
      </trkpt>
      <trkpt lat="32.816089" lon="-4.408897">
        <ele>1106.6</ele>
        <time>2008-09-25T14:52:08Z</time>
      </trkpt>
      <trkpt lat="32.815671" lon="-4.409366">
        <ele>1107.6</ele>
        <time>2008-09-25T14:52:11Z</time>
      </trkpt>
      <trkpt lat="32.815203" lon="-4.409822">
        <ele>1108.5</ele>
        <time>2008-09-25T14:52:14Z</time>
      </trkpt>
      <trkpt lat="32.814703" lon="-4.410264">
        <ele>1110.0</ele>
        <time>2008-09-25T14:52:17Z</time>
      </trkpt>
      <trkpt lat="32.814199" lon="-4.410721">
        <ele>1110.9</ele>
        <time>2008-09-25T14:52:20Z</time>
      </trkpt>
      <trkpt lat="32.813678" lon="-4.411186">
        <ele>1111.9</ele>
        <time>2008-09-25T14:52:23Z</time>
      </trkpt>
      <trkpt lat="32.813147" lon="-4.411660">
        <ele>1112.9</ele>
        <time>2008-09-25T14:52:26Z</time>
      </trkpt>
      <trkpt lat="32.812617" lon="-4.412137">
        <ele>1113.3</ele>
        <time>2008-09-25T14:52:29Z</time>
      </trkpt>
      <trkpt lat="32.812080" lon="-4.412621">
        <ele>1114.3</ele>
        <time>2008-09-25T14:52:32Z</time>
      </trkpt>
      <trkpt lat="32.811718" lon="-4.412948">
        <ele>1115.3</ele>
        <time>2008-09-25T14:52:34Z</time>
      </trkpt>
      <trkpt lat="32.811170" lon="-4.413446">
        <ele>1116.2</ele>
        <time>2008-09-25T14:52:37Z</time>
      </trkpt>
      <trkpt lat="32.810799" lon="-4.413782">
        <ele>1116.7</ele>
        <time>2008-09-25T14:52:39Z</time>
      </trkpt>
      <trkpt lat="32.810423" lon="-4.414121">
        <ele>1117.7</ele>
        <time>2008-09-25T14:52:41Z</time>
      </trkpt>
      <trkpt lat="32.810043" lon="-4.414461">
        <ele>1118.2</ele>
        <time>2008-09-25T14:52:43Z</time>
      </trkpt>
      <trkpt lat="32.809663" lon="-4.414803">
        <ele>1119.1</ele>
        <time>2008-09-25T14:52:45Z</time>
      </trkpt>
      <trkpt lat="32.809279" lon="-4.415144">
        <ele>1119.6</ele>
        <time>2008-09-25T14:52:47Z</time>
      </trkpt>
      <trkpt lat="32.808894" lon="-4.415491">
        <ele>1120.1</ele>
        <time>2008-09-25T14:52:49Z</time>
      </trkpt>
      <trkpt lat="32.808509" lon="-4.415836">
        <ele>1120.6</ele>
        <time>2008-09-25T14:52:51Z</time>
      </trkpt>
      <trkpt lat="32.808129" lon="-4.416179">
        <ele>1121.0</ele>
        <time>2008-09-25T14:52:53Z</time>
      </trkpt>
      <trkpt lat="32.807756" lon="-4.416518">
        <ele>1121.5</ele>
        <time>2008-09-25T14:52:55Z</time>
      </trkpt>
      <trkpt lat="32.807387" lon="-4.416858">
        <ele>1122.5</ele>
        <time>2008-09-25T14:52:57Z</time>
      </trkpt>
      <trkpt lat="32.807023" lon="-4.417193">
        <ele>1123.0</ele>
        <time>2008-09-25T14:52:59Z</time>
      </trkpt>
      <trkpt lat="32.806659" lon="-4.417519">
        <ele>1123.4</ele>
        <time>2008-09-25T14:53:01Z</time>
      </trkpt>
      <trkpt lat="32.806292" lon="-4.417848">
        <ele>1124.4</ele>
        <time>2008-09-25T14:53:03Z</time>
      </trkpt>
      <trkpt lat="32.805916" lon="-4.418176">
        <ele>1124.9</ele>
        <time>2008-09-25T14:53:05Z</time>
      </trkpt>
      <trkpt lat="32.805537" lon="-4.418511">
        <ele>1125.8</ele>
        <time>2008-09-25T14:53:07Z</time>
      </trkpt>
      <trkpt lat="32.805158" lon="-4.418854">
        <ele>1126.3</ele>
        <time>2008-09-25T14:53:09Z</time>
      </trkpt>
      <trkpt lat="32.804778" lon="-4.419197">
        <ele>1126.8</ele>
        <time>2008-09-25T14:53:11Z</time>
      </trkpt>
      <trkpt lat="32.804401" lon="-4.419540">
        <ele>1127.3</ele>
        <time>2008-09-25T14:53:13Z</time>
      </trkpt>
      <trkpt lat="32.804032" lon="-4.419881">
        <ele>1128.2</ele>
        <time>2008-09-25T14:53:15Z</time>
      </trkpt>
      <trkpt lat="32.803657" lon="-4.420219">
        <ele>1128.7</ele>
        <time>2008-09-25T14:53:17Z</time>
      </trkpt>
      <trkpt lat="32.803272" lon="-4.420557">
        <ele>1129.2</ele>
        <time>2008-09-25T14:53:19Z</time>
      </trkpt>
      <trkpt lat="32.802882" lon="-4.420898">
        <ele>1129.7</ele>
        <time>2008-09-25T14:53:21Z</time>
      </trkpt>
      <trkpt lat="32.802488" lon="-4.421247">
        <ele>1130.2</ele>
        <time>2008-09-25T14:53:23Z</time>
      </trkpt>
      <trkpt lat="32.802090" lon="-4.421604">
        <ele>1130.6</ele>
        <time>2008-09-25T14:53:25Z</time>
      </trkpt>
      <trkpt lat="32.801688" lon="-4.421966">
        <ele>1131.6</ele>
        <time>2008-09-25T14:53:27Z</time>
      </trkpt>
      <trkpt lat="32.801282" lon="-4.422332">
        <ele>1132.1</ele>
        <time>2008-09-25T14:53:29Z</time>
      </trkpt>
      <trkpt lat="32.800873" lon="-4.422701">
        <ele>1132.6</ele>
        <time>2008-09-25T14:53:31Z</time>
      </trkpt>
      <trkpt lat="32.800461" lon="-4.423071">
        <ele>1133.1</ele>
        <time>2008-09-25T14:53:33Z</time>
      </trkpt>
      <trkpt lat="32.800048" lon="-4.423442">
        <ele>1133.5</ele>
        <time>2008-09-25T14:53:35Z</time>
      </trkpt>
      <trkpt lat="32.799635" lon="-4.423814">
        <ele>1134.5</ele>
        <time>2008-09-25T14:53:37Z</time>
      </trkpt>
      <trkpt lat="32.799224" lon="-4.424179">
        <ele>1135.0</ele>
        <time>2008-09-25T14:53:39Z</time>
      </trkpt>
      <trkpt lat="32.798819" lon="-4.424543">
        <ele>1135.9</ele>
        <time>2008-09-25T14:53:41Z</time>
      </trkpt>
      <trkpt lat="32.798418" lon="-4.424907">
        <ele>1136.9</ele>
        <time>2008-09-25T14:53:43Z</time>
      </trkpt>
      <trkpt lat="32.798020" lon="-4.425269">
        <ele>1137.4</ele>
        <time>2008-09-25T14:53:45Z</time>
      </trkpt>
      <trkpt lat="32.797622" lon="-4.425626">
        <ele>1137.9</ele>
        <time>2008-09-25T14:53:47Z</time>
      </trkpt>
      <trkpt lat="32.797223" lon="-4.425980">
        <ele>1138.3</ele>
        <time>2008-09-25T14:53:49Z</time>
      </trkpt>
      <trkpt lat="32.796827" lon="-4.426336">
        <ele>1138.8</ele>
        <time>2008-09-25T14:53:51Z</time>
      </trkpt>
      <trkpt lat="32.796432" lon="-4.426694">
        <ele>1139.8</ele>
        <time>2008-09-25T14:53:53Z</time>
      </trkpt>
      <trkpt lat="32.796041" lon="-4.427057">
        <ele>1140.3</ele>
        <time>2008-09-25T14:53:55Z</time>
      </trkpt>
      <trkpt lat="32.795652" lon="-4.427425">
        <ele>1141.2</ele>
        <time>2008-09-25T14:53:57Z</time>
      </trkpt>
      <trkpt lat="32.795266" lon="-4.427797">
        <ele>1142.2</ele>
        <time>2008-09-25T14:53:59Z</time>
      </trkpt>
      <trkpt lat="32.794881" lon="-4.428177">
        <ele>1142.7</ele>
        <time>2008-09-25T14:54:01Z</time>
      </trkpt>
      <trkpt lat="32.794492" lon="-4.428560">
        <ele>1143.6</ele>
        <time>2008-09-25T14:54:03Z</time>
      </trkpt>
      <trkpt lat="32.794101" lon="-4.428937">
        <ele>1144.1</ele>
        <time>2008-09-25T14:54:05Z</time>
      </trkpt>
      <trkpt lat="32.793712" lon="-4.429316">
        <ele>1145.1</ele>
        <time>2008-09-25T14:54:07Z</time>
      </trkpt>
      <trkpt lat="32.793324" lon="-4.429694">
        <ele>1146.0</ele>
        <time>2008-09-25T14:54:09Z</time>
      </trkpt>
      <trkpt lat="32.792947" lon="-4.430062">
        <ele>1146.5</ele>
        <time>2008-09-25T14:54:11Z</time>
      </trkpt>
      <trkpt lat="32.792578" lon="-4.430421">
        <ele>1147.0</ele>
        <time>2008-09-25T14:54:13Z</time>
      </trkpt>
      <trkpt lat="32.792214" lon="-4.430778">
        <ele>1147.5</ele>
        <time>2008-09-25T14:54:15Z</time>
      </trkpt>
      <trkpt lat="32.791851" lon="-4.431133">
        <ele>1148.0</ele>
        <time>2008-09-25T14:54:17Z</time>
      </trkpt>
      <trkpt lat="32.791487" lon="-4.431487">
        <ele>1148.9</ele>
        <time>2008-09-25T14:54:19Z</time>
      </trkpt>
      <trkpt lat="32.791120" lon="-4.431844">
        <ele>1149.4</ele>
        <time>2008-09-25T14:54:21Z</time>
      </trkpt>
      <trkpt lat="32.790750" lon="-4.432202">
        <ele>1149.9</ele>
        <time>2008-09-25T14:54:23Z</time>
      </trkpt>
      <trkpt lat="32.790381" lon="-4.432564">
        <ele>1150.4</ele>
        <time>2008-09-25T14:54:25Z</time>
      </trkpt>
      <trkpt lat="32.789834" lon="-4.433102">
        <ele>1151.3</ele>
        <time>2008-09-25T14:54:28Z</time>
      </trkpt>
      <trkpt lat="32.789480" lon="-4.433446">
        <ele>1152.3</ele>
        <time>2008-09-25T14:54:30Z</time>
      </trkpt>
      <trkpt lat="32.789130" lon="-4.433791">
        <ele>1152.8</ele>
        <time>2008-09-25T14:54:32Z</time>
      </trkpt>
      <trkpt lat="32.788779" lon="-4.434137">
        <ele>1153.2</ele>
        <time>2008-09-25T14:54:34Z</time>
      </trkpt>
      <trkpt lat="32.788428" lon="-4.434482">
        <ele>1153.7</ele>
        <time>2008-09-25T14:54:36Z</time>
      </trkpt>
      <trkpt lat="32.788078" lon="-4.434828">
        <ele>1154.2</ele>
        <time>2008-09-25T14:54:38Z</time>
      </trkpt>
      <trkpt lat="32.787724" lon="-4.435169">
        <ele>1154.7</ele>
        <time>2008-09-25T14:54:40Z</time>
      </trkpt>
      <trkpt lat="32.787201" lon="-4.435648">
        <ele>1155.6</ele>
        <time>2008-09-25T14:54:43Z</time>
      </trkpt>
      <trkpt lat="32.786676" lon="-4.436080">
        <ele>1156.6</ele>
        <time>2008-09-25T14:54:46Z</time>
      </trkpt>
      <trkpt lat="32.786135" lon="-4.436507">
        <ele>1158.0</ele>
        <time>2008-09-25T14:54:49Z</time>
      </trkpt>
      <trkpt lat="32.785570" lon="-4.436911">
        <ele>1159.5</ele>
        <time>2008-09-25T14:54:52Z</time>
      </trkpt>
      <trkpt lat="32.784990" lon="-4.437299">
        <ele>1160.9</ele>
        <time>2008-09-25T14:54:55Z</time>
      </trkpt>
      <trkpt lat="32.784408" lon="-4.437664">
        <ele>1161.9</ele>
        <time>2008-09-25T14:54:58Z</time>
      </trkpt>
      <trkpt lat="32.783829" lon="-4.438019">
        <ele>1162.4</ele>
        <time>2008-09-25T14:55:01Z</time>
      </trkpt>
      <trkpt lat="32.783238" lon="-4.438382">
        <ele>1162.9</ele>
        <time>2008-09-25T14:55:04Z</time>
      </trkpt>
      <trkpt lat="32.782839" lon="-4.438632">
        <ele>1162.9</ele>
        <time>2008-09-25T14:55:06Z</time>
      </trkpt>
      <trkpt lat="32.782440" lon="-4.438878">
        <ele>1163.3</ele>
        <time>2008-09-25T14:55:08Z</time>
      </trkpt>
      <trkpt lat="32.781850" lon="-4.439239">
        <ele>1163.8</ele>
        <time>2008-09-25T14:55:11Z</time>
      </trkpt>
      <trkpt lat="32.781282" lon="-4.439585">
        <ele>1164.8</ele>
        <time>2008-09-25T14:55:14Z</time>
      </trkpt>
      <trkpt lat="32.780759" lon="-4.439900">
        <ele>1165.7</ele>
        <time>2008-09-25T14:55:17Z</time>
      </trkpt>
      <trkpt lat="32.780250" lon="-4.440215">
        <ele>1166.7</ele>
        <time>2008-09-25T14:55:20Z</time>
      </trkpt>
      <trkpt lat="32.779723" lon="-4.440541">
        <ele>1167.2</ele>
        <time>2008-09-25T14:55:23Z</time>
      </trkpt>
      <trkpt lat="32.779174" lon="-4.440882">
        <ele>1168.1</ele>
        <time>2008-09-25T14:55:26Z</time>
      </trkpt>
      <trkpt lat="32.778603" lon="-4.441233">
        <ele>1169.6</ele>
        <time>2008-09-25T14:55:29Z</time>
      </trkpt>
      <trkpt lat="32.778012" lon="-4.441591">
        <ele>1170.5</ele>
        <time>2008-09-25T14:55:32Z</time>
      </trkpt>
      <trkpt lat="32.777408" lon="-4.441960">
        <ele>1171.5</ele>
        <time>2008-09-25T14:55:35Z</time>
      </trkpt>
      <trkpt lat="32.777001" lon="-4.442213">
        <ele>1172.5</ele>
        <time>2008-09-25T14:55:37Z</time>
      </trkpt>
      <trkpt lat="32.776590" lon="-4.442468">
        <ele>1173.4</ele>
        <time>2008-09-25T14:55:39Z</time>
      </trkpt>
      <trkpt lat="32.776177" lon="-4.442721">
        <ele>1173.9</ele>
        <time>2008-09-25T14:55:41Z</time>
      </trkpt>
      <trkpt lat="32.775764" lon="-4.442972">
        <ele>1174.9</ele>
        <time>2008-09-25T14:55:43Z</time>
      </trkpt>
      <trkpt lat="32.775358" lon="-4.443221">
        <ele>1175.3</ele>
        <time>2008-09-25T14:55:45Z</time>
      </trkpt>
      <trkpt lat="32.774959" lon="-4.443467">
        <ele>1175.8</ele>
        <time>2008-09-25T14:55:47Z</time>
      </trkpt>
      <trkpt lat="32.774366" lon="-4.443824">
        <ele>1176.8</ele>
        <time>2008-09-25T14:55:50Z</time>
      </trkpt>
      <trkpt lat="32.773972" lon="-4.444067">
        <ele>1177.3</ele>
        <time>2008-09-25T14:55:52Z</time>
      </trkpt>
      <trkpt lat="32.773395" lon="-4.444436">
        <ele>1178.2</ele>
        <time>2008-09-25T14:55:55Z</time>
      </trkpt>
      <trkpt lat="32.772897" lon="-4.444789">
        <ele>1179.2</ele>
        <time>2008-09-25T14:55:58Z</time>
      </trkpt>
      <trkpt lat="32.772488" lon="-4.445099">
        <ele>1179.2</ele>
        <time>2008-09-25T14:56:01Z</time>
      </trkpt>
      <trkpt lat="32.772013" lon="-4.445500">
        <ele>1179.7</ele>
        <time>2008-09-25T14:56:05Z</time>
      </trkpt>
      <trkpt lat="32.771546" lon="-4.445945">
        <ele>1179.7</ele>
        <time>2008-09-25T14:56:09Z</time>
      </trkpt>
      <trkpt lat="32.771185" lon="-4.446307">
        <ele>1180.2</ele>
        <time>2008-09-25T14:56:12Z</time>
      </trkpt>
      <trkpt lat="32.770820" lon="-4.446703">
        <ele>1180.2</ele>
        <time>2008-09-25T14:56:15Z</time>
      </trkpt>
      <trkpt lat="32.770431" lon="-4.447125">
        <ele>1180.6</ele>
        <time>2008-09-25T14:56:18Z</time>
      </trkpt>
      <trkpt lat="32.770017" lon="-4.447569">
        <ele>1181.1</ele>
        <time>2008-09-25T14:56:21Z</time>
      </trkpt>
      <trkpt lat="32.769583" lon="-4.448033">
        <ele>1181.6</ele>
        <time>2008-09-25T14:56:24Z</time>
      </trkpt>
      <trkpt lat="32.769137" lon="-4.448526">
        <ele>1182.1</ele>
        <time>2008-09-25T14:56:27Z</time>
      </trkpt>
      <trkpt lat="32.768713" lon="-4.448991">
        <ele>1182.6</ele>
        <time>2008-09-25T14:56:30Z</time>
      </trkpt>
      <trkpt lat="32.768373" lon="-4.449356">
        <ele>1183.0</ele>
        <time>2008-09-25T14:56:33Z</time>
      </trkpt>
      <trkpt lat="32.768024" lon="-4.449731">
        <ele>1183.5</ele>
        <time>2008-09-25T14:56:36Z</time>
      </trkpt>
      <trkpt lat="32.767647" lon="-4.450134">
        <ele>1183.5</ele>
        <time>2008-09-25T14:56:39Z</time>
      </trkpt>
      <trkpt lat="32.767247" lon="-4.450568">
        <ele>1184.0</ele>
        <time>2008-09-25T14:56:42Z</time>
      </trkpt>
      <trkpt lat="32.766838" lon="-4.451013">
        <ele>1184.5</ele>
        <time>2008-09-25T14:56:45Z</time>
      </trkpt>
      <trkpt lat="32.766426" lon="-4.451461">
        <ele>1184.5</ele>
        <time>2008-09-25T14:56:48Z</time>
      </trkpt>
      <trkpt lat="32.766032" lon="-4.451903">
        <ele>1185.0</ele>
        <time>2008-09-25T14:56:51Z</time>
      </trkpt>
      <trkpt lat="32.765646" lon="-4.452327">
        <ele>1185.4</ele>
        <time>2008-09-25T14:56:54Z</time>
      </trkpt>
      <trkpt lat="32.765256" lon="-4.452735">
        <ele>1186.4</ele>
        <time>2008-09-25T14:56:57Z</time>
      </trkpt>
      <trkpt lat="32.764851" lon="-4.453106">
        <ele>1187.4</ele>
        <time>2008-09-25T14:57:00Z</time>
      </trkpt>
      <trkpt lat="32.764448" lon="-4.453470">
        <ele>1188.8</ele>
        <time>2008-09-25T14:57:03Z</time>
      </trkpt>
      <trkpt lat="32.764071" lon="-4.453808">
        <ele>1189.8</ele>
        <time>2008-09-25T14:57:06Z</time>
      </trkpt>
      <trkpt lat="32.763644" lon="-4.454205">
        <ele>1190.7</ele>
        <time>2008-09-25T14:57:10Z</time>
      </trkpt>
      <trkpt lat="32.763217" lon="-4.454589">
        <ele>1191.2</ele>
        <time>2008-09-25T14:57:14Z</time>
      </trkpt>
      <trkpt lat="32.762755" lon="-4.455005">
        <ele>1192.2</ele>
        <time>2008-09-25T14:57:18Z</time>
      </trkpt>
      <trkpt lat="32.762377" lon="-4.455359">
        <ele>1193.1</ele>
        <time>2008-09-25T14:57:21Z</time>
      </trkpt>
      <trkpt lat="32.761958" lon="-4.455729">
        <ele>1194.1</ele>
        <time>2008-09-25T14:57:24Z</time>
      </trkpt>
      <trkpt lat="32.761562" lon="-4.456089">
        <ele>1195.5</ele>
        <time>2008-09-25T14:57:27Z</time>
      </trkpt>
      <trkpt lat="32.761164" lon="-4.456454">
        <ele>1196.5</ele>
        <time>2008-09-25T14:57:30Z</time>
      </trkpt>
      <trkpt lat="32.760725" lon="-4.456856">
        <ele>1197.9</ele>
        <time>2008-09-25T14:57:33Z</time>
      </trkpt>
      <trkpt lat="32.760278" lon="-4.457268">
        <ele>1199.4</ele>
        <time>2008-09-25T14:57:36Z</time>
      </trkpt>
      <trkpt lat="32.759827" lon="-4.457676">
        <ele>1200.3</ele>
        <time>2008-09-25T14:57:39Z</time>
      </trkpt>
      <trkpt lat="32.759827" lon="-4.457676">
        <ele>1200.3</ele>
        <time>2008-09-25T14:57:39Z</time>
      </trkpt>
      <trkpt lat="32.759403" lon="-4.458068">
        <ele>1201.8</ele>
        <time>2008-09-25T14:57:42Z</time>
      </trkpt>
      <trkpt lat="32.759020" lon="-4.458419">
        <ele>1202.7</ele>
        <time>2008-09-25T14:57:45Z</time>
      </trkpt>
      <trkpt lat="32.758383" lon="-4.459020">
        <ele>1199.4</ele>
        <time>2008-09-25T15:46:28Z</time>
      </trkpt>
      <trkpt lat="32.757939" lon="-4.459448">
        <ele>1200.8</ele>
        <time>2008-09-25T15:46:32Z</time>
      </trkpt>
      <trkpt lat="32.757587" lon="-4.459817">
        <ele>1201.8</ele>
        <time>2008-09-25T15:46:35Z</time>
      </trkpt>
      <trkpt lat="32.757191" lon="-4.460230">
        <ele>1202.3</ele>
        <time>2008-09-25T15:46:38Z</time>
      </trkpt>
      <trkpt lat="32.756766" lon="-4.460671">
        <ele>1203.2</ele>
        <time>2008-09-25T15:46:41Z</time>
      </trkpt>
      <trkpt lat="32.756323" lon="-4.461110">
        <ele>1203.7</ele>
        <time>2008-09-25T15:46:44Z</time>
      </trkpt>
      <trkpt lat="32.755924" lon="-4.461521">
        <ele>1204.7</ele>
        <time>2008-09-25T15:46:47Z</time>
      </trkpt>
      <trkpt lat="32.755559" lon="-4.461895">
        <ele>1205.1</ele>
        <time>2008-09-25T15:46:50Z</time>
      </trkpt>
      <trkpt lat="32.755159" lon="-4.462291">
        <ele>1204.7</ele>
        <time>2008-09-25T15:46:53Z</time>
      </trkpt>
      <trkpt lat="32.754725" lon="-4.462752">
        <ele>1204.2</ele>
        <time>2008-09-25T15:46:56Z</time>
      </trkpt>
      <trkpt lat="32.754244" lon="-4.463257">
        <ele>1203.7</ele>
        <time>2008-09-25T15:46:59Z</time>
      </trkpt>
      <trkpt lat="32.753898" lon="-4.463608">
        <ele>1203.2</ele>
        <time>2008-09-25T15:47:01Z</time>
      </trkpt>
      <trkpt lat="32.753547" lon="-4.463970">
        <ele>1203.7</ele>
        <time>2008-09-25T15:47:03Z</time>
      </trkpt>
      <trkpt lat="32.753193" lon="-4.464335">
        <ele>1205.1</ele>
        <time>2008-09-25T15:47:05Z</time>
      </trkpt>
      <trkpt lat="32.752831" lon="-4.464698">
        <ele>1207.1</ele>
        <time>2008-09-25T15:47:07Z</time>
      </trkpt>
      <trkpt lat="32.752473" lon="-4.465066">
        <ele>1208.5</ele>
        <time>2008-09-25T15:47:09Z</time>
      </trkpt>
      <trkpt lat="32.752111" lon="-4.465438">
        <ele>1210.0</ele>
        <time>2008-09-25T15:47:11Z</time>
      </trkpt>
      <trkpt lat="32.751748" lon="-4.465815">
        <ele>1211.9</ele>
        <time>2008-09-25T15:47:13Z</time>
      </trkpt>
      <trkpt lat="32.751380" lon="-4.466194">
        <ele>1213.3</ele>
        <time>2008-09-25T15:47:15Z</time>
      </trkpt>
      <trkpt lat="32.751011" lon="-4.466577">
        <ele>1215.2</ele>
        <time>2008-09-25T15:47:17Z</time>
      </trkpt>
      <trkpt lat="32.750650" lon="-4.466950">
        <ele>1217.2</ele>
        <time>2008-09-25T15:47:19Z</time>
      </trkpt>
      <trkpt lat="32.750301" lon="-4.467310">
        <ele>1219.1</ele>
        <time>2008-09-25T15:47:21Z</time>
      </trkpt>
      <trkpt lat="32.749963" lon="-4.467658">
        <ele>1221.0</ele>
        <time>2008-09-25T15:47:23Z</time>
      </trkpt>
      <trkpt lat="32.749451" lon="-4.468161">
        <ele>1223.9</ele>
        <time>2008-09-25T15:47:26Z</time>
      </trkpt>
      <trkpt lat="32.748915" lon="-4.468640">
        <ele>1225.8</ele>
        <time>2008-09-25T15:47:29Z</time>
      </trkpt>
      <trkpt lat="32.748546" lon="-4.468956">
        <ele>1226.8</ele>
        <time>2008-09-25T15:47:31Z</time>
      </trkpt>
      <trkpt lat="32.748165" lon="-4.469262">
        <ele>1227.7</ele>
        <time>2008-09-25T15:47:33Z</time>
      </trkpt>
      <trkpt lat="32.747772" lon="-4.469561">
        <ele>1229.2</ele>
        <time>2008-09-25T15:47:35Z</time>
      </trkpt>
      <trkpt lat="32.747369" lon="-4.469850">
        <ele>1230.1</ele>
        <time>2008-09-25T15:47:37Z</time>
      </trkpt>
      <trkpt lat="32.746956" lon="-4.470132">
        <ele>1230.6</ele>
        <time>2008-09-25T15:47:39Z</time>
      </trkpt>
      <trkpt lat="32.746535" lon="-4.470419">
        <ele>1231.6</ele>
        <time>2008-09-25T15:47:41Z</time>
      </trkpt>
      <trkpt lat="32.746115" lon="-4.470703">
        <ele>1232.1</ele>
        <time>2008-09-25T15:47:43Z</time>
      </trkpt>
      <trkpt lat="32.745699" lon="-4.470980">
        <ele>1232.5</ele>
        <time>2008-09-25T15:47:45Z</time>
      </trkpt>
      <trkpt lat="32.745277" lon="-4.471268">
        <ele>1233.0</ele>
        <time>2008-09-25T15:47:47Z</time>
      </trkpt>
      <trkpt lat="32.744847" lon="-4.471560">
        <ele>1234.0</ele>
        <time>2008-09-25T15:47:49Z</time>
      </trkpt>
      <trkpt lat="32.744408" lon="-4.471858">
        <ele>1235.0</ele>
        <time>2008-09-25T15:47:51Z</time>
      </trkpt>
      <trkpt lat="32.743961" lon="-4.472161">
        <ele>1235.9</ele>
        <time>2008-09-25T15:47:53Z</time>
      </trkpt>
      <trkpt lat="32.743504" lon="-4.472469">
        <ele>1236.9</ele>
        <time>2008-09-25T15:47:55Z</time>
      </trkpt>
      <trkpt lat="32.743041" lon="-4.472783">
        <ele>1237.8</ele>
        <time>2008-09-25T15:47:57Z</time>
      </trkpt>
      <trkpt lat="32.742570" lon="-4.473101">
        <ele>1238.8</ele>
        <time>2008-09-25T15:47:59Z</time>
      </trkpt>
      <trkpt lat="32.742091" lon="-4.473426">
        <ele>1239.8</ele>
        <time>2008-09-25T15:48:01Z</time>
      </trkpt>
      <trkpt lat="32.741607" lon="-4.473755">
        <ele>1241.7</ele>
        <time>2008-09-25T15:48:03Z</time>
      </trkpt>
      <trkpt lat="32.741119" lon="-4.474082">
        <ele>1243.1</ele>
        <time>2008-09-25T15:48:05Z</time>
      </trkpt>
      <trkpt lat="32.740628" lon="-4.474414">
        <ele>1244.6</ele>
        <time>2008-09-25T15:48:07Z</time>
      </trkpt>
      <trkpt lat="32.740134" lon="-4.474752">
        <ele>1245.5</ele>
        <time>2008-09-25T15:48:09Z</time>
      </trkpt>
      <trkpt lat="32.739636" lon="-4.475092">
        <ele>1246.5</ele>
        <time>2008-09-25T15:48:11Z</time>
      </trkpt>
      <trkpt lat="32.739133" lon="-4.475435">
        <ele>1247.9</ele>
        <time>2008-09-25T15:48:13Z</time>
      </trkpt>
      <trkpt lat="32.738625" lon="-4.475778">
        <ele>1248.9</ele>
        <time>2008-09-25T15:48:15Z</time>
      </trkpt>
      <trkpt lat="32.738113" lon="-4.476121">
        <ele>1249.9</ele>
        <time>2008-09-25T15:48:17Z</time>
      </trkpt>
      <trkpt lat="32.737596" lon="-4.476469">
        <ele>1250.8</ele>
        <time>2008-09-25T15:48:19Z</time>
      </trkpt>
      <trkpt lat="32.737079" lon="-4.476821">
        <ele>1251.3</ele>
        <time>2008-09-25T15:48:21Z</time>
      </trkpt>
      <trkpt lat="32.736569" lon="-4.477166">
        <ele>1252.3</ele>
        <time>2008-09-25T15:48:23Z</time>
      </trkpt>
      <trkpt lat="32.736065" lon="-4.477508">
        <ele>1253.2</ele>
        <time>2008-09-25T15:48:25Z</time>
      </trkpt>
      <trkpt lat="32.735568" lon="-4.477840">
        <ele>1254.7</ele>
        <time>2008-09-25T15:48:27Z</time>
      </trkpt>
      <trkpt lat="32.735080" lon="-4.478171">
        <ele>1255.6</ele>
        <time>2008-09-25T15:48:29Z</time>
      </trkpt>
      <trkpt lat="32.734595" lon="-4.478500">
        <ele>1256.6</ele>
        <time>2008-09-25T15:48:31Z</time>
      </trkpt>
      <trkpt lat="32.734116" lon="-4.478824">
        <ele>1257.5</ele>
        <time>2008-09-25T15:48:33Z</time>
      </trkpt>
      <trkpt lat="32.733647" lon="-4.479145">
        <ele>1258.5</ele>
        <time>2008-09-25T15:48:35Z</time>
      </trkpt>
      <trkpt lat="32.733188" lon="-4.479486">
        <ele>1259.5</ele>
        <time>2008-09-25T15:48:37Z</time>
      </trkpt>
      <trkpt lat="32.732746" lon="-4.479857">
        <ele>1259.9</ele>
        <time>2008-09-25T15:48:39Z</time>
      </trkpt>
      <trkpt lat="32.732321" lon="-4.480258">
        <ele>1260.9</ele>
        <time>2008-09-25T15:48:41Z</time>
      </trkpt>
      <trkpt lat="32.731919" lon="-4.480691">
        <ele>1261.9</ele>
        <time>2008-09-25T15:48:43Z</time>
      </trkpt>
      <trkpt lat="32.731539" lon="-4.481152">
        <ele>1262.8</ele>
        <time>2008-09-25T15:48:45Z</time>
      </trkpt>
      <trkpt lat="32.731183" lon="-4.481640">
        <ele>1263.8</ele>
        <time>2008-09-25T15:48:47Z</time>
      </trkpt>
      <trkpt lat="32.730850" lon="-4.482149">
        <ele>1265.2</ele>
        <time>2008-09-25T15:48:49Z</time>
      </trkpt>
      <trkpt lat="32.730532" lon="-4.482671">
        <ele>1266.2</ele>
        <time>2008-09-25T15:48:51Z</time>
      </trkpt>
      <trkpt lat="32.730226" lon="-4.483180">
        <ele>1267.2</ele>
        <time>2008-09-25T15:48:53Z</time>
      </trkpt>
      <trkpt lat="32.729934" lon="-4.483667">
        <ele>1268.1</ele>
        <time>2008-09-25T15:48:55Z</time>
      </trkpt>
      <trkpt lat="32.729646" lon="-4.484144">
        <ele>1269.1</ele>
        <time>2008-09-25T15:48:57Z</time>
      </trkpt>
      <trkpt lat="32.729357" lon="-4.484623">
        <ele>1270.5</ele>
        <time>2008-09-25T15:48:59Z</time>
      </trkpt>
      <trkpt lat="32.729056" lon="-4.485105">
        <ele>1271.5</ele>
        <time>2008-09-25T15:49:01Z</time>
      </trkpt>
      <trkpt lat="32.728750" lon="-4.485598">
        <ele>1272.4</ele>
        <time>2008-09-25T15:49:03Z</time>
      </trkpt>
      <trkpt lat="32.728437" lon="-4.486101">
        <ele>1273.9</ele>
        <time>2008-09-25T15:49:05Z</time>
      </trkpt>
      <trkpt lat="32.728122" lon="-4.486615">
        <ele>1274.8</ele>
        <time>2008-09-25T15:49:07Z</time>
      </trkpt>
      <trkpt lat="32.727800" lon="-4.487138">
        <ele>1276.3</ele>
        <time>2008-09-25T15:49:09Z</time>
      </trkpt>
      <trkpt lat="32.727474" lon="-4.487667">
        <ele>1277.2</ele>
        <time>2008-09-25T15:49:11Z</time>
      </trkpt>
      <trkpt lat="32.727145" lon="-4.488205">
        <ele>1278.7</ele>
        <time>2008-09-25T15:49:13Z</time>
      </trkpt>
      <trkpt lat="32.726817" lon="-4.488746">
        <ele>1280.1</ele>
        <time>2008-09-25T15:49:15Z</time>
      </trkpt>
      <trkpt lat="32.726493" lon="-4.489283">
        <ele>1281.6</ele>
        <time>2008-09-25T15:49:17Z</time>
      </trkpt>
      <trkpt lat="32.726167" lon="-4.489819">
        <ele>1283.0</ele>
        <time>2008-09-25T15:49:19Z</time>
      </trkpt>
      <trkpt lat="32.725835" lon="-4.490358">
        <ele>1284.5</ele>
        <time>2008-09-25T15:49:21Z</time>
      </trkpt>
      <trkpt lat="32.725498" lon="-4.490903">
        <ele>1285.9</ele>
        <time>2008-09-25T15:49:23Z</time>
      </trkpt>
      <trkpt lat="32.725151" lon="-4.491448">
        <ele>1287.3</ele>
        <time>2008-09-25T15:49:25Z</time>
      </trkpt>
      <trkpt lat="32.724788" lon="-4.491983">
        <ele>1288.8</ele>
        <time>2008-09-25T15:49:27Z</time>
      </trkpt>
      <trkpt lat="32.724407" lon="-4.492507">
        <ele>1290.2</ele>
        <time>2008-09-25T15:49:29Z</time>
      </trkpt>
      <trkpt lat="32.724013" lon="-4.493024">
        <ele>1291.7</ele>
        <time>2008-09-25T15:49:31Z</time>
      </trkpt>
      <trkpt lat="32.723606" lon="-4.493532">
        <ele>1292.6</ele>
        <time>2008-09-25T15:49:33Z</time>
      </trkpt>
      <trkpt lat="32.723196" lon="-4.494044">
        <ele>1293.1</ele>
        <time>2008-09-25T15:49:35Z</time>
      </trkpt>
      <trkpt lat="32.722782" lon="-4.494559">
        <ele>1294.1</ele>
        <time>2008-09-25T15:49:37Z</time>
      </trkpt>
      <trkpt lat="32.722367" lon="-4.495080">
        <ele>1295.0</ele>
        <time>2008-09-25T15:49:39Z</time>
      </trkpt>
      <trkpt lat="32.721950" lon="-4.495604">
        <ele>1296.0</ele>
        <time>2008-09-25T15:49:41Z</time>
      </trkpt>
      <trkpt lat="32.721528" lon="-4.496128">
        <ele>1297.0</ele>
        <time>2008-09-25T15:49:43Z</time>
      </trkpt>
      <trkpt lat="32.721107" lon="-4.496658">
        <ele>1297.9</ele>
        <time>2008-09-25T15:49:45Z</time>
      </trkpt>
      <trkpt lat="32.720684" lon="-4.497189">
        <ele>1299.4</ele>
        <time>2008-09-25T15:49:47Z</time>
      </trkpt>
      <trkpt lat="32.720261" lon="-4.497718">
        <ele>1300.8</ele>
        <time>2008-09-25T15:49:49Z</time>
      </trkpt>
      <trkpt lat="32.719842" lon="-4.498238">
        <ele>1301.8</ele>
        <time>2008-09-25T15:49:51Z</time>
      </trkpt>
      <trkpt lat="32.719426" lon="-4.498752">
        <ele>1303.7</ele>
        <time>2008-09-25T15:49:53Z</time>
      </trkpt>
      <trkpt lat="32.719000" lon="-4.499252">
        <ele>1306.1</ele>
        <time>2008-09-25T15:49:55Z</time>
      </trkpt>
      <trkpt lat="32.718561" lon="-4.499739">
        <ele>1308.0</ele>
        <time>2008-09-25T15:49:57Z</time>
      </trkpt>
      <trkpt lat="32.718103" lon="-4.500212">
        <ele>1309.0</ele>
        <time>2008-09-25T15:49:59Z</time>
      </trkpt>
      <trkpt lat="32.717625" lon="-4.500670">
        <ele>1310.4</ele>
        <time>2008-09-25T15:50:01Z</time>
      </trkpt>
      <trkpt lat="32.717130" lon="-4.501111">
        <ele>1312.3</ele>
        <time>2008-09-25T15:50:03Z</time>
      </trkpt>
      <trkpt lat="32.716632" lon="-4.501542">
        <ele>1314.7</ele>
        <time>2008-09-25T15:50:05Z</time>
      </trkpt>
      <trkpt lat="32.716131" lon="-4.501969">
        <ele>1317.1</ele>
        <time>2008-09-25T15:50:07Z</time>
      </trkpt>
      <trkpt lat="32.715630" lon="-4.502396">
        <ele>1319.1</ele>
        <time>2008-09-25T15:50:09Z</time>
      </trkpt>
      <trkpt lat="32.715129" lon="-4.502820">
        <ele>1321.0</ele>
        <time>2008-09-25T15:50:11Z</time>
      </trkpt>
      <trkpt lat="32.714639" lon="-4.503234">
        <ele>1322.9</ele>
        <time>2008-09-25T15:50:13Z</time>
      </trkpt>
      <trkpt lat="32.714161" lon="-4.503642">
        <ele>1324.8</ele>
        <time>2008-09-25T15:50:15Z</time>
      </trkpt>
      <trkpt lat="32.713691" lon="-4.504040">
        <ele>1326.3</ele>
        <time>2008-09-25T15:50:17Z</time>
      </trkpt>
      <trkpt lat="32.713222" lon="-4.504438">
        <ele>1327.7</ele>
        <time>2008-09-25T15:50:19Z</time>
      </trkpt>
      <trkpt lat="32.712759" lon="-4.504853">
        <ele>1328.7</ele>
        <time>2008-09-25T15:50:21Z</time>
      </trkpt>
      <trkpt lat="32.712304" lon="-4.505290">
        <ele>1329.6</ele>
        <time>2008-09-25T15:50:23Z</time>
      </trkpt>
      <trkpt lat="32.711860" lon="-4.505748">
        <ele>1330.6</ele>
        <time>2008-09-25T15:50:25Z</time>
      </trkpt>
      <trkpt lat="32.711427" lon="-4.506222">
        <ele>1331.6</ele>
        <time>2008-09-25T15:50:27Z</time>
      </trkpt>
      <trkpt lat="32.711018" lon="-4.506699">
        <ele>1333.5</ele>
        <time>2008-09-25T15:50:29Z</time>
      </trkpt>
      <trkpt lat="32.710632" lon="-4.507186">
        <ele>1335.4</ele>
        <time>2008-09-25T15:50:31Z</time>
      </trkpt>
      <trkpt lat="32.710267" lon="-4.507673">
        <ele>1336.4</ele>
        <time>2008-09-25T15:50:33Z</time>
      </trkpt>
      <trkpt lat="32.709942" lon="-4.508139">
        <ele>1337.3</ele>
        <time>2008-09-25T15:50:35Z</time>
      </trkpt>
      <trkpt lat="32.709674" lon="-4.508546">
        <ele>1337.8</ele>
        <time>2008-09-25T15:50:37Z</time>
      </trkpt>
      <trkpt lat="32.709361" lon="-4.509038">
        <ele>1338.8</ele>
        <time>2008-09-25T15:50:40Z</time>
      </trkpt>
      <trkpt lat="32.709041" lon="-4.509536">
        <ele>1339.7</ele>
        <time>2008-09-25T15:50:43Z</time>
      </trkpt>
      <trkpt lat="32.708719" lon="-4.510100">
        <ele>1341.2</ele>
        <time>2008-09-25T15:50:46Z</time>
      </trkpt>
      <trkpt lat="32.708391" lon="-4.510737">
        <ele>1342.6</ele>
        <time>2008-09-25T15:50:49Z</time>
      </trkpt>
      <trkpt lat="32.708052" lon="-4.511440">
        <ele>1344.1</ele>
        <time>2008-09-25T15:50:52Z</time>
      </trkpt>
      <trkpt lat="32.707821" lon="-4.511945">
        <ele>1345.0</ele>
        <time>2008-09-25T15:50:54Z</time>
      </trkpt>
      <trkpt lat="32.707582" lon="-4.512476">
        <ele>1345.5</ele>
        <time>2008-09-25T15:50:56Z</time>
      </trkpt>
      <trkpt lat="32.707337" lon="-4.513031">
        <ele>1346.5</ele>
        <time>2008-09-25T15:50:58Z</time>
      </trkpt>
      <trkpt lat="32.707083" lon="-4.513605">
        <ele>1347.4</ele>
        <time>2008-09-25T15:51:00Z</time>
      </trkpt>
      <trkpt lat="32.706828" lon="-4.514174">
        <ele>1348.4</ele>
        <time>2008-09-25T15:51:02Z</time>
      </trkpt>
      <trkpt lat="32.706582" lon="-4.514720">
        <ele>1349.8</ele>
        <time>2008-09-25T15:51:04Z</time>
      </trkpt>
      <trkpt lat="32.706348" lon="-4.515243">
        <ele>1351.3</ele>
        <time>2008-09-25T15:51:06Z</time>
      </trkpt>
      <trkpt lat="32.706129" lon="-4.515742">
        <ele>1352.2</ele>
        <time>2008-09-25T15:51:08Z</time>
      </trkpt>
      <trkpt lat="32.705918" lon="-4.516245">
        <ele>1352.7</ele>
        <time>2008-09-25T15:51:10Z</time>
      </trkpt>
      <trkpt lat="32.705705" lon="-4.516753">
        <ele>1353.2</ele>
        <time>2008-09-25T15:51:12Z</time>
      </trkpt>
      <trkpt lat="32.705482" lon="-4.517276">
        <ele>1353.7</ele>
        <time>2008-09-25T15:51:14Z</time>
      </trkpt>
      <trkpt lat="32.705263" lon="-4.517818">
        <ele>1353.7</ele>
        <time>2008-09-25T15:51:16Z</time>
      </trkpt>
      <trkpt lat="32.705057" lon="-4.518357">
        <ele>1354.2</ele>
        <time>2008-09-25T15:51:18Z</time>
      </trkpt>
      <trkpt lat="32.704841" lon="-4.518909">
        <ele>1353.7</ele>
        <time>2008-09-25T15:51:20Z</time>
      </trkpt>
      <trkpt lat="32.704730" lon="-4.519192">
        <ele>1353.7</ele>
        <time>2008-09-25T15:51:21Z</time>
      </trkpt>
      <trkpt lat="32.704268" lon="-4.520370">
        <ele>1355.1</ele>
        <time>2008-09-25T15:51:25Z</time>
      </trkpt>
      <trkpt lat="32.704034" lon="-4.520971">
        <ele>1357.0</ele>
        <time>2008-09-25T15:51:27Z</time>
      </trkpt>
      <trkpt lat="32.703825" lon="-4.521514">
        <ele>1358.5</ele>
        <time>2008-09-25T15:51:29Z</time>
      </trkpt>
      <trkpt lat="32.703646" lon="-4.521992">
        <ele>1359.0</ele>
        <time>2008-09-25T15:51:31Z</time>
      </trkpt>
      <trkpt lat="32.703377" lon="-4.522689">
        <ele>1359.4</ele>
        <time>2008-09-25T15:51:34Z</time>
      </trkpt>
      <trkpt lat="32.703098" lon="-4.523392">
        <ele>1359.9</ele>
        <time>2008-09-25T15:51:37Z</time>
      </trkpt>
      <trkpt lat="32.702816" lon="-4.524113">
        <ele>1359.4</ele>
        <time>2008-09-25T15:51:40Z</time>
      </trkpt>
      <trkpt lat="32.702611" lon="-4.524619">
        <ele>1358.5</ele>
        <time>2008-09-25T15:51:42Z</time>
      </trkpt>
      <trkpt lat="32.702397" lon="-4.525152">
        <ele>1357.5</ele>
        <time>2008-09-25T15:51:44Z</time>
      </trkpt>
      <trkpt lat="32.702176" lon="-4.525712">
        <ele>1357.5</ele>
        <time>2008-09-25T15:51:46Z</time>
      </trkpt>
      <trkpt lat="32.701946" lon="-4.526289">
        <ele>1359.0</ele>
        <time>2008-09-25T15:51:48Z</time>
      </trkpt>
      <trkpt lat="32.701718" lon="-4.526876">
        <ele>1360.4</ele>
        <time>2008-09-25T15:51:50Z</time>
      </trkpt>
      <trkpt lat="32.701487" lon="-4.527466">
        <ele>1362.3</ele>
        <time>2008-09-25T15:51:52Z</time>
      </trkpt>
      <trkpt lat="32.701264" lon="-4.528040">
        <ele>1364.2</ele>
        <time>2008-09-25T15:51:54Z</time>
      </trkpt>
      <trkpt lat="32.701048" lon="-4.528598">
        <ele>1365.2</ele>
        <time>2008-09-25T15:51:56Z</time>
      </trkpt>
      <trkpt lat="32.700841" lon="-4.529140">
        <ele>1366.2</ele>
        <time>2008-09-25T15:51:58Z</time>
      </trkpt>
      <trkpt lat="32.700641" lon="-4.529662">
        <ele>1367.6</ele>
        <time>2008-09-25T15:52:00Z</time>
      </trkpt>
      <trkpt lat="32.700444" lon="-4.530169">
        <ele>1368.6</ele>
        <time>2008-09-25T15:52:02Z</time>
      </trkpt>
      <trkpt lat="32.700247" lon="-4.530672">
        <ele>1369.5</ele>
        <time>2008-09-25T15:52:04Z</time>
      </trkpt>
      <trkpt lat="32.700047" lon="-4.531185">
        <ele>1370.5</ele>
        <time>2008-09-25T15:52:06Z</time>
      </trkpt>
      <trkpt lat="32.699833" lon="-4.531708">
        <ele>1371.0</ele>
        <time>2008-09-25T15:52:08Z</time>
      </trkpt>
      <trkpt lat="32.699614" lon="-4.532246">
        <ele>1371.9</ele>
        <time>2008-09-25T15:52:10Z</time>
      </trkpt>
      <trkpt lat="32.699394" lon="-4.532798">
        <ele>1372.4</ele>
        <time>2008-09-25T15:52:12Z</time>
      </trkpt>
      <trkpt lat="32.699176" lon="-4.533355">
        <ele>1373.4</ele>
        <time>2008-09-25T15:52:14Z</time>
      </trkpt>
      <trkpt lat="32.698958" lon="-4.533911">
        <ele>1373.4</ele>
        <time>2008-09-25T15:52:16Z</time>
      </trkpt>
      <trkpt lat="32.698743" lon="-4.534458">
        <ele>1373.9</ele>
        <time>2008-09-25T15:52:18Z</time>
      </trkpt>
      <trkpt lat="32.698537" lon="-4.534982">
        <ele>1374.3</ele>
        <time>2008-09-25T15:52:20Z</time>
      </trkpt>
      <trkpt lat="32.698343" lon="-4.535485">
        <ele>1375.3</ele>
        <time>2008-09-25T15:52:22Z</time>
      </trkpt>
      <trkpt lat="32.698154" lon="-4.535966">
        <ele>1375.8</ele>
        <time>2008-09-25T15:52:24Z</time>
      </trkpt>
      <trkpt lat="32.697878" lon="-4.536659">
        <ele>1377.2</ele>
        <time>2008-09-25T15:52:27Z</time>
      </trkpt>
      <trkpt lat="32.697628" lon="-4.537331">
        <ele>1378.2</ele>
        <time>2008-09-25T15:52:30Z</time>
      </trkpt>
      <trkpt lat="32.697424" lon="-4.538011">
        <ele>1379.6</ele>
        <time>2008-09-25T15:52:33Z</time>
      </trkpt>
      <trkpt lat="32.697250" lon="-4.538731">
        <ele>1380.6</ele>
        <time>2008-09-25T15:52:36Z</time>
      </trkpt>
      <trkpt lat="32.697105" lon="-4.539488">
        <ele>1382.0</ele>
        <time>2008-09-25T15:52:39Z</time>
      </trkpt>
      <trkpt lat="32.696969" lon="-4.540269">
        <ele>1383.5</ele>
        <time>2008-09-25T15:52:42Z</time>
      </trkpt>
      <trkpt lat="32.696880" lon="-4.540801">
        <ele>1384.4</ele>
        <time>2008-09-25T15:52:44Z</time>
      </trkpt>
      <trkpt lat="32.696788" lon="-4.541348">
        <ele>1384.9</ele>
        <time>2008-09-25T15:52:46Z</time>
      </trkpt>
      <trkpt lat="32.696694" lon="-4.541907">
        <ele>1385.4</ele>
        <time>2008-09-25T15:52:48Z</time>
      </trkpt>
      <trkpt lat="32.696597" lon="-4.542473">
        <ele>1385.9</ele>
        <time>2008-09-25T15:52:50Z</time>
      </trkpt>
      <trkpt lat="32.696502" lon="-4.543042">
        <ele>1386.4</ele>
        <time>2008-09-25T15:52:52Z</time>
      </trkpt>
      <trkpt lat="32.696407" lon="-4.543615">
        <ele>1386.8</ele>
        <time>2008-09-25T15:52:54Z</time>
      </trkpt>
      <trkpt lat="32.696311" lon="-4.544192">
        <ele>1386.8</ele>
        <time>2008-09-25T15:52:56Z</time>
      </trkpt>
      <trkpt lat="32.696215" lon="-4.544751">
        <ele>1387.3</ele>
        <time>2008-09-25T15:52:58Z</time>
      </trkpt>
      <trkpt lat="32.696123" lon="-4.545278">
        <ele>1387.8</ele>
        <time>2008-09-25T15:53:00Z</time>
      </trkpt>
      <trkpt lat="32.695997" lon="-4.546011">
        <ele>1388.3</ele>
        <time>2008-09-25T15:53:03Z</time>
      </trkpt>
      <trkpt lat="32.695884" lon="-4.546656">
        <ele>1389.7</ele>
        <time>2008-09-25T15:53:06Z</time>
      </trkpt>
      <trkpt lat="32.695772" lon="-4.547252">
        <ele>1390.7</ele>
        <time>2008-09-25T15:53:09Z</time>
      </trkpt>
      <trkpt lat="32.695667" lon="-4.547885">
        <ele>1391.2</ele>
        <time>2008-09-25T15:53:12Z</time>
      </trkpt>
      <trkpt lat="32.695563" lon="-4.548562">
        <ele>1392.6</ele>
        <time>2008-09-25T15:53:15Z</time>
      </trkpt>
      <trkpt lat="32.695451" lon="-4.549285">
        <ele>1393.1</ele>
        <time>2008-09-25T15:53:18Z</time>
      </trkpt>
      <trkpt lat="32.695321" lon="-4.550046">
        <ele>1394.5</ele>
        <time>2008-09-25T15:53:21Z</time>
      </trkpt>
      <trkpt lat="32.695231" lon="-4.550572">
        <ele>1395.0</ele>
        <time>2008-09-25T15:53:23Z</time>
      </trkpt>
      <trkpt lat="32.695137" lon="-4.551112">
        <ele>1396.0</ele>
        <time>2008-09-25T15:53:25Z</time>
      </trkpt>
      <trkpt lat="32.695046" lon="-4.551667">
        <ele>1396.9</ele>
        <time>2008-09-25T15:53:27Z</time>
      </trkpt>
      <trkpt lat="32.694952" lon="-4.552236">
        <ele>1397.9</ele>
        <time>2008-09-25T15:53:29Z</time>
      </trkpt>
      <trkpt lat="32.694857" lon="-4.552811">
        <ele>1398.4</ele>
        <time>2008-09-25T15:53:31Z</time>
      </trkpt>
      <trkpt lat="32.694761" lon="-4.553388">
        <ele>1398.9</ele>
        <time>2008-09-25T15:53:33Z</time>
      </trkpt>
      <trkpt lat="32.694661" lon="-4.553971">
        <ele>1398.4</ele>
        <time>2008-09-25T15:53:35Z</time>
      </trkpt>
      <trkpt lat="32.694558" lon="-4.554562">
        <ele>1398.4</ele>
        <time>2008-09-25T15:53:37Z</time>
      </trkpt>
      <trkpt lat="32.694455" lon="-4.555162">
        <ele>1398.9</ele>
        <time>2008-09-25T15:53:39Z</time>
      </trkpt>
      <trkpt lat="32.694350" lon="-4.555773">
        <ele>1399.3</ele>
        <time>2008-09-25T15:53:41Z</time>
      </trkpt>
      <trkpt lat="32.694249" lon="-4.556396">
        <ele>1400.3</ele>
        <time>2008-09-25T15:53:43Z</time>
      </trkpt>
      <trkpt lat="32.694144" lon="-4.557026">
        <ele>1401.3</ele>
        <time>2008-09-25T15:53:45Z</time>
      </trkpt>
      <trkpt lat="32.694037" lon="-4.557663">
        <ele>1402.2</ele>
        <time>2008-09-25T15:53:47Z</time>
      </trkpt>
      <trkpt lat="32.693930" lon="-4.558308">
        <ele>1403.7</ele>
        <time>2008-09-25T15:53:49Z</time>
      </trkpt>
      <trkpt lat="32.693816" lon="-4.558959">
        <ele>1404.6</ele>
        <time>2008-09-25T15:53:51Z</time>
      </trkpt>
      <trkpt lat="32.693699" lon="-4.559613">
        <ele>1405.6</ele>
        <time>2008-09-25T15:53:53Z</time>
      </trkpt>
      <trkpt lat="32.693576" lon="-4.560250">
        <ele>1406.5</ele>
        <time>2008-09-25T15:53:55Z</time>
      </trkpt>
      <trkpt lat="32.693445" lon="-4.560877">
        <ele>1407.5</ele>
        <time>2008-09-25T15:53:57Z</time>
      </trkpt>
      <trkpt lat="32.693304" lon="-4.561502">
        <ele>1408.9</ele>
        <time>2008-09-25T15:53:59Z</time>
      </trkpt>
      <trkpt lat="32.693147" lon="-4.562131">
        <ele>1410.4</ele>
        <time>2008-09-25T15:54:01Z</time>
      </trkpt>
      <trkpt lat="32.692980" lon="-4.562764">
        <ele>1411.8</ele>
        <time>2008-09-25T15:54:03Z</time>
      </trkpt>
      <trkpt lat="32.692799" lon="-4.563400">
        <ele>1413.3</ele>
        <time>2008-09-25T15:54:05Z</time>
      </trkpt>
      <trkpt lat="32.692607" lon="-4.564042">
        <ele>1414.2</ele>
        <time>2008-09-25T15:54:07Z</time>
      </trkpt>
      <trkpt lat="32.692396" lon="-4.564686">
        <ele>1414.7</ele>
        <time>2008-09-25T15:54:09Z</time>
      </trkpt>
      <trkpt lat="32.692170" lon="-4.565334">
        <ele>1415.7</ele>
        <time>2008-09-25T15:54:11Z</time>
      </trkpt>
      <trkpt lat="32.691932" lon="-4.565986">
        <ele>1416.2</ele>
        <time>2008-09-25T15:54:13Z</time>
      </trkpt>
      <trkpt lat="32.691680" lon="-4.566637">
        <ele>1418.1</ele>
        <time>2008-09-25T15:54:15Z</time>
      </trkpt>
      <trkpt lat="32.691417" lon="-4.567281">
        <ele>1420.5</ele>
        <time>2008-09-25T15:54:17Z</time>
      </trkpt>
      <trkpt lat="32.691154" lon="-4.567905">
        <ele>1422.4</ele>
        <time>2008-09-25T15:54:19Z</time>
      </trkpt>
      <trkpt lat="32.690901" lon="-4.568516">
        <ele>1423.8</ele>
        <time>2008-09-25T15:54:21Z</time>
      </trkpt>
      <trkpt lat="32.690649" lon="-4.569129">
        <ele>1424.3</ele>
        <time>2008-09-25T15:54:23Z</time>
      </trkpt>
      <trkpt lat="32.690395" lon="-4.569741">
        <ele>1424.8</ele>
        <time>2008-09-25T15:54:25Z</time>
      </trkpt>
      <trkpt lat="32.690144" lon="-4.570348">
        <ele>1425.3</ele>
        <time>2008-09-25T15:54:27Z</time>
      </trkpt>
      <trkpt lat="32.689907" lon="-4.570922">
        <ele>1426.7</ele>
        <time>2008-09-25T15:54:29Z</time>
      </trkpt>
      <trkpt lat="32.689680" lon="-4.571476">
        <ele>1427.7</ele>
        <time>2008-09-25T15:54:31Z</time>
      </trkpt>
      <trkpt lat="32.689453" lon="-4.572023">
        <ele>1429.1</ele>
        <time>2008-09-25T15:54:33Z</time>
      </trkpt>
      <trkpt lat="32.689220" lon="-4.572571">
        <ele>1430.1</ele>
        <time>2008-09-25T15:54:35Z</time>
      </trkpt>
      <trkpt lat="32.688976" lon="-4.573124">
        <ele>1431.1</ele>
        <time>2008-09-25T15:54:37Z</time>
      </trkpt>
      <trkpt lat="32.688736" lon="-4.573693">
        <ele>1432.0</ele>
        <time>2008-09-25T15:54:39Z</time>
      </trkpt>
      <trkpt lat="32.688495" lon="-4.574277">
        <ele>1433.0</ele>
        <time>2008-09-25T15:54:41Z</time>
      </trkpt>
      <trkpt lat="32.688250" lon="-4.574873">
        <ele>1433.9</ele>
        <time>2008-09-25T15:54:43Z</time>
      </trkpt>
      <trkpt lat="32.687997" lon="-4.575477">
        <ele>1434.9</ele>
        <time>2008-09-25T15:54:45Z</time>
      </trkpt>
      <trkpt lat="32.687740" lon="-4.576085">
        <ele>1436.8</ele>
        <time>2008-09-25T15:54:47Z</time>
      </trkpt>
      <trkpt lat="32.687492" lon="-4.576677">
        <ele>1438.8</ele>
        <time>2008-09-25T15:54:49Z</time>
      </trkpt>
      <trkpt lat="32.687257" lon="-4.577246">
        <ele>1440.2</ele>
        <time>2008-09-25T15:54:51Z</time>
      </trkpt>
      <trkpt lat="32.687018" lon="-4.577820">
        <ele>1441.6</ele>
        <time>2008-09-25T15:54:53Z</time>
      </trkpt>
      <trkpt lat="32.686774" lon="-4.578403">
        <ele>1442.1</ele>
        <time>2008-09-25T15:54:55Z</time>
      </trkpt>
      <trkpt lat="32.686525" lon="-4.578993">
        <ele>1443.1</ele>
        <time>2008-09-25T15:54:57Z</time>
      </trkpt>
      <trkpt lat="32.686274" lon="-4.579593">
        <ele>1444.0</ele>
        <time>2008-09-25T15:54:59Z</time>
      </trkpt>
      <trkpt lat="32.686024" lon="-4.580201">
        <ele>1444.5</ele>
        <time>2008-09-25T15:55:01Z</time>
      </trkpt>
      <trkpt lat="32.685763" lon="-4.580812">
        <ele>1445.5</ele>
        <time>2008-09-25T15:55:03Z</time>
      </trkpt>
      <trkpt lat="32.685493" lon="-4.581425">
        <ele>1446.4</ele>
        <time>2008-09-25T15:55:05Z</time>
      </trkpt>
      <trkpt lat="32.685214" lon="-4.582042">
        <ele>1447.4</ele>
        <time>2008-09-25T15:55:07Z</time>
      </trkpt>
      <trkpt lat="32.684929" lon="-4.582660">
        <ele>1449.3</ele>
        <time>2008-09-25T15:55:09Z</time>
      </trkpt>
      <trkpt lat="32.684640" lon="-4.583277">
        <ele>1451.7</ele>
        <time>2008-09-25T15:55:11Z</time>
      </trkpt>
      <trkpt lat="32.684349" lon="-4.583897">
        <ele>1453.7</ele>
        <time>2008-09-25T15:55:13Z</time>
      </trkpt>
      <trkpt lat="32.684058" lon="-4.584519">
        <ele>1455.1</ele>
        <time>2008-09-25T15:55:15Z</time>
      </trkpt>
      <trkpt lat="32.683767" lon="-4.585145">
        <ele>1457.0</ele>
        <time>2008-09-25T15:55:17Z</time>
      </trkpt>
      <trkpt lat="32.683475" lon="-4.585776">
        <ele>1458.5</ele>
        <time>2008-09-25T15:55:19Z</time>
      </trkpt>
      <trkpt lat="32.683179" lon="-4.586406">
        <ele>1459.9</ele>
        <time>2008-09-25T15:55:21Z</time>
      </trkpt>
      <trkpt lat="32.682883" lon="-4.587037">
        <ele>1461.8</ele>
        <time>2008-09-25T15:55:23Z</time>
      </trkpt>
      <trkpt lat="32.682591" lon="-4.587674">
        <ele>1463.3</ele>
        <time>2008-09-25T15:55:25Z</time>
      </trkpt>
      <trkpt lat="32.682299" lon="-4.588314">
        <ele>1464.7</ele>
        <time>2008-09-25T15:55:27Z</time>
      </trkpt>
      <trkpt lat="32.682004" lon="-4.588955">
        <ele>1466.6</ele>
        <time>2008-09-25T15:55:29Z</time>
      </trkpt>
      <trkpt lat="32.681705" lon="-4.589598">
        <ele>1468.1</ele>
        <time>2008-09-25T15:55:31Z</time>
      </trkpt>
      <trkpt lat="32.681401" lon="-4.590244">
        <ele>1470.0</ele>
        <time>2008-09-25T15:55:33Z</time>
      </trkpt>
      <trkpt lat="32.681097" lon="-4.590893">
        <ele>1471.4</ele>
        <time>2008-09-25T15:55:35Z</time>
      </trkpt>
      <trkpt lat="32.680797" lon="-4.591547">
        <ele>1472.9</ele>
        <time>2008-09-25T15:55:37Z</time>
      </trkpt>
      <trkpt lat="32.680501" lon="-4.592206">
        <ele>1474.3</ele>
        <time>2008-09-25T15:55:39Z</time>
      </trkpt>
      <trkpt lat="32.680219" lon="-4.592875">
        <ele>1475.8</ele>
        <time>2008-09-25T15:55:41Z</time>
      </trkpt>
      <trkpt lat="32.679959" lon="-4.593559">
        <ele>1477.2</ele>
        <time>2008-09-25T15:55:43Z</time>
      </trkpt>
      <trkpt lat="32.679717" lon="-4.594257">
        <ele>1478.2</ele>
        <time>2008-09-25T15:55:45Z</time>
      </trkpt>
      <trkpt lat="32.679492" lon="-4.594967">
        <ele>1479.6</ele>
        <time>2008-09-25T15:55:47Z</time>
      </trkpt>
      <trkpt lat="32.679293" lon="-4.595688">
        <ele>1481.0</ele>
        <time>2008-09-25T15:55:49Z</time>
      </trkpt>
      <trkpt lat="32.679118" lon="-4.596412">
        <ele>1482.0</ele>
        <time>2008-09-25T15:55:51Z</time>
      </trkpt>
      <trkpt lat="32.678953" lon="-4.597131">
        <ele>1483.5</ele>
        <time>2008-09-25T15:55:53Z</time>
      </trkpt>
      <trkpt lat="32.678791" lon="-4.597845">
        <ele>1484.4</ele>
        <time>2008-09-25T15:55:55Z</time>
      </trkpt>
      <trkpt lat="32.678636" lon="-4.598545">
        <ele>1484.9</ele>
        <time>2008-09-25T15:55:57Z</time>
      </trkpt>
      <trkpt lat="32.678480" lon="-4.599234">
        <ele>1485.4</ele>
        <time>2008-09-25T15:55:59Z</time>
      </trkpt>
      <trkpt lat="32.678327" lon="-4.599933">
        <ele>1485.9</ele>
        <time>2008-09-25T15:56:01Z</time>
      </trkpt>
      <trkpt lat="32.678172" lon="-4.600627">
        <ele>1486.8</ele>
        <time>2008-09-25T15:56:03Z</time>
      </trkpt>
      <trkpt lat="32.678023" lon="-4.601297">
        <ele>1487.8</ele>
        <time>2008-09-25T15:56:05Z</time>
      </trkpt>
      <trkpt lat="32.677878" lon="-4.601940">
        <ele>1488.7</ele>
        <time>2008-09-25T15:56:07Z</time>
      </trkpt>
      <trkpt lat="32.677739" lon="-4.602562">
        <ele>1489.7</ele>
        <time>2008-09-25T15:56:09Z</time>
      </trkpt>
      <trkpt lat="32.677605" lon="-4.603165">
        <ele>1491.1</ele>
        <time>2008-09-25T15:56:11Z</time>
      </trkpt>
      <trkpt lat="32.677479" lon="-4.603729">
        <ele>1492.1</ele>
        <time>2008-09-25T15:56:13Z</time>
      </trkpt>
      <trkpt lat="32.677320" lon="-4.604439">
        <ele>1493.1</ele>
        <time>2008-09-25T15:56:16Z</time>
      </trkpt>
      <trkpt lat="32.677167" lon="-4.605122">
        <ele>1493.5</ele>
        <time>2008-09-25T15:56:19Z</time>
      </trkpt>
      <trkpt lat="32.677005" lon="-4.605849">
        <ele>1495.0</ele>
        <time>2008-09-25T15:56:22Z</time>
      </trkpt>
      <trkpt lat="32.676832" lon="-4.606614">
        <ele>1495.9</ele>
        <time>2008-09-25T15:56:25Z</time>
      </trkpt>
      <trkpt lat="32.676713" lon="-4.607132">
        <ele>1496.9</ele>
        <time>2008-09-25T15:56:27Z</time>
      </trkpt>
      <trkpt lat="32.676600" lon="-4.607646">
        <ele>1497.4</ele>
        <time>2008-09-25T15:56:29Z</time>
      </trkpt>
      <trkpt lat="32.676431" lon="-4.608407">
        <ele>1497.9</ele>
        <time>2008-09-25T15:56:32Z</time>
      </trkpt>
      <trkpt lat="32.676265" lon="-4.609162">
        <ele>1498.8</ele>
        <time>2008-09-25T15:56:35Z</time>
      </trkpt>
      <trkpt lat="32.676114" lon="-4.609877">
        <ele>1499.3</ele>
        <time>2008-09-25T15:56:38Z</time>
      </trkpt>
      <trkpt lat="32.675949" lon="-4.610573">
        <ele>1499.8</ele>
        <time>2008-09-25T15:56:41Z</time>
      </trkpt>
      <trkpt lat="32.675753" lon="-4.611261">
        <ele>1500.8</ele>
        <time>2008-09-25T15:56:44Z</time>
      </trkpt>
      <trkpt lat="32.675515" lon="-4.611931">
        <ele>1502.2</ele>
        <time>2008-09-25T15:56:47Z</time>
      </trkpt>
      <trkpt lat="32.675241" lon="-4.612578">
        <ele>1503.2</ele>
        <time>2008-09-25T15:56:50Z</time>
      </trkpt>
      <trkpt lat="32.674972" lon="-4.613176">
        <ele>1504.6</ele>
        <time>2008-09-25T15:56:53Z</time>
      </trkpt>
      <trkpt lat="32.674727" lon="-4.613716">
        <ele>1506.0</ele>
        <time>2008-09-25T15:56:56Z</time>
      </trkpt>
      <trkpt lat="32.674487" lon="-4.614244">
        <ele>1507.5</ele>
        <time>2008-09-25T15:56:59Z</time>
      </trkpt>
      <trkpt lat="32.674245" lon="-4.614769">
        <ele>1508.9</ele>
        <time>2008-09-25T15:57:02Z</time>
      </trkpt>
      <trkpt lat="32.674015" lon="-4.615259">
        <ele>1510.4</ele>
        <time>2008-09-25T15:57:05Z</time>
      </trkpt>
      <trkpt lat="32.673759" lon="-4.615776">
        <ele>1511.8</ele>
        <time>2008-09-25T15:57:08Z</time>
      </trkpt>
      <trkpt lat="32.673496" lon="-4.616345">
        <ele>1513.3</ele>
        <time>2008-09-25T15:57:11Z</time>
      </trkpt>
      <trkpt lat="32.673253" lon="-4.616870">
        <ele>1514.7</ele>
        <time>2008-09-25T15:57:14Z</time>
      </trkpt>
      <trkpt lat="32.673037" lon="-4.617337">
        <ele>1515.7</ele>
        <time>2008-09-25T15:57:17Z</time>
      </trkpt>
      <trkpt lat="32.672770" lon="-4.617940">
        <ele>1517.1</ele>
        <time>2008-09-25T15:57:21Z</time>
      </trkpt>
      <trkpt lat="32.672488" lon="-4.618553">
        <ele>1519.0</ele>
        <time>2008-09-25T15:57:25Z</time>
      </trkpt>
      <trkpt lat="32.672271" lon="-4.619022">
        <ele>1520.5</ele>
        <time>2008-09-25T15:57:28Z</time>
      </trkpt>
      <trkpt lat="32.671980" lon="-4.619646">
        <ele>1522.4</ele>
        <time>2008-09-25T15:57:32Z</time>
      </trkpt>
      <trkpt lat="32.671735" lon="-4.620129">
        <ele>1523.8</ele>
        <time>2008-09-25T15:57:35Z</time>
      </trkpt>
      <trkpt lat="32.671500" lon="-4.620639">
        <ele>1525.3</ele>
        <time>2008-09-25T15:57:38Z</time>
      </trkpt>
      <trkpt lat="32.671228" lon="-4.621200">
        <ele>1526.2</ele>
        <time>2008-09-25T15:57:41Z</time>
      </trkpt>
      <trkpt lat="32.670943" lon="-4.621823">
        <ele>1527.2</ele>
        <time>2008-09-25T15:57:44Z</time>
      </trkpt>
      <trkpt lat="32.670646" lon="-4.622506">
        <ele>1528.2</ele>
        <time>2008-09-25T15:57:47Z</time>
      </trkpt>
      <trkpt lat="32.670429" lon="-4.622982">
        <ele>1529.6</ele>
        <time>2008-09-25T15:57:49Z</time>
      </trkpt>
      <trkpt lat="32.668977" lon="-4.625381">
        <ele>1088.8</ele>
        <time>2008-09-25T15:57:59Z</time>
      </trkpt>
      <trkpt lat="32.668722" lon="-4.625945">
        <ele>1091.7</ele>
        <time>2008-09-25T15:58:02Z</time>
      </trkpt>
      <trkpt lat="32.668445" lon="-4.626526">
        <ele>1094.1</ele>
        <time>2008-09-25T15:58:05Z</time>
      </trkpt>
      <trkpt lat="32.668162" lon="-4.627115">
        <ele>1094.6</ele>
        <time>2008-09-25T15:58:08Z</time>
      </trkpt>
      <trkpt lat="32.667908" lon="-4.627660">
        <ele>1094.1</ele>
        <time>2008-09-25T15:58:11Z</time>
      </trkpt>
      <trkpt lat="32.667781" lon="-4.628217">
        <ele>1093.6</ele>
        <time>2008-09-25T15:58:16Z</time>
      </trkpt>
      <trkpt lat="32.668024" lon="-4.628710">
        <ele>1095.6</ele>
        <time>2008-09-25T15:58:20Z</time>
      </trkpt>
      <trkpt lat="32.668268" lon="-4.629233">
        <ele>1097.0</ele>
        <time>2008-09-25T15:58:23Z</time>
      </trkpt>
      <trkpt lat="32.668540" lon="-4.629818">
        <ele>1097.0</ele>
        <time>2008-09-25T15:58:26Z</time>
      </trkpt>
      <trkpt lat="32.668820" lon="-4.630424">
        <ele>1097.0</ele>
        <time>2008-09-25T15:58:29Z</time>
      </trkpt>
      <trkpt lat="32.669105" lon="-4.631030">
        <ele>1096.0</ele>
        <time>2008-09-25T15:58:32Z</time>
      </trkpt>
      <trkpt lat="32.669391" lon="-4.631654">
        <ele>1096.0</ele>
        <time>2008-09-25T15:58:35Z</time>
      </trkpt>
      <trkpt lat="32.669699" lon="-4.632321">
        <ele>1096.5</ele>
        <time>2008-09-25T15:58:38Z</time>
      </trkpt>
      <trkpt lat="32.669920" lon="-4.632798">
        <ele>1096.0</ele>
        <time>2008-09-25T15:58:40Z</time>
      </trkpt>
      <trkpt lat="32.670150" lon="-4.633303">
        <ele>1097.0</ele>
        <time>2008-09-25T15:58:42Z</time>
      </trkpt>
      <trkpt lat="32.670393" lon="-4.633834">
        <ele>1097.5</ele>
        <time>2008-09-25T15:58:44Z</time>
      </trkpt>
      <trkpt lat="32.670646" lon="-4.634388">
        <ele>1098.0</ele>
        <time>2008-09-25T15:58:46Z</time>
      </trkpt>
      <trkpt lat="32.670910" lon="-4.634962">
        <ele>1097.5</ele>
        <time>2008-09-25T15:58:48Z</time>
      </trkpt>
      <trkpt lat="32.671184" lon="-4.635554">
        <ele>1098.4</ele>
        <time>2008-09-25T15:58:50Z</time>
      </trkpt>
      <trkpt lat="32.671467" lon="-4.636163">
        <ele>1097.5</ele>
        <time>2008-09-25T15:58:52Z</time>
      </trkpt>
      <trkpt lat="32.671756" lon="-4.636787">
        <ele>1097.0</ele>
        <time>2008-09-25T15:58:54Z</time>
      </trkpt>
      <trkpt lat="32.672047" lon="-4.637418">
        <ele>1095.6</ele>
        <time>2008-09-25T15:58:56Z</time>
      </trkpt>
      <trkpt lat="32.672334" lon="-4.638047">
        <ele>1095.1</ele>
        <time>2008-09-25T15:58:58Z</time>
      </trkpt>
      <trkpt lat="32.672628" lon="-4.638691">
        <ele>1094.6</ele>
        <time>2008-09-25T15:59:00Z</time>
      </trkpt>
      <trkpt lat="32.672929" lon="-4.639340">
        <ele>1095.1</ele>
        <time>2008-09-25T15:59:02Z</time>
      </trkpt>
      <trkpt lat="32.673234" lon="-4.639995">
        <ele>1094.6</ele>
        <time>2008-09-25T15:59:04Z</time>
      </trkpt>
      <trkpt lat="32.673539" lon="-4.640650">
        <ele>1096.0</ele>
        <time>2008-09-25T15:59:06Z</time>
      </trkpt>
      <trkpt lat="32.673844" lon="-4.641308">
        <ele>1096.0</ele>
        <time>2008-09-25T15:59:08Z</time>
      </trkpt>
      <trkpt lat="32.674147" lon="-4.641970">
        <ele>1096.5</ele>
        <time>2008-09-25T15:59:10Z</time>
      </trkpt>
      <trkpt lat="32.674448" lon="-4.642636">
        <ele>1098.0</ele>
        <time>2008-09-25T15:59:12Z</time>
      </trkpt>
      <trkpt lat="32.674755" lon="-4.643303">
        <ele>1098.0</ele>
        <time>2008-09-25T15:59:14Z</time>
      </trkpt>
      <trkpt lat="32.675067" lon="-4.643972">
        <ele>1098.0</ele>
        <time>2008-09-25T15:59:16Z</time>
      </trkpt>
      <trkpt lat="32.675380" lon="-4.644647">
        <ele>1097.5</ele>
        <time>2008-09-25T15:59:18Z</time>
      </trkpt>
      <trkpt lat="32.675694" lon="-4.645324">
        <ele>1097.0</ele>
        <time>2008-09-25T15:59:20Z</time>
      </trkpt>
      <trkpt lat="32.676008" lon="-4.646006">
        <ele>1096.5</ele>
        <time>2008-09-25T15:59:22Z</time>
      </trkpt>
      <trkpt lat="32.676315" lon="-4.646674">
        <ele>1095.6</ele>
        <time>2008-09-25T15:59:24Z</time>
      </trkpt>
      <trkpt lat="32.676606" lon="-4.647309">
        <ele>1095.1</ele>
        <time>2008-09-25T15:59:26Z</time>
      </trkpt>
      <trkpt lat="32.676875" lon="-4.647885">
        <ele>1091.2</ele>
        <time>2008-09-25T15:59:28Z</time>
      </trkpt>
      <trkpt lat="32.677116" lon="-4.648400">
        <ele>1088.8</ele>
        <time>2008-09-25T15:59:30Z</time>
      </trkpt>
      <trkpt lat="32.677343" lon="-4.648900">
        <ele>1089.8</ele>
        <time>2008-09-25T15:59:32Z</time>
      </trkpt>
      <trkpt lat="32.677564" lon="-4.649423">
        <ele>1089.3</ele>
        <time>2008-09-25T15:59:34Z</time>
      </trkpt>
      <trkpt lat="32.677799" lon="-4.649958">
        <ele>1091.7</ele>
        <time>2008-09-25T15:59:36Z</time>
      </trkpt>
      <trkpt lat="32.678054" lon="-4.650492">
        <ele>1092.7</ele>
        <time>2008-09-25T15:59:38Z</time>
      </trkpt>
      <trkpt lat="32.678318" lon="-4.651030">
        <ele>1093.2</ele>
        <time>2008-09-25T15:59:40Z</time>
      </trkpt>
      <trkpt lat="32.678577" lon="-4.651591">
        <ele>1094.1</ele>
        <time>2008-09-25T15:59:42Z</time>
      </trkpt>
      <trkpt lat="32.678837" lon="-4.652166">
        <ele>1094.6</ele>
        <time>2008-09-25T15:59:44Z</time>
      </trkpt>
      <trkpt lat="32.679095" lon="-4.652727">
        <ele>1094.6</ele>
        <time>2008-09-25T15:59:46Z</time>
      </trkpt>
      <trkpt lat="32.679344" lon="-4.653249">
        <ele>1092.2</ele>
        <time>2008-09-25T15:59:48Z</time>
      </trkpt>
      <trkpt lat="32.679570" lon="-4.653729">
        <ele>1090.8</ele>
        <time>2008-09-25T15:59:50Z</time>
      </trkpt>
      <trkpt lat="32.679862" lon="-4.654362">
        <ele>1088.8</ele>
        <time>2008-09-25T15:59:53Z</time>
      </trkpt>
      <trkpt lat="32.680101" lon="-4.654879">
        <ele>1087.9</ele>
        <time>2008-09-25T15:59:56Z</time>
      </trkpt>
      <trkpt lat="32.680323" lon="-4.655353">
        <ele>1086.9</ele>
        <time>2008-09-25T15:59:59Z</time>
      </trkpt>
      <trkpt lat="32.680537" lon="-4.655836">
        <ele>1085.9</ele>
        <time>2008-09-25T16:00:02Z</time>
      </trkpt>
      <trkpt lat="32.680706" lon="-4.656332">
        <ele>1083.5</ele>
        <time>2008-09-25T16:00:05Z</time>
      </trkpt>
      <trkpt lat="32.680816" lon="-4.657023">
        <ele>1080.7</ele>
        <time>2008-09-25T16:00:09Z</time>
      </trkpt>
      <trkpt lat="32.680790" lon="-4.657704">
        <ele>1079.2</ele>
        <time>2008-09-25T16:00:13Z</time>
      </trkpt>
      <trkpt lat="32.680633" lon="-4.658367">
        <ele>1077.8</ele>
        <time>2008-09-25T16:00:17Z</time>
      </trkpt>
      <trkpt lat="32.680425" lon="-4.658885">
        <ele>1075.9</ele>
        <time>2008-09-25T16:00:20Z</time>
      </trkpt>
      <trkpt lat="32.680141" lon="-4.659483">
        <ele>1074.9</ele>
        <time>2008-09-25T16:00:23Z</time>
      </trkpt>
      <trkpt lat="32.679839" lon="-4.660206">
        <ele>1076.3</ele>
        <time>2008-09-25T16:00:26Z</time>
      </trkpt>
      <trkpt lat="32.679638" lon="-4.660739">
        <ele>1075.4</ele>
        <time>2008-09-25T16:00:28Z</time>
      </trkpt>
      <trkpt lat="32.679429" lon="-4.661267">
        <ele>1073.4</ele>
        <time>2008-09-25T16:00:30Z</time>
      </trkpt>
      <trkpt lat="32.679212" lon="-4.661792">
        <ele>1072.5</ele>
        <time>2008-09-25T16:00:32Z</time>
      </trkpt>
      <trkpt lat="32.678998" lon="-4.662316">
        <ele>1071.0</ele>
        <time>2008-09-25T16:00:34Z</time>
      </trkpt>
      <trkpt lat="32.678814" lon="-4.662849">
        <ele>1069.6</ele>
        <time>2008-09-25T16:00:36Z</time>
      </trkpt>
      <trkpt lat="32.678703" lon="-4.663413">
        <ele>1070.1</ele>
        <time>2008-09-25T16:00:38Z</time>
      </trkpt>
      <trkpt lat="32.678670" lon="-4.664009">
        <ele>1071.0</ele>
        <time>2008-09-25T16:00:40Z</time>
      </trkpt>
      <trkpt lat="32.678668" lon="-4.664628">
        <ele>1070.6</ele>
        <time>2008-09-25T16:00:42Z</time>
      </trkpt>
      <trkpt lat="32.678667" lon="-4.665261">
        <ele>1072.0</ele>
        <time>2008-09-25T16:00:44Z</time>
      </trkpt>
      <trkpt lat="32.678664" lon="-4.665907">
        <ele>1073.4</ele>
        <time>2008-09-25T16:00:46Z</time>
      </trkpt>
      <trkpt lat="32.678661" lon="-4.666568">
        <ele>1073.0</ele>
        <time>2008-09-25T16:00:48Z</time>
      </trkpt>
      <trkpt lat="32.678658" lon="-4.667235">
        <ele>1072.0</ele>
        <time>2008-09-25T16:00:50Z</time>
      </trkpt>
      <trkpt lat="32.678657" lon="-4.667905">
        <ele>1072.5</ele>
        <time>2008-09-25T16:00:52Z</time>
      </trkpt>
      <trkpt lat="32.678653" lon="-4.668574">
        <ele>1072.5</ele>
        <time>2008-09-25T16:00:54Z</time>
      </trkpt>
      <trkpt lat="32.678650" lon="-4.669233">
        <ele>1071.0</ele>
        <time>2008-09-25T16:00:56Z</time>
      </trkpt>
      <trkpt lat="32.678646" lon="-4.669869">
        <ele>1070.6</ele>
        <time>2008-09-25T16:00:58Z</time>
      </trkpt>
      <trkpt lat="32.678646" lon="-4.670440">
        <ele>1068.6</ele>
        <time>2008-09-25T16:01:00Z</time>
      </trkpt>
      <trkpt lat="32.678667" lon="-4.671147">
        <ele>1067.7</ele>
        <time>2008-09-25T16:01:03Z</time>
      </trkpt>
      <trkpt lat="32.678746" lon="-4.671857">
        <ele>1066.7</ele>
        <time>2008-09-25T16:01:06Z</time>
      </trkpt>
      <trkpt lat="32.678867" lon="-4.672604">
        <ele>1067.2</ele>
        <time>2008-09-25T16:01:09Z</time>
      </trkpt>
      <trkpt lat="32.678990" lon="-4.673390">
        <ele>1068.2</ele>
        <time>2008-09-25T16:01:12Z</time>
      </trkpt>
      <trkpt lat="32.679078" lon="-4.673932">
        <ele>1067.7</ele>
        <time>2008-09-25T16:01:14Z</time>
      </trkpt>
      <trkpt lat="32.679169" lon="-4.674483">
        <ele>1066.7</ele>
        <time>2008-09-25T16:01:16Z</time>
      </trkpt>
      <trkpt lat="32.679263" lon="-4.675049">
        <ele>1067.2</ele>
        <time>2008-09-25T16:01:18Z</time>
      </trkpt>
      <trkpt lat="32.679358" lon="-4.675633">
        <ele>1065.3</ele>
        <time>2008-09-25T16:01:20Z</time>
      </trkpt>
      <trkpt lat="32.679463" lon="-4.676237">
        <ele>1065.8</ele>
        <time>2008-09-25T16:01:22Z</time>
      </trkpt>
      <trkpt lat="32.679579" lon="-4.676852">
        <ele>1063.8</ele>
        <time>2008-09-25T16:01:24Z</time>
      </trkpt>
      <trkpt lat="32.679688" lon="-4.677479">
        <ele>1063.8</ele>
        <time>2008-09-25T16:01:26Z</time>
      </trkpt>
      <trkpt lat="32.679790" lon="-4.678106">
        <ele>1063.8</ele>
        <time>2008-09-25T16:01:28Z</time>
      </trkpt>
      <trkpt lat="32.679890" lon="-4.678733">
        <ele>1063.4</ele>
        <time>2008-09-25T16:01:30Z</time>
      </trkpt>
      <trkpt lat="32.679990" lon="-4.679361">
        <ele>1064.3</ele>
        <time>2008-09-25T16:01:32Z</time>
      </trkpt>
      <trkpt lat="32.680091" lon="-4.679986">
        <ele>1063.4</ele>
        <time>2008-09-25T16:01:34Z</time>
      </trkpt>
      <trkpt lat="32.680194" lon="-4.680611">
        <ele>1064.3</ele>
        <time>2008-09-25T16:01:36Z</time>
      </trkpt>
      <trkpt lat="32.680296" lon="-4.681235">
        <ele>1066.2</ele>
        <time>2008-09-25T16:01:38Z</time>
      </trkpt>
      <trkpt lat="32.680414" lon="-4.681853">
        <ele>1064.3</ele>
        <time>2008-09-25T16:01:40Z</time>
      </trkpt>
      <trkpt lat="32.680551" lon="-4.682469">
        <ele>1063.4</ele>
        <time>2008-09-25T16:01:42Z</time>
      </trkpt>
      <trkpt lat="32.680698" lon="-4.683089">
        <ele>1062.9</ele>
        <time>2008-09-25T16:01:44Z</time>
      </trkpt>
      <trkpt lat="32.680851" lon="-4.683712">
        <ele>1062.9</ele>
        <time>2008-09-25T16:01:46Z</time>
      </trkpt>
      <trkpt lat="32.681006" lon="-4.684339">
        <ele>1063.8</ele>
        <time>2008-09-25T16:01:48Z</time>
      </trkpt>
      <trkpt lat="32.681158" lon="-4.684959">
        <ele>1064.3</ele>
        <time>2008-09-25T16:01:50Z</time>
      </trkpt>
      <trkpt lat="32.681302" lon="-4.685559">
        <ele>1063.8</ele>
        <time>2008-09-25T16:01:52Z</time>
      </trkpt>
      <trkpt lat="32.681444" lon="-4.686150">
        <ele>1063.4</ele>
        <time>2008-09-25T16:01:54Z</time>
      </trkpt>
      <trkpt lat="32.681588" lon="-4.686743">
        <ele>1062.4</ele>
        <time>2008-09-25T16:01:56Z</time>
      </trkpt>
      <trkpt lat="32.681732" lon="-4.687338">
        <ele>1062.9</ele>
        <time>2008-09-25T16:01:58Z</time>
      </trkpt>
      <trkpt lat="32.681878" lon="-4.687928">
        <ele>1063.4</ele>
        <time>2008-09-25T16:02:00Z</time>
      </trkpt>
      <trkpt lat="32.682024" lon="-4.688516">
        <ele>1062.4</ele>
        <time>2008-09-25T16:02:02Z</time>
      </trkpt>
      <trkpt lat="32.682169" lon="-4.689104">
        <ele>1062.4</ele>
        <time>2008-09-25T16:02:04Z</time>
      </trkpt>
      <trkpt lat="32.682313" lon="-4.689693">
        <ele>1061.4</ele>
        <time>2008-09-25T16:02:06Z</time>
      </trkpt>
      <trkpt lat="32.682452" lon="-4.690279">
        <ele>1061.9</ele>
        <time>2008-09-25T16:02:08Z</time>
      </trkpt>
      <trkpt lat="32.682591" lon="-4.690850">
        <ele>1059.5</ele>
        <time>2008-09-25T16:02:10Z</time>
      </trkpt>
      <trkpt lat="32.682722" lon="-4.691400">
        <ele>1059.0</ele>
        <time>2008-09-25T16:02:12Z</time>
      </trkpt>
      <trkpt lat="32.682821" lon="-4.691957">
        <ele>1058.5</ele>
        <time>2008-09-25T16:02:14Z</time>
      </trkpt>
      <trkpt lat="32.682847" lon="-4.692538">
        <ele>1058.5</ele>
        <time>2008-09-25T16:02:16Z</time>
      </trkpt>
      <trkpt lat="32.682791" lon="-4.693132">
        <ele>1059.0</ele>
        <time>2008-09-25T16:02:18Z</time>
      </trkpt>
      <trkpt lat="32.682698" lon="-4.693736">
        <ele>1059.0</ele>
        <time>2008-09-25T16:02:20Z</time>
      </trkpt>
      <trkpt lat="32.682598" lon="-4.694352">
        <ele>1059.5</ele>
        <time>2008-09-25T16:02:22Z</time>
      </trkpt>
      <trkpt lat="32.682495" lon="-4.694982">
        <ele>1059.5</ele>
        <time>2008-09-25T16:02:24Z</time>
      </trkpt>
      <trkpt lat="32.682388" lon="-4.695625">
        <ele>1061.0</ele>
        <time>2008-09-25T16:02:26Z</time>
      </trkpt>
      <trkpt lat="32.682275" lon="-4.696280">
        <ele>1061.9</ele>
        <time>2008-09-25T16:02:28Z</time>
      </trkpt>
      <trkpt lat="32.682162" lon="-4.696933">
        <ele>1063.4</ele>
        <time>2008-09-25T16:02:30Z</time>
      </trkpt>
      <trkpt lat="32.682054" lon="-4.697579">
        <ele>1061.9</ele>
        <time>2008-09-25T16:02:32Z</time>
      </trkpt>
      <trkpt lat="32.681952" lon="-4.698208">
        <ele>1061.4</ele>
        <time>2008-09-25T16:02:34Z</time>
      </trkpt>
      <trkpt lat="32.681885" lon="-4.698817">
        <ele>1061.0</ele>
        <time>2008-09-25T16:02:36Z</time>
      </trkpt>
      <trkpt lat="32.681916" lon="-4.699397">
        <ele>1060.5</ele>
        <time>2008-09-25T16:02:38Z</time>
      </trkpt>
      <trkpt lat="32.682041" lon="-4.699946">
        <ele>1059.0</ele>
        <time>2008-09-25T16:02:40Z</time>
      </trkpt>
      <trkpt lat="32.682190" lon="-4.700479">
        <ele>1057.6</ele>
        <time>2008-09-25T16:02:42Z</time>
      </trkpt>
      <trkpt lat="32.682329" lon="-4.701012">
        <ele>1058.1</ele>
        <time>2008-09-25T16:02:44Z</time>
      </trkpt>
      <trkpt lat="32.682424" lon="-4.701566">
        <ele>1059.5</ele>
        <time>2008-09-25T16:02:46Z</time>
      </trkpt>
      <trkpt lat="32.682473" lon="-4.702138">
        <ele>1061.0</ele>
        <time>2008-09-25T16:02:48Z</time>
      </trkpt>
      <trkpt lat="32.682490" lon="-4.702715">
        <ele>1061.4</ele>
        <time>2008-09-25T16:02:50Z</time>
      </trkpt>
      <trkpt lat="32.682500" lon="-4.703289">
        <ele>1062.4</ele>
        <time>2008-09-25T16:02:52Z</time>
      </trkpt>
      <trkpt lat="32.682516" lon="-4.703856">
        <ele>1063.8</ele>
        <time>2008-09-25T16:02:54Z</time>
      </trkpt>
      <trkpt lat="32.682531" lon="-4.704412">
        <ele>1064.3</ele>
        <time>2008-09-25T16:02:56Z</time>
      </trkpt>
      <trkpt lat="32.682544" lon="-4.704950">
        <ele>1065.8</ele>
        <time>2008-09-25T16:02:58Z</time>
      </trkpt>
      <trkpt lat="32.682565" lon="-4.705746">
        <ele>1065.8</ele>
        <time>2008-09-25T16:03:01Z</time>
      </trkpt>
      <trkpt lat="32.682593" lon="-4.706515">
        <ele>1066.7</ele>
        <time>2008-09-25T16:03:04Z</time>
      </trkpt>
      <trkpt lat="32.682604" lon="-4.707176">
        <ele>1066.2</ele>
        <time>2008-09-25T16:03:07Z</time>
      </trkpt>
      <trkpt lat="32.682544" lon="-4.707850">
        <ele>1066.2</ele>
        <time>2008-09-25T16:03:11Z</time>
      </trkpt>
      <trkpt lat="32.682403" lon="-4.708447">
        <ele>1065.8</ele>
        <time>2008-09-25T16:03:15Z</time>
      </trkpt>
      <trkpt lat="32.682217" lon="-4.709067">
        <ele>1065.3</ele>
        <time>2008-09-25T16:03:19Z</time>
      </trkpt>
      <trkpt lat="32.682014" lon="-4.709733">
        <ele>1063.8</ele>
        <time>2008-09-25T16:03:23Z</time>
      </trkpt>
      <trkpt lat="32.681903" lon="-4.710291">
        <ele>1062.4</ele>
        <time>2008-09-25T16:03:26Z</time>
      </trkpt>
      <trkpt lat="32.681826" lon="-4.710877">
        <ele>1060.5</ele>
        <time>2008-09-25T16:03:29Z</time>
      </trkpt>
      <trkpt lat="32.681658" lon="-4.713403">
        <ele>1405.6</ele>
        <time>2008-09-25T16:14:28Z</time>
      </trkpt>
      <trkpt lat="32.681680" lon="-4.713897">
        <ele>1463.7</ele>
        <time>2008-09-25T16:14:59Z</time>
      </trkpt>
      <trkpt lat="32.681520" lon="-4.714475">
        <ele>1469.0</ele>
        <time>2008-09-25T16:15:04Z</time>
      </trkpt>
      <trkpt lat="32.681365" lon="-4.715037">
        <ele>1471.9</ele>
        <time>2008-09-25T16:15:08Z</time>
      </trkpt>
      <trkpt lat="32.681205" lon="-4.715645">
        <ele>1474.3</ele>
        <time>2008-09-25T16:15:12Z</time>
      </trkpt>
      <trkpt lat="32.681117" lon="-4.716286">
        <ele>1475.8</ele>
        <time>2008-09-25T16:15:16Z</time>
      </trkpt>
      <trkpt lat="32.681096" lon="-4.716926">
        <ele>1478.2</ele>
        <time>2008-09-25T16:15:20Z</time>
      </trkpt>
      <trkpt lat="32.681078" lon="-4.717539">
        <ele>1479.1</ele>
        <time>2008-09-25T16:15:24Z</time>
      </trkpt>
      <trkpt lat="32.681065" lon="-4.718148">
        <ele>1480.6</ele>
        <time>2008-09-25T16:15:28Z</time>
      </trkpt>
      <trkpt lat="32.681051" lon="-4.718724">
        <ele>1480.1</ele>
        <time>2008-09-25T16:15:32Z</time>
      </trkpt>
      <trkpt lat="32.681033" lon="-4.719265">
        <ele>1480.1</ele>
        <time>2008-09-25T16:15:36Z</time>
      </trkpt>
      <trkpt lat="32.681013" lon="-4.719897">
        <ele>1480.1</ele>
        <time>2008-09-25T16:15:41Z</time>
      </trkpt>
      <trkpt lat="32.680951" lon="-4.720504">
        <ele>1477.7</ele>
        <time>2008-09-25T16:15:46Z</time>
      </trkpt>
      <trkpt lat="32.680851" lon="-4.721155">
        <ele>1479.6</ele>
        <time>2008-09-25T16:15:51Z</time>
      </trkpt>
      <trkpt lat="32.680755" lon="-4.721772">
        <ele>1481.0</ele>
        <time>2008-09-25T16:15:55Z</time>
      </trkpt>
      <trkpt lat="32.680653" lon="-4.722428">
        <ele>1481.0</ele>
        <time>2008-09-25T16:15:59Z</time>
      </trkpt>
      <trkpt lat="32.680553" lon="-4.723091">
        <ele>1481.0</ele>
        <time>2008-09-25T16:16:03Z</time>
      </trkpt>
      <trkpt lat="32.680450" lon="-4.723754">
        <ele>1482.0</ele>
        <time>2008-09-25T16:16:07Z</time>
      </trkpt>
      <trkpt lat="32.680337" lon="-4.724371">
        <ele>1482.5</ele>
        <time>2008-09-25T16:16:11Z</time>
      </trkpt>
      <trkpt lat="32.680234" lon="-4.724909">
        <ele>1485.9</ele>
        <time>2008-09-25T16:16:15Z</time>
      </trkpt>
      <trkpt lat="32.680073" lon="-4.725545">
        <ele>1486.8</ele>
        <time>2008-09-25T16:16:20Z</time>
      </trkpt>
      <trkpt lat="32.679907" lon="-4.726173">
        <ele>1486.8</ele>
        <time>2008-09-25T16:16:25Z</time>
      </trkpt>
      <trkpt lat="32.679761" lon="-4.726758">
        <ele>1486.8</ele>
        <time>2008-09-25T16:16:30Z</time>
      </trkpt>
      <trkpt lat="32.679610" lon="-4.727330">
        <ele>1485.4</ele>
        <time>2008-09-25T16:16:35Z</time>
      </trkpt>
      <trkpt lat="32.679468" lon="-4.727864">
        <ele>1484.4</ele>
        <time>2008-09-25T16:16:40Z</time>
      </trkpt>
      <trkpt lat="32.679328" lon="-4.728423">
        <ele>1484.9</ele>
        <time>2008-09-25T16:16:46Z</time>
      </trkpt>
      <trkpt lat="32.679181" lon="-4.729025">
        <ele>1484.4</ele>
        <time>2008-09-25T16:16:52Z</time>
      </trkpt>
      <trkpt lat="32.679025" lon="-4.729600">
        <ele>1483.9</ele>
        <time>2008-09-25T16:16:58Z</time>
      </trkpt>
      <trkpt lat="32.678897" lon="-4.730117">
        <ele>1483.5</ele>
        <time>2008-09-25T16:17:04Z</time>
      </trkpt>
      <trkpt lat="32.678765" lon="-4.730652">
        <ele>1482.5</ele>
        <time>2008-09-25T16:17:10Z</time>
      </trkpt>
      <trkpt lat="32.678645" lon="-4.731278">
        <ele>1482.5</ele>
        <time>2008-09-25T16:17:16Z</time>
      </trkpt>
      <trkpt lat="32.678632" lon="-4.731829">
        <ele>1482.5</ele>
        <time>2008-09-25T16:17:21Z</time>
      </trkpt>
      <trkpt lat="32.678702" lon="-4.732386">
        <ele>1483.0</ele>
        <time>2008-09-25T16:17:26Z</time>
      </trkpt>
      <trkpt lat="32.678844" lon="-4.732906">
        <ele>1483.9</ele>
        <time>2008-09-25T16:17:31Z</time>
      </trkpt>
      <trkpt lat="32.679079" lon="-4.733374">
        <ele>1483.5</ele>
        <time>2008-09-25T16:17:36Z</time>
      </trkpt>
      <trkpt lat="32.679333" lon="-4.733913">
        <ele>1482.5</ele>
        <time>2008-09-25T16:17:42Z</time>
      </trkpt>
      <trkpt lat="32.679530" lon="-4.734467">
        <ele>1480.1</ele>
        <time>2008-09-25T16:17:48Z</time>
      </trkpt>
      <trkpt lat="32.679646" lon="-4.735028">
        <ele>1478.2</ele>
        <time>2008-09-25T16:17:55Z</time>
      </trkpt>
      <trkpt lat="32.679682" lon="-4.735565">
        <ele>1478.6</ele>
        <time>2008-09-25T16:18:02Z</time>
      </trkpt>
      <trkpt lat="32.679376" lon="-4.735986">
        <ele>1480.6</ele>
        <time>2008-09-25T16:18:10Z</time>
      </trkpt>
      <trkpt lat="32.679138" lon="-4.736556">
        <ele>1482.0</ele>
        <time>2008-09-25T16:18:17Z</time>
      </trkpt>
      <trkpt lat="32.678975" lon="-4.737074">
        <ele>1484.4</ele>
        <time>2008-09-25T16:18:22Z</time>
      </trkpt>
      <trkpt lat="32.678802" lon="-4.737586">
        <ele>1485.9</ele>
        <time>2008-09-25T16:18:27Z</time>
      </trkpt>
      <trkpt lat="32.678592" lon="-4.738152">
        <ele>1487.8</ele>
        <time>2008-09-25T16:18:33Z</time>
      </trkpt>
      <trkpt lat="32.678429" lon="-4.738675">
        <ele>1488.3</ele>
        <time>2008-09-25T16:18:39Z</time>
      </trkpt>
      <trkpt lat="32.678050" lon="-4.738693">
        <ele>1488.3</ele>
        <time>2008-09-25T16:18:51Z</time>
      </trkpt>
      <trkpt lat="32.677876" lon="-4.738207">
        <ele>1487.3</ele>
        <time>2008-09-25T16:19:22Z</time>
      </trkpt>
      <trkpt lat="32.677998" lon="-4.738340">
        <ele>1486.3</ele>
        <time>2008-09-25T16:19:49Z</time>
      </trkpt>
    </trkseg>
  </trk>
</gpx>
